<?xml version='1.0' encoding='UTF-8'?><gpx version="1.1" creator="JPX - https://github.com/jenetics/jpx" xmlns="http://www.topografix.com/GPX/1/1"><trk><trkseg><trkpt lat="42.45765550545408" lon="14.136110617946045"><ele>158.0</ele><time>2026-04-04T08:53:06Z</time></trkpt><trkpt lat="42.45754561232539" lon="14.136143704782366"><ele>158.0</ele><time>2026-04-04T08:53:08Z</time></trkpt><trkpt lat="42.4574222400546" lon="14.136167218151943"><ele>158.0</ele><time>2026-04-04T08:53:10Z</time></trkpt><trkpt lat="42.45729707572495" lon="14.136175892082326"><ele>158.0</ele><time>2026-04-04T08:53:12Z</time></trkpt><trkpt lat="42.457173397173264" lon="14.13617890305655"><ele>159.5</ele><time>2026-04-04T08:53:14Z</time></trkpt><trkpt lat="42.457104413582385" lon="14.136180079751187"><ele>161.0</ele><time>2026-04-04T08:53:15Z</time></trkpt><trkpt lat="42.45703282996289" lon="14.136203192609813"><ele>162.5</ele><time>2026-04-04T08:53:16Z</time></trkpt><trkpt lat="42.45691242547182" lon="14.13620852316003"><ele>164.0</ele><time>2026-04-04T08:53:18Z</time></trkpt><trkpt lat="42.456848734408105" lon="14.136208498352294"><ele>165.5</ele><time>2026-04-04T08:53:19Z</time></trkpt><trkpt lat="42.456785840713366" lon="14.136220522718467"><ele>167.0</ele><time>2026-04-04T08:53:20Z</time></trkpt><trkpt lat="42.456715629376035" lon="14.136233805945196"><ele>167.0</ele><time>2026-04-04T08:53:21Z</time></trkpt><trkpt lat="42.45664849732831" lon="14.13624143105813"><ele>167.0</ele><time>2026-04-04T08:53:22Z</time></trkpt><trkpt lat="42.45657687692587" lon="14.136240079966315"><ele>167.0</ele><time>2026-04-04T08:53:23Z</time></trkpt><trkpt lat="42.45650324166276" lon="14.13622879514515"><ele>167.0</ele><time>2026-04-04T08:53:23.999Z</time></trkpt><trkpt lat="42.45642425310074" lon="14.136209199160682"><ele>167.0</ele><time>2026-04-04T08:53:24.999Z</time></trkpt><trkpt lat="42.45635138573357" lon="14.136185626707423"><ele>167.0</ele><time>2026-04-04T08:53:25.999Z</time></trkpt><trkpt lat="42.456284039272745" lon="14.136162386082647"><ele>167.0</ele><time>2026-04-04T08:53:26.999Z</time></trkpt><trkpt lat="42.45616832134762" lon="14.136115429790081"><ele>169.6</ele><time>2026-04-04T08:53:28.999Z</time></trkpt><trkpt lat="42.456062273025594" lon="14.136062828099467"><ele>172.2</ele><time>2026-04-04T08:53:30.999Z</time></trkpt><trkpt lat="42.45599738894801" lon="14.136022122457213"><ele>174.8</ele><time>2026-04-04T08:53:32.999Z</time></trkpt><trkpt lat="42.45601517056229" lon="14.135837212098682"><ele>177.4</ele><time>2026-04-04T08:53:36.999Z</time></trkpt><trkpt lat="42.45608113279194" lon="14.135704899009433"><ele>180.0</ele><time>2026-04-04T08:53:38.999Z</time></trkpt><trkpt lat="42.45612347414541" lon="14.135630557869366"><ele>182.33333333333334</ele><time>2026-04-04T08:53:39.999Z</time></trkpt><trkpt lat="42.456160703577076" lon="14.135545280771673"><ele>184.66666666666669</ele><time>2026-04-04T08:53:40.999Z</time></trkpt><trkpt lat="42.45619283032072" lon="14.135458659134173"><ele>187.0</ele><time>2026-04-04T08:53:41.999Z</time></trkpt><trkpt lat="42.45622291435152" lon="14.135345644805405"><ele>189.33333333333334</ele><time>2026-04-04T08:53:42.999Z</time></trkpt><trkpt lat="42.45627638737071" lon="14.135228525039636"><ele>191.66666666666669</ele><time>2026-04-04T08:53:43.999Z</time></trkpt><trkpt lat="42.456314957444924" lon="14.135102810240115"><ele>194.0</ele><time>2026-04-04T08:53:44.999Z</time></trkpt><trkpt lat="42.45635382553543" lon="14.134976124123481"><ele>188.79999999999998</ele><time>2026-04-04T08:53:45.999Z</time></trkpt><trkpt lat="42.45639141432036" lon="14.134853607863521"><ele>183.6</ele><time>2026-04-04T08:53:46.999Z</time></trkpt><trkpt lat="42.456429296833676" lon="14.13473058243124"><ele>178.4</ele><time>2026-04-04T08:53:47.999Z</time></trkpt><trkpt lat="42.4564562592629" lon="14.134587817358929"><ele>173.2</ele><time>2026-04-04T08:53:48.999Z</time></trkpt><trkpt lat="42.456500872789455" lon="14.13444947309088"><ele>168.0</ele><time>2026-04-04T08:53:49.999Z</time></trkpt><trkpt lat="42.45655419910899" lon="14.134332328840461"><ele>168.0</ele><time>2026-04-04T08:53:50.999Z</time></trkpt><trkpt lat="42.4565922928425" lon="14.134209011413816"><ele>168.0</ele><time>2026-04-04T08:53:51.999Z</time></trkpt><trkpt lat="42.45662715313692" lon="14.134090414554361"><ele>168.0</ele><time>2026-04-04T08:53:52.999Z</time></trkpt><trkpt lat="42.4566601436293" lon="14.13396881613519"><ele>168.0</ele><time>2026-04-04T08:53:53.999Z</time></trkpt><trkpt lat="42.4566892753314" lon="14.133855413874706"><ele>168.0</ele><time>2026-04-04T08:53:54.999Z</time></trkpt><trkpt lat="42.45671549931585" lon="14.133738951187555"><ele>168.0</ele><time>2026-04-04T08:53:55.999Z</time></trkpt><trkpt lat="42.4567387827796" lon="14.133628517821442"><ele>168.0</ele><time>2026-04-04T08:53:56.999Z</time></trkpt><trkpt lat="42.45675861102588" lon="14.133518853698067"><ele>168.0</ele><time>2026-04-04T08:53:57.999Z</time></trkpt><trkpt lat="42.4567770922577" lon="14.133403580527858"><ele>168.0</ele><time>2026-04-04T08:53:58.999Z</time></trkpt><trkpt lat="42.45679105592005" lon="14.133305752475824"><ele>168.0</ele><time>2026-04-04T08:53:59.999Z</time></trkpt><trkpt lat="42.45681174511433" lon="14.133144723657056"><ele>168.0</ele><time>2026-04-04T08:54:01.999Z</time></trkpt><trkpt lat="42.45682267807537" lon="14.133058010287845"><ele>167.60000000000002</ele><time>2026-04-04T08:54:02.999Z</time></trkpt><trkpt lat="42.45683358255097" lon="14.1329554341885"><ele>167.20000000000002</ele><time>2026-04-04T08:54:03.999Z</time></trkpt><trkpt lat="42.45684614793472" lon="14.132841137278445"><ele>166.8</ele><time>2026-04-04T08:54:04.999Z</time></trkpt><trkpt lat="42.45686312342945" lon="14.132713140416339"><ele>166.4</ele><time>2026-04-04T08:54:05.999Z</time></trkpt><trkpt lat="42.45687967951002" lon="14.132572716880002"><ele>166.0</ele><time>2026-04-04T08:54:06.999Z</time></trkpt><trkpt lat="42.45691893072857" lon="14.132436372635224"><ele>166.0</ele><time>2026-04-04T08:54:07.999Z</time></trkpt><trkpt lat="42.45695986236484" lon="14.132308444752974"><ele>166.0</ele><time>2026-04-04T08:54:08.999Z</time></trkpt><trkpt lat="42.45701211887597" lon="14.132174660101954"><ele>166.0</ele><time>2026-04-04T08:54:09.999Z</time></trkpt><trkpt lat="42.457070109941554" lon="14.13203407758051"><ele>166.0</ele><time>2026-04-04T08:54:10.999Z</time></trkpt><trkpt lat="42.457137536553745" lon="14.131914652254434"><ele>166.0</ele><time>2026-04-04T08:54:11.999Z</time></trkpt><trkpt lat="42.45718975262361" lon="14.13178795898144"><ele>164.8</ele><time>2026-04-04T08:54:12.999Z</time></trkpt><trkpt lat="42.45722598797044" lon="14.131654804869013"><ele>163.60000000000002</ele><time>2026-04-04T08:54:13.999Z</time></trkpt><trkpt lat="42.45727974081312" lon="14.13153186168678"><ele>162.4</ele><time>2026-04-04T08:54:14.999Z</time></trkpt><trkpt lat="42.45733713109388" lon="14.131409302419941"><ele>161.2</ele><time>2026-04-04T08:54:15.999Z</time></trkpt><trkpt lat="42.45739044493343" lon="14.131294410734291"><ele>160.0</ele><time>2026-04-04T08:54:16.999Z</time></trkpt><trkpt lat="42.45742994789976" lon="14.13119107459328"><ele>160.0</ele><time>2026-04-04T08:54:17.999Z</time></trkpt><trkpt lat="42.45747021617729" lon="14.13109557633986"><ele>160.0</ele><time>2026-04-04T08:54:18.999Z</time></trkpt><trkpt lat="42.457507257028574" lon="14.131012697109522"><ele>160.0</ele><time>2026-04-04T08:54:19.999Z</time></trkpt><trkpt lat="42.45754624387612" lon="14.130932770132443"><ele>160.0</ele><time>2026-04-04T08:54:20.998Z</time></trkpt><trkpt lat="42.45759522059955" lon="14.130849332517377"><ele>160.0</ele><time>2026-04-04T08:54:21.998Z</time></trkpt><trkpt lat="42.457652322399476" lon="14.130750232386289"><ele>160.0</ele><time>2026-04-04T08:54:22.998Z</time></trkpt><trkpt lat="42.457721343878184" lon="14.130636263149002"><ele>160.25</ele><time>2026-04-04T08:54:23.998Z</time></trkpt><trkpt lat="42.457805312987084" lon="14.130526896371535"><ele>160.5</ele><time>2026-04-04T08:54:24.998Z</time></trkpt><trkpt lat="42.45790306663567" lon="14.130425308915996"><ele>160.75</ele><time>2026-04-04T08:54:25.998Z</time></trkpt><trkpt lat="42.45800806571225" lon="14.130330147391415"><ele>161.0</ele><time>2026-04-04T08:54:26.998Z</time></trkpt><trkpt lat="42.45811493074837" lon="14.130220200526379"><ele>160.75</ele><time>2026-04-04T08:54:28Z</time></trkpt><trkpt lat="42.45821577809657" lon="14.130108497282778"><ele>160.5</ele><time>2026-04-04T08:54:29Z</time></trkpt><trkpt lat="42.458311927142894" lon="14.129979677474818"><ele>160.25</ele><time>2026-04-04T08:54:30Z</time></trkpt><trkpt lat="42.458400960744726" lon="14.129845013178008"><ele>160.0</ele><time>2026-04-04T08:54:31Z</time></trkpt><trkpt lat="42.458475567468355" lon="14.129715505941046"><ele>160.0</ele><time>2026-04-04T08:54:32Z</time></trkpt><trkpt lat="42.458532608739034" lon="14.129579910467461"><ele>160.0</ele><time>2026-04-04T08:54:33Z</time></trkpt><trkpt lat="42.458585677134494" lon="14.129444328354548"><ele>160.0</ele><time>2026-04-04T08:54:34Z</time></trkpt><trkpt lat="42.458644473587206" lon="14.129323514909998"><ele>160.0</ele><time>2026-04-04T08:54:35Z</time></trkpt><trkpt lat="42.45866369940688" lon="14.129183007751612"><ele>160.0</ele><time>2026-04-04T08:54:36Z</time></trkpt><trkpt lat="42.45869240357157" lon="14.129048760655827"><ele>158.75</ele><time>2026-04-04T08:54:37Z</time></trkpt><trkpt lat="42.458712888736834" lon="14.128903984632153"><ele>157.5</ele><time>2026-04-04T08:54:38Z</time></trkpt><trkpt lat="42.45871879923253" lon="14.128755806357928"><ele>156.25</ele><time>2026-04-04T08:54:39Z</time></trkpt><trkpt lat="42.45870842471419" lon="14.128594054473862"><ele>155.0</ele><time>2026-04-04T08:54:40Z</time></trkpt><trkpt lat="42.458686094849035" lon="14.128431430923515"><ele>155.0</ele><time>2026-04-04T08:54:41Z</time></trkpt><trkpt lat="42.45864662903036" lon="14.128267879338365"><ele>155.0</ele><time>2026-04-04T08:54:42Z</time></trkpt><trkpt lat="42.458593925858914" lon="14.128107832474322"><ele>155.0</ele><time>2026-04-04T08:54:43Z</time></trkpt><trkpt lat="42.45853074022121" lon="14.127950414420834"><ele>155.0</ele><time>2026-04-04T08:54:44Z</time></trkpt><trkpt lat="42.458464077016025" lon="14.127801028337691"><ele>156.6</ele><time>2026-04-04T08:54:45Z</time></trkpt><trkpt lat="42.45842437117966" lon="14.12765041053886"><ele>158.2</ele><time>2026-04-04T08:54:46Z</time></trkpt><trkpt lat="42.458371906547015" lon="14.127516145060781"><ele>159.8</ele><time>2026-04-04T08:54:47Z</time></trkpt><trkpt lat="42.45830869678091" lon="14.127399043254234"><ele>161.4</ele><time>2026-04-04T08:54:48Z</time></trkpt><trkpt lat="42.458247026142075" lon="14.127288623617755"><ele>163.0</ele><time>2026-04-04T08:54:49Z</time></trkpt><trkpt lat="42.4581743620737" lon="14.127201743460954"><ele>161.6</ele><time>2026-04-04T08:54:50Z</time></trkpt><trkpt lat="42.45809855122562" lon="14.127137403362157"><ele>160.20000000000002</ele><time>2026-04-04T08:54:51Z</time></trkpt><trkpt lat="42.45802047963804" lon="14.127071101645205"><ele>158.8</ele><time>2026-04-04T08:54:52Z</time></trkpt><trkpt lat="42.457950153720226" lon="14.12697621813706"><ele>157.4</ele><time>2026-04-04T08:54:53Z</time></trkpt><trkpt lat="42.457891876146746" lon="14.126877817711199"><ele>156.0</ele><time>2026-04-04T08:54:54Z</time></trkpt><trkpt lat="42.457833112086476" lon="14.126771394387227"><ele>156.0</ele><time>2026-04-04T08:54:55Z</time></trkpt><trkpt lat="42.45778336098206" lon="14.126673611340244"><ele>156.0</ele><time>2026-04-04T08:54:56Z</time></trkpt><trkpt lat="42.457735824061054" lon="14.1265788549423"><ele>156.0</ele><time>2026-04-04T08:54:57Z</time></trkpt><trkpt lat="42.45769505598123" lon="14.126498530610206"><ele>156.0</ele><time>2026-04-04T08:54:58Z</time></trkpt><trkpt lat="42.45765540723377" lon="14.126423140003837"><ele>156.0</ele><time>2026-04-04T08:54:59Z</time></trkpt><trkpt lat="42.45758730290431" lon="14.126293642179451"><ele>156.0</ele><time>2026-04-04T08:55:01Z</time></trkpt><trkpt lat="42.45752166713733" lon="14.1261676792219"><ele>158.2</ele><time>2026-04-04T08:55:03Z</time></trkpt><trkpt lat="42.45747320147888" lon="14.126060662245"><ele>160.39999999999998</ele><time>2026-04-04T08:55:05Z</time></trkpt><trkpt lat="42.45743172207632" lon="14.125960023369707"><ele>162.6</ele><time>2026-04-04T08:55:08Z</time></trkpt><trkpt lat="42.457378757489955" lon="14.125822765223738"><ele>164.79999999999998</ele><time>2026-04-04T08:56:54Z</time></trkpt><trkpt lat="42.45734627667395" lon="14.125723584639845"><ele>167.0</ele><time>2026-04-04T08:56:55Z</time></trkpt><trkpt lat="42.45731214858261" lon="14.125610017628848"><ele>168.16666666666666</ele><time>2026-04-04T08:56:56Z</time></trkpt><trkpt lat="42.4572785830508" lon="14.12549015105222"><ele>169.33333333333331</ele><time>2026-04-04T08:56:57Z</time></trkpt><trkpt lat="42.45725282181887" lon="14.125376315706706"><ele>170.5</ele><time>2026-04-04T08:56:58Z</time></trkpt><trkpt lat="42.457227259710855" lon="14.125253079742064"><ele>171.66666666666666</ele><time>2026-04-04T08:56:59Z</time></trkpt><trkpt lat="42.457213437893685" lon="14.12515529773397"><ele>172.83333333333334</ele><time>2026-04-04T08:57:00Z</time></trkpt><trkpt lat="42.45720450920481" lon="14.12505842973642"><ele>174.0</ele><time>2026-04-04T08:57:01Z</time></trkpt><trkpt lat="42.45720265389698" lon="14.124913938678842"><ele>171.0</ele><time>2026-04-04T08:57:03Z</time></trkpt><trkpt lat="42.45699796663322" lon="14.124894522319696"><ele>168.0</ele><time>2026-04-04T08:57:06Z</time></trkpt><trkpt lat="42.45693273060709" lon="14.124926699588773"><ele>165.0</ele><time>2026-04-04T08:57:07Z</time></trkpt><trkpt lat="42.45684825348061" lon="14.124881995668037"><ele>162.0</ele><time>2026-04-04T08:57:08Z</time></trkpt><trkpt lat="42.45675425527031" lon="14.124841796074636"><ele>161.6</ele><time>2026-04-04T08:57:09Z</time></trkpt><trkpt lat="42.45664986477259" lon="14.124798241174576"><ele>161.2</ele><time>2026-04-04T08:57:10Z</time></trkpt><trkpt lat="42.4565601344476" lon="14.12475739170483"><ele>160.8</ele><time>2026-04-04T08:57:11Z</time></trkpt><trkpt lat="42.45648674389911" lon="14.124703686017577"><ele>160.4</ele><time>2026-04-04T08:57:12Z</time></trkpt><trkpt lat="42.45640525369171" lon="14.124630809422575"><ele>160.0</ele><time>2026-04-04T08:57:13Z</time></trkpt><trkpt lat="42.45631794697814" lon="14.124538015362551"><ele>160.0</ele><time>2026-04-04T08:57:14Z</time></trkpt><trkpt lat="42.45622182552344" lon="14.124442897134214"><ele>160.0</ele><time>2026-04-04T08:57:15Z</time></trkpt><trkpt lat="42.45611827749428" lon="14.124371922334465"><ele>160.0</ele><time>2026-04-04T08:57:16Z</time></trkpt><trkpt lat="42.45602596399922" lon="14.124282685084447"><ele>160.0</ele><time>2026-04-04T08:57:17Z</time></trkpt><trkpt lat="42.4559393025486" lon="14.12419576172655"><ele>160.0</ele><time>2026-04-04T08:57:18Z</time></trkpt><trkpt lat="42.45587066117273" lon="14.124126821370904"><ele>160.0</ele><time>2026-04-04T08:57:19Z</time></trkpt><trkpt lat="42.45579777321519" lon="14.124056069772852"><ele>160.0</ele><time>2026-04-04T08:57:20Z</time></trkpt><trkpt lat="42.45571958931932" lon="14.123974608227634"><ele>160.0</ele><time>2026-04-04T08:57:21Z</time></trkpt><trkpt lat="42.45562832144001" lon="14.123876220982359"><ele>160.0</ele><time>2026-04-04T08:57:22Z</time></trkpt><trkpt lat="42.45554539670793" lon="14.123755151141813"><ele>159.5</ele><time>2026-04-04T08:57:23Z</time></trkpt><trkpt lat="42.45545673717271" lon="14.123636787016059"><ele>159.0</ele><time>2026-04-04T08:57:24Z</time></trkpt><trkpt lat="42.455363681446364" lon="14.123509701745103"><ele>158.5</ele><time>2026-04-04T08:57:25Z</time></trkpt><trkpt lat="42.455277806240964" lon="14.123389324207956"><ele>158.0</ele><time>2026-04-04T08:57:26Z</time></trkpt><trkpt lat="42.45519122105831" lon="14.12328234472086"><ele>156.6</ele><time>2026-04-04T08:57:27Z</time></trkpt><trkpt lat="42.45512405907329" lon="14.123168661120648"><ele>155.20000000000002</ele><time>2026-04-04T08:57:28Z</time></trkpt><trkpt lat="42.45505043113066" lon="14.123071329331005"><ele>153.8</ele><time>2026-04-04T08:57:29Z</time></trkpt><trkpt lat="42.45497455174608" lon="14.12297873506764"><ele>152.4</ele><time>2026-04-04T08:57:30Z</time></trkpt><trkpt lat="42.4549043086837" lon="14.12287948763947"><ele>151.0</ele><time>2026-04-04T08:57:31Z</time></trkpt><trkpt lat="42.4548311699152" lon="14.122776901801291"><ele>151.0</ele><time>2026-04-04T08:57:32Z</time></trkpt><trkpt lat="42.454770667361636" lon="14.122657461938523"><ele>151.0</ele><time>2026-04-04T08:57:33Z</time></trkpt><trkpt lat="42.454706009895055" lon="14.122548654769325"><ele>151.0</ele><time>2026-04-04T08:57:34Z</time></trkpt><trkpt lat="42.454644958412665" lon="14.12242923026962"><ele>151.0</ele><time>2026-04-04T08:57:34.999Z</time></trkpt><trkpt lat="42.45457398825523" lon="14.122313342520815"><ele>151.0</ele><time>2026-04-04T08:57:35.999Z</time></trkpt><trkpt lat="42.45451492623737" lon="14.122193517852958"><ele>149.0</ele><time>2026-04-04T08:57:36.999Z</time></trkpt><trkpt lat="42.454487613628835" lon="14.122071082548253"><ele>147.0</ele><time>2026-04-04T08:57:37.999Z</time></trkpt><trkpt lat="42.45444304766603" lon="14.1219547395572"><ele>145.0</ele><time>2026-04-04T08:57:38.999Z</time></trkpt><trkpt lat="42.45438691637573" lon="14.121860549244508"><ele>143.0</ele><time>2026-04-04T08:57:39.999Z</time></trkpt><trkpt lat="42.45430431027807" lon="14.121755321235591"><ele>141.0</ele><time>2026-04-04T08:57:40.999Z</time></trkpt><trkpt lat="42.454117888937205" lon="14.121975694210267"><ele>141.0</ele><time>2026-04-04T08:57:41.999Z</time></trkpt><trkpt lat="42.45401315736773" lon="14.122055643067148"><ele>141.0</ele><time>2026-04-04T08:57:42.999Z</time></trkpt><trkpt lat="42.45390674533087" lon="14.122159896371217"><ele>141.0</ele><time>2026-04-04T08:57:43.999Z</time></trkpt><trkpt lat="42.45379491361637" lon="14.122241463947173"><ele>141.0</ele><time>2026-04-04T08:57:44.999Z</time></trkpt><trkpt lat="42.45367903937277" lon="14.122331106851176"><ele>139.0</ele><time>2026-04-04T08:57:45.999Z</time></trkpt><trkpt lat="42.453557372495474" lon="14.122405033797369"><ele>137.0</ele><time>2026-04-04T08:57:46.999Z</time></trkpt><trkpt lat="42.45343720411602" lon="14.122448532496046"><ele>135.0</ele><time>2026-04-04T08:57:47.999Z</time></trkpt><trkpt lat="42.45330914212252" lon="14.122469039775298"><ele>133.0</ele><time>2026-04-04T08:57:48.999Z</time></trkpt><trkpt lat="42.453190778304574" lon="14.122457562421564"><ele>133.0</ele><time>2026-04-04T08:57:49.999Z</time></trkpt><trkpt lat="42.453064355966916" lon="14.122453578964157"><ele>133.0</ele><time>2026-04-04T08:57:50.999Z</time></trkpt><trkpt lat="42.45293646809204" lon="14.122489053116947"><ele>133.0</ele><time>2026-04-04T08:57:51.999Z</time></trkpt><trkpt lat="42.45280160210652" lon="14.122526218058377"><ele>133.0</ele><time>2026-04-04T08:57:52.999Z</time></trkpt><trkpt lat="42.45267072713688" lon="14.122582598213071"><ele>132.25</ele><time>2026-04-04T08:57:53.999Z</time></trkpt><trkpt lat="42.45254952104405" lon="14.122640079865077"><ele>131.5</ele><time>2026-04-04T08:57:54.999Z</time></trkpt><trkpt lat="42.45242422105892" lon="14.122645788569331"><ele>130.75</ele><time>2026-04-04T08:57:55.999Z</time></trkpt><trkpt lat="42.45229171138666" lon="14.122652896026775"><ele>130.0</ele><time>2026-04-04T08:57:56.999Z</time></trkpt><trkpt lat="42.45215985546705" lon="14.122653756151696"><ele>131.25</ele><time>2026-04-04T08:57:57.999Z</time></trkpt><trkpt lat="42.45203152540735" lon="14.122654037580459"><ele>132.5</ele><time>2026-04-04T08:57:58.999Z</time></trkpt><trkpt lat="42.45191427552299" lon="14.122654294712438"><ele>133.75</ele><time>2026-04-04T08:57:59.999Z</time></trkpt><trkpt lat="42.45179747031946" lon="14.122661326142245"><ele>135.0</ele><time>2026-04-04T08:58:00.999Z</time></trkpt><trkpt lat="42.45167875840754" lon="14.122664303915434"><ele>135.0</ele><time>2026-04-04T08:58:01.999Z</time></trkpt><trkpt lat="42.45155867359826" lon="14.122654153421909"><ele>135.0</ele><time>2026-04-04T08:58:02.999Z</time></trkpt><trkpt lat="42.45143646166012" lon="14.12265345699404"><ele>135.0</ele><time>2026-04-04T08:58:03.999Z</time></trkpt><trkpt lat="42.45131541031764" lon="14.122671926673782"><ele>135.0</ele><time>2026-04-04T08:58:04.999Z</time></trkpt><trkpt lat="42.4511897835444" lon="14.122643897879202"><ele>134.75</ele><time>2026-04-04T08:58:05.999Z</time></trkpt><trkpt lat="42.45105935469155" lon="14.122629453243652"><ele>134.5</ele><time>2026-04-04T08:58:06.999Z</time></trkpt><trkpt lat="42.450933853401544" lon="14.122621433028252"><ele>134.25</ele><time>2026-04-04T08:58:07.999Z</time></trkpt><trkpt lat="42.45080491213402" lon="14.122616199892871"><ele>134.0</ele><time>2026-04-04T08:58:08.999Z</time></trkpt><trkpt lat="42.45067719409754" lon="14.122611016421448"><ele>134.0</ele><time>2026-04-04T08:58:09.999Z</time></trkpt><trkpt lat="42.4505527243775" lon="14.122606248872087"><ele>134.0</ele><time>2026-04-04T08:58:10.999Z</time></trkpt><trkpt lat="42.45043953008556" lon="14.122603656346278"><ele>134.0</ele><time>2026-04-04T08:58:11.999Z</time></trkpt><trkpt lat="42.45032953991433" lon="14.122601137203793"><ele>134.0</ele><time>2026-04-04T08:58:12.999Z</time></trkpt><trkpt lat="42.450225080399214" lon="14.122618213241271"><ele>134.0</ele><time>2026-04-04T08:58:13.999Z</time></trkpt><trkpt lat="42.45013141422512" lon="14.122616256369595"><ele>134.0</ele><time>2026-04-04T08:58:14.999Z</time></trkpt><trkpt lat="42.45002355303149" lon="14.122615347976879"><ele>134.0</ele><time>2026-04-04T08:58:15.999Z</time></trkpt><trkpt lat="42.449906201399195" lon="14.122595811130035"><ele>134.0</ele><time>2026-04-04T08:58:16.999Z</time></trkpt><trkpt lat="42.44978725360684" lon="14.122595811127754"><ele>134.0</ele><time>2026-04-04T08:58:17.999Z</time></trkpt><trkpt lat="42.44966750368943" lon="14.122595811125322"><ele>133.5</ele><time>2026-04-04T08:58:18.999Z</time></trkpt><trkpt lat="42.44954117824628" lon="14.122615815078674"><ele>133.0</ele><time>2026-04-04T08:58:19.999Z</time></trkpt><trkpt lat="42.44941862618582" lon="14.122611900723141"><ele>132.5</ele><time>2026-04-04T08:58:20.999Z</time></trkpt><trkpt lat="42.44929971042236" lon="14.122616313694339"><ele>132.0</ele><time>2026-04-04T08:58:21.999Z</time></trkpt><trkpt lat="42.4491800641134" lon="14.122624410533124"><ele>132.0</ele><time>2026-04-04T08:58:22.999Z</time></trkpt><trkpt lat="42.44907054454088" lon="14.122628652872978"><ele>132.0</ele><time>2026-04-04T08:58:23.999Z</time></trkpt><trkpt lat="42.44895906494032" lon="14.122607911107982"><ele>132.0</ele><time>2026-04-04T08:58:24.999Z</time></trkpt><trkpt lat="42.44885983292447" lon="14.122600874542494"><ele>132.0</ele><time>2026-04-04T08:58:25.999Z</time></trkpt><trkpt lat="42.44876528091404" lon="14.122588859037227"><ele>132.0</ele><time>2026-04-04T08:58:26.999Z</time></trkpt><trkpt lat="42.44866993081797" lon="14.12256575624706"><ele>131.5</ele><time>2026-04-04T08:58:27.999Z</time></trkpt><trkpt lat="42.44856417076823" lon="14.122547105650042"><ele>131.0</ele><time>2026-04-04T08:58:28.999Z</time></trkpt><trkpt lat="42.44846276075334" lon="14.122456421792482"><ele>130.5</ele><time>2026-04-04T08:58:29.999Z</time></trkpt><trkpt lat="42.44835331340387" lon="14.12239051313336"><ele>130.0</ele><time>2026-04-04T08:58:30.999Z</time></trkpt><trkpt lat="42.44823902494618" lon="14.122317851613792"><ele>129.25</ele><time>2026-04-04T08:58:31.999Z</time></trkpt><trkpt lat="42.448128854203915" lon="14.122241095364663"><ele>128.5</ele><time>2026-04-04T08:58:32.999Z</time></trkpt><trkpt lat="42.44801768851641" lon="14.122163428933634"><ele>127.75</ele><time>2026-04-04T08:58:33.998Z</time></trkpt><trkpt lat="42.44790648067289" lon="14.122087258030522"><ele>127.0</ele><time>2026-04-04T08:58:34.998Z</time></trkpt><trkpt lat="42.44779743904453" lon="14.122012570904369"><ele>128.33333333333334</ele><time>2026-04-04T08:58:35.997Z</time></trkpt><trkpt lat="42.44769559176748" lon="14.121966343584786"><ele>129.66666666666669</ele><time>2026-04-04T08:58:36.997Z</time></trkpt><trkpt lat="42.44762649647658" lon="14.121889082514917"><ele>131.0</ele><time>2026-04-04T08:58:37.997Z</time></trkpt><trkpt lat="42.4475526002763" lon="14.121858686605739"><ele>132.33333333333334</ele><time>2026-04-04T08:58:38.997Z</time></trkpt><trkpt lat="42.44748042785159" lon="14.121814788690806"><ele>133.66666666666666</ele><time>2026-04-04T08:58:39.999Z</time></trkpt><trkpt lat="42.447402332971784" lon="14.12177746135004"><ele>135.0</ele><time>2026-04-04T08:58:40.999Z</time></trkpt><trkpt lat="42.44731620868674" lon="14.12176506901101"><ele>135.0</ele><time>2026-04-04T08:58:41.999Z</time></trkpt><trkpt lat="42.44722243337047" lon="14.121761679338464"><ele>135.0</ele><time>2026-04-04T08:58:42.999Z</time></trkpt><trkpt lat="42.44713267968331" lon="14.121734216593847"><ele>135.0</ele><time>2026-04-04T08:58:43.999Z</time></trkpt><trkpt lat="42.447039048519144" lon="14.121723158452697"><ele>135.0</ele><time>2026-04-04T08:58:44.999Z</time></trkpt><trkpt lat="42.44694652117243" lon="14.121710182035622"><ele>135.0</ele><time>2026-04-04T08:58:45.999Z</time></trkpt><trkpt lat="42.44685815967977" lon="14.12169778979703"><ele>134.5</ele><time>2026-04-04T08:58:46.999Z</time></trkpt><trkpt lat="42.44677155984678" lon="14.121705341830967"><ele>134.0</ele><time>2026-04-04T08:58:47.999Z</time></trkpt><trkpt lat="42.44668819129005" lon="14.121705167431486"><ele>133.5</ele><time>2026-04-04T08:58:48.999Z</time></trkpt><trkpt lat="42.44660340705985" lon="14.121710225214413"><ele>133.0</ele><time>2026-04-04T08:58:49.999Z</time></trkpt><trkpt lat="42.446517447200016" lon="14.121730221117327"><ele>132.5</ele><time>2026-04-04T08:58:50.999Z</time></trkpt><trkpt lat="42.44643448352052" lon="14.121761436310058"><ele>132.0</ele><time>2026-04-04T08:58:51.999Z</time></trkpt><trkpt lat="42.44634896941497" lon="14.121776437685748"><ele>131.33333333333334</ele><time>2026-04-04T08:58:52.999Z</time></trkpt><trkpt lat="42.44626568671286" lon="14.121801342055052"><ele>130.66666666666666</ele><time>2026-04-04T08:58:53.999Z</time></trkpt><trkpt lat="42.44618376471187" lon="14.121822927051499"><ele>130.0</ele><time>2026-04-04T08:58:54.999Z</time></trkpt><trkpt lat="42.446101256433984" lon="14.121838747950349"><ele>129.33333333333331</ele><time>2026-04-04T08:58:55.999Z</time></trkpt><trkpt lat="42.446021212956076" lon="14.121866068969942"><ele>128.66666666666666</ele><time>2026-04-04T08:58:56.999Z</time></trkpt><trkpt lat="42.44594456401412" lon="14.121886937073922"><ele>128.0</ele><time>2026-04-04T08:58:57.999Z</time></trkpt><trkpt lat="42.445878780287416" lon="14.121897951007032"><ele>128.0</ele><time>2026-04-04T08:58:58.999Z</time></trkpt><trkpt lat="42.44577860626951" lon="14.121948018711647"><ele>128.0</ele><time>2026-04-04T08:59:00.999Z</time></trkpt><trkpt lat="42.44568961422592" lon="14.122008575785028"><ele>128.0</ele><time>2026-04-04T08:59:02.999Z</time></trkpt><trkpt lat="42.44562819522855" lon="14.12205686811445"><ele>128.0</ele><time>2026-04-04T08:59:05.999Z</time></trkpt><trkpt lat="42.44554732515831" lon="14.122184809083883"><ele>128.0</ele><time>2026-04-04T08:59:14.999Z</time></trkpt><trkpt lat="42.44548852817036" lon="14.12227009719659"><ele>127.60000000000001</ele><time>2026-04-04T08:59:15.999Z</time></trkpt><trkpt lat="42.445426696968916" lon="14.122361982493592"><ele>127.20000000000002</ele><time>2026-04-04T08:59:16.999Z</time></trkpt><trkpt lat="42.445345539987635" lon="14.122430551469451"><ele>126.8</ele><time>2026-04-04T08:59:17.999Z</time></trkpt><trkpt lat="42.44526067546937" lon="14.122512339316371"><ele>126.4</ele><time>2026-04-04T08:59:18.999Z</time></trkpt><trkpt lat="42.44516716011098" lon="14.122580476149793"><ele>126.0</ele><time>2026-04-04T08:59:19.999Z</time></trkpt><trkpt lat="42.445067210128755" lon="14.122640528958431"><ele>126.0</ele><time>2026-04-04T08:59:20.999Z</time></trkpt><trkpt lat="42.44496595500699" lon="14.122699126805605"><ele>126.0</ele><time>2026-04-04T08:59:21.999Z</time></trkpt><trkpt lat="42.44486699804164" lon="14.12275479828331"><ele>126.0</ele><time>2026-04-04T08:59:22.999Z</time></trkpt><trkpt lat="42.44477822851912" lon="14.122828441478996"><ele>126.0</ele><time>2026-04-04T08:59:23.999Z</time></trkpt><trkpt lat="42.444692882128756" lon="14.12290842683497"><ele>126.0</ele><time>2026-04-04T08:59:24.999Z</time></trkpt><trkpt lat="42.44461394046387" lon="14.123022645095682"><ele>124.25</ele><time>2026-04-04T08:59:25.999Z</time></trkpt><trkpt lat="42.44453366765119" lon="14.123141909334288"><ele>122.5</ele><time>2026-04-04T08:59:26.999Z</time></trkpt><trkpt lat="42.44444355863648" lon="14.123259322608202"><ele>120.75</ele><time>2026-04-04T08:59:27.999Z</time></trkpt><trkpt lat="42.4443466053414" lon="14.123365858453205"><ele>119.0</ele><time>2026-04-04T08:59:28.999Z</time></trkpt><trkpt lat="42.44423799419114" lon="14.123415955372128"><ele>119.0</ele><time>2026-04-04T08:59:29.999Z</time></trkpt><trkpt lat="42.44413673081951" lon="14.123455656875073"><ele>119.0</ele><time>2026-04-04T08:59:30.999Z</time></trkpt><trkpt lat="42.444037262891335" lon="14.12341795135267"><ele>119.0</ele><time>2026-04-04T08:59:31.999Z</time></trkpt><trkpt lat="42.443930738034496" lon="14.123408055212362"><ele>119.0</ele><time>2026-04-04T08:59:32.999Z</time></trkpt><trkpt lat="42.44381738121078" lon="14.123432172302204"><ele>119.0</ele><time>2026-04-04T08:59:33.999Z</time></trkpt><trkpt lat="42.443702596839245" lon="14.123454322228442"><ele>117.0</ele><time>2026-04-04T08:59:34.999Z</time></trkpt><trkpt lat="42.44359072939853" lon="14.123496897605248"><ele>115.0</ele><time>2026-04-04T08:59:35.999Z</time></trkpt><trkpt lat="42.44347726909107" lon="14.123544912043698"><ele>113.0</ele><time>2026-04-04T08:59:36.999Z</time></trkpt><trkpt lat="42.44336273436903" lon="14.123582946596152"><ele>111.0</ele><time>2026-04-04T08:59:37.999Z</time></trkpt><trkpt lat="42.44324547155213" lon="14.123617802327512"><ele>111.0</ele><time>2026-04-04T08:59:38.999Z</time></trkpt><trkpt lat="42.44312966145362" lon="14.12365294020939"><ele>111.0</ele><time>2026-04-04T08:59:39.999Z</time></trkpt><trkpt lat="42.44301225712101" lon="14.123671193455552"><ele>111.0</ele><time>2026-04-04T08:59:40.999Z</time></trkpt><trkpt lat="42.44290440736612" lon="14.12372885228797"><ele>111.0</ele><time>2026-04-04T08:59:41.998Z</time></trkpt><trkpt lat="42.44280325690664" lon="14.123763938089732"><ele>110.0</ele><time>2026-04-04T08:59:42.998Z</time></trkpt><trkpt lat="42.442707701865245" lon="14.123796951375043"><ele>109.0</ele><time>2026-04-04T08:59:43.998Z</time></trkpt><trkpt lat="42.442625793730045" lon="14.123822201205538"><ele>108.0</ele><time>2026-04-04T08:59:44.998Z</time></trkpt><trkpt lat="42.44255739881537" lon="14.123836927001308"><ele>107.0</ele><time>2026-04-04T08:59:45.998Z</time></trkpt><trkpt lat="42.44248928117571" lon="14.123848935406386"><ele>106.0</ele><time>2026-04-04T08:59:46.998Z</time></trkpt><trkpt lat="42.44242024747117" lon="14.123866856465607"><ele>105.0</ele><time>2026-04-04T08:59:47.998Z</time></trkpt><trkpt lat="42.44233196663042" lon="14.123891561331943"><ele>105.0</ele><time>2026-04-04T08:59:48.998Z</time></trkpt><trkpt lat="42.442218750278684" lon="14.123914012954941"><ele>105.0</ele><time>2026-04-04T08:59:49.998Z</time></trkpt><trkpt lat="42.44209488023287" lon="14.12391191347353"><ele>105.0</ele><time>2026-04-04T08:59:50.998Z</time></trkpt><trkpt lat="42.44196976991547" lon="14.123915614476667"><ele>105.0</ele><time>2026-04-04T08:59:51.998Z</time></trkpt><trkpt lat="42.44185608001228" lon="14.123905332463249"><ele>106.6</ele><time>2026-04-04T08:59:52.998Z</time></trkpt><trkpt lat="42.44174586264305" lon="14.123912381455307"><ele>108.2</ele><time>2026-04-04T08:59:53.998Z</time></trkpt><trkpt lat="42.44163654557394" lon="14.123893798832185"><ele>109.80000000000001</ele><time>2026-04-04T08:59:54.998Z</time></trkpt><trkpt lat="42.44153793645287" lon="14.123856304601198"><ele>111.4</ele><time>2026-04-04T08:59:55.998Z</time></trkpt><trkpt lat="42.44144038736205" lon="14.123829845724929"><ele>113.0</ele><time>2026-04-04T08:59:56.998Z</time></trkpt><trkpt lat="42.441351866722485" lon="14.123792759307852"><ele>111.60000000000001</ele><time>2026-04-04T08:59:57.998Z</time></trkpt><trkpt lat="42.441259714885305" lon="14.123765976016461"><ele>110.20000000000002</ele><time>2026-04-04T08:59:58.998Z</time></trkpt><trkpt lat="42.44118635961972" lon="14.123698485656359"><ele>108.8</ele><time>2026-04-04T08:59:59.998Z</time></trkpt><trkpt lat="42.4411047193248" lon="14.123669113280528"><ele>107.4</ele><time>2026-04-04T09:00:00.998Z</time></trkpt><trkpt lat="42.44102028612812" lon="14.123611911362653"><ele>106.0</ele><time>2026-04-04T09:00:01.998Z</time></trkpt><trkpt lat="42.4409366124954" lon="14.123553639090394"><ele>106.00000000000001</ele><time>2026-04-04T09:00:02.998Z</time></trkpt><trkpt lat="42.440850222327995" lon="14.123503965998987"><ele>106.0</ele><time>2026-04-04T09:00:03.998Z</time></trkpt><trkpt lat="42.440770474699754" lon="14.123443557657609"><ele>106.0</ele><time>2026-04-04T09:00:04.998Z</time></trkpt><trkpt lat="42.4407061616441" lon="14.12341089807169"><ele>106.0</ele><time>2026-04-04T09:00:05.998Z</time></trkpt><trkpt lat="42.44064668611562" lon="14.12337498690369"><ele>106.00000000000001</ele><time>2026-04-04T09:00:06.998Z</time></trkpt><trkpt lat="42.44058937889003" lon="14.123331534069218"><ele>106.0</ele><time>2026-04-04T09:00:07.998Z</time></trkpt><trkpt lat="42.44052099225305" lon="14.123302406167415"><ele>106.16666666666667</ele><time>2026-04-04T09:00:08.998Z</time></trkpt><trkpt lat="42.44044240727642" lon="14.123299243276103"><ele>106.33333333333334</ele><time>2026-04-04T09:00:09.998Z</time></trkpt><trkpt lat="42.440359038663225" lon="14.123279808240293"><ele>106.5</ele><time>2026-04-04T09:00:10.998Z</time></trkpt><trkpt lat="42.44027585163412" lon="14.12326305418236"><ele>106.66666666666666</ele><time>2026-04-04T09:00:11.998Z</time></trkpt><trkpt lat="42.44018207295922" lon="14.123247656385598"><ele>106.83333333333333</ele><time>2026-04-04T09:00:12.998Z</time></trkpt><trkpt lat="42.440101282641166" lon="14.123241197914812"><ele>107.0</ele><time>2026-04-04T09:00:13.998Z</time></trkpt><trkpt lat="42.440017803746514" lon="14.123230041124957"><ele>106.99999999999999</ele><time>2026-04-04T09:00:14.998Z</time></trkpt><trkpt lat="42.439936846933854" lon="14.123217558559533"><ele>107.0</ele><time>2026-04-04T09:00:15.998Z</time></trkpt><trkpt lat="42.43985282226362" lon="14.12320535475412"><ele>107.0</ele><time>2026-04-04T09:00:16.998Z</time></trkpt><trkpt lat="42.439771451350275" lon="14.123214055973927"><ele>107.0</ele><time>2026-04-04T09:00:17.998Z</time></trkpt><trkpt lat="42.43968488044809" lon="14.123224551422977"><ele>106.99999999999999</ele><time>2026-04-04T09:00:18.998Z</time></trkpt><trkpt lat="42.439592717525194" lon="14.123247312202519"><ele>107.0</ele><time>2026-04-04T09:00:19.998Z</time></trkpt><trkpt lat="42.43950178412573" lon="14.123283186012333"><ele>101.6</ele><time>2026-04-04T09:00:20.998Z</time></trkpt><trkpt lat="42.43940477567793" lon="14.123328890061911"><ele>96.19999999999999</ele><time>2026-04-04T09:00:21.998Z</time></trkpt><trkpt lat="42.43930649742414" lon="14.123376153947994"><ele>90.8</ele><time>2026-04-04T09:00:22.998Z</time></trkpt><trkpt lat="42.43921077353238" lon="14.123418641829415"><ele>85.4</ele><time>2026-04-04T09:00:23.998Z</time></trkpt><trkpt lat="42.43911855685531" lon="14.123456730389531"><ele>80.0</ele><time>2026-04-04T09:00:24.998Z</time></trkpt><trkpt lat="42.43901370804762" lon="14.1234857673515"><ele>80.0</ele><time>2026-04-04T09:00:25.998Z</time></trkpt><trkpt lat="42.43889756216356" lon="14.123495259211625"><ele>80.0</ele><time>2026-04-04T09:00:26.998Z</time></trkpt><trkpt lat="42.438772213179" lon="14.123508435534465"><ele>80.0</ele><time>2026-04-04T09:00:27.998Z</time></trkpt><trkpt lat="42.43864229942369" lon="14.123499587548729"><ele>80.0</ele><time>2026-04-04T09:00:28.998Z</time></trkpt><trkpt lat="42.43852037775717" lon="14.123522023969235"><ele>78.16666666666667</ele><time>2026-04-04T09:00:29.998Z</time></trkpt><trkpt lat="42.43841202750897" lon="14.123550127663599"><ele>76.33333333333334</ele><time>2026-04-04T09:00:30.998Z</time></trkpt><trkpt lat="42.43831721769442" lon="14.123578944595565"><ele>74.5</ele><time>2026-04-04T09:00:31.998Z</time></trkpt><trkpt lat="42.438236548146996" lon="14.12360472947824"><ele>72.66666666666667</ele><time>2026-04-04T09:00:32.998Z</time></trkpt><trkpt lat="42.43815775343486" lon="14.123629915163418"><ele>70.83333333333333</ele><time>2026-04-04T09:00:33.998Z</time></trkpt><trkpt lat="42.43808694067796" lon="14.123652549465678"><ele>69.0</ele><time>2026-04-04T09:00:34.998Z</time></trkpt><trkpt lat="42.43801073802806" lon="14.123676822260382"><ele>68.83333333333333</ele><time>2026-04-04T09:00:35.998Z</time></trkpt><trkpt lat="42.43792561318895" lon="14.123702943838671"><ele>68.66666666666667</ele><time>2026-04-04T09:00:36.998Z</time></trkpt><trkpt lat="42.43784010305458" lon="14.1237285574071"><ele>68.5</ele><time>2026-04-04T09:00:37.998Z</time></trkpt><trkpt lat="42.4377492855229" lon="14.123747301927342"><ele>68.33333333333334</ele><time>2026-04-04T09:00:38.998Z</time></trkpt><trkpt lat="42.43765581537132" lon="14.12375259909896"><ele>68.16666666666667</ele><time>2026-04-04T09:00:39.998Z</time></trkpt><trkpt lat="42.43758352371536" lon="14.123717577708065"><ele>68.0</ele><time>2026-04-04T09:00:40.998Z</time></trkpt><trkpt lat="42.43750357418233" lon="14.123670168828475"><ele>68.0</ele><time>2026-04-04T09:00:41.998Z</time></trkpt><trkpt lat="42.437432919750066" lon="14.123644179098303"><ele>68.0</ele><time>2026-04-04T09:00:42.997Z</time></trkpt><trkpt lat="42.43736902258256" lon="14.123657422941559"><ele>68.0</ele><time>2026-04-04T09:00:43.997Z</time></trkpt><trkpt lat="42.4372892754224" lon="14.123646016043073"><ele>68.0</ele><time>2026-04-04T09:00:45.999Z</time></trkpt><trkpt lat="42.43726643549327" lon="14.123766713001407"><ele>68.0</ele><time>2026-04-04T09:00:50.999Z</time></trkpt><trkpt lat="42.437356067091784" lon="14.123868341100456"><ele>68.0</ele><time>2026-04-04T09:00:52.999Z</time></trkpt><trkpt lat="42.437424033091816" lon="14.123938560144028"><ele>68.0</ele><time>2026-04-04T09:00:53.999Z</time></trkpt><trkpt lat="42.437476230498476" lon="14.124005239153327"><ele>68.0</ele><time>2026-04-04T09:00:54.999Z</time></trkpt><trkpt lat="42.437517502227934" lon="14.124081894251276"><ele>68.0</ele><time>2026-04-04T09:00:55.999Z</time></trkpt><trkpt lat="42.43755261406302" lon="14.124173015397304"><ele>68.0</ele><time>2026-04-04T09:00:56.999Z</time></trkpt><trkpt lat="42.43757757801389" lon="14.124277957550355"><ele>68.0</ele><time>2026-04-04T09:00:57.999Z</time></trkpt><trkpt lat="42.43760933945729" lon="14.124376743229817"><ele>68.0</ele><time>2026-04-04T09:00:58.999Z</time></trkpt><trkpt lat="42.43764902558698" lon="14.124473258725265"><ele>67.85714285714285</ele><time>2026-04-04T09:00:59.999Z</time></trkpt><trkpt lat="42.437701823886286" lon="14.124560878328138"><ele>67.71428571428571</ele><time>2026-04-04T09:01:00.999Z</time></trkpt><trkpt lat="42.43775576994544" lon="14.124629412123548"><ele>67.57142857142857</ele><time>2026-04-04T09:01:01.999Z</time></trkpt><trkpt lat="42.43781278035976" lon="14.12468536235188"><ele>67.42857142857142</ele><time>2026-04-04T09:01:02.999Z</time></trkpt><trkpt lat="42.43786900751891" lon="14.12474083708026"><ele>67.28571428571428</ele><time>2026-04-04T09:01:03.999Z</time></trkpt><trkpt lat="42.437929101639206" lon="14.124774939652895"><ele>67.14285714285714</ele><time>2026-04-04T09:01:04.999Z</time></trkpt><trkpt lat="42.437988009968386" lon="14.124806312268348"><ele>67.0</ele><time>2026-04-04T09:01:05.999Z</time></trkpt><trkpt lat="42.438046953706916" lon="14.124840913063199"><ele>67.0</ele><time>2026-04-04T09:01:06.999Z</time></trkpt><trkpt lat="42.438122076395764" lon="14.124926773281771"><ele>67.0</ele><time>2026-04-04T09:01:08.999Z</time></trkpt><trkpt lat="42.43807524820395" lon="14.124820251245346"><ele>67.0</ele><time>2026-04-04T09:01:15.999Z</time></trkpt><trkpt lat="42.43799823086007" lon="14.124787157655504"><ele>67.0</ele><time>2026-04-04T09:01:16.999Z</time></trkpt><trkpt lat="42.43792944936402" lon="14.124732469870752"><ele>67.0</ele><time>2026-04-04T09:01:17.999Z</time></trkpt><trkpt lat="42.43779712271869" lon="14.124693224030091"><ele>66.83333333333333</ele><time>2026-04-04T09:01:19.999Z</time></trkpt><trkpt lat="42.43773352989226" lon="14.124618923256504"><ele>66.66666666666666</ele><time>2026-04-04T09:01:20.999Z</time></trkpt><trkpt lat="42.437686186858514" lon="14.124547057860816"><ele>66.5</ele><time>2026-04-04T09:01:21.999Z</time></trkpt><trkpt lat="42.437612958061074" lon="14.124407614079937"><ele>66.33333333333333</ele><time>2026-04-04T09:01:23.999Z</time></trkpt><trkpt lat="42.43758387726112" lon="14.124318133795553"><ele>66.16666666666667</ele><time>2026-04-04T09:01:24.999Z</time></trkpt><trkpt lat="42.43755511212579" lon="14.124212719589124"><ele>66.0</ele><time>2026-04-04T09:01:25.999Z</time></trkpt><trkpt lat="42.437522662770924" lon="14.124109993617925"><ele>66.39999999999999</ele><time>2026-04-04T09:01:26.999Z</time></trkpt><trkpt lat="42.437478035641526" lon="14.12401058909155"><ele>66.8</ele><time>2026-04-04T09:01:27.999Z</time></trkpt><trkpt lat="42.43742208822353" lon="14.12392439774382"><ele>67.19999999999999</ele><time>2026-04-04T09:01:28.999Z</time></trkpt><trkpt lat="42.437369542823745" lon="14.123865365402013"><ele>67.6</ele><time>2026-04-04T09:01:29.999Z</time></trkpt><trkpt lat="42.437294056550115" lon="14.123748946274066"><ele>68.0</ele><time>2026-04-04T09:01:31.999Z</time></trkpt><trkpt lat="42.43722466109687" lon="14.123648262279834"><ele>68.0</ele><time>2026-04-04T09:01:33.999Z</time></trkpt><trkpt lat="42.437170598244606" lon="14.12359726872345"><ele>68.0</ele><time>2026-04-04T09:01:34.999Z</time></trkpt><trkpt lat="42.43709758314869" lon="14.123530034051443"><ele>68.0</ele><time>2026-04-04T09:01:35.999Z</time></trkpt><trkpt lat="42.43700978541392" lon="14.123471463118037"><ele>68.0</ele><time>2026-04-04T09:01:36.999Z</time></trkpt><trkpt lat="42.43692656806009" lon="14.123395326011638"><ele>68.0</ele><time>2026-04-04T09:01:37.999Z</time></trkpt><trkpt lat="42.43683921954977" lon="14.12335457105945"><ele>68.0</ele><time>2026-04-04T09:01:38.999Z</time></trkpt><trkpt lat="42.43675600607023" lon="14.123321581508225"><ele>67.2</ele><time>2026-04-04T09:01:39.999Z</time></trkpt><trkpt lat="42.436656565247795" lon="14.12328853587154"><ele>66.4</ele><time>2026-04-04T09:01:40.999Z</time></trkpt><trkpt lat="42.43654471878992" lon="14.123258307013591"><ele>65.60000000000001</ele><time>2026-04-04T09:01:41.999Z</time></trkpt><trkpt lat="42.436442634004386" lon="14.123250848573175"><ele>64.8</ele><time>2026-04-04T09:01:42.999Z</time></trkpt><trkpt lat="42.43634519690444" lon="14.12322611448625"><ele>64.0</ele><time>2026-04-04T09:01:43.999Z</time></trkpt><trkpt lat="42.436245171390006" lon="14.123206765276267"><ele>63.99999999999999</ele><time>2026-04-04T09:01:44.999Z</time></trkpt><trkpt lat="42.4361518495773" lon="14.123187142744435"><ele>64.0</ele><time>2026-04-04T09:01:45.999Z</time></trkpt><trkpt lat="42.436065607679076" lon="14.123158885616796"><ele>64.0</ele><time>2026-04-04T09:01:46.999Z</time></trkpt><trkpt lat="42.43598738386856" lon="14.123123977973776"><ele>64.0</ele><time>2026-04-04T09:01:47.999Z</time></trkpt><trkpt lat="42.43590486400928" lon="14.123090308181496"><ele>63.99999999999999</ele><time>2026-04-04T09:01:48.999Z</time></trkpt><trkpt lat="42.435825545085336" lon="14.123069818772532"><ele>64.0</ele><time>2026-04-04T09:01:49.999Z</time></trkpt><trkpt lat="42.43574954853128" lon="14.123058376242057"><ele>63.99999999999999</ele><time>2026-04-04T09:01:50.999Z</time></trkpt><trkpt lat="42.43568620990548" lon="14.123043449149499"><ele>64.0</ele><time>2026-04-04T09:01:51.999Z</time></trkpt><trkpt lat="42.435617688708184" lon="14.123033446133629"><ele>64.0</ele><time>2026-04-04T09:01:54.999Z</time></trkpt><trkpt lat="42.435520718350084" lon="14.123121068443462"><ele>64.0</ele><time>2026-04-04T09:01:56.998Z</time></trkpt><trkpt lat="42.43545957446277" lon="14.123186210500043"><ele>63.99999999999999</ele><time>2026-04-04T09:01:57.998Z</time></trkpt><trkpt lat="42.435383930961606" lon="14.123256229388891"><ele>64.0</ele><time>2026-04-04T09:01:58.998Z</time></trkpt><trkpt lat="42.43530657831477" lon="14.123349073625805"><ele>64.4</ele><time>2026-04-04T09:01:59.998Z</time></trkpt><trkpt lat="42.43523080533738" lon="14.123446157524468"><ele>64.80000000000001</ele><time>2026-04-04T09:02:00.998Z</time></trkpt><trkpt lat="42.43515543067083" lon="14.123540527174852"><ele>65.19999999999999</ele><time>2026-04-04T09:02:01.998Z</time></trkpt><trkpt lat="42.43508036191846" lon="14.12363553808776"><ele>65.6</ele><time>2026-04-04T09:02:02.998Z</time></trkpt><trkpt lat="42.4350050752189" lon="14.123722593880991"><ele>66.0</ele><time>2026-04-04T09:02:03.998Z</time></trkpt><trkpt lat="42.434929463029256" lon="14.123812460194394"><ele>66.0</ele><time>2026-04-04T09:02:04.998Z</time></trkpt><trkpt lat="42.434857061873" lon="14.123903635428164"><ele>66.0</ele><time>2026-04-04T09:02:05.998Z</time></trkpt><trkpt lat="42.43478373887851" lon="14.123998011034969"><ele>66.0</ele><time>2026-04-04T09:02:06.998Z</time></trkpt><trkpt lat="42.434713138462406" lon="14.124088861901544"><ele>66.0</ele><time>2026-04-04T09:02:07.998Z</time></trkpt><trkpt lat="42.434644245006865" lon="14.12418221469551"><ele>66.0</ele><time>2026-04-04T09:02:08.998Z</time></trkpt><trkpt lat="42.43457724104049" lon="14.124274743915473"><ele>65.66666666666667</ele><time>2026-04-04T09:02:09.998Z</time></trkpt><trkpt lat="42.43451530718365" lon="14.124361828773639"><ele>65.33333333333333</ele><time>2026-04-04T09:02:10.998Z</time></trkpt><trkpt lat="42.434453872720326" lon="14.124443444121807"><ele>65.0</ele><time>2026-04-04T09:02:11.998Z</time></trkpt><trkpt lat="42.434392831477176" lon="14.124526649521087"><ele>64.66666666666666</ele><time>2026-04-04T09:02:12.998Z</time></trkpt><trkpt lat="42.434335929959694" lon="14.12460529024393"><ele>64.33333333333333</ele><time>2026-04-04T09:02:13.998Z</time></trkpt><trkpt lat="42.43428049792236" lon="14.124684472571252"><ele>64.0</ele><time>2026-04-04T09:02:14.998Z</time></trkpt><trkpt lat="42.4342147769345" lon="14.124776294521437"><ele>64.0</ele><time>2026-04-04T09:02:15.998Z</time></trkpt><trkpt lat="42.43413833018819" lon="14.124882857085383"><ele>64.0</ele><time>2026-04-04T09:02:16.998Z</time></trkpt><trkpt lat="42.43405738290684" lon="14.1249936601805"><ele>64.0</ele><time>2026-04-04T09:02:17.998Z</time></trkpt><trkpt lat="42.433977130800166" lon="14.125103218290736"><ele>64.0</ele><time>2026-04-04T09:02:18.998Z</time></trkpt><trkpt lat="42.4339062078782" lon="14.125208162283151"><ele>64.0</ele><time>2026-04-04T09:02:19.998Z</time></trkpt><trkpt lat="42.43384007079872" lon="14.125308247692992"><ele>63.49999999999999</ele><time>2026-04-04T09:02:20.998Z</time></trkpt><trkpt lat="42.43378360812142" lon="14.125382401037323"><ele>63.0</ele><time>2026-04-04T09:02:21.998Z</time></trkpt><trkpt lat="42.43370650431828" lon="14.125466835131459"><ele>62.5</ele><time>2026-04-04T09:02:23.998Z</time></trkpt><trkpt lat="42.43366139953953" lon="14.125539232258857"><ele>62.0</ele><time>2026-04-04T09:02:27.998Z</time></trkpt><trkpt lat="42.4336177965048" lon="14.12560654238263"><ele>61.49999999999999</ele><time>2026-04-04T09:02:40.998Z</time></trkpt><trkpt lat="42.43357009068362" lon="14.125679904952477"><ele>61.0</ele><time>2026-04-04T09:02:41.998Z</time></trkpt><trkpt lat="42.433498023959544" lon="14.12577283838824"><ele>59.0</ele><time>2026-04-04T09:02:42.998Z</time></trkpt><trkpt lat="42.43342249593988" lon="14.125878435359475"><ele>57.0</ele><time>2026-04-04T09:02:43.998Z</time></trkpt><trkpt lat="42.43333676184655" lon="14.125995852592137"><ele>55.0</ele><time>2026-04-04T09:02:44.998Z</time></trkpt><trkpt lat="42.43325589782509" lon="14.126109009188808"><ele>53.0</ele><time>2026-04-04T09:02:45.998Z</time></trkpt><trkpt lat="42.433176820806636" lon="14.12621709903518"><ele>53.0</ele><time>2026-04-04T09:02:46.998Z</time></trkpt><trkpt lat="42.433103248891456" lon="14.126315636709423"><ele>53.0</ele><time>2026-04-04T09:02:47.998Z</time></trkpt><trkpt lat="42.43302584343803" lon="14.126418435846697"><ele>53.0</ele><time>2026-04-04T09:02:48.998Z</time></trkpt><trkpt lat="42.43293472134453" lon="14.126541130563872"><ele>53.0</ele><time>2026-04-04T09:02:49.998Z</time></trkpt><trkpt lat="42.432829245846285" lon="14.126684946184442"><ele>53.0</ele><time>2026-04-04T09:02:50.998Z</time></trkpt><trkpt lat="42.432715084364226" lon="14.126838360175466"><ele>53.0</ele><time>2026-04-04T09:02:51.999Z</time></trkpt><trkpt lat="42.43260592629477" lon="14.12698564828908"><ele>53.0</ele><time>2026-04-04T09:02:52.999Z</time></trkpt><trkpt lat="42.43249550722383" lon="14.127127862169337"><ele>53.0</ele><time>2026-04-04T09:02:53.999Z</time></trkpt><trkpt lat="42.43238578649093" lon="14.127281583191015"><ele>53.0</ele><time>2026-04-04T09:02:54.999Z</time></trkpt><trkpt lat="42.43226845696699" lon="14.127446120828262"><ele>53.0</ele><time>2026-04-04T09:02:55.999Z</time></trkpt><trkpt lat="42.432152494382095" lon="14.127610547523895"><ele>53.0</ele><time>2026-04-04T09:02:56.999Z</time></trkpt><trkpt lat="42.432024255659414" lon="14.127783695029494"><ele>53.0</ele><time>2026-04-04T09:02:57.999Z</time></trkpt><trkpt lat="42.431894042590734" lon="14.127963540669013"><ele>53.0</ele><time>2026-04-04T09:02:58.999Z</time></trkpt><trkpt lat="42.431767878826946" lon="14.128136885623396"><ele>51.66666666666667</ele><time>2026-04-04T09:02:59.999Z</time></trkpt><trkpt lat="42.43164134327102" lon="14.128311488899902"><ele>50.33333333333333</ele><time>2026-04-04T09:03:00.999Z</time></trkpt><trkpt lat="42.431515302048695" lon="14.128488067084836"><ele>49.0</ele><time>2026-04-04T09:03:01.999Z</time></trkpt><trkpt lat="42.4313963460517" lon="14.128662180240758"><ele>48.666666666666664</ele><time>2026-04-04T09:03:02.999Z</time></trkpt><trkpt lat="42.4312771510043" lon="14.128826079784577"><ele>48.33333333333333</ele><time>2026-04-04T09:03:03.999Z</time></trkpt><trkpt lat="42.431166352891736" lon="14.128987278181649"><ele>48.0</ele><time>2026-04-04T09:03:04.999Z</time></trkpt><trkpt lat="42.43105694792878" lon="14.129144850737113"><ele>48.0</ele><time>2026-04-04T09:03:05.999Z</time></trkpt><trkpt lat="42.43095651070579" lon="14.129291002078952"><ele>48.0</ele><time>2026-04-04T09:03:06.999Z</time></trkpt><trkpt lat="42.43084318898396" lon="14.129452687340734"><ele>48.0</ele><time>2026-04-04T09:03:07.999Z</time></trkpt><trkpt lat="42.43073218763961" lon="14.129614390479718"><ele>48.0</ele><time>2026-04-04T09:03:08.999Z</time></trkpt><trkpt lat="42.43060769075437" lon="14.129769573455622"><ele>48.0</ele><time>2026-04-04T09:03:09.999Z</time></trkpt><trkpt lat="42.43048998710414" lon="14.129943123021178"><ele>48.0</ele><time>2026-04-04T09:03:10.999Z</time></trkpt><trkpt lat="42.43038061210911" lon="14.130106776147509"><ele>48.33333333333333</ele><time>2026-04-04T09:03:11.999Z</time></trkpt><trkpt lat="42.43027329791742" lon="14.13029592397133"><ele>48.666666666666664</ele><time>2026-04-04T09:03:12.999Z</time></trkpt><trkpt lat="42.430155508365615" lon="14.130464238319567"><ele>49.0</ele><time>2026-04-04T09:03:13.999Z</time></trkpt><trkpt lat="42.430035835467" lon="14.130632473528125"><ele>47.33333333333333</ele><time>2026-04-04T09:03:14.999Z</time></trkpt><trkpt lat="42.42991794711394" lon="14.130810827118767"><ele>45.666666666666664</ele><time>2026-04-04T09:03:15.999Z</time></trkpt><trkpt lat="42.42980101913034" lon="14.130987286636996"><ele>44.0</ele><time>2026-04-04T09:03:16.999Z</time></trkpt><trkpt lat="42.429684349008845" lon="14.13115605035233"><ele>44.33333333333333</ele><time>2026-04-04T09:03:17.999Z</time></trkpt><trkpt lat="42.429563241382304" lon="14.131321292394267"><ele>44.666666666666664</ele><time>2026-04-04T09:03:18.999Z</time></trkpt><trkpt lat="42.42944899217888" lon="14.131485972887647"><ele>45.0</ele><time>2026-04-04T09:03:19.999Z</time></trkpt><trkpt lat="42.42932038063783" lon="14.131634210967832"><ele>45.0</ele><time>2026-04-04T09:03:20.999Z</time></trkpt><trkpt lat="42.42920444646431" lon="14.131789824421386"><ele>45.0</ele><time>2026-04-04T09:03:21.999Z</time></trkpt><trkpt lat="42.42909824757766" lon="14.131958855273584"><ele>45.0</ele><time>2026-04-04T09:03:22.999Z</time></trkpt><trkpt lat="42.42898378272333" lon="14.132091866485704"><ele>45.0</ele><time>2026-04-04T09:03:23.999Z</time></trkpt><trkpt lat="42.42886626035937" lon="14.132212430216661"><ele>45.0</ele><time>2026-04-04T09:03:24.999Z</time></trkpt><trkpt lat="42.42874462629177" lon="14.132336995262673"><ele>45.0</ele><time>2026-04-04T09:03:25.999Z</time></trkpt><trkpt lat="42.42862429310474" lon="14.132456323316529"><ele>45.0</ele><time>2026-04-04T09:03:26.999Z</time></trkpt><trkpt lat="42.42849943769836" lon="14.132575380722127"><ele>46.0</ele><time>2026-04-04T09:03:27.999Z</time></trkpt><trkpt lat="42.428379914883095" lon="14.132705733216918"><ele>47.0</ele><time>2026-04-04T09:03:28.999Z</time></trkpt><trkpt lat="42.42826997288926" lon="14.132836740000883"><ele>48.0</ele><time>2026-04-04T09:03:29.999Z</time></trkpt><trkpt lat="42.42816477635609" lon="14.132982129316856"><ele>48.0</ele><time>2026-04-04T09:03:30.999Z</time></trkpt><trkpt lat="42.428046522455496" lon="14.133118525913407"><ele>48.0</ele><time>2026-04-04T09:03:31.999Z</time></trkpt><trkpt lat="42.427931769545644" lon="14.13327581604782"><ele>48.0</ele><time>2026-04-04T09:03:32.999Z</time></trkpt><trkpt lat="42.427824547669644" lon="14.133454195258652"><ele>50.66666666666667</ele><time>2026-04-04T09:03:33.999Z</time></trkpt><trkpt lat="42.42770927920179" lon="14.133612345933399"><ele>53.333333333333336</ele><time>2026-04-04T09:03:34.999Z</time></trkpt><trkpt lat="42.42758631212243" lon="14.13377956196806"><ele>56.0</ele><time>2026-04-04T09:03:35.999Z</time></trkpt><trkpt lat="42.42745808279473" lon="14.133925023418813"><ele>58.333333333333336</ele><time>2026-04-04T09:03:36.999Z</time></trkpt><trkpt lat="42.42734546650748" lon="14.13407915276861"><ele>60.66666666666667</ele><time>2026-04-04T09:03:37.999Z</time></trkpt><trkpt lat="42.42723960087653" lon="14.134224042835717"><ele>63.0</ele><time>2026-04-04T09:03:38.999Z</time></trkpt><trkpt lat="42.427136117633864" lon="14.13436567231872"><ele>63.0</ele><time>2026-04-04T09:03:39.999Z</time></trkpt><trkpt lat="42.427031810180985" lon="14.13450842978572"><ele>63.0</ele><time>2026-04-04T09:03:40.999Z</time></trkpt><trkpt lat="42.42692608499017" lon="14.134653127727912"><ele>63.0</ele><time>2026-04-04T09:03:41.999Z</time></trkpt><trkpt lat="42.4268126428912" lon="14.134808387270475"><ele>58.33333333333333</ele><time>2026-04-04T09:03:42.999Z</time></trkpt><trkpt lat="42.426698635392704" lon="14.134992940291497"><ele>53.666666666666664</ele><time>2026-04-04T09:03:43.999Z</time></trkpt><trkpt lat="42.42657101952116" lon="14.135165283054965"><ele>49.0</ele><time>2026-04-04T09:03:44.999Z</time></trkpt><trkpt lat="42.4264477434271" lon="14.135334669862862"><ele>49.0</ele><time>2026-04-04T09:03:45.999Z</time></trkpt><trkpt lat="42.42631741281352" lon="14.135482147275871"><ele>49.0</ele><time>2026-04-04T09:03:46.999Z</time></trkpt><trkpt lat="42.42620606052351" lon="14.135632386297342"><ele>49.0</ele><time>2026-04-04T09:03:47.999Z</time></trkpt><trkpt lat="42.42609168076181" lon="14.135786710184606"><ele>48.0</ele><time>2026-04-04T09:03:48.999Z</time></trkpt><trkpt lat="42.42598166915594" lon="14.135938580346787"><ele>47.0</ele><time>2026-04-04T09:03:49.999Z</time></trkpt><trkpt lat="42.42587658522547" lon="14.136087036339735"><ele>46.0</ele><time>2026-04-04T09:03:50.999Z</time></trkpt><trkpt lat="42.425775126264654" lon="14.136231485631827"><ele>46.0</ele><time>2026-04-04T09:03:51.999Z</time></trkpt><trkpt lat="42.4256726348378" lon="14.136376607872167"><ele>46.0</ele><time>2026-04-04T09:03:52.999Z</time></trkpt><trkpt lat="42.425572365035734" lon="14.13651346672113"><ele>46.0</ele><time>2026-04-04T09:03:53.999Z</time></trkpt><trkpt lat="42.42547391976562" lon="14.136644085563397"><ele>46.0</ele><time>2026-04-04T09:03:54.999Z</time></trkpt><trkpt lat="42.42538089314004" lon="14.136794919002018"><ele>45.0</ele><time>2026-04-04T09:03:55.999Z</time></trkpt><trkpt lat="42.42526010999354" lon="14.136917799446906"><ele>44.0</ele><time>2026-04-04T09:03:56.999Z</time></trkpt><trkpt lat="42.42513891404161" lon="14.13706945144451"><ele>43.0</ele><time>2026-04-04T09:03:57.999Z</time></trkpt><trkpt lat="42.425014635331536" lon="14.137222545548049"><ele>43.0</ele><time>2026-04-04T09:03:58.999Z</time></trkpt><trkpt lat="42.424890502690886" lon="14.137373626292518"><ele>43.0</ele><time>2026-04-04T09:03:59.999Z</time></trkpt><trkpt lat="42.42476969479565" lon="14.13751935259629"><ele>43.0</ele><time>2026-04-04T09:04:00.999Z</time></trkpt><trkpt lat="42.424658226982885" lon="14.13765381187086"><ele>43.0</ele><time>2026-04-04T09:04:01.999Z</time></trkpt><trkpt lat="42.42454740979838" lon="14.137787486624909"><ele>43.0</ele><time>2026-04-04T09:04:02.999Z</time></trkpt><trkpt lat="42.42443458007581" lon="14.137923798693777"><ele>43.0</ele><time>2026-04-04T09:04:03.999Z</time></trkpt><trkpt lat="42.42431804649167" lon="14.138064606650401"><ele>43.0</ele><time>2026-04-04T09:04:04.999Z</time></trkpt><trkpt lat="42.42420073025759" lon="14.138206359565645"><ele>43.0</ele><time>2026-04-04T09:04:05.999Z</time></trkpt><trkpt lat="42.42407734066292" lon="14.138355451647257"><ele>43.0</ele><time>2026-04-04T09:04:06.999Z</time></trkpt><trkpt lat="42.423963670439285" lon="14.13849279944612"><ele>42.0</ele><time>2026-04-04T09:04:07.999Z</time></trkpt><trkpt lat="42.42385540254936" lon="14.138623995251349"><ele>41.0</ele><time>2026-04-04T09:04:08.999Z</time></trkpt><trkpt lat="42.423747435242824" lon="14.138759738160346"><ele>40.0</ele><time>2026-04-04T09:04:09.999Z</time></trkpt><trkpt lat="42.423667290070746" lon="14.138906480608155"><ele>39.0</ele><time>2026-04-04T09:04:10.999Z</time></trkpt><trkpt lat="42.42359033729224" lon="14.139066366705798"><ele>37.75</ele><time>2026-04-04T09:04:11.999Z</time></trkpt><trkpt lat="42.423548676358045" lon="14.139232930169536"><ele>36.5</ele><time>2026-04-04T09:04:12.999Z</time></trkpt><trkpt lat="42.423525158557645" lon="14.139404345445307"><ele>35.25</ele><time>2026-04-04T09:04:13.999Z</time></trkpt><trkpt lat="42.423507085890265" lon="14.139563549866988"><ele>34.0</ele><time>2026-04-04T09:04:14.998Z</time></trkpt><trkpt lat="42.42345473893159" lon="14.139706371832975"><ele>34.0</ele><time>2026-04-04T09:04:15.998Z</time></trkpt><trkpt lat="42.42340846436061" lon="14.139844217201889"><ele>34.0</ele><time>2026-04-04T09:04:16.998Z</time></trkpt><trkpt lat="42.423358668931726" lon="14.139984223223761"><ele>34.0</ele><time>2026-04-04T09:04:17.998Z</time></trkpt><trkpt lat="42.42331046010912" lon="14.140113597009595"><ele>34.0</ele><time>2026-04-04T09:04:18.998Z</time></trkpt><trkpt lat="42.42326263533971" lon="14.140240581115554"><ele>34.0</ele><time>2026-04-04T09:04:19.998Z</time></trkpt><trkpt lat="42.42321614688846" lon="14.140364016881575"><ele>33.4</ele><time>2026-04-04T09:04:20.998Z</time></trkpt><trkpt lat="42.423185561351644" lon="14.140493296439375"><ele>32.8</ele><time>2026-04-04T09:04:21.998Z</time></trkpt><trkpt lat="42.423139100989786" lon="14.140597185613178"><ele>32.2</ele><time>2026-04-04T09:04:22.998Z</time></trkpt><trkpt lat="42.42309886560714" lon="14.14071690538655"><ele>31.6</ele><time>2026-04-04T09:04:23.998Z</time></trkpt><trkpt lat="42.423048890588" lon="14.140841589115103"><ele>31.0</ele><time>2026-04-04T09:04:24.998Z</time></trkpt><trkpt lat="42.42299942632771" lon="14.14099818045065"><ele>30.5</ele><time>2026-04-04T09:04:25.998Z</time></trkpt><trkpt lat="42.42294293085459" lon="14.141158557831679"><ele>30.0</ele><time>2026-04-04T09:04:26.998Z</time></trkpt><trkpt lat="42.42288747835158" lon="14.141316352534805"><ele>29.5</ele><time>2026-04-04T09:04:27.998Z</time></trkpt><trkpt lat="42.422835309123116" lon="14.14146561655443"><ele>29.0</ele><time>2026-04-04T09:04:28.998Z</time></trkpt><trkpt lat="42.42277943593542" lon="14.14161495795402"><ele>29.0</ele><time>2026-04-04T09:04:29.998Z</time></trkpt><trkpt lat="42.422725645084974" lon="14.141756433104229"><ele>29.0</ele><time>2026-04-04T09:04:30.998Z</time></trkpt><trkpt lat="42.42266839788692" lon="14.141903546769369"><ele>29.0</ele><time>2026-04-04T09:04:31.998Z</time></trkpt><trkpt lat="42.422624315627466" lon="14.142042246192576"><ele>29.0</ele><time>2026-04-04T09:04:32.998Z</time></trkpt><trkpt lat="42.42257801037966" lon="14.142181059804411"><ele>29.0</ele><time>2026-04-04T09:04:33.998Z</time></trkpt><trkpt lat="42.422515546097614" lon="14.142313818483363"><ele>29.0</ele><time>2026-04-04T09:04:34.998Z</time></trkpt><trkpt lat="42.42246332370383" lon="14.14245526540335"><ele>29.0</ele><time>2026-04-04T09:04:35.998Z</time></trkpt><trkpt lat="42.42242119460334" lon="14.142597876297497"><ele>29.0</ele><time>2026-04-04T09:04:36.998Z</time></trkpt><trkpt lat="42.4223599194811" lon="14.142738055433412"><ele>29.25</ele><time>2026-04-04T09:04:37.998Z</time></trkpt><trkpt lat="42.42230442767977" lon="14.142883741981572"><ele>29.5</ele><time>2026-04-04T09:04:38.998Z</time></trkpt><trkpt lat="42.42224995008868" lon="14.143039727616177"><ele>29.75</ele><time>2026-04-04T09:04:39.998Z</time></trkpt><trkpt lat="42.42219230966345" lon="14.143195865698262"><ele>30.0</ele><time>2026-04-04T09:04:40.998Z</time></trkpt><trkpt lat="42.422137197893775" lon="14.14334593316335"><ele>30.0</ele><time>2026-04-04T09:04:41.998Z</time></trkpt><trkpt lat="42.42207471266018" lon="14.143476915147547"><ele>30.0</ele><time>2026-04-04T09:04:42.998Z</time></trkpt><trkpt lat="42.42202510666843" lon="14.143609109790404"><ele>30.0</ele><time>2026-04-04T09:04:43.998Z</time></trkpt><trkpt lat="42.42199153973647" lon="14.143755716556038"><ele>30.0</ele><time>2026-04-04T09:04:44.998Z</time></trkpt><trkpt lat="42.421944594924696" lon="14.14388438918078"><ele>30.0</ele><time>2026-04-04T09:04:45.998Z</time></trkpt><trkpt lat="42.42190669899275" lon="14.143999500962494"><ele>30.4</ele><time>2026-04-04T09:04:46.998Z</time></trkpt><trkpt lat="42.42186420927243" lon="14.144118286844792"><ele>30.8</ele><time>2026-04-04T09:04:47.998Z</time></trkpt><trkpt lat="42.421825232097866" lon="14.144230962232532"><ele>31.200000000000003</ele><time>2026-04-04T09:04:48.998Z</time></trkpt><trkpt lat="42.42178364544575" lon="14.144348353006029"><ele>31.6</ele><time>2026-04-04T09:04:49.998Z</time></trkpt><trkpt lat="42.42173711090163" lon="14.144461760878272"><ele>32.0</ele><time>2026-04-04T09:04:50.998Z</time></trkpt><trkpt lat="42.4216941656185" lon="14.144579557862698"><ele>32.0</ele><time>2026-04-04T09:04:51.998Z</time></trkpt><trkpt lat="42.421652313445286" lon="14.144694956878736"><ele>32.0</ele><time>2026-04-04T09:04:52.998Z</time></trkpt><trkpt lat="42.42160844891011" lon="14.14481848881646"><ele>32.0</ele><time>2026-04-04T09:04:53.998Z</time></trkpt><trkpt lat="42.42156527634916" lon="14.1449370587469"><ele>32.0</ele><time>2026-04-04T09:04:54.998Z</time></trkpt><trkpt lat="42.421520608295765" lon="14.145054441509826"><ele>32.0</ele><time>2026-04-04T09:04:55.998Z</time></trkpt><trkpt lat="42.421477474407496" lon="14.145162275656023"><ele>31.8</ele><time>2026-04-04T09:04:56.998Z</time></trkpt><trkpt lat="42.42142930349333" lon="14.145254990857776"><ele>31.6</ele><time>2026-04-04T09:04:58Z</time></trkpt><trkpt lat="42.42137672150541" lon="14.145331251534076"><ele>31.400000000000002</ele><time>2026-04-04T09:04:59Z</time></trkpt><trkpt lat="42.42129511899262" lon="14.145395237043836"><ele>31.200000000000003</ele><time>2026-04-04T09:05:01Z</time></trkpt><trkpt lat="42.4212435907002" lon="14.145209341938154"><ele>31.0</ele><time>2026-04-04T09:05:32.999Z</time></trkpt><trkpt lat="42.4212180755614" lon="14.145055479264675"><ele>30.25</ele><time>2026-04-04T09:05:33.999Z</time></trkpt><trkpt lat="42.42120243594423" lon="14.144905046093486"><ele>29.5</ele><time>2026-04-04T09:05:34.999Z</time></trkpt><trkpt lat="42.421175003883114" lon="14.144734846987047"><ele>28.75</ele><time>2026-04-04T09:05:35.999Z</time></trkpt><trkpt lat="42.421139543920106" lon="14.144549743999697"><ele>28.0</ele><time>2026-04-04T09:05:36.999Z</time></trkpt><trkpt lat="42.42110257769424" lon="14.144364828928936"><ele>28.0</ele><time>2026-04-04T09:05:37.999Z</time></trkpt><trkpt lat="42.421064364908105" lon="14.144168279793583"><ele>28.0</ele><time>2026-04-04T09:05:38.999Z</time></trkpt><trkpt lat="42.4210197397476" lon="14.143961861956525"><ele>28.0</ele><time>2026-04-04T09:05:39.999Z</time></trkpt><trkpt lat="42.4209751907548" lon="14.143745917243903"><ele>28.0</ele><time>2026-04-04T09:05:40.999Z</time></trkpt><trkpt lat="42.42093059706482" lon="14.143524273316906"><ele>28.0</ele><time>2026-04-04T09:05:41.999Z</time></trkpt><trkpt lat="42.42088949184263" lon="14.14330173224741"><ele>28.0</ele><time>2026-04-04T09:05:42.999Z</time></trkpt><trkpt lat="42.42084927987003" lon="14.143099335918224"><ele>28.0</ele><time>2026-04-04T09:05:43.999Z</time></trkpt><trkpt lat="42.420814684614065" lon="14.142898959201258"><ele>28.0</ele><time>2026-04-04T09:05:44.999Z</time></trkpt><trkpt lat="42.42078139274113" lon="14.142701232336929"><ele>28.0</ele><time>2026-04-04T09:05:45.999Z</time></trkpt><trkpt lat="42.42074463216126" lon="14.142505461074718"><ele>27.75</ele><time>2026-04-04T09:05:46.999Z</time></trkpt><trkpt lat="42.420699656026336" lon="14.142308046996398"><ele>27.5</ele><time>2026-04-04T09:05:47.999Z</time></trkpt><trkpt lat="42.42065320714047" lon="14.142116157771042"><ele>27.25</ele><time>2026-04-04T09:05:48.999Z</time></trkpt><trkpt lat="42.42063799598923" lon="14.141923579464214"><ele>27.0</ele><time>2026-04-04T09:05:49.999Z</time></trkpt><trkpt lat="42.42061633180989" lon="14.141742494664795"><ele>27.0</ele><time>2026-04-04T09:05:50.999Z</time></trkpt><trkpt lat="42.42061055885116" lon="14.141557305736747"><ele>27.0</ele><time>2026-04-04T09:05:51.999Z</time></trkpt><trkpt lat="42.420621151559935" lon="14.141362748367433"><ele>27.0</ele><time>2026-04-04T09:05:52.999Z</time></trkpt><trkpt lat="42.42064683431801" lon="14.141155460181249"><ele>27.0</ele><time>2026-04-04T09:05:53.999Z</time></trkpt><trkpt lat="42.42069166294209" lon="14.140954349925968"><ele>27.25</ele><time>2026-04-04T09:05:54.999Z</time></trkpt><trkpt lat="42.42075017240248" lon="14.140761557078415"><ele>27.5</ele><time>2026-04-04T09:05:55.999Z</time></trkpt><trkpt lat="42.42079987834255" lon="14.140565783468181"><ele>27.75</ele><time>2026-04-04T09:05:56.999Z</time></trkpt><trkpt lat="42.42086364082319" lon="14.140401237565076"><ele>28.0</ele><time>2026-04-04T09:05:57.999Z</time></trkpt><trkpt lat="42.42091971043318" lon="14.140245749453149"><ele>28.0</ele><time>2026-04-04T09:05:58.999Z</time></trkpt><trkpt lat="42.42097456316603" lon="14.140099045489718"><ele>27.999999999999996</ele><time>2026-04-04T09:05:59.999Z</time></trkpt><trkpt lat="42.42102097716669" lon="14.13996485559342"><ele>27.999999999999996</ele><time>2026-04-04T09:06:00.999Z</time></trkpt><trkpt lat="42.421068402229366" lon="14.139837929119881"><ele>28.0</ele><time>2026-04-04T09:06:01.999Z</time></trkpt><trkpt lat="42.421108319631585" lon="14.13971950409141"><ele>28.0</ele><time>2026-04-04T09:06:02.999Z</time></trkpt><trkpt lat="42.421148980694504" lon="14.13961350381252"><ele>28.0</ele><time>2026-04-04T09:06:03.999Z</time></trkpt><trkpt lat="42.42118232355271" lon="14.139524832824346"><ele>28.0</ele><time>2026-04-04T09:06:04.999Z</time></trkpt><trkpt lat="42.42122527649747" lon="14.139399526683444"><ele>28.0</ele><time>2026-04-04T09:06:06.999Z</time></trkpt><trkpt lat="42.421297458856245" lon="14.139283203821108"><ele>28.0</ele><time>2026-04-04T09:06:08.999Z</time></trkpt><trkpt lat="42.42152334912925" lon="14.139383062520116"><ele>30.500000000000004</ele><time>2026-04-04T09:06:11.999Z</time></trkpt><trkpt lat="42.421607292252745" lon="14.13945895043259"><ele>33.0</ele><time>2026-04-04T09:06:12.999Z</time></trkpt><trkpt lat="42.4216837072041" lon="14.139494419685153"><ele>35.5</ele><time>2026-04-04T09:06:13.999Z</time></trkpt><trkpt lat="42.42175838504462" lon="14.139500431394065"><ele>38.0</ele><time>2026-04-04T09:06:14.999Z</time></trkpt><trkpt lat="42.42182109163749" lon="14.139449525705551"><ele>40.5</ele><time>2026-04-04T09:06:15.999Z</time></trkpt><trkpt lat="42.42187133849541" lon="14.139343245660816"><ele>43.0</ele><time>2026-04-04T09:06:16.999Z</time></trkpt><trkpt lat="42.421899553261255" lon="14.139235989795623"><ele>43.0</ele><time>2026-04-04T09:06:17.999Z</time></trkpt><trkpt lat="42.42185733746701" lon="14.139103735067609"><ele>43.0</ele><time>2026-04-04T09:06:18.999Z</time></trkpt><trkpt lat="42.421790112946226" lon="14.138987126103032"><ele>43.0</ele><time>2026-04-04T09:06:19.999Z</time></trkpt><trkpt lat="42.421734094059985" lon="14.13888053613788"><ele>43.0</ele><time>2026-04-04T09:06:20.999Z</time></trkpt><trkpt lat="42.42171721293896" lon="14.138787130565158"><ele>43.0</ele><time>2026-04-04T09:06:21.999Z</time></trkpt><trkpt lat="42.42172869560186" lon="14.138695019643126"><ele>42.599999999999994</ele><time>2026-04-04T09:06:22.999Z</time></trkpt><trkpt lat="42.42178761173631" lon="14.138581502006105"><ele>42.199999999999996</ele><time>2026-04-04T09:06:23.999Z</time></trkpt><trkpt lat="42.421856139163964" lon="14.138481507213244"><ele>41.8</ele><time>2026-04-04T09:06:24.999Z</time></trkpt><trkpt lat="42.42193740124789" lon="14.138379843930167"><ele>41.4</ele><time>2026-04-04T09:06:25.999Z</time></trkpt><trkpt lat="42.42201910344013" lon="14.138279169253561"><ele>41.0</ele><time>2026-04-04T09:06:26.999Z</time></trkpt><trkpt lat="42.4220971670007" lon="14.13816186472822"><ele>44.25</ele><time>2026-04-04T09:06:27.999Z</time></trkpt><trkpt lat="42.42217470207463" lon="14.13802151220702"><ele>47.5</ele><time>2026-04-04T09:06:28.999Z</time></trkpt><trkpt lat="42.42224698242894" lon="14.137889382583394"><ele>50.75</ele><time>2026-04-04T09:06:29.999Z</time></trkpt><trkpt lat="42.42230698503037" lon="14.137768092693905"><ele>54.0</ele><time>2026-04-04T09:06:30.999Z</time></trkpt><trkpt lat="42.42236806911557" lon="14.137661277134814"><ele>54.0</ele><time>2026-04-04T09:06:31.999Z</time></trkpt><trkpt lat="42.4224260120739" lon="14.137581855706477"><ele>54.00000000000001</ele><time>2026-04-04T09:06:32.999Z</time></trkpt><trkpt lat="42.42248731307302" lon="14.13747528679682"><ele>54.00000000000001</ele><time>2026-04-04T09:06:34.998Z</time></trkpt><trkpt lat="42.42249211557559" lon="14.137290741748277"><ele>54.0</ele><time>2026-04-04T09:06:36.998Z</time></trkpt><trkpt lat="42.42249591870839" lon="14.137196698213017"><ele>54.0</ele><time>2026-04-04T09:06:37.998Z</time></trkpt><trkpt lat="42.4225518794421" lon="14.137019189959668"><ele>53.666666666666664</ele><time>2026-04-04T09:06:39.998Z</time></trkpt><trkpt lat="42.42262498095743" lon="14.13694552320505"><ele>53.33333333333333</ele><time>2026-04-04T09:06:40.998Z</time></trkpt><trkpt lat="42.42268907157991" lon="14.136882911783477"><ele>53.0</ele><time>2026-04-04T09:06:41.998Z</time></trkpt><trkpt lat="42.42275756351389" lon="14.136842208007188"><ele>52.666666666666664</ele><time>2026-04-04T09:06:42.998Z</time></trkpt><trkpt lat="42.42285769390084" lon="14.13676562841347"><ele>52.33333333333333</ele><time>2026-04-04T09:06:44.998Z</time></trkpt><trkpt lat="42.42293341746997" lon="14.136740537160993"><ele>52.0</ele><time>2026-04-04T09:09:59.999Z</time></trkpt><trkpt lat="42.42298448785261" lon="14.136653117594427"><ele>52.2</ele><time>2026-04-04T09:11:07.998Z</time></trkpt><trkpt lat="42.42308798662868" lon="14.136589895538313"><ele>52.400000000000006</ele><time>2026-04-04T09:11:09.998Z</time></trkpt><trkpt lat="42.423163728104896" lon="14.1365507780471"><ele>52.599999999999994</ele><time>2026-04-04T09:11:10.998Z</time></trkpt><trkpt lat="42.42324317075581" lon="14.136505978229795"><ele>52.8</ele><time>2026-04-04T09:11:11.998Z</time></trkpt><trkpt lat="42.423320398423776" lon="14.136452430821986"><ele>53.0</ele><time>2026-04-04T09:11:12.998Z</time></trkpt><trkpt lat="42.42340323836177" lon="14.13639022411111"><ele>53.0</ele><time>2026-04-04T09:11:13.998Z</time></trkpt><trkpt lat="42.42349689767907" lon="14.136321145990033"><ele>53.0</ele><time>2026-04-04T09:11:14.998Z</time></trkpt><trkpt lat="42.423581787530615" lon="14.136254230517764"><ele>53.0</ele><time>2026-04-04T09:11:15.999Z</time></trkpt><trkpt lat="42.423660478097105" lon="14.136195296560084"><ele>53.0</ele><time>2026-04-04T09:11:16.999Z</time></trkpt><trkpt lat="42.42374330163867" lon="14.136156222064475"><ele>53.0</ele><time>2026-04-04T09:11:17.999Z</time></trkpt><trkpt lat="42.423808832380075" lon="14.136089878610584"><ele>54.333333333333336</ele><time>2026-04-04T09:11:18.999Z</time></trkpt><trkpt lat="42.42387095312641" lon="14.136050768503795"><ele>55.66666666666667</ele><time>2026-04-04T09:11:19.999Z</time></trkpt><trkpt lat="42.4239298733243" lon="14.135987478432453"><ele>57.0</ele><time>2026-04-04T09:11:20.999Z</time></trkpt><trkpt lat="42.42400758429428" lon="14.135903649303415"><ele>58.33333333333333</ele><time>2026-04-04T09:11:22Z</time></trkpt><trkpt lat="42.42407883325326" lon="14.135811132665287"><ele>59.666666666666664</ele><time>2026-04-04T09:11:23Z</time></trkpt><trkpt lat="42.42413656560056" lon="14.135719748891653"><ele>61.0</ele><time>2026-04-04T09:11:24Z</time></trkpt><trkpt lat="42.424194322272804" lon="14.135621496198763"><ele>61.0</ele><time>2026-04-04T09:11:25Z</time></trkpt><trkpt lat="42.42426855687449" lon="14.135517785777221"><ele>61.0</ele><time>2026-04-04T09:11:26Z</time></trkpt><trkpt lat="42.42434310853231" lon="14.135385256324186"><ele>61.0</ele><time>2026-04-04T09:11:27Z</time></trkpt><trkpt lat="42.424433555547274" lon="14.135223106564581"><ele>61.0</ele><time>2026-04-04T09:11:28Z</time></trkpt><trkpt lat="42.42453453645147" lon="14.135059911493274"><ele>59.33333333333333</ele><time>2026-04-04T09:11:29Z</time></trkpt><trkpt lat="42.42463844633826" lon="14.134881301321922"><ele>57.66666666666667</ele><time>2026-04-04T09:11:30Z</time></trkpt><trkpt lat="42.42474045127495" lon="14.134707102654332"><ele>56.0</ele><time>2026-04-04T09:11:31Z</time></trkpt><trkpt lat="42.4248373754996" lon="14.134543628246773"><ele>59.0</ele><time>2026-04-04T09:11:32Z</time></trkpt><trkpt lat="42.42493717957869" lon="14.134369597691476"><ele>62.0</ele><time>2026-04-04T09:11:33Z</time></trkpt><trkpt lat="42.42504632491406" lon="14.1342001056574"><ele>65.0</ele><time>2026-04-04T09:11:34Z</time></trkpt><trkpt lat="42.425147425063976" lon="14.134051271212844"><ele>65.0</ele><time>2026-04-04T09:11:35Z</time></trkpt><trkpt lat="42.425240456238335" lon="14.133914219718365"><ele>65.0</ele><time>2026-04-04T09:11:36Z</time></trkpt><trkpt lat="42.425324769988165" lon="14.133796262413496"><ele>65.0</ele><time>2026-04-04T09:11:37Z</time></trkpt><trkpt lat="42.425401028464755" lon="14.133692571826657"><ele>65.0</ele><time>2026-04-04T09:11:38Z</time></trkpt><trkpt lat="42.4254724972275" lon="14.133582820956613"><ele>66.5</ele><time>2026-04-04T09:11:39Z</time></trkpt><trkpt lat="42.42553647719301" lon="14.133457969482064"><ele>68.0</ele><time>2026-04-04T09:11:40Z</time></trkpt><trkpt lat="42.4256026568993" lon="14.13332145671994"><ele>69.5</ele><time>2026-04-04T09:11:41Z</time></trkpt><trkpt lat="42.42568216893135" lon="14.133178011247876"><ele>71.0</ele><time>2026-04-04T09:11:42Z</time></trkpt><trkpt lat="42.425745832518594" lon="14.132995772077168"><ele>71.0</ele><time>2026-04-04T09:11:43Z</time></trkpt><trkpt lat="42.425808394005166" lon="14.132806193585166"><ele>71.0</ele><time>2026-04-04T09:11:44Z</time></trkpt><trkpt lat="42.42586622239506" lon="14.132639754551754"><ele>71.0</ele><time>2026-04-04T09:11:45Z</time></trkpt><trkpt lat="42.42592135280454" lon="14.132487338402838"><ele>71.0</ele><time>2026-04-04T09:11:46Z</time></trkpt><trkpt lat="42.4259745961028" lon="14.132335064929466"><ele>71.0</ele><time>2026-04-04T09:11:47Z</time></trkpt><trkpt lat="42.426045211077955" lon="14.132177949986898"><ele>71.0</ele><time>2026-04-04T09:11:48Z</time></trkpt><trkpt lat="42.42612349166397" lon="14.1320277430848"><ele>71.0</ele><time>2026-04-04T09:11:48.999Z</time></trkpt><trkpt lat="42.426197669092154" lon="14.131901510502116"><ele>71.0</ele><time>2026-04-04T09:11:49.999Z</time></trkpt><trkpt lat="42.42627497665383" lon="14.131780799708933"><ele>72.5</ele><time>2026-04-04T09:11:50.999Z</time></trkpt><trkpt lat="42.42636571185039" lon="14.131663023816976"><ele>74.0</ele><time>2026-04-04T09:11:51.999Z</time></trkpt><trkpt lat="42.42647088882013" lon="14.131553758417525"><ele>75.5</ele><time>2026-04-04T09:11:52.999Z</time></trkpt><trkpt lat="42.426580236748045" lon="14.131458969204783"><ele>77.0</ele><time>2026-04-04T09:11:53.999Z</time></trkpt><trkpt lat="42.426684347708914" lon="14.131371909372472"><ele>77.0</ele><time>2026-04-04T09:11:54.999Z</time></trkpt><trkpt lat="42.42677642678452" lon="14.13129219940445"><ele>77.0</ele><time>2026-04-04T09:11:55.999Z</time></trkpt><trkpt lat="42.42686650825681" lon="14.131203367172365"><ele>77.0</ele><time>2026-04-04T09:11:56.999Z</time></trkpt><trkpt lat="42.426964802522356" lon="14.131097681517884"><ele>77.0</ele><time>2026-04-04T09:11:57.999Z</time></trkpt><trkpt lat="42.427065994985796" lon="14.130997771122079"><ele>76.8</ele><time>2026-04-04T09:11:58.999Z</time></trkpt><trkpt lat="42.42715696116451" lon="14.130908897853484"><ele>76.6</ele><time>2026-04-04T09:11:59.999Z</time></trkpt><trkpt lat="42.42724612711059" lon="14.130832561872348"><ele>76.39999999999999</ele><time>2026-04-04T09:12:00.999Z</time></trkpt><trkpt lat="42.42733459399951" lon="14.130745090009393"><ele>76.2</ele><time>2026-04-04T09:12:01.999Z</time></trkpt><trkpt lat="42.427407018570115" lon="14.130649938985629"><ele>76.0</ele><time>2026-04-04T09:12:02.999Z</time></trkpt><trkpt lat="42.427490463978856" lon="14.130531272001738"><ele>76.0</ele><time>2026-04-04T09:12:03.999Z</time></trkpt><trkpt lat="42.42757966626786" lon="14.130403985653226"><ele>76.0</ele><time>2026-04-04T09:12:04.999Z</time></trkpt><trkpt lat="42.42767224214111" lon="14.130264771660954"><ele>76.0</ele><time>2026-04-04T09:12:05.999Z</time></trkpt><trkpt lat="42.427762918820974" lon="14.13012296206927"><ele>76.0</ele><time>2026-04-04T09:12:06.999Z</time></trkpt><trkpt lat="42.42785234083571" lon="14.129983917501537"><ele>76.25</ele><time>2026-04-04T09:12:07.999Z</time></trkpt><trkpt lat="42.427938058382196" lon="14.129863321316092"><ele>76.5</ele><time>2026-04-04T09:12:08.999Z</time></trkpt><trkpt lat="42.428024436060554" lon="14.129744837623214"><ele>76.75</ele><time>2026-04-04T09:12:09.999Z</time></trkpt><trkpt lat="42.42810827029959" lon="14.129622759418973"><ele>77.0</ele><time>2026-04-04T09:12:10.999Z</time></trkpt><trkpt lat="42.4281878185543" lon="14.129509996364224"><ele>77.8</ele><time>2026-04-04T09:12:11.999Z</time></trkpt><trkpt lat="42.42825946094782" lon="14.129401616664314"><ele>78.6</ele><time>2026-04-04T09:12:12.999Z</time></trkpt><trkpt lat="42.42832984549372" lon="14.129298501311954"><ele>79.39999999999999</ele><time>2026-04-04T09:12:13.999Z</time></trkpt><trkpt lat="42.428396166472055" lon="14.129202325346773"><ele>80.2</ele><time>2026-04-04T09:12:14.999Z</time></trkpt><trkpt lat="42.4284555411602" lon="14.129112745137078"><ele>81.0</ele><time>2026-04-04T09:12:15.999Z</time></trkpt><trkpt lat="42.42850768060836" lon="14.129040570309632"><ele>81.0</ele><time>2026-04-04T09:12:16.999Z</time></trkpt><trkpt lat="42.42856702405388" lon="14.128965518758728"><ele>81.0</ele><time>2026-04-04T09:12:17.999Z</time></trkpt><trkpt lat="42.42863581865077" lon="14.12887084089955"><ele>81.0</ele><time>2026-04-04T09:12:18.999Z</time></trkpt><trkpt lat="42.42871016403028" lon="14.12876216127234"><ele>81.0</ele><time>2026-04-04T09:12:19.999Z</time></trkpt><trkpt lat="42.42879108264395" lon="14.128648046579336"><ele>81.0</ele><time>2026-04-04T09:12:20.999Z</time></trkpt><trkpt lat="42.4288679251044" lon="14.12853589460266"><ele>81.0</ele><time>2026-04-04T09:12:21.999Z</time></trkpt><trkpt lat="42.42895254342252" lon="14.128421064454592"><ele>81.0</ele><time>2026-04-04T09:12:22.999Z</time></trkpt><trkpt lat="42.42903641798262" lon="14.128306306224163"><ele>81.0</ele><time>2026-04-04T09:12:23.999Z</time></trkpt><trkpt lat="42.42911252897637" lon="14.128195657523353"><ele>81.0</ele><time>2026-04-04T09:12:24.999Z</time></trkpt><trkpt lat="42.42919699738904" lon="14.128087925222314"><ele>80.5</ele><time>2026-04-04T09:12:25.999Z</time></trkpt><trkpt lat="42.42928147640003" lon="14.127978204210207"><ele>80.0</ele><time>2026-04-04T09:12:26.999Z</time></trkpt><trkpt lat="42.429365059656924" lon="14.12786481754396"><ele>79.5</ele><time>2026-04-04T09:12:27.999Z</time></trkpt><trkpt lat="42.429453253452344" lon="14.127751427958017"><ele>79.0</ele><time>2026-04-04T09:12:28.999Z</time></trkpt><trkpt lat="42.42954048270034" lon="14.127639548403527"><ele>79.0</ele><time>2026-04-04T09:12:29.999Z</time></trkpt><trkpt lat="42.42963150386664" lon="14.127527516629709"><ele>79.0</ele><time>2026-04-04T09:12:30.999Z</time></trkpt><trkpt lat="42.42972525148042" lon="14.127419201183866"><ele>79.0</ele><time>2026-04-04T09:12:31.999Z</time></trkpt><trkpt lat="42.42981835429709" lon="14.127306038006818"><ele>79.0</ele><time>2026-04-04T09:12:32.999Z</time></trkpt><trkpt lat="42.42991034196595" lon="14.127199912321778"><ele>79.4</ele><time>2026-04-04T09:12:33.999Z</time></trkpt><trkpt lat="42.430001437894234" lon="14.127112191166155"><ele>79.80000000000001</ele><time>2026-04-04T09:12:34.999Z</time></trkpt><trkpt lat="42.43008792426153" lon="14.127027359134768"><ele>80.19999999999999</ele><time>2026-04-04T09:12:35.999Z</time></trkpt><trkpt lat="42.43016253770857" lon="14.126940444910705"><ele>80.6</ele><time>2026-04-04T09:12:36.999Z</time></trkpt><trkpt lat="42.430229971068016" lon="14.12685385121341"><ele>81.0</ele><time>2026-04-04T09:12:37.999Z</time></trkpt><trkpt lat="42.43028842693503" lon="14.12675797536995"><ele>81.0</ele><time>2026-04-04T09:12:38.999Z</time></trkpt><trkpt lat="42.430344350662246" lon="14.126652753196929"><ele>81.0</ele><time>2026-04-04T09:12:39.999Z</time></trkpt><trkpt lat="42.43040244925488" lon="14.126545883158695"><ele>81.0</ele><time>2026-04-04T09:12:40.999Z</time></trkpt><trkpt lat="42.4304684683997" lon="14.126437608576214"><ele>81.0</ele><time>2026-04-04T09:12:41.999Z</time></trkpt><trkpt lat="42.43053525330542" lon="14.126322989379457"><ele>81.0</ele><time>2026-04-04T09:12:42.999Z</time></trkpt><trkpt lat="42.430604434520944" lon="14.126208958955901"><ele>82.75</ele><time>2026-04-04T09:12:43.999Z</time></trkpt><trkpt lat="42.43067279027911" lon="14.126087556833504"><ele>84.5</ele><time>2026-04-04T09:12:44.999Z</time></trkpt><trkpt lat="42.430742188509306" lon="14.12596264876782"><ele>86.25</ele><time>2026-04-04T09:12:45.999Z</time></trkpt><trkpt lat="42.43081297844011" lon="14.125834517076708"><ele>88.0</ele><time>2026-04-04T09:12:46.999Z</time></trkpt><trkpt lat="42.43088485761082" lon="14.125709540327346"><ele>90.75</ele><time>2026-04-04T09:12:47.999Z</time></trkpt><trkpt lat="42.43095612254557" lon="14.125587353665397"><ele>93.5</ele><time>2026-04-04T09:12:48.999Z</time></trkpt><trkpt lat="42.43103048583801" lon="14.125466322687528"><ele>96.25</ele><time>2026-04-04T09:12:49.999Z</time></trkpt><trkpt lat="42.43110277742791" lon="14.12534323239515"><ele>99.0</ele><time>2026-04-04T09:12:50.999Z</time></trkpt><trkpt lat="42.43117307018361" lon="14.125220625027733"><ele>99.0</ele><time>2026-04-04T09:12:51.999Z</time></trkpt><trkpt lat="42.431247234179445" lon="14.125098682182472"><ele>99.0</ele><time>2026-04-04T09:12:52.999Z</time></trkpt><trkpt lat="42.43131963686263" lon="14.124986204572519"><ele>99.0</ele><time>2026-04-04T09:12:53.999Z</time></trkpt><trkpt lat="42.4313899370494" lon="14.12486939024078"><ele>99.0</ele><time>2026-04-04T09:12:54.999Z</time></trkpt><trkpt lat="42.43145728340277" lon="14.124753928591932"><ele>99.0</ele><time>2026-04-04T09:12:55.999Z</time></trkpt><trkpt lat="42.431516420537584" lon="14.124642435785802"><ele>98.80000000000001</ele><time>2026-04-04T09:12:56.999Z</time></trkpt><trkpt lat="42.43157693194236" lon="14.124525948650508"><ele>98.60000000000001</ele><time>2026-04-04T09:12:57.999Z</time></trkpt><trkpt lat="42.43163218177665" lon="14.124397773210848"><ele>98.4</ele><time>2026-04-04T09:12:58.999Z</time></trkpt><trkpt lat="42.43168286676332" lon="14.124269388765246"><ele>98.2</ele><time>2026-04-04T09:12:59.999Z</time></trkpt><trkpt lat="42.43173380506722" lon="14.124139600683252"><ele>98.0</ele><time>2026-04-04T09:13:00.999Z</time></trkpt><trkpt lat="42.43178718515366" lon="14.123999865061311"><ele>98.60000000000001</ele><time>2026-04-04T09:13:01.999Z</time></trkpt><trkpt lat="42.43184608908133" lon="14.12385844802248"><ele>99.2</ele><time>2026-04-04T09:13:02.999Z</time></trkpt><trkpt lat="42.431892315639026" lon="14.123720787993953"><ele>99.8</ele><time>2026-04-04T09:13:03.999Z</time></trkpt><trkpt lat="42.4319332276718" lon="14.123590140135304"><ele>100.4</ele><time>2026-04-04T09:13:04.999Z</time></trkpt><trkpt lat="42.43198622979168" lon="14.12346700206518"><ele>101.0</ele><time>2026-04-04T09:13:05.999Z</time></trkpt><trkpt lat="42.43203019860606" lon="14.123342157405412"><ele>101.0</ele><time>2026-04-04T09:13:06.999Z</time></trkpt><trkpt lat="42.432091356320726" lon="14.123233649375798"><ele>101.0</ele><time>2026-04-04T09:13:07.999Z</time></trkpt><trkpt lat="42.432173014291166" lon="14.123133170696315"><ele>101.0</ele><time>2026-04-04T09:13:08.999Z</time></trkpt><trkpt lat="42.43226056547608" lon="14.123052528572765"><ele>101.0</ele><time>2026-04-04T09:13:09.999Z</time></trkpt><trkpt lat="42.43234739342042" lon="14.122974098639837"><ele>101.0</ele><time>2026-04-04T09:13:10.998Z</time></trkpt><trkpt lat="42.43241947861721" lon="14.122862739487196"><ele>100.4</ele><time>2026-04-04T09:13:11.998Z</time></trkpt><trkpt lat="42.432476374222325" lon="14.12272059814693"><ele>99.8</ele><time>2026-04-04T09:13:12.998Z</time></trkpt><trkpt lat="42.43251497019328" lon="14.122561335617517"><ele>99.2</ele><time>2026-04-04T09:13:13.998Z</time></trkpt><trkpt lat="42.43252867287607" lon="14.12241261856767"><ele>98.60000000000001</ele><time>2026-04-04T09:13:14.998Z</time></trkpt><trkpt lat="42.43256037944572" lon="14.122301709818297"><ele>98.0</ele><time>2026-04-04T09:13:15.998Z</time></trkpt><trkpt lat="42.43258132489539" lon="14.1222118398405"><ele>97.80000000000001</ele><time>2026-04-04T09:13:16.998Z</time></trkpt><trkpt lat="42.43262069456881" lon="14.12213850081988"><ele>97.6</ele><time>2026-04-04T09:13:17.998Z</time></trkpt><trkpt lat="42.43269597476614" lon="14.12211235887553"><ele>97.4</ele><time>2026-04-04T09:13:18.998Z</time></trkpt><trkpt lat="42.43279680974082" lon="14.122112912777256"><ele>97.19999999999999</ele><time>2026-04-04T09:13:19.998Z</time></trkpt><trkpt lat="42.43290736040529" lon="14.122115225858705"><ele>97.0</ele><time>2026-04-04T09:13:20.998Z</time></trkpt><trkpt lat="42.43301456992421" lon="14.12208931649451"><ele>98.19999999999999</ele><time>2026-04-04T09:13:22Z</time></trkpt><trkpt lat="42.43312191651248" lon="14.122019403404224"><ele>99.4</ele><time>2026-04-04T09:13:23Z</time></trkpt><trkpt lat="42.43321546639464" lon="14.121936480260946"><ele>100.6</ele><time>2026-04-04T09:13:24Z</time></trkpt><trkpt lat="42.43328066391561" lon="14.121836983789224"><ele>101.80000000000001</ele><time>2026-04-04T09:13:25Z</time></trkpt><trkpt lat="42.4333296075585" lon="14.121731627700097"><ele>103.0</ele><time>2026-04-04T09:13:26Z</time></trkpt><trkpt lat="42.43339015135397" lon="14.121666225802855"><ele>103.00000000000001</ele><time>2026-04-04T09:13:27Z</time></trkpt><trkpt lat="42.433439052258755" lon="14.121594473733687"><ele>103.0</ele><time>2026-04-04T09:13:28Z</time></trkpt><trkpt lat="42.43351347947963" lon="14.121568963414147"><ele>103.0</ele><time>2026-04-04T09:13:29Z</time></trkpt><trkpt lat="42.43359553754328" lon="14.121581736687402"><ele>103.0</ele><time>2026-04-04T09:13:30Z</time></trkpt><trkpt lat="42.43367145723338" lon="14.121608556903178"><ele>103.00000000000001</ele><time>2026-04-04T09:13:31Z</time></trkpt><trkpt lat="42.433759460443014" lon="14.121618483709462"><ele>103.0</ele><time>2026-04-04T09:13:32Z</time></trkpt><trkpt lat="42.43384575399931" lon="14.12159888733633"><ele>102.80000000000001</ele><time>2026-04-04T09:13:33Z</time></trkpt><trkpt lat="42.43392921728496" lon="14.121548803529366"><ele>102.6</ele><time>2026-04-04T09:13:34Z</time></trkpt><trkpt lat="42.43401491582378" lon="14.121481797256392"><ele>102.4</ele><time>2026-04-04T09:13:35Z</time></trkpt><trkpt lat="42.43409449592753" lon="14.121390517798874"><ele>102.19999999999999</ele><time>2026-04-04T09:13:36Z</time></trkpt><trkpt lat="42.43417651310028" lon="14.121302493428626"><ele>102.0</ele><time>2026-04-04T09:13:37Z</time></trkpt><trkpt lat="42.43426049613321" lon="14.121223659127601"><ele>102.0</ele><time>2026-04-04T09:13:38Z</time></trkpt><trkpt lat="42.4343424337095" lon="14.121142611789532"><ele>102.0</ele><time>2026-04-04T09:13:39Z</time></trkpt><trkpt lat="42.434415687191" lon="14.12107175551119"><ele>102.0</ele><time>2026-04-04T09:13:40Z</time></trkpt><trkpt lat="42.43447640372901" lon="14.121003248365888"><ele>102.0</ele><time>2026-04-04T09:13:41Z</time></trkpt><trkpt lat="42.43453708779187" lon="14.120939612733354"><ele>102.0</ele><time>2026-04-04T09:13:42Z</time></trkpt><trkpt lat="42.43460997065396" lon="14.120897544485814"><ele>102.0</ele><time>2026-04-04T09:13:43Z</time></trkpt><trkpt lat="42.434676529016585" lon="14.120822394843264"><ele>102.6</ele><time>2026-04-04T09:13:44Z</time></trkpt><trkpt lat="42.43476333154949" lon="14.120772010077038"><ele>103.19999999999999</ele><time>2026-04-04T09:13:45Z</time></trkpt><trkpt lat="42.43485380405861" lon="14.120719610567964"><ele>103.8</ele><time>2026-04-04T09:13:46Z</time></trkpt><trkpt lat="42.43494638483444" lon="14.120674721362752"><ele>104.4</ele><time>2026-04-04T09:13:47Z</time></trkpt><trkpt lat="42.4350412198916" lon="14.12064451396254"><ele>105.0</ele><time>2026-04-04T09:13:48Z</time></trkpt><trkpt lat="42.43514488809642" lon="14.12063101309115"><ele>104.4</ele><time>2026-04-04T09:13:49Z</time></trkpt><trkpt lat="42.435246180376026" lon="14.120621385567796"><ele>103.8</ele><time>2026-04-04T09:13:50Z</time></trkpt><trkpt lat="42.43534335866954" lon="14.120614517474001"><ele>103.19999999999999</ele><time>2026-04-04T09:13:51Z</time></trkpt><trkpt lat="42.43543485361938" lon="14.120602335389187"><ele>102.6</ele><time>2026-04-04T09:13:52Z</time></trkpt><trkpt lat="42.43553579344111" lon="14.120579188141472"><ele>102.0</ele><time>2026-04-04T09:13:53Z</time></trkpt><trkpt lat="42.43562544558943" lon="14.120531046526283"><ele>102.0</ele><time>2026-04-04T09:13:54Z</time></trkpt><trkpt lat="42.43570877552701" lon="14.120461901287143"><ele>102.0</ele><time>2026-04-04T09:13:55Z</time></trkpt><trkpt lat="42.43579290711021" lon="14.120380402266376"><ele>102.0</ele><time>2026-04-04T09:13:56Z</time></trkpt><trkpt lat="42.435878920457036" lon="14.12028747416605"><ele>102.0</ele><time>2026-04-04T09:13:57Z</time></trkpt><trkpt lat="42.43595499668458" lon="14.12019303265205"><ele>102.0</ele><time>2026-04-04T09:13:58Z</time></trkpt><trkpt lat="42.43602080470868" lon="14.12010300552915"><ele>102.0</ele><time>2026-04-04T09:13:59Z</time></trkpt><trkpt lat="42.43608606463385" lon="14.120015990922857"><ele>102.0</ele><time>2026-04-04T09:14:00Z</time></trkpt><trkpt lat="42.43615366416135" lon="14.119925022579244"><ele>102.0</ele><time>2026-04-04T09:14:01Z</time></trkpt><trkpt lat="42.43622739094699" lon="14.119833994640265"><ele>102.0</ele><time>2026-04-04T09:14:02Z</time></trkpt><trkpt lat="42.43629825128954" lon="14.119735130717393"><ele>102.0</ele><time>2026-04-04T09:14:03Z</time></trkpt><trkpt lat="42.43636564670563" lon="14.119626771755799"><ele>100.39999999999999</ele><time>2026-04-04T09:14:04Z</time></trkpt><trkpt lat="42.4364300777349" lon="14.119523770751645"><ele>98.8</ele><time>2026-04-04T09:14:05Z</time></trkpt><trkpt lat="42.43649601485789" lon="14.119419744480117"><ele>97.2</ele><time>2026-04-04T09:14:06Z</time></trkpt><trkpt lat="42.43656063114734" lon="14.119319820912748"><ele>95.6</ele><time>2026-04-04T09:14:07Z</time></trkpt><trkpt lat="42.43662112530897" lon="14.119228088388077"><ele>94.0</ele><time>2026-04-04T09:14:08Z</time></trkpt><trkpt lat="42.436675857034935" lon="14.119141524232212"><ele>93.6</ele><time>2026-04-04T09:14:09Z</time></trkpt><trkpt lat="42.436725791735775" lon="14.119054855654747"><ele>93.2</ele><time>2026-04-04T09:14:10Z</time></trkpt><trkpt lat="42.436809413475906" lon="14.118911827964277"><ele>92.8</ele><time>2026-04-04T09:14:12Z</time></trkpt><trkpt lat="42.436860219674344" lon="14.118829070434932"><ele>92.39999999999999</ele><time>2026-04-04T09:14:13Z</time></trkpt><trkpt lat="42.43690755090801" lon="14.11873257049852"><ele>92.0</ele><time>2026-04-04T09:14:14Z</time></trkpt><trkpt lat="42.43696716363633" lon="14.118619641237585"><ele>92.0</ele><time>2026-04-04T09:14:15Z</time></trkpt><trkpt lat="42.43703312081339" lon="14.118500621458605"><ele>92.0</ele><time>2026-04-04T09:14:16Z</time></trkpt><trkpt lat="42.43710528523868" lon="14.11838124940935"><ele>92.0</ele><time>2026-04-04T09:14:17Z</time></trkpt><trkpt lat="42.437176562800204" lon="14.118253458826901"><ele>92.0</ele><time>2026-04-04T09:14:18Z</time></trkpt><trkpt lat="42.437245877218004" lon="14.118129102796448"><ele>93.39999999999999</ele><time>2026-04-04T09:14:18.999Z</time></trkpt><trkpt lat="42.43731559563332" lon="14.118005019863634"><ele>94.8</ele><time>2026-04-04T09:14:19.999Z</time></trkpt><trkpt lat="42.4373806923801" lon="14.117891124373825"><ele>96.2</ele><time>2026-04-04T09:14:20.999Z</time></trkpt><trkpt lat="42.437439221377794" lon="14.117791380882004"><ele>97.6</ele><time>2026-04-04T09:14:21.999Z</time></trkpt><trkpt lat="42.43748915770629" lon="14.117700967880776"><ele>99.0</ele><time>2026-04-04T09:14:22.999Z</time></trkpt><trkpt lat="42.43753249685278" lon="14.11760754838355"><ele>99.0</ele><time>2026-04-04T09:14:23.999Z</time></trkpt><trkpt lat="42.437577106990155" lon="14.117519808674595"><ele>99.0</ele><time>2026-04-04T09:14:24.999Z</time></trkpt><trkpt lat="42.43762307491103" lon="14.11744473182162"><ele>99.0</ele><time>2026-04-04T09:14:25.999Z</time></trkpt><trkpt lat="42.437672492918445" lon="14.117380347672123"><ele>99.0</ele><time>2026-04-04T09:14:26.999Z</time></trkpt><trkpt lat="42.43772309723114" lon="14.117319326733204"><ele>99.0</ele><time>2026-04-04T09:14:27.999Z</time></trkpt><trkpt lat="42.437789632666" lon="14.117258610536092"><ele>99.0</ele><time>2026-04-04T09:14:28.999Z</time></trkpt><trkpt lat="42.43786231410222" lon="14.117192580919756"><ele>98.0</ele><time>2026-04-04T09:14:29.999Z</time></trkpt><trkpt lat="42.43794200384404" lon="14.117129515262004"><ele>97.0</ele><time>2026-04-04T09:14:30.999Z</time></trkpt><trkpt lat="42.43803271782077" lon="14.117071665497505"><ele>96.0</ele><time>2026-04-04T09:14:31.999Z</time></trkpt><trkpt lat="42.43811760648508" lon="14.117016083837639"><ele>95.0</ele><time>2026-04-04T09:14:32.999Z</time></trkpt><trkpt lat="42.4382008945553" lon="14.116963110091394"><ele>94.0</ele><time>2026-04-04T09:14:33.999Z</time></trkpt><trkpt lat="42.43828591476752" lon="14.116898517220461"><ele>96.2</ele><time>2026-04-04T09:14:34.999Z</time></trkpt><trkpt lat="42.43837240687363" lon="14.116840896263563"><ele>98.4</ele><time>2026-04-04T09:14:35.999Z</time></trkpt><trkpt lat="42.43845986116243" lon="14.116802896449332"><ele>100.6</ele><time>2026-04-04T09:14:36.999Z</time></trkpt><trkpt lat="42.43855891151441" lon="14.116781636355007"><ele>102.8</ele><time>2026-04-04T09:14:37.999Z</time></trkpt><trkpt lat="42.43865185933569" lon="14.116775895667761"><ele>105.0</ele><time>2026-04-04T09:14:38.999Z</time></trkpt><trkpt lat="42.43875512644608" lon="14.116753017128016"><ele>104.6</ele><time>2026-04-04T09:14:39.999Z</time></trkpt><trkpt lat="42.43885405377024" lon="14.116720037520977"><ele>104.2</ele><time>2026-04-04T09:14:40.999Z</time></trkpt><trkpt lat="42.438940760285796" lon="14.116683797103116"><ele>103.80000000000001</ele><time>2026-04-04T09:14:41.999Z</time></trkpt><trkpt lat="42.439023530019966" lon="14.116656883319015"><ele>103.4</ele><time>2026-04-04T09:14:42.999Z</time></trkpt><trkpt lat="42.43910617768884" lon="14.11662060230282"><ele>103.0</ele><time>2026-04-04T09:14:43.999Z</time></trkpt><trkpt lat="42.43918703335338" lon="14.11658315280844"><ele>102.66666666666667</ele><time>2026-04-04T09:14:44.999Z</time></trkpt><trkpt lat="42.43926701276966" lon="14.116543424956626"><ele>102.33333333333334</ele><time>2026-04-04T09:14:45.999Z</time></trkpt><trkpt lat="42.43935350600119" lon="14.116510916911475"><ele>102.0</ele><time>2026-04-04T09:14:46.999Z</time></trkpt><trkpt lat="42.4394284914649" lon="14.116478377476113"><ele>101.66666666666666</ele><time>2026-04-04T09:14:47.999Z</time></trkpt><trkpt lat="42.43950771674351" lon="14.116451684731276"><ele>101.33333333333333</ele><time>2026-04-04T09:14:48.999Z</time></trkpt><trkpt lat="42.43959908987796" lon="14.116438001548444"><ele>101.0</ele><time>2026-04-04T09:14:49.999Z</time></trkpt><trkpt lat="42.439707138614885" lon="14.116433452623028"><ele>101.0</ele><time>2026-04-04T09:14:50.999Z</time></trkpt><trkpt lat="42.439826414886646" lon="14.116448855909356"><ele>101.0</ele><time>2026-04-04T09:14:51.999Z</time></trkpt><trkpt lat="42.43995091521159" lon="14.116462559164518"><ele>101.0</ele><time>2026-04-04T09:14:52.999Z</time></trkpt><trkpt lat="42.440066734250216" lon="14.116489994986352"><ele>101.0</ele><time>2026-04-04T09:14:53.999Z</time></trkpt><trkpt lat="42.44017472330416" lon="14.116522753458268"><ele>101.0</ele><time>2026-04-04T09:14:54.999Z</time></trkpt><trkpt lat="42.440279572291715" lon="14.116539422031467"><ele>101.0</ele><time>2026-04-04T09:14:55.999Z</time></trkpt><trkpt lat="42.44039476920302" lon="14.116556097040688"><ele>101.0</ele><time>2026-04-04T09:14:56.999Z</time></trkpt><trkpt lat="42.44051365551048" lon="14.11656271473713"><ele>101.0</ele><time>2026-04-04T09:14:57.999Z</time></trkpt><trkpt lat="42.44062485936612" lon="14.116564678458849"><ele>101.8</ele><time>2026-04-04T09:14:58.999Z</time></trkpt><trkpt lat="42.44073728643677" lon="14.11655844492495"><ele>102.6</ele><time>2026-04-04T09:14:59.999Z</time></trkpt><trkpt lat="42.440851931409355" lon="14.116549082073227"><ele>103.4</ele><time>2026-04-04T09:15:00.999Z</time></trkpt><trkpt lat="42.44096503291643" lon="14.116554005532732"><ele>104.2</ele><time>2026-04-04T09:15:01.999Z</time></trkpt><trkpt lat="42.441070135471406" lon="14.116579540112818"><ele>105.0</ele><time>2026-04-04T09:15:02.999Z</time></trkpt><trkpt lat="42.44118437005583" lon="14.116630094839527"><ele>105.0</ele><time>2026-04-04T09:15:03.999Z</time></trkpt><trkpt lat="42.44129130090867" lon="14.116698216395335"><ele>105.0</ele><time>2026-04-04T09:15:04.999Z</time></trkpt><trkpt lat="42.441390887525785" lon="14.116763335398629"><ele>105.0</ele><time>2026-04-04T09:15:05.999Z</time></trkpt><trkpt lat="42.44148377277227" lon="14.116802348838032"><ele>105.0</ele><time>2026-04-04T09:15:06.999Z</time></trkpt><trkpt lat="42.441581209727396" lon="14.116821494196625"><ele>105.0</ele><time>2026-04-04T09:15:07.999Z</time></trkpt><trkpt lat="42.44168539770844" lon="14.116832881960732"><ele>108.25</ele><time>2026-04-04T09:15:08.999Z</time></trkpt><trkpt lat="42.44180509115599" lon="14.116837478080075"><ele>111.5</ele><time>2026-04-04T09:15:09.999Z</time></trkpt><trkpt lat="42.4419265687049" lon="14.116840848447408"><ele>114.75</ele><time>2026-04-04T09:15:10.999Z</time></trkpt><trkpt lat="42.44205306081214" lon="14.116847824297746"><ele>118.0</ele><time>2026-04-04T09:15:11.999Z</time></trkpt><trkpt lat="42.44218670747539" lon="14.116857317832942"><ele>118.80000000000001</ele><time>2026-04-04T09:15:12.999Z</time></trkpt><trkpt lat="42.44230793775201" lon="14.11686975112844"><ele>119.60000000000001</ele><time>2026-04-04T09:15:13.999Z</time></trkpt><trkpt lat="42.442425679096374" lon="14.116878756073628"><ele>120.39999999999999</ele><time>2026-04-04T09:15:14.999Z</time></trkpt><trkpt lat="42.442533598699185" lon="14.116898907765854"><ele>121.19999999999999</ele><time>2026-04-04T09:15:15.999Z</time></trkpt><trkpt lat="42.442632782658286" lon="14.116920510389795"><ele>122.0</ele><time>2026-04-04T09:15:16.999Z</time></trkpt><trkpt lat="42.442730383866426" lon="14.116942131413643"><ele>121.99999999999999</ele><time>2026-04-04T09:15:17.999Z</time></trkpt><trkpt lat="42.44280918336063" lon="14.116949211086615"><ele>122.0</ele><time>2026-04-04T09:15:18.999Z</time></trkpt><trkpt lat="42.44288436852649" lon="14.116945057316869"><ele>122.0</ele><time>2026-04-04T09:15:19.999Z</time></trkpt><trkpt lat="42.44296089009246" lon="14.116900184126315"><ele>122.0</ele><time>2026-04-04T09:15:20.999Z</time></trkpt><trkpt lat="42.44303684855877" lon="14.116835073022054"><ele>121.99999999999999</ele><time>2026-04-04T09:15:21.999Z</time></trkpt><trkpt lat="42.443104256443306" lon="14.116746211846532"><ele>122.0</ele><time>2026-04-04T09:15:22.999Z</time></trkpt><trkpt lat="42.44315395386301" lon="14.116654465160295"><ele>121.33333333333333</ele><time>2026-04-04T09:15:23.999Z</time></trkpt><trkpt lat="42.44320702395335" lon="14.116564230514593"><ele>120.66666666666666</ele><time>2026-04-04T09:15:24.999Z</time></trkpt><trkpt lat="42.443273809161525" lon="14.116476336493736"><ele>120.0</ele><time>2026-04-04T09:15:25.999Z</time></trkpt><trkpt lat="42.44332906717733" lon="14.116385021074501"><ele>119.33333333333334</ele><time>2026-04-04T09:15:26.999Z</time></trkpt><trkpt lat="42.44337261632929" lon="14.11630178057659"><ele>118.66666666666667</ele><time>2026-04-04T09:15:28Z</time></trkpt><trkpt lat="42.44343368604873" lon="14.11625271153761"><ele>118.0</ele><time>2026-04-04T09:15:29Z</time></trkpt><trkpt lat="42.443498142313224" lon="14.116216025237705"><ele>118.00000000000001</ele><time>2026-04-04T09:15:30Z</time></trkpt><trkpt lat="42.44357457817675" lon="14.116191187981714"><ele>118.0</ele><time>2026-04-04T09:15:31Z</time></trkpt><trkpt lat="42.443642364647616" lon="14.116170933153478"><ele>118.0</ele><time>2026-04-04T09:15:32Z</time></trkpt><trkpt lat="42.44373524005674" lon="14.116149417523067"><ele>118.0</ele><time>2026-04-04T09:15:33Z</time></trkpt><trkpt lat="42.44383038136267" lon="14.116145196401126"><ele>118.00000000000001</ele><time>2026-04-04T09:15:34Z</time></trkpt><trkpt lat="42.443941067756725" lon="14.11615033878205"><ele>118.0</ele><time>2026-04-04T09:15:35Z</time></trkpt><trkpt lat="42.44404593409425" lon="14.116154648886836"><ele>117.2</ele><time>2026-04-04T09:15:36Z</time></trkpt><trkpt lat="42.4441328933864" lon="14.1161399018174"><ele>116.4</ele><time>2026-04-04T09:15:37Z</time></trkpt><trkpt lat="42.44421863424121" lon="14.116120457837743"><ele>115.60000000000001</ele><time>2026-04-04T09:15:38Z</time></trkpt><trkpt lat="42.44431013252487" lon="14.116088735395175"><ele>114.80000000000001</ele><time>2026-04-04T09:15:39Z</time></trkpt><trkpt lat="42.44441064865181" lon="14.116042852503888"><ele>114.0</ele><time>2026-04-04T09:15:40Z</time></trkpt><trkpt lat="42.44450996858235" lon="14.11599114862909"><ele>114.0</ele><time>2026-04-04T09:15:41Z</time></trkpt><trkpt lat="42.44460550469148" lon="14.115956512911119"><ele>114.0</ele><time>2026-04-04T09:15:42Z</time></trkpt><trkpt lat="42.44470260684481" lon="14.115921021254545"><ele>114.0</ele><time>2026-04-04T09:15:43Z</time></trkpt><trkpt lat="42.44479828926103" lon="14.115891451212525"><ele>114.0</ele><time>2026-04-04T09:15:44Z</time></trkpt><trkpt lat="42.4448912118228" lon="14.11587530733401"><ele>114.0</ele><time>2026-04-04T09:15:45Z</time></trkpt><trkpt lat="42.44499537486643" lon="14.115862839381757"><ele>113.75</ele><time>2026-04-04T09:15:46Z</time></trkpt><trkpt lat="42.44510656213183" lon="14.115844691390405"><ele>113.5</ele><time>2026-04-04T09:15:47Z</time></trkpt><trkpt lat="42.445229543813355" lon="14.115836274726004"><ele>113.25</ele><time>2026-04-04T09:15:48Z</time></trkpt><trkpt lat="42.445356572815136" lon="14.115816820591537"><ele>113.0</ele><time>2026-04-04T09:15:49Z</time></trkpt><trkpt lat="42.44547933620778" lon="14.115769485838495"><ele>116.25</ele><time>2026-04-04T09:15:50Z</time></trkpt><trkpt lat="42.445594815643304" lon="14.115699554675453"><ele>119.5</ele><time>2026-04-04T09:15:51Z</time></trkpt><trkpt lat="42.445712256019895" lon="14.115619987756956"><ele>122.75</ele><time>2026-04-04T09:15:52Z</time></trkpt><trkpt lat="42.445821304164255" lon="14.115533488550303"><ele>126.0</ele><time>2026-04-04T09:15:53Z</time></trkpt><trkpt lat="42.4459238516329" lon="14.11544895210329"><ele>126.0</ele><time>2026-04-04T09:15:54Z</time></trkpt><trkpt lat="42.44600165535915" lon="14.115332555586429"><ele>126.0</ele><time>2026-04-04T09:15:55Z</time></trkpt><trkpt lat="42.44607406772205" lon="14.11518494432078"><ele>126.0</ele><time>2026-04-04T09:15:56Z</time></trkpt><trkpt lat="42.44614112989356" lon="14.11502747606188"><ele>126.0</ele><time>2026-04-04T09:15:57Z</time></trkpt><trkpt lat="42.446205134841016" lon="14.114865264022612"><ele>127.0</ele><time>2026-04-04T09:15:58Z</time></trkpt><trkpt lat="42.44627398666967" lon="14.11469655136423"><ele>128.0</ele><time>2026-04-04T09:15:59Z</time></trkpt><trkpt lat="42.44634080247649" lon="14.114553887376918"><ele>129.0</ele><time>2026-04-04T09:16:00Z</time></trkpt><trkpt lat="42.44639797422797" lon="14.114421304925003"><ele>130.0</ele><time>2026-04-04T09:16:01Z</time></trkpt><trkpt lat="42.446453467260824" lon="14.114300042169344"><ele>130.5</ele><time>2026-04-04T09:16:02Z</time></trkpt><trkpt lat="42.44652563619135" lon="14.11418151731432"><ele>131.0</ele><time>2026-04-04T09:16:03Z</time></trkpt><trkpt lat="42.44661560545935" lon="14.11408588367692"><ele>131.5</ele><time>2026-04-04T09:16:04Z</time></trkpt><trkpt lat="42.44672941979857" lon="14.114016419772321"><ele>132.0</ele><time>2026-04-04T09:16:05Z</time></trkpt><trkpt lat="42.4468577814815" lon="14.113970770995856"><ele>132.5</ele><time>2026-04-04T09:16:06Z</time></trkpt><trkpt lat="42.44700153092228" lon="14.11396346080694"><ele>133.0</ele><time>2026-04-04T09:16:07Z</time></trkpt><trkpt lat="42.447145074785965" lon="14.113963231657682"><ele>133.5</ele><time>2026-04-04T09:16:08Z</time></trkpt><trkpt lat="42.44729072634601" lon="14.113953870014187"><ele>134.0</ele><time>2026-04-04T09:16:09Z</time></trkpt><trkpt lat="42.44743349564003" lon="14.113938969616466"><ele>134.0</ele><time>2026-04-04T09:16:10Z</time></trkpt><trkpt lat="42.44756544333358" lon="14.113923053092972"><ele>134.0</ele><time>2026-04-04T09:16:11Z</time></trkpt><trkpt lat="42.447684601321576" lon="14.113899748065537"><ele>134.0</ele><time>2026-04-04T09:16:12Z</time></trkpt><trkpt lat="42.447790373705196" lon="14.113856582831506"><ele>134.0</ele><time>2026-04-04T09:16:13Z</time></trkpt><trkpt lat="42.447887605047896" lon="14.113802681410316"><ele>136.2</ele><time>2026-04-04T09:16:14Z</time></trkpt><trkpt lat="42.44796333144285" lon="14.11374182193545"><ele>138.4</ele><time>2026-04-04T09:16:15Z</time></trkpt><trkpt lat="42.44803405204385" lon="14.113670839458647"><ele>140.6</ele><time>2026-04-04T09:16:16Z</time></trkpt><trkpt lat="42.44809338573756" lon="14.1135846594632"><ele>142.8</ele><time>2026-04-04T09:16:17Z</time></trkpt><trkpt lat="42.448149591606104" lon="14.113464669474206"><ele>145.0</ele><time>2026-04-04T09:16:18Z</time></trkpt><trkpt lat="42.44817422127742" lon="14.113333565008892"><ele>146.4</ele><time>2026-04-04T09:16:19Z</time></trkpt><trkpt lat="42.44816844034489" lon="14.113194374783319"><ele>147.8</ele><time>2026-04-04T09:16:20Z</time></trkpt><trkpt lat="42.44816099671948" lon="14.113048428651641"><ele>149.2</ele><time>2026-04-04T09:16:21Z</time></trkpt><trkpt lat="42.44816551375836" lon="14.112905966169418"><ele>150.6</ele><time>2026-04-04T09:16:22Z</time></trkpt><trkpt lat="42.4481753647334" lon="14.112766729774762"><ele>152.0</ele><time>2026-04-04T09:16:23Z</time></trkpt><trkpt lat="42.448189409477564" lon="14.112625193431096"><ele>152.0</ele><time>2026-04-04T09:16:24Z</time></trkpt><trkpt lat="42.448201284355854" lon="14.11248248041416"><ele>152.0</ele><time>2026-04-04T09:16:25Z</time></trkpt><trkpt lat="42.44821796815636" lon="14.112334934537381"><ele>152.0</ele><time>2026-04-04T09:16:26Z</time></trkpt><trkpt lat="42.448237694754624" lon="14.112179423180322"><ele>152.0</ele><time>2026-04-04T09:16:27Z</time></trkpt><trkpt lat="42.44825710884656" lon="14.112046498291727"><ele>152.0</ele><time>2026-04-04T09:16:28Z</time></trkpt><trkpt lat="42.448261292545894" lon="14.111914466242037"><ele>152.16666666666666</ele><time>2026-04-04T09:16:29Z</time></trkpt><trkpt lat="42.448269275991365" lon="14.11178369383412"><ele>152.33333333333331</ele><time>2026-04-04T09:16:30Z</time></trkpt><trkpt lat="42.448270963601736" lon="14.111667435719369"><ele>152.5</ele><time>2026-04-04T09:16:31Z</time></trkpt><trkpt lat="42.4482721378264" lon="14.111568855795488"><ele>152.66666666666666</ele><time>2026-04-04T09:16:32Z</time></trkpt><trkpt lat="42.44831143698626" lon="14.111472139890289"><ele>152.83333333333334</ele><time>2026-04-04T09:16:34Z</time></trkpt><trkpt lat="42.44836429197805" lon="14.111385815297037"><ele>153.0</ele><time>2026-04-04T09:16:38Z</time></trkpt><trkpt lat="42.44834278283445" lon="14.111286499313694"><ele>151.6</ele><time>2026-04-04T09:16:39Z</time></trkpt><trkpt lat="42.44831483116654" lon="14.111161866596653"><ele>150.20000000000002</ele><time>2026-04-04T09:16:40Z</time></trkpt><trkpt lat="42.44828479532183" lon="14.111056350403512"><ele>148.8</ele><time>2026-04-04T09:16:41Z</time></trkpt><trkpt lat="42.44825084966467" lon="14.11094388276137"><ele>147.4</ele><time>2026-04-04T09:16:42Z</time></trkpt><trkpt lat="42.448209994505405" lon="14.110826367883307"><ele>146.0</ele><time>2026-04-04T09:16:43Z</time></trkpt><trkpt lat="42.44816436446653" lon="14.110725980569176"><ele>146.0</ele><time>2026-04-04T09:16:44Z</time></trkpt><trkpt lat="42.448113367702256" lon="14.110624436779224"><ele>146.0</ele><time>2026-04-04T09:16:45Z</time></trkpt><trkpt lat="42.44806106388295" lon="14.110539745477856"><ele>146.0</ele><time>2026-04-04T09:16:46Z</time></trkpt><trkpt lat="42.447999821115594" lon="14.110456608732761"><ele>146.0</ele><time>2026-04-04T09:16:47Z</time></trkpt><trkpt lat="42.447922183763275" lon="14.110389067625622"><ele>146.0</ele><time>2026-04-04T09:16:48Z</time></trkpt><trkpt lat="42.447843857808365" lon="14.11031450902706"><ele>146.0</ele><time>2026-04-04T09:16:48.999Z</time></trkpt><trkpt lat="42.4477626532664" lon="14.110240836299027"><ele>146.0</ele><time>2026-04-04T09:16:49.999Z</time></trkpt><trkpt lat="42.44768068392207" lon="14.110183335793076"><ele>146.0</ele><time>2026-04-04T09:16:50.999Z</time></trkpt><trkpt lat="42.44759987846713" lon="14.11013308378521"><ele>146.0</ele><time>2026-04-04T09:16:51.999Z</time></trkpt><trkpt lat="42.447517652682" lon="14.110083561700842"><ele>146.0</ele><time>2026-04-04T09:16:52.999Z</time></trkpt><trkpt lat="42.44743298039194" lon="14.110045768357658"><ele>146.0</ele><time>2026-04-04T09:16:53.999Z</time></trkpt><trkpt lat="42.447351009047814" lon="14.110006856653436"><ele>146.0</ele><time>2026-04-04T09:16:54.999Z</time></trkpt><trkpt lat="42.44727986168573" lon="14.109974063661655"><ele>146.0</ele><time>2026-04-04T09:16:55.999Z</time></trkpt><trkpt lat="42.4472151264975" lon="14.109945642564234"><ele>146.0</ele><time>2026-04-04T09:16:56.999Z</time></trkpt><trkpt lat="42.44709734200593" lon="14.109898973126471"><ele>146.0</ele><time>2026-04-04T09:16:58.999Z</time></trkpt><trkpt lat="42.44703459483439" lon="14.10987766093279"><ele>146.0</ele><time>2026-04-04T09:16:59.999Z</time></trkpt><trkpt lat="42.446924324085124" lon="14.109856993285312"><ele>146.0</ele><time>2026-04-04T09:17:01.999Z</time></trkpt><trkpt lat="42.4468611485498" lon="14.109764637471375"><ele>144.0</ele><time>2026-04-04T09:17:04.999Z</time></trkpt><trkpt lat="42.44688149067605" lon="14.109676298097646"><ele>142.0</ele><time>2026-04-04T09:17:05.999Z</time></trkpt><trkpt lat="42.446915602733526" lon="14.109590996231923"><ele>140.0</ele><time>2026-04-04T09:17:06.999Z</time></trkpt><trkpt lat="42.44697359274515" lon="14.109529268718656"><ele>138.0</ele><time>2026-04-04T09:17:07.999Z</time></trkpt><trkpt lat="42.447032881179005" lon="14.109411564651369"><ele>136.0</ele><time>2026-04-04T09:17:09.999Z</time></trkpt><trkpt lat="42.447055448690804" lon="14.109255319464541"><ele>134.0</ele><time>2026-04-04T09:17:11.999Z</time></trkpt><trkpt lat="42.4470873010344" lon="14.10911171292771"><ele>132.6</ele><time>2026-04-04T09:17:13.999Z</time></trkpt><trkpt lat="42.447128200117405" lon="14.108976565657173"><ele>131.2</ele><time>2026-04-04T09:17:15.999Z</time></trkpt><trkpt lat="42.44711162372441" lon="14.108867316003098"><ele>129.79999999999998</ele><time>2026-04-04T09:17:16.999Z</time></trkpt><trkpt lat="42.44708149342516" lon="14.108781983805233"><ele>128.4</ele><time>2026-04-04T09:17:17.999Z</time></trkpt><trkpt lat="42.44704135729675" lon="14.10866322670876"><ele>127.0</ele><time>2026-04-04T09:17:19.999Z</time></trkpt><trkpt lat="42.446981591909264" lon="14.108528281415571"><ele>127.00000000000001</ele><time>2026-04-04T09:17:21.999Z</time></trkpt><trkpt lat="42.4469850293866" lon="14.108352260616115"><ele>127.0</ele><time>2026-04-04T09:17:23.999Z</time></trkpt><trkpt lat="42.44697669440977" lon="14.108255114476945"><ele>127.0</ele><time>2026-04-04T09:17:24.999Z</time></trkpt><trkpt lat="42.44699651767296" lon="14.108171905707666"><ele>127.0</ele><time>2026-04-04T09:17:25.999Z</time></trkpt><trkpt lat="42.44700133673479" lon="14.108086725498831"><ele>127.00000000000001</ele><time>2026-04-04T09:17:26.999Z</time></trkpt><trkpt lat="42.44700654259059" lon="14.107994708389713"><ele>127.0</ele><time>2026-04-04T09:17:27.999Z</time></trkpt><trkpt lat="42.44701101670438" lon="14.107900369325119"><ele>126.66666666666667</ele><time>2026-04-04T09:17:28.999Z</time></trkpt><trkpt lat="42.447013901989784" lon="14.107809156921027"><ele>126.33333333333334</ele><time>2026-04-04T09:17:29.999Z</time></trkpt><trkpt lat="42.44701803379894" lon="14.10765284469764"><ele>126.0</ele><time>2026-04-04T09:17:31.999Z</time></trkpt><trkpt lat="42.447020491196874" lon="14.107559877856826"><ele>125.66666666666666</ele><time>2026-04-04T09:17:32.999Z</time></trkpt><trkpt lat="42.447020449877115" lon="14.107390853252717"><ele>125.33333333333333</ele><time>2026-04-04T09:17:35Z</time></trkpt><trkpt lat="42.44701472155232" lon="14.107301991958595"><ele>125.0</ele><time>2026-04-04T09:17:36Z</time></trkpt><trkpt lat="42.44700002565968" lon="14.107213450801376"><ele>124.33333333333333</ele><time>2026-04-04T09:17:37Z</time></trkpt><trkpt lat="42.446954828237814" lon="14.107132739242154"><ele>123.66666666666666</ele><time>2026-04-04T09:17:38Z</time></trkpt><trkpt lat="42.446933000645664" lon="14.10704678426717"><ele>123.0</ele><time>2026-04-04T09:17:39Z</time></trkpt><trkpt lat="42.44690861088454" lon="14.106891449167207"><ele>122.33333333333334</ele><time>2026-04-04T09:17:41Z</time></trkpt><trkpt lat="42.446916240811646" lon="14.106751943612576"><ele>121.66666666666667</ele><time>2026-04-04T09:17:43Z</time></trkpt><trkpt lat="42.44693518687929" lon="14.106667832379024"><ele>121.0</ele><time>2026-04-04T09:17:44Z</time></trkpt><trkpt lat="42.44696114723279" lon="14.106580474867366"><ele>121.0</ele><time>2026-04-04T09:17:45Z</time></trkpt><trkpt lat="42.4470113693067" lon="14.106513514860756"><ele>120.99999999999999</ele><time>2026-04-04T09:17:46Z</time></trkpt><trkpt lat="42.447051792554845" lon="14.106433309812312"><ele>121.0</ele><time>2026-04-04T09:17:47Z</time></trkpt><trkpt lat="42.447104374001974" lon="14.106365377733793"><ele>121.0</ele><time>2026-04-04T09:17:48Z</time></trkpt><trkpt lat="42.447154974567965" lon="14.10629276249362"><ele>120.99999999999999</ele><time>2026-04-04T09:17:49Z</time></trkpt><trkpt lat="42.44720319556781" lon="14.10620746136139"><ele>121.0</ele><time>2026-04-04T09:17:50Z</time></trkpt><trkpt lat="42.447238805919596" lon="14.106125937536556"><ele>121.0</ele><time>2026-04-04T09:17:51Z</time></trkpt><trkpt lat="42.44727264740695" lon="14.10604985278971"><ele>118.14285714285714</ele><time>2026-04-04T09:17:52Z</time></trkpt><trkpt lat="42.447303925639716" lon="14.105970115381025"><ele>115.28571428571428</ele><time>2026-04-04T09:17:53Z</time></trkpt><trkpt lat="42.44733148853163" lon="14.105881383593628"><ele>112.42857142857142</ele><time>2026-04-04T09:17:54Z</time></trkpt><trkpt lat="42.44735172350689" lon="14.105790768936831"><ele>109.57142857142857</ele><time>2026-04-04T09:17:55Z</time></trkpt><trkpt lat="42.4473674933529" lon="14.105696582688093"><ele>106.71428571428571</ele><time>2026-04-04T09:17:56Z</time></trkpt><trkpt lat="42.44737117395473" lon="14.105592260371035"><ele>103.85714285714286</ele><time>2026-04-04T09:17:57Z</time></trkpt><trkpt lat="42.4473808943188" lon="14.105492426804243"><ele>101.0</ele><time>2026-04-04T09:17:58Z</time></trkpt><trkpt lat="42.447383614571855" lon="14.105382801281948"><ele>100.4</ele><time>2026-04-04T09:17:59Z</time></trkpt><trkpt lat="42.44738688513479" lon="14.105265757291424"><ele>99.8</ele><time>2026-04-04T09:18:00Z</time></trkpt><trkpt lat="42.447392558503296" lon="14.105148929339283"><ele>99.2</ele><time>2026-04-04T09:18:01Z</time></trkpt><trkpt lat="42.4474041360668" lon="14.10501603659261"><ele>98.60000000000001</ele><time>2026-04-04T09:18:02Z</time></trkpt><trkpt lat="42.447409254666866" lon="14.104882715793094"><ele>98.0</ele><time>2026-04-04T09:18:03Z</time></trkpt><trkpt lat="42.44741082564005" lon="14.104753673845364"><ele>96.99999999999999</ele><time>2026-04-04T09:18:04Z</time></trkpt><trkpt lat="42.44741193451539" lon="14.104624750120124"><ele>96.0</ele><time>2026-04-04T09:18:05Z</time></trkpt><trkpt lat="42.44741040960924" lon="14.104502758671318"><ele>95.0</ele><time>2026-04-04T09:18:06Z</time></trkpt><trkpt lat="42.44740983118321" lon="14.104390597559592"><ele>94.0</ele><time>2026-04-04T09:18:07Z</time></trkpt><trkpt lat="42.44741229845279" lon="14.104284567260589"><ele>93.0</ele><time>2026-04-04T09:18:08Z</time></trkpt><trkpt lat="42.44741071224124" lon="14.10418555311001"><ele>92.0</ele><time>2026-04-04T09:18:09Z</time></trkpt><trkpt lat="42.44740734859193" lon="14.104096194346374"><ele>91.33333333333334</ele><time>2026-04-04T09:18:10Z</time></trkpt><trkpt lat="42.447416482865144" lon="14.104003741963181"><ele>90.66666666666667</ele><time>2026-04-04T09:18:11Z</time></trkpt><trkpt lat="42.447407721414734" lon="14.103867493677047"><ele>90.0</ele><time>2026-04-04T09:18:13Z</time></trkpt><trkpt lat="42.447439466445665" lon="14.103754183968706"><ele>89.33333333333333</ele><time>2026-04-04T09:18:16Z</time></trkpt><trkpt lat="42.44752302554737" lon="14.103675391327835"><ele>88.66666666666666</ele><time>2026-04-04T09:18:18Z</time></trkpt><trkpt lat="42.447588797223936" lon="14.103607049672565"><ele>88.0</ele><time>2026-04-04T09:18:20Z</time></trkpt><trkpt lat="42.44767100548287" lon="14.103471896364312"><ele>88.0</ele><time>2026-04-04T09:18:22Z</time></trkpt><trkpt lat="42.44769953683171" lon="14.10337651347327"><ele>88.0</ele><time>2026-04-04T09:18:23Z</time></trkpt><trkpt lat="42.44772481692155" lon="14.10327098815572"><ele>88.0</ele><time>2026-04-04T09:18:24Z</time></trkpt><trkpt lat="42.447745800018225" lon="14.103174756506506"><ele>88.0</ele><time>2026-04-04T09:18:25Z</time></trkpt><trkpt lat="42.44776980256512" lon="14.103089902636432"><ele>88.0</ele><time>2026-04-04T09:18:26Z</time></trkpt><trkpt lat="42.44784295706242" lon="14.102985172902876"><ele>88.0</ele><time>2026-04-04T09:18:28Z</time></trkpt><trkpt lat="42.44796354706939" lon="14.102963279307177"><ele>90.2</ele><time>2026-04-04T09:18:30Z</time></trkpt><trkpt lat="42.44804975032946" lon="14.102997715953713"><ele>92.4</ele><time>2026-04-04T09:18:31Z</time></trkpt><trkpt lat="42.44815008758268" lon="14.103022501438536"><ele>94.60000000000001</ele><time>2026-04-04T09:18:32Z</time></trkpt><trkpt lat="42.44825827685907" lon="14.10304217343214"><ele>96.80000000000001</ele><time>2026-04-04T09:18:33Z</time></trkpt><trkpt lat="42.448369324210766" lon="14.103055011646088"><ele>99.0</ele><time>2026-04-04T09:18:34Z</time></trkpt><trkpt lat="42.44848245656171" lon="14.103074267652602"><ele>99.0</ele><time>2026-04-04T09:18:35Z</time></trkpt><trkpt lat="42.44859168417833" lon="14.103087147136367"><ele>99.0</ele><time>2026-04-04T09:18:36Z</time></trkpt><trkpt lat="42.448706255916726" lon="14.10310976436288"><ele>99.0</ele><time>2026-04-04T09:18:37Z</time></trkpt><trkpt lat="42.44882183802274" lon="14.103117015094577"><ele>99.0</ele><time>2026-04-04T09:18:38Z</time></trkpt><trkpt lat="42.44893329161408" lon="14.103122211249591"><ele>100.0</ele><time>2026-04-04T09:18:39Z</time></trkpt><trkpt lat="42.4490369703207" lon="14.1031267008882"><ele>101.0</ele><time>2026-04-04T09:18:40Z</time></trkpt><trkpt lat="42.449132583333956" lon="14.103132192626523"><ele>102.0</ele><time>2026-04-04T09:18:41Z</time></trkpt><trkpt lat="42.449224635792966" lon="14.103127475608773"><ele>103.0</ele><time>2026-04-04T09:18:42Z</time></trkpt><trkpt lat="42.44931921881891" lon="14.103110066617448"><ele>104.0</ele><time>2026-04-04T09:18:43Z</time></trkpt><trkpt lat="42.44941494003743" lon="14.103087630277233"><ele>104.0</ele><time>2026-04-04T09:18:44Z</time></trkpt><trkpt lat="42.44950987504704" lon="14.103074302603837"><ele>104.0</ele><time>2026-04-04T09:18:45Z</time></trkpt><trkpt lat="42.44961088313542" lon="14.103051514616734"><ele>104.0</ele><time>2026-04-04T09:18:46Z</time></trkpt><trkpt lat="42.449710292166124" lon="14.103025092466286"><ele>104.0</ele><time>2026-04-04T09:18:47Z</time></trkpt><trkpt lat="42.4498099595115" lon="14.102988504702568"><ele>104.0</ele><time>2026-04-04T09:18:48Z</time></trkpt><trkpt lat="42.449908450808024" lon="14.102962242504361"><ele>106.75</ele><time>2026-04-04T09:18:49Z</time></trkpt><trkpt lat="42.450017182513385" lon="14.10295663200345"><ele>109.5</ele><time>2026-04-04T09:18:50Z</time></trkpt><trkpt lat="42.450135221522345" lon="14.102951385958185"><ele>112.25</ele><time>2026-04-04T09:18:51Z</time></trkpt><trkpt lat="42.45026255812596" lon="14.10292546398908"><ele>115.0</ele><time>2026-04-04T09:18:52Z</time></trkpt><trkpt lat="42.450392884286444" lon="14.102896779621702"><ele>118.0</ele><time>2026-04-04T09:18:53Z</time></trkpt><trkpt lat="42.45052022866578" lon="14.102873625105497"><ele>121.0</ele><time>2026-04-04T09:18:54Z</time></trkpt><trkpt lat="42.450641420800565" lon="14.102851193725265"><ele>124.0</ele><time>2026-04-04T09:18:55Z</time></trkpt><trkpt lat="42.450766766218095" lon="14.1028300081036"><ele>127.0</ele><time>2026-04-04T09:18:56Z</time></trkpt><trkpt lat="42.45087353472909" lon="14.102812300270543"><ele>127.00000000000001</ele><time>2026-04-04T09:18:57Z</time></trkpt><trkpt lat="42.45096102486709" lon="14.102792599904259"><ele>127.0</ele><time>2026-04-04T09:18:58Z</time></trkpt><trkpt lat="42.451028066671576" lon="14.102777741525216"><ele>127.0</ele><time>2026-04-04T09:18:59Z</time></trkpt><trkpt lat="42.45111567694853" lon="14.102768823049258"><ele>127.0</ele><time>2026-04-04T09:19:01Z</time></trkpt><trkpt lat="42.45120433573066" lon="14.102814229205176"><ele>127.00000000000001</ele><time>2026-04-04T09:19:15.999Z</time></trkpt><trkpt lat="42.45127970898463" lon="14.102862719199925"><ele>127.0</ele><time>2026-04-04T09:19:16.999Z</time></trkpt><trkpt lat="42.451392256946896" lon="14.10295119464307"><ele>126.16666666666667</ele><time>2026-04-04T09:19:18.999Z</time></trkpt><trkpt lat="42.45144438268943" lon="14.1030141153237"><ele>125.33333333333334</ele><time>2026-04-04T09:19:19.999Z</time></trkpt><trkpt lat="42.45147640913787" lon="14.103106227373747"><ele>124.5</ele><time>2026-04-04T09:19:20.999Z</time></trkpt><trkpt lat="42.45153262909947" lon="14.10319183680581"><ele>123.66666666666666</ele><time>2026-04-04T09:19:21.999Z</time></trkpt><trkpt lat="42.451581636038455" lon="14.103302448599315"><ele>122.83333333333333</ele><time>2026-04-04T09:19:22.999Z</time></trkpt><trkpt lat="42.45164298962897" lon="14.103412820094462"><ele>122.0</ele><time>2026-04-04T09:19:23.999Z</time></trkpt><trkpt lat="42.45170736348161" lon="14.103512542176857"><ele>122.0</ele><time>2026-04-04T09:19:24.999Z</time></trkpt><trkpt lat="42.451760411018356" lon="14.10362159382187"><ele>121.99999999999999</ele><time>2026-04-04T09:19:25.999Z</time></trkpt><trkpt lat="42.45181251446983" lon="14.10373941894438"><ele>121.99999999999999</ele><time>2026-04-04T09:19:26.999Z</time></trkpt><trkpt lat="42.451841891312164" lon="14.103872939409396"><ele>122.0</ele><time>2026-04-04T09:19:27.999Z</time></trkpt><trkpt lat="42.45187768576566" lon="14.104013026037848"><ele>122.0</ele><time>2026-04-04T09:19:28.999Z</time></trkpt><trkpt lat="42.45191234904592" lon="14.104155869292597"><ele>122.19999999999999</ele><time>2026-04-04T09:19:29.999Z</time></trkpt><trkpt lat="42.4519440005947" lon="14.104298772275108"><ele>122.39999999999999</ele><time>2026-04-04T09:19:30.999Z</time></trkpt><trkpt lat="42.451969306685335" lon="14.10443622171359"><ele>122.60000000000001</ele><time>2026-04-04T09:19:31.999Z</time></trkpt><trkpt lat="42.45198568415812" lon="14.104567519676564"><ele>122.80000000000001</ele><time>2026-04-04T09:19:32.999Z</time></trkpt><trkpt lat="42.45198585066822" lon="14.104699265997535"><ele>123.0</ele><time>2026-04-04T09:19:33.999Z</time></trkpt><trkpt lat="42.451971924017336" lon="14.104832612053567"><ele>124.80000000000001</ele><time>2026-04-04T09:19:34.999Z</time></trkpt><trkpt lat="42.45193390898524" lon="14.10494548710701"><ele>126.60000000000001</ele><time>2026-04-04T09:19:35.999Z</time></trkpt><trkpt lat="42.451877995855156" lon="14.105052182064272"><ele>128.39999999999998</ele><time>2026-04-04T09:19:36.999Z</time></trkpt><trkpt lat="42.45180962541661" lon="14.105165621363259"><ele>130.2</ele><time>2026-04-04T09:19:37.999Z</time></trkpt><trkpt lat="42.4517372933394" lon="14.105272836924964"><ele>132.0</ele><time>2026-04-04T09:19:38.999Z</time></trkpt><trkpt lat="42.451677955478395" lon="14.105362823625677"><ele>132.0</ele><time>2026-04-04T09:19:40.001Z</time></trkpt><trkpt lat="42.45164172957138" lon="14.105446152300583"><ele>132.0</ele><time>2026-04-04T09:19:41.001Z</time></trkpt><trkpt lat="42.45161995028649" lon="14.105534059392093"><ele>132.0</ele><time>2026-04-04T09:19:42.001Z</time></trkpt><trkpt lat="42.45163938430427" lon="14.10562444310834"><ele>132.0</ele><time>2026-04-04T09:19:43.001Z</time></trkpt><trkpt lat="42.45171114198714" lon="14.105708028373087"><ele>132.0</ele><time>2026-04-04T09:19:44.001Z</time></trkpt><trkpt lat="42.4517913799061" lon="14.10579984434143"><ele>132.0</ele><time>2026-04-04T09:19:45.001Z</time></trkpt><trkpt lat="42.45186927326026" lon="14.105910827901955"><ele>133.5</ele><time>2026-04-04T09:19:46.001Z</time></trkpt><trkpt lat="42.45194240037894" lon="14.106018677308002"><ele>135.0</ele><time>2026-04-04T09:19:47.001Z</time></trkpt><trkpt lat="42.452025861992084" lon="14.10611934484013"><ele>136.5</ele><time>2026-04-04T09:19:48.001Z</time></trkpt><trkpt lat="42.45209059694574" lon="14.106250248820412"><ele>138.0</ele><time>2026-04-04T09:19:49.001Z</time></trkpt><trkpt lat="42.452167339798535" lon="14.106377952737118"><ele>138.8</ele><time>2026-04-04T09:19:50.001Z</time></trkpt><trkpt lat="42.45225121021441" lon="14.106486188441474"><ele>139.60000000000002</ele><time>2026-04-04T09:19:51.001Z</time></trkpt><trkpt lat="42.45233650601904" lon="14.106589610227267"><ele>140.39999999999998</ele><time>2026-04-04T09:19:52.001Z</time></trkpt><trkpt lat="42.452416032911835" lon="14.106699705860454"><ele>141.2</ele><time>2026-04-04T09:19:53.001Z</time></trkpt><trkpt lat="42.45248197933903" lon="14.106801597604713"><ele>142.0</ele><time>2026-04-04T09:19:54.001Z</time></trkpt><trkpt lat="42.452546016247084" lon="14.106918403532354"><ele>142.0</ele><time>2026-04-04T09:19:55Z</time></trkpt><trkpt lat="42.45262103633621" lon="14.107036318782091"><ele>142.0</ele><time>2026-04-04T09:19:56Z</time></trkpt><trkpt lat="42.45269793689071" lon="14.107143627561221"><ele>142.0</ele><time>2026-04-04T09:19:57Z</time></trkpt><trkpt lat="42.45277082691411" lon="14.10725431491427"><ele>142.0</ele><time>2026-04-04T09:19:58Z</time></trkpt><trkpt lat="42.45283882328035" lon="14.10736108521804"><ele>142.0</ele><time>2026-04-04T09:19:59Z</time></trkpt><trkpt lat="42.45291561658397" lon="14.10746330065093"><ele>143.2</ele><time>2026-04-04T09:20:00Z</time></trkpt><trkpt lat="42.45299886084616" lon="14.107555136998483"><ele>144.39999999999998</ele><time>2026-04-04T09:20:01Z</time></trkpt><trkpt lat="42.45307963222565" lon="14.107646340502885"><ele>145.60000000000002</ele><time>2026-04-04T09:20:02Z</time></trkpt><trkpt lat="42.453152813044895" lon="14.107724521950226"><ele>146.8</ele><time>2026-04-04T09:20:03Z</time></trkpt><trkpt lat="42.45322758291548" lon="14.107809254503834"><ele>148.0</ele><time>2026-04-04T09:20:04Z</time></trkpt><trkpt lat="42.45330389796603" lon="14.107901331921546"><ele>148.0</ele><time>2026-04-04T09:20:05Z</time></trkpt><trkpt lat="42.45339014224882" lon="14.107993465416236"><ele>148.0</ele><time>2026-04-04T09:20:05.999Z</time></trkpt><trkpt lat="42.45348162719603" lon="14.108075698623315"><ele>148.0</ele><time>2026-04-04T09:20:06.999Z</time></trkpt><trkpt lat="42.45357019177029" lon="14.108155566245532"><ele>148.0</ele><time>2026-04-04T09:20:07.999Z</time></trkpt><trkpt lat="42.453663929058145" lon="14.108226791260531"><ele>148.0</ele><time>2026-04-04T09:20:08.998Z</time></trkpt><trkpt lat="42.45376988921818" lon="14.108295161405296"><ele>149.8</ele><time>2026-04-04T09:20:09.998Z</time></trkpt><trkpt lat="42.453871414552246" lon="14.10834709104019"><ele>151.60000000000002</ele><time>2026-04-04T09:20:10.998Z</time></trkpt><trkpt lat="42.45395778734518" lon="14.108394649127778"><ele>153.39999999999998</ele><time>2026-04-04T09:20:11.998Z</time></trkpt><trkpt lat="42.45403858489066" lon="14.108452484791538"><ele>155.2</ele><time>2026-04-04T09:20:12.998Z</time></trkpt><trkpt lat="42.4541214203938" lon="14.10852393289654"><ele>157.0</ele><time>2026-04-04T09:20:13.998Z</time></trkpt><trkpt lat="42.454198970208104" lon="14.108584592002163"><ele>157.0</ele><time>2026-04-04T09:20:14.998Z</time></trkpt><trkpt lat="42.454267615946435" lon="14.108632645557078"><ele>157.0</ele><time>2026-04-04T09:20:15.998Z</time></trkpt><trkpt lat="42.45434086416717" lon="14.108691672829767"><ele>157.0</ele><time>2026-04-04T09:20:16.998Z</time></trkpt><trkpt lat="42.45441238365092" lon="14.108748960045153"><ele>157.0</ele><time>2026-04-04T09:20:17.998Z</time></trkpt><trkpt lat="42.45451018613183" lon="14.108821880187138"><ele>157.0</ele><time>2026-04-04T09:20:19.998Z</time></trkpt><trkpt lat="42.45457154174941" lon="14.108884152673946"><ele>157.0</ele><time>2026-04-04T09:20:22.998Z</time></trkpt><trkpt lat="42.45460485349594" lon="14.108973584601456"><ele>156.2</ele><time>2026-04-04T09:20:31.997Z</time></trkpt><trkpt lat="42.45466914055013" lon="14.109053695825928"><ele>155.39999999999998</ele><time>2026-04-04T09:20:34.997Z</time></trkpt><trkpt lat="42.45472351262669" lon="14.109124339528995"><ele>154.60000000000002</ele><time>2026-04-04T09:20:36.997Z</time></trkpt><trkpt lat="42.45479938406455" lon="14.109226949435055"><ele>153.8</ele><time>2026-04-04T09:20:38.997Z</time></trkpt><trkpt lat="42.45488720601752" lon="14.109333628844576"><ele>153.0</ele><time>2026-04-04T09:20:40.997Z</time></trkpt><trkpt lat="42.45496142303973" lon="14.1094042864355"><ele>154.33333333333334</ele><time>2026-04-04T09:20:41.997Z</time></trkpt><trkpt lat="42.45501435624367" lon="14.109453062948802"><ele>155.66666666666666</ele><time>2026-04-04T09:20:42.997Z</time></trkpt><trkpt lat="42.45507979285064" lon="14.109500002819209"><ele>157.0</ele><time>2026-04-04T09:20:43.997Z</time></trkpt><trkpt lat="42.45514625676032" lon="14.109540067383632"><ele>158.33333333333331</ele><time>2026-04-04T09:20:44.997Z</time></trkpt><trkpt lat="42.45521182565652" lon="14.109586175418375"><ele>159.66666666666666</ele><time>2026-04-04T09:20:45.997Z</time></trkpt><trkpt lat="42.45531544345628" lon="14.10964391188129"><ele>161.0</ele><time>2026-04-04T09:20:47.997Z</time></trkpt><trkpt lat="42.455385312698894" lon="14.109690620452906"><ele>161.0</ele><time>2026-04-04T09:20:49.997Z</time></trkpt><trkpt lat="42.45574821970059" lon="14.109966508846176"><ele>161.0</ele><time>2026-04-04T09:22:20.999Z</time></trkpt><trkpt lat="42.455849888465195" lon="14.110043830923052"><ele>161.0</ele><time>2026-04-04T09:22:21.999Z</time></trkpt><trkpt lat="42.4559573600029" lon="14.11013891662353"><ele>161.0</ele><time>2026-04-04T09:22:22.999Z</time></trkpt><trkpt lat="42.456072389393796" lon="14.110235634584932"><ele>161.0</ele><time>2026-04-04T09:22:23.999Z</time></trkpt><trkpt lat="42.45619692493716" lon="14.11033125646471"><ele>161.0</ele><time>2026-04-04T09:22:24.999Z</time></trkpt><trkpt lat="42.45633407808451" lon="14.110437851284482"><ele>161.33333333333331</ele><time>2026-04-04T09:22:25.999Z</time></trkpt><trkpt lat="42.45647313469427" lon="14.110547886464051"><ele>161.66666666666666</ele><time>2026-04-04T09:22:26.999Z</time></trkpt><trkpt lat="42.456588968952396" lon="14.110671018793116"><ele>162.0</ele><time>2026-04-04T09:22:27.999Z</time></trkpt><trkpt lat="42.45670463852701" lon="14.110803195043527"><ele>164.0</ele><time>2026-04-04T09:22:28.999Z</time></trkpt><trkpt lat="42.456808962452016" lon="14.110947999682415"><ele>166.0</ele><time>2026-04-04T09:22:29.999Z</time></trkpt><trkpt lat="42.45691340395183" lon="14.111081011717145"><ele>168.0</ele><time>2026-04-04T09:22:30.999Z</time></trkpt><trkpt lat="42.45698559371957" lon="14.111211032662238"><ele>170.0</ele><time>2026-04-04T09:22:31.999Z</time></trkpt><trkpt lat="42.457054924445366" lon="14.111333653300267"><ele>170.0</ele><time>2026-04-04T09:22:32.999Z</time></trkpt><trkpt lat="42.457117160661504" lon="14.111442486581492"><ele>170.0</ele><time>2026-04-04T09:22:33.999Z</time></trkpt><trkpt lat="42.45717881562455" lon="14.111536503912824"><ele>170.0</ele><time>2026-04-04T09:22:34.999Z</time></trkpt><trkpt lat="42.457225592032934" lon="14.11164977356047"><ele>170.0</ele><time>2026-04-04T09:22:35.999Z</time></trkpt><trkpt lat="42.45727124058693" lon="14.11174864345611"><ele>170.0</ele><time>2026-04-04T09:22:36.999Z</time></trkpt><trkpt lat="42.45730417103129" lon="14.111852823111924"><ele>170.0</ele><time>2026-04-04T09:22:37.999Z</time></trkpt><trkpt lat="42.457341399826944" lon="14.111968787643983"><ele>170.0</ele><time>2026-04-04T09:22:38.999Z</time></trkpt><trkpt lat="42.45726523820177" lon="14.112082257822246"><ele>170.0</ele><time>2026-04-04T09:22:39.999Z</time></trkpt><trkpt lat="42.457178084914894" lon="14.112157907803066"><ele>170.0</ele><time>2026-04-04T09:22:40.999Z</time></trkpt><trkpt lat="42.457078990082934" lon="14.11225633047992"><ele>170.0</ele><time>2026-04-04T09:22:41.999Z</time></trkpt><trkpt lat="42.45699119034757" lon="14.112340174124052"><ele>170.83333333333331</ele><time>2026-04-04T09:22:42.999Z</time></trkpt><trkpt lat="42.45691003875165" lon="14.112419912443613"><ele>171.66666666666666</ele><time>2026-04-04T09:22:43.999Z</time></trkpt><trkpt lat="42.45684912530821" lon="14.112487220115888"><ele>172.5</ele><time>2026-04-04T09:22:44.999Z</time></trkpt><trkpt lat="42.45677839654454" lon="14.112574598674833"><ele>173.33333333333334</ele><time>2026-04-04T09:22:46.999Z</time></trkpt><trkpt lat="42.45673754246943" lon="14.112640752814944"><ele>174.16666666666669</ele><time>2026-04-04T09:22:48.999Z</time></trkpt><trkpt lat="42.45669941775403" lon="14.112709045323294"><ele>175.0</ele><time>2026-04-04T09:22:50.999Z</time></trkpt><trkpt lat="42.456776478172024" lon="14.112858859738779"><ele>175.0</ele><time>2026-04-04T09:23:02.999Z</time></trkpt><trkpt lat="42.456835505983236" lon="14.11289098623603"><ele>175.0</ele><time>2026-04-04T09:23:03.999Z</time></trkpt><trkpt lat="42.45692099905954" lon="14.112943619597806"><ele>175.0</ele><time>2026-04-04T09:23:04.999Z</time></trkpt><trkpt lat="42.45701463535571" lon="14.11299056152114"><ele>175.0</ele><time>2026-04-04T09:23:05.999Z</time></trkpt><trkpt lat="42.45712349462771" lon="14.11306074985585"><ele>175.0</ele><time>2026-04-04T09:23:06.999Z</time></trkpt><trkpt lat="42.45723677025448" lon="14.113138051263485"><ele>176.0</ele><time>2026-04-04T09:23:07.999Z</time></trkpt><trkpt lat="42.45733718872731" lon="14.113213464386394"><ele>177.0</ele><time>2026-04-04T09:23:08.999Z</time></trkpt><trkpt lat="42.45742501087113" lon="14.113286256133316"><ele>178.0</ele><time>2026-04-04T09:23:09.999Z</time></trkpt><trkpt lat="42.45750766514144" lon="14.113361242413642"><ele>179.0</ele><time>2026-04-04T09:23:10.999Z</time></trkpt><trkpt lat="42.45758576288919" lon="14.113432768680983"><ele>180.0</ele><time>2026-04-04T09:23:11.999Z</time></trkpt><trkpt lat="42.45766040887332" lon="14.11349869712821"><ele>180.0</ele><time>2026-04-04T09:23:12.999Z</time></trkpt><trkpt lat="42.457733880378775" lon="14.11356237075851"><ele>180.0</ele><time>2026-04-04T09:23:13.999Z</time></trkpt><trkpt lat="42.457799631694286" lon="14.113617524501702"><ele>180.0</ele><time>2026-04-04T09:23:14.999Z</time></trkpt><trkpt lat="42.457868951777336" lon="14.113688555535639"><ele>180.0</ele><time>2026-04-04T09:23:16.999Z</time></trkpt><trkpt lat="42.4579005163901" lon="14.113919093702556"><ele>180.0</ele><time>2026-04-04T09:23:19.998Z</time></trkpt><trkpt lat="42.45790175494362" lon="14.114066924686638"><ele>177.0</ele><time>2026-04-04T09:23:20.998Z</time></trkpt><trkpt lat="42.45791559544111" lon="14.114244926722865"><ele>174.0</ele><time>2026-04-04T09:23:21.998Z</time></trkpt><trkpt lat="42.45792249832587" lon="14.11444139471207"><ele>171.0</ele><time>2026-04-04T09:23:22.998Z</time></trkpt><trkpt lat="42.45788997638683" lon="14.114621542725764"><ele>168.0</ele><time>2026-04-04T09:23:23.998Z</time></trkpt><trkpt lat="42.45784818683103" lon="14.114797068816427"><ele>167.75</ele><time>2026-04-04T09:23:24.998Z</time></trkpt><trkpt lat="42.45782280717134" lon="14.114967213944068"><ele>167.5</ele><time>2026-04-04T09:23:25.998Z</time></trkpt><trkpt lat="42.45778917309831" lon="14.115110579950162"><ele>167.25</ele><time>2026-04-04T09:23:26.998Z</time></trkpt><trkpt lat="42.457783373583005" lon="14.115264725470302"><ele>167.0</ele><time>2026-04-04T09:23:27.998Z</time></trkpt><trkpt lat="42.45781925958695" lon="14.115431006153656"><ele>167.0</ele><time>2026-04-04T09:23:28.998Z</time></trkpt><trkpt lat="42.457894385666485" lon="14.115594368962425"><ele>167.0</ele><time>2026-04-04T09:23:29.998Z</time></trkpt><trkpt lat="42.458009130855196" lon="14.115734634590634"><ele>167.0</ele><time>2026-04-04T09:23:30.998Z</time></trkpt><trkpt lat="42.4581516964113" lon="14.115859638308402"><ele>167.0</ele><time>2026-04-04T09:23:31.998Z</time></trkpt><trkpt lat="42.45830093053829" lon="14.115998488338803"><ele>167.0</ele><time>2026-04-04T09:23:32.998Z</time></trkpt><trkpt lat="42.458438678156654" lon="14.116155249196202"><ele>167.0</ele><time>2026-04-04T09:23:33.998Z</time></trkpt><trkpt lat="42.458575676482624" lon="14.116335089740188"><ele>167.0</ele><time>2026-04-04T09:23:34.998Z</time></trkpt><trkpt lat="42.458710864240615" lon="14.116497142626413"><ele>167.0</ele><time>2026-04-04T09:23:35.998Z</time></trkpt><trkpt lat="42.45885124021666" lon="14.116648526434874"><ele>167.0</ele><time>2026-04-04T09:23:36.998Z</time></trkpt><trkpt lat="42.458992722041806" lon="14.116783894852516"><ele>165.66666666666666</ele><time>2026-04-04T09:23:37.998Z</time></trkpt><trkpt lat="42.45915105331356" lon="14.116921067517454"><ele>164.33333333333334</ele><time>2026-04-04T09:23:38.998Z</time></trkpt><trkpt lat="42.459310904267404" lon="14.117038352962169"><ele>163.0</ele><time>2026-04-04T09:23:39.998Z</time></trkpt><trkpt lat="42.45946727152907" lon="14.117165893724884"><ele>162.33333333333334</ele><time>2026-04-04T09:23:40.998Z</time></trkpt><trkpt lat="42.45962958445237" lon="14.117296033608856"><ele>161.66666666666666</ele><time>2026-04-04T09:23:41.998Z</time></trkpt><trkpt lat="42.45979113059677" lon="14.117424225075899"><ele>161.0</ele><time>2026-04-04T09:23:42.998Z</time></trkpt><trkpt lat="42.45994757708588" lon="14.117547648505834"><ele>160.66666666666666</ele><time>2026-04-04T09:23:43.998Z</time></trkpt><trkpt lat="42.46009260644155" lon="14.117664748755868"><ele>160.33333333333334</ele><time>2026-04-04T09:23:44.998Z</time></trkpt><trkpt lat="42.4602246630792" lon="14.117772178689505"><ele>160.0</ele><time>2026-04-04T09:23:45.998Z</time></trkpt><trkpt lat="42.46033433173784" lon="14.117874003109948"><ele>160.0</ele><time>2026-04-04T09:23:46.998Z</time></trkpt><trkpt lat="42.4604288290362" lon="14.11799332167813"><ele>160.0</ele><time>2026-04-04T09:23:47.998Z</time></trkpt><trkpt lat="42.46047263462531" lon="14.11815798982172"><ele>160.0</ele><time>2026-04-04T09:23:48.998Z</time></trkpt><trkpt lat="42.46048834903102" lon="14.118324440791271"><ele>160.0</ele><time>2026-04-04T09:23:49.998Z</time></trkpt><trkpt lat="42.46048326799602" lon="14.118518131242862"><ele>160.0</ele><time>2026-04-04T09:23:50.998Z</time></trkpt><trkpt lat="42.460447228785675" lon="14.118712036715754"><ele>160.0</ele><time>2026-04-04T09:23:51.999Z</time></trkpt><trkpt lat="42.46039677649313" lon="14.118903801282384"><ele>160.0</ele><time>2026-04-04T09:23:52.999Z</time></trkpt><trkpt lat="42.460345195642134" lon="14.11906928887911"><ele>160.0</ele><time>2026-04-04T09:23:53.999Z</time></trkpt><trkpt lat="42.46029769011441" lon="14.11920838143355"><ele>160.0</ele><time>2026-04-04T09:23:54.999Z</time></trkpt><trkpt lat="42.46025124064468" lon="14.119323759822773"><ele>160.0</ele><time>2026-04-04T09:23:55.999Z</time></trkpt><trkpt lat="42.46020630490826" lon="14.11942467264219"><ele>160.0</ele><time>2026-04-04T09:23:56.999Z</time></trkpt><trkpt lat="42.46017562192574" lon="14.119532381817738"><ele>160.0</ele><time>2026-04-04T09:23:57.999Z</time></trkpt><trkpt lat="42.460123440138595" lon="14.119609095763419"><ele>160.0</ele><time>2026-04-04T09:23:58.999Z</time></trkpt><trkpt lat="42.46006054419371" lon="14.119669127351685"><ele>160.0</ele><time>2026-04-04T09:23:59.999Z</time></trkpt><trkpt lat="42.45998083665712" lon="14.11970532812438"><ele>160.0</ele><time>2026-04-04T09:24:00.999Z</time></trkpt><trkpt lat="42.45990209876293" lon="14.11976062580298"><ele>160.0</ele><time>2026-04-04T09:24:01.999Z</time></trkpt><trkpt lat="42.45985027304813" lon="14.119861369092241"><ele>160.0</ele><time>2026-04-04T09:24:02.999Z</time></trkpt><trkpt lat="42.45982749577784" lon="14.119989132375569"><ele>160.0</ele><time>2026-04-04T09:24:03.999Z</time></trkpt><trkpt lat="42.45982871183165" lon="14.120113307259714"><ele>160.0</ele><time>2026-04-04T09:24:04.999Z</time></trkpt><trkpt lat="42.4597139943622" lon="14.120171465125017"><ele>160.0</ele><time>2026-04-04T09:24:05.999Z</time></trkpt><trkpt lat="42.45962455446674" lon="14.120262942447475"><ele>160.0</ele><time>2026-04-04T09:24:06.999Z</time></trkpt><trkpt lat="42.459541745238" lon="14.120347633887494"><ele>160.0</ele><time>2026-04-04T09:24:07.999Z</time></trkpt><trkpt lat="42.459456006588105" lon="14.120432951800584"><ele>160.0</ele><time>2026-04-04T09:24:08.999Z</time></trkpt><trkpt lat="42.45935615130011" lon="14.120533402568876"><ele>160.0</ele><time>2026-04-04T09:24:09.999Z</time></trkpt><trkpt lat="42.45925976533454" lon="14.12063175908885"><ele>160.0</ele><time>2026-04-04T09:24:10.999Z</time></trkpt><trkpt lat="42.459170138108625" lon="14.120728554516367"><ele>160.0</ele><time>2026-04-04T09:24:11.999Z</time></trkpt><trkpt lat="42.45907918495869" lon="14.120826782002462"><ele>160.0</ele><time>2026-04-04T09:24:12.999Z</time></trkpt><trkpt lat="42.458985360453354" lon="14.120928110451219"><ele>160.0</ele><time>2026-04-04T09:24:13.999Z</time></trkpt><trkpt lat="42.458891586186255" lon="14.121028811128754"><ele>160.0</ele><time>2026-04-04T09:24:14.999Z</time></trkpt><trkpt lat="42.45879979032521" lon="14.121126888549613"><ele>160.0</ele><time>2026-04-04T09:24:15.999Z</time></trkpt><trkpt lat="42.4587082171365" lon="14.121222168565442"><ele>160.0</ele><time>2026-04-04T09:24:16.999Z</time></trkpt><trkpt lat="42.45861431726766" lon="14.121318548673491"><ele>160.0</ele><time>2026-04-04T09:24:17.999Z</time></trkpt><trkpt lat="42.458522358668894" lon="14.121412818888293"><ele>160.0</ele><time>2026-04-04T09:24:18.999Z</time></trkpt><trkpt lat="42.45843601337388" lon="14.12150254759862"><ele>160.0</ele><time>2026-04-04T09:24:19.999Z</time></trkpt><trkpt lat="42.45835244686014" lon="14.121592280609567"><ele>160.0</ele><time>2026-04-04T09:24:20.999Z</time></trkpt><trkpt lat="42.45826963440778" lon="14.121685002622687"><ele>160.0</ele><time>2026-04-04T09:24:21.999Z</time></trkpt><trkpt lat="42.45819374870075" lon="14.121799909567452"><ele>160.0</ele><time>2026-04-04T09:24:22.999Z</time></trkpt><trkpt lat="42.4581058368593" lon="14.121903416756492"><ele>160.0</ele><time>2026-04-04T09:24:23.999Z</time></trkpt><trkpt lat="42.45802593954747" lon="14.122012551007215"><ele>160.0</ele><time>2026-04-04T09:24:24.999Z</time></trkpt><trkpt lat="42.45795534731928" lon="14.122123401581055"><ele>160.0</ele><time>2026-04-04T09:24:25.999Z</time></trkpt><trkpt lat="42.45788751588993" lon="14.122249860411564"><ele>160.0</ele><time>2026-04-04T09:24:26.999Z</time></trkpt><trkpt lat="42.45782891676845" lon="14.122391353748693"><ele>160.4</ele><time>2026-04-04T09:24:27.999Z</time></trkpt><trkpt lat="42.457784752423144" lon="14.122547488430596"><ele>160.8</ele><time>2026-04-04T09:24:28.999Z</time></trkpt><trkpt lat="42.45772906726694" lon="14.122684363880127"><ele>161.2</ele><time>2026-04-04T09:24:29.999Z</time></trkpt><trkpt lat="42.45769013377285" lon="14.122810460610623"><ele>161.6</ele><time>2026-04-04T09:24:30.999Z</time></trkpt><trkpt lat="42.457652860459476" lon="14.122937336533937"><ele>162.0</ele><time>2026-04-04T09:24:31.999Z</time></trkpt><trkpt lat="42.45761388092355" lon="14.123068068568664"><ele>162.0</ele><time>2026-04-04T09:24:32.999Z</time></trkpt><trkpt lat="42.45757352752328" lon="14.123202241860605"><ele>162.0</ele><time>2026-04-04T09:24:33.999Z</time></trkpt><trkpt lat="42.45753063499896" lon="14.123344857827197"><ele>162.0</ele><time>2026-04-04T09:24:34.999Z</time></trkpt><trkpt lat="42.45749137893391" lon="14.123475382597691"><ele>162.0</ele><time>2026-04-04T09:24:35.999Z</time></trkpt><trkpt lat="42.457454849857484" lon="14.12359684035443"><ele>162.0</ele><time>2026-04-04T09:24:36.999Z</time></trkpt><trkpt lat="42.457424552981095" lon="14.123697573414033"><ele>162.39999999999998</ele><time>2026-04-04T09:24:37.999Z</time></trkpt><trkpt lat="42.45740087495056" lon="14.123779393472539"><ele>162.79999999999998</ele><time>2026-04-04T09:24:38.999Z</time></trkpt><trkpt lat="42.45736408484454" lon="14.123905505857854"><ele>163.2</ele><time>2026-04-04T09:24:40.999Z</time></trkpt><trkpt lat="42.45733743080802" lon="14.123997000155383"><ele>163.6</ele><time>2026-04-04T09:24:42.999Z</time></trkpt><trkpt lat="42.457302780501145" lon="14.124172751452882"><ele>164.0</ele><time>2026-04-04T09:24:45.999Z</time></trkpt><trkpt lat="42.45725613437218" lon="14.124305404106876"><ele>165.75</ele><time>2026-04-04T09:24:46.999Z</time></trkpt><trkpt lat="42.457206458905524" lon="14.124443302466888"><ele>167.5</ele><time>2026-04-04T09:24:47.999Z</time></trkpt><trkpt lat="42.457163925485396" lon="14.124606059065108"><ele>169.25</ele><time>2026-04-04T09:24:48.999Z</time></trkpt><trkpt lat="42.457139003801096" lon="14.124782188627146"><ele>171.0</ele><time>2026-04-04T09:24:49.999Z</time></trkpt><trkpt lat="42.45713656024476" lon="14.12495109316907"><ele>171.75</ele><time>2026-04-04T09:24:50.999Z</time></trkpt><trkpt lat="42.45714947539664" lon="14.125128992841317"><ele>172.5</ele><time>2026-04-04T09:24:51.999Z</time></trkpt><trkpt lat="42.457182717432886" lon="14.12533346357828"><ele>173.25</ele><time>2026-04-04T09:24:52.999Z</time></trkpt><trkpt lat="42.45723382280112" lon="14.125543433263953"><ele>174.0</ele><time>2026-04-04T09:24:53.999Z</time></trkpt><trkpt lat="42.457291923198" lon="14.125735744546075"><ele>171.66666666666666</ele><time>2026-04-04T09:24:54.999Z</time></trkpt><trkpt lat="42.457356829065795" lon="14.125917837430489"><ele>169.33333333333331</ele><time>2026-04-04T09:24:55.999Z</time></trkpt><trkpt lat="42.457433043879234" lon="14.126103782468942"><ele>167.0</ele><time>2026-04-04T09:24:56.999Z</time></trkpt><trkpt lat="42.4575333710465" lon="14.126297254856818"><ele>167.0</ele><time>2026-04-04T09:24:57.999Z</time></trkpt><trkpt lat="42.45764037134016" lon="14.126497107124258"><ele>167.0</ele><time>2026-04-04T09:24:58.999Z</time></trkpt><trkpt lat="42.457734517088824" lon="14.126679047682117"><ele>167.0</ele><time>2026-04-04T09:24:59.999Z</time></trkpt><trkpt lat="42.45782009482596" lon="14.126850400139526"><ele>168.0</ele><time>2026-04-04T09:25:00.999Z</time></trkpt><trkpt lat="42.457909987171554" lon="14.127013029258503"><ele>169.0</ele><time>2026-04-04T09:25:01.999Z</time></trkpt><trkpt lat="42.458017100729286" lon="14.127147245390091"><ele>170.0</ele><time>2026-04-04T09:25:02.999Z</time></trkpt><trkpt lat="42.45813815350716" lon="14.127260390759028"><ele>171.0</ele><time>2026-04-04T09:25:03.999Z</time></trkpt><trkpt lat="42.45824729999716" lon="14.12737139437105"><ele>168.33333333333334</ele><time>2026-04-04T09:25:04.999Z</time></trkpt><trkpt lat="42.45833716304846" lon="14.127517496079923"><ele>165.66666666666669</ele><time>2026-04-04T09:25:05.999Z</time></trkpt><trkpt lat="42.45840630229924" lon="14.127700203126151"><ele>163.0</ele><time>2026-04-04T09:25:06.999Z</time></trkpt><trkpt lat="42.458475881815225" lon="14.127897499795496"><ele>163.0</ele><time>2026-04-04T09:25:07.999Z</time></trkpt><trkpt lat="42.45854716970385" lon="14.12808926992813"><ele>163.0</ele><time>2026-04-04T09:25:08.999Z</time></trkpt><trkpt lat="42.45861246495731" lon="14.128272713482238"><ele>163.0</ele><time>2026-04-04T09:25:09.999Z</time></trkpt><trkpt lat="42.45866589377916" lon="14.128456281649054"><ele>162.0</ele><time>2026-04-04T09:25:10.999Z</time></trkpt><trkpt lat="42.458698947337794" lon="14.128646242489566"><ele>161.0</ele><time>2026-04-04T09:25:11.999Z</time></trkpt><trkpt lat="42.458701120963944" lon="14.128856497565396"><ele>160.0</ele><time>2026-04-04T09:25:12.999Z</time></trkpt><trkpt lat="42.45868209231986" lon="14.129068745218284"><ele>160.0</ele><time>2026-04-04T09:25:13.999Z</time></trkpt><trkpt lat="42.458621210066156" lon="14.129268571814313"><ele>160.0</ele><time>2026-04-04T09:25:14.999Z</time></trkpt><trkpt lat="42.45856150222136" lon="14.129491183481825"><ele>160.0</ele><time>2026-04-04T09:25:15.999Z</time></trkpt><trkpt lat="42.45845301976929" lon="14.12969391421255"><ele>160.0</ele><time>2026-04-04T09:25:16.999Z</time></trkpt><trkpt lat="42.458347098692556" lon="14.129873264715378"><ele>160.0</ele><time>2026-04-04T09:25:17.999Z</time></trkpt><trkpt lat="42.45822713498659" lon="14.130036796912073"><ele>160.0</ele><time>2026-04-04T09:25:18.999Z</time></trkpt><trkpt lat="42.45808553683875" lon="14.130203149173136"><ele>160.33333333333334</ele><time>2026-04-04T09:25:19.999Z</time></trkpt><trkpt lat="42.45792772701549" lon="14.130368047619406"><ele>160.66666666666666</ele><time>2026-04-04T09:25:20.999Z</time></trkpt><trkpt lat="42.4577713154828" lon="14.130529129692528"><ele>161.0</ele><time>2026-04-04T09:25:21.998Z</time></trkpt><trkpt lat="42.457637563490415" lon="14.130707462841468"><ele>160.66666666666666</ele><time>2026-04-04T09:25:22.998Z</time></trkpt><trkpt lat="42.45753983628512" lon="14.130916315001745"><ele>160.33333333333334</ele><time>2026-04-04T09:25:23.998Z</time></trkpt><trkpt lat="42.45745367640931" lon="14.13110583962981"><ele>160.0</ele><time>2026-04-04T09:25:24.998Z</time></trkpt><trkpt lat="42.457366158595" lon="14.13128713017409"><ele>160.0</ele><time>2026-04-04T09:25:25.998Z</time></trkpt><trkpt lat="42.457279577758044" lon="14.131486002121246"><ele>160.0</ele><time>2026-04-04T09:25:26.998Z</time></trkpt><trkpt lat="42.457192784055316" lon="14.13168811345707"><ele>160.0</ele><time>2026-04-04T09:25:27.998Z</time></trkpt><trkpt lat="42.45710396715182" lon="14.131903612250158"><ele>162.0</ele><time>2026-04-04T09:25:28.998Z</time></trkpt><trkpt lat="42.457012924558526" lon="14.132124511462408"><ele>164.0</ele><time>2026-04-04T09:25:29.998Z</time></trkpt><trkpt lat="42.45692130593856" lon="14.132353149944471"><ele>166.0</ele><time>2026-04-04T09:25:30.998Z</time></trkpt><trkpt lat="42.45686540387521" lon="14.132607160264842"><ele>166.0</ele><time>2026-04-04T09:25:31.998Z</time></trkpt><trkpt lat="42.4568115895889" lon="14.132864066462078"><ele>166.0</ele><time>2026-04-04T09:25:32.998Z</time></trkpt><trkpt lat="42.45677669713069" lon="14.133110629810258"><ele>166.0</ele><time>2026-04-04T09:25:33.998Z</time></trkpt><trkpt lat="42.4567563413138" lon="14.133352693590883"><ele>166.66666666666669</ele><time>2026-04-04T09:25:34.998Z</time></trkpt><trkpt lat="42.45671447218592" lon="14.133573344561082"><ele>167.33333333333334</ele><time>2026-04-04T09:25:35.998Z</time></trkpt><trkpt lat="42.45667213448932" lon="14.133777584064456"><ele>168.0</ele><time>2026-04-04T09:25:36.998Z</time></trkpt><trkpt lat="42.45662638790539" lon="14.13396297952277"><ele>168.0</ele><time>2026-04-04T09:25:37.998Z</time></trkpt><trkpt lat="42.456585001628405" lon="14.13411190008874"><ele>168.0</ele><time>2026-04-04T09:25:38.998Z</time></trkpt><trkpt lat="42.456544882124405" lon="14.134246811946282"><ele>168.0</ele><time>2026-04-04T09:25:39.998Z</time></trkpt><trkpt lat="42.456506722760444" lon="14.134368284980981"><ele>168.0</ele><time>2026-04-04T09:25:40.998Z</time></trkpt><trkpt lat="42.45648374888431" lon="14.134498565131029"><ele>168.0</ele><time>2026-04-04T09:25:41.998Z</time></trkpt><trkpt lat="42.45643567733712" lon="14.134594743402666"><ele>168.0</ele><time>2026-04-04T09:25:42.998Z</time></trkpt><trkpt lat="42.45641073062627" lon="14.134707381782102"><ele>168.0</ele><time>2026-04-04T09:25:43.998Z</time></trkpt><trkpt lat="42.45636757309457" lon="14.134810048416899"><ele>168.0</ele><time>2026-04-04T09:25:44.998Z</time></trkpt><trkpt lat="42.456326054775175" lon="14.134927339828094"><ele>168.0</ele><time>2026-04-04T09:25:45.998Z</time></trkpt><trkpt lat="42.45629358295458" lon="14.135038889441864"><ele>168.0</ele><time>2026-04-04T09:25:46.998Z</time></trkpt><trkpt lat="42.45626997579811" lon="14.135136792060672"><ele>168.0</ele><time>2026-04-04T09:25:47.998Z</time></trkpt><trkpt lat="42.45624967469554" lon="14.135220344113142"><ele>170.4</ele><time>2026-04-04T09:25:48.998Z</time></trkpt><trkpt lat="42.456222853062805" lon="14.13529983239974"><ele>172.8</ele><time>2026-04-04T09:25:49.998Z</time></trkpt><trkpt lat="42.45617601899393" lon="14.13544620480771"><ele>175.2</ele><time>2026-04-04T09:25:51.998Z</time></trkpt><trkpt lat="42.456139417473295" lon="14.13557523097735"><ele>177.6</ele><time>2026-04-04T09:25:53.998Z</time></trkpt><trkpt lat="42.45607528085285" lon="14.135672401125271"><ele>180.0</ele><time>2026-04-04T09:25:55.998Z</time></trkpt><trkpt lat="42.456007974263656" lon="14.135793417681647"><ele>180.0</ele><time>2026-04-04T09:25:57.999Z</time></trkpt><trkpt lat="42.45595206830761" lon="14.135874563309265"><ele>180.0</ele><time>2026-04-04T09:25:58.999Z</time></trkpt><trkpt lat="42.45587607380026" lon="14.135951432878398"><ele>180.0</ele><time>2026-04-04T09:25:59.999Z</time></trkpt><trkpt lat="42.45577812966287" lon="14.136027052571452"><ele>180.0</ele><time>2026-04-04T09:26:00.999Z</time></trkpt><trkpt lat="42.45566961333563" lon="14.136103221806506"><ele>180.0</ele><time>2026-04-04T09:26:01.999Z</time></trkpt><trkpt lat="42.455575936921804" lon="14.136177993800453"><ele>180.0</ele><time>2026-04-04T09:26:02.999Z</time></trkpt><trkpt lat="42.45548674650409" lon="14.136228379902276"><ele>180.0</ele><time>2026-04-04T09:26:03.999Z</time></trkpt><trkpt lat="42.45540559932915" lon="14.13629401343317"><ele>180.0</ele><time>2026-04-04T09:26:04.999Z</time></trkpt><trkpt lat="42.45530428302095" lon="14.136319768178621"><ele>180.0</ele><time>2026-04-04T09:26:05.999Z</time></trkpt><trkpt lat="42.455213912819694" lon="14.136350621454717"><ele>180.0</ele><time>2026-04-04T09:26:06.999Z</time></trkpt><trkpt lat="42.455146211715025" lon="14.136375218316303"><ele>180.6</ele><time>2026-04-04T09:26:07.999Z</time></trkpt><trkpt lat="42.45503198435835" lon="14.136465376484857"><ele>181.2</ele><time>2026-04-04T09:26:09.999Z</time></trkpt><trkpt lat="42.45499287616168" lon="14.136558991694294"><ele>181.8</ele><time>2026-04-04T09:26:10.999Z</time></trkpt><trkpt lat="42.4549791119387" lon="14.136689835233657"><ele>182.4</ele><time>2026-04-04T09:26:11.999Z</time></trkpt><trkpt lat="42.454999082753424" lon="14.136857350094141"><ele>183.0</ele><time>2026-04-04T09:26:12.999Z</time></trkpt><trkpt lat="42.45501475977606" lon="14.137040884514882"><ele>181.0</ele><time>2026-04-04T09:26:13.999Z</time></trkpt><trkpt lat="42.455011693456235" lon="14.137188329798892"><ele>179.0</ele><time>2026-04-04T09:26:14.999Z</time></trkpt><trkpt lat="42.455017185291" lon="14.137300560229171"><ele>177.0</ele><time>2026-04-04T09:26:15.999Z</time></trkpt><trkpt lat="42.455020634661906" lon="14.13741365145761"><ele>175.0</ele><time>2026-04-04T09:26:16.999Z</time></trkpt><trkpt lat="42.45502391295598" lon="14.137538424016356"><ele>173.0</ele><time>2026-04-04T09:26:17.999Z</time></trkpt><trkpt lat="42.455026189029596" lon="14.137679777866005"><ele>173.0</ele><time>2026-04-04T09:26:18.999Z</time></trkpt><trkpt lat="42.45502166298217" lon="14.137848348934968"><ele>173.0</ele><time>2026-04-04T09:26:19.999Z</time></trkpt><trkpt lat="42.45496463503552" lon="14.137988921307928"><ele>173.0</ele><time>2026-04-04T09:26:20.999Z</time></trkpt><trkpt lat="42.45489965384346" lon="14.138120513398267"><ele>173.0</ele><time>2026-04-04T09:26:21.999Z</time></trkpt><trkpt lat="42.45484401985373" lon="14.138259837426403"><ele>173.0</ele><time>2026-04-04T09:26:22.999Z</time></trkpt><trkpt lat="42.454775902325345" lon="14.138370565066632"><ele>173.0</ele><time>2026-04-04T09:26:23.999Z</time></trkpt><trkpt lat="42.454710440576335" lon="14.138470568613307"><ele>173.0</ele><time>2026-04-04T09:26:24.999Z</time></trkpt><trkpt lat="42.45466244552218" lon="14.138553908061676"><ele>173.0</ele><time>2026-04-04T09:26:25.999Z</time></trkpt><trkpt lat="42.454590319953" lon="14.138672389453511"><ele>173.0</ele><time>2026-04-04T09:26:27.999Z</time></trkpt><trkpt lat="42.45455025956777" lon="14.138739042109727"><ele>173.16666666666666</ele><time>2026-04-04T09:26:28.999Z</time></trkpt><trkpt lat="42.45449933231421" lon="14.138824248282358"><ele>173.33333333333331</ele><time>2026-04-04T09:26:29.999Z</time></trkpt><trkpt lat="42.45444101733969" lon="14.138922188744983"><ele>173.5</ele><time>2026-04-04T09:26:30.999Z</time></trkpt><trkpt lat="42.454391242233484" lon="14.139020779551611"><ele>173.66666666666666</ele><time>2026-04-04T09:26:31.999Z</time></trkpt><trkpt lat="42.45434122134234" lon="14.139117844380316"><ele>173.83333333333334</ele><time>2026-04-04T09:26:32.999Z</time></trkpt><trkpt lat="42.45428971512063" lon="14.139208409872206"><ele>174.0</ele><time>2026-04-04T09:26:33.999Z</time></trkpt><trkpt lat="42.45423515303907" lon="14.139301845786175"><ele>174.0</ele><time>2026-04-04T09:26:34.998Z</time></trkpt><trkpt lat="42.454185403802576" lon="14.139398908446983"><ele>174.0</ele><time>2026-04-04T09:26:35.998Z</time></trkpt><trkpt lat="42.4541308265332" lon="14.139508485119098"><ele>174.0</ele><time>2026-04-04T09:26:36.998Z</time></trkpt><trkpt lat="42.45407727379175" lon="14.139617382745373"><ele>174.0</ele><time>2026-04-04T09:26:37.998Z</time></trkpt><trkpt lat="42.4540214651465" lon="14.139725654118708"><ele>174.0</ele><time>2026-04-04T09:26:38.998Z</time></trkpt><trkpt lat="42.45397149682876" lon="14.139826666007723"><ele>173.66666666666666</ele><time>2026-04-04T09:26:39.998Z</time></trkpt><trkpt lat="42.45392765427867" lon="14.139920970447315"><ele>173.33333333333334</ele><time>2026-04-04T09:26:40.998Z</time></trkpt><trkpt lat="42.45388305364855" lon="14.140009625899586"><ele>173.0</ele><time>2026-04-04T09:26:41.998Z</time></trkpt><trkpt lat="42.45382592399601" lon="14.140095730829422"><ele>172.66666666666669</ele><time>2026-04-04T09:26:42.998Z</time></trkpt><trkpt lat="42.45374196270129" lon="14.140135469439592"><ele>172.33333333333334</ele><time>2026-04-04T09:26:43.998Z</time></trkpt><trkpt lat="42.45366130983909" lon="14.140214009077539"><ele>172.0</ele><time>2026-04-04T09:26:44.998Z</time></trkpt><trkpt lat="42.453569990843384" lon="14.14026226653886"><ele>171.5</ele><time>2026-04-04T09:26:45.998Z</time></trkpt><trkpt lat="42.4534888090212" lon="14.140308419658846"><ele>171.0</ele><time>2026-04-04T09:26:46.998Z</time></trkpt><trkpt lat="42.45341916624527" lon="14.140347948805854"><ele>170.5</ele><time>2026-04-04T09:26:47.998Z</time></trkpt><trkpt lat="42.45334332656528" lon="14.140391547335042"><ele>170.0</ele><time>2026-04-04T09:26:48.998Z</time></trkpt><trkpt lat="42.45327212104386" lon="14.14043710151138"><ele>169.5</ele><time>2026-04-04T09:26:49.998Z</time></trkpt><trkpt lat="42.453212552870724" lon="14.140474167631853"><ele>169.0</ele><time>2026-04-04T09:26:50.998Z</time></trkpt><trkpt lat="42.45314853911873" lon="14.140502409306453"><ele>169.0</ele><time>2026-04-04T09:26:51.998Z</time></trkpt><trkpt lat="42.45304469371961" lon="14.140535193290512"><ele>169.0</ele><time>2026-04-04T09:26:52.998Z</time></trkpt><trkpt lat="42.45293002813175" lon="14.14058577251722"><ele>169.0</ele><time>2026-04-04T09:26:53.998Z</time></trkpt><trkpt lat="42.4527946260012" lon="14.14062974160693"><ele>169.0</ele><time>2026-04-04T09:26:54.998Z</time></trkpt><trkpt lat="42.45265720432991" lon="14.1407046626703"><ele>163.0</ele><time>2026-04-04T09:26:55.998Z</time></trkpt><trkpt lat="42.45250073315206" lon="14.140739295436445"><ele>157.0</ele><time>2026-04-04T09:26:56.998Z</time></trkpt><trkpt lat="42.452354530849995" lon="14.1407689995263"><ele>151.0</ele><time>2026-04-04T09:26:57.998Z</time></trkpt><trkpt lat="42.45217658179306" lon="14.14082386124765"><ele>151.33333333333334</ele><time>2026-04-04T09:26:58.998Z</time></trkpt><trkpt lat="42.45198606992095" lon="14.140844396210262"><ele>151.66666666666666</ele><time>2026-04-04T09:26:59.998Z</time></trkpt><trkpt lat="42.45178867264102" lon="14.14085672846042"><ele>152.0</ele><time>2026-04-04T09:27:00.998Z</time></trkpt><trkpt lat="42.45158781896742" lon="14.140904714581374"><ele>152.0</ele><time>2026-04-04T09:27:01.998Z</time></trkpt><trkpt lat="42.45140131669108" lon="14.14094864373634"><ele>152.0</ele><time>2026-04-04T09:27:02.998Z</time></trkpt><trkpt lat="42.45121756274771" lon="14.140969646533224"><ele>152.0</ele><time>2026-04-04T09:27:03.998Z</time></trkpt><trkpt lat="42.45103331151608" lon="14.141031429192937"><ele>151.33333333333331</ele><time>2026-04-04T09:27:04.998Z</time></trkpt><trkpt lat="42.450853230479964" lon="14.14109499958864"><ele>150.66666666666666</ele><time>2026-04-04T09:27:05.998Z</time></trkpt><trkpt lat="42.45068407987939" lon="14.141150358231945"><ele>150.0</ele><time>2026-04-04T09:27:06.998Z</time></trkpt><trkpt lat="42.4505198235944" lon="14.141207432500435"><ele>148.33333333333334</ele><time>2026-04-04T09:27:07.998Z</time></trkpt><trkpt lat="42.45036281868778" lon="14.141261349105104"><ele>146.66666666666669</ele><time>2026-04-04T09:27:08.998Z</time></trkpt><trkpt lat="42.45020838812902" lon="14.141315680078053"><ele>145.0</ele><time>2026-04-04T09:27:09.998Z</time></trkpt><trkpt lat="42.45005847844856" lon="14.141380045285308"><ele>145.0</ele><time>2026-04-04T09:27:10.998Z</time></trkpt><trkpt lat="42.44991691058662" lon="14.141458019492282"><ele>145.0</ele><time>2026-04-04T09:27:11.998Z</time></trkpt><trkpt lat="42.4497956803566" lon="14.141567495709335"><ele>145.0</ele><time>2026-04-04T09:27:12.998Z</time></trkpt><trkpt lat="42.44968403540995" lon="14.141661245504306"><ele>145.0</ele><time>2026-04-04T09:27:13.998Z</time></trkpt><trkpt lat="42.449585779355665" lon="14.14175190995513"><ele>145.75</ele><time>2026-04-04T09:27:14.998Z</time></trkpt><trkpt lat="42.449500986062525" lon="14.141830756766733"><ele>146.5</ele><time>2026-04-04T09:27:15.998Z</time></trkpt><trkpt lat="42.44949867372652" lon="14.142006433171144"><ele>147.25</ele><time>2026-04-04T09:27:16.998Z</time></trkpt><trkpt lat="42.44951217089397" lon="14.142158608072638"><ele>148.0</ele><time>2026-04-04T09:27:17.998Z</time></trkpt><trkpt lat="42.449563921575475" lon="14.14232103313536"><ele>144.33333333333334</ele><time>2026-04-04T09:27:18.998Z</time></trkpt><trkpt lat="42.44964997000649" lon="14.142499275797151"><ele>140.66666666666666</ele><time>2026-04-04T09:27:19.998Z</time></trkpt><trkpt lat="42.44973305054493" lon="14.142686027412168"><ele>137.0</ele><time>2026-04-04T09:27:20.998Z</time></trkpt><trkpt lat="42.4498048221638" lon="14.142909624338571"><ele>137.0</ele><time>2026-04-04T09:27:21.998Z</time></trkpt><trkpt lat="42.44986043585319" lon="14.143127715350527"><ele>137.0</ele><time>2026-04-04T09:27:22.998Z</time></trkpt><trkpt lat="42.44987676447073" lon="14.143368520581863"><ele>137.0</ele><time>2026-04-04T09:27:23.998Z</time></trkpt><trkpt lat="42.44990802432285" lon="14.143624185303027"><ele>137.33333333333331</ele><time>2026-04-04T09:27:24.998Z</time></trkpt><trkpt lat="42.449914472267835" lon="14.143873516841893"><ele>137.66666666666666</ele><time>2026-04-04T09:27:25.998Z</time></trkpt><trkpt lat="42.44992715655476" lon="14.144102434792753"><ele>138.0</ele><time>2026-04-04T09:27:26.998Z</time></trkpt><trkpt lat="42.44991966870014" lon="14.144327294029875"><ele>137.33333333333334</ele><time>2026-04-04T09:27:27.998Z</time></trkpt><trkpt lat="42.449877520078346" lon="14.144537170189663"><ele>136.66666666666669</ele><time>2026-04-04T09:27:28.998Z</time></trkpt><trkpt lat="42.4498166066561" lon="14.144730833886495"><ele>136.0</ele><time>2026-04-04T09:27:29.998Z</time></trkpt><trkpt lat="42.44975013610842" lon="14.144934767440928"><ele>136.0</ele><time>2026-04-04T09:27:30.998Z</time></trkpt><trkpt lat="42.44967478013578" lon="14.145152584864066"><ele>136.0</ele><time>2026-04-04T09:27:31.998Z</time></trkpt><trkpt lat="42.44957761934942" lon="14.145380118275948"><ele>136.0</ele><time>2026-04-04T09:27:32.998Z</time></trkpt><trkpt lat="42.449434017996396" lon="14.145582045060063"><ele>138.66666666666669</ele><time>2026-04-04T09:27:33.998Z</time></trkpt><trkpt lat="42.44931844453636" lon="14.14578824237365"><ele>141.33333333333334</ele><time>2026-04-04T09:27:34.998Z</time></trkpt><trkpt lat="42.44921621096752" lon="14.145965945887"><ele>144.0</ele><time>2026-04-04T09:27:35.998Z</time></trkpt><trkpt lat="42.44912938508227" lon="14.146116035704994"><ele>144.0</ele><time>2026-04-04T09:27:36.998Z</time></trkpt><trkpt lat="42.44902948446671" lon="14.146244665563387"><ele>144.0</ele><time>2026-04-04T09:27:37.998Z</time></trkpt><trkpt lat="42.44891284653238" lon="14.146372470020143"><ele>144.0</ele><time>2026-04-04T09:27:38.998Z</time></trkpt><trkpt lat="42.448755954985415" lon="14.14639034359249"><ele>144.0</ele><time>2026-04-04T09:27:39.998Z</time></trkpt><trkpt lat="42.44861146085076" lon="14.146406747232664"><ele>143.33333333333334</ele><time>2026-04-04T09:27:40.998Z</time></trkpt><trkpt lat="42.44847091536463" lon="14.146393946280245"><ele>142.66666666666669</ele><time>2026-04-04T09:27:41.998Z</time></trkpt><trkpt lat="42.44831956028103" lon="14.146341256403627"><ele>142.0</ele><time>2026-04-04T09:27:42.998Z</time></trkpt><trkpt lat="42.44816260011834" lon="14.14627157840901"><ele>142.0</ele><time>2026-04-04T09:27:43.998Z</time></trkpt><trkpt lat="42.44802462027579" lon="14.146196712958098"><ele>142.0</ele><time>2026-04-04T09:27:44.998Z</time></trkpt><trkpt lat="42.447908526134334" lon="14.146099427574011"><ele>142.0</ele><time>2026-04-04T09:27:45.998Z</time></trkpt><trkpt lat="42.44780323357837" lon="14.145975822218134"><ele>142.0</ele><time>2026-04-04T09:27:46.998Z</time></trkpt><trkpt lat="42.44771338868603" lon="14.145845417391772"><ele>138.25</ele><time>2026-04-04T09:27:47.997Z</time></trkpt><trkpt lat="42.44766398316975" lon="14.145707938714434"><ele>134.5</ele><time>2026-04-04T09:27:48.997Z</time></trkpt><trkpt lat="42.4476259773856" lon="14.145554489838108"><ele>130.75</ele><time>2026-04-04T09:27:49.997Z</time></trkpt><trkpt lat="42.44760149098592" lon="14.145349852239887"><ele>127.0</ele><time>2026-04-04T09:27:50.997Z</time></trkpt><trkpt lat="42.447607486553984" lon="14.145111205421316"><ele>127.0</ele><time>2026-04-04T09:27:51.997Z</time></trkpt><trkpt lat="42.44759717758185" lon="14.1449053332814"><ele>127.0</ele><time>2026-04-04T09:27:52.997Z</time></trkpt><trkpt lat="42.44758428777507" lon="14.144762779979796"><ele>127.0</ele><time>2026-04-04T09:27:53.997Z</time></trkpt><trkpt lat="42.44754874616402" lon="14.144637557373526"><ele>127.0</ele><time>2026-04-04T09:27:54.997Z</time></trkpt><trkpt lat="42.44748042858573" lon="14.144543752738914"><ele>126.75</ele><time>2026-04-04T09:27:55.997Z</time></trkpt><trkpt lat="42.447379519321636" lon="14.144480233514651"><ele>126.5</ele><time>2026-04-04T09:27:56.997Z</time></trkpt><trkpt lat="42.44725835097906" lon="14.144464619452837"><ele>126.25</ele><time>2026-04-04T09:27:57.997Z</time></trkpt><trkpt lat="42.44712210571917" lon="14.144498011240051"><ele>126.0</ele><time>2026-04-04T09:27:58.997Z</time></trkpt><trkpt lat="42.44696802026583" lon="14.14456173339971"><ele>124.33333333333334</ele><time>2026-04-04T09:27:59.997Z</time></trkpt><trkpt lat="42.4467983907516" lon="14.144618470447371"><ele>122.66666666666667</ele><time>2026-04-04T09:28:00.997Z</time></trkpt><trkpt lat="42.446612883188955" lon="14.144628733442662"><ele>121.0</ele><time>2026-04-04T09:28:01.997Z</time></trkpt><trkpt lat="42.44642331378811" lon="14.144686504189028"><ele>120.66666666666667</ele><time>2026-04-04T09:28:02.999Z</time></trkpt><trkpt lat="42.44623492367739" lon="14.144792948793624"><ele>120.33333333333334</ele><time>2026-04-04T09:28:03.999Z</time></trkpt><trkpt lat="42.4460532089719" lon="14.144902093085387"><ele>120.0</ele><time>2026-04-04T09:28:04.999Z</time></trkpt><trkpt lat="42.445878709863614" lon="14.145025484151436"><ele>120.0</ele><time>2026-04-04T09:28:05.999Z</time></trkpt><trkpt lat="42.445715675957054" lon="14.145135210670533"><ele>120.0</ele><time>2026-04-04T09:28:06.999Z</time></trkpt><trkpt lat="42.44557230612277" lon="14.145307855492554"><ele>120.0</ele><time>2026-04-04T09:28:07.999Z</time></trkpt><trkpt lat="42.44542707147083" lon="14.14549074342556"><ele>122.0</ele><time>2026-04-04T09:28:08.999Z</time></trkpt><trkpt lat="42.445289743481" lon="14.145703691336033"><ele>124.0</ele><time>2026-04-04T09:28:09.999Z</time></trkpt><trkpt lat="42.44516635397592" lon="14.145935122619976"><ele>126.0</ele><time>2026-04-04T09:28:10.999Z</time></trkpt><trkpt lat="42.44503075816223" lon="14.146149311013957"><ele>126.0</ele><time>2026-04-04T09:28:11.999Z</time></trkpt><trkpt lat="42.44491308093027" lon="14.146356416530931"><ele>126.0</ele><time>2026-04-04T09:28:12.999Z</time></trkpt><trkpt lat="42.44480792827576" lon="14.14654260332299"><ele>126.0</ele><time>2026-04-04T09:28:13.999Z</time></trkpt><trkpt lat="42.4447147741592" lon="14.146688369889596"><ele>125.5</ele><time>2026-04-04T09:28:14.999Z</time></trkpt><trkpt lat="42.444623211985984" lon="14.146795423227523"><ele>125.0</ele><time>2026-04-04T09:28:16Z</time></trkpt><trkpt lat="42.44451709908419" lon="14.146862118155228"><ele>124.5</ele><time>2026-04-04T09:28:17Z</time></trkpt><trkpt lat="42.44440160892766" lon="14.14693195254456"><ele>124.0</ele><time>2026-04-04T09:28:18Z</time></trkpt><trkpt lat="42.44426156285768" lon="14.146859227737838"><ele>124.0</ele><time>2026-04-04T09:28:19Z</time></trkpt><trkpt lat="42.44410553082783" lon="14.146809251381857"><ele>124.0</ele><time>2026-04-04T09:28:20Z</time></trkpt><trkpt lat="42.44394242912101" lon="14.146756173649106"><ele>124.0</ele><time>2026-04-04T09:28:21Z</time></trkpt><trkpt lat="42.4437738293127" lon="14.14670095672403"><ele>124.75</ele><time>2026-04-04T09:28:22Z</time></trkpt><trkpt lat="42.44362995048383" lon="14.146647590690378"><ele>125.5</ele><time>2026-04-04T09:28:23Z</time></trkpt><trkpt lat="42.44350227550648" lon="14.146568530219461"><ele>126.25</ele><time>2026-04-04T09:28:24Z</time></trkpt><trkpt lat="42.44338979440543" lon="14.1464672363261"><ele>127.0</ele><time>2026-04-04T09:28:25Z</time></trkpt><trkpt lat="42.443281515996624" lon="14.146320221725468"><ele>128.33333333333334</ele><time>2026-04-04T09:28:26Z</time></trkpt><trkpt lat="42.4431886384319" lon="14.146140696872962"><ele>129.66666666666666</ele><time>2026-04-04T09:28:27Z</time></trkpt><trkpt lat="42.44309130552181" lon="14.14592709014916"><ele>131.0</ele><time>2026-04-04T09:28:28Z</time></trkpt><trkpt lat="42.442981970522055" lon="14.145711546973642"><ele>125.66666666666666</ele><time>2026-04-04T09:28:29Z</time></trkpt><trkpt lat="42.442892089628515" lon="14.145501508809147"><ele>120.33333333333334</ele><time>2026-04-04T09:28:30Z</time></trkpt><trkpt lat="42.44282825283148" lon="14.14529729287292"><ele>115.0</ele><time>2026-04-04T09:28:31Z</time></trkpt><trkpt lat="42.442766982952435" lon="14.145098379216359"><ele>116.66666666666667</ele><time>2026-04-04T09:28:32Z</time></trkpt><trkpt lat="42.442736736505665" lon="14.1448693761697"><ele>118.33333333333334</ele><time>2026-04-04T09:28:33Z</time></trkpt><trkpt lat="42.442708140195734" lon="14.144607424546"><ele>120.0</ele><time>2026-04-04T09:28:34Z</time></trkpt><trkpt lat="42.442704709961156" lon="14.144353386311149"><ele>120.0</ele><time>2026-04-04T09:28:35Z</time></trkpt><trkpt lat="42.442695528316825" lon="14.144121066589223"><ele>120.0</ele><time>2026-04-04T09:28:36Z</time></trkpt><trkpt lat="42.44268553013245" lon="14.14392127730713"><ele>120.0</ele><time>2026-04-04T09:28:37Z</time></trkpt><trkpt lat="42.442668305006684" lon="14.143752090730707"><ele>120.0</ele><time>2026-04-04T09:28:38Z</time></trkpt><trkpt lat="42.44263719130033" lon="14.143605149503534"><ele>121.75</ele><time>2026-04-04T09:28:39Z</time></trkpt><trkpt lat="42.442534026340155" lon="14.14349276171435"><ele>123.5</ele><time>2026-04-04T09:28:40Z</time></trkpt><trkpt lat="42.44240164785833" lon="14.143401074539831"><ele>125.25</ele><time>2026-04-04T09:28:41Z</time></trkpt><trkpt lat="42.442251603223845" lon="14.143333728035287"><ele>127.0</ele><time>2026-04-04T09:28:42Z</time></trkpt><trkpt lat="42.44210144036603" lon="14.143244211709604"><ele>131.0</ele><time>2026-04-04T09:28:43Z</time></trkpt><trkpt lat="42.44193364911927" lon="14.143159921519105"><ele>135.0</ele><time>2026-04-04T09:28:44Z</time></trkpt><trkpt lat="42.44176603579501" lon="14.143072482785925"><ele>139.0</ele><time>2026-04-04T09:28:45Z</time></trkpt><trkpt lat="42.44160634752243" lon="14.142984147183991"><ele>139.0</ele><time>2026-04-04T09:28:46Z</time></trkpt><trkpt lat="42.44145772356417" lon="14.142891544317337"><ele>139.0</ele><time>2026-04-04T09:28:47Z</time></trkpt><trkpt lat="42.44129740188436" lon="14.142799547152109"><ele>139.0</ele><time>2026-04-04T09:28:48Z</time></trkpt><trkpt lat="42.441111581569224" lon="14.142758979035603"><ele>137.0</ele><time>2026-04-04T09:28:49Z</time></trkpt><trkpt lat="42.44092281453121" lon="14.142718957103371"><ele>135.0</ele><time>2026-04-04T09:28:50Z</time></trkpt><trkpt lat="42.44074842178846" lon="14.142684721036066"><ele>133.0</ele><time>2026-04-04T09:28:51Z</time></trkpt><trkpt lat="42.440590588554834" lon="14.142635521815647"><ele>130.66666666666669</ele><time>2026-04-04T09:28:52Z</time></trkpt><trkpt lat="42.440429719481166" lon="14.142560584094683"><ele>128.33333333333334</ele><time>2026-04-04T09:28:53Z</time></trkpt><trkpt lat="42.440271185487376" lon="14.142449566970704"><ele>126.0</ele><time>2026-04-04T09:28:54Z</time></trkpt><trkpt lat="42.440122583789815" lon="14.142328671327105"><ele>126.0</ele><time>2026-04-04T09:28:55Z</time></trkpt><trkpt lat="42.43996737630003" lon="14.142197578561364"><ele>126.0</ele><time>2026-04-04T09:28:56Z</time></trkpt><trkpt lat="42.43980380517083" lon="14.142056802299438"><ele>126.0</ele><time>2026-04-04T09:28:57Z</time></trkpt><trkpt lat="42.439637832597114" lon="14.141912057041502"><ele>125.66666666666666</ele><time>2026-04-04T09:28:57.999Z</time></trkpt><trkpt lat="42.43947918506633" lon="14.141777469007902"><ele>125.33333333333333</ele><time>2026-04-04T09:28:58.999Z</time></trkpt><trkpt lat="42.439335547195455" lon="14.141653832270514"><ele>125.0</ele><time>2026-04-04T09:28:59.999Z</time></trkpt><trkpt lat="42.439210651011955" lon="14.141553742664815"><ele>126.66666666666666</ele><time>2026-04-04T09:29:00.999Z</time></trkpt><trkpt lat="42.43907338437436" lon="14.141462482305183"><ele>128.33333333333334</ele><time>2026-04-04T09:29:01.999Z</time></trkpt><trkpt lat="42.43889634530839" lon="14.141430006736757"><ele>130.0</ele><time>2026-04-04T09:29:02.999Z</time></trkpt><trkpt lat="42.43871384218621" lon="14.141426242309647"><ele>130.33333333333334</ele><time>2026-04-04T09:29:03.999Z</time></trkpt><trkpt lat="42.43852105458222" lon="14.141454273881664"><ele>130.66666666666666</ele><time>2026-04-04T09:29:04.999Z</time></trkpt><trkpt lat="42.43831976748978" lon="14.141493540021312"><ele>131.0</ele><time>2026-04-04T09:29:05.999Z</time></trkpt><trkpt lat="42.438114329336834" lon="14.141560148638598"><ele>128.0</ele><time>2026-04-04T09:29:06.999Z</time></trkpt><trkpt lat="42.43792581656853" lon="14.141617921350106"><ele>125.0</ele><time>2026-04-04T09:29:07.999Z</time></trkpt><trkpt lat="42.43772833829314" lon="14.141656931282762"><ele>122.0</ele><time>2026-04-04T09:29:08.999Z</time></trkpt><trkpt lat="42.437524782536656" lon="14.14167575913687"><ele>122.0</ele><time>2026-04-04T09:29:09.999Z</time></trkpt><trkpt lat="42.43732192826643" lon="14.141687509514666"><ele>122.0</ele><time>2026-04-04T09:29:10.999Z</time></trkpt><trkpt lat="42.43712414022728" lon="14.14172517636649"><ele>122.0</ele><time>2026-04-04T09:29:11.999Z</time></trkpt><trkpt lat="42.43692811999912" lon="14.14179307386963"><ele>121.33333333333333</ele><time>2026-04-04T09:29:12.999Z</time></trkpt><trkpt lat="42.43674089324926" lon="14.14187231298249"><ele>120.66666666666666</ele><time>2026-04-04T09:29:13.999Z</time></trkpt><trkpt lat="42.43657206175846" lon="14.141943977252176"><ele>120.0</ele><time>2026-04-04T09:29:14.999Z</time></trkpt><trkpt lat="42.43641990388522" lon="14.14200346110973"><ele>119.25</ele><time>2026-04-04T09:29:15.999Z</time></trkpt><trkpt lat="42.43627768171102" lon="14.142028360177274"><ele>118.5</ele><time>2026-04-04T09:29:16.999Z</time></trkpt><trkpt lat="42.43614095694143" lon="14.142027811505217"><ele>117.75</ele><time>2026-04-04T09:29:17.999Z</time></trkpt><trkpt lat="42.4360232518166" lon="14.141972819317429"><ele>117.0</ele><time>2026-04-04T09:29:18.999Z</time></trkpt><trkpt lat="42.43588799412872" lon="14.14190113892832"><ele>117.0</ele><time>2026-04-04T09:29:19.999Z</time></trkpt><trkpt lat="42.43575307571848" lon="14.141830281890707"><ele>117.0</ele><time>2026-04-04T09:29:20.999Z</time></trkpt><trkpt lat="42.435615683028615" lon="14.14180897278676"><ele>117.0</ele><time>2026-04-04T09:29:21.999Z</time></trkpt><trkpt lat="42.43548658134061" lon="14.141864020902252"><ele>117.0</ele><time>2026-04-04T09:29:22.999Z</time></trkpt><trkpt lat="42.43535354154684" lon="14.14194800943865"><ele>116.66666666666666</ele><time>2026-04-04T09:29:23.999Z</time></trkpt><trkpt lat="42.435203266732145" lon="14.142078478551346"><ele>116.33333333333333</ele><time>2026-04-04T09:29:24.999Z</time></trkpt><trkpt lat="42.43504994167894" lon="14.142212006097084"><ele>116.0</ele><time>2026-04-04T09:29:25.999Z</time></trkpt><trkpt lat="42.43490282904585" lon="14.142372446617774"><ele>117.0</ele><time>2026-04-04T09:29:26.999Z</time></trkpt><trkpt lat="42.434769289777115" lon="14.142585699181293"><ele>118.0</ele><time>2026-04-04T09:29:27.999Z</time></trkpt><trkpt lat="42.43464715845577" lon="14.142832355394779"><ele>119.0</ele><time>2026-04-04T09:29:28.999Z</time></trkpt><trkpt lat="42.43453289040486" lon="14.143091958610976"><ele>116.66666666666666</ele><time>2026-04-04T09:29:29.999Z</time></trkpt><trkpt lat="42.434394448223266" lon="14.143318213931163"><ele>114.33333333333334</ele><time>2026-04-04T09:29:30.999Z</time></trkpt><trkpt lat="42.43427335972927" lon="14.143546251054591"><ele>112.0</ele><time>2026-04-04T09:29:31.999Z</time></trkpt><trkpt lat="42.434155593372154" lon="14.143766627159739"><ele>112.0</ele><time>2026-04-04T09:29:32.999Z</time></trkpt><trkpt lat="42.43404660888545" lon="14.143978019399993"><ele>112.0</ele><time>2026-04-04T09:29:33.999Z</time></trkpt><trkpt lat="42.43393481717205" lon="14.144146103955293"><ele>112.0</ele><time>2026-04-04T09:29:34.999Z</time></trkpt><trkpt lat="42.4338312256103" lon="14.144314676060116"><ele>113.33333333333334</ele><time>2026-04-04T09:29:35.999Z</time></trkpt><trkpt lat="42.43374483815807" lon="14.144491741138863"><ele>114.66666666666666</ele><time>2026-04-04T09:29:36.999Z</time></trkpt><trkpt lat="42.43366831007806" lon="14.144705450029731"><ele>116.0</ele><time>2026-04-04T09:29:37.999Z</time></trkpt><trkpt lat="42.43360746011614" lon="14.144930895284801"><ele>116.0</ele><time>2026-04-04T09:29:38.999Z</time></trkpt><trkpt lat="42.433543465792354" lon="14.145152358253524"><ele>116.0</ele><time>2026-04-04T09:29:39.999Z</time></trkpt><trkpt lat="42.4334476509392" lon="14.1453384763862"><ele>116.0</ele><time>2026-04-04T09:29:40.999Z</time></trkpt><trkpt lat="42.43335489163835" lon="14.145515297353722"><ele>116.0</ele><time>2026-04-04T09:29:41.999Z</time></trkpt><trkpt lat="42.43325396548392" lon="14.14568282811279"><ele>116.0</ele><time>2026-04-04T09:29:42.999Z</time></trkpt><trkpt lat="42.43314681980214" lon="14.14584640936439"><ele>116.0</ele><time>2026-04-04T09:29:43.999Z</time></trkpt><trkpt lat="42.43303605345751" lon="14.146005006155336"><ele>114.0</ele><time>2026-04-04T09:29:44.999Z</time></trkpt><trkpt lat="42.43292425426349" lon="14.14615155059333"><ele>112.0</ele><time>2026-04-04T09:29:45.999Z</time></trkpt><trkpt lat="42.43280308371795" lon="14.146285066672316"><ele>110.0</ele><time>2026-04-04T09:29:46.999Z</time></trkpt><trkpt lat="42.43266388250071" lon="14.146411194006147"><ele>110.0</ele><time>2026-04-04T09:29:47.999Z</time></trkpt><trkpt lat="42.432509788015686" lon="14.146535755271929"><ele>110.0</ele><time>2026-04-04T09:29:48.999Z</time></trkpt><trkpt lat="42.43234952701786" lon="14.146664832770096"><ele>110.0</ele><time>2026-04-04T09:29:49.999Z</time></trkpt><trkpt lat="42.43218279746154" lon="14.146803388063551"><ele>104.66666666666666</ele><time>2026-04-04T09:29:50.999Z</time></trkpt><trkpt lat="42.432018732370885" lon="14.146936240201041"><ele>99.33333333333333</ele><time>2026-04-04T09:29:51.999Z</time></trkpt><trkpt lat="42.43185378176109" lon="14.147058982037331"><ele>94.0</ele><time>2026-04-04T09:29:52.999Z</time></trkpt><trkpt lat="42.431684780002975" lon="14.14717719141496"><ele>94.0</ele><time>2026-04-04T09:29:53.999Z</time></trkpt><trkpt lat="42.43150715505437" lon="14.14729515626285"><ele>94.0</ele><time>2026-04-04T09:29:54.999Z</time></trkpt><trkpt lat="42.431332463517506" lon="14.147403582969469"><ele>94.0</ele><time>2026-04-04T09:29:55.999Z</time></trkpt><trkpt lat="42.431161151396076" lon="14.147505728300862"><ele>88.66666666666666</ele><time>2026-04-04T09:29:56.999Z</time></trkpt><trkpt lat="42.430988277094116" lon="14.147608630572641"><ele>83.33333333333333</ele><time>2026-04-04T09:29:57.999Z</time></trkpt><trkpt lat="42.43081344003069" lon="14.147712632363325"><ele>78.0</ele><time>2026-04-04T09:29:58.999Z</time></trkpt><trkpt lat="42.43063122219807" lon="14.147823391113796"><ele>76.0</ele><time>2026-04-04T09:29:59.999Z</time></trkpt><trkpt lat="42.430456174190496" lon="14.147931600477062"><ele>74.0</ele><time>2026-04-04T09:30:00.999Z</time></trkpt><trkpt lat="42.43028954122897" lon="14.148033219019288"><ele>72.0</ele><time>2026-04-04T09:30:01.999Z</time></trkpt><trkpt lat="42.43012359702157" lon="14.148132405385928"><ele>71.66666666666667</ele><time>2026-04-04T09:30:02.999Z</time></trkpt><trkpt lat="42.429952004203734" lon="14.148220518108854"><ele>71.33333333333334</ele><time>2026-04-04T09:30:03.999Z</time></trkpt><trkpt lat="42.42977167401224" lon="14.148294195467523"><ele>71.0</ele><time>2026-04-04T09:30:04.999Z</time></trkpt><trkpt lat="42.429587414578236" lon="14.148351188000875"><ele>69.0</ele><time>2026-04-04T09:30:05.999Z</time></trkpt><trkpt lat="42.42939985197589" lon="14.148401350206775"><ele>67.0</ele><time>2026-04-04T09:30:06.999Z</time></trkpt><trkpt lat="42.429210962465284" lon="14.148458791489581"><ele>65.0</ele><time>2026-04-04T09:30:07.999Z</time></trkpt><trkpt lat="42.429023319719185" lon="14.148519111247786"><ele>65.0</ele><time>2026-04-04T09:30:09Z</time></trkpt><trkpt lat="42.42883446186396" lon="14.148579822273064"><ele>65.0</ele><time>2026-04-04T09:30:10Z</time></trkpt><trkpt lat="42.428642644084874" lon="14.148641484788403"><ele>65.0</ele><time>2026-04-04T09:30:11Z</time></trkpt><trkpt lat="42.428449784845085" lon="14.148705070660982"><ele>64.0</ele><time>2026-04-04T09:30:12Z</time></trkpt><trkpt lat="42.428256578429085" lon="14.14877748405146"><ele>63.0</ele><time>2026-04-04T09:30:13Z</time></trkpt><trkpt lat="42.42807184013035" lon="14.148852969550113"><ele>62.0</ele><time>2026-04-04T09:30:14Z</time></trkpt><trkpt lat="42.42789492288509" lon="14.148931900868469"><ele>61.0</ele><time>2026-04-04T09:30:15Z</time></trkpt><trkpt lat="42.427719142939225" lon="14.149012545880812"><ele>60.0</ele><time>2026-04-04T09:30:16Z</time></trkpt><trkpt lat="42.42753818628659" lon="14.149096259777679"><ele>59.0</ele><time>2026-04-04T09:30:17Z</time></trkpt><trkpt lat="42.42736158685264" lon="14.149170961932482"><ele>59.0</ele><time>2026-04-04T09:30:18Z</time></trkpt><trkpt lat="42.427191723946294" lon="14.149226575214085"><ele>59.0</ele><time>2026-04-04T09:30:19Z</time></trkpt><trkpt lat="42.4270095843908" lon="14.149258262999165"><ele>59.0</ele><time>2026-04-04T09:30:20Z</time></trkpt><trkpt lat="42.42681791773948" lon="14.149273480953124"><ele>58.0</ele><time>2026-04-04T09:30:21Z</time></trkpt><trkpt lat="42.426620598803765" lon="14.149281311096155"><ele>57.0</ele><time>2026-04-04T09:30:22Z</time></trkpt><trkpt lat="42.42641962429568" lon="14.149284022874049"><ele>56.0</ele><time>2026-04-04T09:30:23Z</time></trkpt><trkpt lat="42.4262217787" lon="14.149283812820036"><ele>55.333333333333336</ele><time>2026-04-04T09:30:24Z</time></trkpt><trkpt lat="42.426018882985645" lon="14.149283068096665"><ele>54.66666666666667</ele><time>2026-04-04T09:30:25Z</time></trkpt><trkpt lat="42.42581616239883" lon="14.149282324012242"><ele>54.0</ele><time>2026-04-04T09:30:26Z</time></trkpt><trkpt lat="42.425614160719576" lon="14.149282467751952"><ele>52.66666666666667</ele><time>2026-04-04T09:30:27Z</time></trkpt><trkpt lat="42.42540460410119" lon="14.149287440624443"><ele>51.333333333333336</ele><time>2026-04-04T09:30:28Z</time></trkpt><trkpt lat="42.42520166614054" lon="14.149294766343143"><ele>50.0</ele><time>2026-04-04T09:30:29Z</time></trkpt><trkpt lat="42.42499464856765" lon="14.149303189663097"><ele>50.0</ele><time>2026-04-04T09:30:30Z</time></trkpt><trkpt lat="42.4247887576108" lon="14.149311615326326"><ele>50.0</ele><time>2026-04-04T09:30:31Z</time></trkpt><trkpt lat="42.42458890879613" lon="14.149320809975947"><ele>50.0</ele><time>2026-04-04T09:30:32Z</time></trkpt><trkpt lat="42.42440020626758" lon="14.149329871003864"><ele>47.66666666666667</ele><time>2026-04-04T09:30:33Z</time></trkpt><trkpt lat="42.42421287371062" lon="14.149338866324452"><ele>45.333333333333336</ele><time>2026-04-04T09:30:34Z</time></trkpt><trkpt lat="42.42402058051292" lon="14.149344727344106"><ele>43.0</ele><time>2026-04-04T09:30:35Z</time></trkpt><trkpt lat="42.42382882820646" lon="14.1493508515082"><ele>41.66666666666667</ele><time>2026-04-04T09:30:36Z</time></trkpt><trkpt lat="42.42364121444152" lon="14.149357155201324"><ele>40.333333333333336</ele><time>2026-04-04T09:30:37Z</time></trkpt><trkpt lat="42.42345540705582" lon="14.149363549994561"><ele>39.0</ele><time>2026-04-04T09:30:38Z</time></trkpt><trkpt lat="42.423276590407625" lon="14.149371565942262"><ele>39.0</ele><time>2026-04-04T09:30:39Z</time></trkpt><trkpt lat="42.423099352495" lon="14.149379503223315"><ele>39.0</ele><time>2026-04-04T09:30:40Z</time></trkpt><trkpt lat="42.42292042090569" lon="14.149387516350362"><ele>39.0</ele><time>2026-04-04T09:30:41Z</time></trkpt><trkpt lat="42.42274417348506" lon="14.14939418783729"><ele>36.666666666666664</ele><time>2026-04-04T09:30:42Z</time></trkpt><trkpt lat="42.422577436076935" lon="14.149389849627697"><ele>34.33333333333333</ele><time>2026-04-04T09:30:43Z</time></trkpt><trkpt lat="42.422417222758085" lon="14.149356971012349"><ele>32.0</ele><time>2026-04-04T09:30:44Z</time></trkpt><trkpt lat="42.42225072105016" lon="14.14928235476044"><ele>30.666666666666664</ele><time>2026-04-04T09:30:45Z</time></trkpt><trkpt lat="42.422059459122046" lon="14.14916133628485"><ele>29.333333333333336</ele><time>2026-04-04T09:30:46Z</time></trkpt><trkpt lat="42.421879698543606" lon="14.149045747113352"><ele>28.0</ele><time>2026-04-04T09:30:47Z</time></trkpt><trkpt lat="42.42170488159797" lon="14.148931745006033"><ele>26.666666666666668</ele><time>2026-04-04T09:30:48Z</time></trkpt><trkpt lat="42.421546027329825" lon="14.148827286496653"><ele>25.333333333333336</ele><time>2026-04-04T09:30:49Z</time></trkpt><trkpt lat="42.421402934141824" lon="14.148733318706634"><ele>24.0</ele><time>2026-04-04T09:30:50Z</time></trkpt><trkpt lat="42.42127284700545" lon="14.148647894388434"><ele>23.4</ele><time>2026-04-04T09:30:51Z</time></trkpt><trkpt lat="42.42114677086415" lon="14.148560215242826"><ele>22.799999999999997</ele><time>2026-04-04T09:30:52Z</time></trkpt><trkpt lat="42.42103522602042" lon="14.14849373191058"><ele>22.200000000000003</ele><time>2026-04-04T09:30:53Z</time></trkpt><trkpt lat="42.42095519382617" lon="14.148423169880056"><ele>21.6</ele><time>2026-04-04T09:30:54Z</time></trkpt><trkpt lat="42.42089423402182" lon="14.148391822202697"><ele>21.0</ele><time>2026-04-04T09:30:55Z</time></trkpt><trkpt lat="42.42081846194942" lon="14.14838640207908"><ele>21.0</ele><time>2026-04-04T09:30:57Z</time></trkpt><trkpt lat="42.420695600607985" lon="14.148560484876043"><ele>21.0</ele><time>2026-04-04T09:31:02Z</time></trkpt><trkpt lat="42.42066700717898" lon="14.148683792263872"><ele>21.0</ele><time>2026-04-04T09:31:03Z</time></trkpt><trkpt lat="42.42064494099422" lon="14.148812082029528"><ele>21.0</ele><time>2026-04-04T09:31:04Z</time></trkpt><trkpt lat="42.42061630510577" lon="14.148973287789582"><ele>21.5</ele><time>2026-04-04T09:31:05Z</time></trkpt><trkpt lat="42.42058279746722" lon="14.149139302887384"><ele>22.0</ele><time>2026-04-04T09:31:06Z</time></trkpt><trkpt lat="42.42054984466142" lon="14.149301058511384"><ele>22.5</ele><time>2026-04-04T09:31:07Z</time></trkpt><trkpt lat="42.420513528118406" lon="14.149466671560406"><ele>23.0</ele><time>2026-04-04T09:31:08Z</time></trkpt><trkpt lat="42.42049048548496" lon="14.149737389945498"><ele>22.666666666666668</ele><time>2026-04-04T09:31:09Z</time></trkpt><trkpt lat="42.420449719034096" lon="14.149964670152572"><ele>22.333333333333332</ele><time>2026-04-04T09:31:10Z</time></trkpt><trkpt lat="42.42041103579752" lon="14.150193387589725"><ele>22.0</ele><time>2026-04-04T09:31:11Z</time></trkpt><trkpt lat="42.42037275175932" lon="14.150433711217792"><ele>22.0</ele><time>2026-04-04T09:31:12Z</time></trkpt><trkpt lat="42.42033815368099" lon="14.150694858759234"><ele>22.0</ele><time>2026-04-04T09:31:13Z</time></trkpt><trkpt lat="42.42033396943171" lon="14.150973525843105"><ele>22.0</ele><time>2026-04-04T09:31:14Z</time></trkpt><trkpt lat="42.420361537760215" lon="14.15122465963609"><ele>22.666666666666664</ele><time>2026-04-04T09:31:15Z</time></trkpt><trkpt lat="42.42040542396649" lon="14.151474608653354"><ele>23.333333333333332</ele><time>2026-04-04T09:31:16Z</time></trkpt><trkpt lat="42.42047410326027" lon="14.15171386882019"><ele>24.0</ele><time>2026-04-04T09:31:17Z</time></trkpt><trkpt lat="42.42055405374833" lon="14.151923366125052"><ele>25.0</ele><time>2026-04-04T09:31:18Z</time></trkpt><trkpt lat="42.420638332241744" lon="14.152105914294694"><ele>26.0</ele><time>2026-04-04T09:31:18.999Z</time></trkpt><trkpt lat="42.42072941679099" lon="14.152288223203984"><ele>27.0</ele><time>2026-04-04T09:31:19.999Z</time></trkpt><trkpt lat="42.42083307146944" lon="14.152468886644701"><ele>27.0</ele><time>2026-04-04T09:31:20.999Z</time></trkpt><trkpt lat="42.4209435165922" lon="14.15262519829514"><ele>27.0</ele><time>2026-04-04T09:31:21.999Z</time></trkpt><trkpt lat="42.421026235673466" lon="14.152761579816197"><ele>27.0</ele><time>2026-04-04T09:31:22.999Z</time></trkpt><trkpt lat="42.42105923931083" lon="14.152854714870287"><ele>27.0</ele><time>2026-04-04T09:31:23.999Z</time></trkpt><trkpt lat="42.42082499800279" lon="14.152957712394812"><ele>27.0</ele><time>2026-04-04T09:31:27.999Z</time></trkpt><trkpt lat="42.42071235925063" lon="14.153003924854833"><ele>27.0</ele><time>2026-04-04T09:31:28.999Z</time></trkpt><trkpt lat="42.420592093234646" lon="14.153046370861105"><ele>27.0</ele><time>2026-04-04T09:31:29.999Z</time></trkpt><trkpt lat="42.42048058339125" lon="14.153123421737593"><ele>27.0</ele><time>2026-04-04T09:31:30.999Z</time></trkpt><trkpt lat="42.42035304184719" lon="14.153218372528512"><ele>26.5</ele><time>2026-04-04T09:31:31.999Z</time></trkpt><trkpt lat="42.42024384916117" lon="14.153346329709683"><ele>26.0</ele><time>2026-04-04T09:31:32.999Z</time></trkpt><trkpt lat="42.42012322763571" lon="14.153461317126435"><ele>25.5</ele><time>2026-04-04T09:31:33.999Z</time></trkpt><trkpt lat="42.420017490185984" lon="14.15357273347569"><ele>25.0</ele><time>2026-04-04T09:31:34.999Z</time></trkpt><trkpt lat="42.41992660015829" lon="14.153687373263898"><ele>25.0</ele><time>2026-04-04T09:31:35.999Z</time></trkpt><trkpt lat="42.41982434281755" lon="14.153791328846086"><ele>25.0</ele><time>2026-04-04T09:31:36.999Z</time></trkpt><trkpt lat="42.4197149362709" lon="14.15388195020934"><ele>25.0</ele><time>2026-04-04T09:31:37.999Z</time></trkpt><trkpt lat="42.41961019348155" lon="14.153981375415421"><ele>25.0</ele><time>2026-04-04T09:31:38.999Z</time></trkpt><trkpt lat="42.41950263471405" lon="14.154073859136078"><ele>25.25</ele><time>2026-04-04T09:31:39.999Z</time></trkpt><trkpt lat="42.4193898470017" lon="14.154195137214774"><ele>25.5</ele><time>2026-04-04T09:31:40.999Z</time></trkpt><trkpt lat="42.419270505468624" lon="14.154312597145598"><ele>25.75</ele><time>2026-04-04T09:31:41.999Z</time></trkpt><trkpt lat="42.419169885619475" lon="14.154434903979023"><ele>26.0</ele><time>2026-04-04T09:31:42.999Z</time></trkpt><trkpt lat="42.4190781336916" lon="14.154545026061024"><ele>26.0</ele><time>2026-04-04T09:31:43.999Z</time></trkpt><trkpt lat="42.4190081824339" lon="14.154667559378925"><ele>26.0</ele><time>2026-04-04T09:31:44.999Z</time></trkpt><trkpt lat="42.41895608828715" lon="14.154813716664892"><ele>26.0</ele><time>2026-04-04T09:31:45.999Z</time></trkpt><trkpt lat="42.418911053123416" lon="14.154974211616182"><ele>26.0</ele><time>2026-04-04T09:31:46.999Z</time></trkpt><trkpt lat="42.41886525316156" lon="14.15513783022282"><ele>26.8</ele><time>2026-04-04T09:31:47.999Z</time></trkpt><trkpt lat="42.41883640924057" lon="14.155286935245895"><ele>27.6</ele><time>2026-04-04T09:31:48.999Z</time></trkpt><trkpt lat="42.418808632582504" lon="14.155400006379823"><ele>28.4</ele><time>2026-04-04T09:31:49.999Z</time></trkpt><trkpt lat="42.418725641869464" lon="14.15548815389575"><ele>29.2</ele><time>2026-04-04T09:31:51.999Z</time></trkpt><trkpt lat="42.41860865580428" lon="14.155407871688803"><ele>30.0</ele><time>2026-04-04T09:31:53.999Z</time></trkpt><trkpt lat="42.41853004741576" lon="14.155357370861427"><ele>26.75</ele><time>2026-04-04T09:31:54.999Z</time></trkpt><trkpt lat="42.418451731377615" lon="14.155246999186915"><ele>23.5</ele><time>2026-04-04T09:31:55.999Z</time></trkpt><trkpt lat="42.418359441726665" lon="14.155130124905765"><ele>20.25</ele><time>2026-04-04T09:31:56.999Z</time></trkpt><trkpt lat="42.418264373129674" lon="14.155014472767862"><ele>17.0</ele><time>2026-04-04T09:31:57.999Z</time></trkpt><trkpt lat="42.4181667928796" lon="14.154875176615658"><ele>17.5</ele><time>2026-04-04T09:31:58.999Z</time></trkpt><trkpt lat="42.418063686742144" lon="14.15473537247437"><ele>18.0</ele><time>2026-04-04T09:31:59.999Z</time></trkpt><trkpt lat="42.417966005348646" lon="14.154612859756671"><ele>18.5</ele><time>2026-04-04T09:32:00.999Z</time></trkpt><trkpt lat="42.417873027255474" lon="14.154488611148388"><ele>19.0</ele><time>2026-04-04T09:32:01.999Z</time></trkpt><trkpt lat="42.41778231638941" lon="14.15435896175049"><ele>19.0</ele><time>2026-04-04T09:32:02.999Z</time></trkpt><trkpt lat="42.417690219880505" lon="14.154211684453825"><ele>19.0</ele><time>2026-04-04T09:32:03.999Z</time></trkpt><trkpt lat="42.417588755929586" lon="14.154073741068359"><ele>19.0</ele><time>2026-04-04T09:32:04.999Z</time></trkpt><trkpt lat="42.41750551045346" lon="14.153958262982506"><ele>19.0</ele><time>2026-04-04T09:32:05.999Z</time></trkpt><trkpt lat="42.417431862634274" lon="14.153856649307086"><ele>19.0</ele><time>2026-04-04T09:32:06.999Z</time></trkpt><trkpt lat="42.4173605722279" lon="14.153758288237087"><ele>19.0</ele><time>2026-04-04T09:32:07.999Z</time></trkpt><trkpt lat="42.41727566751551" lon="14.1536424496164"><ele>19.0</ele><time>2026-04-04T09:32:08.999Z</time></trkpt><trkpt lat="42.41718664600346" lon="14.153521041132135"><ele>19.0</ele><time>2026-04-04T09:32:09.999Z</time></trkpt><trkpt lat="42.417081951824905" lon="14.153381193893148"><ele>19.0</ele><time>2026-04-04T09:32:10.999Z</time></trkpt><trkpt lat="42.41697172011644" lon="14.15323394970124"><ele>19.0</ele><time>2026-04-04T09:32:11.999Z</time></trkpt><trkpt lat="42.41684581605457" lon="14.15312094956713"><ele>19.0</ele><time>2026-04-04T09:32:12.999Z</time></trkpt><trkpt lat="42.41675485317313" lon="14.152986927870908"><ele>19.0</ele><time>2026-04-04T09:32:14Z</time></trkpt><trkpt lat="42.41667013218044" lon="14.152868655058484"><ele>19.25</ele><time>2026-04-04T09:32:15Z</time></trkpt><trkpt lat="42.41658678480743" lon="14.152752027699174"><ele>19.5</ele><time>2026-04-04T09:32:16Z</time></trkpt><trkpt lat="42.416521099799205" lon="14.152613380511237"><ele>19.75</ele><time>2026-04-04T09:32:17Z</time></trkpt><trkpt lat="42.4164370003706" lon="14.152501409076185"><ele>20.0</ele><time>2026-04-04T09:32:18Z</time></trkpt><trkpt lat="42.41634937914373" lon="14.15239581803649"><ele>19.0</ele><time>2026-04-04T09:32:19Z</time></trkpt><trkpt lat="42.41624944099585" lon="14.152299777197047"><ele>18.0</ele><time>2026-04-04T09:32:20Z</time></trkpt><trkpt lat="42.4161406250268" lon="14.152218033304296"><ele>17.0</ele><time>2026-04-04T09:32:21Z</time></trkpt><trkpt lat="42.41601770015221" lon="14.152151769591041"><ele>16.0</ele><time>2026-04-04T09:32:22Z</time></trkpt><trkpt lat="42.41588767253065" lon="14.152102610966748"><ele>16.0</ele><time>2026-04-04T09:32:23Z</time></trkpt><trkpt lat="42.41575407017106" lon="14.152077661959321"><ele>16.0</ele><time>2026-04-04T09:32:24Z</time></trkpt><trkpt lat="42.41562138075973" lon="14.152066709813006"><ele>16.0</ele><time>2026-04-04T09:32:25Z</time></trkpt><trkpt lat="42.41549229222869" lon="14.152054851130236"><ele>16.0</ele><time>2026-04-04T09:32:26Z</time></trkpt><trkpt lat="42.415358310085416" lon="14.152045426932789"><ele>15.75</ele><time>2026-04-04T09:32:27Z</time></trkpt><trkpt lat="42.41522059993821" lon="14.152037190856474"><ele>15.5</ele><time>2026-04-04T09:32:28Z</time></trkpt><trkpt lat="42.41509266345785" lon="14.152030104696074"><ele>15.25</ele><time>2026-04-04T09:32:29Z</time></trkpt><trkpt lat="42.41496559035933" lon="14.152021873697594"><ele>15.0</ele><time>2026-04-04T09:32:30Z</time></trkpt><trkpt lat="42.41484419954008" lon="14.152011874229213"><ele>15.0</ele><time>2026-04-04T09:32:31Z</time></trkpt><trkpt lat="42.41472368989027" lon="14.151997024872541"><ele>15.0</ele><time>2026-04-04T09:32:32Z</time></trkpt><trkpt lat="42.4146052025443" lon="14.151977753358592"><ele>15.0</ele><time>2026-04-04T09:32:33Z</time></trkpt><trkpt lat="42.414487008774515" lon="14.151951570766515"><ele>15.0</ele><time>2026-04-04T09:32:34Z</time></trkpt><trkpt lat="42.41437195306076" lon="14.151917760965132"><ele>15.25</ele><time>2026-04-04T09:32:35Z</time></trkpt><trkpt lat="42.414261766405446" lon="14.151877459563806"><ele>15.5</ele><time>2026-04-04T09:32:36Z</time></trkpt><trkpt lat="42.414147420163005" lon="14.151826947956657"><ele>15.75</ele><time>2026-04-04T09:32:37Z</time></trkpt><trkpt lat="42.41401824896621" lon="14.151762695107982"><ele>16.0</ele><time>2026-04-04T09:32:38Z</time></trkpt><trkpt lat="42.41387930288012" lon="14.151701267872406"><ele>16.333333333333332</ele><time>2026-04-04T09:32:39Z</time></trkpt><trkpt lat="42.413750775745214" lon="14.151584795706654"><ele>16.666666666666668</ele><time>2026-04-04T09:32:40Z</time></trkpt><trkpt lat="42.41360691462044" lon="14.151469039281007"><ele>17.0</ele><time>2026-04-04T09:32:41Z</time></trkpt><trkpt lat="42.41346501664995" lon="14.151331944219015"><ele>16.333333333333336</ele><time>2026-04-04T09:32:42Z</time></trkpt><trkpt lat="42.4133185502895" lon="14.151200571640347"><ele>15.666666666666668</ele><time>2026-04-04T09:32:43Z</time></trkpt><trkpt lat="42.41317403977969" lon="14.151041856137155"><ele>15.0</ele><time>2026-04-04T09:32:44Z</time></trkpt><trkpt lat="42.41302129141561" lon="14.150886223692476"><ele>15.0</ele><time>2026-04-04T09:32:45Z</time></trkpt><trkpt lat="42.412870492992994" lon="14.15071277019641"><ele>15.0</ele><time>2026-04-04T09:32:46Z</time></trkpt><trkpt lat="42.41269934305473" lon="14.150600227420815"><ele>15.0</ele><time>2026-04-04T09:32:47Z</time></trkpt><trkpt lat="42.41252472087622" lon="14.150473891797066"><ele>15.0</ele><time>2026-04-04T09:32:48Z</time></trkpt><trkpt lat="42.41234441822822" lon="14.15034136810213"><ele>15.0</ele><time>2026-04-04T09:32:49Z</time></trkpt><trkpt lat="42.41216178731067" lon="14.150196209506792"><ele>15.0</ele><time>2026-04-04T09:32:50Z</time></trkpt><trkpt lat="42.411990452904554" lon="14.150002619906832"><ele>16.0</ele><time>2026-04-04T09:32:51Z</time></trkpt><trkpt lat="42.41178388418242" lon="14.149884904121976"><ele>17.0</ele><time>2026-04-04T09:32:52Z</time></trkpt><trkpt lat="42.41159726906708" lon="14.149722066720821"><ele>18.0</ele><time>2026-04-04T09:32:53Z</time></trkpt><trkpt lat="42.411406812061955" lon="14.149561074687758"><ele>19.0</ele><time>2026-04-04T09:32:54Z</time></trkpt><trkpt lat="42.41121175397441" lon="14.149402581366042"><ele>20.0</ele><time>2026-04-04T09:32:55Z</time></trkpt><trkpt lat="42.41103093901923" lon="14.149239756270294"><ele>21.0</ele><time>2026-04-04T09:32:56Z</time></trkpt><trkpt lat="42.41084511763992" lon="14.149093354277603"><ele>20.333333333333332</ele><time>2026-04-04T09:32:57Z</time></trkpt><trkpt lat="42.41065208321788" lon="14.148982006202495"><ele>19.666666666666664</ele><time>2026-04-04T09:32:58Z</time></trkpt><trkpt lat="42.410474867003025" lon="14.14884429179115"><ele>19.0</ele><time>2026-04-04T09:32:59Z</time></trkpt><trkpt lat="42.410290995165155" lon="14.148697264754205"><ele>19.0</ele><time>2026-04-04T09:33:00Z</time></trkpt><trkpt lat="42.41010965766056" lon="14.148551888004336"><ele>19.0</ele><time>2026-04-04T09:33:01Z</time></trkpt><trkpt lat="42.40991514033578" lon="14.14840034655918"><ele>19.0</ele><time>2026-04-04T09:33:02Z</time></trkpt><trkpt lat="42.40973221141616" lon="14.148252149646472"><ele>18.333333333333332</ele><time>2026-04-04T09:33:03Z</time></trkpt><trkpt lat="42.40955430025067" lon="14.148074879763648"><ele>17.666666666666668</ele><time>2026-04-04T09:33:04Z</time></trkpt><trkpt lat="42.40937079374508" lon="14.147947011745416"><ele>17.0</ele><time>2026-04-04T09:33:05Z</time></trkpt><trkpt lat="42.40919536246854" lon="14.147806228923308"><ele>17.0</ele><time>2026-04-04T09:33:06Z</time></trkpt><trkpt lat="42.40902796998546" lon="14.147681942663088"><ele>17.0</ele><time>2026-04-04T09:33:07Z</time></trkpt><trkpt lat="42.408858948434435" lon="14.147561086778861"><ele>17.0</ele><time>2026-04-04T09:33:08Z</time></trkpt><trkpt lat="42.408691682400274" lon="14.14744663062453"><ele>17.0</ele><time>2026-04-04T09:33:09Z</time></trkpt><trkpt lat="42.40851293468694" lon="14.147345217515173"><ele>17.0</ele><time>2026-04-04T09:33:10Z</time></trkpt><trkpt lat="42.408323608387036" lon="14.147261761933093"><ele>17.0</ele><time>2026-04-04T09:33:11Z</time></trkpt><trkpt lat="42.408124622775205" lon="14.147189855356432"><ele>17.333333333333336</ele><time>2026-04-04T09:33:12Z</time></trkpt><trkpt lat="42.40792154069833" lon="14.147136536914598"><ele>17.666666666666668</ele><time>2026-04-04T09:33:13Z</time></trkpt><trkpt lat="42.4077112210309" lon="14.147098639269421"><ele>18.0</ele><time>2026-04-04T09:33:14Z</time></trkpt><trkpt lat="42.4075078649692" lon="14.147050343880581"><ele>18.0</ele><time>2026-04-04T09:33:15Z</time></trkpt><trkpt lat="42.40731553729164" lon="14.147009469390081"><ele>18.0</ele><time>2026-04-04T09:33:16Z</time></trkpt><trkpt lat="42.40713070613086" lon="14.146963036137652"><ele>18.0</ele><time>2026-04-04T09:33:17Z</time></trkpt><trkpt lat="42.406956818744185" lon="14.146896592003467"><ele>19.333333333333332</ele><time>2026-04-04T09:33:18Z</time></trkpt><trkpt lat="42.40678704074971" lon="14.146807137759541"><ele>20.666666666666664</ele><time>2026-04-04T09:33:19Z</time></trkpt><trkpt lat="42.40661949454792" lon="14.146691735698086"><ele>22.0</ele><time>2026-04-04T09:33:20Z</time></trkpt><trkpt lat="42.40646361881367" lon="14.146569952949758"><ele>22.0</ele><time>2026-04-04T09:33:21Z</time></trkpt><trkpt lat="42.406325424593085" lon="14.146448589156416"><ele>22.0</ele><time>2026-04-04T09:33:22Z</time></trkpt><trkpt lat="42.406189890155105" lon="14.14632662150096"><ele>22.0</ele><time>2026-04-04T09:33:23Z</time></trkpt><trkpt lat="42.406061897369355" lon="14.1462112627988"><ele>22.0</ele><time>2026-04-04T09:33:24Z</time></trkpt><trkpt lat="42.405941080473035" lon="14.146097993335252"><ele>22.0</ele><time>2026-04-04T09:33:25Z</time></trkpt><trkpt lat="42.40581652694699" lon="14.145980211149304"><ele>22.0</ele><time>2026-04-04T09:33:25.999Z</time></trkpt><trkpt lat="42.4056638579645" lon="14.145912504347304"><ele>22.0</ele><time>2026-04-04T09:33:26.999Z</time></trkpt><trkpt lat="42.40553573521855" lon="14.145792650530094"><ele>22.0</ele><time>2026-04-04T09:33:27.999Z</time></trkpt><trkpt lat="42.40542829609824" lon="14.14563087042214"><ele>22.0</ele><time>2026-04-04T09:33:28.999Z</time></trkpt><trkpt lat="42.4052972415837" lon="14.145513183366603"><ele>22.333333333333332</ele><time>2026-04-04T09:33:29.999Z</time></trkpt><trkpt lat="42.40516242681803" lon="14.14539351866133"><ele>22.666666666666668</ele><time>2026-04-04T09:33:30.999Z</time></trkpt><trkpt lat="42.40503104362808" lon="14.14527626631444"><ele>23.0</ele><time>2026-04-04T09:33:31.999Z</time></trkpt><trkpt lat="42.404897913570295" lon="14.145181592927033"><ele>23.0</ele><time>2026-04-04T09:33:32.999Z</time></trkpt><trkpt lat="42.40477625168661" lon="14.145066007262969"><ele>23.0</ele><time>2026-04-04T09:33:33.999Z</time></trkpt><trkpt lat="42.40464701170136" lon="14.144944595551134"><ele>23.0</ele><time>2026-04-04T09:33:34.999Z</time></trkpt><trkpt lat="42.40451885356334" lon="14.144829503618764"><ele>23.666666666666668</ele><time>2026-04-04T09:33:35.999Z</time></trkpt><trkpt lat="42.40439144001843" lon="14.14470797218864"><ele>24.333333333333336</ele><time>2026-04-04T09:33:36.999Z</time></trkpt><trkpt lat="42.40426618007524" lon="14.144577816186397"><ele>25.0</ele><time>2026-04-04T09:33:37.999Z</time></trkpt><trkpt lat="42.40414174213706" lon="14.144450068571533"><ele>25.0</ele><time>2026-04-04T09:33:38.999Z</time></trkpt><trkpt lat="42.404012306627095" lon="14.144323709549111"><ele>25.0</ele><time>2026-04-04T09:33:39.999Z</time></trkpt><trkpt lat="42.40387794921443" lon="14.144200374310392"><ele>25.0</ele><time>2026-04-04T09:33:40.999Z</time></trkpt><trkpt lat="42.40374262594433" lon="14.144074954855993"><ele>24.666666666666668</ele><time>2026-04-04T09:33:41.999Z</time></trkpt><trkpt lat="42.40360727519087" lon="14.143945742840348"><ele>24.333333333333336</ele><time>2026-04-04T09:33:42.999Z</time></trkpt><trkpt lat="42.403473529128924" lon="14.143822183488973"><ele>24.0</ele><time>2026-04-04T09:33:43.999Z</time></trkpt><trkpt lat="42.40334094341985" lon="14.143700100803867"><ele>24.0</ele><time>2026-04-04T09:33:44.999Z</time></trkpt><trkpt lat="42.40320907965532" lon="14.143575794170953"><ele>24.0</ele><time>2026-04-04T09:33:45.999Z</time></trkpt><trkpt lat="42.403076235619615" lon="14.143450554129352"><ele>24.0</ele><time>2026-04-04T09:33:46.999Z</time></trkpt><trkpt lat="42.402942155212415" lon="14.143334410144345"><ele>24.0</ele><time>2026-04-04T09:33:47.999Z</time></trkpt><trkpt lat="42.4028153234709" lon="14.143207687541532"><ele>24.0</ele><time>2026-04-04T09:33:48.999Z</time></trkpt><trkpt lat="42.40267703598704" lon="14.143096482129467"><ele>24.0</ele><time>2026-04-04T09:33:49.999Z</time></trkpt><trkpt lat="42.402550377773494" lon="14.142995708740346"><ele>24.0</ele><time>2026-04-04T09:33:50.999Z</time></trkpt><trkpt lat="42.40241913619832" lon="14.142891331873876"><ele>24.0</ele><time>2026-04-04T09:33:51.999Z</time></trkpt><trkpt lat="42.402288016300034" lon="14.142787054914459"><ele>24.0</ele><time>2026-04-04T09:33:52.999Z</time></trkpt><trkpt lat="42.40214579439072" lon="14.142699787737504"><ele>23.75</ele><time>2026-04-04T09:33:53.999Z</time></trkpt><trkpt lat="42.402013382728725" lon="14.142599314381966"><ele>23.5</ele><time>2026-04-04T09:33:54.999Z</time></trkpt><trkpt lat="42.40189852751944" lon="14.142474289853006"><ele>23.25</ele><time>2026-04-04T09:33:55.999Z</time></trkpt><trkpt lat="42.4017835624254" lon="14.142375695063942"><ele>23.0</ele><time>2026-04-04T09:33:56.999Z</time></trkpt><trkpt lat="42.40168870879356" lon="14.142293708012307"><ele>23.4</ele><time>2026-04-04T09:33:57.999Z</time></trkpt><trkpt lat="42.4015989630399" lon="14.142215869731267"><ele>23.799999999999997</ele><time>2026-04-04T09:33:58.999Z</time></trkpt><trkpt lat="42.4015157765432" lon="14.142142709365732"><ele>24.2</ele><time>2026-04-04T09:33:59.999Z</time></trkpt><trkpt lat="42.401430941237386" lon="14.142067980628221"><ele>24.6</ele><time>2026-04-04T09:34:00.999Z</time></trkpt><trkpt lat="42.40135604593137" lon="14.14200200772111"><ele>25.0</ele><time>2026-04-04T09:34:01.999Z</time></trkpt><trkpt lat="42.40127523985347" lon="14.141930828201847"><ele>25.0</ele><time>2026-04-04T09:34:02.999Z</time></trkpt><trkpt lat="42.40118522304996" lon="14.141851535280086"><ele>25.0</ele><time>2026-04-04T09:34:03.999Z</time></trkpt><trkpt lat="42.40110034198466" lon="14.14177540274667"><ele>25.0</ele><time>2026-04-04T09:34:04.999Z</time></trkpt><trkpt lat="42.40100283271709" lon="14.141688331245444"><ele>25.0</ele><time>2026-04-04T09:34:05.999Z</time></trkpt><trkpt lat="42.40088598762091" lon="14.14158280290017"><ele>25.0</ele><time>2026-04-04T09:34:06.999Z</time></trkpt><trkpt lat="42.400773080718956" lon="14.14148060367865"><ele>25.0</ele><time>2026-04-04T09:34:07.999Z</time></trkpt><trkpt lat="42.4006688721813" lon="14.141386277904097"><ele>25.0</ele><time>2026-04-04T09:34:08.999Z</time></trkpt><trkpt lat="42.40056159754928" lon="14.141289477507236"><ele>25.0</ele><time>2026-04-04T09:34:09.999Z</time></trkpt><trkpt lat="42.40044799939253" lon="14.141187763583236"><ele>25.25</ele><time>2026-04-04T09:34:10.999Z</time></trkpt><trkpt lat="42.40032394791184" lon="14.141076689922167"><ele>25.5</ele><time>2026-04-04T09:34:11.999Z</time></trkpt><trkpt lat="42.40020912615452" lon="14.140974889163997"><ele>25.75</ele><time>2026-04-04T09:34:12.999Z</time></trkpt><trkpt lat="42.40011296072297" lon="14.140888912995822"><ele>26.0</ele><time>2026-04-04T09:34:13.999Z</time></trkpt><trkpt lat="42.40003308692299" lon="14.140817443426425"><ele>25.999999999999996</ele><time>2026-04-04T09:34:14.999Z</time></trkpt><trkpt lat="42.39995863274571" lon="14.140750109599198"><ele>26.0</ele><time>2026-04-04T09:34:15.999Z</time></trkpt><trkpt lat="42.39988862582839" lon="14.140687202444317"><ele>26.0</ele><time>2026-04-04T09:34:16.999Z</time></trkpt><trkpt lat="42.39982055001111" lon="14.14062603054438"><ele>26.0</ele><time>2026-04-04T09:34:17.999Z</time></trkpt><trkpt lat="42.399749820888594" lon="14.140561092619416"><ele>25.999999999999996</ele><time>2026-04-04T09:34:18.999Z</time></trkpt><trkpt lat="42.399680055914416" lon="14.140496850235602"><ele>26.0</ele><time>2026-04-04T09:34:20Z</time></trkpt><trkpt lat="42.399592762821904" lon="14.140416467260135"><ele>25.75</ele><time>2026-04-04T09:34:21Z</time></trkpt><trkpt lat="42.39947792276717" lon="14.140312676808497"><ele>25.5</ele><time>2026-04-04T09:34:22Z</time></trkpt><trkpt lat="42.399371122666146" lon="14.140218409047929"><ele>25.25</ele><time>2026-04-04T09:34:23Z</time></trkpt><trkpt lat="42.399279674292934" lon="14.140138754700747"><ele>25.0</ele><time>2026-04-04T09:34:24Z</time></trkpt><trkpt lat="42.39920309590337" lon="14.14007254994888"><ele>25.0</ele><time>2026-04-04T09:34:25Z</time></trkpt><trkpt lat="42.399128491919434" lon="14.140008119211458"><ele>25.0</ele><time>2026-04-04T09:34:27Z</time></trkpt><trkpt lat="42.39906215908729" lon="14.139952485174506"><ele>25.0</ele><time>2026-04-04T09:34:33Z</time></trkpt><trkpt lat="42.39891290295468" lon="14.140167920672175"><ele>25.0</ele><time>2026-04-04T09:34:35Z</time></trkpt><trkpt lat="42.398858913557476" lon="14.140266390299505"><ele>25.0</ele><time>2026-04-04T09:34:36Z</time></trkpt><trkpt lat="42.3988126936544" lon="14.14036662986705"><ele>25.0</ele><time>2026-04-04T09:34:37Z</time></trkpt><trkpt lat="42.39876217538457" lon="14.1404915109618"><ele>25.0</ele><time>2026-04-04T09:34:38Z</time></trkpt><trkpt lat="42.398681834844865" lon="14.140608187473694"><ele>25.0</ele><time>2026-04-04T09:34:39Z</time></trkpt><trkpt lat="42.39860723714228" lon="14.140743414647142"><ele>25.0</ele><time>2026-04-04T09:34:40Z</time></trkpt><trkpt lat="42.3985415222476" lon="14.140866747062196"><ele>25.0</ele><time>2026-04-04T09:34:41Z</time></trkpt><trkpt lat="42.39848129669308" lon="14.140979777173861"><ele>25.0</ele><time>2026-04-04T09:34:42Z</time></trkpt><trkpt lat="42.39841983802937" lon="14.141097386525766"><ele>25.0</ele><time>2026-04-04T09:34:43Z</time></trkpt><trkpt lat="42.39835696354349" lon="14.141252252788233"><ele>25.0</ele><time>2026-04-04T09:34:44Z</time></trkpt><trkpt lat="42.398276896876666" lon="14.141390067236472"><ele>25.0</ele><time>2026-04-04T09:34:45Z</time></trkpt><trkpt lat="42.3982073372253" lon="14.141518773559113"><ele>25.0</ele><time>2026-04-04T09:34:46Z</time></trkpt><trkpt lat="42.398144500811966" lon="14.14164130951771"><ele>25.0</ele><time>2026-04-04T09:34:47Z</time></trkpt><trkpt lat="42.39808328878323" lon="14.141763693100607"><ele>25.0</ele><time>2026-04-04T09:34:48Z</time></trkpt><trkpt lat="42.398013673216504" lon="14.141900251093505"><ele>24.666666666666668</ele><time>2026-04-04T09:34:49Z</time></trkpt><trkpt lat="42.39793174162072" lon="14.142058012501721"><ele>24.333333333333336</ele><time>2026-04-04T09:34:50Z</time></trkpt><trkpt lat="42.397835396413505" lon="14.142238146701242"><ele>24.0</ele><time>2026-04-04T09:34:51Z</time></trkpt><trkpt lat="42.39773947898151" lon="14.142424935196747"><ele>24.0</ele><time>2026-04-04T09:34:52Z</time></trkpt><trkpt lat="42.3976527455312" lon="14.142596870385367"><ele>24.0</ele><time>2026-04-04T09:34:53Z</time></trkpt><trkpt lat="42.397572183056226" lon="14.142754770436195"><ele>24.0</ele><time>2026-04-04T09:34:54Z</time></trkpt><trkpt lat="42.397490234609535" lon="14.142916257308476"><ele>24.0</ele><time>2026-04-04T09:34:55Z</time></trkpt><trkpt lat="42.39740322944964" lon="14.143078346673542"><ele>24.0</ele><time>2026-04-04T09:34:56Z</time></trkpt><trkpt lat="42.39731055647619" lon="14.143261483451635"><ele>24.0</ele><time>2026-04-04T09:34:57Z</time></trkpt><trkpt lat="42.39721682712609" lon="14.14344789332808"><ele>24.0</ele><time>2026-04-04T09:34:58Z</time></trkpt><trkpt lat="42.39711975007128" lon="14.143631624864453"><ele>24.333333333333336</ele><time>2026-04-04T09:34:59Z</time></trkpt><trkpt lat="42.39702296623056" lon="14.143811376086564"><ele>24.666666666666668</ele><time>2026-04-04T09:35:00Z</time></trkpt><trkpt lat="42.396933616560055" lon="14.143980831095929"><ele>25.0</ele><time>2026-04-04T09:35:01Z</time></trkpt><trkpt lat="42.39684512939983" lon="14.144149903260681"><ele>25.0</ele><time>2026-04-04T09:35:02Z</time></trkpt><trkpt lat="42.39675280438814" lon="14.144329865589535"><ele>25.0</ele><time>2026-04-04T09:35:03Z</time></trkpt><trkpt lat="42.39665951013941" lon="14.144525235912743"><ele>25.0</ele><time>2026-04-04T09:35:04Z</time></trkpt><trkpt lat="42.39656558650318" lon="14.144738606289375"><ele>24.333333333333336</ele><time>2026-04-04T09:35:05Z</time></trkpt><trkpt lat="42.39648670800075" lon="14.144940393083393"><ele>23.666666666666668</ele><time>2026-04-04T09:35:06Z</time></trkpt><trkpt lat="42.396413593277295" lon="14.145141077471425"><ele>23.0</ele><time>2026-04-04T09:35:07Z</time></trkpt><trkpt lat="42.396352320015296" lon="14.145334373989508"><ele>23.666666666666668</ele><time>2026-04-04T09:35:08Z</time></trkpt><trkpt lat="42.39630147198545" lon="14.14552479386362"><ele>24.333333333333336</ele><time>2026-04-04T09:35:09Z</time></trkpt><trkpt lat="42.39625366964964" lon="14.145718737579912"><ele>25.0</ele><time>2026-04-04T09:35:10Z</time></trkpt><trkpt lat="42.39621140410759" lon="14.145924346214867"><ele>26.0</ele><time>2026-04-04T09:35:11Z</time></trkpt><trkpt lat="42.39617067397888" lon="14.146145372458053"><ele>27.0</ele><time>2026-04-04T09:35:12Z</time></trkpt><trkpt lat="42.39613880298864" lon="14.146380174559939"><ele>28.0</ele><time>2026-04-04T09:35:13Z</time></trkpt><trkpt lat="42.39611598778994" lon="14.14662015911557"><ele>28.0</ele><time>2026-04-04T09:35:14Z</time></trkpt><trkpt lat="42.39609782702864" lon="14.14686951740934"><ele>28.0</ele><time>2026-04-04T09:35:15Z</time></trkpt><trkpt lat="42.39609039580902" lon="14.147119683301979"><ele>28.0</ele><time>2026-04-04T09:35:16Z</time></trkpt><trkpt lat="42.39609100289098" lon="14.147384170395133"><ele>27.333333333333336</ele><time>2026-04-04T09:35:17Z</time></trkpt><trkpt lat="42.39610742923593" lon="14.147642400113968"><ele>26.666666666666664</ele><time>2026-04-04T09:35:18Z</time></trkpt><trkpt lat="42.39613593585101" lon="14.14790401559753"><ele>26.0</ele><time>2026-04-04T09:35:19Z</time></trkpt><trkpt lat="42.39617387900514" lon="14.148170164869098"><ele>25.666666666666664</ele><time>2026-04-04T09:35:20Z</time></trkpt><trkpt lat="42.396219455197155" lon="14.148420960441252"><ele>25.333333333333336</ele><time>2026-04-04T09:35:21Z</time></trkpt><trkpt lat="42.39627365341145" lon="14.1486782348406"><ele>25.0</ele><time>2026-04-04T09:35:22Z</time></trkpt><trkpt lat="42.396337577798995" lon="14.148945089157387"><ele>25.0</ele><time>2026-04-04T09:35:23Z</time></trkpt><trkpt lat="42.39640404838516" lon="14.149215351158091"><ele>25.0</ele><time>2026-04-04T09:35:24Z</time></trkpt><trkpt lat="42.39647071014035" lon="14.14949106841839"><ele>25.0</ele><time>2026-04-04T09:35:25Z</time></trkpt><trkpt lat="42.396540958491535" lon="14.149768636715342"><ele>23.0</ele><time>2026-04-04T09:35:26Z</time></trkpt><trkpt lat="42.3965942231288" lon="14.150065741749874"><ele>21.0</ele><time>2026-04-04T09:35:27Z</time></trkpt><trkpt lat="42.396680051807465" lon="14.150359707606377"><ele>21.0</ele><time>2026-04-04T09:35:28Z</time></trkpt><trkpt lat="42.396747926259565" lon="14.15066974890036"><ele>21.0</ele><time>2026-04-04T09:35:29Z</time></trkpt><trkpt lat="42.39681644303781" lon="14.150993166021712"><ele>18.5</ele><time>2026-04-04T09:35:30Z</time></trkpt><trkpt lat="42.39688346170761" lon="14.15128930348571"><ele>16.0</ele><time>2026-04-04T09:35:31Z</time></trkpt><trkpt lat="42.39695181838911" lon="14.151588229890043"><ele>16.0</ele><time>2026-04-04T09:35:32Z</time></trkpt><trkpt lat="42.39701948964779" lon="14.15187724139614"><ele>16.0</ele><time>2026-04-04T09:35:33Z</time></trkpt><trkpt lat="42.3970862765973" lon="14.152151656408787"><ele>16.0</ele><time>2026-04-04T09:35:34Z</time></trkpt><trkpt lat="42.39715113469573" lon="14.152424521222695"><ele>15.0</ele><time>2026-04-04T09:35:35Z</time></trkpt><trkpt lat="42.39721515093572" lon="14.152707985767476"><ele>14.0</ele><time>2026-04-04T09:35:35.999Z</time></trkpt><trkpt lat="42.3972780104956" lon="14.152999081019004"><ele>13.0</ele><time>2026-04-04T09:35:36.999Z</time></trkpt><trkpt lat="42.397334931497355" lon="14.15326993352448"><ele>12.333333333333332</ele><time>2026-04-04T09:35:37.999Z</time></trkpt><trkpt lat="42.3973822524507" lon="14.153547900071064"><ele>11.666666666666666</ele><time>2026-04-04T09:35:38.999Z</time></trkpt><trkpt lat="42.39741979937903" lon="14.15382069871075"><ele>11.0</ele><time>2026-04-04T09:35:39.999Z</time></trkpt><trkpt lat="42.39745043576893" lon="14.154097496798705"><ele>11.0</ele><time>2026-04-04T09:35:40.999Z</time></trkpt><trkpt lat="42.397469207602335" lon="14.154377069535704"><ele>11.0</ele><time>2026-04-04T09:35:41.999Z</time></trkpt><trkpt lat="42.397477285449426" lon="14.154658210018038"><ele>11.0</ele><time>2026-04-04T09:35:42.999Z</time></trkpt><trkpt lat="42.39747717206332" lon="14.15494070284971"><ele>10.666666666666666</ele><time>2026-04-04T09:35:43.999Z</time></trkpt><trkpt lat="42.39746766484726" lon="14.155227627822283"><ele>10.333333333333334</ele><time>2026-04-04T09:35:44.999Z</time></trkpt><trkpt lat="42.397451575249335" lon="14.15551623953212"><ele>10.0</ele><time>2026-04-04T09:35:45.999Z</time></trkpt><trkpt lat="42.3974292008189" lon="14.155801272992065"><ele>10.0</ele><time>2026-04-04T09:35:46.999Z</time></trkpt><trkpt lat="42.39739984037648" lon="14.156091767511217"><ele>10.0</ele><time>2026-04-04T09:35:47.999Z</time></trkpt><trkpt lat="42.3973663847933" lon="14.156383409649994"><ele>10.0</ele><time>2026-04-04T09:35:48.999Z</time></trkpt><trkpt lat="42.39733576071723" lon="14.156674779638346"><ele>10.0</ele><time>2026-04-04T09:35:49.999Z</time></trkpt><trkpt lat="42.39730742674877" lon="14.156967169421181"><ele>10.0</ele><time>2026-04-04T09:35:50.999Z</time></trkpt><trkpt lat="42.39727820671318" lon="14.15725874888421"><ele>10.0</ele><time>2026-04-04T09:35:51.999Z</time></trkpt><trkpt lat="42.39724865572332" lon="14.157544669845196"><ele>11.333333333333334</ele><time>2026-04-04T09:35:52.999Z</time></trkpt><trkpt lat="42.39722022952077" lon="14.157811775160711"><ele>12.666666666666668</ele><time>2026-04-04T09:35:53.999Z</time></trkpt><trkpt lat="42.39719338205904" lon="14.158063074882895"><ele>14.0</ele><time>2026-04-04T09:35:54.999Z</time></trkpt><trkpt lat="42.397168533798144" lon="14.158313582557419"><ele>14.333333333333334</ele><time>2026-04-04T09:35:55.999Z</time></trkpt><trkpt lat="42.39714726806074" lon="14.15855300483242"><ele>14.666666666666668</ele><time>2026-04-04T09:35:56.999Z</time></trkpt><trkpt lat="42.397124287541956" lon="14.15878635395112"><ele>15.0</ele><time>2026-04-04T09:35:57.999Z</time></trkpt><trkpt lat="42.397101903192954" lon="14.159002181228676"><ele>15.0</ele><time>2026-04-04T09:35:58.999Z</time></trkpt><trkpt lat="42.397079064573155" lon="14.159199079807232"><ele>15.0</ele><time>2026-04-04T09:35:59.999Z</time></trkpt><trkpt lat="42.39705964133618" lon="14.159359329188673"><ele>15.0</ele><time>2026-04-04T09:36:00.999Z</time></trkpt><trkpt lat="42.397048268189636" lon="14.159503886843515"><ele>15.0</ele><time>2026-04-04T09:36:01.999Z</time></trkpt><trkpt lat="42.39703076419984" lon="14.15962914699066"><ele>15.0</ele><time>2026-04-04T09:36:02.999Z</time></trkpt><trkpt lat="42.396990767568234" lon="14.159731601710241"><ele>15.0</ele><time>2026-04-04T09:36:03.999Z</time></trkpt><trkpt lat="42.39691033624914" lon="14.159821957924922"><ele>15.0</ele><time>2026-04-04T09:36:04.999Z</time></trkpt><trkpt lat="42.39680134362657" lon="14.15991632883247"><ele>15.0</ele><time>2026-04-04T09:36:05.999Z</time></trkpt><trkpt lat="42.39668504415023" lon="14.160033400652527"><ele>16.333333333333332</ele><time>2026-04-04T09:36:06.999Z</time></trkpt><trkpt lat="42.39655681604342" lon="14.16017468184642"><ele>17.666666666666664</ele><time>2026-04-04T09:36:07.999Z</time></trkpt><trkpt lat="42.39641595181044" lon="14.160289864049243"><ele>19.0</ele><time>2026-04-04T09:36:08.999Z</time></trkpt><trkpt lat="42.39626829114437" lon="14.160416118637405"><ele>20.0</ele><time>2026-04-04T09:36:09.999Z</time></trkpt><trkpt lat="42.39612317131258" lon="14.160560032063719"><ele>21.0</ele><time>2026-04-04T09:36:10.999Z</time></trkpt><trkpt lat="42.39597612939857" lon="14.160719374331407"><ele>22.0</ele><time>2026-04-04T09:36:11.999Z</time></trkpt><trkpt lat="42.39583572874876" lon="14.160872891667443"><ele>23.666666666666664</ele><time>2026-04-04T09:36:12.999Z</time></trkpt><trkpt lat="42.39571076125645" lon="14.161008886051784"><ele>25.333333333333332</ele><time>2026-04-04T09:36:13.999Z</time></trkpt><trkpt lat="42.395590486163925" lon="14.161139170510102"><ele>27.0</ele><time>2026-04-04T09:36:14.999Z</time></trkpt><trkpt lat="42.39547800498906" lon="14.16125912914475"><ele>27.25</ele><time>2026-04-04T09:36:15.999Z</time></trkpt><trkpt lat="42.39536971075934" lon="14.161373084723442"><ele>27.5</ele><time>2026-04-04T09:36:16.999Z</time></trkpt><trkpt lat="42.39526969522254" lon="14.16147934253979"><ele>27.75</ele><time>2026-04-04T09:36:17.999Z</time></trkpt><trkpt lat="42.39517195927279" lon="14.161581703943114"><ele>28.0</ele><time>2026-04-04T09:36:18.999Z</time></trkpt><trkpt lat="42.39506793095942" lon="14.161691710085062"><ele>29.0</ele><time>2026-04-04T09:36:19.999Z</time></trkpt><trkpt lat="42.39497088375083" lon="14.16179911614275"><ele>30.0</ele><time>2026-04-04T09:36:20.999Z</time></trkpt><trkpt lat="42.39488033780794" lon="14.16190832701616"><ele>31.0</ele><time>2026-04-04T09:36:21.999Z</time></trkpt><trkpt lat="42.39479526221707" lon="14.162035315401585"><ele>32.0</ele><time>2026-04-04T09:36:22.999Z</time></trkpt><trkpt lat="42.394715210345964" lon="14.162190635908123"><ele>32.0</ele><time>2026-04-04T09:36:23.999Z</time></trkpt><trkpt lat="42.39463677599272" lon="14.162372790639402"><ele>32.0</ele><time>2026-04-04T09:36:24.999Z</time></trkpt><trkpt lat="42.39456698364029" lon="14.162559739867062"><ele>32.0</ele><time>2026-04-04T09:36:26Z</time></trkpt><trkpt lat="42.394503672876894" lon="14.162737581100203"><ele>32.0</ele><time>2026-04-04T09:36:27Z</time></trkpt><trkpt lat="42.39443800990896" lon="14.162905056671592"><ele>32.0</ele><time>2026-04-04T09:36:28Z</time></trkpt><trkpt lat="42.39437528883997" lon="14.163065228970721"><ele>32.0</ele><time>2026-04-04T09:36:29Z</time></trkpt><trkpt lat="42.39432283903957" lon="14.163219161000322"><ele>32.0</ele><time>2026-04-04T09:36:30Z</time></trkpt><trkpt lat="42.39428520393933" lon="14.163375276337234"><ele>32.5</ele><time>2026-04-04T09:36:31Z</time></trkpt><trkpt lat="42.3942727599377" lon="14.163539019987873"><ele>33.0</ele><time>2026-04-04T09:36:32Z</time></trkpt><trkpt lat="42.3942881730862" lon="14.163717754649625"><ele>33.5</ele><time>2026-04-04T09:36:33Z</time></trkpt><trkpt lat="42.39433040170031" lon="14.163894683249445"><ele>34.0</ele><time>2026-04-04T09:36:34Z</time></trkpt><trkpt lat="42.39439123914764" lon="14.164067825027598"><ele>33.75</ele><time>2026-04-04T09:36:35Z</time></trkpt><trkpt lat="42.394474063663026" lon="14.16421619900608"><ele>33.5</ele><time>2026-04-04T09:36:36Z</time></trkpt><trkpt lat="42.39457169210282" lon="14.164347280667823"><ele>33.25</ele><time>2026-04-04T09:36:37Z</time></trkpt><trkpt lat="42.39465615424704" lon="14.164478358726978"><ele>33.0</ele><time>2026-04-04T09:36:38Z</time></trkpt><trkpt lat="42.394722227334114" lon="14.164612477612415"><ele>33.0</ele><time>2026-04-04T09:36:39Z</time></trkpt><trkpt lat="42.39478133054371" lon="14.164747546470808"><ele>33.0</ele><time>2026-04-04T09:36:40Z</time></trkpt><trkpt lat="42.394832545531244" lon="14.164879076150056"><ele>33.0</ele><time>2026-04-04T09:36:41Z</time></trkpt><trkpt lat="42.39486064256279" lon="14.165015962575005"><ele>33.0</ele><time>2026-04-04T09:36:42Z</time></trkpt><trkpt lat="42.39487345733002" lon="14.16514176934867"><ele>33.0</ele><time>2026-04-04T09:36:43Z</time></trkpt><trkpt lat="42.394900121572455" lon="14.165237280672464"><ele>34.0</ele><time>2026-04-04T09:36:44Z</time></trkpt><trkpt lat="42.39495741723328" lon="14.165316036791847"><ele>35.0</ele><time>2026-04-04T09:36:45Z</time></trkpt><trkpt lat="42.39503501184944" lon="14.165357673697434"><ele>36.0</ele><time>2026-04-04T09:36:46Z</time></trkpt><trkpt lat="42.39511856190067" lon="14.165354964593254"><ele>37.0</ele><time>2026-04-04T09:36:47Z</time></trkpt><trkpt lat="42.395187888065536" lon="14.165322265919398"><ele>38.0</ele><time>2026-04-04T09:36:48Z</time></trkpt><trkpt lat="42.395248903859006" lon="14.165252243151413"><ele>39.0</ele><time>2026-04-04T09:36:49Z</time></trkpt><trkpt lat="42.39528580145992" lon="14.165170604200442"><ele>39.0</ele><time>2026-04-04T09:36:50Z</time></trkpt><trkpt lat="42.39530527307274" lon="14.16507796549635"><ele>39.0</ele><time>2026-04-04T09:36:51Z</time></trkpt><trkpt lat="42.395300556892835" lon="14.164977367534405"><ele>39.0</ele><time>2026-04-04T09:36:52Z</time></trkpt><trkpt lat="42.39527250710617" lon="14.164884002222808"><ele>39.0</ele><time>2026-04-04T09:36:53Z</time></trkpt><trkpt lat="42.39522912151986" lon="14.164804779335363"><ele>39.0</ele><time>2026-04-04T09:36:54Z</time></trkpt><trkpt lat="42.39516434467976" lon="14.164724158294538"><ele>39.0</ele><time>2026-04-04T09:36:55Z</time></trkpt><trkpt lat="42.39508906465732" lon="14.164658589718544"><ele>38.0</ele><time>2026-04-04T09:36:56Z</time></trkpt><trkpt lat="42.39502193650055" lon="14.164605482650089"><ele>37.0</ele><time>2026-04-04T09:36:57Z</time></trkpt><trkpt lat="42.39497025717413" lon="14.164535919406893"><ele>36.0</ele><time>2026-04-04T09:36:58Z</time></trkpt><trkpt lat="42.39493498830469" lon="14.16444622459046"><ele>35.0</ele><time>2026-04-04T09:36:59Z</time></trkpt><trkpt lat="42.39491455249901" lon="14.164348011980271"><ele>34.0</ele><time>2026-04-04T09:37:00Z</time></trkpt><trkpt lat="42.39489389864965" lon="14.164248998617536"><ele>33.0</ele><time>2026-04-04T09:37:01Z</time></trkpt><trkpt lat="42.39488040431856" lon="14.164146195221361"><ele>32.833333333333336</ele><time>2026-04-04T09:37:02Z</time></trkpt><trkpt lat="42.39488806585921" lon="14.16402404134381"><ele>32.666666666666664</ele><time>2026-04-04T09:37:03Z</time></trkpt><trkpt lat="42.394917704369554" lon="14.1639109811919"><ele>32.5</ele><time>2026-04-04T09:37:04Z</time></trkpt><trkpt lat="42.394947160266575" lon="14.16380633708835"><ele>32.33333333333333</ele><time>2026-04-04T09:37:05Z</time></trkpt><trkpt lat="42.394962844476005" lon="14.163707134208677"><ele>32.166666666666664</ele><time>2026-04-04T09:37:06Z</time></trkpt><trkpt lat="42.3949742215623" lon="14.163609489490673"><ele>32.0</ele><time>2026-04-04T09:37:07Z</time></trkpt><trkpt lat="42.394998402390826" lon="14.163526080885173"><ele>32.0</ele><time>2026-04-04T09:37:08Z</time></trkpt><trkpt lat="42.39504666388178" lon="14.163452679720903"><ele>31.999999999999996</ele><time>2026-04-04T09:37:09Z</time></trkpt><trkpt lat="42.39510642398255" lon="14.16338233429482"><ele>32.0</ele><time>2026-04-04T09:37:10Z</time></trkpt><trkpt lat="42.39516952060421" lon="14.163304073471265"><ele>32.0</ele><time>2026-04-04T09:37:11Z</time></trkpt><trkpt lat="42.39523186061623" lon="14.163235555145343"><ele>31.999999999999996</ele><time>2026-04-04T09:37:12Z</time></trkpt><trkpt lat="42.39528859330756" lon="14.163195364664452"><ele>32.0</ele><time>2026-04-04T09:37:13Z</time></trkpt><trkpt lat="42.395350216304436" lon="14.16317767661712"><ele>32.0</ele><time>2026-04-04T09:37:14Z</time></trkpt><trkpt lat="42.39542475901662" lon="14.163199815559402"><ele>32.0</ele><time>2026-04-04T09:37:15Z</time></trkpt><trkpt lat="42.39550210935996" lon="14.16325747407453"><ele>32.0</ele><time>2026-04-04T09:37:16Z</time></trkpt><trkpt lat="42.39559533211476" lon="14.163307956761882"><ele>32.0</ele><time>2026-04-04T09:37:17Z</time></trkpt><trkpt lat="42.3956807074374" lon="14.163388596161365"><ele>32.0</ele><time>2026-04-04T09:37:18Z</time></trkpt><trkpt lat="42.39578869633714" lon="14.163457845360261"><ele>32.0</ele><time>2026-04-04T09:37:19Z</time></trkpt><trkpt lat="42.395892790406656" lon="14.163534494587065"><ele>32.0</ele><time>2026-04-04T09:37:20Z</time></trkpt><trkpt lat="42.3959990804715" lon="14.163610984556584"><ele>32.0</ele><time>2026-04-04T09:37:21Z</time></trkpt><trkpt lat="42.39611138960615" lon="14.163695352081831"><ele>32.0</ele><time>2026-04-04T09:37:22Z</time></trkpt><trkpt lat="42.39621931697712" lon="14.163777448285485"><ele>32.0</ele><time>2026-04-04T09:37:23Z</time></trkpt><trkpt lat="42.39632318874852" lon="14.163856040907023"><ele>31.5</ele><time>2026-04-04T09:37:24Z</time></trkpt><trkpt lat="42.39642662499099" lon="14.163935045101494"><ele>31.0</ele><time>2026-04-04T09:37:25Z</time></trkpt><trkpt lat="42.3965325384794" lon="14.164013203911638"><ele>30.5</ele><time>2026-04-04T09:37:26Z</time></trkpt><trkpt lat="42.39663708850955" lon="14.164091257563744"><ele>30.0</ele><time>2026-04-04T09:37:27Z</time></trkpt><trkpt lat="42.39675421893344" lon="14.164179190743292"><ele>30.0</ele><time>2026-04-04T09:37:28Z</time></trkpt><trkpt lat="42.39687954126383" lon="14.164270541889652"><ele>30.0</ele><time>2026-04-04T09:37:29Z</time></trkpt><trkpt lat="42.39699599565691" lon="14.164357262580717"><ele>30.0</ele><time>2026-04-04T09:37:30Z</time></trkpt><trkpt lat="42.39710183740085" lon="14.164447389733214"><ele>30.0</ele><time>2026-04-04T09:37:31Z</time></trkpt><trkpt lat="42.39718664647445" lon="14.164537901448032"><ele>30.2</ele><time>2026-04-04T09:37:32Z</time></trkpt><trkpt lat="42.39725325436594" lon="14.164625680054012"><ele>30.4</ele><time>2026-04-04T09:37:33Z</time></trkpt><trkpt lat="42.39731095586509" lon="14.164717979257606"><ele>30.6</ele><time>2026-04-04T09:37:34Z</time></trkpt><trkpt lat="42.39733881401252" lon="14.164837453049119"><ele>30.8</ele><time>2026-04-04T09:37:35Z</time></trkpt><trkpt lat="42.39741051238511" lon="14.164946216156396"><ele>31.0</ele><time>2026-04-04T09:37:37Z</time></trkpt><trkpt lat="42.39749721859449" lon="14.16489049530131"><ele>30.4</ele><time>2026-04-04T09:37:39Z</time></trkpt><trkpt lat="42.39756335853956" lon="14.164734747131114"><ele>29.8</ele><time>2026-04-04T09:37:41Z</time></trkpt><trkpt lat="42.397539403742286" lon="14.164622909331195"><ele>29.199999999999996</ele><time>2026-04-04T09:37:42Z</time></trkpt><trkpt lat="42.3975123881295" lon="14.164528550159407"><ele>28.599999999999998</ele><time>2026-04-04T09:37:43Z</time></trkpt><trkpt lat="42.39760611983901" lon="14.164502737042739"><ele>28.0</ele><time>2026-04-04T09:37:44Z</time></trkpt><trkpt lat="42.39750188563536" lon="14.164349512399063"><ele>28.0</ele><time>2026-04-04T09:37:45Z</time></trkpt><trkpt lat="42.397519794950966" lon="14.164205693029713"><ele>27.999999999999996</ele><time>2026-04-04T09:37:47Z</time></trkpt><trkpt lat="42.39766624912378" lon="14.164182240713394"><ele>27.999999999999996</ele><time>2026-04-04T09:37:48.999Z</time></trkpt><trkpt lat="42.39758072570972" lon="14.164151882125472"><ele>28.0</ele><time>2026-04-04T09:38:26.999Z</time></trkpt><trkpt lat="42.39751182891524" lon="14.164084018827543"><ele>28.0</ele><time>2026-04-04T09:38:36Z</time></trkpt><trkpt lat="42.39748993243999" lon="14.164216331693018"><ele>28.0</ele><time>2026-04-04T09:43:25.042Z</time></trkpt><trkpt lat="42.39749414383518" lon="14.164121390483457"><ele>27.999999999999996</ele><time>2026-04-04T09:43:30.996Z</time></trkpt><trkpt lat="42.39755405260751" lon="14.164206619745936"><ele>27.999999999999996</ele><time>2026-04-04T09:48:29Z</time></trkpt><trkpt lat="42.39747328801035" lon="14.164028341480067"><ele>28.0</ele><time>2026-04-04T09:48:35.6Z</time></trkpt><trkpt lat="42.39748950217381" lon="14.164141924977026"><ele>28.0</ele><time>2026-04-04T10:15:30.972Z</time></trkpt><trkpt lat="42.39755268187481" lon="14.164168560929848"><ele>28.0</ele><time>2026-04-04T10:17:18.999Z</time></trkpt><trkpt lat="42.39754879200335" lon="14.164331822944893"><ele>28.0</ele><time>2026-04-04T10:17:20.999Z</time></trkpt><trkpt lat="42.39747433555473" lon="14.164423474961545"><ele>28.0</ele><time>2026-04-04T10:17:22.999Z</time></trkpt><trkpt lat="42.39738136014324" lon="14.16451388605525"><ele>28.0</ele><time>2026-04-04T10:17:42Z</time></trkpt><trkpt lat="42.397264318085725" lon="14.164520498647885"><ele>28.5</ele><time>2026-04-04T10:17:44Z</time></trkpt><trkpt lat="42.397164759736256" lon="14.164441376704175"><ele>29.0</ele><time>2026-04-04T10:17:45Z</time></trkpt><trkpt lat="42.397070719938164" lon="14.164323344754797"><ele>29.5</ele><time>2026-04-04T10:17:46Z</time></trkpt><trkpt lat="42.39695464356803" lon="14.16420562445324"><ele>30.0</ele><time>2026-04-04T10:17:47Z</time></trkpt><trkpt lat="42.396802607284215" lon="14.164094318072207"><ele>29.666666666666664</ele><time>2026-04-04T10:17:48Z</time></trkpt><trkpt lat="42.39665636042232" lon="14.163986282649756"><ele>29.333333333333332</ele><time>2026-04-04T10:17:49Z</time></trkpt><trkpt lat="42.39650540582568" lon="14.1638677437334"><ele>29.0</ele><time>2026-04-04T10:17:50Z</time></trkpt><trkpt lat="42.39638064671652" lon="14.163760755806214"><ele>29.75</ele><time>2026-04-04T10:17:51Z</time></trkpt><trkpt lat="42.39626006018538" lon="14.163664321672131"><ele>30.5</ele><time>2026-04-04T10:17:52Z</time></trkpt><trkpt lat="42.39613497564722" lon="14.163559149699783"><ele>31.25</ele><time>2026-04-04T10:17:53Z</time></trkpt><trkpt lat="42.39602523744868" lon="14.163467219773857"><ele>32.0</ele><time>2026-04-04T10:17:54Z</time></trkpt><trkpt lat="42.395917452503205" lon="14.163393728459168"><ele>32.0</ele><time>2026-04-04T10:17:55Z</time></trkpt><trkpt lat="42.39581516956674" lon="14.163327349603488"><ele>32.0</ele><time>2026-04-04T10:17:56Z</time></trkpt><trkpt lat="42.39571191737062" lon="14.163254810114102"><ele>32.0</ele><time>2026-04-04T10:17:57Z</time></trkpt><trkpt lat="42.395615409858436" lon="14.163184395315994"><ele>32.0</ele><time>2026-04-04T10:17:58Z</time></trkpt><trkpt lat="42.39552346697007" lon="14.16311597043691"><ele>32.0</ele><time>2026-04-04T10:17:59Z</time></trkpt><trkpt lat="42.39541866167389" lon="14.16303640652327"><ele>32.25</ele><time>2026-04-04T10:18:00Z</time></trkpt><trkpt lat="42.39530781230485" lon="14.162941187960971"><ele>32.5</ele><time>2026-04-04T10:18:01Z</time></trkpt><trkpt lat="42.39519146441194" lon="14.162849688061097"><ele>32.75</ele><time>2026-04-04T10:18:02Z</time></trkpt><trkpt lat="42.395053805202046" lon="14.162751760836905"><ele>33.0</ele><time>2026-04-04T10:18:03Z</time></trkpt><trkpt lat="42.39491339409513" lon="14.162659228827904"><ele>33.0</ele><time>2026-04-04T10:18:04Z</time></trkpt><trkpt lat="42.39478792894553" lon="14.162576808221544"><ele>33.0</ele><time>2026-04-04T10:18:05Z</time></trkpt><trkpt lat="42.394658447308004" lon="14.162477308677943"><ele>33.0</ele><time>2026-04-04T10:18:06Z</time></trkpt><trkpt lat="42.39453498410987" lon="14.162384645926167"><ele>33.0</ele><time>2026-04-04T10:18:07Z</time></trkpt><trkpt lat="42.39440256154441" lon="14.162262436710158"><ele>32.75</ele><time>2026-04-04T10:18:08Z</time></trkpt><trkpt lat="42.394311371989765" lon="14.16218790098832"><ele>32.5</ele><time>2026-04-04T10:18:09Z</time></trkpt><trkpt lat="42.39418304410231" lon="14.162108068926715"><ele>32.25</ele><time>2026-04-04T10:18:10Z</time></trkpt><trkpt lat="42.3940431043592" lon="14.162014446573052"><ele>32.0</ele><time>2026-04-04T10:18:11Z</time></trkpt><trkpt lat="42.39392402630038" lon="14.161927719478633"><ele>32.5</ele><time>2026-04-04T10:18:12Z</time></trkpt><trkpt lat="42.39380997442563" lon="14.161839692473814"><ele>33.0</ele><time>2026-04-04T10:18:13Z</time></trkpt><trkpt lat="42.39369311051294" lon="14.161759876209294"><ele>33.5</ele><time>2026-04-04T10:18:14Z</time></trkpt><trkpt lat="42.393586358645116" lon="14.16168376612115"><ele>34.0</ele><time>2026-04-04T10:18:15Z</time></trkpt><trkpt lat="42.3934785854488" lon="14.16159952821744"><ele>34.5</ele><time>2026-04-04T10:18:16Z</time></trkpt><trkpt lat="42.39335941274402" lon="14.161518452300827"><ele>35.0</ele><time>2026-04-04T10:18:17Z</time></trkpt><trkpt lat="42.39324533873599" lon="14.161439907410408"><ele>35.5</ele><time>2026-04-04T10:18:18Z</time></trkpt><trkpt lat="42.393137140386266" lon="14.161335170131094"><ele>36.0</ele><time>2026-04-04T10:18:19Z</time></trkpt><trkpt lat="42.39300081859868" lon="14.161231544232642"><ele>36.5</ele><time>2026-04-04T10:18:20Z</time></trkpt><trkpt lat="42.39287612455744" lon="14.161137238357117"><ele>37.0</ele><time>2026-04-04T10:18:21Z</time></trkpt><trkpt lat="42.39276167517836" lon="14.161050680513126"><ele>37.5</ele><time>2026-04-04T10:18:22Z</time></trkpt><trkpt lat="42.39265346420249" lon="14.160968840744168"><ele>38.0</ele><time>2026-04-04T10:18:23Z</time></trkpt><trkpt lat="42.39254616595965" lon="14.160887691283882"><ele>38.0</ele><time>2026-04-04T10:18:24Z</time></trkpt><trkpt lat="42.39241191037536" lon="14.160786153777769"><ele>38.0</ele><time>2026-04-04T10:18:24.999Z</time></trkpt><trkpt lat="42.39225266029111" lon="14.160666996600904"><ele>38.0</ele><time>2026-04-04T10:18:25.999Z</time></trkpt><trkpt lat="42.39209161124572" lon="14.160546258068013"><ele>36.666666666666664</ele><time>2026-04-04T10:18:26.999Z</time></trkpt><trkpt lat="42.39194764652202" lon="14.160438971649436"><ele>35.333333333333336</ele><time>2026-04-04T10:18:27.999Z</time></trkpt><trkpt lat="42.39181541343365" lon="14.160340347383327"><ele>34.0</ele><time>2026-04-04T10:18:28.999Z</time></trkpt><trkpt lat="42.39168649280497" lon="14.160244193710243"><ele>34.0</ele><time>2026-04-04T10:18:29.999Z</time></trkpt><trkpt lat="42.39155497864463" lon="14.160146105660482"><ele>34.0</ele><time>2026-04-04T10:18:30.999Z</time></trkpt><trkpt lat="42.39142945952709" lon="14.160052488947986"><ele>34.0</ele><time>2026-04-04T10:18:31.999Z</time></trkpt><trkpt lat="42.39130686987313" lon="14.15996075069892"><ele>34.0</ele><time>2026-04-04T10:18:32.999Z</time></trkpt><trkpt lat="42.39119052512503" lon="14.15987367158601"><ele>33.25</ele><time>2026-04-04T10:18:33.999Z</time></trkpt><trkpt lat="42.391068001372226" lon="14.159805214649445"><ele>32.5</ele><time>2026-04-04T10:18:34.999Z</time></trkpt><trkpt lat="42.390951876173915" lon="14.159719600545891"><ele>31.75</ele><time>2026-04-04T10:18:35.999Z</time></trkpt><trkpt lat="42.390842917004335" lon="14.159638206463878"><ele>31.0</ele><time>2026-04-04T10:18:36.999Z</time></trkpt><trkpt lat="42.39073970510082" lon="14.159556606454187"><ele>31.0</ele><time>2026-04-04T10:18:37.999Z</time></trkpt><trkpt lat="42.39063986042819" lon="14.159477897048943"><ele>31.0</ele><time>2026-04-04T10:18:38.999Z</time></trkpt><trkpt lat="42.39054154565736" lon="14.15940116401579"><ele>31.0</ele><time>2026-04-04T10:18:39.999Z</time></trkpt><trkpt lat="42.390434985805555" lon="14.15931967296827"><ele>31.0</ele><time>2026-04-04T10:18:40.999Z</time></trkpt><trkpt lat="42.390326558342394" lon="14.159239549620287"><ele>31.75</ele><time>2026-04-04T10:18:41.999Z</time></trkpt><trkpt lat="42.39021795119756" lon="14.159155149870992"><ele>32.5</ele><time>2026-04-04T10:18:42.999Z</time></trkpt><trkpt lat="42.3901084429683" lon="14.15906994080456"><ele>33.25</ele><time>2026-04-04T10:18:43.999Z</time></trkpt><trkpt lat="42.3899933736603" lon="14.158977462896118"><ele>34.0</ele><time>2026-04-04T10:18:44.999Z</time></trkpt><trkpt lat="42.389872706757274" lon="14.15887696078759"><ele>34.25</ele><time>2026-04-04T10:18:45.999Z</time></trkpt><trkpt lat="42.389760642098224" lon="14.158753631729606"><ele>34.5</ele><time>2026-04-04T10:18:46.999Z</time></trkpt><trkpt lat="42.38963916284868" lon="14.158638965490116"><ele>34.75</ele><time>2026-04-04T10:18:47.999Z</time></trkpt><trkpt lat="42.389505953589776" lon="14.158535706648822"><ele>35.0</ele><time>2026-04-04T10:18:48.999Z</time></trkpt><trkpt lat="42.38938992957099" lon="14.158427149867139"><ele>35.25</ele><time>2026-04-04T10:18:49.999Z</time></trkpt><trkpt lat="42.38928561573822" lon="14.158320730655289"><ele>35.5</ele><time>2026-04-04T10:18:50.999Z</time></trkpt><trkpt lat="42.38917681128268" lon="14.15822069200633"><ele>35.75</ele><time>2026-04-04T10:18:51.999Z</time></trkpt><trkpt lat="42.389074781422835" lon="14.158094055766698"><ele>36.0</ele><time>2026-04-04T10:18:52.999Z</time></trkpt><trkpt lat="42.38896114285133" lon="14.157983544056485"><ele>36.75</ele><time>2026-04-04T10:18:53.999Z</time></trkpt><trkpt lat="42.38884773568542" lon="14.157873257393062"><ele>37.5</ele><time>2026-04-04T10:18:54.999Z</time></trkpt><trkpt lat="42.38873564551561" lon="14.157764250645059"><ele>38.25</ele><time>2026-04-04T10:18:55.999Z</time></trkpt><trkpt lat="42.38863141700826" lon="14.157662954933006"><ele>39.0</ele><time>2026-04-04T10:18:56.999Z</time></trkpt><trkpt lat="42.388526029591276" lon="14.157560895152958"><ele>39.75</ele><time>2026-04-04T10:18:57.999Z</time></trkpt><trkpt lat="42.388414963894995" lon="14.157453178683829"><ele>40.5</ele><time>2026-04-04T10:18:58.999Z</time></trkpt><trkpt lat="42.38830385352712" lon="14.157345447056201"><ele>41.25</ele><time>2026-04-04T10:18:59.999Z</time></trkpt><trkpt lat="42.388188135123535" lon="14.157233247492293"><ele>42.0</ele><time>2026-04-04T10:19:00.999Z</time></trkpt><trkpt lat="42.38807478836282" lon="14.157122442706797"><ele>43.5</ele><time>2026-04-04T10:19:01.999Z</time></trkpt><trkpt lat="42.38795814485779" lon="14.157008167845941"><ele>45.0</ele><time>2026-04-04T10:19:02.999Z</time></trkpt><trkpt lat="42.387833312867976" lon="14.156913612869046"><ele>46.5</ele><time>2026-04-04T10:19:03.999Z</time></trkpt><trkpt lat="42.38771805782589" lon="14.156799711136909"><ele>48.0</ele><time>2026-04-04T10:19:04.999Z</time></trkpt><trkpt lat="42.38761376772398" lon="14.156670783932592"><ele>48.0</ele><time>2026-04-04T10:19:05.999Z</time></trkpt><trkpt lat="42.387508257758256" lon="14.156567416517445"><ele>48.0</ele><time>2026-04-04T10:19:06.999Z</time></trkpt><trkpt lat="42.38740193871617" lon="14.156463345330469"><ele>48.0</ele><time>2026-04-04T10:19:07.999Z</time></trkpt><trkpt lat="42.38727822581743" lon="14.156367131137987"><ele>48.0</ele><time>2026-04-04T10:19:08.999Z</time></trkpt><trkpt lat="42.38716834505404" lon="14.156259539076185"><ele>46.25</ele><time>2026-04-04T10:19:09.999Z</time></trkpt><trkpt lat="42.38706296235411" lon="14.156153464804081"><ele>44.5</ele><time>2026-04-04T10:19:10.999Z</time></trkpt><trkpt lat="42.38695460402545" lon="14.156052585024794"><ele>42.75</ele><time>2026-04-04T10:19:11.999Z</time></trkpt><trkpt lat="42.38684318943998" lon="14.155943168942796"><ele>41.0</ele><time>2026-04-04T10:19:12.999Z</time></trkpt><trkpt lat="42.3867349194156" lon="14.155809208932999"><ele>40.33333333333333</ele><time>2026-04-04T10:19:13.999Z</time></trkpt><trkpt lat="42.38660938961601" lon="14.155686099702121"><ele>39.666666666666664</ele><time>2026-04-04T10:19:14.999Z</time></trkpt><trkpt lat="42.38648515892537" lon="14.155564147854315"><ele>39.0</ele><time>2026-04-04T10:19:15.999Z</time></trkpt><trkpt lat="42.38635285155852" lon="14.155434383985066"><ele>38.666666666666664</ele><time>2026-04-04T10:19:16.999Z</time></trkpt><trkpt lat="42.386212128425406" lon="14.155319722448846"><ele>38.33333333333333</ele><time>2026-04-04T10:19:17.999Z</time></trkpt><trkpt lat="42.386086485178915" lon="14.15519890903531"><ele>38.0</ele><time>2026-04-04T10:19:18.999Z</time></trkpt><trkpt lat="42.385972300394656" lon="14.155089699120637"><ele>38.0</ele><time>2026-04-04T10:19:19.999Z</time></trkpt><trkpt lat="42.385872213180264" lon="14.154967245474479"><ele>38.0</ele><time>2026-04-04T10:19:20.999Z</time></trkpt><trkpt lat="42.38576329362413" lon="14.15486131551363"><ele>38.0</ele><time>2026-04-04T10:19:21.999Z</time></trkpt><trkpt lat="42.385648286735254" lon="14.154749514503164"><ele>38.0</ele><time>2026-04-04T10:19:22.999Z</time></trkpt><trkpt lat="42.385523189525195" lon="14.154651815549608"><ele>39.0</ele><time>2026-04-04T10:19:23.999Z</time></trkpt><trkpt lat="42.3854121290453" lon="14.154544020254484"><ele>40.0</ele><time>2026-04-04T10:19:24.999Z</time></trkpt><trkpt lat="42.38529833362746" lon="14.154435218885332"><ele>41.0</ele><time>2026-04-04T10:19:25.999Z</time></trkpt><trkpt lat="42.38520143451882" lon="14.154313299124452"><ele>42.0</ele><time>2026-04-04T10:19:26.999Z</time></trkpt><trkpt lat="42.38509844855273" lon="14.15421280307776"><ele>42.0</ele><time>2026-04-04T10:19:27.999Z</time></trkpt><trkpt lat="42.38500266059257" lon="14.154117610027136"><ele>42.0</ele><time>2026-04-04T10:19:28.999Z</time></trkpt><trkpt lat="42.38489855586431" lon="14.154030879639413"><ele>42.0</ele><time>2026-04-04T10:19:29.999Z</time></trkpt><trkpt lat="42.38479447631658" lon="14.153931840656183"><ele>42.0</ele><time>2026-04-04T10:19:30.999Z</time></trkpt><trkpt lat="42.38468519206515" lon="14.15380508122265"><ele>41.0</ele><time>2026-04-04T10:19:31.999Z</time></trkpt><trkpt lat="42.384565856088535" lon="14.153688014232047"><ele>40.0</ele><time>2026-04-04T10:19:32.999Z</time></trkpt><trkpt lat="42.38445049729439" lon="14.15357589791007"><ele>39.0</ele><time>2026-04-04T10:19:33.999Z</time></trkpt><trkpt lat="42.38433541092045" lon="14.153464046380194"><ele>38.0</ele><time>2026-04-04T10:19:34.999Z</time></trkpt><trkpt lat="42.38422407358874" lon="14.15335616868165"><ele>38.0</ele><time>2026-04-04T10:19:35.999Z</time></trkpt><trkpt lat="42.38411204816765" lon="14.153247624507099"><ele>38.0</ele><time>2026-04-04T10:19:36.999Z</time></trkpt><trkpt lat="42.384003274102916" lon="14.153142230651907"><ele>38.0</ele><time>2026-04-04T10:19:37.999Z</time></trkpt><trkpt lat="42.383895140088065" lon="14.15303757669697"><ele>38.0</ele><time>2026-04-04T10:19:38.998Z</time></trkpt><trkpt lat="42.383781480706396" lon="14.152927197390285"><ele>37.5</ele><time>2026-04-04T10:19:39.998Z</time></trkpt><trkpt lat="42.38366355027299" lon="14.152812469156455"><ele>37.0</ele><time>2026-04-04T10:19:40.998Z</time></trkpt><trkpt lat="42.38354406881965" lon="14.152696554289678"><ele>36.5</ele><time>2026-04-04T10:19:41.998Z</time></trkpt><trkpt lat="42.38342343674582" lon="14.152579672152797"><ele>36.0</ele><time>2026-04-04T10:19:42.998Z</time></trkpt><trkpt lat="42.383302892649795" lon="14.152462796782517"><ele>35.5</ele><time>2026-04-04T10:19:43.998Z</time></trkpt><trkpt lat="42.383188681717826" lon="14.152352057584455"><ele>35.0</ele><time>2026-04-04T10:19:44.998Z</time></trkpt><trkpt lat="42.38307912287129" lon="14.15224582908174"><ele>34.5</ele><time>2026-04-04T10:19:45.998Z</time></trkpt><trkpt lat="42.38297335094399" lon="14.15214327233884"><ele>34.0</ele><time>2026-04-04T10:19:46.998Z</time></trkpt><trkpt lat="42.382870356988015" lon="14.152043255647682"><ele>33.75</ele><time>2026-04-04T10:19:47.999Z</time></trkpt><trkpt lat="42.38276642739815" lon="14.151942007246477"><ele>33.5</ele><time>2026-04-04T10:19:48.999Z</time></trkpt><trkpt lat="42.38266198427" lon="14.151840258572165"><ele>33.25</ele><time>2026-04-04T10:19:49.999Z</time></trkpt><trkpt lat="42.38255825552201" lon="14.151739205857288"><ele>33.0</ele><time>2026-04-04T10:19:50.999Z</time></trkpt><trkpt lat="42.38245239331717" lon="14.15163607470747"><ele>32.75</ele><time>2026-04-04T10:19:51.999Z</time></trkpt><trkpt lat="42.38234532292779" lon="14.151531766559653"><ele>32.5</ele><time>2026-04-04T10:19:52.999Z</time></trkpt><trkpt lat="42.38223901371009" lon="14.15142819992652"><ele>32.25</ele><time>2026-04-04T10:19:53.999Z</time></trkpt><trkpt lat="42.382128627635666" lon="14.15132066166032"><ele>32.0</ele><time>2026-04-04T10:19:54.999Z</time></trkpt><trkpt lat="42.38200892735041" lon="14.15123094297806"><ele>32.75</ele><time>2026-04-04T10:19:55.999Z</time></trkpt><trkpt lat="42.3819102754012" lon="14.151107702739997"><ele>33.5</ele><time>2026-04-04T10:19:56.999Z</time></trkpt><trkpt lat="42.381806468734624" lon="14.151006954543137"><ele>34.25</ele><time>2026-04-04T10:19:57.999Z</time></trkpt><trkpt lat="42.38169707775416" lon="14.150927038532961"><ele>35.0</ele><time>2026-04-04T10:19:58.999Z</time></trkpt><trkpt lat="42.381597844845544" lon="14.150803765803401"><ele>35.0</ele><time>2026-04-04T10:19:59.999Z</time></trkpt><trkpt lat="42.38148166813262" lon="14.150716619975503"><ele>35.0</ele><time>2026-04-04T10:20:01Z</time></trkpt><trkpt lat="42.38136763070909" lon="14.150606376298406"><ele>35.0</ele><time>2026-04-04T10:20:02Z</time></trkpt><trkpt lat="42.381252154221364" lon="14.150494039557218"><ele>35.0</ele><time>2026-04-04T10:20:03Z</time></trkpt><trkpt lat="42.38115405730712" lon="14.15037142230021"><ele>34.5</ele><time>2026-04-04T10:20:04Z</time></trkpt><trkpt lat="42.38105151687222" lon="14.150271757197837"><ele>34.0</ele><time>2026-04-04T10:20:05Z</time></trkpt><trkpt lat="42.38094870424487" lon="14.150171827617836"><ele>33.5</ele><time>2026-04-04T10:20:06Z</time></trkpt><trkpt lat="42.38083111794897" lon="14.150091570323408"><ele>33.0</ele><time>2026-04-04T10:20:07Z</time></trkpt><trkpt lat="42.38073344191908" lon="14.149990857647365"><ele>33.0</ele><time>2026-04-04T10:20:08Z</time></trkpt><trkpt lat="42.380636674687054" lon="14.149893758746504"><ele>33.0</ele><time>2026-04-04T10:20:09Z</time></trkpt><trkpt lat="42.38054385635715" lon="14.149803995631702"><ele>33.0</ele><time>2026-04-04T10:20:10Z</time></trkpt><trkpt lat="42.38046008271697" lon="14.149693974136852"><ele>33.0</ele><time>2026-04-04T10:20:11Z</time></trkpt><trkpt lat="42.380367500104924" lon="14.149605109285602"><ele>33.25</ele><time>2026-04-04T10:20:12Z</time></trkpt><trkpt lat="42.38027661616815" lon="14.1495166476485"><ele>33.5</ele><time>2026-04-04T10:20:13Z</time></trkpt><trkpt lat="42.38018179433501" lon="14.149424158612579"><ele>33.75</ele><time>2026-04-04T10:20:14Z</time></trkpt><trkpt lat="42.38008030759603" lon="14.149325168616171"><ele>34.0</ele><time>2026-04-04T10:20:15Z</time></trkpt><trkpt lat="42.37998549117347" lon="14.149232773426414"><ele>34.0</ele><time>2026-04-04T10:20:16Z</time></trkpt><trkpt lat="42.37989018952531" lon="14.149139913901463"><ele>34.0</ele><time>2026-04-04T10:20:17Z</time></trkpt><trkpt lat="42.37979329655346" lon="14.149045529341349"><ele>34.0</ele><time>2026-04-04T10:20:18Z</time></trkpt><trkpt lat="42.37969317092942" lon="14.148948114780236"><ele>34.0</ele><time>2026-04-04T10:20:19Z</time></trkpt><trkpt lat="42.379595968447326" lon="14.148853544229405"><ele>34.25</ele><time>2026-04-04T10:20:20Z</time></trkpt><trkpt lat="42.37949682506636" lon="14.14875708532146"><ele>34.5</ele><time>2026-04-04T10:20:21Z</time></trkpt><trkpt lat="42.379392481302574" lon="14.148655566359828"><ele>34.75</ele><time>2026-04-04T10:20:22Z</time></trkpt><trkpt lat="42.379280259932386" lon="14.14854617821705"><ele>35.0</ele><time>2026-04-04T10:20:23Z</time></trkpt><trkpt lat="42.37915388222556" lon="14.148423050005613"><ele>35.0</ele><time>2026-04-04T10:20:24Z</time></trkpt><trkpt lat="42.37902252009574" lon="14.148295065502994"><ele>35.0</ele><time>2026-04-04T10:20:25Z</time></trkpt><trkpt lat="42.37888925630984" lon="14.148165228281108"><ele>35.0</ele><time>2026-04-04T10:20:26Z</time></trkpt><trkpt lat="42.378763919411085" lon="14.148043114088667"><ele>35.0</ele><time>2026-04-04T10:20:27Z</time></trkpt><trkpt lat="42.37864906277669" lon="14.147931210689434"><ele>35.0</ele><time>2026-04-04T10:20:27.999Z</time></trkpt><trkpt lat="42.37853621049985" lon="14.147821260143846"><ele>35.0</ele><time>2026-04-04T10:20:28.999Z</time></trkpt><trkpt lat="42.378429935360884" lon="14.147717311197983"><ele>35.0</ele><time>2026-04-04T10:20:29.999Z</time></trkpt><trkpt lat="42.378327537562065" lon="14.147616932817211"><ele>35.0</ele><time>2026-04-04T10:20:30.999Z</time></trkpt><trkpt lat="42.378216891513134" lon="14.14750846887768"><ele>35.0</ele><time>2026-04-04T10:20:31.999Z</time></trkpt><trkpt lat="42.37809678258968" lon="14.147390728073956"><ele>35.0</ele><time>2026-04-04T10:20:32.999Z</time></trkpt><trkpt lat="42.37796427928074" lon="14.147261265667147"><ele>35.0</ele><time>2026-04-04T10:20:33.999Z</time></trkpt><trkpt lat="42.377828258322836" lon="14.147128060668921"><ele>35.666666666666664</ele><time>2026-04-04T10:20:34.999Z</time></trkpt><trkpt lat="42.37769066686155" lon="14.14699331767434"><ele>36.333333333333336</ele><time>2026-04-04T10:20:35.999Z</time></trkpt><trkpt lat="42.37756163077453" lon="14.1468669529459"><ele>37.0</ele><time>2026-04-04T10:20:36.999Z</time></trkpt><trkpt lat="42.37743690748766" lon="14.146745202492705"><ele>37.0</ele><time>2026-04-04T10:20:37.999Z</time></trkpt><trkpt lat="42.3773167273536" lon="14.14662827827855"><ele>37.0</ele><time>2026-04-04T10:20:38.999Z</time></trkpt><trkpt lat="42.37720368920225" lon="14.146518302551984"><ele>37.0</ele><time>2026-04-04T10:20:39.999Z</time></trkpt><trkpt lat="42.377092043205906" lon="14.146409681295044"><ele>37.0</ele><time>2026-04-04T10:20:40.999Z</time></trkpt><trkpt lat="42.37697898248848" lon="14.146299682935213"><ele>37.0</ele><time>2026-04-04T10:20:41.999Z</time></trkpt><trkpt lat="42.376871044480744" lon="14.146194334077737"><ele>37.0</ele><time>2026-04-04T10:20:42.999Z</time></trkpt><trkpt lat="42.37676568174065" lon="14.146091616852601"><ele>37.0</ele><time>2026-04-04T10:20:43.999Z</time></trkpt><trkpt lat="42.37666476177472" lon="14.145993230851513"><ele>37.0</ele><time>2026-04-04T10:20:44.999Z</time></trkpt><trkpt lat="42.37656448949453" lon="14.145895553569353"><ele>37.0</ele><time>2026-04-04T10:20:45.999Z</time></trkpt><trkpt lat="42.37645845894592" lon="14.145792318220687"><ele>37.0</ele><time>2026-04-04T10:20:46.999Z</time></trkpt><trkpt lat="42.3763494014927" lon="14.14568613576889"><ele>37.0</ele><time>2026-04-04T10:20:47.999Z</time></trkpt><trkpt lat="42.376236344119725" lon="14.145576058863611"><ele>37.0</ele><time>2026-04-04T10:20:48.999Z</time></trkpt><trkpt lat="42.376122556642486" lon="14.145465271087689"><ele>36.75</ele><time>2026-04-04T10:20:49.999Z</time></trkpt><trkpt lat="42.37601337418876" lon="14.145359308476753"><ele>36.5</ele><time>2026-04-04T10:20:50.999Z</time></trkpt><trkpt lat="42.37591188052961" lon="14.145260822265186"><ele>36.25</ele><time>2026-04-04T10:20:51.999Z</time></trkpt><trkpt lat="42.37581325694459" lon="14.145165121062194"><ele>36.0</ele><time>2026-04-04T10:20:52.999Z</time></trkpt><trkpt lat="42.37571547552951" lon="14.145071771469995"><ele>36.0</ele><time>2026-04-04T10:20:53.999Z</time></trkpt><trkpt lat="42.37561587196084" lon="14.1449848690205"><ele>36.0</ele><time>2026-04-04T10:20:54.999Z</time></trkpt><trkpt lat="42.37551591111341" lon="14.14493536839809"><ele>36.0</ele><time>2026-04-04T10:20:55.999Z</time></trkpt><trkpt lat="42.375449533994136" lon="14.144892408908122"><ele>36.0</ele><time>2026-04-04T10:20:56.999Z</time></trkpt><trkpt lat="42.375387940771695" lon="14.144821629749211"><ele>36.0</ele><time>2026-04-04T10:20:59.999Z</time></trkpt><trkpt lat="42.37532405364708" lon="14.144757185012262"><ele>35.8</ele><time>2026-04-04T10:21:00.999Z</time></trkpt><trkpt lat="42.375235911094904" lon="14.144705239703457"><ele>35.6</ele><time>2026-04-04T10:21:01.999Z</time></trkpt><trkpt lat="42.37516787478078" lon="14.14464243919745"><ele>35.4</ele><time>2026-04-04T10:21:02.999Z</time></trkpt><trkpt lat="42.37508535969245" lon="14.144567493335176"><ele>35.2</ele><time>2026-04-04T10:21:03.999Z</time></trkpt><trkpt lat="42.37497924011718" lon="14.144495920921644"><ele>35.0</ele><time>2026-04-04T10:21:04.999Z</time></trkpt><trkpt lat="42.374872754020544" lon="14.144434118706364"><ele>35.0</ele><time>2026-04-04T10:21:05.999Z</time></trkpt><trkpt lat="42.37476279316028" lon="14.144373461452698"><ele>35.0</ele><time>2026-04-04T10:21:06.999Z</time></trkpt><trkpt lat="42.37464964405374" lon="14.144315329321937"><ele>35.0</ele><time>2026-04-04T10:21:07.999Z</time></trkpt><trkpt lat="42.37453478377927" lon="14.144259699141802"><ele>35.0</ele><time>2026-04-04T10:21:08.999Z</time></trkpt><trkpt lat="42.37442942431458" lon="14.144212339019262"><ele>36.0</ele><time>2026-04-04T10:21:09.999Z</time></trkpt><trkpt lat="42.374322695443055" lon="14.144166137516576"><ele>37.0</ele><time>2026-04-04T10:21:10.999Z</time></trkpt><trkpt lat="42.37419981022055" lon="14.144150788770919"><ele>38.0</ele><time>2026-04-04T10:21:11.999Z</time></trkpt><trkpt lat="42.37409016019005" lon="14.144094291389697"><ele>39.0</ele><time>2026-04-04T10:21:12.999Z</time></trkpt><trkpt lat="42.37398494571625" lon="14.144061526361911"><ele>39.0</ele><time>2026-04-04T10:21:13.999Z</time></trkpt><trkpt lat="42.37388392078239" lon="14.144029514148613"><ele>39.0</ele><time>2026-04-04T10:21:14.999Z</time></trkpt><trkpt lat="42.37378545485277" lon="14.143999335271957"><ele>39.0</ele><time>2026-04-04T10:21:15.999Z</time></trkpt><trkpt lat="42.37368813627509" lon="14.14398879438352"><ele>39.0</ele><time>2026-04-04T10:21:16.999Z</time></trkpt><trkpt lat="42.37359894936135" lon="14.143956024321133"><ele>39.0</ele><time>2026-04-04T10:21:17.999Z</time></trkpt><trkpt lat="42.373513444901924" lon="14.14393456560395"><ele>39.0</ele><time>2026-04-04T10:21:18.999Z</time></trkpt><trkpt lat="42.37342045703863" lon="14.14390924054517"><ele>39.0</ele><time>2026-04-04T10:21:19.999Z</time></trkpt><trkpt lat="42.373307601242864" lon="14.143852620251806"><ele>39.0</ele><time>2026-04-04T10:21:20.999Z</time></trkpt><trkpt lat="42.373187249849686" lon="14.143846951641644"><ele>39.0</ele><time>2026-04-04T10:21:21.999Z</time></trkpt><trkpt lat="42.37308606219106" lon="14.143813585114167"><ele>39.0</ele><time>2026-04-04T10:21:22.999Z</time></trkpt><trkpt lat="42.37299404599979" lon="14.143778458601755"><ele>39.0</ele><time>2026-04-04T10:21:23.999Z</time></trkpt><trkpt lat="42.372916180660965" lon="14.143750452895437"><ele>39.0</ele><time>2026-04-04T10:21:24.999Z</time></trkpt><trkpt lat="42.372852926144496" lon="14.143729091865456"><ele>39.0</ele><time>2026-04-04T10:21:25.999Z</time></trkpt><trkpt lat="42.37277973810317" lon="14.143697990907757"><ele>39.0</ele><time>2026-04-04T10:21:27.999Z</time></trkpt><trkpt lat="42.37270039734114" lon="14.143652474667226"><ele>39.0</ele><time>2026-04-04T10:21:30.999Z</time></trkpt><trkpt lat="42.372596913484465" lon="14.143570265183616"><ele>39.0</ele><time>2026-04-04T10:21:32.999Z</time></trkpt><trkpt lat="42.37244616547875" lon="14.143574767193757"><ele>39.0</ele><time>2026-04-04T10:21:34.999Z</time></trkpt><trkpt lat="42.37236539198518" lon="14.143630088347605"><ele>39.0</ele><time>2026-04-04T10:21:35.999Z</time></trkpt><trkpt lat="42.372240369093376" lon="14.14351842803218"><ele>39.0</ele><time>2026-04-04T10:21:36.999Z</time></trkpt><trkpt lat="42.37210836198527" lon="14.143476495828713"><ele>39.0</ele><time>2026-04-04T10:21:37.999Z</time></trkpt><trkpt lat="42.37198980210359" lon="14.143438777207285"><ele>39.4</ele><time>2026-04-04T10:21:38.999Z</time></trkpt><trkpt lat="42.37187911726675" lon="14.143404901636325"><ele>39.8</ele><time>2026-04-04T10:21:39.999Z</time></trkpt><trkpt lat="42.371774737815954" lon="14.143372923036273"><ele>40.199999999999996</ele><time>2026-04-04T10:21:40.999Z</time></trkpt><trkpt lat="42.371677832883165" lon="14.143343234381762"><ele>40.599999999999994</ele><time>2026-04-04T10:21:41.999Z</time></trkpt><trkpt lat="42.37157953692859" lon="14.143313119444205"><ele>41.0</ele><time>2026-04-04T10:21:42.999Z</time></trkpt><trkpt lat="42.37148656737205" lon="14.14328493506146"><ele>41.0</ele><time>2026-04-04T10:21:43.999Z</time></trkpt><trkpt lat="42.37139385769979" lon="14.14325675585765"><ele>41.0</ele><time>2026-04-04T10:21:44.999Z</time></trkpt><trkpt lat="42.371304446949374" lon="14.143229581475786"><ele>41.0</ele><time>2026-04-04T10:21:45.999Z</time></trkpt><trkpt lat="42.37122674798028" lon="14.143205966627384"><ele>41.0</ele><time>2026-04-04T10:21:46.999Z</time></trkpt><trkpt lat="42.37115010130372" lon="14.14318267145404"><ele>41.0</ele><time>2026-04-04T10:21:47.999Z</time></trkpt><trkpt lat="42.371083332762474" lon="14.14316229778062"><ele>41.0</ele><time>2026-04-04T10:21:48.999Z</time></trkpt><trkpt lat="42.37102125610047" lon="14.143143376214466"><ele>40.599999999999994</ele><time>2026-04-04T10:21:49.999Z</time></trkpt><trkpt lat="42.37093904976844" lon="14.143118318927288"><ele>40.199999999999996</ele><time>2026-04-04T10:21:51.999Z</time></trkpt><trkpt lat="42.37081841151179" lon="14.143081576551602"><ele>39.8</ele><time>2026-04-04T10:21:54Z</time></trkpt><trkpt lat="42.370723244651096" lon="14.143052725200933"><ele>39.4</ele><time>2026-04-04T10:21:55Z</time></trkpt><trkpt lat="42.37062910355726" lon="14.143024184832495"><ele>39.0</ele><time>2026-04-04T10:21:56Z</time></trkpt><trkpt lat="42.37053700433419" lon="14.14299626346333"><ele>39.333333333333336</ele><time>2026-04-04T10:21:57Z</time></trkpt><trkpt lat="42.370450990444304" lon="14.14297018863456"><ele>39.666666666666664</ele><time>2026-04-04T10:21:58Z</time></trkpt><trkpt lat="42.3703680178273" lon="14.142945034150294"><ele>40.0</ele><time>2026-04-04T10:21:59Z</time></trkpt><trkpt lat="42.37029184327054" lon="14.142921940623284"><ele>40.33333333333333</ele><time>2026-04-04T10:22:00Z</time></trkpt><trkpt lat="42.370217588922756" lon="14.142899429174037"><ele>40.666666666666664</ele><time>2026-04-04T10:22:01Z</time></trkpt><trkpt lat="42.37014640200101" lon="14.142877847774699"><ele>41.0</ele><time>2026-04-04T10:22:02Z</time></trkpt><trkpt lat="42.37008334935828" lon="14.142858732318919"><ele>41.0</ele><time>2026-04-04T10:22:03Z</time></trkpt><trkpt lat="42.369955824081124" lon="14.142820071018184"><ele>41.0</ele><time>2026-04-04T10:22:05Z</time></trkpt><trkpt lat="42.36986381845844" lon="14.142792178278025"><ele>41.0</ele><time>2026-04-04T10:22:06Z</time></trkpt><trkpt lat="42.36975317256809" lon="14.142758396042023"><ele>41.0</ele><time>2026-04-04T10:22:07Z</time></trkpt><trkpt lat="42.36962807034251" lon="14.14272022711183"><ele>40.5</ele><time>2026-04-04T10:22:08Z</time></trkpt><trkpt lat="42.36949082167739" lon="14.14267835228625"><ele>40.0</ele><time>2026-04-04T10:22:09Z</time></trkpt><trkpt lat="42.36936456923546" lon="14.142639832423532"><ele>39.5</ele><time>2026-04-04T10:22:10Z</time></trkpt><trkpt lat="42.369238374954485" lon="14.14260133030319"><ele>39.0</ele><time>2026-04-04T10:22:11Z</time></trkpt><trkpt lat="42.36911247119835" lon="14.142562916825112"><ele>39.0</ele><time>2026-04-04T10:22:12Z</time></trkpt><trkpt lat="42.36899287575173" lon="14.142526428015573"><ele>39.0</ele><time>2026-04-04T10:22:13Z</time></trkpt><trkpt lat="42.36888021626394" lon="14.142492110280815"><ele>39.0</ele><time>2026-04-04T10:22:14Z</time></trkpt><trkpt lat="42.36877265135147" lon="14.1424593467215"><ele>39.0</ele><time>2026-04-04T10:22:15Z</time></trkpt><trkpt lat="42.36867177315514" lon="14.142428619858856"><ele>39.0</ele><time>2026-04-04T10:22:16Z</time></trkpt><trkpt lat="42.368571455827706" lon="14.142398063854888"><ele>39.0</ele><time>2026-04-04T10:22:17Z</time></trkpt><trkpt lat="42.36847711726329" lon="14.142369328921717"><ele>39.0</ele><time>2026-04-04T10:22:18Z</time></trkpt><trkpt lat="42.36838877900165" lon="14.142342421653204"><ele>39.0</ele><time>2026-04-04T10:22:19Z</time></trkpt><trkpt lat="42.368311543626554" lon="14.14231889624925"><ele>39.0</ele><time>2026-04-04T10:22:20Z</time></trkpt><trkpt lat="42.36822046541596" lon="14.142291154406754"><ele>39.0</ele><time>2026-04-04T10:22:22Z</time></trkpt><trkpt lat="42.36814095746636" lon="14.142266936798034"><ele>39.0</ele><time>2026-04-04T10:22:24Z</time></trkpt><trkpt lat="42.368025834787666" lon="14.14223187117218"><ele>39.0</ele><time>2026-04-04T10:22:26Z</time></trkpt><trkpt lat="42.36796217096294" lon="14.142212448551094"><ele>39.0</ele><time>2026-04-04T10:22:27Z</time></trkpt><trkpt lat="42.36788022055522" lon="14.14218743884799"><ele>39.0</ele><time>2026-04-04T10:22:28Z</time></trkpt><trkpt lat="42.36778112900904" lon="14.142157198045943"><ele>39.0</ele><time>2026-04-04T10:22:29Z</time></trkpt><trkpt lat="42.367664681442434" lon="14.142121660488174"><ele>39.0</ele><time>2026-04-04T10:22:30Z</time></trkpt><trkpt lat="42.367534232811224" lon="14.14208185009404"><ele>39.0</ele><time>2026-04-04T10:22:31Z</time></trkpt><trkpt lat="42.36739425197095" lon="14.142039130659398"><ele>39.0</ele><time>2026-04-04T10:22:32Z</time></trkpt><trkpt lat="42.367262171574744" lon="14.14199882228537"><ele>39.0</ele><time>2026-04-04T10:22:33Z</time></trkpt><trkpt lat="42.36714892326017" lon="14.141964305527903"><ele>39.0</ele><time>2026-04-04T10:22:34Z</time></trkpt><trkpt lat="42.36704900797888" lon="14.141933863637776"><ele>39.0</ele><time>2026-04-04T10:22:35Z</time></trkpt><trkpt lat="42.36696600044934" lon="14.141908573151644"><ele>39.0</ele><time>2026-04-04T10:22:36Z</time></trkpt><trkpt lat="42.36689957267108" lon="14.141888334143674"><ele>39.0</ele><time>2026-04-04T10:22:37Z</time></trkpt><trkpt lat="42.36680127341319" lon="14.141858384601692"><ele>39.0</ele><time>2026-04-04T10:22:39Z</time></trkpt><trkpt lat="42.366735323866706" lon="14.141838770375559"><ele>39.0</ele><time>2026-04-04T10:22:40Z</time></trkpt><trkpt lat="42.36666956320833" lon="14.14181933133954"><ele>39.0</ele><time>2026-04-04T10:22:41Z</time></trkpt><trkpt lat="42.366555199883145" lon="14.14178467747109"><ele>39.0</ele><time>2026-04-04T10:22:43Z</time></trkpt><trkpt lat="42.36648067614448" lon="14.141762074260361"><ele>39.0</ele><time>2026-04-04T10:22:44Z</time></trkpt><trkpt lat="42.36639537842139" lon="14.14173620330846"><ele>39.0</ele><time>2026-04-04T10:22:45Z</time></trkpt><trkpt lat="42.36631744287675" lon="14.141712565265536"><ele>39.0</ele><time>2026-04-04T10:22:46Z</time></trkpt><trkpt lat="42.36624583904895" lon="14.141690847666558"><ele>39.0</ele><time>2026-04-04T10:22:47Z</time></trkpt><trkpt lat="42.366179327754764" lon="14.141670674659348"><ele>39.0</ele><time>2026-04-04T10:22:48Z</time></trkpt><trkpt lat="42.36610542871264" lon="14.141648413443558"><ele>39.0</ele><time>2026-04-04T10:22:49Z</time></trkpt><trkpt lat="42.366007217218446" lon="14.14161884182516"><ele>39.0</ele><time>2026-04-04T10:22:50Z</time></trkpt><trkpt lat="42.3658878127494" lon="14.141582888941883"><ele>39.0</ele><time>2026-04-04T10:22:51Z</time></trkpt><trkpt lat="42.36576743593742" lon="14.141546643294614"><ele>39.0</ele><time>2026-04-04T10:22:52Z</time></trkpt><trkpt lat="42.36566358056288" lon="14.141515372284362"><ele>39.0</ele><time>2026-04-04T10:22:53Z</time></trkpt><trkpt lat="42.36556939942958" lon="14.141487015917281"><ele>39.0</ele><time>2026-04-04T10:22:54Z</time></trkpt><trkpt lat="42.36547828785659" lon="14.141459582021579"><ele>39.0</ele><time>2026-04-04T10:22:55Z</time></trkpt><trkpt lat="42.36539573668979" lon="14.14143474217593"><ele>39.0</ele><time>2026-04-04T10:22:56Z</time></trkpt><trkpt lat="42.3653207429901" lon="14.141412189570346"><ele>39.333333333333336</ele><time>2026-04-04T10:22:57Z</time></trkpt><trkpt lat="42.36525050917469" lon="14.141391068412878"><ele>39.666666666666664</ele><time>2026-04-04T10:22:58Z</time></trkpt><trkpt lat="42.365162019625814" lon="14.141364457192882"><ele>40.0</ele><time>2026-04-04T10:22:59Z</time></trkpt><trkpt lat="42.36506413283224" lon="14.141335019991564"><ele>40.33333333333333</ele><time>2026-04-04T10:23:00Z</time></trkpt><trkpt lat="42.36497561054356" lon="14.141308398935053"><ele>40.666666666666664</ele><time>2026-04-04T10:23:01Z</time></trkpt><trkpt lat="42.36488743431187" lon="14.141281881976958"><ele>41.0</ele><time>2026-04-04T10:23:02Z</time></trkpt><trkpt lat="42.36479894910475" lon="14.141255272103434"><ele>41.0</ele><time>2026-04-04T10:23:02.999Z</time></trkpt><trkpt lat="42.36471093780993" lon="14.1412288047357"><ele>41.0</ele><time>2026-04-04T10:23:03.999Z</time></trkpt><trkpt lat="42.36463545041917" lon="14.141206103602363"><ele>41.0</ele><time>2026-04-04T10:23:04.999Z</time></trkpt><trkpt lat="42.36454637751171" lon="14.141178609246838"><ele>41.0</ele><time>2026-04-04T10:23:05.999Z</time></trkpt><trkpt lat="42.3644492382718" lon="14.141197056348355"><ele>41.0</ele><time>2026-04-04T10:23:06.999Z</time></trkpt><trkpt lat="42.3643560539746" lon="14.141170792393664"><ele>40.83333333333333</ele><time>2026-04-04T10:23:07.999Z</time></trkpt><trkpt lat="42.36427127904746" lon="14.141142695562031"><ele>40.666666666666664</ele><time>2026-04-04T10:23:08.999Z</time></trkpt><trkpt lat="42.36418685501974" lon="14.14111271648037"><ele>40.5</ele><time>2026-04-04T10:23:09.999Z</time></trkpt><trkpt lat="42.36409879891602" lon="14.141085237199558"><ele>40.333333333333336</ele><time>2026-04-04T10:23:10.999Z</time></trkpt><trkpt lat="42.36401242254878" lon="14.14105788113125"><ele>40.16666666666667</ele><time>2026-04-04T10:23:11.999Z</time></trkpt><trkpt lat="42.36392316576855" lon="14.141028397901232"><ele>40.0</ele><time>2026-04-04T10:23:12.999Z</time></trkpt><trkpt lat="42.363839388429646" lon="14.14096092566751"><ele>40.4</ele><time>2026-04-04T10:23:13.999Z</time></trkpt><trkpt lat="42.36375103552912" lon="14.14093392225868"><ele>40.8</ele><time>2026-04-04T10:23:14.999Z</time></trkpt><trkpt lat="42.36365599895511" lon="14.140904876104363"><ele>41.2</ele><time>2026-04-04T10:23:15.999Z</time></trkpt><trkpt lat="42.36356006452703" lon="14.140875555524964"><ele>41.6</ele><time>2026-04-04T10:23:16.999Z</time></trkpt><trkpt lat="42.36347456556643" lon="14.140849424395562"><ele>42.0</ele><time>2026-04-04T10:23:17.999Z</time></trkpt><trkpt lat="42.363393486466094" lon="14.140824709339556"><ele>42.0</ele><time>2026-04-04T10:23:18.999Z</time></trkpt><trkpt lat="42.36331273709453" lon="14.140800209824103"><ele>42.0</ele><time>2026-04-04T10:23:19.999Z</time></trkpt><trkpt lat="42.36323594587714" lon="14.14077691123997"><ele>42.0</ele><time>2026-04-04T10:23:20.999Z</time></trkpt><trkpt lat="42.363166255988816" lon="14.140755767161068"><ele>42.0</ele><time>2026-04-04T10:23:21.999Z</time></trkpt><trkpt lat="42.363048646461436" lon="14.140720084214133"><ele>42.0</ele><time>2026-04-04T10:23:23.999Z</time></trkpt><trkpt lat="42.36298449871476" lon="14.140700621654151"><ele>42.0</ele><time>2026-04-04T10:23:24.999Z</time></trkpt><trkpt lat="42.36291386888304" lon="14.140679192426735"><ele>42.166666666666664</ele><time>2026-04-04T10:23:25.999Z</time></trkpt><trkpt lat="42.36283138973677" lon="14.140654168099697"><ele>42.333333333333336</ele><time>2026-04-04T10:23:26.999Z</time></trkpt><trkpt lat="42.362755232773026" lon="14.140631061926255"><ele>42.5</ele><time>2026-04-04T10:23:27.999Z</time></trkpt><trkpt lat="42.362672685080355" lon="14.140605895064146"><ele>42.66666666666667</ele><time>2026-04-04T10:23:28.999Z</time></trkpt><trkpt lat="42.36258102071665" lon="14.1405779127529"><ele>42.833333333333336</ele><time>2026-04-04T10:23:29.999Z</time></trkpt><trkpt lat="42.36249305975568" lon="14.140551060988932"><ele>43.0</ele><time>2026-04-04T10:23:30.999Z</time></trkpt><trkpt lat="42.36242449420334" lon="14.140530130063155"><ele>43.0</ele><time>2026-04-04T10:23:31.999Z</time></trkpt><trkpt lat="42.362356874670105" lon="14.140509487837774"><ele>43.0</ele><time>2026-04-04T10:23:32.999Z</time></trkpt><trkpt lat="42.36225575527791" lon="14.14047861921038"><ele>43.0</ele><time>2026-04-04T10:23:34.999Z</time></trkpt><trkpt lat="42.362167000206526" lon="14.140451583662138"><ele>43.0</ele><time>2026-04-04T10:23:36.999Z</time></trkpt><trkpt lat="42.362098894012085" lon="14.140430863496507"><ele>43.0</ele><time>2026-04-04T10:24:29.999Z</time></trkpt><trkpt lat="42.36201155570745" lon="14.140404292341367"><ele>43.0</ele><time>2026-04-04T10:24:30.999Z</time></trkpt><trkpt lat="42.36190229475978" lon="14.140372335953868"><ele>43.66666666666667</ele><time>2026-04-04T10:24:31.999Z</time></trkpt><trkpt lat="42.3617778154329" lon="14.140334880067313"><ele>44.333333333333336</ele><time>2026-04-04T10:24:32.999Z</time></trkpt><trkpt lat="42.36162443984194" lon="14.140303266991447"><ele>45.0</ele><time>2026-04-04T10:24:33.999Z</time></trkpt><trkpt lat="42.36146396824074" lon="14.140240161890498"><ele>45.25</ele><time>2026-04-04T10:24:34.999Z</time></trkpt><trkpt lat="42.3613185978548" lon="14.140196039968226"><ele>45.5</ele><time>2026-04-04T10:24:35.999Z</time></trkpt><trkpt lat="42.36118366331695" lon="14.140154734837388"><ele>45.75</ele><time>2026-04-04T10:24:36.999Z</time></trkpt><trkpt lat="42.36104113570812" lon="14.140111105334743"><ele>46.0</ele><time>2026-04-04T10:24:37.999Z</time></trkpt><trkpt lat="42.36090766543547" lon="14.14007024844089"><ele>46.0</ele><time>2026-04-04T10:24:38.999Z</time></trkpt><trkpt lat="42.36077979828314" lon="14.140031106681635"><ele>46.0</ele><time>2026-04-04T10:24:39.999Z</time></trkpt><trkpt lat="42.360645790277" lon="14.139990102636755"><ele>46.0</ele><time>2026-04-04T10:24:40.999Z</time></trkpt><trkpt lat="42.360509307373064" lon="14.139948319310754"><ele>46.0</ele><time>2026-04-04T10:24:41.999Z</time></trkpt><trkpt lat="42.36037000768935" lon="14.1399056720942"><ele>46.0</ele><time>2026-04-04T10:24:42.999Z</time></trkpt><trkpt lat="42.36023036518007" lon="14.139862919864475"><ele>46.0</ele><time>2026-04-04T10:24:43.999Z</time></trkpt><trkpt lat="42.36008549086943" lon="14.139818565924752"><ele>46.0</ele><time>2026-04-04T10:24:44.999Z</time></trkpt><trkpt lat="42.359933482383305" lon="14.139772027790475"><ele>46.0</ele><time>2026-04-04T10:24:45.999Z</time></trkpt><trkpt lat="42.35978740695046" lon="14.139727306116939"><ele>46.25</ele><time>2026-04-04T10:24:46.999Z</time></trkpt><trkpt lat="42.35964648111021" lon="14.139686817981344"><ele>46.5</ele><time>2026-04-04T10:24:47.999Z</time></trkpt><trkpt lat="42.35951758732369" lon="14.139650613136741"><ele>46.75</ele><time>2026-04-04T10:24:48.999Z</time></trkpt><trkpt lat="42.359395000074315" lon="14.139615766931136"><ele>47.0</ele><time>2026-04-04T10:24:49.999Z</time></trkpt><trkpt lat="42.359275880993806" lon="14.139581906651918"><ele>47.0</ele><time>2026-04-04T10:24:50.999Z</time></trkpt><trkpt lat="42.35914905376814" lon="14.139545855447448"><ele>47.0</ele><time>2026-04-04T10:24:51.999Z</time></trkpt><trkpt lat="42.359024896099534" lon="14.139511030940385"><ele>47.0</ele><time>2026-04-04T10:24:52.999Z</time></trkpt><trkpt lat="42.35890146667004" lon="14.13947390494301"><ele>47.0</ele><time>2026-04-04T10:24:53.999Z</time></trkpt><trkpt lat="42.35877567488643" lon="14.139435425505184"><ele>47.25</ele><time>2026-04-04T10:24:54.999Z</time></trkpt><trkpt lat="42.35864348243995" lon="14.139394988124762"><ele>47.5</ele><time>2026-04-04T10:24:55.999Z</time></trkpt><trkpt lat="42.35851296460384" lon="14.13935438647462"><ele>47.75</ele><time>2026-04-04T10:24:56.999Z</time></trkpt><trkpt lat="42.358390972756915" lon="14.13933898229777"><ele>48.0</ele><time>2026-04-04T10:24:57.999Z</time></trkpt><trkpt lat="42.35827680636759" lon="14.139304075911202"><ele>48.0</ele><time>2026-04-04T10:24:58.999Z</time></trkpt><trkpt lat="42.3581697786037" lon="14.139249173398397"><ele>48.0</ele><time>2026-04-04T10:24:59.999Z</time></trkpt><trkpt lat="42.358064781777664" lon="14.139216983711886"><ele>48.0</ele><time>2026-04-04T10:25:00.999Z</time></trkpt><trkpt lat="42.35796282895484" lon="14.139185735098007"><ele>48.0</ele><time>2026-04-04T10:25:01.999Z</time></trkpt><trkpt lat="42.35786728614322" lon="14.139156548392833"><ele>48.0</ele><time>2026-04-04T10:25:02.999Z</time></trkpt><trkpt lat="42.357772467479634" lon="14.139127792618615"><ele>48.0</ele><time>2026-04-04T10:25:03.999Z</time></trkpt><trkpt lat="42.3576809673797" lon="14.139100043252968"><ele>48.0</ele><time>2026-04-04T10:25:04.999Z</time></trkpt><trkpt lat="42.357599584854455" lon="14.139075362296389"><ele>48.0</ele><time>2026-04-04T10:25:05.999Z</time></trkpt><trkpt lat="42.357489234637505" lon="14.139041481543774"><ele>48.0</ele><time>2026-04-04T10:25:07.999Z</time></trkpt><trkpt lat="42.35741221752716" lon="14.139017720953937"><ele>48.0</ele><time>2026-04-04T10:25:10.999Z</time></trkpt><trkpt lat="42.35732847912989" lon="14.138991886772583"><ele>48.0</ele><time>2026-04-04T10:25:19.999Z</time></trkpt><trkpt lat="42.357250761636145" lon="14.138967498446103"><ele>48.0</ele><time>2026-04-04T10:25:24.999Z</time></trkpt><trkpt lat="42.3571872180862" lon="14.138946901569703"><ele>48.0</ele><time>2026-04-04T10:25:25.999Z</time></trkpt><trkpt lat="42.35711352046672" lon="14.138922465524107"><ele>48.0</ele><time>2026-04-04T10:25:26.999Z</time></trkpt><trkpt lat="42.357004688688924" lon="14.138886869901242"><ele>48.0</ele><time>2026-04-04T10:25:28.999Z</time></trkpt><trkpt lat="42.35693591480621" lon="14.138864236147478"><ele>48.0</ele><time>2026-04-04T10:25:30.999Z</time></trkpt><trkpt lat="42.3568810727278" lon="14.138811746781675"><ele>48.0</ele><time>2026-04-04T10:25:32.999Z</time></trkpt><trkpt lat="42.35682038054496" lon="14.138769292172064"><ele>48.0</ele><time>2026-04-04T10:25:35.999Z</time></trkpt><trkpt lat="42.356729254161806" lon="14.138796736488787"><ele>48.0</ele><time>2026-04-04T10:25:38.999Z</time></trkpt><trkpt lat="42.35664403588828" lon="14.138771307964914"><ele>48.0</ele><time>2026-04-04T10:25:41.998Z</time></trkpt><trkpt lat="42.35656475473203" lon="14.138746888435495"><ele>48.0</ele><time>2026-04-04T10:25:44.998Z</time></trkpt><trkpt lat="42.35646727218249" lon="14.138716717362103"><ele>48.0</ele><time>2026-04-04T10:25:47.998Z</time></trkpt><trkpt lat="42.35640042210396" lon="14.138695749375877"><ele>48.0</ele><time>2026-04-04T10:25:49.998Z</time></trkpt><trkpt lat="42.3563295036287" lon="14.138673413998042"><ele>48.0</ele><time>2026-04-04T10:25:53.998Z</time></trkpt><trkpt lat="42.3562326014647" lon="14.13864289519908"><ele>48.0</ele><time>2026-04-04T10:25:56.998Z</time></trkpt><trkpt lat="42.35612968766272" lon="14.138610531653903"><ele>48.0</ele><time>2026-04-04T10:25:58.998Z</time></trkpt><trkpt lat="42.3560142080229" lon="14.138574234751829"><ele>48.0</ele><time>2026-04-04T10:26:00.998Z</time></trkpt><trkpt lat="42.35594300928165" lon="14.138551854982763"><ele>48.0</ele><time>2026-04-04T10:26:01.998Z</time></trkpt><trkpt lat="42.35587753027852" lon="14.138531273039398"><ele>48.0</ele><time>2026-04-04T10:26:02.998Z</time></trkpt><trkpt lat="42.35580817385705" lon="14.138509472367044"><ele>48.0</ele><time>2026-04-04T10:26:03.998Z</time></trkpt><trkpt lat="42.3556826867357" lon="14.138470028172511"><ele>48.0</ele><time>2026-04-04T10:26:05.999Z</time></trkpt><trkpt lat="42.3556108968398" lon="14.13844746256197"><ele>48.0</ele><time>2026-04-04T10:26:06.999Z</time></trkpt><trkpt lat="42.3555409779229" lon="14.138425467029462"><ele>48.0</ele><time>2026-04-04T10:26:07.999Z</time></trkpt><trkpt lat="42.355466964007896" lon="14.138402182146468"><ele>48.166666666666664</ele><time>2026-04-04T10:26:08.999Z</time></trkpt><trkpt lat="42.35539592124143" lon="14.138379831935465"><ele>48.33333333333333</ele><time>2026-04-04T10:26:09.999Z</time></trkpt><trkpt lat="42.355327464133865" lon="14.13835849653366"><ele>48.5</ele><time>2026-04-04T10:26:10.999Z</time></trkpt><trkpt lat="42.35525778360139" lon="14.138336837162095"><ele>48.666666666666664</ele><time>2026-04-04T10:26:11.999Z</time></trkpt><trkpt lat="42.35519181328227" lon="14.138334853443062"><ele>48.83333333333333</ele><time>2026-04-04T10:26:12.999Z</time></trkpt><trkpt lat="42.355094034163265" lon="14.13828593750887"><ele>49.0</ele><time>2026-04-04T10:26:14.999Z</time></trkpt><trkpt lat="42.35497216770828" lon="14.138248782684801"><ele>48.99999999999999</ele><time>2026-04-04T10:26:16.999Z</time></trkpt><trkpt lat="42.354892552599985" lon="14.138258244773644"><ele>49.0</ele><time>2026-04-04T10:26:18.999Z</time></trkpt><trkpt lat="42.35482869156371" lon="14.13824007242898"><ele>49.0</ele><time>2026-04-04T10:26:19.999Z</time></trkpt><trkpt lat="42.35475670308615" lon="14.138220033961453"><ele>49.0</ele><time>2026-04-04T10:26:20.999Z</time></trkpt><trkpt lat="42.35465321460428" lon="14.138192441565472"><ele>48.99999999999999</ele><time>2026-04-04T10:26:22.999Z</time></trkpt><trkpt lat="42.35460042291364" lon="14.138135817688308"><ele>49.0</ele><time>2026-04-04T10:26:23.999Z</time></trkpt><trkpt lat="42.35452881276742" lon="14.138114229309878"><ele>48.6</ele><time>2026-04-04T10:26:24.999Z</time></trkpt><trkpt lat="42.354448851157876" lon="14.138090123250718"><ele>48.2</ele><time>2026-04-04T10:26:25.999Z</time></trkpt><trkpt lat="42.354349899163566" lon="14.138060292133943"><ele>47.800000000000004</ele><time>2026-04-04T10:26:27.999Z</time></trkpt><trkpt lat="42.35425442442727" lon="14.138031509297395"><ele>47.400000000000006</ele><time>2026-04-04T10:26:28.999Z</time></trkpt><trkpt lat="42.354130501442484" lon="14.137994150095786"><ele>47.0</ele><time>2026-04-04T10:26:29.999Z</time></trkpt><trkpt lat="42.35399426088753" lon="14.137971974381681"><ele>47.400000000000006</ele><time>2026-04-04T10:26:30.999Z</time></trkpt><trkpt lat="42.35386187510289" lon="14.13791482753418"><ele>47.800000000000004</ele><time>2026-04-04T10:26:31.999Z</time></trkpt><trkpt lat="42.35373517574363" lon="14.137899340085928"><ele>48.2</ele><time>2026-04-04T10:26:32.999Z</time></trkpt><trkpt lat="42.353640046891634" lon="14.137868150584238"><ele>48.6</ele><time>2026-04-04T10:26:33.999Z</time></trkpt><trkpt lat="42.353565167459436" lon="14.137848246404483"><ele>49.0</ele><time>2026-04-04T10:26:34.999Z</time></trkpt><trkpt lat="42.35349681550014" lon="14.137812951006687"><ele>48.99999999999999</ele><time>2026-04-04T10:26:35.999Z</time></trkpt><trkpt lat="42.353406139830355" lon="14.137786388159748"><ele>49.0</ele><time>2026-04-04T10:26:36.999Z</time></trkpt><trkpt lat="42.35333026800952" lon="14.137763904063137"><ele>49.0</ele><time>2026-04-04T10:26:37.999Z</time></trkpt><trkpt lat="42.353229892011115" lon="14.137731015650028"><ele>49.0</ele><time>2026-04-04T10:26:39.999Z</time></trkpt><trkpt lat="42.35315208451199" lon="14.137705209944482"><ele>48.99999999999999</ele><time>2026-04-04T10:26:41.999Z</time></trkpt><trkpt lat="42.35308646283907" lon="14.137682533309299"><ele>49.0</ele><time>2026-04-04T10:26:42.999Z</time></trkpt><trkpt lat="42.35301796690531" lon="14.137658863424187"><ele>49.166666666666664</ele><time>2026-04-04T10:26:43.999Z</time></trkpt><trkpt lat="42.35292500243048" lon="14.137626738032072"><ele>49.33333333333333</ele><time>2026-04-04T10:26:45.999Z</time></trkpt><trkpt lat="42.35285848868096" lon="14.137603869994434"><ele>49.5</ele><time>2026-04-04T10:26:47.999Z</time></trkpt><trkpt lat="42.35274941529009" lon="14.137585755892168"><ele>49.66666666666667</ele><time>2026-04-04T10:26:50.999Z</time></trkpt><trkpt lat="42.35268292862791" lon="14.137509308216849"><ele>49.833333333333336</ele><time>2026-04-04T10:26:52.999Z</time></trkpt><trkpt lat="42.35264331379225" lon="14.137423051847636"><ele>50.0</ele><time>2026-04-04T10:26:54.999Z</time></trkpt><trkpt lat="42.35254422855503" lon="14.137452100610572"><ele>50.0</ele><time>2026-04-04T10:26:56.999Z</time></trkpt><trkpt lat="42.35244150606558" lon="14.13751974333374"><ele>50.0</ele><time>2026-04-04T10:26:58.999Z</time></trkpt><trkpt lat="42.35234800547526" lon="14.137449220946783"><ele>50.0</ele><time>2026-04-04T10:27:00.999Z</time></trkpt><trkpt lat="42.352239878238045" lon="14.137416086394822"><ele>50.0</ele><time>2026-04-04T10:27:02.999Z</time></trkpt><trkpt lat="42.35214522770764" lon="14.137387287710641"><ele>50.0</ele><time>2026-04-04T10:27:04.999Z</time></trkpt><trkpt lat="42.352068333452465" lon="14.137363891496864"><ele>49.6</ele><time>2026-04-04T10:27:06.999Z</time></trkpt><trkpt lat="42.35199920866384" lon="14.137343902020138"><ele>49.2</ele><time>2026-04-04T10:27:08.999Z</time></trkpt><trkpt lat="42.35191761523329" lon="14.137320114980488"><ele>48.8</ele><time>2026-04-04T10:27:10.999Z</time></trkpt><trkpt lat="42.35181958311546" lon="14.13729153505209"><ele>48.4</ele><time>2026-04-04T10:27:12.999Z</time></trkpt><trkpt lat="42.35170650539837" lon="14.137257950935602"><ele>48.0</ele><time>2026-04-04T10:27:14.999Z</time></trkpt><trkpt lat="42.3515987961114" lon="14.137226481563994"><ele>48.0</ele><time>2026-04-04T10:27:16.999Z</time></trkpt><trkpt lat="42.3515109623634" lon="14.137200120116281"><ele>48.0</ele><time>2026-04-04T10:27:23.999Z</time></trkpt><trkpt lat="42.35143604783717" lon="14.137177635677284"><ele>48.0</ele><time>2026-04-04T10:27:24.999Z</time></trkpt><trkpt lat="42.35132459979699" lon="14.137141236200144"><ele>48.0</ele><time>2026-04-04T10:27:25.999Z</time></trkpt><trkpt lat="42.35120065196803" lon="14.137170569539578"><ele>48.0</ele><time>2026-04-04T10:27:26.999Z</time></trkpt><trkpt lat="42.35109860131096" lon="14.137123547502458"><ele>47.599999999999994</ele><time>2026-04-04T10:27:28.999Z</time></trkpt><trkpt lat="42.35099939367762" lon="14.137093663107397"><ele>47.199999999999996</ele><time>2026-04-04T10:27:29.999Z</time></trkpt><trkpt lat="42.350929442203764" lon="14.137015368282949"><ele>46.8</ele><time>2026-04-04T10:27:30.999Z</time></trkpt><trkpt lat="42.350858644682305" lon="14.136992681940814"><ele>46.4</ele><time>2026-04-04T10:27:31.999Z</time></trkpt><trkpt lat="42.3507711862586" lon="14.136964720980547"><ele>46.0</ele><time>2026-04-04T10:27:32.999Z</time></trkpt><trkpt lat="42.3506763635916" lon="14.136934405616667"><ele>46.0</ele><time>2026-04-04T10:27:33.999Z</time></trkpt><trkpt lat="42.35057285538247" lon="14.136901313869892"><ele>46.0</ele><time>2026-04-04T10:27:34.999Z</time></trkpt><trkpt lat="42.35047496513241" lon="14.136870126786519"><ele>46.0</ele><time>2026-04-04T10:27:35.999Z</time></trkpt><trkpt lat="42.35038750082523" lon="14.13684246021538"><ele>46.0</ele><time>2026-04-04T10:27:36.999Z</time></trkpt><trkpt lat="42.35028905526115" lon="14.136811794491736"><ele>46.0</ele><time>2026-04-04T10:27:37.999Z</time></trkpt><trkpt lat="42.35017586998404" lon="14.136776575691847"><ele>46.4</ele><time>2026-04-04T10:27:38.999Z</time></trkpt><trkpt lat="42.350092989853884" lon="14.136750978592072"><ele>46.8</ele><time>2026-04-04T10:27:39.999Z</time></trkpt><trkpt lat="42.349980961109125" lon="14.136716501417368"><ele>47.199999999999996</ele><time>2026-04-04T10:27:41.999Z</time></trkpt><trkpt lat="42.34991548428143" lon="14.136756866455338"><ele>47.599999999999994</ele><time>2026-04-04T10:27:42.999Z</time></trkpt><trkpt lat="42.34979108528743" lon="14.136717214565149"><ele>48.0</ele><time>2026-04-04T10:27:44.999Z</time></trkpt><trkpt lat="42.34972096066892" lon="14.136691487629397"><ele>47.599999999999994</ele><time>2026-04-04T10:27:45.999Z</time></trkpt><trkpt lat="42.34959889610681" lon="14.13665349507158"><ele>47.199999999999996</ele><time>2026-04-04T10:27:47.999Z</time></trkpt><trkpt lat="42.34950167918103" lon="14.136636225045674"><ele>46.8</ele><time>2026-04-04T10:27:49.999Z</time></trkpt><trkpt lat="42.34940584721738" lon="14.136620524622764"><ele>46.4</ele><time>2026-04-04T10:27:51.999Z</time></trkpt><trkpt lat="42.349365162541474" lon="14.136532387230032"><ele>46.0</ele><time>2026-04-04T10:27:52.999Z</time></trkpt><trkpt lat="42.34930209992465" lon="14.136513915408068"><ele>46.0</ele><time>2026-04-04T10:27:53.999Z</time></trkpt><trkpt lat="42.34922419386634" lon="14.136491054967868"><ele>46.0</ele><time>2026-04-04T10:27:54.999Z</time></trkpt><trkpt lat="42.349128685090726" lon="14.136464006580328"><ele>46.0</ele><time>2026-04-04T10:27:55.999Z</time></trkpt><trkpt lat="42.34900723595299" lon="14.136427597802133"><ele>46.0</ele><time>2026-04-04T10:27:56.999Z</time></trkpt><trkpt lat="42.34886760619632" lon="14.136386364558994"><ele>46.0</ele><time>2026-04-04T10:27:57.999Z</time></trkpt><trkpt lat="42.34873491387173" lon="14.136347179556724"><ele>46.0</ele><time>2026-04-04T10:27:58.998Z</time></trkpt><trkpt lat="42.34861845247208" lon="14.136312502125405"><ele>46.0</ele><time>2026-04-04T10:27:59.998Z</time></trkpt><trkpt lat="42.348516479756796" lon="14.136319826462657"><ele>46.0</ele><time>2026-04-04T10:28:00.998Z</time></trkpt><trkpt lat="42.348460772549565" lon="14.136277557056761"><ele>46.0</ele><time>2026-04-04T10:28:01.998Z</time></trkpt><trkpt lat="42.34835859867208" lon="14.136228484236753"><ele>46.0</ele><time>2026-04-04T10:28:03.998Z</time></trkpt><trkpt lat="42.3482788781509" lon="14.136219366795622"><ele>46.0</ele><time>2026-04-04T10:28:04.998Z</time></trkpt><trkpt lat="42.34816851374693" lon="14.13617347625277"><ele>46.0</ele><time>2026-04-04T10:28:05.998Z</time></trkpt><trkpt lat="42.348065854044854" lon="14.136141585032904"><ele>46.0</ele><time>2026-04-04T10:28:06.998Z</time></trkpt><trkpt lat="42.34797451137823" lon="14.136113166464066"><ele>46.0</ele><time>2026-04-04T10:28:07.998Z</time></trkpt><trkpt lat="42.34788396268924" lon="14.136128791493293"><ele>46.0</ele><time>2026-04-04T10:28:08.998Z</time></trkpt><trkpt lat="42.3477750433879" lon="14.13609988882254"><ele>46.599999999999994</ele><time>2026-04-04T10:28:10.999Z</time></trkpt><trkpt lat="42.34770479282225" lon="14.136074046813727"><ele>47.2</ele><time>2026-04-04T10:28:11.999Z</time></trkpt><trkpt lat="42.34762142661232" lon="14.136045103631547"><ele>47.8</ele><time>2026-04-04T10:28:12.999Z</time></trkpt><trkpt lat="42.34752378846596" lon="14.136018307671314"><ele>48.400000000000006</ele><time>2026-04-04T10:28:13.999Z</time></trkpt><trkpt lat="42.34740866572309" lon="14.135983240978211"><ele>49.0</ele><time>2026-04-04T10:28:14.999Z</time></trkpt><trkpt lat="42.34727958203176" lon="14.135945956680189"><ele>49.25</ele><time>2026-04-04T10:28:15.999Z</time></trkpt><trkpt lat="42.34716157077217" lon="14.13586035383439"><ele>49.5</ele><time>2026-04-04T10:28:16.999Z</time></trkpt><trkpt lat="42.34705196554545" lon="14.135827734603735"><ele>49.75</ele><time>2026-04-04T10:28:17.999Z</time></trkpt><trkpt lat="42.346948954863514" lon="14.135796320822571"><ele>50.0</ele><time>2026-04-04T10:28:18.999Z</time></trkpt><trkpt lat="42.346849542262" lon="14.135766004011586"><ele>50.0</ele><time>2026-04-04T10:28:19.999Z</time></trkpt><trkpt lat="42.346753422509586" lon="14.13573721332046"><ele>50.0</ele><time>2026-04-04T10:28:20.999Z</time></trkpt><trkpt lat="42.34666048501689" lon="14.13570926336113"><ele>50.0</ele><time>2026-04-04T10:28:21.999Z</time></trkpt><trkpt lat="42.34657484798475" lon="14.135683508929517"><ele>50.0</ele><time>2026-04-04T10:28:22.999Z</time></trkpt><trkpt lat="42.346475539224215" lon="14.135653642866021"><ele>50.0</ele><time>2026-04-04T10:28:23.999Z</time></trkpt><trkpt lat="42.34638708278678" lon="14.13562635163626"><ele>49.6</ele><time>2026-04-04T10:28:24.999Z</time></trkpt><trkpt lat="42.34630344712905" lon="14.135600600143528"><ele>49.2</ele><time>2026-04-04T10:28:25.999Z</time></trkpt><trkpt lat="42.346204777548024" lon="14.135570348288725"><ele>48.8</ele><time>2026-04-04T10:28:26.999Z</time></trkpt><trkpt lat="42.346095243065605" lon="14.135536702517776"><ele>48.4</ele><time>2026-04-04T10:28:27.999Z</time></trkpt><trkpt lat="42.34596525793517" lon="14.135496590109337"><ele>48.0</ele><time>2026-04-04T10:28:28.999Z</time></trkpt><trkpt lat="42.345820663463755" lon="14.135451970152484"><ele>48.0</ele><time>2026-04-04T10:28:29.999Z</time></trkpt><trkpt lat="42.3456885127662" lon="14.13541191202108"><ele>48.0</ele><time>2026-04-04T10:28:30.999Z</time></trkpt><trkpt lat="42.34555690490464" lon="14.135371537610038"><ele>48.0</ele><time>2026-04-04T10:28:31.999Z</time></trkpt><trkpt lat="42.345406011157394" lon="14.135325988470253"><ele>48.0</ele><time>2026-04-04T10:28:32.999Z</time></trkpt><trkpt lat="42.345269976711116" lon="14.135284924764544"><ele>47.75</ele><time>2026-04-04T10:28:33.999Z</time></trkpt><trkpt lat="42.345145864590016" lon="14.135246742164197"><ele>47.5</ele><time>2026-04-04T10:28:34.999Z</time></trkpt><trkpt lat="42.345025562196206" lon="14.135209577335864"><ele>47.25</ele><time>2026-04-04T10:28:35.999Z</time></trkpt><trkpt lat="42.34490727501837" lon="14.135174125612647"><ele>47.0</ele><time>2026-04-04T10:28:36.999Z</time></trkpt><trkpt lat="42.344789623468074" lon="14.13513668354511"><ele>47.25</ele><time>2026-04-04T10:28:37.999Z</time></trkpt><trkpt lat="42.34468195280717" lon="14.135103884974466"><ele>47.5</ele><time>2026-04-04T10:28:38.999Z</time></trkpt><trkpt lat="42.34457261313978" lon="14.135070578021528"><ele>47.75</ele><time>2026-04-04T10:28:39.999Z</time></trkpt><trkpt lat="42.34444260033353" lon="14.135030994880667"><ele>48.0</ele><time>2026-04-04T10:28:40.999Z</time></trkpt><trkpt lat="42.344301503640295" lon="14.134988771791264"><ele>48.0</ele><time>2026-04-04T10:28:41.999Z</time></trkpt><trkpt lat="42.34417477579858" lon="14.134950605109909"><ele>48.0</ele><time>2026-04-04T10:28:42.999Z</time></trkpt><trkpt lat="42.34406714874707" lon="14.134917165382207"><ele>48.0</ele><time>2026-04-04T10:28:43.999Z</time></trkpt><trkpt lat="42.343943773725414" lon="14.134878661978746"><ele>48.0</ele><time>2026-04-04T10:28:44.999Z</time></trkpt><trkpt lat="42.34380698808149" lon="14.134836918287277"><ele>48.66666666666667</ele><time>2026-04-04T10:28:45.999Z</time></trkpt><trkpt lat="42.343659894007246" lon="14.13479206687587"><ele>49.333333333333336</ele><time>2026-04-04T10:28:46.999Z</time></trkpt><trkpt lat="42.3435020043999" lon="14.134742626187135"><ele>50.0</ele><time>2026-04-04T10:28:47.999Z</time></trkpt><trkpt lat="42.343358923756995" lon="14.134698001884818"><ele>50.0</ele><time>2026-04-04T10:28:48.999Z</time></trkpt><trkpt lat="42.343228442945055" lon="14.134658159970167"><ele>50.0</ele><time>2026-04-04T10:28:49.999Z</time></trkpt><trkpt lat="42.34310219431822" lon="14.134619428595496"><ele>50.0</ele><time>2026-04-04T10:28:50.999Z</time></trkpt><trkpt lat="42.342981955379" lon="14.134582743368158"><ele>50.0</ele><time>2026-04-04T10:28:51.999Z</time></trkpt><trkpt lat="42.34286626499581" lon="14.13454738957781"><ele>50.0</ele><time>2026-04-04T10:28:52.999Z</time></trkpt><trkpt lat="42.34275626459701" lon="14.134513773748985"><ele>50.0</ele><time>2026-04-04T10:28:53.999Z</time></trkpt><trkpt lat="42.342651735548515" lon="14.134482137757535"><ele>50.0</ele><time>2026-04-04T10:28:54.999Z</time></trkpt><trkpt lat="42.342554478420865" lon="14.134452236461584"><ele>50.0</ele><time>2026-04-04T10:28:55.999Z</time></trkpt><trkpt lat="42.34245023519872" lon="14.134420086193757"><ele>50.0</ele><time>2026-04-04T10:28:56.999Z</time></trkpt><trkpt lat="42.34233202971301" lon="14.134383712069186"><ele>50.0</ele><time>2026-04-04T10:28:57.999Z</time></trkpt><trkpt lat="42.34221554494567" lon="14.134348850252218"><ele>50.0</ele><time>2026-04-04T10:28:58.999Z</time></trkpt><trkpt lat="42.34210057683172" lon="14.134313622903974"><ele>50.0</ele><time>2026-04-04T10:28:59.999Z</time></trkpt><trkpt lat="42.34199389539324" lon="14.134280691055496"><ele>50.0</ele><time>2026-04-04T10:29:00.999Z</time></trkpt><trkpt lat="42.34188104176345" lon="14.134245853831906"><ele>50.5</ele><time>2026-04-04T10:29:01.999Z</time></trkpt><trkpt lat="42.341775399106986" lon="14.134213242636612"><ele>51.0</ele><time>2026-04-04T10:29:02.999Z</time></trkpt><trkpt lat="42.34167354175247" lon="14.134182037069355"><ele>51.5</ele><time>2026-04-04T10:29:03.999Z</time></trkpt><trkpt lat="42.34156238708921" lon="14.134148037106614"><ele>52.0</ele><time>2026-04-04T10:29:04.999Z</time></trkpt><trkpt lat="42.341429329368786" lon="14.134107337466773"><ele>52.2</ele><time>2026-04-04T10:29:05.999Z</time></trkpt><trkpt lat="42.34128417862825" lon="14.134062941592253"><ele>52.400000000000006</ele><time>2026-04-04T10:29:06.999Z</time></trkpt><trkpt lat="42.34118026801451" lon="14.134030761449843"><ele>52.599999999999994</ele><time>2026-04-04T10:29:07.999Z</time></trkpt><trkpt lat="42.341100785884535" lon="14.13400627786434"><ele>52.8</ele><time>2026-04-04T10:29:08.999Z</time></trkpt><trkpt lat="42.34100969474754" lon="14.133978218230514"><ele>53.0</ele><time>2026-04-04T10:29:10.999Z</time></trkpt><trkpt lat="42.34094111784402" lon="14.13395709394332"><ele>53.0</ele><time>2026-04-04T10:29:13.999Z</time></trkpt><trkpt lat="42.340844211523155" lon="14.133926043541297"><ele>53.0</ele><time>2026-04-04T10:29:18.999Z</time></trkpt><trkpt lat="42.34074109030105" lon="14.133878107372338"><ele>53.0</ele><time>2026-04-04T10:29:20.999Z</time></trkpt><trkpt lat="42.34069497158689" lon="14.133799110150745"><ele>53.0</ele><time>2026-04-04T10:29:21.999Z</time></trkpt><trkpt lat="42.34065562660041" lon="14.133691639502876"><ele>53.0</ele><time>2026-04-04T10:29:22.999Z</time></trkpt><trkpt lat="42.34063996750137" lon="14.133584870611843"><ele>53.0</ele><time>2026-04-04T10:29:23.999Z</time></trkpt><trkpt lat="42.34066852668412" lon="14.13346798183254"><ele>53.0</ele><time>2026-04-04T10:29:24.999Z</time></trkpt><trkpt lat="42.34072817279832" lon="14.133341285301183"><ele>53.0</ele><time>2026-04-04T10:29:25.999Z</time></trkpt><trkpt lat="42.34080200920108" lon="14.133224979368123"><ele>53.0</ele><time>2026-04-04T10:29:26.999Z</time></trkpt><trkpt lat="42.34086883508945" lon="14.133118923702902"><ele>53.0</ele><time>2026-04-04T10:29:27.999Z</time></trkpt><trkpt lat="42.34092960543827" lon="14.133014022818585"><ele>52.599999999999994</ele><time>2026-04-04T10:29:28.999Z</time></trkpt><trkpt lat="42.34098985664532" lon="14.132908420552065"><ele>52.199999999999996</ele><time>2026-04-04T10:29:29.999Z</time></trkpt><trkpt lat="42.34104425251642" lon="14.13281238744956"><ele>51.8</ele><time>2026-04-04T10:29:30.999Z</time></trkpt><trkpt lat="42.341101732876844" lon="14.132718378348539"><ele>51.4</ele><time>2026-04-04T10:29:31.999Z</time></trkpt><trkpt lat="42.341165486362996" lon="14.13262473227158"><ele>51.0</ele><time>2026-04-04T10:29:32.999Z</time></trkpt><trkpt lat="42.3412416485594" lon="14.132517935597281"><ele>51.0</ele><time>2026-04-04T10:29:33.999Z</time></trkpt><trkpt lat="42.34131505429472" lon="14.132415286391767"><ele>51.0</ele><time>2026-04-04T10:29:34.999Z</time></trkpt><trkpt lat="42.341382426881566" lon="14.132303890047401"><ele>51.0</ele><time>2026-04-04T10:29:35.999Z</time></trkpt><trkpt lat="42.34144146386676" lon="14.132196518602282"><ele>51.0</ele><time>2026-04-04T10:29:36.999Z</time></trkpt><trkpt lat="42.34149269581918" lon="14.132081092236387"><ele>51.0</ele><time>2026-04-04T10:29:37.999Z</time></trkpt><trkpt lat="42.34153092611611" lon="14.131958935242965"><ele>50.5</ele><time>2026-04-04T10:29:38.999Z</time></trkpt><trkpt lat="42.34156218535499" lon="14.131834477377911"><ele>50.0</ele><time>2026-04-04T10:29:39.999Z</time></trkpt><trkpt lat="42.341593945602206" lon="14.131715045463805"><ele>49.5</ele><time>2026-04-04T10:29:40.999Z</time></trkpt><trkpt lat="42.34162205104816" lon="14.131618527596721"><ele>49.0</ele><time>2026-04-04T10:29:41.999Z</time></trkpt><trkpt lat="42.34165782410548" lon="14.131518178711692"><ele>48.5</ele><time>2026-04-04T10:29:42.999Z</time></trkpt><trkpt lat="42.3416826831646" lon="14.131425587469685"><ele>48.0</ele><time>2026-04-04T10:29:43.999Z</time></trkpt><trkpt lat="42.341764280827114" lon="14.131281391221698"><ele>47.8</ele><time>2026-04-04T10:29:45.999Z</time></trkpt><trkpt lat="42.341810535526236" lon="14.131219140297231"><ele>47.599999999999994</ele><time>2026-04-04T10:29:46.999Z</time></trkpt><trkpt lat="42.341853675083634" lon="14.131030535626229"><ele>47.400000000000006</ele><time>2026-04-04T10:29:48.999Z</time></trkpt><trkpt lat="42.34185763801643" lon="14.130898035991486"><ele>47.2</ele><time>2026-04-04T10:29:49.999Z</time></trkpt><trkpt lat="42.34187020571365" lon="14.130769070768979"><ele>47.0</ele><time>2026-04-04T10:29:50.999Z</time></trkpt><trkpt lat="42.34190431726795" lon="14.13064547077722"><ele>46.83333333333333</ele><time>2026-04-04T10:29:51.999Z</time></trkpt><trkpt lat="42.34194281115008" lon="14.130526715456263"><ele>46.666666666666664</ele><time>2026-04-04T10:29:52.999Z</time></trkpt><trkpt lat="42.341966753834264" lon="14.130416843315457"><ele>46.5</ele><time>2026-04-04T10:29:53.999Z</time></trkpt><trkpt lat="42.34199678411455" lon="14.130323462703233"><ele>46.333333333333336</ele><time>2026-04-04T10:29:54.999Z</time></trkpt><trkpt lat="42.34201705511493" lon="14.130242378818942"><ele>46.16666666666667</ele><time>2026-04-04T10:29:55.999Z</time></trkpt><trkpt lat="42.34203114406465" lon="14.130130177545768"><ele>46.0</ele><time>2026-04-04T10:29:56.999Z</time></trkpt><trkpt lat="42.34203366325944" lon="14.129966260705928"><ele>45.66666666666667</ele><time>2026-04-04T10:29:58.999Z</time></trkpt><trkpt lat="42.34203456470062" lon="14.129880746503378"><ele>45.333333333333336</ele><time>2026-04-04T10:29:59.999Z</time></trkpt><trkpt lat="42.34206282863863" lon="14.129742701950718"><ele>45.0</ele><time>2026-04-04T10:30:01.999Z</time></trkpt><trkpt lat="42.342104905200266" lon="14.12967607725781"><ele>44.666666666666664</ele><time>2026-04-04T10:30:02.999Z</time></trkpt><trkpt lat="42.34215839653656" lon="14.129582157486917"><ele>44.33333333333333</ele><time>2026-04-04T10:30:03.999Z</time></trkpt><trkpt lat="42.34221240447616" lon="14.129493474887655"><ele>44.0</ele><time>2026-04-04T10:30:04.999Z</time></trkpt><trkpt lat="42.34221267271358" lon="14.129366345825874"><ele>44.0</ele><time>2026-04-04T10:30:05.999Z</time></trkpt><trkpt lat="42.342185220682424" lon="14.129257076535133"><ele>44.0</ele><time>2026-04-04T10:30:06.999Z</time></trkpt><trkpt lat="42.34210403147835" lon="14.129176405235427"><ele>44.0</ele><time>2026-04-04T10:30:07.999Z</time></trkpt><trkpt lat="42.342014872994255" lon="14.129141656198897"><ele>44.0</ele><time>2026-04-04T10:30:08.999Z</time></trkpt><trkpt lat="42.34192832270293" lon="14.12913594339076"><ele>44.0</ele><time>2026-04-04T10:30:09.999Z</time></trkpt><trkpt lat="42.34190090900847" lon="14.128964930186276"><ele>42.75</ele><time>2026-04-04T10:30:10.999Z</time></trkpt><trkpt lat="42.34185884366324" lon="14.128800175493906"><ele>41.5</ele><time>2026-04-04T10:30:11.999Z</time></trkpt><trkpt lat="42.341804858313125" lon="14.128617507507277"><ele>40.25</ele><time>2026-04-04T10:30:12.999Z</time></trkpt><trkpt lat="42.34176629495463" lon="14.128437051111257"><ele>39.0</ele><time>2026-04-04T10:30:13.999Z</time></trkpt><trkpt lat="42.34173167177249" lon="14.12823620550367"><ele>38.333333333333336</ele><time>2026-04-04T10:30:14.999Z</time></trkpt><trkpt lat="42.341693284511464" lon="14.128011326193787"><ele>37.66666666666667</ele><time>2026-04-04T10:30:15.999Z</time></trkpt><trkpt lat="42.34165472405662" lon="14.12778134156184"><ele>37.0</ele><time>2026-04-04T10:30:17Z</time></trkpt><trkpt lat="42.341616054007766" lon="14.127561283341798"><ele>36.333333333333336</ele><time>2026-04-04T10:30:18Z</time></trkpt><trkpt lat="42.341581422024476" lon="14.127324525176153"><ele>35.666666666666664</ele><time>2026-04-04T10:30:18.999Z</time></trkpt><trkpt lat="42.34153828409941" lon="14.127078911917966"><ele>35.0</ele><time>2026-04-04T10:30:20Z</time></trkpt><trkpt lat="42.34149697608758" lon="14.126828988903677"><ele>35.0</ele><time>2026-04-04T10:30:21Z</time></trkpt><trkpt lat="42.34145313354134" lon="14.126567048604254"><ele>35.0</ele><time>2026-04-04T10:30:21.999Z</time></trkpt><trkpt lat="42.34141896653885" lon="14.12630788838379"><ele>35.0</ele><time>2026-04-04T10:30:23Z</time></trkpt><trkpt lat="42.3413590204524" lon="14.126047985616173"><ele>35.0</ele><time>2026-04-04T10:30:24Z</time></trkpt><trkpt lat="42.341316464886" lon="14.125782881946341"><ele>35.0</ele><time>2026-04-04T10:30:25Z</time></trkpt><trkpt lat="42.34127506292194" lon="14.125511337922003"><ele>35.0</ele><time>2026-04-04T10:30:26Z</time></trkpt><trkpt lat="42.341225526178434" lon="14.125252766346609"><ele>35.0</ele><time>2026-04-04T10:30:27Z</time></trkpt><trkpt lat="42.34119609008325" lon="14.124998722143529"><ele>35.0</ele><time>2026-04-04T10:30:28Z</time></trkpt><trkpt lat="42.341149543810964" lon="14.124751130076527"><ele>35.0</ele><time>2026-04-04T10:30:29Z</time></trkpt><trkpt lat="42.34110612998813" lon="14.124496884042891"><ele>35.0</ele><time>2026-04-04T10:30:30Z</time></trkpt><trkpt lat="42.34105811677035" lon="14.12423886581604"><ele>35.0</ele><time>2026-04-04T10:30:31Z</time></trkpt><trkpt lat="42.341017405316286" lon="14.1239991046944"><ele>35.0</ele><time>2026-04-04T10:30:32Z</time></trkpt><trkpt lat="42.3409799084065" lon="14.123768091424493"><ele>35.0</ele><time>2026-04-04T10:30:33Z</time></trkpt><trkpt lat="42.34094201053234" lon="14.12353035501475"><ele>35.0</ele><time>2026-04-04T10:30:34Z</time></trkpt><trkpt lat="42.34090303065982" lon="14.123284837795412"><ele>35.0</ele><time>2026-04-04T10:30:35Z</time></trkpt><trkpt lat="42.34086272642229" lon="14.123040929869807"><ele>35.0</ele><time>2026-04-04T10:30:36Z</time></trkpt><trkpt lat="42.34082256427685" lon="14.12281904127528"><ele>35.0</ele><time>2026-04-04T10:30:37Z</time></trkpt><trkpt lat="42.3407888703338" lon="14.122608948010983"><ele>35.0</ele><time>2026-04-04T10:30:37.999Z</time></trkpt><trkpt lat="42.34077531245194" lon="14.122411239805595"><ele>34.75</ele><time>2026-04-04T10:30:38.999Z</time></trkpt><trkpt lat="42.3407806859257" lon="14.122226494768631"><ele>34.5</ele><time>2026-04-04T10:30:39.999Z</time></trkpt><trkpt lat="42.34079634174243" lon="14.122062999594165"><ele>34.25</ele><time>2026-04-04T10:30:40.999Z</time></trkpt><trkpt lat="42.340821554471944" lon="14.121923685027387"><ele>34.0</ele><time>2026-04-04T10:30:41.999Z</time></trkpt><trkpt lat="42.340853552880986" lon="14.121810828116054"><ele>34.0</ele><time>2026-04-04T10:30:42.999Z</time></trkpt><trkpt lat="42.340890013279314" lon="14.12172643843321"><ele>34.0</ele><time>2026-04-04T10:30:43.999Z</time></trkpt><trkpt lat="42.34098043200827" lon="14.121629946241452"><ele>34.0</ele><time>2026-04-04T10:30:45.999Z</time></trkpt><trkpt lat="42.34105320445306" lon="14.121591519883442"><ele>34.0</ele><time>2026-04-04T10:30:46.999Z</time></trkpt><trkpt lat="42.341123213380605" lon="14.121551222154014"><ele>34.0</ele><time>2026-04-04T10:30:47.999Z</time></trkpt><trkpt lat="42.34117391598623" lon="14.121482523096818"><ele>34.0</ele><time>2026-04-04T10:30:48.999Z</time></trkpt><trkpt lat="42.341207860915866" lon="14.12138381897487"><ele>33.333333333333336</ele><time>2026-04-04T10:30:49.999Z</time></trkpt><trkpt lat="42.34123255047713" lon="14.12129010626222"><ele>32.66666666666667</ele><time>2026-04-04T10:30:50.999Z</time></trkpt><trkpt lat="42.34120154352109" lon="14.121173291746489"><ele>32.0</ele><time>2026-04-04T10:30:51.999Z</time></trkpt><trkpt lat="42.341197855388224" lon="14.121064419786443"><ele>31.333333333333336</ele><time>2026-04-04T10:30:52.999Z</time></trkpt><trkpt lat="42.34123613847297" lon="14.12094565233939"><ele>30.666666666666668</ele><time>2026-04-04T10:30:53.999Z</time></trkpt><trkpt lat="42.341292667167096" lon="14.120851467577754"><ele>30.0</ele><time>2026-04-04T10:30:54.999Z</time></trkpt><trkpt lat="42.34135181330273" lon="14.120756262809701"><ele>30.6</ele><time>2026-04-04T10:30:55.999Z</time></trkpt><trkpt lat="42.34141710136069" lon="14.120644873163247"><ele>31.2</ele><time>2026-04-04T10:30:56.999Z</time></trkpt><trkpt lat="42.34147609772086" lon="14.120534799322511"><ele>31.799999999999997</ele><time>2026-04-04T10:30:57.999Z</time></trkpt><trkpt lat="42.34153402610274" lon="14.12042679589188"><ele>32.4</ele><time>2026-04-04T10:30:58.999Z</time></trkpt><trkpt lat="42.34159842679327" lon="14.12032257744471"><ele>33.0</ele><time>2026-04-04T10:30:59.999Z</time></trkpt><trkpt lat="42.34165996186031" lon="14.120215187456003"><ele>33.0</ele><time>2026-04-04T10:31:00.999Z</time></trkpt><trkpt lat="42.341721425305856" lon="14.120103976945282"><ele>33.0</ele><time>2026-04-04T10:31:01.999Z</time></trkpt><trkpt lat="42.34178357065762" lon="14.11998506748627"><ele>33.0</ele><time>2026-04-04T10:31:02.999Z</time></trkpt><trkpt lat="42.34185162145776" lon="14.119854004658956"><ele>33.0</ele><time>2026-04-04T10:31:03.999Z</time></trkpt><trkpt lat="42.34192605936446" lon="14.119714800379235"><ele>32.75</ele><time>2026-04-04T10:31:04.999Z</time></trkpt><trkpt lat="42.341998948019445" lon="14.1195815934822"><ele>32.5</ele><time>2026-04-04T10:31:05.999Z</time></trkpt><trkpt lat="42.34207591037963" lon="14.119455890664232"><ele>32.25</ele><time>2026-04-04T10:31:06.999Z</time></trkpt><trkpt lat="42.34215218426198" lon="14.119323089218572"><ele>32.0</ele><time>2026-04-04T10:31:07.999Z</time></trkpt><trkpt lat="42.34223051010804" lon="14.11917860393407"><ele>32.25</ele><time>2026-04-04T10:31:08.999Z</time></trkpt><trkpt lat="42.34230526524167" lon="14.119030717225801"><ele>32.5</ele><time>2026-04-04T10:31:09.999Z</time></trkpt><trkpt lat="42.34237686096554" lon="14.118871250205059"><ele>32.75</ele><time>2026-04-04T10:31:10.999Z</time></trkpt><trkpt lat="42.3424268203541" lon="14.118705651588666"><ele>33.0</ele><time>2026-04-04T10:31:11.999Z</time></trkpt><trkpt lat="42.34248588594591" lon="14.118531609223501"><ele>33.0</ele><time>2026-04-04T10:31:12.999Z</time></trkpt><trkpt lat="42.3425355859452" lon="14.118356247171022"><ele>33.0</ele><time>2026-04-04T10:31:13.999Z</time></trkpt><trkpt lat="42.34257712569119" lon="14.11816569430704"><ele>33.0</ele><time>2026-04-04T10:31:14.999Z</time></trkpt><trkpt lat="42.34261056370997" lon="14.117977768670988"><ele>33.0</ele><time>2026-04-04T10:31:15.999Z</time></trkpt><trkpt lat="42.34264103577577" lon="14.117792199109816"><ele>34.5</ele><time>2026-04-04T10:31:16.999Z</time></trkpt><trkpt lat="42.34267559655999" lon="14.117619496203679"><ele>36.0</ele><time>2026-04-04T10:31:17.999Z</time></trkpt><trkpt lat="42.34270577964975" lon="14.117445737575448"><ele>37.5</ele><time>2026-04-04T10:31:18.999Z</time></trkpt><trkpt lat="42.34273929920343" lon="14.117264785135303"><ele>39.0</ele><time>2026-04-04T10:31:19.999Z</time></trkpt><trkpt lat="42.3427750112298" lon="14.117090728794675"><ele>40.5</ele><time>2026-04-04T10:31:20.999Z</time></trkpt><trkpt lat="42.34280772008992" lon="14.116910578750831"><ele>42.0</ele><time>2026-04-04T10:31:21.999Z</time></trkpt><trkpt lat="42.34283850894233" lon="14.116707837831974"><ele>43.5</ele><time>2026-04-04T10:31:22.999Z</time></trkpt><trkpt lat="42.3428813408875" lon="14.116514069119582"><ele>45.0</ele><time>2026-04-04T10:31:23.999Z</time></trkpt><trkpt lat="42.342922123272274" lon="14.116308308784829"><ele>45.25</ele><time>2026-04-04T10:31:24.999Z</time></trkpt><trkpt lat="42.342955046180606" lon="14.116100147086026"><ele>45.5</ele><time>2026-04-04T10:31:25.999Z</time></trkpt><trkpt lat="42.342988979176646" lon="14.115915770615254"><ele>45.75</ele><time>2026-04-04T10:31:26.999Z</time></trkpt><trkpt lat="42.34302623967764" lon="14.115735754601108"><ele>46.0</ele><time>2026-04-04T10:31:27.999Z</time></trkpt><trkpt lat="42.343054696472265" lon="14.115557410561339"><ele>46.5</ele><time>2026-04-04T10:31:28.999Z</time></trkpt><trkpt lat="42.34307834697985" lon="14.115382123138525"><ele>47.0</ele><time>2026-04-04T10:31:29.999Z</time></trkpt><trkpt lat="42.34310315430105" lon="14.11522047843482"><ele>47.5</ele><time>2026-04-04T10:31:30.999Z</time></trkpt><trkpt lat="42.34312835160694" lon="14.115072621202977"><ele>48.0</ele><time>2026-04-04T10:31:31.999Z</time></trkpt><trkpt lat="42.34315435276228" lon="14.114922254157104"><ele>48.0</ele><time>2026-04-04T10:31:32.999Z</time></trkpt><trkpt lat="42.343174736382885" lon="14.11476932255719"><ele>48.0</ele><time>2026-04-04T10:31:33.999Z</time></trkpt><trkpt lat="42.343190615000175" lon="14.114621705316631"><ele>48.0</ele><time>2026-04-04T10:31:34.999Z</time></trkpt><trkpt lat="42.34321243886542" lon="14.114470513202287"><ele>48.0</ele><time>2026-04-04T10:31:35.999Z</time></trkpt><trkpt lat="42.34322764640908" lon="14.114297419457985"><ele>48.0</ele><time>2026-04-04T10:31:36.999Z</time></trkpt><trkpt lat="42.343243102955824" lon="14.114129493314806"><ele>48.0</ele><time>2026-04-04T10:31:37.999Z</time></trkpt><trkpt lat="42.343270166794916" lon="14.113963782099546"><ele>48.0</ele><time>2026-04-04T10:31:38.999Z</time></trkpt><trkpt lat="42.34329601403495" lon="14.113786363407666"><ele>48.0</ele><time>2026-04-04T10:31:39.999Z</time></trkpt><trkpt lat="42.34331815008219" lon="14.113591630923823"><ele>47.75</ele><time>2026-04-04T10:31:40.999Z</time></trkpt><trkpt lat="42.34334419131861" lon="14.11338492833317"><ele>47.5</ele><time>2026-04-04T10:31:41.999Z</time></trkpt><trkpt lat="42.343366032676606" lon="14.113192658573213"><ele>47.25</ele><time>2026-04-04T10:31:42.999Z</time></trkpt><trkpt lat="42.343385385870775" lon="14.113013719637266"><ele>47.0</ele><time>2026-04-04T10:31:43.999Z</time></trkpt><trkpt lat="42.34340345722847" lon="14.11284748475839"><ele>47.0</ele><time>2026-04-04T10:31:44.999Z</time></trkpt><trkpt lat="42.343426356620604" lon="14.112677041787185"><ele>47.0</ele><time>2026-04-04T10:31:45.999Z</time></trkpt><trkpt lat="42.34345161943291" lon="14.112506171100675"><ele>47.0</ele><time>2026-04-04T10:31:46.999Z</time></trkpt><trkpt lat="42.34347927514605" lon="14.11234936098713"><ele>47.0</ele><time>2026-04-04T10:31:47.999Z</time></trkpt><trkpt lat="42.34350893633329" lon="14.112201427164146"><ele>47.0</ele><time>2026-04-04T10:31:48.999Z</time></trkpt><trkpt lat="42.34352660844814" lon="14.112050203736432"><ele>47.0</ele><time>2026-04-04T10:31:49.999Z</time></trkpt><trkpt lat="42.343536879473916" lon="14.111908432341234"><ele>47.0</ele><time>2026-04-04T10:31:50.999Z</time></trkpt><trkpt lat="42.343549777410395" lon="14.11178282938194"><ele>47.0</ele><time>2026-04-04T10:31:51.999Z</time></trkpt><trkpt lat="42.34356353297103" lon="14.111678808832373"><ele>47.0</ele><time>2026-04-04T10:31:52.999Z</time></trkpt><trkpt lat="42.34359225605542" lon="14.111540585412703"><ele>47.400000000000006</ele><time>2026-04-04T10:31:54.999Z</time></trkpt><trkpt lat="42.34364655557324" lon="14.111471126415273"><ele>47.800000000000004</ele><time>2026-04-04T10:31:56.999Z</time></trkpt><trkpt lat="42.343735861553775" lon="14.11139493096196"><ele>48.2</ele><time>2026-04-04T10:31:58.999Z</time></trkpt><trkpt lat="42.34375503852065" lon="14.111269371702454"><ele>48.6</ele><time>2026-04-04T10:32:00.999Z</time></trkpt><trkpt lat="42.34369840634431" lon="14.111122504907183"><ele>49.0</ele><time>2026-04-04T10:32:02.999Z</time></trkpt><trkpt lat="42.34360278222527" lon="14.11114370961808"><ele>48.99999999999999</ele><time>2026-04-04T10:32:03.999Z</time></trkpt><trkpt lat="42.34353396802961" lon="14.111196836057708"><ele>49.0</ele><time>2026-04-04T10:32:04.999Z</time></trkpt><trkpt lat="42.34342014351096" lon="14.111206649006563"><ele>49.0</ele><time>2026-04-04T10:32:06.999Z</time></trkpt><trkpt lat="42.3433556301227" lon="14.111138635443904"><ele>49.0</ele><time>2026-04-04T10:32:07.999Z</time></trkpt><trkpt lat="42.3432769473524" lon="14.111117877124803"><ele>48.99999999999999</ele><time>2026-04-04T10:32:08.999Z</time></trkpt><trkpt lat="42.34319437511805" lon="14.11107028134337"><ele>49.0</ele><time>2026-04-04T10:32:09.999Z</time></trkpt><trkpt lat="42.34312042897356" lon="14.110998323439087"><ele>49.0</ele><time>2026-04-04T10:32:10.999Z</time></trkpt><trkpt lat="42.343040333938724" lon="14.110920030530327"><ele>49.0</ele><time>2026-04-04T10:32:11.999Z</time></trkpt><trkpt lat="42.342964781430304" lon="14.110815531391625"><ele>49.0</ele><time>2026-04-04T10:32:12.999Z</time></trkpt><trkpt lat="42.34291011983151" lon="14.110700008768033"><ele>49.0</ele><time>2026-04-04T10:32:13.999Z</time></trkpt><trkpt lat="42.3428582941855" lon="14.110594200948068"><ele>49.0</ele><time>2026-04-04T10:32:14.999Z</time></trkpt><trkpt lat="42.342809966352" lon="14.110495534272074"><ele>49.0</ele><time>2026-04-04T10:32:15.999Z</time></trkpt><trkpt lat="42.342758455377556" lon="14.110390368938283"><ele>49.0</ele><time>2026-04-04T10:32:16.999Z</time></trkpt><trkpt lat="42.342694218470605" lon="14.110299646282066"><ele>49.0</ele><time>2026-04-04T10:32:17.999Z</time></trkpt><trkpt lat="42.34264981786795" lon="14.110168573297889"><ele>49.0</ele><time>2026-04-04T10:32:18.999Z</time></trkpt><trkpt lat="42.34258457903033" lon="14.110035380946494"><ele>49.0</ele><time>2026-04-04T10:32:19.999Z</time></trkpt><trkpt lat="42.342510800690924" lon="14.109885477073448"><ele>49.0</ele><time>2026-04-04T10:32:20.999Z</time></trkpt><trkpt lat="42.342428043400886" lon="14.109745660311043"><ele>49.0</ele><time>2026-04-04T10:32:22Z</time></trkpt><trkpt lat="42.34235085814107" lon="14.109583883883655"><ele>49.0</ele><time>2026-04-04T10:32:23Z</time></trkpt><trkpt lat="42.34226859571196" lon="14.109410295543094"><ele>49.0</ele><time>2026-04-04T10:32:24Z</time></trkpt><trkpt lat="42.34217898905818" lon="14.109239244379692"><ele>48.75</ele><time>2026-04-04T10:32:25Z</time></trkpt><trkpt lat="42.342094315696706" lon="14.109069611516194"><ele>48.5</ele><time>2026-04-04T10:32:26Z</time></trkpt><trkpt lat="42.34201779383714" lon="14.10890659987345"><ele>48.25</ele><time>2026-04-04T10:32:27Z</time></trkpt><trkpt lat="42.34193727279434" lon="14.10874848220071"><ele>48.0</ele><time>2026-04-04T10:32:28Z</time></trkpt><trkpt lat="42.34184941938606" lon="14.1085877863434"><ele>48.0</ele><time>2026-04-04T10:32:29Z</time></trkpt><trkpt lat="42.34176687760651" lon="14.108419038099104"><ele>48.0</ele><time>2026-04-04T10:32:30Z</time></trkpt><trkpt lat="42.34167723970381" lon="14.108237136864087"><ele>48.0</ele><time>2026-04-04T10:32:31Z</time></trkpt><trkpt lat="42.34159964756259" lon="14.108043431821846"><ele>48.33333333333333</ele><time>2026-04-04T10:32:32Z</time></trkpt><trkpt lat="42.34151024171991" lon="14.10786272723907"><ele>48.666666666666664</ele><time>2026-04-04T10:32:33Z</time></trkpt><trkpt lat="42.341406597358045" lon="14.107688598713528"><ele>49.0</ele><time>2026-04-04T10:32:34Z</time></trkpt><trkpt lat="42.341314283555185" lon="14.107499465846495"><ele>49.0</ele><time>2026-04-04T10:32:35Z</time></trkpt><trkpt lat="42.34121974591875" lon="14.107311375677003"><ele>49.0</ele><time>2026-04-04T10:32:36Z</time></trkpt><trkpt lat="42.34113148169684" lon="14.107132667411964"><ele>49.0</ele><time>2026-04-04T10:32:37Z</time></trkpt><trkpt lat="42.34104638128405" lon="14.10694559052585"><ele>49.0</ele><time>2026-04-04T10:32:38Z</time></trkpt><trkpt lat="42.34095658136345" lon="14.106771590612427"><ele>49.0</ele><time>2026-04-04T10:32:39Z</time></trkpt><trkpt lat="42.34087995831967" lon="14.106591431253158"><ele>49.0</ele><time>2026-04-04T10:32:40Z</time></trkpt><trkpt lat="42.340804267341284" lon="14.106393039551188"><ele>48.666666666666664</ele><time>2026-04-04T10:32:41Z</time></trkpt><trkpt lat="42.340734688086236" lon="14.106197300990997"><ele>48.33333333333333</ele><time>2026-04-04T10:32:42Z</time></trkpt><trkpt lat="42.340671627859955" lon="14.10598994094957"><ele>48.0</ele><time>2026-04-04T10:32:43Z</time></trkpt><trkpt lat="42.3406118445127" lon="14.105775663960562"><ele>48.33333333333333</ele><time>2026-04-04T10:32:44Z</time></trkpt><trkpt lat="42.34054393916229" lon="14.105562157461561"><ele>48.666666666666664</ele><time>2026-04-04T10:32:45Z</time></trkpt><trkpt lat="42.340473247158755" lon="14.105345171056584"><ele>49.0</ele><time>2026-04-04T10:32:46Z</time></trkpt><trkpt lat="42.34039889300542" lon="14.10512595455992"><ele>49.0</ele><time>2026-04-04T10:32:47Z</time></trkpt><trkpt lat="42.340319302414585" lon="14.104912602968227"><ele>49.0</ele><time>2026-04-04T10:32:48Z</time></trkpt><trkpt lat="42.34025423013514" lon="14.10467761020205"><ele>49.0</ele><time>2026-04-04T10:32:49Z</time></trkpt><trkpt lat="42.3401814718672" lon="14.104455257372143"><ele>49.33333333333333</ele><time>2026-04-04T10:32:50Z</time></trkpt><trkpt lat="42.340115818271826" lon="14.104254616579158"><ele>49.66666666666667</ele><time>2026-04-04T10:32:51Z</time></trkpt><trkpt lat="42.34004030004886" lon="14.104063529315711"><ele>50.0</ele><time>2026-04-04T10:32:52Z</time></trkpt><trkpt lat="42.3399793298331" lon="14.103873186795372"><ele>50.66666666666667</ele><time>2026-04-04T10:32:53Z</time></trkpt><trkpt lat="42.33991734380072" lon="14.103690886489968"><ele>51.33333333333333</ele><time>2026-04-04T10:32:54Z</time></trkpt><trkpt lat="42.33985783880034" lon="14.10350025007724"><ele>52.0</ele><time>2026-04-04T10:32:55Z</time></trkpt><trkpt lat="42.33979713557796" lon="14.103306019539401"><ele>51.666666666666664</ele><time>2026-04-04T10:32:56Z</time></trkpt><trkpt lat="42.33973446290705" lon="14.103122692611251"><ele>51.33333333333333</ele><time>2026-04-04T10:32:57Z</time></trkpt><trkpt lat="42.33966573892731" lon="14.102932777155841"><ele>51.0</ele><time>2026-04-04T10:32:58Z</time></trkpt><trkpt lat="42.33961630295699" lon="14.102733578279429"><ele>50.66666666666667</ele><time>2026-04-04T10:32:59Z</time></trkpt><trkpt lat="42.339554389164995" lon="14.102534717307906"><ele>50.333333333333336</ele><time>2026-04-04T10:33:00Z</time></trkpt><trkpt lat="42.33949027327048" lon="14.102349470440323"><ele>50.0</ele><time>2026-04-04T10:33:01Z</time></trkpt><trkpt lat="42.33944590859928" lon="14.102166382728203"><ele>50.0</ele><time>2026-04-04T10:33:02Z</time></trkpt><trkpt lat="42.339392914518974" lon="14.101984620752395"><ele>50.0</ele><time>2026-04-04T10:33:03Z</time></trkpt><trkpt lat="42.33933919423541" lon="14.101800635626002"><ele>50.0</ele><time>2026-04-04T10:33:04Z</time></trkpt><trkpt lat="42.339288151756" lon="14.10160706187505"><ele>50.0</ele><time>2026-04-04T10:33:05Z</time></trkpt><trkpt lat="42.33923637031451" lon="14.101410009137682"><ele>50.333333333333336</ele><time>2026-04-04T10:33:06Z</time></trkpt><trkpt lat="42.33918851766445" lon="14.101212315968304"><ele>50.66666666666667</ele><time>2026-04-04T10:33:07Z</time></trkpt><trkpt lat="42.339138465631244" lon="14.10101036221507"><ele>51.0</ele><time>2026-04-04T10:33:08Z</time></trkpt><trkpt lat="42.33908777012092" lon="14.100814376154329"><ele>51.5</ele><time>2026-04-04T10:33:09Z</time></trkpt><trkpt lat="42.33903879288422" lon="14.100625672112969"><ele>52.0</ele><time>2026-04-04T10:33:10Z</time></trkpt><trkpt lat="42.33898856134188" lon="14.100444146843682"><ele>52.5</ele><time>2026-04-04T10:33:11Z</time></trkpt><trkpt lat="42.33894301992043" lon="14.10025063332831"><ele>53.0</ele><time>2026-04-04T10:33:12Z</time></trkpt><trkpt lat="42.33890455755842" lon="14.100059071130225"><ele>53.0</ele><time>2026-04-04T10:33:13Z</time></trkpt><trkpt lat="42.33887792159217" lon="14.099862842583684"><ele>53.0</ele><time>2026-04-04T10:33:14Z</time></trkpt><trkpt lat="42.33885319456943" lon="14.099664269084696"><ele>53.0</ele><time>2026-04-04T10:33:15Z</time></trkpt><trkpt lat="42.33883733471748" lon="14.09945929932078"><ele>53.0</ele><time>2026-04-04T10:33:16Z</time></trkpt><trkpt lat="42.338818490975385" lon="14.099254402254257"><ele>52.66666666666667</ele><time>2026-04-04T10:33:17Z</time></trkpt><trkpt lat="42.33879190555424" lon="14.099048911662802"><ele>52.33333333333333</ele><time>2026-04-04T10:33:18Z</time></trkpt><trkpt lat="42.33876523269533" lon="14.098843248969692"><ele>52.0</ele><time>2026-04-04T10:33:19Z</time></trkpt><trkpt lat="42.338734770707006" lon="14.098634957805015"><ele>52.0</ele><time>2026-04-04T10:33:20Z</time></trkpt><trkpt lat="42.33870842735879" lon="14.098431848763914"><ele>52.0</ele><time>2026-04-04T10:33:21Z</time></trkpt><trkpt lat="42.33868369342003" lon="14.098226761968375"><ele>52.0</ele><time>2026-04-04T10:33:22Z</time></trkpt><trkpt lat="42.338662328746715" lon="14.09802277962946"><ele>52.5</ele><time>2026-04-04T10:33:23Z</time></trkpt><trkpt lat="42.33864200733881" lon="14.097828954518059"><ele>53.0</ele><time>2026-04-04T10:33:23.999Z</time></trkpt><trkpt lat="42.33862322512679" lon="14.097639379633948"><ele>53.5</ele><time>2026-04-04T10:33:24.999Z</time></trkpt><trkpt lat="42.33860309752287" lon="14.09745786461168"><ele>54.0</ele><time>2026-04-04T10:33:25.999Z</time></trkpt><trkpt lat="42.3385803924778" lon="14.097285616749932"><ele>54.0</ele><time>2026-04-04T10:33:26.999Z</time></trkpt><trkpt lat="42.338558040844724" lon="14.097106566460791"><ele>54.0</ele><time>2026-04-04T10:33:27.999Z</time></trkpt><trkpt lat="42.338537490008854" lon="14.096922797279905"><ele>54.0</ele><time>2026-04-04T10:33:28.999Z</time></trkpt><trkpt lat="42.33851677344835" lon="14.096728710192194"><ele>54.0</ele><time>2026-04-04T10:33:29.999Z</time></trkpt><trkpt lat="42.338495368159876" lon="14.09653903515461"><ele>54.0</ele><time>2026-04-04T10:33:30.999Z</time></trkpt><trkpt lat="42.33846434820398" lon="14.096341267362167"><ele>54.0</ele><time>2026-04-04T10:33:31.999Z</time></trkpt><trkpt lat="42.33843027386265" lon="14.09613711541457"><ele>54.0</ele><time>2026-04-04T10:33:32.999Z</time></trkpt><trkpt lat="42.33838797874015" lon="14.095936550907613"><ele>53.66666666666667</ele><time>2026-04-04T10:33:33.999Z</time></trkpt><trkpt lat="42.338360067295156" lon="14.095729560365784"><ele>53.333333333333336</ele><time>2026-04-04T10:33:34.999Z</time></trkpt><trkpt lat="42.3383141306076" lon="14.095521400852412"><ele>53.0</ele><time>2026-04-04T10:33:35.999Z</time></trkpt><trkpt lat="42.33826894994196" lon="14.095315070874939"><ele>53.0</ele><time>2026-04-04T10:33:36.999Z</time></trkpt><trkpt lat="42.33822315545285" lon="14.09510592628141"><ele>53.0</ele><time>2026-04-04T10:33:37.999Z</time></trkpt><trkpt lat="42.33817581064963" lon="14.094889701278522"><ele>53.0</ele><time>2026-04-04T10:33:38.999Z</time></trkpt><trkpt lat="42.33812949359691" lon="14.094678170305798"><ele>52.66666666666667</ele><time>2026-04-04T10:33:39.999Z</time></trkpt><trkpt lat="42.33808214328131" lon="14.094462025275211"><ele>52.33333333333333</ele><time>2026-04-04T10:33:40.999Z</time></trkpt><trkpt lat="42.33803362288746" lon="14.094242237083165"><ele>52.0</ele><time>2026-04-04T10:33:41.999Z</time></trkpt><trkpt lat="42.33798362499575" lon="14.094015756184172"><ele>53.0</ele><time>2026-04-04T10:33:42.999Z</time></trkpt><trkpt lat="42.33793444663325" lon="14.093792987605259"><ele>54.0</ele><time>2026-04-04T10:33:43.999Z</time></trkpt><trkpt lat="42.33788441074058" lon="14.093566334468827"><ele>55.0</ele><time>2026-04-04T10:33:44.999Z</time></trkpt><trkpt lat="42.33783636382132" lon="14.093348691159566"><ele>54.666666666666664</ele><time>2026-04-04T10:33:45.999Z</time></trkpt><trkpt lat="42.33778736364847" lon="14.093126729647512"><ele>54.33333333333333</ele><time>2026-04-04T10:33:46.999Z</time></trkpt><trkpt lat="42.33772513655972" lon="14.092900928176324"><ele>54.0</ele><time>2026-04-04T10:33:47.999Z</time></trkpt><trkpt lat="42.33767435950117" lon="14.092663962043368"><ele>54.0</ele><time>2026-04-04T10:33:48.999Z</time></trkpt><trkpt lat="42.337624550565245" lon="14.092429708625634"><ele>54.0</ele><time>2026-04-04T10:33:49.999Z</time></trkpt><trkpt lat="42.3375749773383" lon="14.092193413357869"><ele>54.0</ele><time>2026-04-04T10:33:50.999Z</time></trkpt><trkpt lat="42.337521311048604" lon="14.091958921006501"><ele>53.0</ele><time>2026-04-04T10:33:51.999Z</time></trkpt><trkpt lat="42.33746907819326" lon="14.091725379693383"><ele>52.0</ele><time>2026-04-04T10:33:52.999Z</time></trkpt><trkpt lat="42.337415265975665" lon="14.091486096930076"><ele>51.0</ele><time>2026-04-04T10:33:53.999Z</time></trkpt><trkpt lat="42.33736213265539" lon="14.091245159619335"><ele>51.0</ele><time>2026-04-04T10:33:54.999Z</time></trkpt><trkpt lat="42.33730928444595" lon="14.091005795238534"><ele>51.0</ele><time>2026-04-04T10:33:55.999Z</time></trkpt><trkpt lat="42.33725733744882" lon="14.09077867184045"><ele>51.0</ele><time>2026-04-04T10:33:56.999Z</time></trkpt><trkpt lat="42.3372036371051" lon="14.090564103760412"><ele>51.0</ele><time>2026-04-04T10:33:57.999Z</time></trkpt><trkpt lat="42.33715048352407" lon="14.090358870605938"><ele>51.0</ele><time>2026-04-04T10:33:58.999Z</time></trkpt><trkpt lat="42.337095945352395" lon="14.090159743822008"><ele>51.0</ele><time>2026-04-04T10:33:59.999Z</time></trkpt><trkpt lat="42.337034381221656" lon="14.089953353954428"><ele>50.33333333333333</ele><time>2026-04-04T10:34:00.999Z</time></trkpt><trkpt lat="42.33697135973316" lon="14.089748822997063"><ele>49.666666666666664</ele><time>2026-04-04T10:34:01.999Z</time></trkpt><trkpt lat="42.33692458342618" lon="14.0895293011482"><ele>49.0</ele><time>2026-04-04T10:34:02.999Z</time></trkpt><trkpt lat="42.33686319979735" lon="14.089316626175187"><ele>49.0</ele><time>2026-04-04T10:34:03.999Z</time></trkpt><trkpt lat="42.336804736828086" lon="14.08911407042575"><ele>49.0</ele><time>2026-04-04T10:34:04.999Z</time></trkpt><trkpt lat="42.336742231853854" lon="14.08889751014176"><ele>49.0</ele><time>2026-04-04T10:34:05.999Z</time></trkpt><trkpt lat="42.33667876604694" lon="14.088677621022711"><ele>49.33333333333333</ele><time>2026-04-04T10:34:06.999Z</time></trkpt><trkpt lat="42.33660563262244" lon="14.088468179485838"><ele>49.66666666666667</ele><time>2026-04-04T10:34:07.999Z</time></trkpt><trkpt lat="42.3365419799193" lon="14.088255411575718"><ele>50.0</ele><time>2026-04-04T10:34:08.999Z</time></trkpt><trkpt lat="42.33649265139676" lon="14.088032792145563"><ele>50.66666666666667</ele><time>2026-04-04T10:34:09.999Z</time></trkpt><trkpt lat="42.33643350950298" lon="14.08783136066033"><ele>51.33333333333333</ele><time>2026-04-04T10:34:10.999Z</time></trkpt><trkpt lat="42.336363296473095" lon="14.087645143565432"><ele>52.0</ele><time>2026-04-04T10:34:11.999Z</time></trkpt><trkpt lat="42.336308244888635" lon="14.087463671121476"><ele>51.0</ele><time>2026-04-04T10:34:12.999Z</time></trkpt><trkpt lat="42.33625644844994" lon="14.087280320887439"><ele>50.0</ele><time>2026-04-04T10:34:13.999Z</time></trkpt><trkpt lat="42.336210551949236" lon="14.087107648831603"><ele>49.0</ele><time>2026-04-04T10:34:14.999Z</time></trkpt><trkpt lat="42.33616498294054" lon="14.086939369965327"><ele>48.0</ele><time>2026-04-04T10:34:15.999Z</time></trkpt><trkpt lat="42.336119106102885" lon="14.086777340968528"><ele>48.0</ele><time>2026-04-04T10:34:16.999Z</time></trkpt><trkpt lat="42.33607220832588" lon="14.086620318333011"><ele>48.0</ele><time>2026-04-04T10:34:17.999Z</time></trkpt><trkpt lat="42.33602349178696" lon="14.086465771536274"><ele>48.0</ele><time>2026-04-04T10:34:18.999Z</time></trkpt><trkpt lat="42.33597856422604" lon="14.08631180260249"><ele>48.0</ele><time>2026-04-04T10:34:19.999Z</time></trkpt><trkpt lat="42.3359342304278" lon="14.086153940919315"><ele>49.25</ele><time>2026-04-04T10:34:20.999Z</time></trkpt><trkpt lat="42.335887266121425" lon="14.085984739862882"><ele>50.5</ele><time>2026-04-04T10:34:21.999Z</time></trkpt><trkpt lat="42.33583516042348" lon="14.085815654563039"><ele>51.75</ele><time>2026-04-04T10:34:22.999Z</time></trkpt><trkpt lat="42.3357802761248" lon="14.085635695226985"><ele>53.0</ele><time>2026-04-04T10:34:23.999Z</time></trkpt><trkpt lat="42.33573042058652" lon="14.08544252487041"><ele>53.333333333333336</ele><time>2026-04-04T10:34:24.999Z</time></trkpt><trkpt lat="42.33567162956451" lon="14.08524816418283"><ele>53.66666666666667</ele><time>2026-04-04T10:34:25.999Z</time></trkpt><trkpt lat="42.33560763129701" lon="14.085043645713164"><ele>54.0</ele><time>2026-04-04T10:34:26.999Z</time></trkpt><trkpt lat="42.33554292042207" lon="14.084837900506098"><ele>53.0</ele><time>2026-04-04T10:34:28Z</time></trkpt><trkpt lat="42.33546145668098" lon="14.08463423683377"><ele>52.0</ele><time>2026-04-04T10:34:29Z</time></trkpt><trkpt lat="42.335365851321626" lon="14.084430600123268"><ele>51.0</ele><time>2026-04-04T10:34:30Z</time></trkpt><trkpt lat="42.33526387010852" lon="14.08423319784589"><ele>52.33333333333333</ele><time>2026-04-04T10:34:31Z</time></trkpt><trkpt lat="42.33514960296853" lon="14.084031077995846"><ele>53.666666666666664</ele><time>2026-04-04T10:34:32Z</time></trkpt><trkpt lat="42.33505655743994" lon="14.083836582835618"><ele>55.0</ele><time>2026-04-04T10:34:33Z</time></trkpt><trkpt lat="42.334959344510416" lon="14.083657025107469"><ele>55.0</ele><time>2026-04-04T10:34:34Z</time></trkpt><trkpt lat="42.33486953010633" lon="14.083486938075591"><ele>55.0</ele><time>2026-04-04T10:34:35Z</time></trkpt><trkpt lat="42.33477576844786" lon="14.083310427239528"><ele>55.0</ele><time>2026-04-04T10:34:36Z</time></trkpt><trkpt lat="42.33467066652084" lon="14.083146926040635"><ele>53.666666666666664</ele><time>2026-04-04T10:34:37Z</time></trkpt><trkpt lat="42.33458463431866" lon="14.082968856398939"><ele>52.33333333333333</ele><time>2026-04-04T10:34:38Z</time></trkpt><trkpt lat="42.33450955971196" lon="14.082792542393394"><ele>51.0</ele><time>2026-04-04T10:34:39Z</time></trkpt><trkpt lat="42.334446801169406" lon="14.082606115605206"><ele>50.33333333333333</ele><time>2026-04-04T10:34:40Z</time></trkpt><trkpt lat="42.33441294964443" lon="14.082410874689083"><ele>49.666666666666664</ele><time>2026-04-04T10:34:41Z</time></trkpt><trkpt lat="42.33438907692729" lon="14.082205710626333"><ele>49.0</ele><time>2026-04-04T10:34:42Z</time></trkpt><trkpt lat="42.33437725282232" lon="14.081993307870787"><ele>49.0</ele><time>2026-04-04T10:34:43Z</time></trkpt><trkpt lat="42.33437307917729" lon="14.081781190066447"><ele>49.0</ele><time>2026-04-04T10:34:44Z</time></trkpt><trkpt lat="42.334405272513365" lon="14.08155082196205"><ele>49.0</ele><time>2026-04-04T10:34:45Z</time></trkpt><trkpt lat="42.33441754834494" lon="14.081320411229227"><ele>48.0</ele><time>2026-04-04T10:34:46Z</time></trkpt><trkpt lat="42.334445701898" lon="14.081077851225148"><ele>47.0</ele><time>2026-04-04T10:34:47Z</time></trkpt><trkpt lat="42.334467762902996" lon="14.080831988228857"><ele>46.0</ele><time>2026-04-04T10:34:48Z</time></trkpt><trkpt lat="42.334483738660595" lon="14.080586611508057"><ele>46.0</ele><time>2026-04-04T10:34:49Z</time></trkpt><trkpt lat="42.33448930029403" lon="14.080333108403755"><ele>46.0</ele><time>2026-04-04T10:34:50Z</time></trkpt><trkpt lat="42.334482026786475" lon="14.080080900647838"><ele>46.0</ele><time>2026-04-04T10:34:51Z</time></trkpt><trkpt lat="42.33446275348267" lon="14.079831950753427"><ele>46.0</ele><time>2026-04-04T10:34:52Z</time></trkpt><trkpt lat="42.334440064632055" lon="14.07958559517436"><ele>46.0</ele><time>2026-04-04T10:34:53Z</time></trkpt><trkpt lat="42.33441354270184" lon="14.07934216243436"><ele>46.0</ele><time>2026-04-04T10:34:54Z</time></trkpt><trkpt lat="42.334388650772624" lon="14.079108601581577"><ele>46.0</ele><time>2026-04-04T10:34:55Z</time></trkpt><trkpt lat="42.33437085411158" lon="14.078872450258158"><ele>46.0</ele><time>2026-04-04T10:34:56Z</time></trkpt><trkpt lat="42.334353773129486" lon="14.078641853731963"><ele>46.0</ele><time>2026-04-04T10:34:57Z</time></trkpt><trkpt lat="42.334336224072764" lon="14.078419630229922"><ele>46.66666666666667</ele><time>2026-04-04T10:34:58Z</time></trkpt><trkpt lat="42.334315339780616" lon="14.078210674761273"><ele>47.333333333333336</ele><time>2026-04-04T10:34:59Z</time></trkpt><trkpt lat="42.33429346178157" lon="14.078004168799215"><ele>48.0</ele><time>2026-04-04T10:35:00Z</time></trkpt><trkpt lat="42.334264108447215" lon="14.077803443033572"><ele>48.0</ele><time>2026-04-04T10:35:01Z</time></trkpt><trkpt lat="42.33423950431413" lon="14.077613054973959"><ele>48.0</ele><time>2026-04-04T10:35:02Z</time></trkpt><trkpt lat="42.33417061965776" lon="14.077434485249327"><ele>48.0</ele><time>2026-04-04T10:35:03Z</time></trkpt><trkpt lat="42.33411170100863" lon="14.07725399137769"><ele>48.0</ele><time>2026-04-04T10:35:04Z</time></trkpt><trkpt lat="42.33401368714785" lon="14.077089740003386"><ele>48.0</ele><time>2026-04-04T10:35:05Z</time></trkpt><trkpt lat="42.33391900293644" lon="14.076927744218835"><ele>48.0</ele><time>2026-04-04T10:35:06Z</time></trkpt><trkpt lat="42.33381164810662" lon="14.076771478949086"><ele>48.0</ele><time>2026-04-04T10:35:07Z</time></trkpt><trkpt lat="42.333689804615204" lon="14.076607642089114"><ele>48.0</ele><time>2026-04-04T10:35:08Z</time></trkpt><trkpt lat="42.33358626434042" lon="14.076425735389334"><ele>48.0</ele><time>2026-04-04T10:35:09Z</time></trkpt><trkpt lat="42.333466936544106" lon="14.076251246273696"><ele>48.0</ele><time>2026-04-04T10:35:10Z</time></trkpt><trkpt lat="42.33334466324141" lon="14.076072449643338"><ele>48.0</ele><time>2026-04-04T10:35:11Z</time></trkpt><trkpt lat="42.33321197579625" lon="14.075911291070458"><ele>48.0</ele><time>2026-04-04T10:35:12Z</time></trkpt><trkpt lat="42.33309805557754" lon="14.07571184344142"><ele>48.0</ele><time>2026-04-04T10:35:13Z</time></trkpt><trkpt lat="42.33297106283742" lon="14.075526145948064"><ele>47.0</ele><time>2026-04-04T10:35:14Z</time></trkpt><trkpt lat="42.33284427572159" lon="14.075340749201914"><ele>46.0</ele><time>2026-04-04T10:35:15Z</time></trkpt><trkpt lat="42.33271509163461" lon="14.075151847314771"><ele>45.0</ele><time>2026-04-04T10:35:16Z</time></trkpt><trkpt lat="42.332585651729104" lon="14.074962571603887"><ele>45.333333333333336</ele><time>2026-04-04T10:35:17Z</time></trkpt><trkpt lat="42.332456989627154" lon="14.074774433045924"><ele>45.66666666666667</ele><time>2026-04-04T10:35:18Z</time></trkpt><trkpt lat="42.33232983918206" lon="14.074588505041623"><ele>46.0</ele><time>2026-04-04T10:35:19Z</time></trkpt><trkpt lat="42.33219362047225" lon="14.074412476143912"><ele>46.0</ele><time>2026-04-04T10:35:20Z</time></trkpt><trkpt lat="42.33207268155448" lon="14.074224188643843"><ele>46.0</ele><time>2026-04-04T10:35:21Z</time></trkpt><trkpt lat="42.33196555769223" lon="14.074055407481342"><ele>46.0</ele><time>2026-04-04T10:35:22Z</time></trkpt><trkpt lat="42.33184529630031" lon="14.073900051834846"><ele>47.0</ele><time>2026-04-04T10:35:23Z</time></trkpt><trkpt lat="42.33174338401525" lon="14.073732536266226"><ele>48.0</ele><time>2026-04-04T10:35:24Z</time></trkpt><trkpt lat="42.33163084544987" lon="14.073598513281377"><ele>49.0</ele><time>2026-04-04T10:35:25Z</time></trkpt><trkpt lat="42.33153567208279" lon="14.073452385679298"><ele>49.0</ele><time>2026-04-04T10:35:26Z</time></trkpt><trkpt lat="42.331443834413136" lon="14.073307494845833"><ele>49.0</ele><time>2026-04-04T10:35:27Z</time></trkpt><trkpt lat="42.33135297327444" lon="14.073173926994734"><ele>49.0</ele><time>2026-04-04T10:35:28Z</time></trkpt><trkpt lat="42.331255611079904" lon="14.073030870356462"><ele>49.0</ele><time>2026-04-04T10:35:29Z</time></trkpt><trkpt lat="42.33115585783064" lon="14.072881850815197"><ele>49.666666666666664</ele><time>2026-04-04T10:35:30Z</time></trkpt><trkpt lat="42.33105059335367" lon="14.07271954010776"><ele>50.33333333333333</ele><time>2026-04-04T10:35:31Z</time></trkpt><trkpt lat="42.33094271339898" lon="14.072558967698365"><ele>51.0</ele><time>2026-04-04T10:35:32Z</time></trkpt><trkpt lat="42.33082810332618" lon="14.07240127481045"><ele>50.66666666666667</ele><time>2026-04-04T10:35:33Z</time></trkpt><trkpt lat="42.33070964281774" lon="14.07224112076843"><ele>50.333333333333336</ele><time>2026-04-04T10:35:34Z</time></trkpt><trkpt lat="42.33058834854577" lon="14.072077349226147"><ele>50.0</ele><time>2026-04-04T10:35:35Z</time></trkpt><trkpt lat="42.330471640432066" lon="14.071913354607487"><ele>50.0</ele><time>2026-04-04T10:35:36Z</time></trkpt><trkpt lat="42.330359277387885" lon="14.071742211045562"><ele>50.0</ele><time>2026-04-04T10:35:37Z</time></trkpt><trkpt lat="42.33025619739574" lon="14.071576322269058"><ele>50.0</ele><time>2026-04-04T10:35:38Z</time></trkpt><trkpt lat="42.33014158960295" lon="14.071406831467508"><ele>51.66666666666667</ele><time>2026-04-04T10:35:39Z</time></trkpt><trkpt lat="42.33002365535126" lon="14.07124610862746"><ele>53.33333333333333</ele><time>2026-04-04T10:35:40Z</time></trkpt><trkpt lat="42.32990665712588" lon="14.071084960093067"><ele>55.0</ele><time>2026-04-04T10:35:41Z</time></trkpt><trkpt lat="42.32978574287673" lon="14.070913473892432"><ele>52.33333333333333</ele><time>2026-04-04T10:35:42Z</time></trkpt><trkpt lat="42.329667583365406" lon="14.070737703686296"><ele>49.666666666666664</ele><time>2026-04-04T10:35:43Z</time></trkpt><trkpt lat="42.32955183221506" lon="14.070563893160605"><ele>47.0</ele><time>2026-04-04T10:35:44Z</time></trkpt><trkpt lat="42.32943523066462" lon="14.070387274986617"><ele>47.0</ele><time>2026-04-04T10:35:45Z</time></trkpt><trkpt lat="42.32931845388888" lon="14.070217660193554"><ele>47.0</ele><time>2026-04-04T10:35:46Z</time></trkpt><trkpt lat="42.32919639767326" lon="14.07004634647903"><ele>47.0</ele><time>2026-04-04T10:35:47Z</time></trkpt><trkpt lat="42.32907769695534" lon="14.069879336097802"><ele>47.666666666666664</ele><time>2026-04-04T10:35:48Z</time></trkpt><trkpt lat="42.328960206986224" lon="14.069705205986507"><ele>48.33333333333333</ele><time>2026-04-04T10:35:49Z</time></trkpt><trkpt lat="42.32884698508645" lon="14.069534808434511"><ele>49.0</ele><time>2026-04-04T10:35:50Z</time></trkpt><trkpt lat="42.328730161349824" lon="14.069365886955078"><ele>49.0</ele><time>2026-04-04T10:35:51Z</time></trkpt><trkpt lat="42.32860919239981" lon="14.069193182161252"><ele>49.0</ele><time>2026-04-04T10:35:52Z</time></trkpt><trkpt lat="42.328499485031216" lon="14.069029007318072"><ele>49.0</ele><time>2026-04-04T10:35:53Z</time></trkpt><trkpt lat="42.32838293144996" lon="14.068853239323392"><ele>49.0</ele><time>2026-04-04T10:35:53.999Z</time></trkpt><trkpt lat="42.328269850256355" lon="14.068690294824265"><ele>49.0</ele><time>2026-04-04T10:35:54.999Z</time></trkpt><trkpt lat="42.32814604733817" lon="14.068517399068439"><ele>49.0</ele><time>2026-04-04T10:35:55.999Z</time></trkpt><trkpt lat="42.32803051764199" lon="14.06834919610897"><ele>49.33333333333333</ele><time>2026-04-04T10:35:56.999Z</time></trkpt><trkpt lat="42.327912572686586" lon="14.068175283907713"><ele>49.66666666666667</ele><time>2026-04-04T10:35:57.999Z</time></trkpt><trkpt lat="42.32779099984726" lon="14.067999148288555"><ele>50.0</ele><time>2026-04-04T10:35:58.999Z</time></trkpt><trkpt lat="42.32767663043477" lon="14.067833726575643"><ele>50.0</ele><time>2026-04-04T10:35:59.999Z</time></trkpt><trkpt lat="42.32755348822403" lon="14.067662728115028"><ele>50.0</ele><time>2026-04-04T10:36:00.999Z</time></trkpt><trkpt lat="42.32743761825427" lon="14.06748939161446"><ele>50.0</ele><time>2026-04-04T10:36:01.999Z</time></trkpt><trkpt lat="42.32731461192036" lon="14.067313497508506"><ele>50.66666666666667</ele><time>2026-04-04T10:36:02.999Z</time></trkpt><trkpt lat="42.32719173865658" lon="14.067134700276098"><ele>51.33333333333333</ele><time>2026-04-04T10:36:03.999Z</time></trkpt><trkpt lat="42.32706219428257" lon="14.066955994919336"><ele>52.0</ele><time>2026-04-04T10:36:04.999Z</time></trkpt><trkpt lat="42.32693309389281" lon="14.066776606606707"><ele>53.33333333333333</ele><time>2026-04-04T10:36:05.999Z</time></trkpt><trkpt lat="42.32680079314254" lon="14.066592437444807"><ele>54.66666666666667</ele><time>2026-04-04T10:36:06.999Z</time></trkpt><trkpt lat="42.32667158596538" lon="14.066399120984146"><ele>56.0</ele><time>2026-04-04T10:36:07.999Z</time></trkpt><trkpt lat="42.32654419439408" lon="14.06621246810969"><ele>56.0</ele><time>2026-04-04T10:36:08.999Z</time></trkpt><trkpt lat="42.32641250954881" lon="14.06603025991125"><ele>56.0</ele><time>2026-04-04T10:36:09.999Z</time></trkpt><trkpt lat="42.326281573871825" lon="14.065850510102555"><ele>56.0</ele><time>2026-04-04T10:36:10.999Z</time></trkpt><trkpt lat="42.326149453243815" lon="14.065668478347607"><ele>57.0</ele><time>2026-04-04T10:36:11.999Z</time></trkpt><trkpt lat="42.32602897401489" lon="14.065486726166256"><ele>58.0</ele><time>2026-04-04T10:36:12.999Z</time></trkpt><trkpt lat="42.32591214531248" lon="14.065308353478473"><ele>59.0</ele><time>2026-04-04T10:36:13.999Z</time></trkpt><trkpt lat="42.32578758948808" lon="14.065140367926425"><ele>59.0</ele><time>2026-04-04T10:36:14.999Z</time></trkpt><trkpt lat="42.32567538292733" lon="14.064963341547342"><ele>59.0</ele><time>2026-04-04T10:36:15.999Z</time></trkpt><trkpt lat="42.325559279643855" lon="14.06478989898014"><ele>59.0</ele><time>2026-04-04T10:36:16.999Z</time></trkpt><trkpt lat="42.32545535513466" lon="14.06461177072617"><ele>57.66666666666667</ele><time>2026-04-04T10:36:17.999Z</time></trkpt><trkpt lat="42.32535126012958" lon="14.064432398612091"><ele>56.33333333333333</ele><time>2026-04-04T10:36:18.999Z</time></trkpt><trkpt lat="42.32524433012093" lon="14.064251683626292"><ele>55.0</ele><time>2026-04-04T10:36:19.999Z</time></trkpt><trkpt lat="42.32514820208963" lon="14.064065570177563"><ele>55.0</ele><time>2026-04-04T10:36:20.999Z</time></trkpt><trkpt lat="42.32505965609243" lon="14.063880391234655"><ele>55.0</ele><time>2026-04-04T10:36:21.999Z</time></trkpt><trkpt lat="42.324966537212674" lon="14.063699029768356"><ele>55.0</ele><time>2026-04-04T10:36:22.999Z</time></trkpt><trkpt lat="42.324862111604894" lon="14.06351964277844"><ele>55.0</ele><time>2026-04-04T10:36:23.999Z</time></trkpt><trkpt lat="42.32476087930576" lon="14.06334544545033"><ele>55.0</ele><time>2026-04-04T10:36:24.999Z</time></trkpt><trkpt lat="42.324671279849134" lon="14.06315685238309"><ele>55.0</ele><time>2026-04-04T10:36:25.999Z</time></trkpt><trkpt lat="42.32456558266365" lon="14.06298761336022"><ele>55.0</ele><time>2026-04-04T10:36:26.999Z</time></trkpt><trkpt lat="42.3244774502151" lon="14.062794566590732"><ele>55.0</ele><time>2026-04-04T10:36:27.999Z</time></trkpt><trkpt lat="42.324382457568916" lon="14.062604815949273"><ele>55.0</ele><time>2026-04-04T10:36:28.999Z</time></trkpt><trkpt lat="42.32428494078811" lon="14.062409020906955"><ele>56.0</ele><time>2026-04-04T10:36:29.999Z</time></trkpt><trkpt lat="42.32418832672801" lon="14.0622281135485"><ele>57.0</ele><time>2026-04-04T10:36:30.999Z</time></trkpt><trkpt lat="42.32409273178537" lon="14.062071852760727"><ele>58.0</ele><time>2026-04-04T10:36:31.999Z</time></trkpt><trkpt lat="42.324012729061614" lon="14.061922381880954"><ele>58.0</ele><time>2026-04-04T10:36:32.999Z</time></trkpt><trkpt lat="42.323915843001195" lon="14.061781767603735"><ele>58.0</ele><time>2026-04-04T10:36:34Z</time></trkpt><trkpt lat="42.323796539514824" lon="14.061655653946458"><ele>58.0</ele><time>2026-04-04T10:36:35Z</time></trkpt><trkpt lat="42.32366009664532" lon="14.061543215514327"><ele>60.33333333333333</ele><time>2026-04-04T10:36:36Z</time></trkpt><trkpt lat="42.32352295794497" lon="14.061440958640652"><ele>62.66666666666667</ele><time>2026-04-04T10:36:37Z</time></trkpt><trkpt lat="42.323407512997306" lon="14.061318107644931"><ele>65.0</ele><time>2026-04-04T10:36:38Z</time></trkpt><trkpt lat="42.323270987657565" lon="14.061203292705038"><ele>65.0</ele><time>2026-04-04T10:36:39Z</time></trkpt><trkpt lat="42.32313341958871" lon="14.061091674394547"><ele>65.0</ele><time>2026-04-04T10:36:40Z</time></trkpt><trkpt lat="42.322986783461936" lon="14.060972966465044"><ele>65.0</ele><time>2026-04-04T10:36:41Z</time></trkpt><trkpt lat="42.32283785664052" lon="14.060850691836322"><ele>68.66666666666667</ele><time>2026-04-04T10:36:42Z</time></trkpt><trkpt lat="42.32268792907165" lon="14.060727407166961"><ele>72.33333333333333</ele><time>2026-04-04T10:36:43Z</time></trkpt><trkpt lat="42.32254087849299" lon="14.060606488268052"><ele>76.0</ele><time>2026-04-04T10:36:44Z</time></trkpt><trkpt lat="42.322390798259704" lon="14.060483078232823"><ele>76.0</ele><time>2026-04-04T10:36:45Z</time></trkpt><trkpt lat="42.3222397403629" lon="14.060358864104707"><ele>76.0</ele><time>2026-04-04T10:36:46Z</time></trkpt><trkpt lat="42.32208475694821" lon="14.060232820006549"><ele>76.0</ele><time>2026-04-04T10:36:47Z</time></trkpt><trkpt lat="42.321921959848204" lon="14.060125564479348"><ele>73.33333333333333</ele><time>2026-04-04T10:36:48Z</time></trkpt><trkpt lat="42.321778193013245" lon="14.060000573094804"><ele>70.66666666666667</ele><time>2026-04-04T10:36:49Z</time></trkpt><trkpt lat="42.321646625854704" lon="14.059869677374326"><ele>68.0</ele><time>2026-04-04T10:36:50Z</time></trkpt><trkpt lat="42.32151772415818" lon="14.059732750870547"><ele>68.0</ele><time>2026-04-04T10:36:51Z</time></trkpt><trkpt lat="42.32139901065255" lon="14.059562260003297"><ele>68.0</ele><time>2026-04-04T10:36:52Z</time></trkpt><trkpt lat="42.32129283069487" lon="14.059375474214484"><ele>68.0</ele><time>2026-04-04T10:36:53Z</time></trkpt><trkpt lat="42.32120815448241" lon="14.0591572361709"><ele>64.66666666666667</ele><time>2026-04-04T10:36:54Z</time></trkpt><trkpt lat="42.32113289222558" lon="14.058926744906787"><ele>61.33333333333333</ele><time>2026-04-04T10:36:55Z</time></trkpt><trkpt lat="42.32105062977296" lon="14.058704601364823"><ele>58.0</ele><time>2026-04-04T10:36:56Z</time></trkpt><trkpt lat="42.32095991510081" lon="14.058485788424791"><ele>59.0</ele><time>2026-04-04T10:36:57Z</time></trkpt><trkpt lat="42.32086823290616" lon="14.05827259718445"><ele>60.0</ele><time>2026-04-04T10:36:58Z</time></trkpt><trkpt lat="42.32077971101126" lon="14.058060480864862"><ele>61.0</ele><time>2026-04-04T10:36:59Z</time></trkpt><trkpt lat="42.320688831640716" lon="14.05782495873154"><ele>61.0</ele><time>2026-04-04T10:37:00Z</time></trkpt><trkpt lat="42.3206028389302" lon="14.057609649033513"><ele>61.0</ele><time>2026-04-04T10:37:01Z</time></trkpt><trkpt lat="42.32051220799714" lon="14.057384464016819"><ele>61.0</ele><time>2026-04-04T10:37:02Z</time></trkpt><trkpt lat="42.32041703415098" lon="14.057160016013425"><ele>60.33333333333333</ele><time>2026-04-04T10:37:03Z</time></trkpt><trkpt lat="42.32032712560648" lon="14.05694029501356"><ele>59.66666666666667</ele><time>2026-04-04T10:37:04Z</time></trkpt><trkpt lat="42.32023794616192" lon="14.05671890907166"><ele>59.0</ele><time>2026-04-04T10:37:05Z</time></trkpt><trkpt lat="42.32015548829913" lon="14.056514906991989"><ele>59.0</ele><time>2026-04-04T10:37:06Z</time></trkpt><trkpt lat="42.32006751337591" lon="14.05630488471671"><ele>59.0</ele><time>2026-04-04T10:37:07Z</time></trkpt><trkpt lat="42.319975280502504" lon="14.056106972635265"><ele>59.0</ele><time>2026-04-04T10:37:08Z</time></trkpt><trkpt lat="42.31988354437683" lon="14.055934849958716"><ele>58.333333333333336</ele><time>2026-04-04T10:37:09Z</time></trkpt><trkpt lat="42.31977829370288" lon="14.055781092456398"><ele>57.66666666666667</ele><time>2026-04-04T10:37:10Z</time></trkpt><trkpt lat="42.319657720533804" lon="14.055646306070372"><ele>57.0</ele><time>2026-04-04T10:37:11Z</time></trkpt><trkpt lat="42.319539306548585" lon="14.055494582019287"><ele>57.0</ele><time>2026-04-04T10:37:12Z</time></trkpt><trkpt lat="42.319416626186836" lon="14.055355652233558"><ele>57.0</ele><time>2026-04-04T10:37:13Z</time></trkpt><trkpt lat="42.319291535045416" lon="14.055216580654312"><ele>57.0</ele><time>2026-04-04T10:37:14Z</time></trkpt><trkpt lat="42.31915886383872" lon="14.055093865453438"><ele>57.0</ele><time>2026-04-04T10:37:15Z</time></trkpt><trkpt lat="42.319030438281686" lon="14.054943395427937"><ele>57.0</ele><time>2026-04-04T10:37:16Z</time></trkpt><trkpt lat="42.318892875995225" lon="14.054792454717322"><ele>57.0</ele><time>2026-04-04T10:37:17Z</time></trkpt><trkpt lat="42.318757767292055" lon="14.05463962177017"><ele>57.0</ele><time>2026-04-04T10:37:18Z</time></trkpt><trkpt lat="42.31862150228129" lon="14.054488650081115"><ele>57.0</ele><time>2026-04-04T10:37:19Z</time></trkpt><trkpt lat="42.318476933375464" lon="14.05433228831361"><ele>57.0</ele><time>2026-04-04T10:37:20Z</time></trkpt><trkpt lat="42.31833329696074" lon="14.054170222057545"><ele>57.66666666666667</ele><time>2026-04-04T10:37:21Z</time></trkpt><trkpt lat="42.31819342102871" lon="14.054016834849442"><ele>58.333333333333336</ele><time>2026-04-04T10:37:22Z</time></trkpt><trkpt lat="42.318052952874964" lon="14.053862874953841"><ele>59.0</ele><time>2026-04-04T10:37:23Z</time></trkpt><trkpt lat="42.31791838190879" lon="14.05371379104562"><ele>59.0</ele><time>2026-04-04T10:37:24Z</time></trkpt><trkpt lat="42.317783408984674" lon="14.053560560687801"><ele>59.0</ele><time>2026-04-04T10:37:25Z</time></trkpt><trkpt lat="42.317652246214095" lon="14.053411165862096"><ele>59.0</ele><time>2026-04-04T10:37:26Z</time></trkpt><trkpt lat="42.31752427531027" lon="14.053270669788937"><ele>58.66666666666667</ele><time>2026-04-04T10:37:27Z</time></trkpt><trkpt lat="42.31739562979814" lon="14.053131865808195"><ele>58.33333333333333</ele><time>2026-04-04T10:37:28Z</time></trkpt><trkpt lat="42.31727794683721" lon="14.052970422752946"><ele>58.0</ele><time>2026-04-04T10:37:29Z</time></trkpt><trkpt lat="42.31716000797563" lon="14.052837647301264"><ele>58.0</ele><time>2026-04-04T10:37:30Z</time></trkpt><trkpt lat="42.317049741775506" lon="14.052715314795472"><ele>58.0</ele><time>2026-04-04T10:37:31Z</time></trkpt><trkpt lat="42.31693855315794" lon="14.052591733718776"><ele>58.0</ele><time>2026-04-04T10:37:32Z</time></trkpt><trkpt lat="42.31681236305101" lon="14.052478730233217"><ele>58.0</ele><time>2026-04-04T10:37:33Z</time></trkpt><trkpt lat="42.3167033877224" lon="14.052330358635352"><ele>57.75</ele><time>2026-04-04T10:37:34Z</time></trkpt><trkpt lat="42.31658828543124" lon="14.052201529900039"><ele>57.5</ele><time>2026-04-04T10:37:35Z</time></trkpt><trkpt lat="42.31647010198175" lon="14.052090692584121"><ele>57.25</ele><time>2026-04-04T10:37:36Z</time></trkpt><trkpt lat="42.3163614486134" lon="14.051959341079158"><ele>57.0</ele><time>2026-04-04T10:37:37Z</time></trkpt><trkpt lat="42.316252443973966" lon="14.051818493749817"><ele>57.0</ele><time>2026-04-04T10:37:38Z</time></trkpt><trkpt lat="42.316146993183466" lon="14.051665748968288"><ele>57.0</ele><time>2026-04-04T10:37:39Z</time></trkpt><trkpt lat="42.31605866338723" lon="14.051465826627881"><ele>57.0</ele><time>2026-04-04T10:37:40Z</time></trkpt><trkpt lat="42.315946272610255" lon="14.051269136605375"><ele>57.33333333333333</ele><time>2026-04-04T10:37:41Z</time></trkpt><trkpt lat="42.315841814270684" lon="14.051035731731476"><ele>57.666666666666664</ele><time>2026-04-04T10:37:42Z</time></trkpt><trkpt lat="42.31574865279464" lon="14.050783589023354"><ele>58.0</ele><time>2026-04-04T10:37:43Z</time></trkpt><trkpt lat="42.31563645927347" lon="14.050530670364829"><ele>58.5</ele><time>2026-04-04T10:37:44Z</time></trkpt><trkpt lat="42.31552006062577" lon="14.050267287257533"><ele>59.0</ele><time>2026-04-04T10:37:45Z</time></trkpt><trkpt lat="42.31540062195536" lon="14.049997025503805"><ele>59.0</ele><time>2026-04-04T10:37:46Z</time></trkpt><trkpt lat="42.3152740725134" lon="14.049713064809957"><ele>59.0</ele><time>2026-04-04T10:37:47Z</time></trkpt><trkpt lat="42.31514505457687" lon="14.049425335655442"><ele>59.0</ele><time>2026-04-04T10:37:48Z</time></trkpt><trkpt lat="42.315005704648364" lon="14.049136949978967"><ele>59.0</ele><time>2026-04-04T10:37:49Z</time></trkpt><trkpt lat="42.31487526107347" lon="14.048848305375795"><ele>59.0</ele><time>2026-04-04T10:37:50Z</time></trkpt><trkpt lat="42.31475469972947" lon="14.048582126004456"><ele>59.0</ele><time>2026-04-04T10:37:51Z</time></trkpt><trkpt lat="42.31465504790477" lon="14.048318396511402"><ele>59.66666666666667</ele><time>2026-04-04T10:37:52Z</time></trkpt><trkpt lat="42.31453026186122" lon="14.048078476301306"><ele>60.33333333333333</ele><time>2026-04-04T10:37:53Z</time></trkpt><trkpt lat="42.314427836151985" lon="14.04782494168384"><ele>61.0</ele><time>2026-04-04T10:37:54Z</time></trkpt><trkpt lat="42.31431696297973" lon="14.047589282231836"><ele>62.0</ele><time>2026-04-04T10:37:55Z</time></trkpt><trkpt lat="42.314211806508254" lon="14.047355152346976"><ele>63.0</ele><time>2026-04-04T10:37:56Z</time></trkpt><trkpt lat="42.31412424132164" lon="14.047116714811638"><ele>64.0</ele><time>2026-04-04T10:37:57Z</time></trkpt><trkpt lat="42.31402670171396" lon="14.046894568293524"><ele>64.0</ele><time>2026-04-04T10:37:58Z</time></trkpt><trkpt lat="42.31393035706033" lon="14.046672011084738"><ele>64.0</ele><time>2026-04-04T10:37:59Z</time></trkpt><trkpt lat="42.313837872849916" lon="14.046460310548175"><ele>64.0</ele><time>2026-04-04T10:38:00Z</time></trkpt><trkpt lat="42.313752946255335" lon="14.046272350429625"><ele>63.75</ele><time>2026-04-04T10:38:01Z</time></trkpt><trkpt lat="42.313668527524015" lon="14.046090129499808"><ele>63.5</ele><time>2026-04-04T10:38:02Z</time></trkpt><trkpt lat="42.313585879047686" lon="14.04593693675088"><ele>63.25</ele><time>2026-04-04T10:38:03Z</time></trkpt><trkpt lat="42.31349859470948" lon="14.045827502502284"><ele>63.0</ele><time>2026-04-04T10:38:04Z</time></trkpt><trkpt lat="42.31340321733889" lon="14.045728700652063"><ele>64.0</ele><time>2026-04-04T10:38:05Z</time></trkpt><trkpt lat="42.31326839181302" lon="14.045690439451072"><ele>65.0</ele><time>2026-04-04T10:38:06Z</time></trkpt><trkpt lat="42.31314511926815" lon="14.045628728625763"><ele>66.0</ele><time>2026-04-04T10:38:07Z</time></trkpt><trkpt lat="42.31301727816753" lon="14.045591286968785"><ele>67.0</ele><time>2026-04-04T10:38:08Z</time></trkpt><trkpt lat="42.31290172834049" lon="14.045557230624878"><ele>67.0</ele><time>2026-04-04T10:38:09Z</time></trkpt><trkpt lat="42.312789352714624" lon="14.045516087584284"><ele>67.0</ele><time>2026-04-04T10:38:10Z</time></trkpt><trkpt lat="42.31267469628572" lon="14.045455373491537"><ele>67.0</ele><time>2026-04-04T10:38:11Z</time></trkpt><trkpt lat="42.31256588921996" lon="14.045355818431437"><ele>67.0</ele><time>2026-04-04T10:38:12Z</time></trkpt><trkpt lat="42.312457834991285" lon="14.045213539082006"><ele>67.0</ele><time>2026-04-04T10:38:13Z</time></trkpt><trkpt lat="42.3123523609261" lon="14.04504224824872"><ele>67.0</ele><time>2026-04-04T10:38:14Z</time></trkpt><trkpt lat="42.31224699786795" lon="14.044868330329127"><ele>67.0</ele><time>2026-04-04T10:38:15Z</time></trkpt><trkpt lat="42.312138381162114" lon="14.044688742210447"><ele>66.33333333333333</ele><time>2026-04-04T10:38:15.999Z</time></trkpt><trkpt lat="42.312027831727406" lon="14.044504675012176"><ele>65.66666666666667</ele><time>2026-04-04T10:38:16.999Z</time></trkpt><trkpt lat="42.311921672056684" lon="14.044313018937615"><ele>65.0</ele><time>2026-04-04T10:38:17.999Z</time></trkpt><trkpt lat="42.311817252749144" lon="14.04411194943629"><ele>66.33333333333334</ele><time>2026-04-04T10:38:18.999Z</time></trkpt><trkpt lat="42.311721969009184" lon="14.043891177815157"><ele>67.66666666666667</ele><time>2026-04-04T10:38:19.999Z</time></trkpt><trkpt lat="42.31162822013554" lon="14.043667127488694"><ele>69.0</ele><time>2026-04-04T10:38:20.999Z</time></trkpt><trkpt lat="42.31153010882468" lon="14.043470524533117"><ele>67.75</ele><time>2026-04-04T10:38:21.999Z</time></trkpt><trkpt lat="42.31145552986937" lon="14.043285939885216"><ele>66.5</ele><time>2026-04-04T10:38:22.999Z</time></trkpt><trkpt lat="42.31139051566789" lon="14.043122464113036"><ele>65.25</ele><time>2026-04-04T10:38:23.999Z</time></trkpt><trkpt lat="42.31132579793587" lon="14.042973962301835"><ele>64.0</ele><time>2026-04-04T10:38:24.999Z</time></trkpt><trkpt lat="42.311267232256206" lon="14.042808815715137"><ele>64.0</ele><time>2026-04-04T10:38:25.999Z</time></trkpt><trkpt lat="42.31120472233946" lon="14.042662363990013"><ele>64.0</ele><time>2026-04-04T10:38:26.999Z</time></trkpt><trkpt lat="42.31113887788941" lon="14.042512313794347"><ele>64.0</ele><time>2026-04-04T10:38:27.999Z</time></trkpt><trkpt lat="42.311056661427756" lon="14.04233846891129"><ele>64.0</ele><time>2026-04-04T10:38:28.999Z</time></trkpt><trkpt lat="42.310963349262515" lon="14.042203048515791"><ele>67.33333333333333</ele><time>2026-04-04T10:38:29.999Z</time></trkpt><trkpt lat="42.310863700138746" lon="14.042049350616285"><ele>70.66666666666667</ele><time>2026-04-04T10:38:30.999Z</time></trkpt><trkpt lat="42.31074471695349" lon="14.041899866235294"><ele>74.0</ele><time>2026-04-04T10:38:31.999Z</time></trkpt><trkpt lat="42.310623234209864" lon="14.041745910586332"><ele>71.0</ele><time>2026-04-04T10:38:32.999Z</time></trkpt><trkpt lat="42.31049668026557" lon="14.041588383952844"><ele>68.0</ele><time>2026-04-04T10:38:33.999Z</time></trkpt><trkpt lat="42.31037983936742" lon="14.041412808215116"><ele>65.0</ele><time>2026-04-04T10:38:34.999Z</time></trkpt><trkpt lat="42.310244581513146" lon="14.0412417381004"><ele>65.0</ele><time>2026-04-04T10:38:35.999Z</time></trkpt><trkpt lat="42.31011206406009" lon="14.041072644623044"><ele>65.0</ele><time>2026-04-04T10:38:36.999Z</time></trkpt><trkpt lat="42.30997227579082" lon="14.040900836770426"><ele>65.0</ele><time>2026-04-04T10:38:37.999Z</time></trkpt><trkpt lat="42.30985753853635" lon="14.040756346487292"><ele>65.33333333333334</ele><time>2026-04-04T10:38:38.999Z</time></trkpt><trkpt lat="42.3097403879513" lon="14.040604710395185"><ele>65.66666666666667</ele><time>2026-04-04T10:38:40.001Z</time></trkpt><trkpt lat="42.30963112306749" lon="14.040453275420258"><ele>66.0</ele><time>2026-04-04T10:38:41.001Z</time></trkpt><trkpt lat="42.309525185010706" lon="14.040292515978624"><ele>66.0</ele><time>2026-04-04T10:38:42.001Z</time></trkpt><trkpt lat="42.30942652553817" lon="14.040122220040024"><ele>66.0</ele><time>2026-04-04T10:38:43.001Z</time></trkpt><trkpt lat="42.3093220161222" lon="14.03995308243319"><ele>66.0</ele><time>2026-04-04T10:38:44.001Z</time></trkpt><trkpt lat="42.30923019082702" lon="14.03976509667958"><ele>68.33333333333333</ele><time>2026-04-04T10:38:45.001Z</time></trkpt><trkpt lat="42.30915074625087" lon="14.039563247435963"><ele>70.66666666666666</ele><time>2026-04-04T10:38:46.001Z</time></trkpt><trkpt lat="42.30905778479155" lon="14.039370015037514"><ele>73.0</ele><time>2026-04-04T10:38:47.001Z</time></trkpt><trkpt lat="42.308947326877735" lon="14.039179596193252"><ele>72.66666666666666</ele><time>2026-04-04T10:38:48Z</time></trkpt><trkpt lat="42.3088553646317" lon="14.03897355499431"><ele>72.33333333333333</ele><time>2026-04-04T10:38:49Z</time></trkpt><trkpt lat="42.30875063142415" lon="14.038769159092068"><ele>72.0</ele><time>2026-04-04T10:38:50Z</time></trkpt><trkpt lat="42.308649899583436" lon="14.038569021641385"><ele>72.0</ele><time>2026-04-04T10:38:51Z</time></trkpt><trkpt lat="42.30855644935333" lon="14.038387009143193"><ele>72.0</ele><time>2026-04-04T10:38:52Z</time></trkpt><trkpt lat="42.30846935510061" lon="14.038201836154943"><ele>72.0</ele><time>2026-04-04T10:38:53Z</time></trkpt><trkpt lat="42.308355747681986" lon="14.03803989617181"><ele>72.33333333333333</ele><time>2026-04-04T10:38:54Z</time></trkpt><trkpt lat="42.30824171498422" lon="14.037884022969058"><ele>72.66666666666666</ele><time>2026-04-04T10:38:55Z</time></trkpt><trkpt lat="42.30814341406662" lon="14.03774415184902"><ele>73.0</ele><time>2026-04-04T10:38:56Z</time></trkpt><trkpt lat="42.3080466672051" lon="14.03758064925398"><ele>73.66666666666666</ele><time>2026-04-04T10:38:57Z</time></trkpt><trkpt lat="42.3079456925872" lon="14.037410645379198"><ele>74.33333333333333</ele><time>2026-04-04T10:38:58Z</time></trkpt><trkpt lat="42.30787202962893" lon="14.037212514015057"><ele>75.0</ele><time>2026-04-04T10:38:59Z</time></trkpt><trkpt lat="42.307801472709514" lon="14.037009640387987"><ele>75.0</ele><time>2026-04-04T10:39:00Z</time></trkpt><trkpt lat="42.307758322149624" lon="14.036779983665568"><ele>75.0</ele><time>2026-04-04T10:39:01Z</time></trkpt><trkpt lat="42.307698972472835" lon="14.036544858967027"><ele>75.0</ele><time>2026-04-04T10:39:02Z</time></trkpt><trkpt lat="42.30762893127703" lon="14.03631027229223"><ele>77.33333333333333</ele><time>2026-04-04T10:39:03Z</time></trkpt><trkpt lat="42.30757666948686" lon="14.03608170781132"><ele>79.66666666666666</ele><time>2026-04-04T10:39:04Z</time></trkpt><trkpt lat="42.30752370376193" lon="14.0358693653351"><ele>82.0</ele><time>2026-04-04T10:39:05Z</time></trkpt><trkpt lat="42.307471658561774" lon="14.035673559465488"><ele>80.33333333333333</ele><time>2026-04-04T10:39:06Z</time></trkpt><trkpt lat="42.307411822925125" lon="14.035479031122644"><ele>78.66666666666667</ele><time>2026-04-04T10:39:07Z</time></trkpt><trkpt lat="42.30733727751232" lon="14.03529517059131"><ele>77.0</ele><time>2026-04-04T10:39:08Z</time></trkpt><trkpt lat="42.30724171049531" lon="14.035109192895838"><ele>77.66666666666667</ele><time>2026-04-04T10:39:09Z</time></trkpt><trkpt lat="42.30712998661347" lon="14.034918254016068"><ele>78.33333333333333</ele><time>2026-04-04T10:39:10Z</time></trkpt><trkpt lat="42.307003395429405" lon="14.034737476063242"><ele>79.0</ele><time>2026-04-04T10:39:11Z</time></trkpt><trkpt lat="42.3068664599461" lon="14.034569634610726"><ele>79.0</ele><time>2026-04-04T10:39:12Z</time></trkpt><trkpt lat="42.306737986334376" lon="14.034377569274406"><ele>79.0</ele><time>2026-04-04T10:39:13Z</time></trkpt><trkpt lat="42.30660461592631" lon="14.034208738633232"><ele>79.0</ele><time>2026-04-04T10:39:14Z</time></trkpt><trkpt lat="42.306482405824795" lon="14.0340548271533"><ele>79.0</ele><time>2026-04-04T10:39:15Z</time></trkpt><trkpt lat="42.306360194365176" lon="14.033902526449943"><ele>79.0</ele><time>2026-04-04T10:39:16Z</time></trkpt><trkpt lat="42.30624843357746" lon="14.033763249320563"><ele>79.0</ele><time>2026-04-04T10:39:17Z</time></trkpt><trkpt lat="42.306146860146264" lon="14.03363633135137"><ele>79.0</ele><time>2026-04-04T10:39:18Z</time></trkpt><trkpt lat="42.3060539577592" lon="14.033520029341952"><ele>79.0</ele><time>2026-04-04T10:39:19Z</time></trkpt><trkpt lat="42.305975100377744" lon="14.033421309754354"><ele>79.0</ele><time>2026-04-04T10:39:20Z</time></trkpt><trkpt lat="42.30589799204171" lon="14.033328080333218"><ele>79.0</ele><time>2026-04-04T10:39:21Z</time></trkpt><trkpt lat="42.305822447599326" lon="14.033244408481293"><ele>79.0</ele><time>2026-04-04T10:39:22Z</time></trkpt><trkpt lat="42.30572951367352" lon="14.033161255080612"><ele>79.25</ele><time>2026-04-04T10:39:23Z</time></trkpt><trkpt lat="42.30562689707717" lon="14.033081514483596"><ele>79.5</ele><time>2026-04-04T10:39:24Z</time></trkpt><trkpt lat="42.30548161232414" lon="14.033055113939886"><ele>79.75</ele><time>2026-04-04T10:39:25Z</time></trkpt><trkpt lat="42.305344505278875" lon="14.033006876853515"><ele>80.0</ele><time>2026-04-04T10:39:26Z</time></trkpt><trkpt lat="42.30519263452262" lon="14.032944828449768"><ele>80.0</ele><time>2026-04-04T10:39:27Z</time></trkpt><trkpt lat="42.30504253509356" lon="14.032897759466435"><ele>80.0</ele><time>2026-04-04T10:39:28Z</time></trkpt><trkpt lat="42.30489167395281" lon="14.032846642992181"><ele>80.0</ele><time>2026-04-04T10:39:29Z</time></trkpt><trkpt lat="42.30474084038505" lon="14.032789728389464"><ele>79.33333333333334</ele><time>2026-04-04T10:39:30Z</time></trkpt><trkpt lat="42.30459088584191" lon="14.032728574609198"><ele>78.66666666666667</ele><time>2026-04-04T10:39:31Z</time></trkpt><trkpt lat="42.30443879599546" lon="14.03265871782013"><ele>78.0</ele><time>2026-04-04T10:39:32Z</time></trkpt><trkpt lat="42.30429203648311" lon="14.03257239781959"><ele>78.0</ele><time>2026-04-04T10:39:33Z</time></trkpt><trkpt lat="42.30415113321025" lon="14.032467007486561"><ele>78.0</ele><time>2026-04-04T10:39:34Z</time></trkpt><trkpt lat="42.30401404215282" lon="14.032344491205832"><ele>78.0</ele><time>2026-04-04T10:39:35Z</time></trkpt><trkpt lat="42.30388118272903" lon="14.03221989177473"><ele>78.25</ele><time>2026-04-04T10:39:36Z</time></trkpt><trkpt lat="42.30376042421872" lon="14.032107929164038"><ele>78.5</ele><time>2026-04-04T10:39:37Z</time></trkpt><trkpt lat="42.303627306778964" lon="14.032007787622065"><ele>78.75</ele><time>2026-04-04T10:39:38Z</time></trkpt><trkpt lat="42.30350515645236" lon="14.031889701771382"><ele>79.0</ele><time>2026-04-04T10:39:39Z</time></trkpt><trkpt lat="42.30337589583911" lon="14.031769215554158"><ele>78.66666666666666</ele><time>2026-04-04T10:39:40Z</time></trkpt><trkpt lat="42.30325761635514" lon="14.031630003167244"><ele>78.33333333333333</ele><time>2026-04-04T10:39:41Z</time></trkpt><trkpt lat="42.303125771386156" lon="14.031509308488118"><ele>78.0</ele><time>2026-04-04T10:39:42Z</time></trkpt><trkpt lat="42.30298929214282" lon="14.031384088131096"><ele>78.66666666666667</ele><time>2026-04-04T10:39:43Z</time></trkpt><trkpt lat="42.30285347674811" lon="14.03125947677619"><ele>79.33333333333334</ele><time>2026-04-04T10:39:44Z</time></trkpt><trkpt lat="42.30271769455907" lon="14.031132621362623"><ele>80.0</ele><time>2026-04-04T10:39:45Z</time></trkpt><trkpt lat="42.30259438961902" lon="14.031006890348953"><ele>80.0</ele><time>2026-04-04T10:39:46Z</time></trkpt><trkpt lat="42.30247391804789" lon="14.030870919208024"><ele>80.0</ele><time>2026-04-04T10:39:47Z</time></trkpt><trkpt lat="42.30236221577405" lon="14.030728748658856"><ele>80.0</ele><time>2026-04-04T10:39:48Z</time></trkpt><trkpt lat="42.30225603617161" lon="14.030585178060502"><ele>79.25</ele><time>2026-04-04T10:39:49Z</time></trkpt><trkpt lat="42.30215975448225" lon="14.030446264050545"><ele>78.5</ele><time>2026-04-04T10:39:50Z</time></trkpt><trkpt lat="42.30204025034593" lon="14.030319836725091"><ele>77.75</ele><time>2026-04-04T10:39:51Z</time></trkpt><trkpt lat="42.30191654299227" lon="14.030193261474956"><ele>77.0</ele><time>2026-04-04T10:39:52Z</time></trkpt><trkpt lat="42.30178436388919" lon="14.03005694185295"><ele>77.33333333333334</ele><time>2026-04-04T10:39:53Z</time></trkpt><trkpt lat="42.30163468255837" lon="14.029944187761053"><ele>77.66666666666667</ele><time>2026-04-04T10:39:54Z</time></trkpt><trkpt lat="42.30147881515316" lon="14.029832092990397"><ele>78.0</ele><time>2026-04-04T10:39:55Z</time></trkpt><trkpt lat="42.301317467200604" lon="14.029715936997984"><ele>75.66666666666667</ele><time>2026-04-04T10:39:56Z</time></trkpt><trkpt lat="42.30115398381445" lon="14.029598676268451"><ele>73.33333333333334</ele><time>2026-04-04T10:39:57Z</time></trkpt><trkpt lat="42.30097897057937" lon="14.029491041274506"><ele>71.0</ele><time>2026-04-04T10:39:58Z</time></trkpt><trkpt lat="42.30080855647389" lon="14.029364841766458"><ele>71.0</ele><time>2026-04-04T10:39:59Z</time></trkpt><trkpt lat="42.300652040067654" lon="14.029227157405325"><ele>71.0</ele><time>2026-04-04T10:40:00Z</time></trkpt><trkpt lat="42.30049542033753" lon="14.02910881948212"><ele>71.0</ele><time>2026-04-04T10:40:01Z</time></trkpt><trkpt lat="42.300336011745074" lon="14.029011904371286"><ele>72.66666666666667</ele><time>2026-04-04T10:40:02Z</time></trkpt><trkpt lat="42.30017749000538" lon="14.028890917300576"><ele>74.33333333333333</ele><time>2026-04-04T10:40:03Z</time></trkpt><trkpt lat="42.300025607596744" lon="14.02878108781573"><ele>76.0</ele><time>2026-04-04T10:40:04Z</time></trkpt><trkpt lat="42.29986477949139" lon="14.028671187049826"><ele>75.33333333333333</ele><time>2026-04-04T10:40:05Z</time></trkpt><trkpt lat="42.29971497224846" lon="14.028530336872446"><ele>74.66666666666667</ele><time>2026-04-04T10:40:06Z</time></trkpt><trkpt lat="42.29956247141186" lon="14.028414012582349"><ele>74.0</ele><time>2026-04-04T10:40:07Z</time></trkpt><trkpt lat="42.29941308402935" lon="14.028303561661197"><ele>74.0</ele><time>2026-04-04T10:40:08Z</time></trkpt><trkpt lat="42.299258947920066" lon="14.028189599705962"><ele>74.0</ele><time>2026-04-04T10:40:09Z</time></trkpt><trkpt lat="42.29910651060046" lon="14.028076893776007"><ele>74.0</ele><time>2026-04-04T10:40:10Z</time></trkpt><trkpt lat="42.29895371406641" lon="14.027963922267125"><ele>74.0</ele><time>2026-04-04T10:40:11Z</time></trkpt><trkpt lat="42.298791629931586" lon="14.027867113844204"><ele>74.0</ele><time>2026-04-04T10:40:12Z</time></trkpt><trkpt lat="42.29863262738039" lon="14.027745045704144"><ele>74.0</ele><time>2026-04-04T10:40:13Z</time></trkpt><trkpt lat="42.29847645519189" lon="14.027630988895876"><ele>74.0</ele><time>2026-04-04T10:40:14Z</time></trkpt><trkpt lat="42.29831834006541" lon="14.027494152717518"><ele>74.0</ele><time>2026-04-04T10:40:15Z</time></trkpt><trkpt lat="42.29815385994709" lon="14.027372542825711"><ele>74.0</ele><time>2026-04-04T10:40:16Z</time></trkpt><trkpt lat="42.29798460928826" lon="14.027247405742038"><ele>74.0</ele><time>2026-04-04T10:40:17Z</time></trkpt><trkpt lat="42.29781668519557" lon="14.02712324960039"><ele>74.0</ele><time>2026-04-04T10:40:18Z</time></trkpt><trkpt lat="42.297645182449926" lon="14.026996171846449"><ele>74.0</ele><time>2026-04-04T10:40:19Z</time></trkpt><trkpt lat="42.29747709994337" lon="14.026871508334706"><ele>74.0</ele><time>2026-04-04T10:40:19.999Z</time></trkpt><trkpt lat="42.297315314873664" lon="14.026751551108418"><ele>74.0</ele><time>2026-04-04T10:40:20.999Z</time></trkpt><trkpt lat="42.29714530173179" lon="14.026625652492214"><ele>74.0</ele><time>2026-04-04T10:40:21.999Z</time></trkpt><trkpt lat="42.29696305190169" lon="14.026515354683953"><ele>74.0</ele><time>2026-04-04T10:40:22.999Z</time></trkpt><trkpt lat="42.29680388483191" lon="14.02637282269573"><ele>74.0</ele><time>2026-04-04T10:40:23.999Z</time></trkpt><trkpt lat="42.29662455111218" lon="14.02626369766734"><ele>74.0</ele><time>2026-04-04T10:40:24.999Z</time></trkpt><trkpt lat="42.296467957850744" lon="14.026124058377732"><ele>74.0</ele><time>2026-04-04T10:40:25.999Z</time></trkpt><trkpt lat="42.296304539260156" lon="14.026003041841445"><ele>74.0</ele><time>2026-04-04T10:40:26.999Z</time></trkpt><trkpt lat="42.29614805121056" lon="14.025887157586277"><ele>74.0</ele><time>2026-04-04T10:40:27.999Z</time></trkpt><trkpt lat="42.29599419695785" lon="14.02577322376843"><ele>73.66666666666667</ele><time>2026-04-04T10:40:28.999Z</time></trkpt><trkpt lat="42.2958436024686" lon="14.025661752822408"><ele>73.33333333333333</ele><time>2026-04-04T10:40:29.999Z</time></trkpt><trkpt lat="42.2956892406204" lon="14.02554764559593"><ele>73.0</ele><time>2026-04-04T10:40:30.999Z</time></trkpt><trkpt lat="42.29552898027357" lon="14.025453593825153"><ele>73.0</ele><time>2026-04-04T10:40:31.999Z</time></trkpt><trkpt lat="42.295376834880216" lon="14.025316139560712"><ele>73.0</ele><time>2026-04-04T10:40:32.999Z</time></trkpt><trkpt lat="42.29521941093824" lon="14.025198969412443"><ele>73.0</ele><time>2026-04-04T10:40:33.999Z</time></trkpt><trkpt lat="42.295057207157235" lon="14.025101823268699"><ele>73.0</ele><time>2026-04-04T10:40:34.999Z</time></trkpt><trkpt lat="42.29490625119464" lon="14.024982438056279"><ele>73.0</ele><time>2026-04-04T10:40:35.999Z</time></trkpt><trkpt lat="42.294746624143855" lon="14.024862126393371"><ele>73.0</ele><time>2026-04-04T10:40:36.999Z</time></trkpt><trkpt lat="42.294592422345175" lon="14.024745535900156"><ele>73.66666666666666</ele><time>2026-04-04T10:40:37.999Z</time></trkpt><trkpt lat="42.29443413298014" lon="14.024625021253184"><ele>74.33333333333333</ele><time>2026-04-04T10:40:38.999Z</time></trkpt><trkpt lat="42.294276328768504" lon="14.024508276202264"><ele>75.0</ele><time>2026-04-04T10:40:39.999Z</time></trkpt><trkpt lat="42.294114151057336" lon="14.024395792866281"><ele>75.0</ele><time>2026-04-04T10:40:40.999Z</time></trkpt><trkpt lat="42.29395418895761" lon="14.024281851238582"><ele>75.0</ele><time>2026-04-04T10:40:41.999Z</time></trkpt><trkpt lat="42.29380155284634" lon="14.024145094004304"><ele>75.0</ele><time>2026-04-04T10:40:42.999Z</time></trkpt><trkpt lat="42.29364206522865" lon="14.024026896315814"><ele>75.0</ele><time>2026-04-04T10:40:43.999Z</time></trkpt><trkpt lat="42.29347838990705" lon="14.023904194510846"><ele>75.0</ele><time>2026-04-04T10:40:44.999Z</time></trkpt><trkpt lat="42.293307483572974" lon="14.023800988322607"><ele>75.0</ele><time>2026-04-04T10:40:46.001Z</time></trkpt><trkpt lat="42.29313211000308" lon="14.023669738731025"><ele>74.66666666666667</ele><time>2026-04-04T10:40:47.001Z</time></trkpt><trkpt lat="42.29296442431793" lon="14.023536352892501"><ele>74.33333333333334</ele><time>2026-04-04T10:40:48.001Z</time></trkpt><trkpt lat="42.29278783428132" lon="14.023408677241408"><ele>74.0</ele><time>2026-04-04T10:40:49.001Z</time></trkpt><trkpt lat="42.2926090935412" lon="14.023278806839707"><ele>74.66666666666667</ele><time>2026-04-04T10:40:50.001Z</time></trkpt><trkpt lat="42.29245399900694" lon="14.023167688071071"><ele>75.33333333333333</ele><time>2026-04-04T10:40:51.001Z</time></trkpt><trkpt lat="42.292290019166394" lon="14.023049092440635"><ele>76.0</ele><time>2026-04-04T10:40:52.001Z</time></trkpt><trkpt lat="42.29213652628181" lon="14.022910442659962"><ele>76.0</ele><time>2026-04-04T10:40:53.001Z</time></trkpt><trkpt lat="42.291966437048266" lon="14.02278454639938"><ele>76.0</ele><time>2026-04-04T10:40:54.001Z</time></trkpt><trkpt lat="42.29179682455157" lon="14.02267682264461"><ele>76.0</ele><time>2026-04-04T10:40:55.001Z</time></trkpt><trkpt lat="42.291623319904986" lon="14.022544539938256"><ele>76.0</ele><time>2026-04-04T10:40:56.001Z</time></trkpt><trkpt lat="42.29144353210451" lon="14.02241496461618"><ele>76.0</ele><time>2026-04-04T10:40:57.001Z</time></trkpt><trkpt lat="42.29125114042401" lon="14.022274591026985"><ele>76.0</ele><time>2026-04-04T10:40:58.001Z</time></trkpt><trkpt lat="42.29106359170453" lon="14.022136215047118"><ele>76.0</ele><time>2026-04-04T10:40:59.001Z</time></trkpt><trkpt lat="42.29089412361168" lon="14.02198457556536"><ele>76.0</ele><time>2026-04-04T10:41:00.001Z</time></trkpt><trkpt lat="42.290702289494206" lon="14.021841008967604"><ele>76.0</ele><time>2026-04-04T10:41:01.001Z</time></trkpt><trkpt lat="42.29051911673944" lon="14.021703780410318"><ele>77.0</ele><time>2026-04-04T10:41:02Z</time></trkpt><trkpt lat="42.290339314932716" lon="14.021571148305473"><ele>78.0</ele><time>2026-04-04T10:41:03Z</time></trkpt><trkpt lat="42.29016505260988" lon="14.021445109457543"><ele>79.0</ele><time>2026-04-04T10:41:04Z</time></trkpt><trkpt lat="42.289995225477604" lon="14.021302671772983"><ele>79.0</ele><time>2026-04-04T10:41:05Z</time></trkpt><trkpt lat="42.28982678796521" lon="14.021135155955411"><ele>79.0</ele><time>2026-04-04T10:41:06Z</time></trkpt><trkpt lat="42.28966769214012" lon="14.020946833134662"><ele>79.0</ele><time>2026-04-04T10:41:07Z</time></trkpt><trkpt lat="42.289510193116584" lon="14.020777309148604"><ele>79.0</ele><time>2026-04-04T10:41:08Z</time></trkpt><trkpt lat="42.28937017414314" lon="14.02060185304674"><ele>79.0</ele><time>2026-04-04T10:41:09Z</time></trkpt><trkpt lat="42.28922870031516" lon="14.02043143248382"><ele>79.0</ele><time>2026-04-04T10:41:10Z</time></trkpt><trkpt lat="42.28908684769056" lon="14.020277376759081"><ele>79.0</ele><time>2026-04-04T10:41:11Z</time></trkpt><trkpt lat="42.28894531917661" lon="14.020134732646582"><ele>79.0</ele><time>2026-04-04T10:41:12Z</time></trkpt><trkpt lat="42.288796000398236" lon="14.020017404480457"><ele>79.0</ele><time>2026-04-04T10:41:13Z</time></trkpt><trkpt lat="42.28864766874608" lon="14.01991355033607"><ele>79.66666666666666</ele><time>2026-04-04T10:41:14Z</time></trkpt><trkpt lat="42.28850175774598" lon="14.019817697793203"><ele>80.33333333333333</ele><time>2026-04-04T10:41:15Z</time></trkpt><trkpt lat="42.28836854061436" lon="14.019725956066814"><ele>81.0</ele><time>2026-04-04T10:41:16Z</time></trkpt><trkpt lat="42.28823517300882" lon="14.01964711538534"><ele>81.0</ele><time>2026-04-04T10:41:17Z</time></trkpt><trkpt lat="42.288100359041565" lon="14.019604022459184"><ele>81.0</ele><time>2026-04-04T10:41:18Z</time></trkpt><trkpt lat="42.28796831370979" lon="14.019580953387567"><ele>81.0</ele><time>2026-04-04T10:41:19Z</time></trkpt><trkpt lat="42.287855479225165" lon="14.019543115078605"><ele>81.0</ele><time>2026-04-04T10:41:20Z</time></trkpt><trkpt lat="42.287759223170326" lon="14.019518102507943"><ele>80.83333333333333</ele><time>2026-04-04T10:41:21Z</time></trkpt><trkpt lat="42.28767816629109" lon="14.019491009540438"><ele>80.66666666666667</ele><time>2026-04-04T10:41:22Z</time></trkpt><trkpt lat="42.287598885715276" lon="14.019462333575287"><ele>80.5</ele><time>2026-04-04T10:41:23Z</time></trkpt><trkpt lat="42.28752073514037" lon="14.01941027233442"><ele>80.33333333333334</ele><time>2026-04-04T10:41:24Z</time></trkpt><trkpt lat="42.2874431503005" lon="14.01935833716864"><ele>80.16666666666667</ele><time>2026-04-04T10:41:25Z</time></trkpt><trkpt lat="42.28736879692639" lon="14.019306437372311"><ele>80.0</ele><time>2026-04-04T10:41:26Z</time></trkpt><trkpt lat="42.28730573533282" lon="14.019261283735965"><ele>80.0</ele><time>2026-04-04T10:41:27Z</time></trkpt><trkpt lat="42.287240508574804" lon="14.01923787155728"><ele>80.0</ele><time>2026-04-04T10:41:28Z</time></trkpt><trkpt lat="42.28718141345378" lon="14.019193758100288"><ele>80.0</ele><time>2026-04-04T10:41:29Z</time></trkpt><trkpt lat="42.28711982997625" lon="14.019141305907242"><ele>80.0</ele><time>2026-04-04T10:41:30Z</time></trkpt><trkpt lat="42.287056003919105" lon="14.019101812796816"><ele>80.0</ele><time>2026-04-04T10:41:31Z</time></trkpt><trkpt lat="42.28699035501247" lon="14.019066347775444"><ele>80.0</ele><time>2026-04-04T10:41:32Z</time></trkpt><trkpt lat="42.286931395042785" lon="14.019030678193753"><ele>80.0</ele><time>2026-04-04T10:41:33Z</time></trkpt><trkpt lat="42.28680188869438" lon="14.019000310523591"><ele>80.0</ele><time>2026-04-04T10:41:35Z</time></trkpt><trkpt lat="42.28670152376946" lon="14.018965689368715"><ele>80.0</ele><time>2026-04-04T10:41:37Z</time></trkpt><trkpt lat="42.28661998421926" lon="14.018937028700801"><ele>80.0</ele><time>2026-04-04T10:41:39Z</time></trkpt><trkpt lat="42.28653755836963" lon="14.018826697824183"><ele>80.0</ele><time>2026-04-04T10:41:41Z</time></trkpt><trkpt lat="42.286494007139034" lon="14.018673466053247"><ele>80.0</ele><time>2026-04-04T10:41:43Z</time></trkpt><trkpt lat="42.28644763035932" lon="14.018549469531774"><ele>80.2</ele><time>2026-04-04T10:41:45Z</time></trkpt><trkpt lat="42.286387020634635" lon="14.018382544823616"><ele>80.4</ele><time>2026-04-04T10:41:47Z</time></trkpt><trkpt lat="42.28634892657066" lon="14.018276691531742"><ele>80.6</ele><time>2026-04-04T10:41:48Z</time></trkpt><trkpt lat="42.28631854853296" lon="14.01818195057413"><ele>80.8</ele><time>2026-04-04T10:41:49Z</time></trkpt><trkpt lat="42.28628513874941" lon="14.018072135696286"><ele>81.0</ele><time>2026-04-04T10:41:50Z</time></trkpt><trkpt lat="42.2862449190693" lon="14.017954628300322"><ele>81.16666666666667</ele><time>2026-04-04T10:41:51Z</time></trkpt><trkpt lat="42.286207192607186" lon="14.01784715579833"><ele>81.33333333333333</ele><time>2026-04-04T10:41:52Z</time></trkpt><trkpt lat="42.286172874137726" lon="14.017749506922256"><ele>81.5</ele><time>2026-04-04T10:41:53Z</time></trkpt><trkpt lat="42.28613481155525" lon="14.017645145922021"><ele>81.66666666666666</ele><time>2026-04-04T10:41:54Z</time></trkpt><trkpt lat="42.28610056752711" lon="14.017542456111387"><ele>81.83333333333333</ele><time>2026-04-04T10:41:55Z</time></trkpt><trkpt lat="42.28605702760531" lon="14.01743259442763"><ele>82.0</ele><time>2026-04-04T10:41:56Z</time></trkpt><trkpt lat="42.28601165735365" lon="14.017303719431297"><ele>82.19999999999999</ele><time>2026-04-04T10:41:57Z</time></trkpt><trkpt lat="42.28597098129904" lon="14.017192455813449"><ele>82.4</ele><time>2026-04-04T10:41:58Z</time></trkpt><trkpt lat="42.28592916635582" lon="14.017081875426147"><ele>82.6</ele><time>2026-04-04T10:41:59Z</time></trkpt><trkpt lat="42.28588241586612" lon="14.016970709802335"><ele>82.80000000000001</ele><time>2026-04-04T10:42:00Z</time></trkpt><trkpt lat="42.285843921772106" lon="14.016846611925104"><ele>83.0</ele><time>2026-04-04T10:42:01Z</time></trkpt><trkpt lat="42.28580259910645" lon="14.01673591277817"><ele>82.80000000000001</ele><time>2026-04-04T10:42:02Z</time></trkpt><trkpt lat="42.28578127091526" lon="14.016617078202803"><ele>82.6</ele><time>2026-04-04T10:42:03Z</time></trkpt><trkpt lat="42.28574531520076" lon="14.01650377107412"><ele>82.4</ele><time>2026-04-04T10:42:04Z</time></trkpt><trkpt lat="42.28571275022015" lon="14.016380880549589"><ele>82.19999999999999</ele><time>2026-04-04T10:42:05Z</time></trkpt><trkpt lat="42.285671985562544" lon="14.016251782444787"><ele>82.0</ele><time>2026-04-04T10:42:06Z</time></trkpt><trkpt lat="42.28564494569384" lon="14.016097230642492"><ele>82.0</ele><time>2026-04-04T10:42:07Z</time></trkpt><trkpt lat="42.28561967806344" lon="14.01595261208568"><ele>82.0</ele><time>2026-04-04T10:42:08Z</time></trkpt><trkpt lat="42.285592187458846" lon="14.01579294930169"><ele>82.0</ele><time>2026-04-04T10:42:09Z</time></trkpt><trkpt lat="42.285558374949055" lon="14.0155959731971"><ele>82.0</ele><time>2026-04-04T10:42:10Z</time></trkpt><trkpt lat="42.28552975608899" lon="14.015399980049962"><ele>82.75</ele><time>2026-04-04T10:42:11Z</time></trkpt><trkpt lat="42.2854977055876" lon="14.015192060366203"><ele>83.5</ele><time>2026-04-04T10:42:12Z</time></trkpt><trkpt lat="42.28547012731095" lon="14.014996577402398"><ele>84.25</ele><time>2026-04-04T10:42:13Z</time></trkpt><trkpt lat="42.28544457334575" lon="14.014822668389616"><ele>85.0</ele><time>2026-04-04T10:42:14Z</time></trkpt><trkpt lat="42.28542059330998" lon="14.014667139095724"><ele>85.4</ele><time>2026-04-04T10:42:15Z</time></trkpt><trkpt lat="42.28539635599889" lon="14.014521384105038"><ele>85.8</ele><time>2026-04-04T10:42:16Z</time></trkpt><trkpt lat="42.285376881728475" lon="14.014386579892095"><ele>86.19999999999999</ele><time>2026-04-04T10:42:17Z</time></trkpt><trkpt lat="42.28536237128929" lon="14.014266457864709"><ele>86.6</ele><time>2026-04-04T10:42:18Z</time></trkpt><trkpt lat="42.2853779810238" lon="14.01414890259956"><ele>87.0</ele><time>2026-04-04T10:42:19Z</time></trkpt><trkpt lat="42.285364154455365" lon="14.014039910751087"><ele>87.33333333333333</ele><time>2026-04-04T10:42:20Z</time></trkpt><trkpt lat="42.28537359584512" lon="14.013930062565974"><ele>87.66666666666667</ele><time>2026-04-04T10:42:21Z</time></trkpt><trkpt lat="42.285383749032064" lon="14.013837510710102"><ele>88.0</ele><time>2026-04-04T10:42:22Z</time></trkpt><trkpt lat="42.28538968602523" lon="14.01374658983675"><ele>88.33333333333334</ele><time>2026-04-04T10:42:23Z</time></trkpt><trkpt lat="42.28538951879988" lon="14.013642394955323"><ele>88.66666666666667</ele><time>2026-04-04T10:42:24Z</time></trkpt><trkpt lat="42.285386903406575" lon="14.013530147613004"><ele>89.0</ele><time>2026-04-04T10:42:25Z</time></trkpt><trkpt lat="42.28538162417598" lon="14.013410278405185"><ele>89.0</ele><time>2026-04-04T10:42:26Z</time></trkpt><trkpt lat="42.285348993588556" lon="14.01328714848609"><ele>89.0</ele><time>2026-04-04T10:42:27Z</time></trkpt><trkpt lat="42.285300280022284" lon="14.013182675457976"><ele>89.0</ele><time>2026-04-04T10:42:28Z</time></trkpt><trkpt lat="42.285238140274764" lon="14.013089378401084"><ele>89.0</ele><time>2026-04-04T10:42:29Z</time></trkpt><trkpt lat="42.285167050237064" lon="14.01302484436173"><ele>89.0</ele><time>2026-04-04T10:42:29.999Z</time></trkpt><trkpt lat="42.285091778653424" lon="14.012979180800787"><ele>89.0</ele><time>2026-04-04T10:42:30.999Z</time></trkpt><trkpt lat="42.285030643932146" lon="14.012925203495438"><ele>89.0</ele><time>2026-04-04T10:42:31.999Z</time></trkpt><trkpt lat="42.28497464020883" lon="14.012883044919283"><ele>89.0</ele><time>2026-04-04T10:42:32.999Z</time></trkpt><trkpt lat="42.284876486473046" lon="14.012798510327176"><ele>89.0</ele><time>2026-04-04T10:42:34.999Z</time></trkpt><trkpt lat="42.28480589931333" lon="14.012719549590782"><ele>89.0</ele><time>2026-04-04T10:42:36.999Z</time></trkpt><trkpt lat="42.28474988154393" lon="14.012652926015889"><ele>89.0</ele><time>2026-04-04T10:42:38.999Z</time></trkpt><trkpt lat="42.28467397284318" lon="14.012557429531508"><ele>89.80000000000001</ele><time>2026-04-04T10:42:40.999Z</time></trkpt><trkpt lat="42.28461528777997" lon="14.012431080827842"><ele>90.60000000000001</ele><time>2026-04-04T10:42:42.999Z</time></trkpt><trkpt lat="42.28457228484859" lon="14.012298381413"><ele>91.4</ele><time>2026-04-04T10:42:44.999Z</time></trkpt><trkpt lat="42.284454661269606" lon="14.012276010843827"><ele>92.2</ele><time>2026-04-04T10:42:46.999Z</time></trkpt><trkpt lat="42.284385404482244" lon="14.012394470767218"><ele>93.0</ele><time>2026-04-04T10:42:48.999Z</time></trkpt><trkpt lat="42.28439922588978" lon="14.012487180836718"><ele>92.80000000000001</ele><time>2026-04-04T10:42:49.999Z</time></trkpt><trkpt lat="42.28440827368237" lon="14.012629398302991"><ele>92.6</ele><time>2026-04-04T10:42:52.001Z</time></trkpt><trkpt lat="42.28433036156802" lon="14.012683033716515"><ele>92.4</ele><time>2026-04-04T10:42:53.001Z</time></trkpt><trkpt lat="42.28428087088873" lon="14.012752926586842"><ele>92.19999999999999</ele><time>2026-04-04T10:42:54.001Z</time></trkpt><trkpt lat="42.28422375585003" lon="14.0128200065219"><ele>92.0</ele><time>2026-04-04T10:42:55.001Z</time></trkpt><trkpt lat="42.28410629946116" lon="14.012902117494374"><ele>92.0</ele><time>2026-04-04T10:42:57.001Z</time></trkpt><trkpt lat="42.28404019855832" lon="14.012951747553519"><ele>92.0</ele><time>2026-04-04T10:42:58.001Z</time></trkpt><trkpt lat="42.283973975864896" lon="14.012998691056929"><ele>92.0</ele><time>2026-04-04T10:42:59.001Z</time></trkpt><trkpt lat="42.2839068836521" lon="14.013047090966761"><ele>92.0</ele><time>2026-04-04T10:43:00.001Z</time></trkpt><trkpt lat="42.283830739878304" lon="14.013101399639885"><ele>92.0</ele><time>2026-04-04T10:43:01.001Z</time></trkpt><trkpt lat="42.28376049914232" lon="14.013151608479738"><ele>92.0</ele><time>2026-04-04T10:43:02.001Z</time></trkpt><trkpt lat="42.28368660352524" lon="14.013204429868374"><ele>92.0</ele><time>2026-04-04T10:43:03.001Z</time></trkpt><trkpt lat="42.28360368440516" lon="14.013263701353699"><ele>92.0</ele><time>2026-04-04T10:43:04.001Z</time></trkpt><trkpt lat="42.283521286919616" lon="14.013322599969941"><ele>92.0</ele><time>2026-04-04T10:43:05.001Z</time></trkpt><trkpt lat="42.28343200991108" lon="14.013386416143906"><ele>92.0</ele><time>2026-04-04T10:43:06.001Z</time></trkpt><trkpt lat="42.28334497904261" lon="14.013448626752357"><ele>92.0</ele><time>2026-04-04T10:43:07.001Z</time></trkpt><trkpt lat="42.283260853819506" lon="14.01350881045615"><ele>92.0</ele><time>2026-04-04T10:43:08.001Z</time></trkpt><trkpt lat="42.2831798136166" lon="14.013567535240783"><ele>92.0</ele><time>2026-04-04T10:43:09.001Z</time></trkpt><trkpt lat="42.28309454005963" lon="14.01362932767253"><ele>92.0</ele><time>2026-04-04T10:43:10.001Z</time></trkpt><trkpt lat="42.28299915376404" lon="14.013698448175905"><ele>92.0</ele><time>2026-04-04T10:43:11.001Z</time></trkpt><trkpt lat="42.282898923437614" lon="14.013771082508852"><ele>92.0</ele><time>2026-04-04T10:43:12.001Z</time></trkpt><trkpt lat="42.282802195953316" lon="14.013841192575915"><ele>91.8</ele><time>2026-04-04T10:43:13.001Z</time></trkpt><trkpt lat="42.28271321613944" lon="14.013905339510751"><ele>91.6</ele><time>2026-04-04T10:43:14.001Z</time></trkpt><trkpt lat="42.28262706232804" lon="14.013967494325104"><ele>91.39999999999999</ele><time>2026-04-04T10:43:15Z</time></trkpt><trkpt lat="42.2825420801848" lon="14.0140288159047"><ele>91.19999999999999</ele><time>2026-04-04T10:43:16Z</time></trkpt><trkpt lat="42.28246187670532" lon="14.014086689284774"><ele>91.0</ele><time>2026-04-04T10:43:17Z</time></trkpt><trkpt lat="42.28237265913608" lon="14.014151067070957"><ele>91.19999999999999</ele><time>2026-04-04T10:43:18Z</time></trkpt><trkpt lat="42.28227197303554" lon="14.014223720341754"><ele>91.39999999999999</ele><time>2026-04-04T10:43:19Z</time></trkpt><trkpt lat="42.28217105238979" lon="14.014295111616708"><ele>91.6</ele><time>2026-04-04T10:43:20Z</time></trkpt><trkpt lat="42.28207602922746" lon="14.014362017151369"><ele>91.8</ele><time>2026-04-04T10:43:21Z</time></trkpt><trkpt lat="42.28198721345556" lon="14.014424552081719"><ele>92.0</ele><time>2026-04-04T10:43:22Z</time></trkpt><trkpt lat="42.28189378922314" lon="14.014490331815825"><ele>92.0</ele><time>2026-04-04T10:43:23Z</time></trkpt><trkpt lat="42.281798293880165" lon="14.014558307319138"><ele>92.0</ele><time>2026-04-04T10:43:24Z</time></trkpt><trkpt lat="42.281710303897654" lon="14.014620779280984"><ele>92.0</ele><time>2026-04-04T10:43:25Z</time></trkpt><trkpt lat="42.28162870869232" lon="14.014678711016337"><ele>92.0</ele><time>2026-04-04T10:43:26Z</time></trkpt><trkpt lat="42.28153878061247" lon="14.014742559004173"><ele>92.0</ele><time>2026-04-04T10:43:27Z</time></trkpt><trkpt lat="42.28144976399727" lon="14.014805759860764"><ele>92.0</ele><time>2026-04-04T10:43:28Z</time></trkpt><trkpt lat="42.281368981906375" lon="14.014863114293577"><ele>92.0</ele><time>2026-04-04T10:43:29Z</time></trkpt><trkpt lat="42.281287760951585" lon="14.014924842863513"><ele>92.0</ele><time>2026-04-04T10:43:30Z</time></trkpt><trkpt lat="42.28121074573465" lon="14.014984411533872"><ele>92.0</ele><time>2026-04-04T10:43:31Z</time></trkpt><trkpt lat="42.28112838954794" lon="14.015043765718254"><ele>92.0</ele><time>2026-04-04T10:43:32Z</time></trkpt><trkpt lat="42.28104217326763" lon="14.015099565410985"><ele>92.0</ele><time>2026-04-04T10:43:33Z</time></trkpt><trkpt lat="42.28095766246663" lon="14.015148602882658"><ele>92.0</ele><time>2026-04-04T10:43:34Z</time></trkpt><trkpt lat="42.28086733189979" lon="14.015180574839873"><ele>92.0</ele><time>2026-04-04T10:43:35Z</time></trkpt><trkpt lat="42.2807777876875" lon="14.01523041451594"><ele>92.0</ele><time>2026-04-04T10:43:36Z</time></trkpt><trkpt lat="42.28068505432529" lon="14.01521590941679"><ele>92.0</ele><time>2026-04-04T10:43:37Z</time></trkpt><trkpt lat="42.28059675149979" lon="14.015175375985331"><ele>92.0</ele><time>2026-04-04T10:43:38Z</time></trkpt><trkpt lat="42.28051521043267" lon="14.015119563523463"><ele>92.0</ele><time>2026-04-04T10:43:39Z</time></trkpt><trkpt lat="42.28043710070574" lon="14.01504673947411"><ele>92.0</ele><time>2026-04-04T10:43:40Z</time></trkpt><trkpt lat="42.280361145068476" lon="14.014948712134014"><ele>92.0</ele><time>2026-04-04T10:43:41Z</time></trkpt><trkpt lat="42.28028805063026" lon="14.014866561002876"><ele>92.0</ele><time>2026-04-04T10:43:42.001Z</time></trkpt><trkpt lat="42.28021153407935" lon="14.01479317712268"><ele>92.0</ele><time>2026-04-04T10:43:43Z</time></trkpt><trkpt lat="42.28013312446431" lon="14.014717977683004"><ele>92.0</ele><time>2026-04-04T10:43:44Z</time></trkpt><trkpt lat="42.280056634649796" lon="14.014644619444823"><ele>92.0</ele><time>2026-04-04T10:43:45Z</time></trkpt><trkpt lat="42.279971747777296" lon="14.014563207934728"><ele>92.0</ele><time>2026-04-04T10:43:46Z</time></trkpt><trkpt lat="42.279876805036274" lon="14.014472152252544"><ele>92.0</ele><time>2026-04-04T10:43:47Z</time></trkpt><trkpt lat="42.27977758845704" lon="14.01437809331403"><ele>92.25</ele><time>2026-04-04T10:43:48Z</time></trkpt><trkpt lat="42.27966719804219" lon="14.01427409996698"><ele>92.5</ele><time>2026-04-04T10:43:49Z</time></trkpt><trkpt lat="42.27955039767586" lon="14.014164068120243"><ele>92.75</ele><time>2026-04-04T10:43:50Z</time></trkpt><trkpt lat="42.27943114563931" lon="14.014051726679108"><ele>93.0</ele><time>2026-04-04T10:43:51Z</time></trkpt><trkpt lat="42.2793026799647" lon="14.013930705523709"><ele>93.0</ele><time>2026-04-04T10:43:52Z</time></trkpt><trkpt lat="42.27917096886511" lon="14.013806627015953"><ele>93.0</ele><time>2026-04-04T10:43:53Z</time></trkpt><trkpt lat="42.27903460685791" lon="14.013678006271322"><ele>93.0</ele><time>2026-04-04T10:43:54Z</time></trkpt><trkpt lat="42.278909846870306" lon="14.013560176767044"><ele>93.0</ele><time>2026-04-04T10:43:55Z</time></trkpt><trkpt lat="42.27879311497491" lon="14.013449929390507"><ele>93.0</ele><time>2026-04-04T10:43:56Z</time></trkpt><trkpt lat="42.27868186416578" lon="14.013344858622784"><ele>93.0</ele><time>2026-04-04T10:43:57Z</time></trkpt><trkpt lat="42.27857327579369" lon="14.013242302391712"><ele>93.0</ele><time>2026-04-04T10:43:58Z</time></trkpt><trkpt lat="42.27847033110526" lon="14.013145076334927"><ele>93.60000000000001</ele><time>2026-04-04T10:43:59Z</time></trkpt><trkpt lat="42.27838002518143" lon="14.013059786953727"><ele>94.2</ele><time>2026-04-04T10:44:00Z</time></trkpt><trkpt lat="42.27829610927138" lon="14.012980532617984"><ele>94.8</ele><time>2026-04-04T10:44:01Z</time></trkpt><trkpt lat="42.27821445866537" lon="14.01290341774692"><ele>95.4</ele><time>2026-04-04T10:44:02Z</time></trkpt><trkpt lat="42.278138247077656" lon="14.012831441144384"><ele>96.0</ele><time>2026-04-04T10:44:03Z</time></trkpt><trkpt lat="42.27806179698275" lon="14.012759237899584"><ele>96.0</ele><time>2026-04-04T10:44:04Z</time></trkpt><trkpt lat="42.277991574678154" lon="14.012692915311888"><ele>96.0</ele><time>2026-04-04T10:44:05Z</time></trkpt><trkpt lat="42.277920138687705" lon="14.012625905881462"><ele>96.0</ele><time>2026-04-04T10:44:06Z</time></trkpt><trkpt lat="42.27784302169521" lon="14.01255231729846"><ele>96.0</ele><time>2026-04-04T10:44:07Z</time></trkpt><trkpt lat="42.27774761966662" lon="14.012461580399188"><ele>96.0</ele><time>2026-04-04T10:44:08Z</time></trkpt><trkpt lat="42.277653733363316" lon="14.012372793786131"><ele>97.0</ele><time>2026-04-04T10:44:09Z</time></trkpt><trkpt lat="42.27755159219026" lon="14.012278554766374"><ele>98.0</ele><time>2026-04-04T10:44:10Z</time></trkpt><trkpt lat="42.27743794483934" lon="14.01217347544886"><ele>99.0</ele><time>2026-04-04T10:44:11Z</time></trkpt><trkpt lat="42.27731300769031" lon="14.012056982619672"><ele>100.0</ele><time>2026-04-04T10:44:12Z</time></trkpt><trkpt lat="42.2771817226312" lon="14.011931456403492"><ele>100.0</ele><time>2026-04-04T10:44:13Z</time></trkpt><trkpt lat="42.27705511983459" lon="14.011807049222623"><ele>100.0</ele><time>2026-04-04T10:44:14Z</time></trkpt><trkpt lat="42.27693319876473" lon="14.01168505837003"><ele>100.0</ele><time>2026-04-04T10:44:15Z</time></trkpt><trkpt lat="42.27680530529646" lon="14.011554328662871"><ele>100.66666666666667</ele><time>2026-04-04T10:44:16Z</time></trkpt><trkpt lat="42.27666934122432" lon="14.011415532005888"><ele>101.33333333333334</ele><time>2026-04-04T10:44:17Z</time></trkpt><trkpt lat="42.276533431787534" lon="14.011276791048278"><ele>102.0</ele><time>2026-04-04T10:44:18Z</time></trkpt><trkpt lat="42.276391870419445" lon="14.01113257939524"><ele>102.0</ele><time>2026-04-04T10:44:19Z</time></trkpt><trkpt lat="42.27625222577801" lon="14.010990849279315"><ele>102.0</ele><time>2026-04-04T10:44:20Z</time></trkpt><trkpt lat="42.27611766179263" lon="14.010854275712985"><ele>102.0</ele><time>2026-04-04T10:44:21Z</time></trkpt><trkpt lat="42.27598367740632" lon="14.010718291628113"><ele>102.33333333333334</ele><time>2026-04-04T10:44:22Z</time></trkpt><trkpt lat="42.27585109941906" lon="14.010584062429443"><ele>102.66666666666667</ele><time>2026-04-04T10:44:23Z</time></trkpt><trkpt lat="42.27572086714869" lon="14.01045236510899"><ele>103.0</ele><time>2026-04-04T10:44:24Z</time></trkpt><trkpt lat="42.27559352495299" lon="14.010323590365136"><ele>103.0</ele><time>2026-04-04T10:44:25Z</time></trkpt><trkpt lat="42.27546220544182" lon="14.010190221763558"><ele>103.0</ele><time>2026-04-04T10:44:26Z</time></trkpt><trkpt lat="42.275334478224735" lon="14.01005984679072"><ele>103.0</ele><time>2026-04-04T10:44:27Z</time></trkpt><trkpt lat="42.27521273348205" lon="14.009935578492378"><ele>104.66666666666667</ele><time>2026-04-04T10:44:28Z</time></trkpt><trkpt lat="42.2750918651412" lon="14.009812206447927"><ele>106.33333333333334</ele><time>2026-04-04T10:44:29Z</time></trkpt><trkpt lat="42.27496791687437" lon="14.009684989173993"><ele>108.0</ele><time>2026-04-04T10:44:30Z</time></trkpt><trkpt lat="42.27484038695357" lon="14.00955430289989"><ele>105.33333333333334</ele><time>2026-04-04T10:44:31Z</time></trkpt><trkpt lat="42.27471198968347" lon="14.009422727907582"><ele>102.66666666666667</ele><time>2026-04-04T10:44:32Z</time></trkpt><trkpt lat="42.27458528142862" lon="14.009292885390114"><ele>100.0</ele><time>2026-04-04T10:44:33Z</time></trkpt><trkpt lat="42.27445895814917" lon="14.00916563014477"><ele>101.0</ele><time>2026-04-04T10:44:34Z</time></trkpt><trkpt lat="42.2743302795799" lon="14.009035128714249"><ele>102.0</ele><time>2026-04-04T10:44:35Z</time></trkpt><trkpt lat="42.27420122914035" lon="14.008904250134185"><ele>103.0</ele><time>2026-04-04T10:44:36Z</time></trkpt><trkpt lat="42.27407345212751" lon="14.008774662998285"><ele>103.0</ele><time>2026-04-04T10:44:37Z</time></trkpt><trkpt lat="42.27394903907641" lon="14.008648636614053"><ele>103.0</ele><time>2026-04-04T10:44:38Z</time></trkpt><trkpt lat="42.27383340202069" lon="14.00853160142832"><ele>103.0</ele><time>2026-04-04T10:44:39Z</time></trkpt><trkpt lat="42.273718571463995" lon="14.008415382383973"><ele>103.0</ele><time>2026-04-04T10:44:40Z</time></trkpt><trkpt lat="42.27360051401092" lon="14.008295897457433"><ele>102.33333333333334</ele><time>2026-04-04T10:44:41Z</time></trkpt><trkpt lat="42.27347787236097" lon="14.008171265648135"><ele>101.66666666666666</ele><time>2026-04-04T10:44:42Z</time></trkpt><trkpt lat="42.27335109617937" lon="14.008042289359873"><ele>101.0</ele><time>2026-04-04T10:44:42.999Z</time></trkpt><trkpt lat="42.27322734066512" lon="14.007916386470134"><ele>101.0</ele><time>2026-04-04T10:44:43.999Z</time></trkpt><trkpt lat="42.27310039545794" lon="14.007786541880074"><ele>101.0</ele><time>2026-04-04T10:44:44.999Z</time></trkpt><trkpt lat="42.27297300692757" lon="14.007656182311925"><ele>101.0</ele><time>2026-04-04T10:44:45.999Z</time></trkpt><trkpt lat="42.27283028147208" lon="14.007537605352065"><ele>100.0</ele><time>2026-04-04T10:44:46.999Z</time></trkpt><trkpt lat="42.272696266017746" lon="14.007394659695228"><ele>99.0</ele><time>2026-04-04T10:44:47.999Z</time></trkpt><trkpt lat="42.27255821507113" lon="14.00725609389505"><ele>98.0</ele><time>2026-04-04T10:44:48.998Z</time></trkpt><trkpt lat="42.272433513977994" lon="14.007099535839664"><ele>98.0</ele><time>2026-04-04T10:44:49.998Z</time></trkpt><trkpt lat="42.27230410802263" lon="14.006967364898985"><ele>98.0</ele><time>2026-04-04T10:44:50.998Z</time></trkpt><trkpt lat="42.272176270756624" lon="14.006837239506174"><ele>98.0</ele><time>2026-04-04T10:44:51.998Z</time></trkpt><trkpt lat="42.27205321631881" lon="14.006711748349717"><ele>98.5</ele><time>2026-04-04T10:44:52.998Z</time></trkpt><trkpt lat="42.27193638766414" lon="14.006591516712392"><ele>99.0</ele><time>2026-04-04T10:44:53.998Z</time></trkpt><trkpt lat="42.271824210874314" lon="14.006472534055199"><ele>99.5</ele><time>2026-04-04T10:44:54.998Z</time></trkpt><trkpt lat="42.27170785558439" lon="14.006379729706786"><ele>100.0</ele><time>2026-04-04T10:44:55.998Z</time></trkpt><trkpt lat="42.27160556736483" lon="14.006273757309058"><ele>100.0</ele><time>2026-04-04T10:44:56.998Z</time></trkpt><trkpt lat="42.27150920551528" lon="14.006178348753865"><ele>100.0</ele><time>2026-04-04T10:44:58Z</time></trkpt><trkpt lat="42.27142737110198" lon="14.006119375447016"><ele>100.0</ele><time>2026-04-04T10:44:59Z</time></trkpt><trkpt lat="42.271343040817655" lon="14.00607279478755"><ele>100.0</ele><time>2026-04-04T10:45:00Z</time></trkpt><trkpt lat="42.27123429097276" lon="14.00611182003842"><ele>100.0</ele><time>2026-04-04T10:45:01Z</time></trkpt><trkpt lat="42.271106846935496" lon="14.006162998261859"><ele>99.5</ele><time>2026-04-04T10:45:02Z</time></trkpt><trkpt lat="42.270977539964015" lon="14.006229320187657"><ele>99.0</ele><time>2026-04-04T10:45:03Z</time></trkpt><trkpt lat="42.27083756108145" lon="14.00626414366129"><ele>98.5</ele><time>2026-04-04T10:45:04Z</time></trkpt><trkpt lat="42.27069881875279" lon="14.006320270658396"><ele>98.0</ele><time>2026-04-04T10:45:05Z</time></trkpt><trkpt lat="42.27055126019396" lon="14.006378704621207"><ele>97.0</ele><time>2026-04-04T10:45:06Z</time></trkpt><trkpt lat="42.27041687415579" lon="14.006431587817573"><ele>96.0</ele><time>2026-04-04T10:45:07Z</time></trkpt><trkpt lat="42.27028903924501" lon="14.006481701912582"><ele>95.0</ele><time>2026-04-04T10:45:08Z</time></trkpt><trkpt lat="42.27016179823445" lon="14.006531518349544"><ele>94.0</ele><time>2026-04-04T10:45:09Z</time></trkpt><trkpt lat="42.27004026223701" lon="14.006578999851046"><ele>94.0</ele><time>2026-04-04T10:45:10Z</time></trkpt><trkpt lat="42.269921246324245" lon="14.006625496845901"><ele>94.0</ele><time>2026-04-04T10:45:11Z</time></trkpt><trkpt lat="42.269816065202264" lon="14.006670191246185"><ele>94.0</ele><time>2026-04-04T10:45:12Z</time></trkpt><trkpt lat="42.26972945746653" lon="14.006731845355558"><ele>94.0</ele><time>2026-04-04T10:45:13Z</time></trkpt><trkpt lat="42.26964147597456" lon="14.006759691140724"><ele>94.0</ele><time>2026-04-04T10:45:14Z</time></trkpt><trkpt lat="42.26958007650795" lon="14.006828005967707"><ele>93.66666666666666</ele><time>2026-04-04T10:45:15Z</time></trkpt><trkpt lat="42.26956521525491" lon="14.00693055366159"><ele>93.33333333333333</ele><time>2026-04-04T10:45:16Z</time></trkpt><trkpt lat="42.269533824375976" lon="14.007008658408703"><ele>93.0</ele><time>2026-04-04T10:45:17Z</time></trkpt><trkpt lat="42.269481816974206" lon="14.007160199648517"><ele>92.66666666666667</ele><time>2026-04-04T10:45:19Z</time></trkpt><trkpt lat="42.269435518337474" lon="14.007220012756187"><ele>92.33333333333334</ele><time>2026-04-04T10:45:20Z</time></trkpt><trkpt lat="42.269367008386254" lon="14.007274662661786"><ele>92.0</ele><time>2026-04-04T10:45:21Z</time></trkpt><trkpt lat="42.26926674163653" lon="14.007255461523298"><ele>92.0</ele><time>2026-04-04T10:45:22Z</time></trkpt><trkpt lat="42.26917117622391" lon="14.007184784400655"><ele>92.0</ele><time>2026-04-04T10:45:23Z</time></trkpt><trkpt lat="42.269060017425986" lon="14.007127088312773"><ele>92.0</ele><time>2026-04-04T10:45:24Z</time></trkpt><trkpt lat="42.26895239465987" lon="14.00706835530712"><ele>92.0</ele><time>2026-04-04T10:45:25Z</time></trkpt><trkpt lat="42.26884263675182" lon="14.007009036244408"><ele>92.19999999999999</ele><time>2026-04-04T10:45:26Z</time></trkpt><trkpt lat="42.2687353982999" lon="14.006951078751504"><ele>92.4</ele><time>2026-04-04T10:45:27Z</time></trkpt><trkpt lat="42.26863072930305" lon="14.006915162537593"><ele>92.6</ele><time>2026-04-04T10:45:28Z</time></trkpt><trkpt lat="42.26853942677438" lon="14.006845702945661"><ele>92.80000000000001</ele><time>2026-04-04T10:45:29Z</time></trkpt><trkpt lat="42.26843821914365" lon="14.006791399105913"><ele>93.0</ele><time>2026-04-04T10:45:30Z</time></trkpt><trkpt lat="42.268332164367706" lon="14.006733764273285"><ele>93.0</ele><time>2026-04-04T10:45:31Z</time></trkpt><trkpt lat="42.26821475000289" lon="14.006668925115275"><ele>93.0</ele><time>2026-04-04T10:45:32Z</time></trkpt><trkpt lat="42.26807943862979" lon="14.00661234198851"><ele>93.0</ele><time>2026-04-04T10:45:33Z</time></trkpt><trkpt lat="42.26795202663046" lon="14.006511628118265"><ele>93.0</ele><time>2026-04-04T10:45:34Z</time></trkpt><trkpt lat="42.26782655476598" lon="14.006420944194577"><ele>94.33333333333334</ele><time>2026-04-04T10:45:35Z</time></trkpt><trkpt lat="42.26770151178911" lon="14.006317876199454"><ele>95.66666666666667</ele><time>2026-04-04T10:45:36Z</time></trkpt><trkpt lat="42.26757651560917" lon="14.006197220898102"><ele>97.0</ele><time>2026-04-04T10:45:36.999Z</time></trkpt><trkpt lat="42.26744811331293" lon="14.006073859125353"><ele>97.0</ele><time>2026-04-04T10:45:37.999Z</time></trkpt><trkpt lat="42.267319665708634" lon="14.005949847765871"><ele>97.0</ele><time>2026-04-04T10:45:38.999Z</time></trkpt><trkpt lat="42.26718385154308" lon="14.005836107378357"><ele>97.0</ele><time>2026-04-04T10:45:39.999Z</time></trkpt><trkpt lat="42.2670568783294" lon="14.005707863270404"><ele>97.75</ele><time>2026-04-04T10:45:40.999Z</time></trkpt><trkpt lat="42.26693966982874" lon="14.005594081886155"><ele>98.5</ele><time>2026-04-04T10:45:41.999Z</time></trkpt><trkpt lat="42.26682854788464" lon="14.005485473464482"><ele>99.25</ele><time>2026-04-04T10:45:42.999Z</time></trkpt><trkpt lat="42.26673164633711" lon="14.005361252856236"><ele>100.0</ele><time>2026-04-04T10:45:43.999Z</time></trkpt><trkpt lat="42.26663096700293" lon="14.005259438210683"><ele>100.00000000000001</ele><time>2026-04-04T10:45:44.999Z</time></trkpt><trkpt lat="42.266548274659684" lon="14.005178718894443"><ele>100.0</ele><time>2026-04-04T10:45:45.999Z</time></trkpt><trkpt lat="42.26648481733162" lon="14.00511705805673"><ele>100.0</ele><time>2026-04-04T10:45:46.999Z</time></trkpt><trkpt lat="42.266407397594236" lon="14.005053992068307"><ele>100.0</ele><time>2026-04-04T10:45:48.999Z</time></trkpt><trkpt lat="42.26633007612728" lon="14.005041765867421"><ele>100.00000000000001</ele><time>2026-04-04T10:45:52.999Z</time></trkpt><trkpt lat="42.26627473171455" lon="14.005113030455744"><ele>100.0</ele><time>2026-04-04T10:45:53.999Z</time></trkpt><trkpt lat="42.266173613224694" lon="14.005183501946409"><ele>100.6</ele><time>2026-04-04T10:45:55.999Z</time></trkpt><trkpt lat="42.26609680148252" lon="14.005136782355063"><ele>101.2</ele><time>2026-04-04T10:45:56.999Z</time></trkpt><trkpt lat="42.26600155571792" lon="14.005124729227564"><ele>101.80000000000001</ele><time>2026-04-04T10:45:57.999Z</time></trkpt><trkpt lat="42.265896437440944" lon="14.005111426741303"><ele>102.4</ele><time>2026-04-04T10:45:58.999Z</time></trkpt><trkpt lat="42.26579195869347" lon="14.005098205190823"><ele>103.0</ele><time>2026-04-04T10:45:59.999Z</time></trkpt><trkpt lat="42.265701790338916" lon="14.005086794594387"><ele>103.4</ele><time>2026-04-04T10:46:00.999Z</time></trkpt><trkpt lat="42.265595370163254" lon="14.005072032208744"><ele>103.80000000000001</ele><time>2026-04-04T10:46:01.999Z</time></trkpt><trkpt lat="42.26549178271942" lon="14.00505663727227"><ele>104.2</ele><time>2026-04-04T10:46:02.999Z</time></trkpt><trkpt lat="42.26538615803443" lon="14.005062695623145"><ele>104.6</ele><time>2026-04-04T10:46:03.999Z</time></trkpt><trkpt lat="42.26528770450935" lon="14.005045696933296"><ele>105.0</ele><time>2026-04-04T10:46:04.999Z</time></trkpt><trkpt lat="42.26518625217476" lon="14.00502897202459"><ele>105.0</ele><time>2026-04-04T10:46:05.999Z</time></trkpt><trkpt lat="42.26508744030411" lon="14.005011443295928"><ele>105.0</ele><time>2026-04-04T10:46:06.999Z</time></trkpt><trkpt lat="42.26499586159666" lon="14.005002113023625"><ele>105.0</ele><time>2026-04-04T10:46:07.999Z</time></trkpt><trkpt lat="42.26490860279021" lon="14.004989281006463"><ele>105.0</ele><time>2026-04-04T10:46:08.999Z</time></trkpt><trkpt lat="42.26482619167716" lon="14.00497640155357"><ele>105.0</ele><time>2026-04-04T10:46:09.999Z</time></trkpt><trkpt lat="42.26476192301214" lon="14.004961842735582"><ele>105.0</ele><time>2026-04-04T10:46:10.999Z</time></trkpt><trkpt lat="42.26466421557251" lon="14.004940840776353"><ele>106.0</ele><time>2026-04-04T10:46:12.999Z</time></trkpt><trkpt lat="42.26457933346961" lon="14.004913605994053"><ele>107.0</ele><time>2026-04-04T10:46:16.999Z</time></trkpt><trkpt lat="42.26449335780938" lon="14.004712106186108"><ele>108.0</ele><time>2026-04-04T10:46:18.999Z</time></trkpt><trkpt lat="42.26445123146666" lon="14.0046072860322"><ele>109.0</ele><time>2026-04-04T10:46:19.999Z</time></trkpt><trkpt lat="42.26440560314474" lon="14.004507120560726"><ele>110.0</ele><time>2026-04-04T10:46:20.999Z</time></trkpt><trkpt lat="42.2643510210811" lon="14.004398768429336"><ele>109.99999999999999</ele><time>2026-04-04T10:46:21.999Z</time></trkpt><trkpt lat="42.26429610848241" lon="14.004300647593777"><ele>110.0</ele><time>2026-04-04T10:46:22.999Z</time></trkpt><trkpt lat="42.26424560546766" lon="14.004218078352821"><ele>110.0</ele><time>2026-04-04T10:46:23.999Z</time></trkpt><trkpt lat="42.26420233855507" lon="14.004143328796054"><ele>110.0</ele><time>2026-04-04T10:46:24.999Z</time></trkpt><trkpt lat="42.26417352509196" lon="14.004063470460036"><ele>110.0</ele><time>2026-04-04T10:46:25.999Z</time></trkpt><trkpt lat="42.26415580547685" lon="14.00396988478919"><ele>109.99999999999999</ele><time>2026-04-04T10:46:26.999Z</time></trkpt><trkpt lat="42.26413433834947" lon="14.003880705979789"><ele>110.0</ele><time>2026-04-04T10:46:27.999Z</time></trkpt><trkpt lat="42.264009764820976" lon="14.003830018250694"><ele>108.8</ele><time>2026-04-04T10:46:29.999Z</time></trkpt><trkpt lat="42.26392897825685" lon="14.003870078717974"><ele>107.6</ele><time>2026-04-04T10:46:30.999Z</time></trkpt><trkpt lat="42.26383234133368" lon="14.003909957469768"><ele>106.4</ele><time>2026-04-04T10:46:31.999Z</time></trkpt><trkpt lat="42.26372287548938" lon="14.003913456325005"><ele>105.2</ele><time>2026-04-04T10:46:32.999Z</time></trkpt><trkpt lat="42.263600718900875" lon="14.003874049408518"><ele>104.0</ele><time>2026-04-04T10:46:33.999Z</time></trkpt><trkpt lat="42.26348209067848" lon="14.003792945586975"><ele>104.0</ele><time>2026-04-04T10:46:34.999Z</time></trkpt><trkpt lat="42.263371251453734" lon="14.003731395574826"><ele>104.0</ele><time>2026-04-04T10:46:35.999Z</time></trkpt><trkpt lat="42.263266451972115" lon="14.003671542415072"><ele>104.0</ele><time>2026-04-04T10:46:36.999Z</time></trkpt><trkpt lat="42.26316778900276" lon="14.003615193967173"><ele>104.0</ele><time>2026-04-04T10:46:37.999Z</time></trkpt><trkpt lat="42.26307383997604" lon="14.003561684853405"><ele>104.0</ele><time>2026-04-04T10:46:38.999Z</time></trkpt><trkpt lat="42.26297763740863" lon="14.003510304783173"><ele>104.16666666666666</ele><time>2026-04-04T10:46:39.999Z</time></trkpt><trkpt lat="42.26288773764472" lon="14.003461657050503"><ele>104.33333333333333</ele><time>2026-04-04T10:46:40.999Z</time></trkpt><trkpt lat="42.26280173393435" lon="14.003414727543175"><ele>104.5</ele><time>2026-04-04T10:46:41.999Z</time></trkpt><trkpt lat="42.26271521070197" lon="14.003369989280824"><ele>104.66666666666666</ele><time>2026-04-04T10:46:42.999Z</time></trkpt><trkpt lat="42.262630104318056" lon="14.003332460821987"><ele>104.83333333333333</ele><time>2026-04-04T10:46:43.999Z</time></trkpt><trkpt lat="42.262563611298006" lon="14.003304762575167"><ele>105.0</ele><time>2026-04-04T10:46:44.999Z</time></trkpt><trkpt lat="42.262461746109594" lon="14.003262088960069"><ele>105.6</ele><time>2026-04-04T10:46:46.999Z</time></trkpt><trkpt lat="42.26245460641833" lon="14.00311003464319"><ele>106.2</ele><time>2026-04-04T10:46:48.999Z</time></trkpt><trkpt lat="42.26244910487399" lon="14.002951016120607"><ele>106.80000000000001</ele><time>2026-04-04T10:46:50.999Z</time></trkpt><trkpt lat="42.26242241360847" lon="14.00285105885541"><ele>107.4</ele><time>2026-04-04T10:46:51.999Z</time></trkpt><trkpt lat="42.262348360197635" lon="14.002768251454665"><ele>108.0</ele><time>2026-04-04T10:46:52.999Z</time></trkpt><trkpt lat="42.26224787447422" lon="14.00274768177213"><ele>108.0</ele><time>2026-04-04T10:46:53.999Z</time></trkpt><trkpt lat="42.26214117155218" lon="14.002815055560223"><ele>108.0</ele><time>2026-04-04T10:46:54.999Z</time></trkpt><trkpt lat="42.26206606042788" lon="14.002860020588558"><ele>108.0</ele><time>2026-04-04T10:46:55.999Z</time></trkpt><trkpt lat="42.261934534416696" lon="14.002874688312957"><ele>108.0</ele><time>2026-04-04T10:46:56.999Z</time></trkpt><trkpt lat="42.26181592480075" lon="14.002852727403532"><ele>108.0</ele><time>2026-04-04T10:46:57.999Z</time></trkpt><trkpt lat="42.26168294958103" lon="14.00282768677569"><ele>108.0</ele><time>2026-04-04T10:46:58.999Z</time></trkpt><trkpt lat="42.26153155867975" lon="14.002833403622535"><ele>108.0</ele><time>2026-04-04T10:46:59.999Z</time></trkpt><trkpt lat="42.261360333085484" lon="14.002823490502509"><ele>110.66666666666666</ele><time>2026-04-04T10:47:00.999Z</time></trkpt><trkpt lat="42.26119566082137" lon="14.002858941010933"><ele>113.33333333333333</ele><time>2026-04-04T10:47:01.999Z</time></trkpt><trkpt lat="42.26100780644906" lon="14.002900517543912"><ele>116.0</ele><time>2026-04-04T10:47:02.999Z</time></trkpt><trkpt lat="42.260805296882246" lon="14.002944681577066"><ele>116.33333333333333</ele><time>2026-04-04T10:47:04Z</time></trkpt><trkpt lat="42.260588626332996" lon="14.002991454857332"><ele>116.66666666666666</ele><time>2026-04-04T10:47:05Z</time></trkpt><trkpt lat="42.260377088973506" lon="14.003037120111326"><ele>117.0</ele><time>2026-04-04T10:47:06Z</time></trkpt><trkpt lat="42.26017585224514" lon="14.003083190599641"><ele>117.0</ele><time>2026-04-04T10:47:07Z</time></trkpt><trkpt lat="42.25997842241967" lon="14.003133078812613"><ele>117.0</ele><time>2026-04-04T10:47:08Z</time></trkpt><trkpt lat="42.25978456669092" lon="14.003184909922215"><ele>117.0</ele><time>2026-04-04T10:47:09Z</time></trkpt><trkpt lat="42.25959219772554" lon="14.003239462093298"><ele>117.0</ele><time>2026-04-04T10:47:10Z</time></trkpt><trkpt lat="42.25941283063113" lon="14.003315699420657"><ele>117.0</ele><time>2026-04-04T10:47:11Z</time></trkpt><trkpt lat="42.2592409873681" lon="14.003370526204005"><ele>117.0</ele><time>2026-04-04T10:47:12Z</time></trkpt><trkpt lat="42.25907118791347" lon="14.003441817991215"><ele>117.0</ele><time>2026-04-04T10:47:13Z</time></trkpt><trkpt lat="42.25889541718472" lon="14.003507514511101"><ele>117.0</ele><time>2026-04-04T10:47:14Z</time></trkpt><trkpt lat="42.25872751831582" lon="14.00358569349994"><ele>117.0</ele><time>2026-04-04T10:47:15Z</time></trkpt><trkpt lat="42.258565398299446" lon="14.00366118164967"><ele>117.0</ele><time>2026-04-04T10:47:16Z</time></trkpt><trkpt lat="42.25840325804422" lon="14.00373667924543"><ele>117.0</ele><time>2026-04-04T10:47:17Z</time></trkpt><trkpt lat="42.25824895695523" lon="14.003829715800588"><ele>117.0</ele><time>2026-04-04T10:47:18Z</time></trkpt><trkpt lat="42.2580864384402" lon="14.003885348030304"><ele>119.66666666666666</ele><time>2026-04-04T10:47:19Z</time></trkpt><trkpt lat="42.25793371921628" lon="14.003978981659127"><ele>122.33333333333333</ele><time>2026-04-04T10:47:20Z</time></trkpt><trkpt lat="42.25777436467218" lon="14.004045737729617"><ele>125.0</ele><time>2026-04-04T10:47:21Z</time></trkpt><trkpt lat="42.25761975596509" lon="14.004118730237815"><ele>122.66666666666666</ele><time>2026-04-04T10:47:22Z</time></trkpt><trkpt lat="42.257462800442255" lon="14.004186386678843"><ele>120.33333333333334</ele><time>2026-04-04T10:47:23Z</time></trkpt><trkpt lat="42.25730738463872" lon="14.004259357472419"><ele>118.0</ele><time>2026-04-04T10:47:24Z</time></trkpt><trkpt lat="42.25715804273858" lon="14.004332680913812"><ele>118.0</ele><time>2026-04-04T10:47:25Z</time></trkpt><trkpt lat="42.25700634819714" lon="14.00437375421663"><ele>118.0</ele><time>2026-04-04T10:47:26Z</time></trkpt><trkpt lat="42.25684607975066" lon="14.004418577468488"><ele>118.0</ele><time>2026-04-04T10:47:27Z</time></trkpt><trkpt lat="42.256673389407545" lon="14.004436592615999"><ele>118.0</ele><time>2026-04-04T10:47:28Z</time></trkpt><trkpt lat="42.25649443778728" lon="14.004434002761899"><ele>118.0</ele><time>2026-04-04T10:47:29Z</time></trkpt><trkpt lat="42.2563062178406" lon="14.004425003413555"><ele>118.0</ele><time>2026-04-04T10:47:30Z</time></trkpt><trkpt lat="42.25612051209215" lon="14.004405941765448"><ele>117.33333333333334</ele><time>2026-04-04T10:47:31Z</time></trkpt><trkpt lat="42.25594688124653" lon="14.004383450405301"><ele>116.66666666666666</ele><time>2026-04-04T10:47:32Z</time></trkpt><trkpt lat="42.25578367284904" lon="14.004369560442056"><ele>116.0</ele><time>2026-04-04T10:47:33Z</time></trkpt><trkpt lat="42.25564082726588" lon="14.004372041970875"><ele>117.0</ele><time>2026-04-04T10:47:34Z</time></trkpt><trkpt lat="42.25550359734623" lon="14.004404962283731"><ele>118.0</ele><time>2026-04-04T10:47:35Z</time></trkpt><trkpt lat="42.25536611605487" lon="14.004478351120238"><ele>119.0</ele><time>2026-04-04T10:47:36Z</time></trkpt><trkpt lat="42.25522931774488" lon="14.00459833933054"><ele>119.0</ele><time>2026-04-04T10:47:37Z</time></trkpt><trkpt lat="42.25511211815134" lon="14.004773178501983"><ele>119.0</ele><time>2026-04-04T10:47:38Z</time></trkpt><trkpt lat="42.25498692702346" lon="14.004946029938374"><ele>119.0</ele><time>2026-04-04T10:47:39Z</time></trkpt><trkpt lat="42.25485683608258" lon="14.00509375672683"><ele>118.66666666666666</ele><time>2026-04-04T10:47:40Z</time></trkpt><trkpt lat="42.25474832143904" lon="14.00524312189184"><ele>118.33333333333334</ele><time>2026-04-04T10:47:40.999Z</time></trkpt><trkpt lat="42.25464007001392" lon="14.00539304665404"><ele>118.0</ele><time>2026-04-04T10:47:41.999Z</time></trkpt><trkpt lat="42.25452608493355" lon="14.00555182860701"><ele>118.0</ele><time>2026-04-04T10:47:42.999Z</time></trkpt><trkpt lat="42.254423000695944" lon="14.005735553144"><ele>118.0</ele><time>2026-04-04T10:47:43.999Z</time></trkpt><trkpt lat="42.254305296881704" lon="14.005916102410062"><ele>118.0</ele><time>2026-04-04T10:47:44.999Z</time></trkpt><trkpt lat="42.25420377541996" lon="14.006114717521074"><ele>118.0</ele><time>2026-04-04T10:47:45.999Z</time></trkpt><trkpt lat="42.254112390702" lon="14.006319485589112"><ele>118.0</ele><time>2026-04-04T10:47:46.999Z</time></trkpt><trkpt lat="42.25400646810189" lon="14.006497461494456"><ele>118.0</ele><time>2026-04-04T10:47:47.999Z</time></trkpt><trkpt lat="42.25392234266726" lon="14.006669200051611"><ele>119.25</ele><time>2026-04-04T10:47:48.999Z</time></trkpt><trkpt lat="42.25384157932168" lon="14.006834074808003"><ele>120.5</ele><time>2026-04-04T10:47:49.999Z</time></trkpt><trkpt lat="42.253762924463956" lon="14.006982702534987"><ele>121.75</ele><time>2026-04-04T10:47:50.999Z</time></trkpt><trkpt lat="42.253689279838945" lon="14.007122476935598"><ele>123.0</ele><time>2026-04-04T10:47:51.999Z</time></trkpt><trkpt lat="42.25361489648666" lon="14.007256876619387"><ele>123.0</ele><time>2026-04-04T10:47:52.999Z</time></trkpt><trkpt lat="42.25354479190748" lon="14.00736823241679"><ele>123.00000000000001</ele><time>2026-04-04T10:47:53.999Z</time></trkpt><trkpt lat="42.25346930998367" lon="14.007458283531681"><ele>123.00000000000001</ele><time>2026-04-04T10:47:54.999Z</time></trkpt><trkpt lat="42.25338746091229" lon="14.007533716773523"><ele>123.0</ele><time>2026-04-04T10:47:55.999Z</time></trkpt><trkpt lat="42.253296938659574" lon="14.007592882219832"><ele>123.0</ele><time>2026-04-04T10:47:56.999Z</time></trkpt><trkpt lat="42.25318697649517" lon="14.007622955666653"><ele>124.0</ele><time>2026-04-04T10:47:57.999Z</time></trkpt><trkpt lat="42.253067267134405" lon="14.007651900778267"><ele>125.0</ele><time>2026-04-04T10:47:58.999Z</time></trkpt><trkpt lat="42.25293751123638" lon="14.007672560718749"><ele>126.0</ele><time>2026-04-04T10:47:59.999Z</time></trkpt><trkpt lat="42.25280627034176" lon="14.007634184656618"><ele>127.0</ele><time>2026-04-04T10:48:00.999Z</time></trkpt><trkpt lat="42.25268824815117" lon="14.007660138259906"><ele>127.0</ele><time>2026-04-04T10:48:01.999Z</time></trkpt><trkpt lat="42.25257802930756" lon="14.00770138037837"><ele>127.0</ele><time>2026-04-04T10:48:02.999Z</time></trkpt><trkpt lat="42.25247684891266" lon="14.007822999567493"><ele>127.0</ele><time>2026-04-04T10:48:03.999Z</time></trkpt><trkpt lat="42.25241835354914" lon="14.007996693527659"><ele>127.0</ele><time>2026-04-04T10:48:04.999Z</time></trkpt><trkpt lat="42.252363745779" lon="14.008167534250584"><ele>125.66666666666667</ele><time>2026-04-04T10:48:05.999Z</time></trkpt><trkpt lat="42.25232291032036" lon="14.008358986725858"><ele>124.33333333333334</ele><time>2026-04-04T10:48:06.999Z</time></trkpt><trkpt lat="42.252258431545464" lon="14.008542212026823"><ele>123.0</ele><time>2026-04-04T10:48:07.999Z</time></trkpt><trkpt lat="42.252205559648495" lon="14.008738251449794"><ele>126.0</ele><time>2026-04-04T10:48:08.999Z</time></trkpt><trkpt lat="42.25215184462769" lon="14.008933910894122"><ele>129.0</ele><time>2026-04-04T10:48:09.999Z</time></trkpt><trkpt lat="42.25209902022861" lon="14.009119843402475"><ele>132.0</ele><time>2026-04-04T10:48:10.999Z</time></trkpt><trkpt lat="42.25204337898014" lon="14.009315691019909"><ele>132.0</ele><time>2026-04-04T10:48:11.999Z</time></trkpt><trkpt lat="42.25198845765079" lon="14.009507832559901"><ele>132.0</ele><time>2026-04-04T10:48:12.999Z</time></trkpt><trkpt lat="42.251928703234775" lon="14.009682254027714"><ele>132.0</ele><time>2026-04-04T10:48:13.999Z</time></trkpt><trkpt lat="42.25185420905698" lon="14.009835087599292"><ele>132.0</ele><time>2026-04-04T10:48:14.999Z</time></trkpt><trkpt lat="42.25176084374312" lon="14.009984331991717"><ele>131.33333333333334</ele><time>2026-04-04T10:48:15.999Z</time></trkpt><trkpt lat="42.25166417473138" lon="14.010142077310658"><ele>130.66666666666669</ele><time>2026-04-04T10:48:16.999Z</time></trkpt><trkpt lat="42.25156574298058" lon="14.010301606068309"><ele>130.0</ele><time>2026-04-04T10:48:17.999Z</time></trkpt><trkpt lat="42.25146866951645" lon="14.010459134542096"><ele>132.0</ele><time>2026-04-04T10:48:18.999Z</time></trkpt><trkpt lat="42.25137298022514" lon="14.010614416810839"><ele>134.0</ele><time>2026-04-04T10:48:19.999Z</time></trkpt><trkpt lat="42.25127459044296" lon="14.010775542557596"><ele>136.0</ele><time>2026-04-04T10:48:20.999Z</time></trkpt><trkpt lat="42.25118321510477" lon="14.010926674659487"><ele>138.0</ele><time>2026-04-04T10:48:21.999Z</time></trkpt><trkpt lat="42.25109880045712" lon="14.011058454473025"><ele>138.0</ele><time>2026-04-04T10:48:22.999Z</time></trkpt><trkpt lat="42.2510167193815" lon="14.011180359735295"><ele>138.0</ele><time>2026-04-04T10:48:23.999Z</time></trkpt><trkpt lat="42.25091648466884" lon="14.0112842162245"><ele>138.0</ele><time>2026-04-04T10:48:24.999Z</time></trkpt><trkpt lat="42.250793183764166" lon="14.011361790421017"><ele>138.0</ele><time>2026-04-04T10:48:25.999Z</time></trkpt><trkpt lat="42.25065288778062" lon="14.011439230667541"><ele>138.66666666666666</ele><time>2026-04-04T10:48:26.999Z</time></trkpt><trkpt lat="42.2505032035782" lon="14.01153066773089"><ele>139.33333333333331</ele><time>2026-04-04T10:48:27.999Z</time></trkpt><trkpt lat="42.25035649675419" lon="14.011638505670359"><ele>140.0</ele><time>2026-04-04T10:48:28.999Z</time></trkpt><trkpt lat="42.250209788039456" lon="14.01176994298337"><ele>140.0</ele><time>2026-04-04T10:48:29.999Z</time></trkpt><trkpt lat="42.25006604595106" lon="14.011916533670165"><ele>140.0</ele><time>2026-04-04T10:48:30.999Z</time></trkpt><trkpt lat="42.24992337953744" lon="14.012070942530656"><ele>140.0</ele><time>2026-04-04T10:48:31.999Z</time></trkpt><trkpt lat="42.24978163933971" lon="14.012228556372948"><ele>141.33333333333331</ele><time>2026-04-04T10:48:32.999Z</time></trkpt><trkpt lat="42.24965016851279" lon="14.012377251567653"><ele>142.66666666666666</ele><time>2026-04-04T10:48:33.999Z</time></trkpt><trkpt lat="42.249531465916846" lon="14.012514862584341"><ele>144.0</ele><time>2026-04-04T10:48:34.999Z</time></trkpt><trkpt lat="42.24941108283468" lon="14.012649643339351"><ele>144.0</ele><time>2026-04-04T10:48:35.999Z</time></trkpt><trkpt lat="42.24929528925682" lon="14.012770821646997"><ele>144.0</ele><time>2026-04-04T10:48:36.999Z</time></trkpt><trkpt lat="42.24916798275265" lon="14.012872761580825"><ele>144.0</ele><time>2026-04-04T10:48:37.999Z</time></trkpt><trkpt lat="42.24902330945262" lon="14.012958013031776"><ele>146.0</ele><time>2026-04-04T10:48:38.999Z</time></trkpt><trkpt lat="42.2488678745297" lon="14.013033081180964"><ele>148.0</ele><time>2026-04-04T10:48:39.999Z</time></trkpt><trkpt lat="42.248718851722316" lon="14.01309425745919"><ele>150.0</ele><time>2026-04-04T10:48:40.999Z</time></trkpt><trkpt lat="42.2485725719734" lon="14.013159565611891"><ele>150.0</ele><time>2026-04-04T10:48:41.999Z</time></trkpt><trkpt lat="42.248437786311676" lon="14.013229413943039"><ele>150.0</ele><time>2026-04-04T10:48:42.999Z</time></trkpt><trkpt lat="42.24830537322165" lon="14.013311512598852"><ele>150.0</ele><time>2026-04-04T10:48:43.999Z</time></trkpt><trkpt lat="42.2481860462956" lon="14.01341719831738"><ele>150.0</ele><time>2026-04-04T10:48:44.999Z</time></trkpt><trkpt lat="42.24807314931403" lon="14.01352100741042"><ele>148.8</ele><time>2026-04-04T10:48:45.999Z</time></trkpt><trkpt lat="42.24796904455832" lon="14.01362444214322"><ele>147.6</ele><time>2026-04-04T10:48:46.999Z</time></trkpt><trkpt lat="42.247880335777744" lon="14.013723012762076"><ele>146.4</ele><time>2026-04-04T10:48:47.999Z</time></trkpt><trkpt lat="42.247799247908745" lon="14.013803405344428"><ele>145.2</ele><time>2026-04-04T10:48:48.999Z</time></trkpt><trkpt lat="42.24773587257028" lon="14.013859134229557"><ele>144.0</ele><time>2026-04-04T10:48:49.999Z</time></trkpt><trkpt lat="42.24767609350688" lon="14.013899008853047"><ele>144.0</ele><time>2026-04-04T10:48:50.999Z</time></trkpt><trkpt lat="42.247604959834675" lon="14.013831208707517"><ele>144.0</ele><time>2026-04-04T10:48:51.999Z</time></trkpt><trkpt lat="42.247531230567354" lon="14.013831208707446"><ele>144.0</ele><time>2026-04-04T10:48:52.999Z</time></trkpt><trkpt lat="42.24742476340414" lon="14.013936622616583"><ele>144.0</ele><time>2026-04-04T10:48:54.999Z</time></trkpt><trkpt lat="42.24740578835296" lon="14.014018340692328"><ele>144.0</ele><time>2026-04-04T10:48:55.999Z</time></trkpt><trkpt lat="42.247406553041316" lon="14.014112062043841"><ele>144.0</ele><time>2026-04-04T10:48:56.999Z</time></trkpt><trkpt lat="42.247434296428864" lon="14.014207424792906"><ele>142.8</ele><time>2026-04-04T10:48:57.999Z</time></trkpt><trkpt lat="42.2474818740559" lon="14.0142858232397"><ele>141.60000000000002</ele><time>2026-04-04T10:48:58.999Z</time></trkpt><trkpt lat="42.247561916640564" lon="14.014307364721102"><ele>140.4</ele><time>2026-04-04T10:48:59.999Z</time></trkpt><trkpt lat="42.24754943660659" lon="14.014466614065476"><ele>139.20000000000002</ele><time>2026-04-04T10:49:00.999Z</time></trkpt><trkpt lat="42.247535050076515" lon="14.014599762981234"><ele>138.0</ele><time>2026-04-04T10:49:01.999Z</time></trkpt><trkpt lat="42.247509622624214" lon="14.014752263852778"><ele>138.0</ele><time>2026-04-04T10:49:02.999Z</time></trkpt><trkpt lat="42.247480697519165" lon="14.0149141019183"><ele>138.0</ele><time>2026-04-04T10:49:03.999Z</time></trkpt><trkpt lat="42.24744506119634" lon="14.015064588189386"><ele>138.0</ele><time>2026-04-04T10:49:04.999Z</time></trkpt><trkpt lat="42.24740637417437" lon="14.01519660290901"><ele>138.0</ele><time>2026-04-04T10:49:05.999Z</time></trkpt><trkpt lat="42.24737080367001" lon="14.015302135847158"><ele>138.0</ele><time>2026-04-04T10:49:06.999Z</time></trkpt><trkpt lat="42.24734007303259" lon="14.015386730267062"><ele>138.16666666666666</ele><time>2026-04-04T10:49:07.999Z</time></trkpt><trkpt lat="42.24729978288563" lon="14.015486199579268"><ele>138.33333333333334</ele><time>2026-04-04T10:49:10Z</time></trkpt><trkpt lat="42.247261651877984" lon="14.01556427813651"><ele>138.5</ele><time>2026-04-04T10:49:20Z</time></trkpt><trkpt lat="42.24721747226327" lon="14.01563970025664"><ele>138.66666666666669</ele><time>2026-04-04T10:49:22Z</time></trkpt><trkpt lat="42.24714828490431" lon="14.015740006481893"><ele>138.83333333333334</ele><time>2026-04-04T10:50:35.999Z</time></trkpt><trkpt lat="42.24709169787405" lon="14.015811264688757"><ele>139.0</ele><time>2026-04-04T10:50:36.999Z</time></trkpt><trkpt lat="42.2470171551506" lon="14.015883512096108"><ele>142.0</ele><time>2026-04-04T10:50:37.999Z</time></trkpt><trkpt lat="42.24688209067583" lon="14.015978209436083"><ele>145.0</ele><time>2026-04-04T10:50:39.999Z</time></trkpt><trkpt lat="42.246771704786894" lon="14.016031755105693"><ele>148.0</ele><time>2026-04-04T10:50:40.999Z</time></trkpt><trkpt lat="42.246644744205554" lon="14.01608941583831"><ele>151.0</ele><time>2026-04-04T10:50:41.999Z</time></trkpt><trkpt lat="42.24650688895291" lon="14.016143755209246"><ele>152.0</ele><time>2026-04-04T10:50:42.999Z</time></trkpt><trkpt lat="42.246378204234134" lon="14.016187648699352"><ele>153.0</ele><time>2026-04-04T10:50:43.999Z</time></trkpt><trkpt lat="42.2462643023935" lon="14.016218302642947"><ele>154.0</ele><time>2026-04-04T10:50:44.999Z</time></trkpt><trkpt lat="42.24615772115876" lon="14.01624553165093"><ele>155.0</ele><time>2026-04-04T10:50:45.999Z</time></trkpt><trkpt lat="42.24605399363689" lon="14.016272031601115"><ele>155.0</ele><time>2026-04-04T10:50:46.999Z</time></trkpt><trkpt lat="42.24595881869035" lon="14.016300102446674"><ele>155.0</ele><time>2026-04-04T10:50:47.999Z</time></trkpt><trkpt lat="42.24586201413129" lon="14.016342629208637"><ele>155.0</ele><time>2026-04-04T10:50:48.999Z</time></trkpt><trkpt lat="42.24575121933111" lon="14.016402762990575"><ele>155.0</ele><time>2026-04-04T10:50:49.999Z</time></trkpt><trkpt lat="42.24564241797966" lon="14.01647140784926"><ele>155.0</ele><time>2026-04-04T10:50:50.999Z</time></trkpt><trkpt lat="42.245527283411064" lon="14.016555829391628"><ele>156.25</ele><time>2026-04-04T10:50:51.999Z</time></trkpt><trkpt lat="42.245409466758844" lon="14.016661606734475"><ele>157.5</ele><time>2026-04-04T10:50:52.999Z</time></trkpt><trkpt lat="42.24529375261437" lon="14.016779376995519"><ele>158.75</ele><time>2026-04-04T10:50:53.999Z</time></trkpt><trkpt lat="42.245173753630425" lon="14.016909319338803"><ele>160.0</ele><time>2026-04-04T10:50:54.999Z</time></trkpt><trkpt lat="42.245050126594265" lon="14.017047830222822"><ele>160.0</ele><time>2026-04-04T10:50:55.999Z</time></trkpt><trkpt lat="42.244937060758275" lon="14.017174508409742"><ele>160.0</ele><time>2026-04-04T10:50:56.999Z</time></trkpt><trkpt lat="42.24482778724942" lon="14.017278362788176"><ele>160.0</ele><time>2026-04-04T10:50:57.999Z</time></trkpt><trkpt lat="42.24474071779033" lon="14.01743130687992"><ele>160.0</ele><time>2026-04-04T10:50:58.999Z</time></trkpt><trkpt lat="42.24464625553484" lon="14.017551541822122"><ele>161.0</ele><time>2026-04-04T10:50:59.999Z</time></trkpt><trkpt lat="42.24455363311056" lon="14.017648570515124"><ele>162.0</ele><time>2026-04-04T10:51:00.999Z</time></trkpt><trkpt lat="42.244465193146645" lon="14.017717074682436"><ele>163.0</ele><time>2026-04-04T10:51:01.999Z</time></trkpt><trkpt lat="42.24435778596363" lon="14.017760900979777"><ele>164.0</ele><time>2026-04-04T10:51:02.999Z</time></trkpt><trkpt lat="42.2442722556632" lon="14.017828295473658"><ele>165.0</ele><time>2026-04-04T10:51:03.999Z</time></trkpt><trkpt lat="42.2441806831487" lon="14.017871809866632"><ele>165.0</ele><time>2026-04-04T10:51:04.999Z</time></trkpt><trkpt lat="42.24407061157886" lon="14.017903718145574"><ele>165.0</ele><time>2026-04-04T10:51:05.999Z</time></trkpt><trkpt lat="42.24393844722442" lon="14.017905830837648"><ele>165.0</ele><time>2026-04-04T10:51:06.999Z</time></trkpt><trkpt lat="42.24379563653254" lon="14.017913194404223"><ele>165.0</ele><time>2026-04-04T10:51:07.999Z</time></trkpt><trkpt lat="42.243654261313615" lon="14.017920119081207"><ele>165.25</ele><time>2026-04-04T10:51:08.999Z</time></trkpt><trkpt lat="42.24352298744209" lon="14.017927383073355"><ele>165.5</ele><time>2026-04-04T10:51:09.999Z</time></trkpt><trkpt lat="42.243397772273305" lon="14.017937381045224"><ele>165.75</ele><time>2026-04-04T10:51:10.999Z</time></trkpt><trkpt lat="42.24328069662056" lon="14.017956921077015"><ele>166.0</ele><time>2026-04-04T10:51:11.999Z</time></trkpt><trkpt lat="42.243175009406926" lon="14.017990674754552"><ele>165.75</ele><time>2026-04-04T10:51:12.999Z</time></trkpt><trkpt lat="42.24306891972312" lon="14.018064132525689"><ele>165.5</ele><time>2026-04-04T10:51:13.998Z</time></trkpt><trkpt lat="42.24297463916699" lon="14.018171825022883"><ele>165.25</ele><time>2026-04-04T10:51:14.998Z</time></trkpt><trkpt lat="42.24289585015693" lon="14.018278542159472"><ele>165.0</ele><time>2026-04-04T10:51:16Z</time></trkpt><trkpt lat="42.24283706408703" lon="14.01839990363241"><ele>165.8</ele><time>2026-04-04T10:51:17Z</time></trkpt><trkpt lat="42.24281169419587" lon="14.018544843809094"><ele>166.6</ele><time>2026-04-04T10:51:18Z</time></trkpt><trkpt lat="42.24275927164926" lon="14.018671586903029"><ele>167.39999999999998</ele><time>2026-04-04T10:51:19Z</time></trkpt><trkpt lat="42.24271287616091" lon="14.018787915146298"><ele>168.2</ele><time>2026-04-04T10:51:20Z</time></trkpt><trkpt lat="42.242644458886105" lon="14.018869296108726"><ele>169.0</ele><time>2026-04-04T10:51:21Z</time></trkpt><trkpt lat="42.242558855637114" lon="14.018962889428014"><ele>169.0</ele><time>2026-04-04T10:51:22Z</time></trkpt><trkpt lat="42.24246731471601" lon="14.019074101528492"><ele>169.0</ele><time>2026-04-04T10:51:23Z</time></trkpt><trkpt lat="42.24238115362688" lon="14.01920228542015"><ele>169.0</ele><time>2026-04-04T10:51:24Z</time></trkpt><trkpt lat="42.24229434615428" lon="14.01933735315743"><ele>169.0</ele><time>2026-04-04T10:51:25Z</time></trkpt><trkpt lat="42.242201657533215" lon="14.019471427059397"><ele>169.75</ele><time>2026-04-04T10:51:26Z</time></trkpt><trkpt lat="42.24210112656757" lon="14.01960934947442"><ele>170.5</ele><time>2026-04-04T10:51:27Z</time></trkpt><trkpt lat="42.24200817893003" lon="14.019749376411797"><ele>171.25</ele><time>2026-04-04T10:51:28Z</time></trkpt><trkpt lat="42.24191965131956" lon="14.019897038700373"><ele>172.0</ele><time>2026-04-04T10:51:29Z</time></trkpt><trkpt lat="42.241838472349016" lon="14.020051341741178"><ele>173.0</ele><time>2026-04-04T10:51:30Z</time></trkpt><trkpt lat="42.24176524086264" lon="14.02020581716716"><ele>174.0</ele><time>2026-04-04T10:51:31Z</time></trkpt><trkpt lat="42.241696847977884" lon="14.020354671458607"><ele>175.0</ele><time>2026-04-04T10:51:32Z</time></trkpt><trkpt lat="42.241628959150994" lon="14.020496823289852"><ele>176.0</ele><time>2026-04-04T10:51:33Z</time></trkpt><trkpt lat="42.2415625686165" lon="14.020618560000454"><ele>176.0</ele><time>2026-04-04T10:51:34Z</time></trkpt><trkpt lat="42.24149141248777" lon="14.020745401802907"><ele>176.0</ele><time>2026-04-04T10:51:35Z</time></trkpt><trkpt lat="42.24143170960727" lon="14.020875520636551"><ele>176.0</ele><time>2026-04-04T10:51:36Z</time></trkpt><trkpt lat="42.241401886880475" lon="14.0210144730585"><ele>176.0</ele><time>2026-04-04T10:51:37Z</time></trkpt><trkpt lat="42.24136987121255" lon="14.021135982086701"><ele>176.0</ele><time>2026-04-04T10:51:38Z</time></trkpt><trkpt lat="42.24135566434652" lon="14.021265271938548"><ele>176.60000000000002</ele><time>2026-04-04T10:51:39Z</time></trkpt><trkpt lat="42.24138180326609" lon="14.021381878464737"><ele>177.2</ele><time>2026-04-04T10:51:40Z</time></trkpt><trkpt lat="42.24142757394776" lon="14.021506114952082"><ele>177.8</ele><time>2026-04-04T10:51:41Z</time></trkpt><trkpt lat="42.241446632102125" lon="14.021656386177218"><ele>178.39999999999998</ele><time>2026-04-04T10:51:42Z</time></trkpt><trkpt lat="42.24147460753604" lon="14.021810613496205"><ele>179.0</ele><time>2026-04-04T10:51:43Z</time></trkpt><trkpt lat="42.24150007612085" lon="14.021969360998513"><ele>179.16666666666666</ele><time>2026-04-04T10:51:44Z</time></trkpt><trkpt lat="42.241513457088836" lon="14.022107169445025"><ele>179.33333333333331</ele><time>2026-04-04T10:51:45Z</time></trkpt><trkpt lat="42.24151795457814" lon="14.022228108150966"><ele>179.5</ele><time>2026-04-04T10:51:46Z</time></trkpt><trkpt lat="42.24151430278742" lon="14.022334781559671"><ele>179.66666666666666</ele><time>2026-04-04T10:51:47Z</time></trkpt><trkpt lat="42.241505902022766" lon="14.022438313501974"><ele>179.83333333333334</ele><time>2026-04-04T10:51:48Z</time></trkpt><trkpt lat="42.24148642713946" lon="14.02254123150211"><ele>180.0</ele><time>2026-04-04T10:51:49Z</time></trkpt><trkpt lat="42.2414564040796" lon="14.022625540683473"><ele>183.75</ele><time>2026-04-04T10:51:50Z</time></trkpt><trkpt lat="42.24142485123475" lon="14.022721920549385"><ele>187.5</ele><time>2026-04-04T10:51:51Z</time></trkpt><trkpt lat="42.24139091740682" lon="14.022825573243562"><ele>191.25</ele><time>2026-04-04T10:51:52Z</time></trkpt><trkpt lat="42.241321418040265" lon="14.022859666254023"><ele>195.0</ele><time>2026-04-04T10:51:53Z</time></trkpt><trkpt lat="42.24145666498681" lon="14.023144120384645"><ele>195.0</ele><time>2026-04-04T10:51:54Z</time></trkpt><trkpt lat="42.24143321728419" lon="14.023297924843119"><ele>195.0</ele><time>2026-04-04T10:51:55Z</time></trkpt><trkpt lat="42.241418609002835" lon="14.023457100383558"><ele>195.0</ele><time>2026-04-04T10:51:56Z</time></trkpt><trkpt lat="42.24139255842385" lon="14.023608798740858"><ele>195.0</ele><time>2026-04-04T10:51:57Z</time></trkpt><trkpt lat="42.24135909758529" lon="14.023749272972678"><ele>196.33333333333334</ele><time>2026-04-04T10:51:58Z</time></trkpt><trkpt lat="42.24132693778864" lon="14.023836696172927"><ele>197.66666666666669</ele><time>2026-04-04T10:51:59Z</time></trkpt><trkpt lat="42.241291616487445" lon="14.02391822269457"><ele>199.0</ele><time>2026-04-04T10:52:00.999Z</time></trkpt><trkpt lat="42.24122020515775" lon="14.024027374742337"><ele>200.33333333333334</ele><time>2026-04-04T10:52:04.999Z</time></trkpt><trkpt lat="42.24115215766613" lon="14.024079788592106"><ele>201.66666666666669</ele><time>2026-04-04T10:52:05.999Z</time></trkpt><trkpt lat="42.24109363556238" lon="14.024151130835007"><ele>203.0</ele><time>2026-04-04T10:52:06.999Z</time></trkpt><trkpt lat="42.24104357663612" lon="14.024231072855006"><ele>204.14285714285714</ele><time>2026-04-04T10:52:07.999Z</time></trkpt><trkpt lat="42.240991065931816" lon="14.0243105739674"><ele>205.28571428571428</ele><time>2026-04-04T10:52:08.999Z</time></trkpt><trkpt lat="42.24093578442634" lon="14.024376717313054"><ele>206.42857142857144</ele><time>2026-04-04T10:52:09.999Z</time></trkpt><trkpt lat="42.24088009449104" lon="14.024437118084954"><ele>207.57142857142856</ele><time>2026-04-04T10:52:10.999Z</time></trkpt><trkpt lat="42.240826242535334" lon="14.02448355789848"><ele>208.71428571428572</ele><time>2026-04-04T10:52:11.999Z</time></trkpt><trkpt lat="42.24075465694692" lon="14.024531210163989"><ele>209.85714285714286</ele><time>2026-04-04T10:52:12.999Z</time></trkpt><trkpt lat="42.24069158879349" lon="14.02457248856618"><ele>211.0</ele><time>2026-04-04T10:52:13.999Z</time></trkpt><trkpt lat="42.24061084795481" lon="14.0246181720321"><ele>213.33333333333331</ele><time>2026-04-04T10:52:14.999Z</time></trkpt><trkpt lat="42.2405411730568" lon="14.02466181722911"><ele>215.66666666666666</ele><time>2026-04-04T10:52:15.999Z</time></trkpt><trkpt lat="42.24046515101592" lon="14.024701147302412"><ele>218.0</ele><time>2026-04-04T10:52:16.999Z</time></trkpt><trkpt lat="42.240396334855035" lon="14.024753687322097"><ele>220.33333333333331</ele><time>2026-04-04T10:52:17.999Z</time></trkpt><trkpt lat="42.24032852656936" lon="14.02481504923807"><ele>222.66666666666666</ele><time>2026-04-04T10:52:18.999Z</time></trkpt><trkpt lat="42.24026401676453" lon="14.024864817124788"><ele>225.0</ele><time>2026-04-04T10:52:19.999Z</time></trkpt><trkpt lat="42.2401479334585" lon="14.024949570166019"><ele>225.0</ele><time>2026-04-04T10:52:21.999Z</time></trkpt><trkpt lat="42.24007850930044" lon="14.025027369202512"><ele>225.0</ele><time>2026-04-04T10:52:23.999Z</time></trkpt><trkpt lat="42.24002740460062" lon="14.025093022142554"><ele>225.0</ele><time>2026-04-04T10:52:25.999Z</time></trkpt><trkpt lat="42.240096436454934" lon="14.025010030927199"><ele>225.0</ele><time>2026-04-04T10:52:34.999Z</time></trkpt><trkpt lat="42.24017052130141" lon="14.024960773730013"><ele>225.0</ele><time>2026-04-04T10:52:36.999Z</time></trkpt><trkpt lat="42.24025253817711" lon="14.024874216428376"><ele>225.0</ele><time>2026-04-04T10:52:38.999Z</time></trkpt><trkpt lat="42.240340880756634" lon="14.024794866474627"><ele>225.0</ele><time>2026-04-04T10:52:40.999Z</time></trkpt><trkpt lat="42.24043238275018" lon="14.024730542615414"><ele>225.0</ele><time>2026-04-04T10:52:42.999Z</time></trkpt><trkpt lat="42.240527479769334" lon="14.0246665237747"><ele>225.0</ele><time>2026-04-04T10:52:44.999Z</time></trkpt><trkpt lat="42.24060847663254" lon="14.024618755718475"><ele>225.0</ele><time>2026-04-04T10:52:46.999Z</time></trkpt><trkpt lat="42.24067816728286" lon="14.024586280420227"><ele>225.0</ele><time>2026-04-04T10:52:48.999Z</time></trkpt><trkpt lat="42.24075248901904" lon="14.024548087512645"><ele>222.66666666666666</ele><time>2026-04-04T10:52:50.999Z</time></trkpt><trkpt lat="42.240817088914255" lon="14.024505980355885"><ele>220.33333333333331</ele><time>2026-04-04T10:52:52.999Z</time></trkpt><trkpt lat="42.24082602792369" lon="14.024406121692682"><ele>218.0</ele><time>2026-04-04T11:01:08.999Z</time></trkpt><trkpt lat="42.24089611048143" lon="14.024406638299984"><ele>215.66666666666666</ele><time>2026-04-04T11:02:46Z</time></trkpt><trkpt lat="42.24092628045543" lon="14.02433069943866"><ele>213.33333333333331</ele><time>2026-04-04T11:03:59Z</time></trkpt><trkpt lat="42.24099476103916" lon="14.024248125880014"><ele>211.0</ele><time>2026-04-04T11:04:02Z</time></trkpt><trkpt lat="42.24106242073096" lon="14.024171067065016"><ele>209.4</ele><time>2026-04-04T11:04:04Z</time></trkpt><trkpt lat="42.24113710614554" lon="14.024070840901768"><ele>207.8</ele><time>2026-04-04T11:04:06Z</time></trkpt><trkpt lat="42.241224107645216" lon="14.023966452432179"><ele>206.20000000000002</ele><time>2026-04-04T11:04:08Z</time></trkpt><trkpt lat="42.241311803577" lon="14.023851738284042"><ele>204.60000000000002</ele><time>2026-04-04T11:04:09.999Z</time></trkpt><trkpt lat="42.24133284605988" lon="14.023764516774936"><ele>203.0</ele><time>2026-04-04T11:04:10.999Z</time></trkpt><trkpt lat="42.241348608340346" lon="14.023673371214505"><ele>203.00000000000003</ele><time>2026-04-04T11:04:11.999Z</time></trkpt><trkpt lat="42.24136741650988" lon="14.023575481818854"><ele>203.0</ele><time>2026-04-04T11:04:12.999Z</time></trkpt><trkpt lat="42.24138782501595" lon="14.0234794920812"><ele>203.0</ele><time>2026-04-04T11:04:13.999Z</time></trkpt><trkpt lat="42.2414049232558" lon="14.023381951641248"><ele>203.0</ele><time>2026-04-04T11:04:14.999Z</time></trkpt><trkpt lat="42.24142294127941" lon="14.023272895877254"><ele>203.00000000000003</ele><time>2026-04-04T11:04:15.999Z</time></trkpt><trkpt lat="42.24143844111675" lon="14.02316868184509"><ele>203.0</ele><time>2026-04-04T11:04:17Z</time></trkpt><trkpt lat="42.24144969841488" lon="14.023054040150239"><ele>201.4</ele><time>2026-04-04T11:04:18Z</time></trkpt><trkpt lat="42.24145991081995" lon="14.022954677750707"><ele>199.8</ele><time>2026-04-04T11:04:19Z</time></trkpt><trkpt lat="42.24149581237894" lon="14.022829963520788"><ele>198.2</ele><time>2026-04-04T11:04:21Z</time></trkpt><trkpt lat="42.24145255740454" lon="14.022760763126154"><ele>196.6</ele><time>2026-04-04T11:04:23Z</time></trkpt><trkpt lat="42.24135710002663" lon="14.022715168401426"><ele>195.0</ele><time>2026-04-04T11:04:25Z</time></trkpt><trkpt lat="42.24124330246305" lon="14.02270394386201"><ele>195.0</ele><time>2026-04-04T11:04:27Z</time></trkpt><trkpt lat="42.24116934911898" lon="14.022692440510856"><ele>195.0</ele><time>2026-04-04T11:04:28Z</time></trkpt><trkpt lat="42.24109037902628" lon="14.022662077305267"><ele>195.0</ele><time>2026-04-04T11:04:29Z</time></trkpt><trkpt lat="42.241006714799354" lon="14.022623380178409"><ele>195.0</ele><time>2026-04-04T11:04:30Z</time></trkpt><trkpt lat="42.2409218435922" lon="14.022581212740741"><ele>195.0</ele><time>2026-04-04T11:04:31Z</time></trkpt><trkpt lat="42.24083766077703" lon="14.02253968857619"><ele>195.0</ele><time>2026-04-04T11:04:32Z</time></trkpt><trkpt lat="42.24074143545005" lon="14.022498771937933"><ele>192.75</ele><time>2026-04-04T11:04:33Z</time></trkpt><trkpt lat="42.24062987671945" lon="14.022474874475908"><ele>190.5</ele><time>2026-04-04T11:04:34Z</time></trkpt><trkpt lat="42.240518322465164" lon="14.022464181818647"><ele>188.25</ele><time>2026-04-04T11:04:35Z</time></trkpt><trkpt lat="42.24040341580878" lon="14.022452393782983"><ele>186.0</ele><time>2026-04-04T11:04:36Z</time></trkpt><trkpt lat="42.24028933025043" lon="14.02243364909467"><ele>186.0</ele><time>2026-04-04T11:04:37Z</time></trkpt><trkpt lat="42.24016497729438" lon="14.022413520907763"><ele>186.0</ele><time>2026-04-04T11:04:38Z</time></trkpt><trkpt lat="42.24004049036122" lon="14.022405455031217"><ele>186.0</ele><time>2026-04-04T11:04:39Z</time></trkpt><trkpt lat="42.23992699396515" lon="14.022401838462327"><ele>186.0</ele><time>2026-04-04T11:04:40Z</time></trkpt><trkpt lat="42.23981477584548" lon="14.022359907693097"><ele>190.0</ele><time>2026-04-04T11:04:41Z</time></trkpt><trkpt lat="42.23970012445637" lon="14.022332710386397"><ele>194.0</ele><time>2026-04-04T11:04:42Z</time></trkpt><trkpt lat="42.23958536318324" lon="14.022276560377783"><ele>198.0</ele><time>2026-04-04T11:04:43Z</time></trkpt><trkpt lat="42.23946297674217" lon="14.022208046599873"><ele>202.0</ele><time>2026-04-04T11:04:44Z</time></trkpt><trkpt lat="42.239334994875925" lon="14.022139088752951"><ele>202.0</ele><time>2026-04-04T11:04:45Z</time></trkpt><trkpt lat="42.23920908523647" lon="14.022076165631207"><ele>202.0</ele><time>2026-04-04T11:04:46Z</time></trkpt><trkpt lat="42.23907598604537" lon="14.022009649555457"><ele>202.0</ele><time>2026-04-04T11:04:47Z</time></trkpt><trkpt lat="42.2389444838785" lon="14.02194393158482"><ele>202.0</ele><time>2026-04-04T11:04:48Z</time></trkpt><trkpt lat="42.2388054666058" lon="14.021871128680855"><ele>203.75</ele><time>2026-04-04T11:04:49Z</time></trkpt><trkpt lat="42.23867790343874" lon="14.021796638192413"><ele>205.5</ele><time>2026-04-04T11:04:50Z</time></trkpt><trkpt lat="42.238548986222376" lon="14.021710104440023"><ele>207.25</ele><time>2026-04-04T11:04:51Z</time></trkpt><trkpt lat="42.23842781794253" lon="14.021618338063655"><ele>209.0</ele><time>2026-04-04T11:04:52Z</time></trkpt><trkpt lat="42.23830895668165" lon="14.02152262864782"><ele>209.0</ele><time>2026-04-04T11:04:53Z</time></trkpt><trkpt lat="42.23819436863323" lon="14.021448502273639"><ele>209.0</ele><time>2026-04-04T11:04:54Z</time></trkpt><trkpt lat="42.23808822145352" lon="14.021388601260037"><ele>209.0</ele><time>2026-04-04T11:04:55Z</time></trkpt><trkpt lat="42.23798047080145" lon="14.02132779538302"><ele>209.0</ele><time>2026-04-04T11:04:56Z</time></trkpt><trkpt lat="42.237880803164835" lon="14.021255343242109"><ele>213.5</ele><time>2026-04-04T11:04:57Z</time></trkpt><trkpt lat="42.23780237162664" lon="14.021155437745778"><ele>218.0</ele><time>2026-04-04T11:04:58Z</time></trkpt><trkpt lat="42.23772839738975" lon="14.02102935108507"><ele>222.5</ele><time>2026-04-04T11:04:59Z</time></trkpt><trkpt lat="42.237641564249365" lon="14.020884236860276"><ele>227.0</ele><time>2026-04-04T11:05:00Z</time></trkpt><trkpt lat="42.2375867660935" lon="14.02073018560379"><ele>227.0</ele><time>2026-04-04T11:05:01Z</time></trkpt><trkpt lat="42.23751858371971" lon="14.020609940159293"><ele>227.0</ele><time>2026-04-04T11:05:02Z</time></trkpt><trkpt lat="42.237469487632886" lon="14.020477368324663"><ele>227.0</ele><time>2026-04-04T11:05:03Z</time></trkpt><trkpt lat="42.237411068404704" lon="14.020342150058005"><ele>227.0</ele><time>2026-04-04T11:05:04Z</time></trkpt><trkpt lat="42.23734245394776" lon="14.020230319162383"><ele>227.0</ele><time>2026-04-04T11:05:05Z</time></trkpt><trkpt lat="42.23727094828028" lon="14.02015784492625"><ele>229.39999999999998</ele><time>2026-04-04T11:05:06Z</time></trkpt><trkpt lat="42.237180545957884" lon="14.020117809899705"><ele>231.79999999999998</ele><time>2026-04-04T11:05:07Z</time></trkpt><trkpt lat="42.23708495253745" lon="14.02012748165024"><ele>234.2</ele><time>2026-04-04T11:05:08Z</time></trkpt><trkpt lat="42.23698246717729" lon="14.020159110935886"><ele>236.6</ele><time>2026-04-04T11:05:09Z</time></trkpt><trkpt lat="42.23688895726749" lon="14.02020052748596"><ele>239.0</ele><time>2026-04-04T11:05:10Z</time></trkpt><trkpt lat="42.23680589638036" lon="14.020215953694843"><ele>239.0</ele><time>2026-04-04T11:05:11Z</time></trkpt><trkpt lat="42.23674414436601" lon="14.020234828661625"><ele>238.99999999999997</ele><time>2026-04-04T11:05:12Z</time></trkpt><trkpt lat="42.236648994068126" lon="14.020264766201045"><ele>238.99999999999997</ele><time>2026-04-04T11:05:14Z</time></trkpt><trkpt lat="42.236521716405434" lon="14.020235558596166"><ele>239.0</ele><time>2026-04-04T11:05:16Z</time></trkpt><trkpt lat="42.23644463760192" lon="14.020334651150877"><ele>239.0</ele><time>2026-04-04T11:05:17Z</time></trkpt><trkpt lat="42.23636609776255" lon="14.020412139185153"><ele>240.5</ele><time>2026-04-04T11:05:18Z</time></trkpt><trkpt lat="42.23627733011356" lon="14.020514806250741"><ele>242.0</ele><time>2026-04-04T11:05:19Z</time></trkpt><trkpt lat="42.23617386398502" lon="14.02062557090728"><ele>243.5</ele><time>2026-04-04T11:05:20Z</time></trkpt><trkpt lat="42.23606285186849" lon="14.020721849303499"><ele>245.0</ele><time>2026-04-04T11:05:21Z</time></trkpt><trkpt lat="42.23593842980386" lon="14.020779455714525"><ele>246.5</ele><time>2026-04-04T11:05:22Z</time></trkpt><trkpt lat="42.235824856023505" lon="14.020867705701066"><ele>248.0</ele><time>2026-04-04T11:05:23Z</time></trkpt><trkpt lat="42.23569751055552" lon="14.02094847558011"><ele>249.5</ele><time>2026-04-04T11:05:24Z</time></trkpt><trkpt lat="42.23556516342801" lon="14.02102313659422"><ele>251.0</ele><time>2026-04-04T11:05:25Z</time></trkpt><trkpt lat="42.23543317503203" lon="14.021105854263507"><ele>252.75</ele><time>2026-04-04T11:05:26Z</time></trkpt><trkpt lat="42.23530050994626" lon="14.021194083123167"><ele>254.5</ele><time>2026-04-04T11:05:27Z</time></trkpt><trkpt lat="42.235172231558565" lon="14.021270509057771"><ele>256.25</ele><time>2026-04-04T11:05:28Z</time></trkpt><trkpt lat="42.235052624238975" lon="14.021306888153195"><ele>258.0</ele><time>2026-04-04T11:05:29Z</time></trkpt><trkpt lat="42.234936169887796" lon="14.021337869720632"><ele>258.0</ele><time>2026-04-04T11:05:30Z</time></trkpt><trkpt lat="42.23481306512391" lon="14.021345399019063"><ele>258.0</ele><time>2026-04-04T11:05:31Z</time></trkpt><trkpt lat="42.23469433117747" lon="14.021353712704299"><ele>258.0</ele><time>2026-04-04T11:05:32Z</time></trkpt><trkpt lat="42.23457913930634" lon="14.02138290174524"><ele>258.0</ele><time>2026-04-04T11:05:33Z</time></trkpt><trkpt lat="42.23448461824825" lon="14.02139118399815"><ele>259.6</ele><time>2026-04-04T11:05:34Z</time></trkpt><trkpt lat="42.23440337860029" lon="14.021421804077415"><ele>261.20000000000005</ele><time>2026-04-04T11:05:35Z</time></trkpt><trkpt lat="42.23434307213035" lon="14.021502546242662"><ele>262.8</ele><time>2026-04-04T11:05:36Z</time></trkpt><trkpt lat="42.234297922848825" lon="14.021615998413905"><ele>264.40000000000003</ele><time>2026-04-04T11:05:37Z</time></trkpt><trkpt lat="42.2342519177786" lon="14.021751072678324"><ele>266.0</ele><time>2026-04-04T11:05:38Z</time></trkpt><trkpt lat="42.23419628472879" lon="14.021876973578822"><ele>268.5</ele><time>2026-04-04T11:05:39Z</time></trkpt><trkpt lat="42.23414180633421" lon="14.022004681568465"><ele>271.0</ele><time>2026-04-04T11:05:40Z</time></trkpt><trkpt lat="42.23407035946478" lon="14.022116725512356"><ele>273.5</ele><time>2026-04-04T11:05:41Z</time></trkpt><trkpt lat="42.23396696101109" lon="14.022162632173012"><ele>276.0</ele><time>2026-04-04T11:05:42Z</time></trkpt><trkpt lat="42.23384830509476" lon="14.022232437645785"><ele>276.5</ele><time>2026-04-04T11:05:43Z</time></trkpt><trkpt lat="42.23372759853381" lon="14.022319976802883"><ele>277.0</ele><time>2026-04-04T11:05:44Z</time></trkpt><trkpt lat="42.23359754952992" lon="14.022396961532348"><ele>277.5</ele><time>2026-04-04T11:05:45Z</time></trkpt><trkpt lat="42.233474436905475" lon="14.022485186787161"><ele>278.0</ele><time>2026-04-04T11:05:46Z</time></trkpt><trkpt lat="42.23335973031987" lon="14.022560954667409"><ele>280.6</ele><time>2026-04-04T11:05:47Z</time></trkpt><trkpt lat="42.23325475430854" lon="14.022622051414858"><ele>283.20000000000005</ele><time>2026-04-04T11:05:48Z</time></trkpt><trkpt lat="42.233155060623595" lon="14.02265133714616"><ele>285.8</ele><time>2026-04-04T11:05:49Z</time></trkpt><trkpt lat="42.23306123919955" lon="14.02263333219163"><ele>288.40000000000003</ele><time>2026-04-04T11:05:50Z</time></trkpt><trkpt lat="42.23299467665129" lon="14.02256219351412"><ele>291.0</ele><time>2026-04-04T11:05:51Z</time></trkpt><trkpt lat="42.23291909658911" lon="14.022544011982774"><ele>292.40000000000003</ele><time>2026-04-04T11:05:52Z</time></trkpt><trkpt lat="42.23283930593144" lon="14.022543704544056"><ele>293.8</ele><time>2026-04-04T11:05:53Z</time></trkpt><trkpt lat="42.23275159777375" lon="14.022598203436958"><ele>295.20000000000005</ele><time>2026-04-04T11:05:54Z</time></trkpt><trkpt lat="42.23263548488525" lon="14.022625781720867"><ele>296.6</ele><time>2026-04-04T11:05:55Z</time></trkpt><trkpt lat="42.23252227418348" lon="14.022671118787542"><ele>298.0</ele><time>2026-04-04T11:05:56Z</time></trkpt><trkpt lat="42.232401435695095" lon="14.022714248106164"><ele>301.0</ele><time>2026-04-04T11:05:57Z</time></trkpt><trkpt lat="42.23227787760672" lon="14.022773308489095"><ele>304.0</ele><time>2026-04-04T11:05:58Z</time></trkpt><trkpt lat="42.23215222212277" lon="14.022822623684215"><ele>307.0</ele><time>2026-04-04T11:05:59Z</time></trkpt><trkpt lat="42.23201900168096" lon="14.022883214164239"><ele>310.0</ele><time>2026-04-04T11:06:00Z</time></trkpt><trkpt lat="42.231893094568825" lon="14.022929229399638"><ele>310.0</ele><time>2026-04-04T11:06:01Z</time></trkpt><trkpt lat="42.23178935847217" lon="14.022973166804448"><ele>310.0</ele><time>2026-04-04T11:06:02Z</time></trkpt><trkpt lat="42.231699047487055" lon="14.023015895407928"><ele>310.0</ele><time>2026-04-04T11:06:03Z</time></trkpt><trkpt lat="42.231628942260755" lon="14.023044078120341"><ele>310.0</ele><time>2026-04-04T11:06:04Z</time></trkpt><trkpt lat="42.231524970086944" lon="14.023083323329764"><ele>310.0</ele><time>2026-04-04T11:06:06Z</time></trkpt><trkpt lat="42.231443777012025" lon="14.023117237605405"><ele>312.0</ele><time>2026-04-04T11:06:22Z</time></trkpt><trkpt lat="42.231373562722226" lon="14.023127049108256"><ele>314.0</ele><time>2026-04-04T11:06:23Z</time></trkpt><trkpt lat="42.2312955075478" lon="14.02316030566953"><ele>316.0</ele><time>2026-04-04T11:06:24Z</time></trkpt><trkpt lat="42.23121535291033" lon="14.023197868032995"><ele>318.0</ele><time>2026-04-04T11:06:25Z</time></trkpt><trkpt lat="42.23112172589589" lon="14.023241564050982"><ele>320.0</ele><time>2026-04-04T11:06:26Z</time></trkpt><trkpt lat="42.23102777422144" lon="14.023297938817079"><ele>322.0</ele><time>2026-04-04T11:06:27Z</time></trkpt><trkpt lat="42.230931160688364" lon="14.023307322627254"><ele>322.0</ele><time>2026-04-04T11:06:28Z</time></trkpt><trkpt lat="42.230829418420356" lon="14.023307300507762"><ele>322.0</ele><time>2026-04-04T11:06:29Z</time></trkpt><trkpt lat="42.23072874621723" lon="14.023292689810857"><ele>322.0</ele><time>2026-04-04T11:06:30Z</time></trkpt><trkpt lat="42.23063208000936" lon="14.0232468603621"><ele>322.0</ele><time>2026-04-04T11:06:31Z</time></trkpt><trkpt lat="42.23052268606453" lon="14.0231981460095"><ele>322.0</ele><time>2026-04-04T11:06:32Z</time></trkpt><trkpt lat="42.23041459147872" lon="14.02314871719704"><ele>325.0</ele><time>2026-04-04T11:06:33Z</time></trkpt><trkpt lat="42.23029882645323" lon="14.023096956482608"><ele>328.0</ele><time>2026-04-04T11:06:34Z</time></trkpt><trkpt lat="42.23018041293229" lon="14.023045696945896"><ele>331.0</ele><time>2026-04-04T11:06:35Z</time></trkpt><trkpt lat="42.230060193811404" lon="14.022994049122241"><ele>334.0</ele><time>2026-04-04T11:06:36Z</time></trkpt><trkpt lat="42.22995416584353" lon="14.022947411356137"><ele>334.0</ele><time>2026-04-04T11:06:37Z</time></trkpt><trkpt lat="42.22985708527018" lon="14.022903070489841"><ele>334.0</ele><time>2026-04-04T11:06:38Z</time></trkpt><trkpt lat="42.229756647336316" lon="14.022833625179892"><ele>334.0</ele><time>2026-04-04T11:06:39Z</time></trkpt><trkpt lat="42.22965801197984" lon="14.022744333870191"><ele>334.0</ele><time>2026-04-04T11:06:40Z</time></trkpt><trkpt lat="42.22956873559827" lon="14.02262926348874"><ele>336.5</ele><time>2026-04-04T11:06:41Z</time></trkpt><trkpt lat="42.22949728755411" lon="14.022511790302808"><ele>339.0</ele><time>2026-04-04T11:06:42Z</time></trkpt><trkpt lat="42.22943417473095" lon="14.02238810878275"><ele>341.5</ele><time>2026-04-04T11:06:43Z</time></trkpt><trkpt lat="42.22938385256843" lon="14.02224065880254"><ele>344.0</ele><time>2026-04-04T11:06:44Z</time></trkpt><trkpt lat="42.22931917560084" lon="14.02208354918843"><ele>344.0</ele><time>2026-04-04T11:06:45Z</time></trkpt><trkpt lat="42.22927554469496" lon="14.021923719731957"><ele>344.0</ele><time>2026-04-04T11:06:46Z</time></trkpt><trkpt lat="42.22926689866232" lon="14.021775804382026"><ele>344.0</ele><time>2026-04-04T11:06:47Z</time></trkpt><trkpt lat="42.22926109405457" lon="14.02163661978652"><ele>344.0</ele><time>2026-04-04T11:06:48Z</time></trkpt><trkpt lat="42.22927435804787" lon="14.021501500531983"><ele>344.0</ele><time>2026-04-04T11:06:49Z</time></trkpt><trkpt lat="42.229272284964814" lon="14.021382994725382"><ele>343.0</ele><time>2026-04-04T11:06:50Z</time></trkpt><trkpt lat="42.22926545879457" lon="14.02128825015953"><ele>342.0</ele><time>2026-04-04T11:06:51Z</time></trkpt><trkpt lat="42.22921803696118" lon="14.02122089089029"><ele>341.0</ele><time>2026-04-04T11:06:52Z</time></trkpt><trkpt lat="42.229145619667705" lon="14.0211428717539"><ele>340.0</ele><time>2026-04-04T11:06:53Z</time></trkpt><trkpt lat="42.22906295088521" lon="14.021057652106881"><ele>339.0</ele><time>2026-04-04T11:06:54Z</time></trkpt><trkpt lat="42.22896567871035" lon="14.020965379202089"><ele>343.25</ele><time>2026-04-04T11:06:55Z</time></trkpt><trkpt lat="42.22884805845431" lon="14.020872098019314"><ele>347.5</ele><time>2026-04-04T11:06:56Z</time></trkpt><trkpt lat="42.22872638742503" lon="14.020797004933074"><ele>351.75</ele><time>2026-04-04T11:06:57Z</time></trkpt><trkpt lat="42.228593612209735" lon="14.02073238664004"><ele>356.0</ele><time>2026-04-04T11:06:58Z</time></trkpt><trkpt lat="42.22846924023691" lon="14.020675791485745"><ele>356.0</ele><time>2026-04-04T11:06:59Z</time></trkpt><trkpt lat="42.2283575670931" lon="14.020634650483213"><ele>356.0</ele><time>2026-04-04T11:07:00Z</time></trkpt><trkpt lat="42.22825304169004" lon="14.020592478783986"><ele>356.0</ele><time>2026-04-04T11:07:01Z</time></trkpt><trkpt lat="42.22814211940953" lon="14.02057173942815"><ele>356.0</ele><time>2026-04-04T11:07:02Z</time></trkpt><trkpt lat="42.22803422943033" lon="14.02054638594158"><ele>356.0</ele><time>2026-04-04T11:07:03Z</time></trkpt><trkpt lat="42.22791872615089" lon="14.020508224048317"><ele>357.0</ele><time>2026-04-04T11:07:04Z</time></trkpt><trkpt lat="42.227794189447195" lon="14.020484284598496"><ele>358.0</ele><time>2026-04-04T11:07:05Z</time></trkpt><trkpt lat="42.22766940269999" lon="14.02042339297645"><ele>359.0</ele><time>2026-04-04T11:07:06Z</time></trkpt><trkpt lat="42.2275453381175" lon="14.020366458081584"><ele>360.0</ele><time>2026-04-04T11:07:07Z</time></trkpt><trkpt lat="42.22741481139846" lon="14.020310720677866"><ele>360.4</ele><time>2026-04-04T11:07:08Z</time></trkpt><trkpt lat="42.22729741784209" lon="14.020259953532982"><ele>360.8</ele><time>2026-04-04T11:07:09Z</time></trkpt><trkpt lat="42.22719767321549" lon="14.020222546667311"><ele>361.20000000000005</ele><time>2026-04-04T11:07:10Z</time></trkpt><trkpt lat="42.22709553646186" lon="14.020207837192638"><ele>361.6</ele><time>2026-04-04T11:07:11Z</time></trkpt><trkpt lat="42.22698103603273" lon="14.020248841521557"><ele>362.0</ele><time>2026-04-04T11:07:12Z</time></trkpt><trkpt lat="42.2268546793383" lon="14.020318776043819"><ele>362.0</ele><time>2026-04-04T11:07:13Z</time></trkpt><trkpt lat="42.22672927307092" lon="14.020390582644842"><ele>362.0</ele><time>2026-04-04T11:07:14Z</time></trkpt><trkpt lat="42.226588959046715" lon="14.020423028776733"><ele>362.0</ele><time>2026-04-04T11:07:15Z</time></trkpt><trkpt lat="42.2264557620688" lon="14.020496287193643"><ele>362.0</ele><time>2026-04-04T11:07:16Z</time></trkpt><trkpt lat="42.22633696081598" lon="14.020570881935246"><ele>364.20000000000005</ele><time>2026-04-04T11:07:17Z</time></trkpt><trkpt lat="42.22623119931636" lon="14.020667718523294"><ele>366.4</ele><time>2026-04-04T11:07:18Z</time></trkpt><trkpt lat="42.226125764308534" lon="14.020709183064072"><ele>368.6</ele><time>2026-04-04T11:07:19Z</time></trkpt><trkpt lat="42.2260317924196" lon="14.020730750963699"><ele>370.79999999999995</ele><time>2026-04-04T11:07:20Z</time></trkpt><trkpt lat="42.22595203915463" lon="14.020692035485316"><ele>373.0</ele><time>2026-04-04T11:07:21Z</time></trkpt><trkpt lat="42.225894656228576" lon="14.020585849670438"><ele>373.0</ele><time>2026-04-04T11:07:22Z</time></trkpt><trkpt lat="42.22581640471185" lon="14.02050082126437"><ele>373.0</ele><time>2026-04-04T11:07:23Z</time></trkpt><trkpt lat="42.22570965259177" lon="14.020441359531844"><ele>373.0</ele><time>2026-04-04T11:07:24Z</time></trkpt><trkpt lat="42.22558786086485" lon="14.020414541759692"><ele>373.0</ele><time>2026-04-04T11:07:25Z</time></trkpt><trkpt lat="42.22545088462037" lon="14.020430036792979"><ele>377.5</ele><time>2026-04-04T11:07:26Z</time></trkpt><trkpt lat="42.22530478437758" lon="14.020461203272793"><ele>382.0</ele><time>2026-04-04T11:07:27Z</time></trkpt><trkpt lat="42.22517521251583" lon="14.02048447356562"><ele>386.5</ele><time>2026-04-04T11:07:28Z</time></trkpt><trkpt lat="42.2250560208298" lon="14.020425378523418"><ele>391.0</ele><time>2026-04-04T11:07:29Z</time></trkpt><trkpt lat="42.22492646667123" lon="14.02037743504575"><ele>396.0</ele><time>2026-04-04T11:07:30Z</time></trkpt><trkpt lat="42.22478124758666" lon="14.020372938535733"><ele>401.0</ele><time>2026-04-04T11:07:31Z</time></trkpt><trkpt lat="42.22464756465675" lon="14.020335604369357"><ele>406.0</ele><time>2026-04-04T11:07:32Z</time></trkpt><trkpt lat="42.22453484095128" lon="14.020324227730844"><ele>411.0</ele><time>2026-04-04T11:07:33Z</time></trkpt><trkpt lat="42.22444452301861" lon="14.020322634396692"><ele>411.0</ele><time>2026-04-04T11:07:34Z</time></trkpt><trkpt lat="42.22438337862574" lon="14.02026803780981"><ele>411.0</ele><time>2026-04-04T11:07:35Z</time></trkpt><trkpt lat="42.224334895049694" lon="14.020118193282029"><ele>411.0</ele><time>2026-04-04T11:07:37Z</time></trkpt><trkpt lat="42.22435362830116" lon="14.019989944229758"><ele>411.0</ele><time>2026-04-04T11:07:38Z</time></trkpt><trkpt lat="42.22440881955567" lon="14.019880654597825"><ele>411.0</ele><time>2026-04-04T11:07:39Z</time></trkpt><trkpt lat="42.22449646167208" lon="14.019824838524496"><ele>409.0</ele><time>2026-04-04T11:07:40Z</time></trkpt><trkpt lat="42.22460177054402" lon="14.019761723135932"><ele>407.0</ele><time>2026-04-04T11:07:41Z</time></trkpt><trkpt lat="42.224708556918586" lon="14.019685485560517"><ele>405.0</ele><time>2026-04-04T11:07:42Z</time></trkpt><trkpt lat="42.22480521573552" lon="14.019591679566966"><ele>403.0</ele><time>2026-04-04T11:07:43Z</time></trkpt><trkpt lat="42.224876019931486" lon="14.019481079383304"><ele>403.0</ele><time>2026-04-04T11:07:44Z</time></trkpt><trkpt lat="42.22492805788634" lon="14.019349662457872"><ele>403.0</ele><time>2026-04-04T11:07:45Z</time></trkpt><trkpt lat="42.224946693029274" lon="14.019185595030821"><ele>403.0</ele><time>2026-04-04T11:07:46Z</time></trkpt><trkpt lat="42.224951464570424" lon="14.019004044844543"><ele>403.0</ele><time>2026-04-04T11:07:47Z</time></trkpt><trkpt lat="42.22495718174072" lon="14.018830477776243"><ele>405.5</ele><time>2026-04-04T11:07:48Z</time></trkpt><trkpt lat="42.22496513105663" lon="14.018658577442354"><ele>408.0</ele><time>2026-04-04T11:07:49Z</time></trkpt><trkpt lat="42.224974380560454" lon="14.018483233628826"><ele>410.5</ele><time>2026-04-04T11:07:50Z</time></trkpt><trkpt lat="42.224983433502224" lon="14.018325762752337"><ele>413.0</ele><time>2026-04-04T11:07:51Z</time></trkpt><trkpt lat="42.22498854282293" lon="14.018165539833463"><ele>414.0</ele><time>2026-04-04T11:07:52Z</time></trkpt><trkpt lat="42.22498013259949" lon="14.017995539590142"><ele>415.0</ele><time>2026-04-04T11:07:53Z</time></trkpt><trkpt lat="42.224954582053" lon="14.017817750056293"><ele>416.0</ele><time>2026-04-04T11:07:54Z</time></trkpt><trkpt lat="42.2249191274238" lon="14.017650641600746"><ele>417.0</ele><time>2026-04-04T11:07:55Z</time></trkpt><trkpt lat="42.22491071248715" lon="14.017468464133117"><ele>418.0</ele><time>2026-04-04T11:07:56Z</time></trkpt><trkpt lat="42.22491652440994" lon="14.01728881723581"><ele>419.0</ele><time>2026-04-04T11:07:57Z</time></trkpt><trkpt lat="42.224914648187756" lon="14.017105228893927"><ele>420.0</ele><time>2026-04-04T11:07:58Z</time></trkpt><trkpt lat="42.224931221631245" lon="14.01695383924019"><ele>421.0</ele><time>2026-04-04T11:07:59Z</time></trkpt><trkpt lat="42.22494801080116" lon="14.01681999795197"><ele>421.0</ele><time>2026-04-04T11:08:00Z</time></trkpt><trkpt lat="42.22495587567792" lon="14.016693657950524"><ele>421.0</ele><time>2026-04-04T11:08:01Z</time></trkpt><trkpt lat="42.2249398184473" lon="14.016590361729437"><ele>421.0</ele><time>2026-04-04T11:08:02Z</time></trkpt><trkpt lat="42.22490295711601" lon="14.016469083120272"><ele>421.0</ele><time>2026-04-04T11:08:03Z</time></trkpt><trkpt lat="42.22483197846817" lon="14.016353146629402"><ele>421.0</ele><time>2026-04-04T11:08:04Z</time></trkpt><trkpt lat="42.22473546124663" lon="14.016243985204543"><ele>419.5</ele><time>2026-04-04T11:08:05Z</time></trkpt><trkpt lat="42.22467731225222" lon="14.01608132873757"><ele>418.0</ele><time>2026-04-04T11:08:06Z</time></trkpt><trkpt lat="42.224605261416535" lon="14.015963284332894"><ele>416.5</ele><time>2026-04-04T11:08:07Z</time></trkpt><trkpt lat="42.22453947332518" lon="14.015848745731454"><ele>415.0</ele><time>2026-04-04T11:08:08Z</time></trkpt><trkpt lat="42.2244376409523" lon="14.015730605348832"><ele>415.0</ele><time>2026-04-04T11:08:09Z</time></trkpt><trkpt lat="42.22432037026585" lon="14.015623324632802"><ele>415.0</ele><time>2026-04-04T11:08:10Z</time></trkpt><trkpt lat="42.2241987754597" lon="14.015512484143859"><ele>415.0</ele><time>2026-04-04T11:08:11Z</time></trkpt><trkpt lat="42.22409552272169" lon="14.015394011423915"><ele>415.0</ele><time>2026-04-04T11:08:12Z</time></trkpt><trkpt lat="42.22400207770022" lon="14.015274121931931"><ele>421.5</ele><time>2026-04-04T11:08:13Z</time></trkpt><trkpt lat="42.223888581040605" lon="14.015151165995205"><ele>428.0</ele><time>2026-04-04T11:08:14Z</time></trkpt><trkpt lat="42.22376935373896" lon="14.015059029618646"><ele>434.5</ele><time>2026-04-04T11:08:15Z</time></trkpt><trkpt lat="42.223661645328086" lon="14.014988400515627"><ele>441.0</ele><time>2026-04-04T11:08:16Z</time></trkpt><trkpt lat="42.22357400401754" lon="14.014894274603131"><ele>441.0</ele><time>2026-04-04T11:08:17Z</time></trkpt><trkpt lat="42.22348870969434" lon="14.014830564684502"><ele>441.0</ele><time>2026-04-04T11:08:18Z</time></trkpt><trkpt lat="42.223438468388125" lon="14.014739117349441"><ele>441.0</ele><time>2026-04-04T11:08:19Z</time></trkpt><trkpt lat="42.22342878128576" lon="14.01461716399391"><ele>441.0</ele><time>2026-04-04T11:08:20Z</time></trkpt><trkpt lat="42.223384457939176" lon="14.014500605220336"><ele>441.0</ele><time>2026-04-04T11:08:21Z</time></trkpt><trkpt lat="42.22335227876943" lon="14.014355168676294"><ele>441.0</ele><time>2026-04-04T11:08:22Z</time></trkpt><trkpt lat="42.223342005385724" lon="14.014213122944803"><ele>441.0</ele><time>2026-04-04T11:08:23Z</time></trkpt><trkpt lat="42.22333566485522" lon="14.014084520077702"><ele>441.0</ele><time>2026-04-04T11:08:24Z</time></trkpt><trkpt lat="42.22332029207938" lon="14.013951246803083"><ele>441.0</ele><time>2026-04-04T11:08:25Z</time></trkpt><trkpt lat="42.22332270690986" lon="14.013818145807377"><ele>441.0</ele><time>2026-04-04T11:08:26Z</time></trkpt><trkpt lat="42.223333533163505" lon="14.013694759806338"><ele>439.8333333333333</ele><time>2026-04-04T11:08:27Z</time></trkpt><trkpt lat="42.223347986827065" lon="14.013600520246758"><ele>438.66666666666663</ele><time>2026-04-04T11:08:28Z</time></trkpt><trkpt lat="42.22337120253594" lon="14.013516033354714"><ele>437.5</ele><time>2026-04-04T11:08:29Z</time></trkpt><trkpt lat="42.2233854717783" lon="14.013335588465779"><ele>436.3333333333333</ele><time>2026-04-04T11:08:31Z</time></trkpt><trkpt lat="42.22338710125212" lon="14.013227744683311"><ele>435.16666666666663</ele><time>2026-04-04T11:08:32Z</time></trkpt><trkpt lat="42.22336949062835" lon="14.013115283453528"><ele>434.0</ele><time>2026-04-04T11:08:33Z</time></trkpt><trkpt lat="42.22337487800943" lon="14.013002342700355"><ele>433.2</ele><time>2026-04-04T11:08:34Z</time></trkpt><trkpt lat="42.223374756550875" lon="14.012883626799162"><ele>432.4</ele><time>2026-04-04T11:08:35Z</time></trkpt><trkpt lat="42.2233847678499" lon="14.012760291904131"><ele>431.6</ele><time>2026-04-04T11:08:36Z</time></trkpt><trkpt lat="42.223392497908236" lon="14.01262625030018"><ele>430.8</ele><time>2026-04-04T11:08:37Z</time></trkpt><trkpt lat="42.22339957207756" lon="14.012488495695612"><ele>430.0</ele><time>2026-04-04T11:08:38Z</time></trkpt><trkpt lat="42.22339959150719" lon="14.01236267153487"><ele>428.83333333333337</ele><time>2026-04-04T11:08:39Z</time></trkpt><trkpt lat="42.223402460315484" lon="14.012240463451446"><ele>427.6666666666667</ele><time>2026-04-04T11:08:40Z</time></trkpt><trkpt lat="42.22340087093573" lon="14.01211994071408"><ele>426.5</ele><time>2026-04-04T11:08:41Z</time></trkpt><trkpt lat="42.223379323209876" lon="14.012010498738803"><ele>425.33333333333337</ele><time>2026-04-04T11:08:42Z</time></trkpt><trkpt lat="42.22334060457934" lon="14.01190990148462"><ele>424.1666666666667</ele><time>2026-04-04T11:08:43Z</time></trkpt><trkpt lat="42.22329517723318" lon="14.011812909808691"><ele>423.0</ele><time>2026-04-04T11:08:44Z</time></trkpt><trkpt lat="42.223234101803364" lon="14.011717434263488"><ele>423.2</ele><time>2026-04-04T11:08:45Z</time></trkpt><trkpt lat="42.22317317752782" lon="14.01161402491859"><ele>423.4</ele><time>2026-04-04T11:08:46Z</time></trkpt><trkpt lat="42.223122660615445" lon="14.011518970814379"><ele>423.59999999999997</ele><time>2026-04-04T11:08:47Z</time></trkpt><trkpt lat="42.22307202470392" lon="14.011423940590788"><ele>423.79999999999995</ele><time>2026-04-04T11:08:48Z</time></trkpt><trkpt lat="42.223031582854446" lon="14.011344968667043"><ele>424.0</ele><time>2026-04-04T11:08:49Z</time></trkpt><trkpt lat="42.22296915748482" lon="14.011225596926643"><ele>424.0</ele><time>2026-04-04T11:08:51Z</time></trkpt><trkpt lat="42.22292350308541" lon="14.011135220285876"><ele>424.0</ele><time>2026-04-04T11:08:53Z</time></trkpt><trkpt lat="42.222875507813626" lon="14.011020622372872"><ele>424.0</ele><time>2026-04-04T11:08:55Z</time></trkpt><trkpt lat="42.22275806648213" lon="14.010911646584422"><ele>424.0</ele><time>2026-04-04T11:08:57Z</time></trkpt><trkpt lat="42.22265689933216" lon="14.010877240783833"><ele>424.0</ele><time>2026-04-04T11:08:58Z</time></trkpt><trkpt lat="42.22254934909096" lon="14.010829799491002"><ele>424.6</ele><time>2026-04-04T11:08:59Z</time></trkpt><trkpt lat="42.222442331304066" lon="14.010787616436959"><ele>425.2</ele><time>2026-04-04T11:09:00Z</time></trkpt><trkpt lat="42.22234891593974" lon="14.010722764946319"><ele>425.80000000000007</ele><time>2026-04-04T11:09:01Z</time></trkpt><trkpt lat="42.222248015949546" lon="14.010673976711123"><ele>426.40000000000003</ele><time>2026-04-04T11:09:02Z</time></trkpt><trkpt lat="42.22214811188832" lon="14.010624939188006"><ele>427.0</ele><time>2026-04-04T11:09:03Z</time></trkpt><trkpt lat="42.222063842028156" lon="14.01058482879027"><ele>427.0</ele><time>2026-04-04T11:09:04Z</time></trkpt><trkpt lat="42.221985768260296" lon="14.010551625603417"><ele>427.00000000000006</ele><time>2026-04-04T11:09:05Z</time></trkpt><trkpt lat="42.221897393799296" lon="14.010517303595105"><ele>427.00000000000006</ele><time>2026-04-04T11:09:06Z</time></trkpt><trkpt lat="42.22179527481898" lon="14.010492341365264"><ele>427.0</ele><time>2026-04-04T11:09:07Z</time></trkpt><trkpt lat="42.22168340083982" lon="14.010506782394287"><ele>427.0</ele><time>2026-04-04T11:09:08Z</time></trkpt><trkpt lat="42.22157068266204" lon="14.010501561131466"><ele>429.40000000000003</ele><time>2026-04-04T11:09:09Z</time></trkpt><trkpt lat="42.22146259886778" lon="14.01050028939456"><ele>431.80000000000007</ele><time>2026-04-04T11:09:10Z</time></trkpt><trkpt lat="42.221352762872286" lon="14.010499688973367"><ele>434.2</ele><time>2026-04-04T11:09:11Z</time></trkpt><trkpt lat="42.22124383359939" lon="14.010489482009262"><ele>436.6</ele><time>2026-04-04T11:09:12Z</time></trkpt><trkpt lat="42.221149337152156" lon="14.010461238174779"><ele>439.0</ele><time>2026-04-04T11:09:13Z</time></trkpt><trkpt lat="42.221068189545086" lon="14.010417043596322"><ele>439.0</ele><time>2026-04-04T11:09:14Z</time></trkpt><trkpt lat="42.22098249052671" lon="14.010399666664686"><ele>439.0</ele><time>2026-04-04T11:09:15Z</time></trkpt><trkpt lat="42.2208907618278" lon="14.010434474480936"><ele>439.0</ele><time>2026-04-04T11:09:16Z</time></trkpt><trkpt lat="42.22079633130737" lon="14.010485592508383"><ele>439.0</ele><time>2026-04-04T11:09:17Z</time></trkpt><trkpt lat="42.22069128726242" lon="14.010483045794938"><ele>439.0</ele><time>2026-04-04T11:09:18Z</time></trkpt><trkpt lat="42.220580685630814" lon="14.010479921181199"><ele>443.2</ele><time>2026-04-04T11:09:19Z</time></trkpt><trkpt lat="42.22047802613191" lon="14.010458828494045"><ele>447.4</ele><time>2026-04-04T11:09:20Z</time></trkpt><trkpt lat="42.220375574186" lon="14.010472415032549"><ele>451.6</ele><time>2026-04-04T11:09:21Z</time></trkpt><trkpt lat="42.22026995368254" lon="14.010502395070489"><ele>455.8</ele><time>2026-04-04T11:09:22Z</time></trkpt><trkpt lat="42.22015911865061" lon="14.01053168363097"><ele>460.0</ele><time>2026-04-04T11:09:23Z</time></trkpt><trkpt lat="42.22005169408753" lon="14.01055954075133"><ele>460.0</ele><time>2026-04-04T11:09:24Z</time></trkpt><trkpt lat="42.21993638496799" lon="14.010564135657415"><ele>460.0</ele><time>2026-04-04T11:09:25Z</time></trkpt><trkpt lat="42.219829109178136" lon="14.010582495999017"><ele>460.0</ele><time>2026-04-04T11:09:26Z</time></trkpt><trkpt lat="42.21972097180739" lon="14.010631017711042"><ele>460.0</ele><time>2026-04-04T11:09:27Z</time></trkpt><trkpt lat="42.21961057170636" lon="14.010668514737473"><ele>463.25</ele><time>2026-04-04T11:09:28Z</time></trkpt><trkpt lat="42.21950460832478" lon="14.010726096866009"><ele>466.5</ele><time>2026-04-04T11:09:29Z</time></trkpt><trkpt lat="42.219400161710844" lon="14.01079750592268"><ele>469.75</ele><time>2026-04-04T11:09:30Z</time></trkpt><trkpt lat="42.219300503036564" lon="14.01088678197936"><ele>473.0</ele><time>2026-04-04T11:09:31Z</time></trkpt><trkpt lat="42.21919878894116" lon="14.01098426154648"><ele>475.5</ele><time>2026-04-04T11:09:32Z</time></trkpt><trkpt lat="42.219099315922115" lon="14.011082929018132"><ele>478.0</ele><time>2026-04-04T11:09:33Z</time></trkpt><trkpt lat="42.21900280977069" lon="14.011175276287917"><ele>480.5</ele><time>2026-04-04T11:09:34Z</time></trkpt><trkpt lat="42.21889896107371" lon="14.01122294538634"><ele>483.0</ele><time>2026-04-04T11:09:35Z</time></trkpt><trkpt lat="42.21879680441861" lon="14.011290658836629"><ele>485.0</ele><time>2026-04-04T11:09:36Z</time></trkpt><trkpt lat="42.21866670193026" lon="14.011263949936222"><ele>487.0</ele><time>2026-04-04T11:09:37Z</time></trkpt><trkpt lat="42.21853545088308" lon="14.011303991635966"><ele>489.0</ele><time>2026-04-04T11:09:38Z</time></trkpt><trkpt lat="42.218408190841735" lon="14.011337348039772"><ele>491.0</ele><time>2026-04-04T11:09:39Z</time></trkpt><trkpt lat="42.21827521383294" lon="14.011384094505699"><ele>491.0</ele><time>2026-04-04T11:09:40Z</time></trkpt><trkpt lat="42.218151998345284" lon="14.011450769234017"><ele>491.0</ele><time>2026-04-04T11:09:41Z</time></trkpt><trkpt lat="42.21803622765789" lon="14.011500200307912"><ele>491.0</ele><time>2026-04-04T11:09:42Z</time></trkpt><trkpt lat="42.217911804738876" lon="14.011535290422323"><ele>491.0</ele><time>2026-04-04T11:09:43Z</time></trkpt><trkpt lat="42.217783065067394" lon="14.01157308199918"><ele>493.75</ele><time>2026-04-04T11:09:44Z</time></trkpt><trkpt lat="42.21765888020534" lon="14.011576361126359"><ele>496.5</ele><time>2026-04-04T11:09:45Z</time></trkpt><trkpt lat="42.21753843304507" lon="14.011607831316946"><ele>499.25</ele><time>2026-04-04T11:09:46Z</time></trkpt><trkpt lat="42.21742011011873" lon="14.011568623667609"><ele>502.0</ele><time>2026-04-04T11:09:47Z</time></trkpt><trkpt lat="42.21730005811253" lon="14.011532712941523"><ele>504.75</ele><time>2026-04-04T11:09:48Z</time></trkpt><trkpt lat="42.21717754751317" lon="14.011489916061517"><ele>507.5</ele><time>2026-04-04T11:09:49Z</time></trkpt><trkpt lat="42.21704764342092" lon="14.011441748868505"><ele>510.25</ele><time>2026-04-04T11:09:50Z</time></trkpt><trkpt lat="42.21691160580239" lon="14.011410674478176"><ele>513.0</ele><time>2026-04-04T11:09:51Z</time></trkpt><trkpt lat="42.21677884400776" lon="14.011360090534769"><ele>513.0</ele><time>2026-04-04T11:09:52Z</time></trkpt><trkpt lat="42.216639744294625" lon="14.011316889502345"><ele>513.0</ele><time>2026-04-04T11:09:53Z</time></trkpt><trkpt lat="42.21649598557618" lon="14.011272670369717"><ele>513.0</ele><time>2026-04-04T11:09:54Z</time></trkpt><trkpt lat="42.216355982271565" lon="14.011228024501536"><ele>513.0</ele><time>2026-04-04T11:09:55Z</time></trkpt><trkpt lat="42.216206897579035" lon="14.011198652152045"><ele>514.75</ele><time>2026-04-04T11:09:56Z</time></trkpt><trkpt lat="42.21608253006728" lon="14.011164153899985"><ele>516.5</ele><time>2026-04-04T11:09:57Z</time></trkpt><trkpt lat="42.21597275215489" lon="14.01108839002701"><ele>518.25</ele><time>2026-04-04T11:09:58Z</time></trkpt><trkpt lat="42.21586790952964" lon="14.011034890150585"><ele>520.0</ele><time>2026-04-04T11:09:59Z</time></trkpt><trkpt lat="42.215768140654816" lon="14.011009505887046"><ele>521.25</ele><time>2026-04-04T11:10:00Z</time></trkpt><trkpt lat="42.21565234660181" lon="14.011032242065077"><ele>522.5</ele><time>2026-04-04T11:10:01Z</time></trkpt><trkpt lat="42.21551938534925" lon="14.01107127312229"><ele>523.75</ele><time>2026-04-04T11:10:02Z</time></trkpt><trkpt lat="42.215390896585866" lon="14.011130059850535"><ele>525.0</ele><time>2026-04-04T11:10:03Z</time></trkpt><trkpt lat="42.21526833660894" lon="14.011201269254155"><ele>525.0</ele><time>2026-04-04T11:10:04Z</time></trkpt><trkpt lat="42.215150632725326" lon="14.011277945921542"><ele>525.0</ele><time>2026-04-04T11:10:05Z</time></trkpt><trkpt lat="42.2150374578995" lon="14.011362087192794"><ele>525.0</ele><time>2026-04-04T11:10:06Z</time></trkpt><trkpt lat="42.214940346438325" lon="14.011466338667201"><ele>525.0</ele><time>2026-04-04T11:10:07Z</time></trkpt><trkpt lat="42.214842081818624" lon="14.01157418691027"><ele>529.0</ele><time>2026-04-04T11:10:08Z</time></trkpt><trkpt lat="42.214735549159386" lon="14.0116585066574"><ele>533.0</ele><time>2026-04-04T11:10:09Z</time></trkpt><trkpt lat="42.214632998141525" lon="14.011735384517904"><ele>537.0</ele><time>2026-04-04T11:10:10.001Z</time></trkpt><trkpt lat="42.214536280610666" lon="14.01183655741168"><ele>541.0</ele><time>2026-04-04T11:10:11.001Z</time></trkpt><trkpt lat="42.2144394944397" lon="14.01192858053016"><ele>541.0</ele><time>2026-04-04T11:10:12.001Z</time></trkpt><trkpt lat="42.214346404808644" lon="14.012035258482019"><ele>541.0</ele><time>2026-04-04T11:10:13.001Z</time></trkpt><trkpt lat="42.21425857553019" lon="14.012144617912304"><ele>541.0</ele><time>2026-04-04T11:10:14.001Z</time></trkpt><trkpt lat="42.21418579130708" lon="14.012252424656241"><ele>541.0</ele><time>2026-04-04T11:10:15.001Z</time></trkpt><trkpt lat="42.21412467220621" lon="14.012353214301424"><ele>541.0</ele><time>2026-04-04T11:10:16.001Z</time></trkpt><trkpt lat="42.21405740850003" lon="14.012450836592361"><ele>542.6</ele><time>2026-04-04T11:10:17.001Z</time></trkpt><trkpt lat="42.21399248855766" lon="14.012548944781146"><ele>544.2</ele><time>2026-04-04T11:10:18.001Z</time></trkpt><trkpt lat="42.213921916656" lon="14.012656077452263"><ele>545.8</ele><time>2026-04-04T11:10:19.001Z</time></trkpt><trkpt lat="42.21385687107344" lon="14.012775257393226"><ele>547.4</ele><time>2026-04-04T11:10:20.001Z</time></trkpt><trkpt lat="42.2138012846197" lon="14.012887394721952"><ele>549.0</ele><time>2026-04-04T11:10:21.001Z</time></trkpt><trkpt lat="42.21374870648452" lon="14.012992354907725"><ele>549.0</ele><time>2026-04-04T11:10:22.001Z</time></trkpt><trkpt lat="42.213703420586334" lon="14.01307516218768"><ele>549.0</ele><time>2026-04-04T11:10:23.001Z</time></trkpt><trkpt lat="42.21366338961385" lon="14.01314307748773"><ele>549.0</ele><time>2026-04-04T11:10:24.001Z</time></trkpt><trkpt lat="42.21359611049595" lon="14.013238702773245"><ele>549.0</ele><time>2026-04-04T11:10:26Z</time></trkpt><trkpt lat="42.213538761686046" lon="14.01329897221136"><ele>549.0</ele><time>2026-04-04T11:10:28Z</time></trkpt><trkpt lat="42.2133996133801" lon="14.013224577975388"><ele>549.0</ele><time>2026-04-04T11:10:29Z</time></trkpt><trkpt lat="42.21329981537669" lon="14.013227313471656"><ele>549.0</ele><time>2026-04-04T11:10:30Z</time></trkpt><trkpt lat="42.21318497052426" lon="14.013255571676735"><ele>549.0</ele><time>2026-04-04T11:10:31Z</time></trkpt><trkpt lat="42.213070154275435" lon="14.013299200974675"><ele>549.0</ele><time>2026-04-04T11:10:32Z</time></trkpt><trkpt lat="42.2129604662649" lon="14.013353168002645"><ele>550.25</ele><time>2026-04-04T11:10:33Z</time></trkpt><trkpt lat="42.212854688674334" lon="14.01343234833356"><ele>551.5</ele><time>2026-04-04T11:10:34Z</time></trkpt><trkpt lat="42.2127375826117" lon="14.013493558307635"><ele>552.75</ele><time>2026-04-04T11:10:35Z</time></trkpt><trkpt lat="42.2126246568114" lon="14.013540312981933"><ele>554.0</ele><time>2026-04-04T11:10:36Z</time></trkpt><trkpt lat="42.2125118725157" lon="14.013546797810829"><ele>554.0</ele><time>2026-04-04T11:10:37Z</time></trkpt><trkpt lat="42.21238665010805" lon="14.013542932546539"><ele>554.0</ele><time>2026-04-04T11:10:38Z</time></trkpt><trkpt lat="42.212282981757596" lon="14.013443854510808"><ele>554.0</ele><time>2026-04-04T11:10:39Z</time></trkpt><trkpt lat="42.21219166548916" lon="14.013336759038108"><ele>554.0</ele><time>2026-04-04T11:10:40Z</time></trkpt><trkpt lat="42.21210382549286" lon="14.013215767234163"><ele>556.0</ele><time>2026-04-04T11:10:41Z</time></trkpt><trkpt lat="42.21205936072252" lon="14.01306068406545"><ele>558.0</ele><time>2026-04-04T11:10:42Z</time></trkpt><trkpt lat="42.21205648673857" lon="14.012890378004649"><ele>560.0</ele><time>2026-04-04T11:10:43Z</time></trkpt><trkpt lat="42.21208372923618" lon="14.012714805376204"><ele>562.0</ele><time>2026-04-04T11:10:44Z</time></trkpt><trkpt lat="42.21215271771374" lon="14.012558986092845"><ele>562.25</ele><time>2026-04-04T11:10:45Z</time></trkpt><trkpt lat="42.21221030928334" lon="14.012385981457829"><ele>562.5</ele><time>2026-04-04T11:10:46Z</time></trkpt><trkpt lat="42.21229650743335" lon="14.012220293328822"><ele>562.75</ele><time>2026-04-04T11:10:47Z</time></trkpt><trkpt lat="42.212377595048956" lon="14.012044087064941"><ele>563.0</ele><time>2026-04-04T11:10:48Z</time></trkpt><trkpt lat="42.21244698627538" lon="14.011872330555802"><ele>559.0</ele><time>2026-04-04T11:10:49Z</time></trkpt><trkpt lat="42.21251813808371" lon="14.011685354356533"><ele>555.0</ele><time>2026-04-04T11:10:50Z</time></trkpt><trkpt lat="42.21258765489794" lon="14.011502180125518"><ele>551.0</ele><time>2026-04-04T11:10:51Z</time></trkpt><trkpt lat="42.212662527474286" lon="14.011332965345959"><ele>551.0</ele><time>2026-04-04T11:10:52Z</time></trkpt><trkpt lat="42.21275096194223" lon="14.011173774179644"><ele>551.0</ele><time>2026-04-04T11:10:53Z</time></trkpt><trkpt lat="42.21283794475046" lon="14.01101823194771"><ele>551.0</ele><time>2026-04-04T11:10:54Z</time></trkpt><trkpt lat="42.21292773915728" lon="14.01086073122661"><ele>551.0</ele><time>2026-04-04T11:10:55Z</time></trkpt><trkpt lat="42.21301071814966" lon="14.010707402105828"><ele>550.5</ele><time>2026-04-04T11:10:56Z</time></trkpt><trkpt lat="42.21309276972134" lon="14.010558397748879"><ele>550.0</ele><time>2026-04-04T11:10:57Z</time></trkpt><trkpt lat="42.21316046519803" lon="14.010420444253675"><ele>549.5</ele><time>2026-04-04T11:10:58Z</time></trkpt><trkpt lat="42.21320062239381" lon="14.010264987809832"><ele>549.0</ele><time>2026-04-04T11:10:59Z</time></trkpt><trkpt lat="42.21319908656801" lon="14.010087529566015"><ele>548.3333333333334</ele><time>2026-04-04T11:11:00Z</time></trkpt><trkpt lat="42.213164604406" lon="14.009891878678484"><ele>547.6666666666667</ele><time>2026-04-04T11:11:01Z</time></trkpt><trkpt lat="42.21310288739832" lon="14.00968697942077"><ele>547.0</ele><time>2026-04-04T11:11:02Z</time></trkpt><trkpt lat="42.21304231159256" lon="14.009481304965265"><ele>547.0</ele><time>2026-04-04T11:11:03Z</time></trkpt><trkpt lat="42.21299048822814" lon="14.0092654095635"><ele>547.0</ele><time>2026-04-04T11:11:04Z</time></trkpt><trkpt lat="42.21293640284736" lon="14.009042621548453"><ele>547.0</ele><time>2026-04-04T11:11:05Z</time></trkpt><trkpt lat="42.21287786626735" lon="14.008821500406764"><ele>547.0</ele><time>2026-04-04T11:11:06Z</time></trkpt><trkpt lat="42.212820157042124" lon="14.008603135648245"><ele>547.0</ele><time>2026-04-04T11:11:07Z</time></trkpt><trkpt lat="42.21276096666056" lon="14.00838398235902"><ele>547.0</ele><time>2026-04-04T11:11:08Z</time></trkpt><trkpt lat="42.21270406079072" lon="14.00817680922572"><ele>547.0</ele><time>2026-04-04T11:11:09Z</time></trkpt><trkpt lat="42.21264696562035" lon="14.007974324270736"><ele>547.0</ele><time>2026-04-04T11:11:10Z</time></trkpt><trkpt lat="42.21260795790151" lon="14.007773503254388"><ele>547.0</ele><time>2026-04-04T11:11:11Z</time></trkpt><trkpt lat="42.21254928638269" lon="14.007596566970765"><ele>546.75</ele><time>2026-04-04T11:11:12Z</time></trkpt><trkpt lat="42.212515026759256" lon="14.007415267394958"><ele>546.5</ele><time>2026-04-04T11:11:13Z</time></trkpt><trkpt lat="42.21248486230197" lon="14.007241538285932"><ele>546.25</ele><time>2026-04-04T11:11:14Z</time></trkpt><trkpt lat="42.21249980592256" lon="14.007057321675072"><ele>546.0</ele><time>2026-04-04T11:11:15Z</time></trkpt><trkpt lat="42.21253253584445" lon="14.00686504665567"><ele>547.6666666666666</ele><time>2026-04-04T11:11:16Z</time></trkpt><trkpt lat="42.21257292906372" lon="14.006653379755035"><ele>549.3333333333333</ele><time>2026-04-04T11:11:17Z</time></trkpt><trkpt lat="42.21262867044132" lon="14.00645016666043"><ele>551.0</ele><time>2026-04-04T11:11:18Z</time></trkpt><trkpt lat="42.212696243390745" lon="14.006248252117386"><ele>551.0</ele><time>2026-04-04T11:11:19Z</time></trkpt><trkpt lat="42.21277406844269" lon="14.006041276341847"><ele>551.0</ele><time>2026-04-04T11:11:20Z</time></trkpt><trkpt lat="42.21285948763341" lon="14.005840771572414"><ele>551.0</ele><time>2026-04-04T11:11:21Z</time></trkpt><trkpt lat="42.21294352334764" lon="14.005626880427348"><ele>550.0</ele><time>2026-04-04T11:11:22Z</time></trkpt><trkpt lat="42.21302497699766" lon="14.005403719303605"><ele>549.0</ele><time>2026-04-04T11:11:23Z</time></trkpt><trkpt lat="42.21310547399327" lon="14.005179179639011"><ele>548.0</ele><time>2026-04-04T11:11:24Z</time></trkpt><trkpt lat="42.21318403561868" lon="14.004966815577982"><ele>548.0</ele><time>2026-04-04T11:11:25Z</time></trkpt><trkpt lat="42.213255217715165" lon="14.004762051489466"><ele>548.0</ele><time>2026-04-04T11:11:26Z</time></trkpt><trkpt lat="42.2133189289513" lon="14.004562918750588"><ele>548.0</ele><time>2026-04-04T11:11:27Z</time></trkpt><trkpt lat="42.21342468346738" lon="14.00438764618718"><ele>548.0</ele><time>2026-04-04T11:11:28Z</time></trkpt><trkpt lat="42.21354539013811" lon="14.004226076990419"><ele>548.0</ele><time>2026-04-04T11:11:29Z</time></trkpt><trkpt lat="42.2136701711866" lon="14.004058792843738"><ele>548.0</ele><time>2026-04-04T11:11:30Z</time></trkpt><trkpt lat="42.213795283009105" lon="14.003898942293791"><ele>548.3333333333333</ele><time>2026-04-04T11:11:31Z</time></trkpt><trkpt lat="42.21392435808797" lon="14.003734472655994"><ele>548.6666666666666</ele><time>2026-04-04T11:11:32Z</time></trkpt><trkpt lat="42.21407499573388" lon="14.003620068064263"><ele>549.0</ele><time>2026-04-04T11:11:33Z</time></trkpt><trkpt lat="42.2142167304955" lon="14.003509807471506"><ele>549.0</ele><time>2026-04-04T11:11:34Z</time></trkpt><trkpt lat="42.21437073585748" lon="14.003447825908005"><ele>549.0</ele><time>2026-04-04T11:11:35Z</time></trkpt><trkpt lat="42.21452901018619" lon="14.00337718356543"><ele>549.0</ele><time>2026-04-04T11:11:36Z</time></trkpt><trkpt lat="42.21467821740248" lon="14.00330900175393"><ele>549.75</ele><time>2026-04-04T11:11:37Z</time></trkpt><trkpt lat="42.21482950511811" lon="14.003246739863597"><ele>550.5</ele><time>2026-04-04T11:11:38Z</time></trkpt><trkpt lat="42.21497132064973" lon="14.00318607686639"><ele>551.25</ele><time>2026-04-04T11:11:39Z</time></trkpt><trkpt lat="42.21510212285888" lon="14.003124892851595"><ele>552.0</ele><time>2026-04-04T11:11:40Z</time></trkpt><trkpt lat="42.21522019960078" lon="14.003044178860382"><ele>552.0</ele><time>2026-04-04T11:11:41Z</time></trkpt><trkpt lat="42.21531753808709" lon="14.002957100830551"><ele>552.0</ele><time>2026-04-04T11:11:42Z</time></trkpt><trkpt lat="42.21537750911085" lon="14.002894122560175"><ele>552.0</ele><time>2026-04-04T11:11:43Z</time></trkpt><trkpt lat="42.21542550648232" lon="14.002811154422501"><ele>552.0</ele><time>2026-04-04T11:11:47Z</time></trkpt><trkpt lat="42.21547230309731" lon="14.002751768032745"><ele>552.0</ele><time>2026-04-04T11:11:48Z</time></trkpt><trkpt lat="42.21554197001116" lon="14.002685013077633"><ele>552.0</ele><time>2026-04-04T11:11:49Z</time></trkpt><trkpt lat="42.215639939922596" lon="14.002612967773489"><ele>552.0</ele><time>2026-04-04T11:11:50Z</time></trkpt><trkpt lat="42.215741962573944" lon="14.002535902852163"><ele>552.0</ele><time>2026-04-04T11:11:51Z</time></trkpt><trkpt lat="42.21583821959908" lon="14.002457212685108"><ele>552.0</ele><time>2026-04-04T11:11:52Z</time></trkpt><trkpt lat="42.21593677999843" lon="14.002382193886412"><ele>552.0</ele><time>2026-04-04T11:11:53Z</time></trkpt><trkpt lat="42.21604591561899" lon="14.002296568628822"><ele>552.0</ele><time>2026-04-04T11:11:54Z</time></trkpt><trkpt lat="42.216154623188764" lon="14.00220497912948"><ele>552.0</ele><time>2026-04-04T11:11:55Z</time></trkpt><trkpt lat="42.21625298511661" lon="14.002108392995936"><ele>552.0</ele><time>2026-04-04T11:11:56Z</time></trkpt><trkpt lat="42.21634496023065" lon="14.002004274035006"><ele>552.0</ele><time>2026-04-04T11:11:57Z</time></trkpt><trkpt lat="42.21642802871462" lon="14.00188859556387"><ele>549.0</ele><time>2026-04-04T11:11:58Z</time></trkpt><trkpt lat="42.216505292032615" lon="14.001755150256553"><ele>546.0</ele><time>2026-04-04T11:11:59Z</time></trkpt><trkpt lat="42.216582508160975" lon="14.00162160665246"><ele>543.0</ele><time>2026-04-04T11:12:00Z</time></trkpt><trkpt lat="42.21665874290221" lon="14.001491792303053"><ele>540.0</ele><time>2026-04-04T11:12:01Z</time></trkpt><trkpt lat="42.21672223683549" lon="14.001354948539538"><ele>540.0</ele><time>2026-04-04T11:12:02Z</time></trkpt><trkpt lat="42.216770476007504" lon="14.001207603603262"><ele>540.0</ele><time>2026-04-04T11:12:03Z</time></trkpt><trkpt lat="42.216812075936716" lon="14.001047959865838"><ele>540.0</ele><time>2026-04-04T11:12:04Z</time></trkpt><trkpt lat="42.216857175550764" lon="14.0008754749713"><ele>540.0</ele><time>2026-04-04T11:12:05Z</time></trkpt><trkpt lat="42.216901005282296" lon="14.000707863432254"><ele>539.25</ele><time>2026-04-04T11:12:06Z</time></trkpt><trkpt lat="42.21694413099681" lon="14.000539306121777"><ele>538.5</ele><time>2026-04-04T11:12:07Z</time></trkpt><trkpt lat="42.21697700093895" lon="14.000373210070178"><ele>537.75</ele><time>2026-04-04T11:12:08Z</time></trkpt><trkpt lat="42.21701160914078" lon="14.00020884009348"><ele>537.0</ele><time>2026-04-04T11:12:09Z</time></trkpt><trkpt lat="42.21704980779702" lon="14.000051985547827"><ele>537.0</ele><time>2026-04-04T11:12:10Z</time></trkpt><trkpt lat="42.21710024443468" lon="13.999890329509912"><ele>537.0</ele><time>2026-04-04T11:12:11Z</time></trkpt><trkpt lat="42.21715562360298" lon="13.999735015632437"><ele>537.0</ele><time>2026-04-04T11:12:12Z</time></trkpt><trkpt lat="42.21721103499141" lon="13.999576031084201"><ele>537.0</ele><time>2026-04-04T11:12:13Z</time></trkpt><trkpt lat="42.21727100169808" lon="13.99942684674243"><ele>534.75</ele><time>2026-04-04T11:12:14Z</time></trkpt><trkpt lat="42.21734034653281" lon="13.99928740329007"><ele>532.5</ele><time>2026-04-04T11:12:15Z</time></trkpt><trkpt lat="42.21741797672259" lon="13.999166926066993"><ele>530.25</ele><time>2026-04-04T11:12:16.001Z</time></trkpt><trkpt lat="42.21749969762368" lon="13.999051138217308"><ele>528.0</ele><time>2026-04-04T11:12:17.001Z</time></trkpt><trkpt lat="42.21757570400676" lon="13.99893620304933"><ele>528.0</ele><time>2026-04-04T11:12:18.001Z</time></trkpt><trkpt lat="42.21764720374074" lon="13.998825364625697"><ele>528.0</ele><time>2026-04-04T11:12:19.001Z</time></trkpt><trkpt lat="42.217705894445345" lon="13.99872221824217"><ele>528.0</ele><time>2026-04-04T11:12:20.001Z</time></trkpt><trkpt lat="42.21774530537892" lon="13.998625010912296"><ele>528.0</ele><time>2026-04-04T11:12:21.001Z</time></trkpt><trkpt lat="42.21777639172088" lon="13.998531210105217"><ele>528.0</ele><time>2026-04-04T11:12:22.001Z</time></trkpt><trkpt lat="42.2178034713808" lon="13.998416138526213"><ele>528.1999999999999</ele><time>2026-04-04T11:12:23.001Z</time></trkpt><trkpt lat="42.21781706782311" lon="13.99827809919727"><ele>528.4</ele><time>2026-04-04T11:12:24.001Z</time></trkpt><trkpt lat="42.21781519145145" lon="13.998144594867053"><ele>528.5999999999999</ele><time>2026-04-04T11:12:25.001Z</time></trkpt><trkpt lat="42.21780322889704" lon="13.9980204216289"><ele>528.8</ele><time>2026-04-04T11:12:26.001Z</time></trkpt><trkpt lat="42.21778564685811" lon="13.997898656060048"><ele>529.0</ele><time>2026-04-04T11:12:27.001Z</time></trkpt><trkpt lat="42.2177659836059" lon="13.99777775848898"><ele>529.0</ele><time>2026-04-04T11:12:28.001Z</time></trkpt><trkpt lat="42.2177465670262" lon="13.997658363935747"><ele>529.0</ele><time>2026-04-04T11:12:29.001Z</time></trkpt><trkpt lat="42.217721913173776" lon="13.997537875930316"><ele>529.0</ele><time>2026-04-04T11:12:30.001Z</time></trkpt><trkpt lat="42.217688861486764" lon="13.99742154550131"><ele>529.0</ele><time>2026-04-04T11:12:31.001Z</time></trkpt><trkpt lat="42.217652372465075" lon="13.997307122044752"><ele>529.0</ele><time>2026-04-04T11:12:32.001Z</time></trkpt><trkpt lat="42.217618633065904" lon="13.997209629431898"><ele>529.0</ele><time>2026-04-04T11:12:33.001Z</time></trkpt><trkpt lat="42.217605218178655" lon="13.997125310268766"><ele>528.0</ele><time>2026-04-04T11:12:34.001Z</time></trkpt><trkpt lat="42.21747571869738" lon="13.997050233175164"><ele>527.0</ele><time>2026-04-04T11:12:36.001Z</time></trkpt><trkpt lat="42.21741533626492" lon="13.99701641169244"><ele>526.0</ele><time>2026-04-04T11:12:37.001Z</time></trkpt><trkpt lat="42.21732359925713" lon="13.997082174726863"><ele>525.0</ele><time>2026-04-04T11:12:38.001Z</time></trkpt><trkpt lat="42.217225422667944" lon="13.997134602174906"><ele>524.0</ele><time>2026-04-04T11:12:39.001Z</time></trkpt><trkpt lat="42.21710943560971" lon="13.997182941362958"><ele>524.0</ele><time>2026-04-04T11:12:40.001Z</time></trkpt><trkpt lat="42.21698274730498" lon="13.997202358711812"><ele>524.0</ele><time>2026-04-04T11:12:41.001Z</time></trkpt><trkpt lat="42.216850762283485" lon="13.997201408994876"><ele>524.0</ele><time>2026-04-04T11:12:42.001Z</time></trkpt><trkpt lat="42.216704841710026" lon="13.99720073828682"><ele>524.0</ele><time>2026-04-04T11:12:43.001Z</time></trkpt><trkpt lat="42.216548796423204" lon="13.99721162196762"><ele>523.6666666666666</ele><time>2026-04-04T11:12:44.001Z</time></trkpt><trkpt lat="42.21638252873398" lon="13.997229286170004"><ele>523.3333333333334</ele><time>2026-04-04T11:12:45.001Z</time></trkpt><trkpt lat="42.21621374798463" lon="13.997241307867636"><ele>523.0</ele><time>2026-04-04T11:12:46.001Z</time></trkpt><trkpt lat="42.21604228728802" lon="13.997246721253491"><ele>523.0</ele><time>2026-04-04T11:12:47.001Z</time></trkpt><trkpt lat="42.2158638863247" lon="13.997255535489957"><ele>523.0</ele><time>2026-04-04T11:12:48.001Z</time></trkpt><trkpt lat="42.21567472720174" lon="13.997268031603403"><ele>523.0</ele><time>2026-04-04T11:12:49.001Z</time></trkpt><trkpt lat="42.21548170619859" lon="13.997281417936193"><ele>521.6666666666667</ele><time>2026-04-04T11:12:50.001Z</time></trkpt><trkpt lat="42.21528111418801" lon="13.997290822416998"><ele>520.3333333333334</ele><time>2026-04-04T11:12:51.001Z</time></trkpt><trkpt lat="42.215082264782254" lon="13.99729550089936"><ele>519.0</ele><time>2026-04-04T11:12:52.001Z</time></trkpt><trkpt lat="42.214896804900995" lon="13.997294215453554"><ele>518.0</ele><time>2026-04-04T11:12:53.001Z</time></trkpt><trkpt lat="42.21471827893071" lon="13.997290624106505"><ele>517.0</ele><time>2026-04-04T11:12:54.001Z</time></trkpt><trkpt lat="42.21454190314553" lon="13.997281401358414"><ele>516.0</ele><time>2026-04-04T11:12:55.001Z</time></trkpt><trkpt lat="42.21436260947699" lon="13.997268545512819"><ele>516.0</ele><time>2026-04-04T11:12:56.001Z</time></trkpt><trkpt lat="42.21418157812388" lon="13.997261022648727"><ele>516.0</ele><time>2026-04-04T11:12:57Z</time></trkpt><trkpt lat="42.21400443506295" lon="13.997251034628382"><ele>516.0</ele><time>2026-04-04T11:12:58Z</time></trkpt><trkpt lat="42.2138352915775" lon="13.99724020407108"><ele>516.3333333333334</ele><time>2026-04-04T11:12:59Z</time></trkpt><trkpt lat="42.213669154474125" lon="13.99723110141766"><ele>516.6666666666667</ele><time>2026-04-04T11:13:00Z</time></trkpt><trkpt lat="42.21350728818771" lon="13.997233057323973"><ele>517.0</ele><time>2026-04-04T11:13:01Z</time></trkpt><trkpt lat="42.21334742758717" lon="13.997239732340427"><ele>517.0</ele><time>2026-04-04T11:13:02Z</time></trkpt><trkpt lat="42.213194637778955" lon="13.99725585464457"><ele>517.0</ele><time>2026-04-04T11:13:03Z</time></trkpt><trkpt lat="42.21303985951844" lon="13.997282885857585"><ele>517.0</ele><time>2026-04-04T11:13:04Z</time></trkpt><trkpt lat="42.21289305203395" lon="13.997356552574646"><ele>517.75</ele><time>2026-04-04T11:13:05Z</time></trkpt><trkpt lat="42.21275459559988" lon="13.997444218854191"><ele>518.5</ele><time>2026-04-04T11:13:06Z</time></trkpt><trkpt lat="42.21262121891619" lon="13.997519422228933"><ele>519.25</ele><time>2026-04-04T11:13:07Z</time></trkpt><trkpt lat="42.212497029790995" lon="13.9975526141596"><ele>520.0</ele><time>2026-04-04T11:13:08Z</time></trkpt><trkpt lat="42.212363283438016" lon="13.997554731047895"><ele>519.0</ele><time>2026-04-04T11:13:09Z</time></trkpt><trkpt lat="42.21222801493669" lon="13.997506627691964"><ele>518.0</ele><time>2026-04-04T11:13:10Z</time></trkpt><trkpt lat="42.21209948636234" lon="13.997414767253183"><ele>517.0</ele><time>2026-04-04T11:13:11Z</time></trkpt><trkpt lat="42.21197424715419" lon="13.997280113023086"><ele>516.0</ele><time>2026-04-04T11:13:12Z</time></trkpt><trkpt lat="42.21184983545384" lon="13.99711578701633"><ele>514.0</ele><time>2026-04-04T11:13:13Z</time></trkpt><trkpt lat="42.21174319341138" lon="13.996951534768993"><ele>512.0</ele><time>2026-04-04T11:13:14Z</time></trkpt><trkpt lat="42.211667129806635" lon="13.996792841804066"><ele>510.0</ele><time>2026-04-04T11:13:15Z</time></trkpt><trkpt lat="42.21162343391348" lon="13.996640886457275"><ele>508.0</ele><time>2026-04-04T11:13:16Z</time></trkpt><trkpt lat="42.21160258997398" lon="13.996460144632172"><ele>508.0</ele><time>2026-04-04T11:13:17Z</time></trkpt><trkpt lat="42.211597486096515" lon="13.996267030100535"><ele>508.0</ele><time>2026-04-04T11:13:18Z</time></trkpt><trkpt lat="42.211642165659576" lon="13.996052283316011"><ele>508.0</ele><time>2026-04-04T11:13:19Z</time></trkpt><trkpt lat="42.211680220595866" lon="13.995830573316296"><ele>509.33333333333337</ele><time>2026-04-04T11:13:20Z</time></trkpt><trkpt lat="42.21171556164945" lon="13.995603331366677"><ele>510.66666666666663</ele><time>2026-04-04T11:13:21Z</time></trkpt><trkpt lat="42.21174722116797" lon="13.995370396655744"><ele>512.0</ele><time>2026-04-04T11:13:22Z</time></trkpt><trkpt lat="42.21177711908788" lon="13.995136400842439"><ele>511.66666666666663</ele><time>2026-04-04T11:13:23Z</time></trkpt><trkpt lat="42.21182089332185" lon="13.994908604615254"><ele>511.33333333333337</ele><time>2026-04-04T11:13:24Z</time></trkpt><trkpt lat="42.211850995190574" lon="13.994676390179414"><ele>511.0</ele><time>2026-04-04T11:13:25Z</time></trkpt><trkpt lat="42.21188204966171" lon="13.994436827097832"><ele>511.0</ele><time>2026-04-04T11:13:26Z</time></trkpt><trkpt lat="42.21191382231145" lon="13.994191723836089"><ele>511.0</ele><time>2026-04-04T11:13:27Z</time></trkpt><trkpt lat="42.21194867564629" lon="13.993948201379284"><ele>511.0</ele><time>2026-04-04T11:13:28Z</time></trkpt><trkpt lat="42.21198811217943" lon="13.993721798464374"><ele>511.33333333333337</ele><time>2026-04-04T11:13:29Z</time></trkpt><trkpt lat="42.21204826676581" lon="13.993518852378752"><ele>511.66666666666663</ele><time>2026-04-04T11:13:30Z</time></trkpt><trkpt lat="42.21212700414776" lon="13.993325145801244"><ele>512.0</ele><time>2026-04-04T11:13:31Z</time></trkpt><trkpt lat="42.21222605357135" lon="13.993134633684564"><ele>510.3333333333333</ele><time>2026-04-04T11:13:32Z</time></trkpt><trkpt lat="42.21234162782895" lon="13.992961197484728"><ele>508.66666666666663</ele><time>2026-04-04T11:13:33Z</time></trkpt><trkpt lat="42.212472171742824" lon="13.992792920984733"><ele>507.0</ele><time>2026-04-04T11:13:34Z</time></trkpt><trkpt lat="42.212590933637" lon="13.992607740820123"><ele>509.0</ele><time>2026-04-04T11:13:35Z</time></trkpt><trkpt lat="42.2127127281847" lon="13.992468709885584"><ele>511.0</ele><time>2026-04-04T11:13:36Z</time></trkpt><trkpt lat="42.21282546870745" lon="13.992330037108225"><ele>513.0</ele><time>2026-04-04T11:13:37Z</time></trkpt><trkpt lat="42.212925612519165" lon="13.992187143623209"><ele>513.0</ele><time>2026-04-04T11:13:38Z</time></trkpt><trkpt lat="42.21302316528939" lon="13.992037176256197"><ele>513.0</ele><time>2026-04-04T11:13:39Z</time></trkpt><trkpt lat="42.21308304616618" lon="13.991838589702258"><ele>513.0</ele><time>2026-04-04T11:13:40Z</time></trkpt><trkpt lat="42.21312977324161" lon="13.99162897407254"><ele>515.3333333333334</ele><time>2026-04-04T11:13:41Z</time></trkpt><trkpt lat="42.21315531199446" lon="13.991415122066208"><ele>517.6666666666667</ele><time>2026-04-04T11:13:42Z</time></trkpt><trkpt lat="42.2131557731354" lon="13.991206965171196"><ele>520.0</ele><time>2026-04-04T11:13:43Z</time></trkpt><trkpt lat="42.2131275565778" lon="13.990995721624357"><ele>521.0</ele><time>2026-04-04T11:13:44Z</time></trkpt><trkpt lat="42.21307756574019" lon="13.990781385015389"><ele>522.0</ele><time>2026-04-04T11:13:45Z</time></trkpt><trkpt lat="42.21301162007701" lon="13.990570294584751"><ele>523.0</ele><time>2026-04-04T11:13:46Z</time></trkpt><trkpt lat="42.21293233581824" lon="13.990362894713874"><ele>523.0</ele><time>2026-04-04T11:13:47Z</time></trkpt><trkpt lat="42.212838376218734" lon="13.990160846483008"><ele>523.0</ele><time>2026-04-04T11:13:48Z</time></trkpt><trkpt lat="42.21275811945701" lon="13.989943513835765"><ele>523.0</ele><time>2026-04-04T11:13:49Z</time></trkpt><trkpt lat="42.21266876448351" lon="13.989728240602306"><ele>522.6666666666667</ele><time>2026-04-04T11:13:50Z</time></trkpt><trkpt lat="42.21257960494656" lon="13.989511348082669"><ele>522.3333333333334</ele><time>2026-04-04T11:13:51Z</time></trkpt><trkpt lat="42.21248240771167" lon="13.98930690528017"><ele>522.0</ele><time>2026-04-04T11:13:52Z</time></trkpt><trkpt lat="42.21240687715326" lon="13.989117183115964"><ele>520.6666666666666</ele><time>2026-04-04T11:13:53Z</time></trkpt><trkpt lat="42.21233186778342" lon="13.98893056816705"><ele>519.3333333333333</ele><time>2026-04-04T11:13:54Z</time></trkpt><trkpt lat="42.21225730746523" lon="13.988754298530234"><ele>518.0</ele><time>2026-04-04T11:13:55Z</time></trkpt><trkpt lat="42.21217361933198" lon="13.988589257440454"><ele>519.3333333333333</ele><time>2026-04-04T11:13:56Z</time></trkpt><trkpt lat="42.21205981030834" lon="13.988454494130604"><ele>520.6666666666666</ele><time>2026-04-04T11:13:57Z</time></trkpt><trkpt lat="42.21191915479409" lon="13.988349195300502"><ele>522.0</ele><time>2026-04-04T11:13:58Z</time></trkpt><trkpt lat="42.211753735122535" lon="13.988272693092185"><ele>522.0</ele><time>2026-04-04T11:13:59Z</time></trkpt><trkpt lat="42.21158249364169" lon="13.98820617084456"><ele>522.0</ele><time>2026-04-04T11:14:00Z</time></trkpt><trkpt lat="42.21140836467252" lon="13.98814273135293"><ele>522.0</ele><time>2026-04-04T11:14:01Z</time></trkpt><trkpt lat="42.21122849000909" lon="13.988078237077746"><ele>523.6666666666666</ele><time>2026-04-04T11:14:02Z</time></trkpt><trkpt lat="42.211055053191444" lon="13.98800942526224"><ele>525.3333333333333</ele><time>2026-04-04T11:14:03Z</time></trkpt><trkpt lat="42.21089350130128" lon="13.987943387787757"><ele>527.0</ele><time>2026-04-04T11:14:04Z</time></trkpt><trkpt lat="42.21073310457677" lon="13.987872762006885"><ele>530.3333333333333</ele><time>2026-04-04T11:14:05Z</time></trkpt><trkpt lat="42.210574727801294" lon="13.987804334891317"><ele>533.6666666666666</ele><time>2026-04-04T11:14:06Z</time></trkpt><trkpt lat="42.210423691467476" lon="13.987746232393416"><ele>537.0</ele><time>2026-04-04T11:14:07Z</time></trkpt><trkpt lat="42.210276892211894" lon="13.987698354684317"><ele>537.0</ele><time>2026-04-04T11:14:08Z</time></trkpt><trkpt lat="42.210132030467484" lon="13.987656788998263"><ele>537.0</ele><time>2026-04-04T11:14:09Z</time></trkpt><trkpt lat="42.209975360350086" lon="13.98763277651175"><ele>537.0</ele><time>2026-04-04T11:14:10Z</time></trkpt><trkpt lat="42.20981235358288" lon="13.987638150957153"><ele>536.3333333333334</ele><time>2026-04-04T11:14:11Z</time></trkpt><trkpt lat="42.20964726798372" lon="13.987653763297297"><ele>535.6666666666667</ele><time>2026-04-04T11:14:12Z</time></trkpt><trkpt lat="42.209476415789666" lon="13.98767412364228"><ele>535.0</ele><time>2026-04-04T11:14:13Z</time></trkpt><trkpt lat="42.20931389096289" lon="13.987692453560237"><ele>535.0</ele><time>2026-04-04T11:14:14Z</time></trkpt><trkpt lat="42.209159982632904" lon="13.987715786296597"><ele>535.0</ele><time>2026-04-04T11:14:15Z</time></trkpt><trkpt lat="42.209003488450946" lon="13.987757155580203"><ele>535.0</ele><time>2026-04-04T11:14:16Z</time></trkpt><trkpt lat="42.208849863865915" lon="13.987835126441148"><ele>532.0</ele><time>2026-04-04T11:14:17Z</time></trkpt><trkpt lat="42.20870551905153" lon="13.987945414985488"><ele>529.0</ele><time>2026-04-04T11:14:18Z</time></trkpt><trkpt lat="42.208565643682235" lon="13.988071836090612"><ele>526.0</ele><time>2026-04-04T11:14:19Z</time></trkpt><trkpt lat="42.20842165935313" lon="13.988192990897128"><ele>526.0</ele><time>2026-04-04T11:14:20Z</time></trkpt><trkpt lat="42.20827273900246" lon="13.988309158482515"><ele>526.0</ele><time>2026-04-04T11:14:21Z</time></trkpt><trkpt lat="42.208132452895896" lon="13.988415027238808"><ele>526.0</ele><time>2026-04-04T11:14:22.001Z</time></trkpt><trkpt lat="42.20800204761122" lon="13.988521187104835"><ele>529.75</ele><time>2026-04-04T11:14:23.001Z</time></trkpt><trkpt lat="42.20787204979367" lon="13.988624229997066"><ele>533.5</ele><time>2026-04-04T11:14:24.001Z</time></trkpt><trkpt lat="42.207748325695505" lon="13.988718537707303"><ele>537.25</ele><time>2026-04-04T11:14:25.001Z</time></trkpt><trkpt lat="42.20762691638374" lon="13.988809376742122"><ele>541.0</ele><time>2026-04-04T11:14:26.001Z</time></trkpt><trkpt lat="42.20750229040382" lon="13.988909291732801"><ele>541.0</ele><time>2026-04-04T11:14:27.001Z</time></trkpt><trkpt lat="42.20737152327602" lon="13.989015408167733"><ele>541.0</ele><time>2026-04-04T11:14:28.001Z</time></trkpt><trkpt lat="42.20722979683141" lon="13.989106531274974"><ele>541.0</ele><time>2026-04-04T11:14:29.001Z</time></trkpt><trkpt lat="42.20709326211053" lon="13.989215474489558"><ele>543.5</ele><time>2026-04-04T11:14:30.001Z</time></trkpt><trkpt lat="42.206972156555715" lon="13.98934205269974"><ele>546.0</ele><time>2026-04-04T11:14:31.001Z</time></trkpt><trkpt lat="42.20685007982667" lon="13.989437188520915"><ele>548.5</ele><time>2026-04-04T11:14:32.001Z</time></trkpt><trkpt lat="42.2067177784593" lon="13.989494431228055"><ele>551.0</ele><time>2026-04-04T11:14:33.001Z</time></trkpt><trkpt lat="42.20657921765699" lon="13.98956152832569"><ele>551.0</ele><time>2026-04-04T11:14:34.001Z</time></trkpt><trkpt lat="42.20642021747254" lon="13.989543498641927"><ele>551.0</ele><time>2026-04-04T11:14:35.001Z</time></trkpt><trkpt lat="42.20625920534193" lon="13.989518905634624"><ele>551.0</ele><time>2026-04-04T11:14:36.001Z</time></trkpt><trkpt lat="42.20609160870957" lon="13.989509698880717"><ele>551.0</ele><time>2026-04-04T11:14:37.001Z</time></trkpt><trkpt lat="42.205923590202566" lon="13.989454145398701"><ele>551.0</ele><time>2026-04-04T11:14:38.001Z</time></trkpt><trkpt lat="42.20575945353082" lon="13.989394931218616"><ele>551.0</ele><time>2026-04-04T11:14:39.001Z</time></trkpt><trkpt lat="42.205586743979374" lon="13.98934418828598"><ele>552.0</ele><time>2026-04-04T11:14:40.001Z</time></trkpt><trkpt lat="42.205411576488956" lon="13.989302545930064"><ele>553.0</ele><time>2026-04-04T11:14:41.001Z</time></trkpt><trkpt lat="42.20523868047471" lon="13.989232494473587"><ele>554.0</ele><time>2026-04-04T11:14:42.001Z</time></trkpt><trkpt lat="42.20506928208294" lon="13.989207823733524"><ele>553.6666666666666</ele><time>2026-04-04T11:14:43.001Z</time></trkpt><trkpt lat="42.204911181810324" lon="13.9891538456857"><ele>553.3333333333334</ele><time>2026-04-04T11:14:44.001Z</time></trkpt><trkpt lat="42.204749951887386" lon="13.989104547420737"><ele>553.0</ele><time>2026-04-04T11:14:45.001Z</time></trkpt><trkpt lat="42.204593693152084" lon="13.989059787326815"><ele>553.0</ele><time>2026-04-04T11:14:46.001Z</time></trkpt><trkpt lat="42.20444296276538" lon="13.989018249362712"><ele>553.0</ele><time>2026-04-04T11:14:47.001Z</time></trkpt><trkpt lat="42.20430669853382" lon="13.988973255169396"><ele>553.0</ele><time>2026-04-04T11:14:48.001Z</time></trkpt><trkpt lat="42.20417047090593" lon="13.988937762308263"><ele>553.0</ele><time>2026-04-04T11:14:49.001Z</time></trkpt><trkpt lat="42.204042551200786" lon="13.988906268168785"><ele>555.0</ele><time>2026-04-04T11:14:50.001Z</time></trkpt><trkpt lat="42.20392461577521" lon="13.988871919079525"><ele>557.0</ele><time>2026-04-04T11:14:51.001Z</time></trkpt><trkpt lat="42.203812193915844" lon="13.988841641666069"><ele>559.0</ele><time>2026-04-04T11:14:52.001Z</time></trkpt><trkpt lat="42.203709571452706" lon="13.988817582616347"><ele>561.0</ele><time>2026-04-04T11:14:53.001Z</time></trkpt><trkpt lat="42.20361365432842" lon="13.988794379595776"><ele>563.0</ele><time>2026-04-04T11:14:54.001Z</time></trkpt><trkpt lat="42.20352686079938" lon="13.988783641389706"><ele>563.0</ele><time>2026-04-04T11:14:55.001Z</time></trkpt><trkpt lat="42.20344392681788" lon="13.98878107521955"><ele>563.0</ele><time>2026-04-04T11:14:56.001Z</time></trkpt><trkpt lat="42.2033689296096" lon="13.988785979569084"><ele>563.0</ele><time>2026-04-04T11:14:57.001Z</time></trkpt><trkpt lat="42.20329735957571" lon="13.988783475687605"><ele>563.0</ele><time>2026-04-04T11:14:58.001Z</time></trkpt><trkpt lat="42.203160230138415" lon="13.988811378620369"><ele>563.0</ele><time>2026-04-04T11:15:00.001Z</time></trkpt><trkpt lat="42.2030559599956" lon="13.988835437291726"><ele>563.25</ele><time>2026-04-04T11:15:01.001Z</time></trkpt><trkpt lat="42.202952488863986" lon="13.988863736050376"><ele>563.5</ele><time>2026-04-04T11:15:02.001Z</time></trkpt><trkpt lat="42.202843482297524" lon="13.98888869040391"><ele>563.75</ele><time>2026-04-04T11:15:03.001Z</time></trkpt><trkpt lat="42.20272529691925" lon="13.988914404724582"><ele>564.0</ele><time>2026-04-04T11:15:04.001Z</time></trkpt><trkpt lat="42.20260511933748" lon="13.988943683970948"><ele>564.0</ele><time>2026-04-04T11:15:05.001Z</time></trkpt><trkpt lat="42.20247133923476" lon="13.988975837172324"><ele>564.0</ele><time>2026-04-04T11:15:06.001Z</time></trkpt><trkpt lat="42.20234250547777" lon="13.989017199922266"><ele>564.0</ele><time>2026-04-04T11:15:07.001Z</time></trkpt><trkpt lat="42.20220694881658" lon="13.989082182366019"><ele>564.0</ele><time>2026-04-04T11:15:08.001Z</time></trkpt><trkpt lat="42.20207098815184" lon="13.98918656471006"><ele>567.3333333333334</ele><time>2026-04-04T11:15:09.001Z</time></trkpt><trkpt lat="42.20193806155059" lon="13.98931062242345"><ele>570.6666666666667</ele><time>2026-04-04T11:15:10.001Z</time></trkpt><trkpt lat="42.201812198565925" lon="13.989437106007431"><ele>574.0</ele><time>2026-04-04T11:15:11.001Z</time></trkpt><trkpt lat="42.20169009651495" lon="13.98956030747617"><ele>574.0</ele><time>2026-04-04T11:15:12.001Z</time></trkpt><trkpt lat="42.20156179202156" lon="13.989687668955275"><ele>574.0</ele><time>2026-04-04T11:15:13.001Z</time></trkpt><trkpt lat="42.20143476909355" lon="13.989809279766868"><ele>574.0</ele><time>2026-04-04T11:15:14.001Z</time></trkpt><trkpt lat="42.20132107814173" lon="13.989926429504697"><ele>575.5</ele><time>2026-04-04T11:15:15.001Z</time></trkpt><trkpt lat="42.2012179843561" lon="13.990030389609544"><ele>577.0</ele><time>2026-04-04T11:15:16Z</time></trkpt><trkpt lat="42.201110254212765" lon="13.990115504763974"><ele>578.5</ele><time>2026-04-04T11:15:17Z</time></trkpt><trkpt lat="42.20099476755837" lon="13.99016117915363"><ele>580.0</ele><time>2026-04-04T11:15:18Z</time></trkpt><trkpt lat="42.20087385041627" lon="13.990135002166346"><ele>580.0</ele><time>2026-04-04T11:15:19Z</time></trkpt><trkpt lat="42.200764378053435" lon="13.990054363147374"><ele>580.0</ele><time>2026-04-04T11:15:20Z</time></trkpt><trkpt lat="42.200650043604774" lon="13.989935387854523"><ele>580.0</ele><time>2026-04-04T11:15:21Z</time></trkpt><trkpt lat="42.20053459631148" lon="13.98979906395697"><ele>580.0</ele><time>2026-04-04T11:15:22Z</time></trkpt><trkpt lat="42.200408995040426" lon="13.989653589052248"><ele>578.3333333333334</ele><time>2026-04-04T11:15:23Z</time></trkpt><trkpt lat="42.20028033988442" lon="13.989496253272655"><ele>576.6666666666666</ele><time>2026-04-04T11:15:24Z</time></trkpt><trkpt lat="42.20014881739174" lon="13.989336770230143"><ele>575.0</ele><time>2026-04-04T11:15:25Z</time></trkpt><trkpt lat="42.20001927988799" lon="13.989177119220068"><ele>573.3333333333333</ele><time>2026-04-04T11:15:26Z</time></trkpt><trkpt lat="42.1998936671677" lon="13.989030881516362"><ele>571.6666666666666</ele><time>2026-04-04T11:15:27Z</time></trkpt><trkpt lat="42.19977642872701" lon="13.98887915679082"><ele>570.0</ele><time>2026-04-04T11:15:28Z</time></trkpt><trkpt lat="42.1996596590251" lon="13.98872523169654"><ele>573.0</ele><time>2026-04-04T11:15:29Z</time></trkpt><trkpt lat="42.19953798160578" lon="13.988572757195607"><ele>576.0</ele><time>2026-04-04T11:15:30Z</time></trkpt><trkpt lat="42.19942201190387" lon="13.988434697137711"><ele>579.0</ele><time>2026-04-04T11:15:31Z</time></trkpt><trkpt lat="42.19930515224048" lon="13.988306457042679"><ele>579.0</ele><time>2026-04-04T11:15:32Z</time></trkpt><trkpt lat="42.19916825602993" lon="13.988186585795148"><ele>579.0</ele><time>2026-04-04T11:15:33Z</time></trkpt><trkpt lat="42.19901649875432" lon="13.988085952113133"><ele>579.0</ele><time>2026-04-04T11:15:34Z</time></trkpt><trkpt lat="42.19885733315643" lon="13.987994080524322"><ele>581.0</ele><time>2026-04-04T11:15:35Z</time></trkpt><trkpt lat="42.19870147942364" lon="13.987876024633668"><ele>583.0</ele><time>2026-04-04T11:15:36Z</time></trkpt><trkpt lat="42.1985318386373" lon="13.987793319269011"><ele>585.0</ele><time>2026-04-04T11:15:37Z</time></trkpt><trkpt lat="42.19836740356717" lon="13.987677871503664"><ele>585.0</ele><time>2026-04-04T11:15:38Z</time></trkpt><trkpt lat="42.19819690246923" lon="13.987569743685578"><ele>585.0</ele><time>2026-04-04T11:15:39Z</time></trkpt><trkpt lat="42.19802325705401" lon="13.987467261144511"><ele>585.0</ele><time>2026-04-04T11:15:40Z</time></trkpt><trkpt lat="42.19785966300068" lon="13.987368223265845"><ele>583.6666666666666</ele><time>2026-04-04T11:15:41Z</time></trkpt><trkpt lat="42.19770754613886" lon="13.98727739455488"><ele>582.3333333333333</ele><time>2026-04-04T11:15:42Z</time></trkpt><trkpt lat="42.197561367139926" lon="13.987195198565205"><ele>581.0</ele><time>2026-04-04T11:15:43Z</time></trkpt><trkpt lat="42.19741179797401" lon="13.987131333700532"><ele>581.6666666666666</ele><time>2026-04-04T11:15:44Z</time></trkpt><trkpt lat="42.19724862792705" lon="13.98710173658626"><ele>582.3333333333334</ele><time>2026-04-04T11:15:45Z</time></trkpt><trkpt lat="42.19707816965224" lon="13.9871107140278"><ele>583.0</ele><time>2026-04-04T11:15:46Z</time></trkpt><trkpt lat="42.19690069704959" lon="13.987149617726255"><ele>583.0</ele><time>2026-04-04T11:15:47Z</time></trkpt><trkpt lat="42.196725186885416" lon="13.987209029021843"><ele>583.0</ele><time>2026-04-04T11:15:48Z</time></trkpt><trkpt lat="42.19655457561423" lon="13.987236972962522"><ele>583.0</ele><time>2026-04-04T11:15:49Z</time></trkpt><trkpt lat="42.19641045438588" lon="13.987277467761173"><ele>584.25</ele><time>2026-04-04T11:15:50Z</time></trkpt><trkpt lat="42.196269672190105" lon="13.987308609914257"><ele>585.5</ele><time>2026-04-04T11:15:51Z</time></trkpt><trkpt lat="42.196144310705556" lon="13.987332468250099"><ele>586.75</ele><time>2026-04-04T11:15:52Z</time></trkpt><trkpt lat="42.19602310162381" lon="13.987249041774442"><ele>588.0</ele><time>2026-04-04T11:15:53Z</time></trkpt><trkpt lat="42.19591408919496" lon="13.987138376917994"><ele>588.0</ele><time>2026-04-04T11:15:54Z</time></trkpt><trkpt lat="42.195827030708614" lon="13.987008372871395"><ele>588.0</ele><time>2026-04-04T11:15:55Z</time></trkpt><trkpt lat="42.19574523915492" lon="13.986826025332187"><ele>588.0</ele><time>2026-04-04T11:15:56Z</time></trkpt><trkpt lat="42.19564348943334" lon="13.986645829481448"><ele>591.6666666666666</ele><time>2026-04-04T11:15:57Z</time></trkpt><trkpt lat="42.195574515837144" lon="13.986428733838377"><ele>595.3333333333333</ele><time>2026-04-04T11:15:58Z</time></trkpt><trkpt lat="42.195488349011534" lon="13.986209281126285"><ele>599.0</ele><time>2026-04-04T11:15:59Z</time></trkpt><trkpt lat="42.19539941965503" lon="13.98598418378852"><ele>596.6666666666666</ele><time>2026-04-04T11:16:00Z</time></trkpt><trkpt lat="42.19531612271154" lon="13.985769081894688"><ele>594.3333333333334</ele><time>2026-04-04T11:16:01Z</time></trkpt><trkpt lat="42.195234078811644" lon="13.985574747356475"><ele>592.0</ele><time>2026-04-04T11:16:02Z</time></trkpt><trkpt lat="42.19513819290579" lon="13.985397413892136"><ele>592.0</ele><time>2026-04-04T11:16:03Z</time></trkpt><trkpt lat="42.19502759723813" lon="13.985248019389381"><ele>592.0</ele><time>2026-04-04T11:16:04Z</time></trkpt><trkpt lat="42.1948927684321" lon="13.985130635284541"><ele>592.0</ele><time>2026-04-04T11:16:05Z</time></trkpt><trkpt lat="42.1947433638274" lon="13.98503091691483"><ele>591.3333333333334</ele><time>2026-04-04T11:16:06Z</time></trkpt><trkpt lat="42.19457769572123" lon="13.98495458982102"><ele>590.6666666666666</ele><time>2026-04-04T11:16:07Z</time></trkpt><trkpt lat="42.194398589226" lon="13.984904857244802"><ele>590.0</ele><time>2026-04-04T11:16:08Z</time></trkpt><trkpt lat="42.19421184662361" lon="13.984893217537927"><ele>590.0</ele><time>2026-04-04T11:16:09Z</time></trkpt><trkpt lat="42.19401837564019" lon="13.9848979982276"><ele>590.0</ele><time>2026-04-04T11:16:10Z</time></trkpt><trkpt lat="42.19383629708711" lon="13.984912381394993"><ele>590.0</ele><time>2026-04-04T11:16:11Z</time></trkpt><trkpt lat="42.19366611905923" lon="13.984910356668124"><ele>591.0</ele><time>2026-04-04T11:16:12Z</time></trkpt><trkpt lat="42.19350802977475" lon="13.98490014293185"><ele>592.0</ele><time>2026-04-04T11:16:13Z</time></trkpt><trkpt lat="42.19337184488383" lon="13.984868661666749"><ele>593.0</ele><time>2026-04-04T11:16:14Z</time></trkpt><trkpt lat="42.19327433015995" lon="13.984783133018514"><ele>594.0</ele><time>2026-04-04T11:16:15Z</time></trkpt><trkpt lat="42.1931637341126" lon="13.984712663241657"><ele>594.0</ele><time>2026-04-04T11:16:16Z</time></trkpt><trkpt lat="42.1930832016078" lon="13.984581549758515"><ele>594.0</ele><time>2026-04-04T11:16:17Z</time></trkpt><trkpt lat="42.193054064619986" lon="13.984392444230863"><ele>594.0</ele><time>2026-04-04T11:16:18Z</time></trkpt><trkpt lat="42.19299004505942" lon="13.98421561639611"><ele>594.0</ele><time>2026-04-04T11:16:19Z</time></trkpt><trkpt lat="42.19291599760925" lon="13.984037844349325"><ele>591.6666666666666</ele><time>2026-04-04T11:16:20Z</time></trkpt><trkpt lat="42.192846148132254" lon="13.98384156139833"><ele>589.3333333333333</ele><time>2026-04-04T11:16:21Z</time></trkpt><trkpt lat="42.19276992529205" lon="13.983643824243515"><ele>587.0</ele><time>2026-04-04T11:16:22Z</time></trkpt><trkpt lat="42.19269070407032" lon="13.983443883679461"><ele>590.0</ele><time>2026-04-04T11:16:23Z</time></trkpt><trkpt lat="42.1926222276234" lon="13.983227564497119"><ele>593.0</ele><time>2026-04-04T11:16:24Z</time></trkpt><trkpt lat="42.1925531236943" lon="13.98301077791169"><ele>596.0</ele><time>2026-04-04T11:16:25Z</time></trkpt><trkpt lat="42.192478497594095" lon="13.982796856660793"><ele>596.0</ele><time>2026-04-04T11:16:26Z</time></trkpt><trkpt lat="42.19239902129074" lon="13.98258285374736"><ele>596.0</ele><time>2026-04-04T11:16:27Z</time></trkpt><trkpt lat="42.19232094067619" lon="13.98237049329192"><ele>596.0</ele><time>2026-04-04T11:16:28.001Z</time></trkpt><trkpt lat="42.19223351503897" lon="13.982168679619136"><ele>596.0</ele><time>2026-04-04T11:16:29.001Z</time></trkpt><trkpt lat="42.19213665765935" lon="13.98198359707341"><ele>596.0</ele><time>2026-04-04T11:16:30.001Z</time></trkpt><trkpt lat="42.19202435542356" lon="13.98181679558965"><ele>596.0</ele><time>2026-04-04T11:16:31.001Z</time></trkpt><trkpt lat="42.19188988009188" lon="13.981668829259107"><ele>594.0</ele><time>2026-04-04T11:16:32.001Z</time></trkpt><trkpt lat="42.19174705502139" lon="13.981526056318996"><ele>592.0</ele><time>2026-04-04T11:16:33.001Z</time></trkpt><trkpt lat="42.191590334115915" lon="13.981409889549912"><ele>590.0</ele><time>2026-04-04T11:16:34.001Z</time></trkpt><trkpt lat="42.1914413278231" lon="13.98127886348997"><ele>594.3333333333333</ele><time>2026-04-04T11:16:35.001Z</time></trkpt><trkpt lat="42.19129465010302" lon="13.981140762375059"><ele>598.6666666666666</ele><time>2026-04-04T11:16:36.001Z</time></trkpt><trkpt lat="42.19115078232669" lon="13.980999857385083"><ele>603.0</ele><time>2026-04-04T11:16:37.001Z</time></trkpt><trkpt lat="42.191003973483966" lon="13.980861275601223"><ele>602.0</ele><time>2026-04-04T11:16:38.001Z</time></trkpt><trkpt lat="42.19085416802226" lon="13.980726036666507"><ele>601.0</ele><time>2026-04-04T11:16:39.001Z</time></trkpt><trkpt lat="42.190703616317975" lon="13.980595033233811"><ele>600.0</ele><time>2026-04-04T11:16:40.001Z</time></trkpt><trkpt lat="42.190552941447386" lon="13.980463180146964"><ele>600.0</ele><time>2026-04-04T11:16:41.001Z</time></trkpt><trkpt lat="42.19040774491523" lon="13.9803262845158"><ele>600.0</ele><time>2026-04-04T11:16:42.001Z</time></trkpt><trkpt lat="42.190275801194296" lon="13.980205206192661"><ele>600.0</ele><time>2026-04-04T11:16:43.001Z</time></trkpt><trkpt lat="42.19014389703079" lon="13.980089566278199"><ele>597.6666666666666</ele><time>2026-04-04T11:16:44.001Z</time></trkpt><trkpt lat="42.19000816676914" lon="13.97999032627382"><ele>595.3333333333333</ele><time>2026-04-04T11:16:45.001Z</time></trkpt><trkpt lat="42.189855200487656" lon="13.979909992734823"><ele>593.0</ele><time>2026-04-04T11:16:46.001Z</time></trkpt><trkpt lat="42.18968444263986" lon="13.979859574933666"><ele>593.0</ele><time>2026-04-04T11:16:47.001Z</time></trkpt><trkpt lat="42.18950802571762" lon="13.97984829275712"><ele>593.0</ele><time>2026-04-04T11:16:48.001Z</time></trkpt><trkpt lat="42.18932600325977" lon="13.979861956311646"><ele>593.0</ele><time>2026-04-04T11:16:49.001Z</time></trkpt><trkpt lat="42.189136986407576" lon="13.97986879135676"><ele>592.6666666666666</ele><time>2026-04-04T11:16:50.001Z</time></trkpt><trkpt lat="42.188951697449816" lon="13.979882618909734"><ele>592.3333333333334</ele><time>2026-04-04T11:16:51.001Z</time></trkpt><trkpt lat="42.18875843244963" lon="13.979893067645369"><ele>592.0</ele><time>2026-04-04T11:16:52.001Z</time></trkpt><trkpt lat="42.18856688016546" lon="13.979900114070135"><ele>592.0</ele><time>2026-04-04T11:16:53.001Z</time></trkpt><trkpt lat="42.188367281975225" lon="13.97991426302246"><ele>592.0</ele><time>2026-04-04T11:16:54.001Z</time></trkpt><trkpt lat="42.18817125723184" lon="13.979929322686996"><ele>592.0</ele><time>2026-04-04T11:16:55.001Z</time></trkpt><trkpt lat="42.187983227088985" lon="13.979946954283541"><ele>591.0</ele><time>2026-04-04T11:16:56.001Z</time></trkpt><trkpt lat="42.18780297543031" lon="13.979967614703593"><ele>590.0</ele><time>2026-04-04T11:16:57.001Z</time></trkpt><trkpt lat="42.18761892388369" lon="13.979985458498676"><ele>589.0</ele><time>2026-04-04T11:16:58.001Z</time></trkpt><trkpt lat="42.187433430767555" lon="13.979999697597492"><ele>587.0</ele><time>2026-04-04T11:16:59.001Z</time></trkpt><trkpt lat="42.187248164596824" lon="13.980015510786915"><ele>585.0</ele><time>2026-04-04T11:17:00.001Z</time></trkpt><trkpt lat="42.18706289734453" lon="13.980034875517637"><ele>583.0</ele><time>2026-04-04T11:17:01.001Z</time></trkpt><trkpt lat="42.18688279540693" lon="13.980048955177635"><ele>586.6666666666667</ele><time>2026-04-04T11:17:02.001Z</time></trkpt><trkpt lat="42.186700299883135" lon="13.980061184691882"><ele>590.3333333333334</ele><time>2026-04-04T11:17:03.001Z</time></trkpt><trkpt lat="42.186524843201596" lon="13.980073120697233"><ele>594.0</ele><time>2026-04-04T11:17:04.001Z</time></trkpt><trkpt lat="42.186346835502846" lon="13.98008734563455"><ele>594.0</ele><time>2026-04-04T11:17:05.001Z</time></trkpt><trkpt lat="42.186174558581094" lon="13.98010184126537"><ele>594.0</ele><time>2026-04-04T11:17:06.001Z</time></trkpt><trkpt lat="42.18600727672974" lon="13.980112238780748"><ele>594.0</ele><time>2026-04-04T11:17:07.001Z</time></trkpt><trkpt lat="42.18583743298036" lon="13.98011652184582"><ele>594.0</ele><time>2026-04-04T11:17:08.001Z</time></trkpt><trkpt lat="42.18566745848487" lon="13.980108445416803"><ele>594.0</ele><time>2026-04-04T11:17:09.001Z</time></trkpt><trkpt lat="42.185496129681795" lon="13.98007305251334"><ele>594.0</ele><time>2026-04-04T11:17:10.001Z</time></trkpt><trkpt lat="42.18533567001642" lon="13.979986254407008"><ele>594.0</ele><time>2026-04-04T11:17:11.001Z</time></trkpt><trkpt lat="42.18517781170084" lon="13.979889083885785"><ele>594.0</ele><time>2026-04-04T11:17:12.001Z</time></trkpt><trkpt lat="42.18502751102777" lon="13.979766559653676"><ele>594.0</ele><time>2026-04-04T11:17:13.001Z</time></trkpt><trkpt lat="42.18487715896867" lon="13.97963745039367"><ele>597.3333333333334</ele><time>2026-04-04T11:17:14.001Z</time></trkpt><trkpt lat="42.18473683227973" lon="13.97949181784734"><ele>600.6666666666667</ele><time>2026-04-04T11:17:15.001Z</time></trkpt><trkpt lat="42.18458919563421" lon="13.979355356845415"><ele>604.0</ele><time>2026-04-04T11:17:16.001Z</time></trkpt><trkpt lat="42.18443412863303" lon="13.979211084124561"><ele>603.0</ele><time>2026-04-04T11:17:17.001Z</time></trkpt><trkpt lat="42.184283880984225" lon="13.979073434899005"><ele>602.0</ele><time>2026-04-04T11:17:18.001Z</time></trkpt><trkpt lat="42.18413422745784" lon="13.978938061844783"><ele>601.0</ele><time>2026-04-04T11:17:19.001Z</time></trkpt><trkpt lat="42.18399427203301" lon="13.978810035550788"><ele>601.0</ele><time>2026-04-04T11:17:20.001Z</time></trkpt><trkpt lat="42.183859252102465" lon="13.978681938454194"><ele>601.0</ele><time>2026-04-04T11:17:21.001Z</time></trkpt><trkpt lat="42.18371679474681" lon="13.978544818589528"><ele>601.0</ele><time>2026-04-04T11:17:22Z</time></trkpt><trkpt lat="42.18357407275094" lon="13.978413613298928"><ele>599.0</ele><time>2026-04-04T11:17:23Z</time></trkpt><trkpt lat="42.18343722564813" lon="13.978285751502998"><ele>597.0</ele><time>2026-04-04T11:17:24Z</time></trkpt><trkpt lat="42.18330258987236" lon="13.978162079769708"><ele>595.0</ele><time>2026-04-04T11:17:25Z</time></trkpt><trkpt lat="42.18317161213618" lon="13.978040218032097"><ele>595.0</ele><time>2026-04-04T11:17:26Z</time></trkpt><trkpt lat="42.18303806236839" lon="13.977918567223439"><ele>595.0</ele><time>2026-04-04T11:17:27Z</time></trkpt><trkpt lat="42.182897509170736" lon="13.977804515917295"><ele>595.0</ele><time>2026-04-04T11:17:28Z</time></trkpt><trkpt lat="42.18274826679781" lon="13.977711330897268"><ele>595.0</ele><time>2026-04-04T11:17:29Z</time></trkpt><trkpt lat="42.18259355465785" lon="13.977649367782929"><ele>595.0</ele><time>2026-04-04T11:17:30Z</time></trkpt><trkpt lat="42.182429484441045" lon="13.977618072516803"><ele>595.0</ele><time>2026-04-04T11:17:31Z</time></trkpt><trkpt lat="42.182268367671504" lon="13.97762126283742"><ele>594.3333333333334</ele><time>2026-04-04T11:17:32Z</time></trkpt><trkpt lat="42.182104165655375" lon="13.977651131289488"><ele>593.6666666666666</ele><time>2026-04-04T11:17:33Z</time></trkpt><trkpt lat="42.181937716492826" lon="13.977698299603134"><ele>593.0</ele><time>2026-04-04T11:17:34Z</time></trkpt><trkpt lat="42.18177360149156" lon="13.977735796961511"><ele>593.0</ele><time>2026-04-04T11:17:35Z</time></trkpt><trkpt lat="42.181608693717834" lon="13.977763019768982"><ele>593.0</ele><time>2026-04-04T11:17:36Z</time></trkpt><trkpt lat="42.18143844491906" lon="13.977792299704948"><ele>593.0</ele><time>2026-04-04T11:17:37Z</time></trkpt><trkpt lat="42.18127639442996" lon="13.97781869545867"><ele>592.3333333333333</ele><time>2026-04-04T11:17:38Z</time></trkpt><trkpt lat="42.18111931845788" lon="13.97784486563719"><ele>591.6666666666666</ele><time>2026-04-04T11:17:39Z</time></trkpt><trkpt lat="42.18097163856645" lon="13.977870564242066"><ele>591.0</ele><time>2026-04-04T11:17:40Z</time></trkpt><trkpt lat="42.18082542668108" lon="13.977896305856486"><ele>591.0</ele><time>2026-04-04T11:17:41Z</time></trkpt><trkpt lat="42.18068465477772" lon="13.97791019202466"><ele>591.0</ele><time>2026-04-04T11:17:42Z</time></trkpt><trkpt lat="42.18054815030664" lon="13.977916563933316"><ele>591.0</ele><time>2026-04-04T11:17:43Z</time></trkpt><trkpt lat="42.1804180293294" lon="13.977908082559308"><ele>591.0</ele><time>2026-04-04T11:17:44Z</time></trkpt><trkpt lat="42.18028673236513" lon="13.977872003365775"><ele>591.5</ele><time>2026-04-04T11:17:45Z</time></trkpt><trkpt lat="42.18015319350298" lon="13.977822850455427"><ele>592.0</ele><time>2026-04-04T11:17:46Z</time></trkpt><trkpt lat="42.18001269468831" lon="13.97775607567666"><ele>592.5</ele><time>2026-04-04T11:17:47Z</time></trkpt><trkpt lat="42.179866407877256" lon="13.977676487404112"><ele>593.0</ele><time>2026-04-04T11:17:48Z</time></trkpt><trkpt lat="42.17972932205973" lon="13.977561145325597"><ele>590.0</ele><time>2026-04-04T11:17:49Z</time></trkpt><trkpt lat="42.17957783565723" lon="13.977470526103893"><ele>587.0</ele><time>2026-04-04T11:17:50Z</time></trkpt><trkpt lat="42.17943315320054" lon="13.977349687087008"><ele>584.0</ele><time>2026-04-04T11:17:51Z</time></trkpt><trkpt lat="42.179274907519925" lon="13.977232417641318"><ele>584.0</ele><time>2026-04-04T11:17:52Z</time></trkpt><trkpt lat="42.179125032436765" lon="13.977131423644215"><ele>584.0</ele><time>2026-04-04T11:17:53Z</time></trkpt><trkpt lat="42.17896874646949" lon="13.977028501848574"><ele>584.0</ele><time>2026-04-04T11:17:54Z</time></trkpt><trkpt lat="42.17881746400632" lon="13.976925345451477"><ele>583.3333333333333</ele><time>2026-04-04T11:17:55Z</time></trkpt><trkpt lat="42.17867488895706" lon="13.976828836947952"><ele>582.6666666666666</ele><time>2026-04-04T11:17:56Z</time></trkpt><trkpt lat="42.1785371360947" lon="13.976731123452648"><ele>582.0</ele><time>2026-04-04T11:17:57Z</time></trkpt><trkpt lat="42.178394987031275" lon="13.976622315068614"><ele>582.0</ele><time>2026-04-04T11:17:58Z</time></trkpt><trkpt lat="42.17825031751664" lon="13.976510774304618"><ele>582.0</ele><time>2026-04-04T11:17:59Z</time></trkpt><trkpt lat="42.178098854976234" lon="13.976405925682991"><ele>582.0</ele><time>2026-04-04T11:18:00Z</time></trkpt><trkpt lat="42.17794079830902" lon="13.97629892272698"><ele>582.6666666666666</ele><time>2026-04-04T11:18:01Z</time></trkpt><trkpt lat="42.17778282458742" lon="13.97619315432741"><ele>583.3333333333333</ele><time>2026-04-04T11:18:02Z</time></trkpt><trkpt lat="42.17763239989141" lon="13.976088521926357"><ele>584.0</ele><time>2026-04-04T11:18:03Z</time></trkpt><trkpt lat="42.17748648644021" lon="13.975983863087109"><ele>582.3333333333333</ele><time>2026-04-04T11:18:04Z</time></trkpt><trkpt lat="42.17734088143708" lon="13.975881895518857"><ele>580.6666666666666</ele><time>2026-04-04T11:18:05Z</time></trkpt><trkpt lat="42.17718995951484" lon="13.97577773066986"><ele>579.0</ele><time>2026-04-04T11:18:06Z</time></trkpt><trkpt lat="42.17704356601585" lon="13.975679949226269"><ele>579.0</ele><time>2026-04-04T11:18:07Z</time></trkpt><trkpt lat="42.176904454670144" lon="13.975579613482266"><ele>579.0</ele><time>2026-04-04T11:18:08Z</time></trkpt><trkpt lat="42.17677662298069" lon="13.975488825506014"><ele>579.0</ele><time>2026-04-04T11:18:09Z</time></trkpt><trkpt lat="42.176644765587824" lon="13.975410842203255"><ele>579.0</ele><time>2026-04-04T11:18:10Z</time></trkpt><trkpt lat="42.17650276448194" lon="13.975347681230096"><ele>577.0</ele><time>2026-04-04T11:18:11Z</time></trkpt><trkpt lat="42.1763517136923" lon="13.975323693560885"><ele>575.0</ele><time>2026-04-04T11:18:12Z</time></trkpt><trkpt lat="42.17618845481994" lon="13.975340583630704"><ele>573.0</ele><time>2026-04-04T11:18:13Z</time></trkpt><trkpt lat="42.17602826710972" lon="13.975384685992273"><ele>573.0</ele><time>2026-04-04T11:18:14Z</time></trkpt><trkpt lat="42.175870096189655" lon="13.975468779032317"><ele>573.0</ele><time>2026-04-04T11:18:15Z</time></trkpt><trkpt lat="42.17571807549956" lon="13.975583465124371"><ele>573.0</ele><time>2026-04-04T11:18:16Z</time></trkpt><trkpt lat="42.17557794011048" lon="13.975715893486331"><ele>574.0</ele><time>2026-04-04T11:18:17Z</time></trkpt><trkpt lat="42.17543177123567" lon="13.975840112123002"><ele>575.0</ele><time>2026-04-04T11:18:18Z</time></trkpt><trkpt lat="42.17527740000651" lon="13.975949782477244"><ele>576.0</ele><time>2026-04-04T11:18:19Z</time></trkpt><trkpt lat="42.17512195641363" lon="13.976052976834447"><ele>576.0</ele><time>2026-04-04T11:18:20Z</time></trkpt><trkpt lat="42.17496764255771" lon="13.976142461811815"><ele>576.0</ele><time>2026-04-04T11:18:21Z</time></trkpt><trkpt lat="42.17481457146186" lon="13.976201437577707"><ele>576.0</ele><time>2026-04-04T11:18:22Z</time></trkpt><trkpt lat="42.17467036829358" lon="13.976225480944418"><ele>571.75</ele><time>2026-04-04T11:18:23Z</time></trkpt><trkpt lat="42.174528512380455" lon="13.976246886163873"><ele>567.5</ele><time>2026-04-04T11:18:24Z</time></trkpt><trkpt lat="42.17439862443949" lon="13.976282977293415"><ele>563.25</ele><time>2026-04-04T11:18:25Z</time></trkpt><trkpt lat="42.17428991927061" lon="13.976330890636858"><ele>559.0</ele><time>2026-04-04T11:18:26Z</time></trkpt><trkpt lat="42.17419185663205" lon="13.976419272666579"><ele>559.0</ele><time>2026-04-04T11:18:27Z</time></trkpt><trkpt lat="42.174107525111644" lon="13.976531844359728"><ele>559.0</ele><time>2026-04-04T11:18:28Z</time></trkpt><trkpt lat="42.17404462359581" lon="13.976667737458678"><ele>559.0</ele><time>2026-04-04T11:18:29Z</time></trkpt><trkpt lat="42.17399997054018" lon="13.976806422913883"><ele>559.0</ele><time>2026-04-04T11:18:30Z</time></trkpt><trkpt lat="42.1739675685253" lon="13.976947862514091"><ele>554.2</ele><time>2026-04-04T11:18:31Z</time></trkpt><trkpt lat="42.173941327404606" lon="13.97708910521061"><ele>549.4</ele><time>2026-04-04T11:18:32Z</time></trkpt><trkpt lat="42.17389509372622" lon="13.977211197242658"><ele>544.6</ele><time>2026-04-04T11:18:33.002Z</time></trkpt><trkpt lat="42.1738652458844" lon="13.977330172570264"><ele>539.8</ele><time>2026-04-04T11:18:34.002Z</time></trkpt><trkpt lat="42.173843698192584" lon="13.977425147605647"><ele>535.0</ele><time>2026-04-04T11:18:35.002Z</time></trkpt><trkpt lat="42.17381877285454" lon="13.977538767191886"><ele>535.0</ele><time>2026-04-04T11:18:37.002Z</time></trkpt><trkpt lat="42.173799581022664" lon="13.97766067043284"><ele>535.0</ele><time>2026-04-04T11:20:29Z</time></trkpt><trkpt lat="42.17377363779009" lon="13.977752014713246"><ele>535.0</ele><time>2026-04-04T11:20:30Z</time></trkpt><trkpt lat="42.173746210864095" lon="13.977881597267077"><ele>535.0</ele><time>2026-04-04T11:20:31Z</time></trkpt><trkpt lat="42.17371834672506" lon="13.978013245670448"><ele>535.0</ele><time>2026-04-04T11:20:32Z</time></trkpt><trkpt lat="42.173686186375434" lon="13.97817105054304"><ele>535.0</ele><time>2026-04-04T11:20:33Z</time></trkpt><trkpt lat="42.17365399898768" lon="13.97834776564005"><ele>535.0</ele><time>2026-04-04T11:20:34Z</time></trkpt><trkpt lat="42.173628035925766" lon="13.978524242059569"><ele>535.0</ele><time>2026-04-04T11:20:35Z</time></trkpt><trkpt lat="42.173608179937055" lon="13.978715702045227"><ele>535.0</ele><time>2026-04-04T11:20:36Z</time></trkpt><trkpt lat="42.17357900895206" lon="13.978902889161233"><ele>538.6666666666667</ele><time>2026-04-04T11:20:37Z</time></trkpt><trkpt lat="42.17354373548441" lon="13.97910326636427"><ele>542.3333333333334</ele><time>2026-04-04T11:20:38.001Z</time></trkpt><trkpt lat="42.17349377305744" lon="13.979306129779163"><ele>546.0</ele><time>2026-04-04T11:20:39.001Z</time></trkpt><trkpt lat="42.173467426478624" lon="13.97951915539074"><ele>547.0</ele><time>2026-04-04T11:20:40.001Z</time></trkpt><trkpt lat="42.17341668303632" lon="13.979736299135977"><ele>548.0</ele><time>2026-04-04T11:20:41.001Z</time></trkpt><trkpt lat="42.17336919394393" lon="13.979963214253383"><ele>549.0</ele><time>2026-04-04T11:20:42.001Z</time></trkpt><trkpt lat="42.17332801007586" lon="13.980180853995671"><ele>551.3333333333334</ele><time>2026-04-04T11:20:43.001Z</time></trkpt><trkpt lat="42.17330271975637" lon="13.980402482574448"><ele>553.6666666666667</ele><time>2026-04-04T11:20:44.001Z</time></trkpt><trkpt lat="42.17328117734515" lon="13.980614062838747"><ele>556.0</ele><time>2026-04-04T11:20:45.001Z</time></trkpt><trkpt lat="42.17325255488572" lon="13.980815796378831"><ele>551.25</ele><time>2026-04-04T11:20:46.001Z</time></trkpt><trkpt lat="42.173187634793436" lon="13.980978404068832"><ele>546.5</ele><time>2026-04-04T11:20:47.001Z</time></trkpt><trkpt lat="42.173096033174986" lon="13.98111149835039"><ele>541.75</ele><time>2026-04-04T11:20:48.001Z</time></trkpt><trkpt lat="42.17298678256728" lon="13.981236299654228"><ele>537.0</ele><time>2026-04-04T11:20:49.001Z</time></trkpt><trkpt lat="42.17285110353007" lon="13.981335832778598"><ele>537.0</ele><time>2026-04-04T11:20:50.001Z</time></trkpt><trkpt lat="42.17271221607714" lon="13.981459154538705"><ele>537.0</ele><time>2026-04-04T11:20:51.001Z</time></trkpt><trkpt lat="42.172583509013165" lon="13.981569324342335"><ele>537.0</ele><time>2026-04-04T11:20:52.001Z</time></trkpt><trkpt lat="42.17246492598221" lon="13.981712052845912"><ele>532.3333333333334</ele><time>2026-04-04T11:20:53.001Z</time></trkpt><trkpt lat="42.172354423829766" lon="13.981887144561567"><ele>527.6666666666667</ele><time>2026-04-04T11:20:54.001Z</time></trkpt><trkpt lat="42.172254245348114" lon="13.982083392466222"><ele>523.0</ele><time>2026-04-04T11:20:55.001Z</time></trkpt><trkpt lat="42.17216097270101" lon="13.982268982143374"><ele>523.0</ele><time>2026-04-04T11:20:56.001Z</time></trkpt><trkpt lat="42.17205741122274" lon="13.982441017918514"><ele>523.0</ele><time>2026-04-04T11:20:57.001Z</time></trkpt><trkpt lat="42.17194475279833" lon="13.98259955002206"><ele>523.0</ele><time>2026-04-04T11:20:58.001Z</time></trkpt><trkpt lat="42.1718240633229" lon="13.982747978573611"><ele>518.3333333333334</ele><time>2026-04-04T11:20:59.001Z</time></trkpt><trkpt lat="42.171699354409235" lon="13.982877623607186"><ele>513.6666666666666</ele><time>2026-04-04T11:21:00.001Z</time></trkpt><trkpt lat="42.171565637455174" lon="13.982995102664164"><ele>509.0</ele><time>2026-04-04T11:21:01.001Z</time></trkpt><trkpt lat="42.17143969973755" lon="13.983117716041722"><ele>509.0</ele><time>2026-04-04T11:21:02.001Z</time></trkpt><trkpt lat="42.17132140771796" lon="13.98325000692352"><ele>509.0</ele><time>2026-04-04T11:21:03.001Z</time></trkpt><trkpt lat="42.17120799018654" lon="13.983386921796829"><ele>509.0</ele><time>2026-04-04T11:21:04.001Z</time></trkpt><trkpt lat="42.17109899154917" lon="13.983537848793945"><ele>515.6666666666666</ele><time>2026-04-04T11:21:05.001Z</time></trkpt><trkpt lat="42.17099503578895" lon="13.983708019270923"><ele>522.3333333333334</ele><time>2026-04-04T11:21:06.001Z</time></trkpt><trkpt lat="42.1708963289732" lon="13.983890892897273"><ele>529.0</ele><time>2026-04-04T11:21:07.001Z</time></trkpt><trkpt lat="42.17079414399276" lon="13.98408789231662"><ele>524.0</ele><time>2026-04-04T11:21:08.001Z</time></trkpt><trkpt lat="42.17069068899675" lon="13.984291447943848"><ele>519.0</ele><time>2026-04-04T11:21:09.001Z</time></trkpt><trkpt lat="42.1705868817658" lon="13.984501483078013"><ele>514.0</ele><time>2026-04-04T11:21:10.001Z</time></trkpt><trkpt lat="42.17049374076786" lon="13.984709743561528"><ele>514.0</ele><time>2026-04-04T11:21:11.001Z</time></trkpt><trkpt lat="42.17040853447898" lon="13.98491890805237"><ele>514.0</ele><time>2026-04-04T11:21:12.001Z</time></trkpt><trkpt lat="42.170326834398814" lon="13.985130045485946"><ele>514.0</ele><time>2026-04-04T11:21:13.001Z</time></trkpt><trkpt lat="42.17023963460009" lon="13.98533630149881"><ele>517.0</ele><time>2026-04-04T11:21:14.001Z</time></trkpt><trkpt lat="42.17014918978403" lon="13.9855420545276"><ele>520.0</ele><time>2026-04-04T11:21:15.001Z</time></trkpt><trkpt lat="42.17005467480362" lon="13.98576253401236"><ele>523.0</ele><time>2026-04-04T11:21:16.001Z</time></trkpt><trkpt lat="42.169963330056234" lon="13.985976367530396"><ele>525.0</ele><time>2026-04-04T11:21:17.001Z</time></trkpt><trkpt lat="42.16987119777727" lon="13.986175795949288"><ele>527.0</ele><time>2026-04-04T11:21:18.001Z</time></trkpt><trkpt lat="42.16977483340298" lon="13.986375358760133"><ele>529.0</ele><time>2026-04-04T11:21:19.001Z</time></trkpt><trkpt lat="42.1696735970216" lon="13.986568632111585"><ele>521.6666666666667</ele><time>2026-04-04T11:21:20.001Z</time></trkpt><trkpt lat="42.16955848988956" lon="13.986764906551938"><ele>514.3333333333334</ele><time>2026-04-04T11:21:21.001Z</time></trkpt><trkpt lat="42.16944417650432" lon="13.986961899026808"><ele>507.0</ele><time>2026-04-04T11:21:22.001Z</time></trkpt><trkpt lat="42.16933865572293" lon="13.987158709330442"><ele>507.0</ele><time>2026-04-04T11:21:23.001Z</time></trkpt><trkpt lat="42.169247285856464" lon="13.987358867338518"><ele>507.0</ele><time>2026-04-04T11:21:24.001Z</time></trkpt><trkpt lat="42.16917422007414" lon="13.987574413084475"><ele>507.0</ele><time>2026-04-04T11:21:25.001Z</time></trkpt><trkpt lat="42.169115249985694" lon="13.987821709562805"><ele>510.0</ele><time>2026-04-04T11:21:26.001Z</time></trkpt><trkpt lat="42.16906641872021" lon="13.988073627641699"><ele>513.0</ele><time>2026-04-04T11:21:27Z</time></trkpt><trkpt lat="42.16901872790929" lon="13.988321090851382"><ele>516.0</ele><time>2026-04-04T11:21:28Z</time></trkpt><trkpt lat="42.168963445067696" lon="13.988550990774986"><ele>516.0</ele><time>2026-04-04T11:21:29Z</time></trkpt><trkpt lat="42.16889771831773" lon="13.988767778522188"><ele>516.0</ele><time>2026-04-04T11:21:30Z</time></trkpt><trkpt lat="42.168810788111216" lon="13.988974748114192"><ele>516.0</ele><time>2026-04-04T11:21:31Z</time></trkpt><trkpt lat="42.16869720604807" lon="13.989167393126763"><ele>520.3333333333334</ele><time>2026-04-04T11:21:32Z</time></trkpt><trkpt lat="42.16856812998068" lon="13.989340017568574"><ele>524.6666666666667</ele><time>2026-04-04T11:21:33Z</time></trkpt><trkpt lat="42.16842090428749" lon="13.98948440521538"><ele>529.0</ele><time>2026-04-04T11:21:34Z</time></trkpt><trkpt lat="42.16826031944862" lon="13.989620166987313"><ele>529.0</ele><time>2026-04-04T11:21:35Z</time></trkpt><trkpt lat="42.16809782550164" lon="13.989759962989707"><ele>529.0</ele><time>2026-04-04T11:21:36Z</time></trkpt><trkpt lat="42.16793576615264" lon="13.989907573335868"><ele>529.0</ele><time>2026-04-04T11:21:37Z</time></trkpt><trkpt lat="42.16776887493034" lon="13.990054519975367"><ele>529.0</ele><time>2026-04-04T11:21:38Z</time></trkpt><trkpt lat="42.167609228324764" lon="13.990182099220757"><ele>529.0</ele><time>2026-04-04T11:21:39Z</time></trkpt><trkpt lat="42.16743687253548" lon="13.990257352055345"><ele>529.0</ele><time>2026-04-04T11:21:40Z</time></trkpt><trkpt lat="42.16726844860066" lon="13.990356645095734"><ele>526.0</ele><time>2026-04-04T11:21:41Z</time></trkpt><trkpt lat="42.16709774323209" lon="13.990418215243851"><ele>523.0</ele><time>2026-04-04T11:21:42Z</time></trkpt><trkpt lat="42.16694213964312" lon="13.990485554275514"><ele>520.0</ele><time>2026-04-04T11:21:43Z</time></trkpt><trkpt lat="42.166807550674775" lon="13.990555914507077"><ele>520.0</ele><time>2026-04-04T11:21:44Z</time></trkpt><trkpt lat="42.16669345892833" lon="13.99063367830317"><ele>520.0</ele><time>2026-04-04T11:21:45Z</time></trkpt><trkpt lat="42.16659851931411" lon="13.990751211267135"><ele>520.0</ele><time>2026-04-04T11:21:46Z</time></trkpt><trkpt lat="42.16651970084749" lon="13.990909626077524"><ele>520.0</ele><time>2026-04-04T11:21:47Z</time></trkpt><trkpt lat="42.16645744179681" lon="13.99109735752746"><ele>518.0</ele><time>2026-04-04T11:21:48Z</time></trkpt><trkpt lat="42.166386973447686" lon="13.991272469987457"><ele>516.0</ele><time>2026-04-04T11:21:49Z</time></trkpt><trkpt lat="42.16628601123378" lon="13.991418059484463"><ele>514.0</ele><time>2026-04-04T11:21:50Z</time></trkpt><trkpt lat="42.16615444976321" lon="13.991542108206557"><ele>514.0</ele><time>2026-04-04T11:21:51Z</time></trkpt><trkpt lat="42.16599419347166" lon="13.9916110885943"><ele>514.0</ele><time>2026-04-04T11:21:52Z</time></trkpt><trkpt lat="42.16583068408297" lon="13.991630718822103"><ele>514.0</ele><time>2026-04-04T11:21:53Z</time></trkpt><trkpt lat="42.16567483582343" lon="13.991677398063624"><ele>511.0</ele><time>2026-04-04T11:21:54Z</time></trkpt><trkpt lat="42.16552190306968" lon="13.991710237979927"><ele>508.0</ele><time>2026-04-04T11:21:55Z</time></trkpt><trkpt lat="42.165370337398066" lon="13.991792801565445"><ele>505.0</ele><time>2026-04-04T11:21:56Z</time></trkpt><trkpt lat="42.165233780018646" lon="13.991915859830284"><ele>505.0</ele><time>2026-04-04T11:21:57Z</time></trkpt><trkpt lat="42.165108160589995" lon="13.992050169003088"><ele>505.0</ele><time>2026-04-04T11:21:58Z</time></trkpt><trkpt lat="42.16500605362149" lon="13.992201006282448"><ele>505.0</ele><time>2026-04-04T11:21:59Z</time></trkpt><trkpt lat="42.16492735974614" lon="13.992362178102006"><ele>504.0</ele><time>2026-04-04T11:22:00Z</time></trkpt><trkpt lat="42.16487988934119" lon="13.992529294907516"><ele>503.0</ele><time>2026-04-04T11:22:01Z</time></trkpt><trkpt lat="42.16486236129787" lon="13.992715396024884"><ele>502.0</ele><time>2026-04-04T11:22:02Z</time></trkpt><trkpt lat="42.164880433496336" lon="13.99290284742545"><ele>501.0</ele><time>2026-04-04T11:22:03Z</time></trkpt><trkpt lat="42.16493827320004" lon="13.993096062522447"><ele>501.0</ele><time>2026-04-04T11:22:04Z</time></trkpt><trkpt lat="42.16500153569119" lon="13.993292515128916"><ele>501.0</ele><time>2026-04-04T11:22:05Z</time></trkpt><trkpt lat="42.16509184004478" lon="13.993468321746345"><ele>501.0</ele><time>2026-04-04T11:22:06Z</time></trkpt><trkpt lat="42.16520454455708" lon="13.993628226698897"><ele>499.33333333333337</ele><time>2026-04-04T11:22:07Z</time></trkpt><trkpt lat="42.16532671018772" lon="13.993788050127154"><ele>497.6666666666667</ele><time>2026-04-04T11:22:08Z</time></trkpt><trkpt lat="42.16545474977742" lon="13.993943420691705"><ele>496.0</ele><time>2026-04-04T11:22:09Z</time></trkpt><trkpt lat="42.16557417357454" lon="13.99409698237414"><ele>493.5</ele><time>2026-04-04T11:22:10Z</time></trkpt><trkpt lat="42.16568233815286" lon="13.994240456477653"><ele>491.0</ele><time>2026-04-04T11:22:11Z</time></trkpt><trkpt lat="42.16578167575362" lon="13.994376979558243"><ele>488.5</ele><time>2026-04-04T11:22:12Z</time></trkpt><trkpt lat="42.165872785862014" lon="13.99451421959091"><ele>486.0</ele><time>2026-04-04T11:22:13Z</time></trkpt><trkpt lat="42.16593119603121" lon="13.994679885271522"><ele>493.66666666666663</ele><time>2026-04-04T11:22:14Z</time></trkpt><trkpt lat="42.165963376953385" lon="13.99487164788219"><ele>501.3333333333333</ele><time>2026-04-04T11:22:15Z</time></trkpt><trkpt lat="42.16597893934524" lon="13.995070872675221"><ele>509.0</ele><time>2026-04-04T11:22:16Z</time></trkpt><trkpt lat="42.16596615445473" lon="13.995282831746032"><ele>511.0</ele><time>2026-04-04T11:22:17Z</time></trkpt><trkpt lat="42.16591155980527" lon="13.995481484652624"><ele>513.0</ele><time>2026-04-04T11:22:18Z</time></trkpt><trkpt lat="42.16585955453462" lon="13.995668717646087"><ele>515.0</ele><time>2026-04-04T11:22:19Z</time></trkpt><trkpt lat="42.16575087648571" lon="13.99583435170505"><ele>512.6666666666666</ele><time>2026-04-04T11:22:20Z</time></trkpt><trkpt lat="42.16562782491587" lon="13.99599881911006"><ele>510.33333333333337</ele><time>2026-04-04T11:22:21Z</time></trkpt><trkpt lat="42.16551493443574" lon="13.996187108632862"><ele>508.0</ele><time>2026-04-04T11:22:22Z</time></trkpt><trkpt lat="42.165408000885655" lon="13.996374538058095"><ele>508.0</ele><time>2026-04-04T11:22:23Z</time></trkpt><trkpt lat="42.16531601025515" lon="13.996542682446677"><ele>508.0</ele><time>2026-04-04T11:22:24Z</time></trkpt><trkpt lat="42.16524722746539" lon="13.996710754473028"><ele>508.0</ele><time>2026-04-04T11:22:25Z</time></trkpt><trkpt lat="42.16519929910663" lon="13.996906136212967"><ele>508.6666666666667</ele><time>2026-04-04T11:22:26Z</time></trkpt><trkpt lat="42.16518241496163" lon="13.997130116710006"><ele>509.33333333333337</ele><time>2026-04-04T11:22:27Z</time></trkpt><trkpt lat="42.16518946146091" lon="13.997370042829022"><ele>510.0</ele><time>2026-04-04T11:22:28Z</time></trkpt><trkpt lat="42.16520441325531" lon="13.99761694164721"><ele>510.33333333333337</ele><time>2026-04-04T11:22:29Z</time></trkpt><trkpt lat="42.16521328801812" lon="13.997861924113797"><ele>510.6666666666667</ele><time>2026-04-04T11:22:30Z</time></trkpt><trkpt lat="42.16521515242717" lon="13.99808812150601"><ele>511.0</ele><time>2026-04-04T11:22:31Z</time></trkpt><trkpt lat="42.16521561535403" lon="13.998305500397699"><ele>510.25</ele><time>2026-04-04T11:22:32Z</time></trkpt><trkpt lat="42.16521985811782" lon="13.998512712645017"><ele>509.5</ele><time>2026-04-04T11:22:33Z</time></trkpt><trkpt lat="42.16522901553426" lon="13.998709719277706"><ele>508.75</ele><time>2026-04-04T11:22:34Z</time></trkpt><trkpt lat="42.165254436690304" lon="13.99890766726896"><ele>508.0</ele><time>2026-04-04T11:22:35Z</time></trkpt><trkpt lat="42.16531124702702" lon="13.999111852382477"><ele>507.0</ele><time>2026-04-04T11:22:36Z</time></trkpt><trkpt lat="42.165394485832984" lon="13.999311954805895"><ele>506.0</ele><time>2026-04-04T11:22:37Z</time></trkpt><trkpt lat="42.165478341298225" lon="13.99952061002567"><ele>505.0</ele><time>2026-04-04T11:22:38Z</time></trkpt><trkpt lat="42.16556886013018" lon="13.999713184719086"><ele>505.0</ele><time>2026-04-04T11:22:39Z</time></trkpt><trkpt lat="42.165658513669456" lon="13.999884870607024"><ele>505.0</ele><time>2026-04-04T11:22:40Z</time></trkpt><trkpt lat="42.165733180453365" lon="14.000044013648877"><ele>505.0</ele><time>2026-04-04T11:22:41Z</time></trkpt><trkpt lat="42.16578670856571" lon="14.000197658324456"><ele>505.0</ele><time>2026-04-04T11:22:42Z</time></trkpt><trkpt lat="42.16580319702854" lon="14.000356896163291"><ele>507.0</ele><time>2026-04-04T11:22:43.001Z</time></trkpt><trkpt lat="42.165787173107105" lon="14.000524057314374"><ele>509.0</ele><time>2026-04-04T11:22:44.001Z</time></trkpt><trkpt lat="42.165721597304575" lon="14.000681255417879"><ele>511.0</ele><time>2026-04-04T11:22:45.001Z</time></trkpt><trkpt lat="42.16564780407668" lon="14.000840617050201"><ele>513.0</ele><time>2026-04-04T11:22:46.001Z</time></trkpt><trkpt lat="42.165567759105755" lon="14.00101599305496"><ele>513.0</ele><time>2026-04-04T11:22:47.001Z</time></trkpt><trkpt lat="42.165469390570415" lon="14.001188385393101"><ele>513.0</ele><time>2026-04-04T11:22:48.001Z</time></trkpt><trkpt lat="42.16537824647522" lon="14.001365080781609"><ele>513.0</ele><time>2026-04-04T11:22:49.001Z</time></trkpt><trkpt lat="42.165280556789114" lon="14.001547809195737"><ele>516.6666666666666</ele><time>2026-04-04T11:22:50.001Z</time></trkpt><trkpt lat="42.1651765976531" lon="14.001737230998682"><ele>520.3333333333333</ele><time>2026-04-04T11:22:51.001Z</time></trkpt><trkpt lat="42.165079312079776" lon="14.001925785304586"><ele>524.0</ele><time>2026-04-04T11:22:52.001Z</time></trkpt><trkpt lat="42.164987927736234" lon="14.002102583008647"><ele>524.0</ele><time>2026-04-04T11:22:53.001Z</time></trkpt><trkpt lat="42.164900512053656" lon="14.002271089579379"><ele>524.0</ele><time>2026-04-04T11:22:54.001Z</time></trkpt><trkpt lat="42.16481618489323" lon="14.002435506350597"><ele>524.0</ele><time>2026-04-04T11:22:55.001Z</time></trkpt><trkpt lat="42.164736305188626" lon="14.00259221381795"><ele>524.0</ele><time>2026-04-04T11:22:56.001Z</time></trkpt><trkpt lat="42.1646456029682" lon="14.002728492359378"><ele>522.0</ele><time>2026-04-04T11:22:57.001Z</time></trkpt><trkpt lat="42.164573116808086" lon="14.002867434786937"><ele>520.0</ele><time>2026-04-04T11:22:58.001Z</time></trkpt><trkpt lat="42.16451470132024" lon="14.002979647643093"><ele>518.0</ele><time>2026-04-04T11:22:59.001Z</time></trkpt><trkpt lat="42.164478860033256" lon="14.003085304453794"><ele>516.0</ele><time>2026-04-04T11:23:00.001Z</time></trkpt><trkpt lat="42.16441879157299" lon="14.003163884857539"><ele>514.0</ele><time>2026-04-04T11:23:01.001Z</time></trkpt><trkpt lat="42.164444180800864" lon="14.003310332464677"><ele>515.2</ele><time>2026-04-04T11:23:02.001Z</time></trkpt><trkpt lat="42.16444237208629" lon="14.00340664309313"><ele>516.4</ele><time>2026-04-04T11:23:03.001Z</time></trkpt><trkpt lat="42.16441533027177" lon="14.003518052035428"><ele>517.6</ele><time>2026-04-04T11:23:05.001Z</time></trkpt><trkpt lat="42.16432168974037" lon="14.003557080249772"><ele>518.8</ele><time>2026-04-04T11:23:15.001Z</time></trkpt><trkpt lat="42.1642893235115" lon="14.003723253750861"><ele>520.0</ele><time>2026-04-04T11:30:02.999Z</time></trkpt><trkpt lat="42.1642457517861" lon="14.003481585091645"><ele>520.0</ele><time>2026-04-04T11:30:04.999Z</time></trkpt><trkpt lat="42.164325625301196" lon="14.003567999389107"><ele>520.0</ele><time>2026-04-04T11:30:22.999Z</time></trkpt><trkpt lat="42.16423574873079" lon="14.003498426549069"><ele>520.0</ele><time>2026-04-04T11:30:28.999Z</time></trkpt><trkpt lat="42.16432386275196" lon="14.00359298728863"><ele>520.0</ele><time>2026-04-04T11:30:31.999Z</time></trkpt><trkpt lat="42.16423574867426" lon="14.003498426488399"><ele>520.0</ele><time>2026-04-04T11:30:56.998Z</time></trkpt><trkpt lat="42.16429775699307" lon="14.003643939104409"><ele>520.0</ele><time>2026-04-04T11:31:12Z</time></trkpt><trkpt lat="42.16420714635594" lon="14.003553676720832"><ele>520.0</ele><time>2026-04-04T11:31:58.999Z</time></trkpt><trkpt lat="42.16423374946616" lon="14.003655002190587"><ele>520.0</ele><time>2026-04-04T11:32:17.999Z</time></trkpt><trkpt lat="42.16414749302897" lon="14.003696503601128"><ele>520.0</ele><time>2026-04-04T11:32:20.999Z</time></trkpt><trkpt lat="42.16403197501894" lon="14.003544444724726"><ele>520.0</ele><time>2026-04-04T11:32:21.999Z</time></trkpt><trkpt lat="42.164044627696576" lon="14.003772340785073"><ele>518.3333333333334</ele><time>2026-04-04T11:32:22.999Z</time></trkpt><trkpt lat="42.16398722137603" lon="14.003838825634451"><ele>516.6666666666667</ele><time>2026-04-04T11:32:23.999Z</time></trkpt><trkpt lat="42.163939858059095" lon="14.003897619156403"><ele>515.0</ele><time>2026-04-04T11:32:24.999Z</time></trkpt><trkpt lat="42.16388431361972" lon="14.003976872898173"><ele>513.3333333333334</ele><time>2026-04-04T11:32:25.999Z</time></trkpt><trkpt lat="42.16380944207328" lon="14.004077314183426"><ele>511.6666666666667</ele><time>2026-04-04T11:32:26.999Z</time></trkpt><trkpt lat="42.16373786371302" lon="14.004171157432886"><ele>510.0</ele><time>2026-04-04T11:32:27.999Z</time></trkpt><trkpt lat="42.16365580059596" lon="14.004268540450825"><ele>510.0</ele><time>2026-04-04T11:32:28.999Z</time></trkpt><trkpt lat="42.16357068266737" lon="14.004358477372705"><ele>510.0</ele><time>2026-04-04T11:32:29.999Z</time></trkpt><trkpt lat="42.16347330825898" lon="14.004453614017917"><ele>510.0</ele><time>2026-04-04T11:32:30.999Z</time></trkpt><trkpt lat="42.16336822898138" lon="14.004544628567386"><ele>510.0</ele><time>2026-04-04T11:32:31.999Z</time></trkpt><trkpt lat="42.163258631689494" lon="14.004643776215511"><ele>510.25</ele><time>2026-04-04T11:32:32.999Z</time></trkpt><trkpt lat="42.16315468470045" lon="14.004744242641983"><ele>510.5</ele><time>2026-04-04T11:32:33.999Z</time></trkpt><trkpt lat="42.163057374345435" lon="14.004829684511401"><ele>510.75</ele><time>2026-04-04T11:32:34.999Z</time></trkpt><trkpt lat="42.162958940567" lon="14.00489864548762"><ele>511.0</ele><time>2026-04-04T11:32:35.999Z</time></trkpt><trkpt lat="42.16285637202395" lon="14.004907071047697"><ele>511.0</ele><time>2026-04-04T11:32:36.999Z</time></trkpt><trkpt lat="42.16275485384462" lon="14.00492029815508"><ele>511.0</ele><time>2026-04-04T11:32:37.999Z</time></trkpt><trkpt lat="42.162642169716804" lon="14.004932908011162"><ele>511.0</ele><time>2026-04-04T11:32:38.999Z</time></trkpt><trkpt lat="42.16252162428178" lon="14.004949333910758"><ele>511.0</ele><time>2026-04-04T11:32:39.999Z</time></trkpt><trkpt lat="42.1624120646299" lon="14.004961836684407"><ele>511.0</ele><time>2026-04-04T11:32:40.999Z</time></trkpt><trkpt lat="42.16231635361417" lon="14.004968361269757"><ele>514.1666666666667</ele><time>2026-04-04T11:32:41.999Z</time></trkpt><trkpt lat="42.162227943559884" lon="14.00496975982165"><ele>517.3333333333334</ele><time>2026-04-04T11:32:42.999Z</time></trkpt><trkpt lat="42.16214161829233" lon="14.0049607919413"><ele>520.5</ele><time>2026-04-04T11:32:43.999Z</time></trkpt><trkpt lat="42.16206023672467" lon="14.004920731824631"><ele>523.6666666666666</ele><time>2026-04-04T11:32:44.999Z</time></trkpt><trkpt lat="42.16199345613959" lon="14.004848583145794"><ele>526.8333333333333</ele><time>2026-04-04T11:32:45.999Z</time></trkpt><trkpt lat="42.161926911254625" lon="14.004750522774915"><ele>530.0</ele><time>2026-04-04T11:32:46.999Z</time></trkpt><trkpt lat="42.161854126193674" lon="14.004622696531701"><ele>530.0</ele><time>2026-04-04T11:32:47.999Z</time></trkpt><trkpt lat="42.16176842774701" lon="14.004484364608137"><ele>530.0</ele><time>2026-04-04T11:32:48.999Z</time></trkpt><trkpt lat="42.16169704240142" lon="14.004330082897585"><ele>530.0</ele><time>2026-04-04T11:32:49.999Z</time></trkpt><trkpt lat="42.16161315786267" lon="14.004175056114928"><ele>530.0</ele><time>2026-04-04T11:32:50.999Z</time></trkpt><trkpt lat="42.161508480433945" lon="14.00402750853509"><ele>531.3333333333333</ele><time>2026-04-04T11:32:51.999Z</time></trkpt><trkpt lat="42.16139468881483" lon="14.00389030149224"><ele>532.6666666666666</ele><time>2026-04-04T11:32:52.999Z</time></trkpt><trkpt lat="42.16126501747939" lon="14.003757695030831"><ele>534.0</ele><time>2026-04-04T11:32:53.999Z</time></trkpt><trkpt lat="42.16113753499256" lon="14.003647329496538"><ele>534.0</ele><time>2026-04-04T11:32:54.999Z</time></trkpt><trkpt lat="42.161014979749865" lon="14.00355045629102"><ele>534.0</ele><time>2026-04-04T11:32:55.999Z</time></trkpt><trkpt lat="42.16088757901823" lon="14.00346355049014"><ele>534.0</ele><time>2026-04-04T11:32:56.998Z</time></trkpt><trkpt lat="42.16075607849802" lon="14.0033813432147"><ele>534.0</ele><time>2026-04-04T11:32:57.998Z</time></trkpt><trkpt lat="42.16061828624276" lon="14.003303124448724"><ele>534.25</ele><time>2026-04-04T11:32:58.998Z</time></trkpt><trkpt lat="42.160477800968536" lon="14.003245790210627"><ele>534.5</ele><time>2026-04-04T11:32:59.998Z</time></trkpt><trkpt lat="42.16033279704494" lon="14.003203943274904"><ele>534.75</ele><time>2026-04-04T11:33:00.998Z</time></trkpt><trkpt lat="42.160194061771236" lon="14.00318192574185"><ele>535.0</ele><time>2026-04-04T11:33:01.998Z</time></trkpt><trkpt lat="42.16004708947049" lon="14.003175760033734"><ele>535.0</ele><time>2026-04-04T11:33:02.998Z</time></trkpt><trkpt lat="42.15989542200595" lon="14.003187644112561"><ele>535.0</ele><time>2026-04-04T11:33:03.998Z</time></trkpt><trkpt lat="42.1597415483352" lon="14.003191344358195"><ele>535.0</ele><time>2026-04-04T11:33:04.998Z</time></trkpt><trkpt lat="42.15958445340715" lon="14.003193235483993"><ele>543.0</ele><time>2026-04-04T11:33:05.998Z</time></trkpt><trkpt lat="42.159430907907044" lon="14.003193746541964"><ele>551.0</ele><time>2026-04-04T11:33:06.998Z</time></trkpt><trkpt lat="42.15927714885137" lon="14.003188530606952"><ele>559.0</ele><time>2026-04-04T11:33:07.998Z</time></trkpt><trkpt lat="42.159124817207356" lon="14.003182409679653"><ele>564.0</ele><time>2026-04-04T11:33:08.998Z</time></trkpt><trkpt lat="42.15897272475268" lon="14.003176283047335"><ele>569.0</ele><time>2026-04-04T11:33:09.998Z</time></trkpt><trkpt lat="42.158817716086155" lon="14.003172456874912"><ele>574.0</ele><time>2026-04-04T11:33:10.998Z</time></trkpt><trkpt lat="42.15864993194316" lon="14.00317125679976"><ele>574.0</ele><time>2026-04-04T11:33:12.065Z</time></trkpt><trkpt lat="42.158492190482306" lon="14.00316859314333"><ele>574.0</ele><time>2026-04-04T11:33:13.069Z</time></trkpt><trkpt lat="42.15833322949967" lon="14.00315894156794"><ele>574.0</ele><time>2026-04-04T11:33:14.066Z</time></trkpt><trkpt lat="42.15818194301321" lon="14.003149063689271"><ele>589.0</ele><time>2026-04-04T11:33:15.065Z</time></trkpt><trkpt lat="42.15717142512924" lon="14.00331336393972"><ele>598.0</ele><time>2026-04-04T11:33:18.819Z</time></trkpt><trkpt lat="42.156903365855285" lon="14.003358636018028"><ele>607.0</ele><time>2026-04-04T11:33:19.817Z</time></trkpt><trkpt lat="42.156634376654786" lon="14.003381203001119"><ele>600.5</ele><time>2026-04-04T11:33:20.815Z</time></trkpt><trkpt lat="42.156363692000475" lon="14.003381455713168"><ele>594.0</ele><time>2026-04-04T11:33:21.815Z</time></trkpt><trkpt lat="42.156093064122246" lon="14.003404571532585"><ele>594.0</ele><time>2026-04-04T11:33:22.819Z</time></trkpt><trkpt lat="42.15582488283962" lon="14.003428545042803"><ele>594.0</ele><time>2026-04-04T11:33:23.814Z</time></trkpt><trkpt lat="42.15555526798911" lon="14.003475480698507"><ele>586.0</ele><time>2026-04-04T11:33:24.818Z</time></trkpt><trkpt lat="42.15450564861257" lon="14.003778065506221"><ele>586.0</ele><time>2026-04-04T11:33:28.818Z</time></trkpt><trkpt lat="42.15428412075132" lon="14.004031424185543"><ele>586.0</ele><time>2026-04-04T11:33:29.818Z</time></trkpt><trkpt lat="42.15402551034548" lon="14.004134890135461"><ele>594.0</ele><time>2026-04-04T11:33:30.818Z</time></trkpt><trkpt lat="42.15376035859221" lon="14.004202538716768"><ele>602.0</ele><time>2026-04-04T11:33:31.818Z</time></trkpt><trkpt lat="42.15349327642068" lon="14.004250987315853"><ele>586.0</ele><time>2026-04-04T11:33:32.816Z</time></trkpt><trkpt lat="42.154808269707026" lon="14.003671361975536"><ele>586.0</ele><time>2026-04-04T11:33:34.998Z</time></trkpt><trkpt lat="42.154657121439925" lon="14.003737748880505"><ele>586.0</ele><time>2026-04-04T11:33:36Z</time></trkpt><trkpt lat="42.15448550024781" lon="14.003841809534586"><ele>586.0</ele><time>2026-04-04T11:33:37Z</time></trkpt><trkpt lat="42.15434254376425" lon="14.003936058481395"><ele>581.0</ele><time>2026-04-04T11:33:38Z</time></trkpt><trkpt lat="42.15383314823854" lon="14.00410935834795"><ele>588.0</ele><time>2026-04-04T11:33:41Z</time></trkpt><trkpt lat="42.15367237222107" lon="14.004169471977825"><ele>595.0</ele><time>2026-04-04T11:33:42Z</time></trkpt><trkpt lat="42.15350842871883" lon="14.004224376564427"><ele>602.0</ele><time>2026-04-04T11:33:43Z</time></trkpt><trkpt lat="42.153343295458214" lon="14.00429631949551"><ele>601.75</ele><time>2026-04-04T11:33:44Z</time></trkpt><trkpt lat="42.15319270281973" lon="14.00444802250568"><ele>601.5</ele><time>2026-04-04T11:33:45Z</time></trkpt><trkpt lat="42.15304887701149" lon="14.004383262431404"><ele>601.25</ele><time>2026-04-04T11:33:47Z</time></trkpt><trkpt lat="42.152980891454874" lon="14.004366915062072"><ele>601.0</ele><time>2026-04-04T11:33:48Z</time></trkpt><trkpt lat="42.15290265069012" lon="14.004402052535397"><ele>601.0</ele><time>2026-04-04T11:33:49Z</time></trkpt><trkpt lat="42.15276888695079" lon="14.004381436761623"><ele>601.0</ele><time>2026-04-04T11:33:51Z</time></trkpt><trkpt lat="42.15268891181315" lon="14.00434961309369"><ele>601.0</ele><time>2026-04-04T11:33:52Z</time></trkpt><trkpt lat="42.1526241758568" lon="14.004333985889552"><ele>601.0</ele><time>2026-04-04T11:33:53Z</time></trkpt><trkpt lat="42.15255506290078" lon="14.004363477859641"><ele>601.0</ele><time>2026-04-04T11:33:54Z</time></trkpt><trkpt lat="42.152484368501504" lon="14.004427187165213"><ele>601.0</ele><time>2026-04-04T11:33:55Z</time></trkpt><trkpt lat="42.15237653980664" lon="14.004384627581658"><ele>602.0</ele><time>2026-04-04T11:33:56Z</time></trkpt><trkpt lat="42.152305951383006" lon="14.004602797165825"><ele>603.0</ele><time>2026-04-04T11:33:57Z</time></trkpt><trkpt lat="42.1522054027275" lon="14.00470101974874"><ele>604.0</ele><time>2026-04-04T11:33:58Z</time></trkpt><trkpt lat="42.152103431604395" lon="14.004814106017458"><ele>605.0</ele><time>2026-04-04T11:33:59Z</time></trkpt><trkpt lat="42.15200049258066" lon="14.004938913338844"><ele>611.25</ele><time>2026-04-04T11:34:00Z</time></trkpt><trkpt lat="42.1519175749892" lon="14.0050456724684"><ele>617.5</ele><time>2026-04-04T11:34:01Z</time></trkpt><trkpt lat="42.15177334196131" lon="14.005180673547253"><ele>623.75</ele><time>2026-04-04T11:34:02Z</time></trkpt><trkpt lat="42.15168215696552" lon="14.005324348172309"><ele>630.0</ele><time>2026-04-04T11:34:03Z</time></trkpt><trkpt lat="42.15158850844623" lon="14.00547190427819"><ele>628.75</ele><time>2026-04-04T11:34:04Z</time></trkpt><trkpt lat="42.151493538019686" lon="14.0056232096755"><ele>627.5</ele><time>2026-04-04T11:34:05Z</time></trkpt><trkpt lat="42.151440840041246" lon="14.005708051557061"><ele>626.25</ele><time>2026-04-04T11:34:06Z</time></trkpt><trkpt lat="42.151353350517404" lon="14.005848070474192"><ele>625.0</ele><time>2026-04-04T11:34:07.066Z</time></trkpt><trkpt lat="42.15127067061239" lon="14.005978382255089"><ele>631.0</ele><time>2026-04-04T11:34:08.065Z</time></trkpt><trkpt lat="42.15118587974937" lon="14.00611202175734"><ele>637.0</ele><time>2026-04-04T11:34:09.061Z</time></trkpt><trkpt lat="42.15110242162041" lon="14.006243560391953"><ele>643.0</ele><time>2026-04-04T11:34:10.059Z</time></trkpt><trkpt lat="42.15102085393942" lon="14.006372129623946"><ele>649.0</ele><time>2026-04-04T11:34:11.041Z</time></trkpt><trkpt lat="42.15093921227324" lon="14.0065002097919"><ele>675.0</ele><time>2026-04-04T11:34:12.043Z</time></trkpt><trkpt lat="42.14983846588195" lon="14.008400401415988"><ele>675.0</ele><time>2026-04-04T11:34:15.816Z</time></trkpt><trkpt lat="42.149547681945556" lon="14.008861152155447"><ele>675.0</ele><time>2026-04-04T11:34:16.814Z</time></trkpt><trkpt lat="42.1492555624667" lon="14.009322720559345"><ele>679.5</ele><time>2026-04-04T11:34:17.816Z</time></trkpt><trkpt lat="42.14895783770438" lon="14.009776484074955"><ele>684.0</ele><time>2026-04-04T11:34:18.816Z</time></trkpt><trkpt lat="42.14864267885116" lon="14.01020889923337"><ele>687.0</ele><time>2026-04-04T11:34:19.817Z</time></trkpt><trkpt lat="42.14831167200662" lon="14.010617966658597"><ele>690.0</ele><time>2026-04-04T11:34:20.816Z</time></trkpt><trkpt lat="42.147966052791716" lon="14.011005905441108"><ele>690.0</ele><time>2026-04-04T11:34:21.817Z</time></trkpt><trkpt lat="42.147603720500996" lon="14.011365181675298"><ele>690.0</ele><time>2026-04-04T11:34:22.817Z</time></trkpt><trkpt lat="42.147228130310005" lon="14.011698501943814"><ele>690.0</ele><time>2026-04-04T11:34:23.817Z</time></trkpt><trkpt lat="42.1471145" lon="14.0117947"><ele>690.0</ele><time>2026-04-04T11:34:24.814Z</time></trkpt><trkpt lat="42.14110354389033" lon="14.013216622855124"><ele>681.0</ele><time>2026-04-04T11:35:08.999Z</time></trkpt><trkpt lat="42.14096449217518" lon="14.013194527214443"><ele>672.0</ele><time>2026-04-04T11:35:09.999Z</time></trkpt><trkpt lat="42.14080250054399" lon="14.013142184146641"><ele>663.0</ele><time>2026-04-04T11:35:10.999Z</time></trkpt><trkpt lat="42.140629840615794" lon="14.013116618262469"><ele>663.0</ele><time>2026-04-04T11:35:11.999Z</time></trkpt><trkpt lat="42.14045814003988" lon="14.013081922838726"><ele>663.0</ele><time>2026-04-04T11:35:12.999Z</time></trkpt><trkpt lat="42.14032070669434" lon="14.013013849296824"><ele>663.0</ele><time>2026-04-04T11:35:13.999Z</time></trkpt><trkpt lat="42.140162058341055" lon="14.012964524616544"><ele>663.0</ele><time>2026-04-04T11:35:14.999Z</time></trkpt><trkpt lat="42.14000304133907" lon="14.012931739156988"><ele>663.0</ele><time>2026-04-04T11:35:15.999Z</time></trkpt><trkpt lat="42.13983904130187" lon="14.012897741523874"><ele>663.0</ele><time>2026-04-04T11:35:16.999Z</time></trkpt><trkpt lat="42.13967269182288" lon="14.01284685414824"><ele>665.3333333333334</ele><time>2026-04-04T11:35:17.999Z</time></trkpt><trkpt lat="42.139502929451936" lon="14.01278994185743"><ele>667.6666666666667</ele><time>2026-04-04T11:35:18.999Z</time></trkpt><trkpt lat="42.139348797403606" lon="14.012740250077952"><ele>670.0</ele><time>2026-04-04T11:35:19.999Z</time></trkpt><trkpt lat="42.13920388280758" lon="14.012704665698694"><ele>670.0</ele><time>2026-04-04T11:35:20.999Z</time></trkpt><trkpt lat="42.139057198853465" lon="14.01268853140493"><ele>670.0</ele><time>2026-04-04T11:35:21.999Z</time></trkpt><trkpt lat="42.13890212782786" lon="14.01268624624447"><ele>670.0</ele><time>2026-04-04T11:35:22.999Z</time></trkpt><trkpt lat="42.13874954677373" lon="14.01271900256034"><ele>670.3333333333334</ele><time>2026-04-04T11:35:23.999Z</time></trkpt><trkpt lat="42.138599986588424" lon="14.012782623328157"><ele>670.6666666666666</ele><time>2026-04-04T11:35:24.999Z</time></trkpt><trkpt lat="42.138454408656536" lon="14.01287685504928"><ele>671.0</ele><time>2026-04-04T11:35:25.999Z</time></trkpt><trkpt lat="42.138307332369166" lon="14.012990912904527"><ele>670.0</ele><time>2026-04-04T11:35:26.999Z</time></trkpt><trkpt lat="42.13816145294147" lon="14.013110787873929"><ele>669.0</ele><time>2026-04-04T11:35:27.999Z</time></trkpt><trkpt lat="42.138020471081234" lon="14.013255610356962"><ele>668.0</ele><time>2026-04-04T11:35:28.998Z</time></trkpt><trkpt lat="42.137877105378955" lon="14.013401823342425"><ele>670.3333333333333</ele><time>2026-04-04T11:35:29.998Z</time></trkpt><trkpt lat="42.1377318626672" lon="14.01354683192011"><ele>672.6666666666666</ele><time>2026-04-04T11:35:30.998Z</time></trkpt><trkpt lat="42.13758973549146" lon="14.013718060659807"><ele>675.0</ele><time>2026-04-04T11:35:31.998Z</time></trkpt><trkpt lat="42.137447261631685" lon="14.013896237108817"><ele>674.0</ele><time>2026-04-04T11:35:32.998Z</time></trkpt><trkpt lat="42.137316346270744" lon="14.01405034596193"><ele>673.0</ele><time>2026-04-04T11:35:33.998Z</time></trkpt><trkpt lat="42.137190000637034" lon="14.014181579715927"><ele>672.0</ele><time>2026-04-04T11:35:34.998Z</time></trkpt><trkpt lat="42.13705110841554" lon="14.014282014925245"><ele>675.0</ele><time>2026-04-04T11:35:35.998Z</time></trkpt><trkpt lat="42.136904480019915" lon="14.014360896964664"><ele>678.0</ele><time>2026-04-04T11:35:36.998Z</time></trkpt><trkpt lat="42.13677512051633" lon="14.014422175880819"><ele>681.0</ele><time>2026-04-04T11:35:37.998Z</time></trkpt><trkpt lat="42.13667353133667" lon="14.014493646641958"><ele>684.0</ele><time>2026-04-04T11:35:38.998Z</time></trkpt><trkpt lat="42.136601202242424" lon="14.014593266395705"><ele>684.0</ele><time>2026-04-04T11:35:39.998Z</time></trkpt><trkpt lat="42.13656285404499" lon="14.014723643853678"><ele>684.0</ele><time>2026-04-04T11:35:41Z</time></trkpt><trkpt lat="42.13656296598262" lon="14.014873321931082"><ele>684.0</ele><time>2026-04-04T11:35:42Z</time></trkpt><trkpt lat="42.13659520383758" lon="14.015006627206184"><ele>684.0</ele><time>2026-04-04T11:35:43Z</time></trkpt><trkpt lat="42.13665896461848" lon="14.015121453314201"><ele>684.0</ele><time>2026-04-04T11:35:44Z</time></trkpt><trkpt lat="42.13675182140914" lon="14.015186680486783"><ele>686.0</ele><time>2026-04-04T11:35:45Z</time></trkpt><trkpt lat="42.13686741707731" lon="14.015226391930188"><ele>688.0</ele><time>2026-04-04T11:35:46Z</time></trkpt><trkpt lat="42.13699830492247" lon="14.015221066415974"><ele>690.0</ele><time>2026-04-04T11:35:47Z</time></trkpt><trkpt lat="42.13714455701412" lon="14.015183340421624"><ele>692.0</ele><time>2026-04-04T11:35:48Z</time></trkpt><trkpt lat="42.13729407871798" lon="14.015161632627436"><ele>693.3333333333333</ele><time>2026-04-04T11:35:49Z</time></trkpt><trkpt lat="42.13745374393485" lon="14.015154605819278"><ele>694.6666666666666</ele><time>2026-04-04T11:35:50Z</time></trkpt><trkpt lat="42.13762237472196" lon="14.01515225779729"><ele>696.0</ele><time>2026-04-04T11:35:51Z</time></trkpt><trkpt lat="42.13779842243743" lon="14.015150291395418"><ele>696.0</ele><time>2026-04-04T11:35:52Z</time></trkpt><trkpt lat="42.13796324787134" lon="14.015152730248296"><ele>696.0</ele><time>2026-04-04T11:35:53Z</time></trkpt><trkpt lat="42.13813701800054" lon="14.015143590399866"><ele>696.0</ele><time>2026-04-04T11:35:54Z</time></trkpt><trkpt lat="42.13830686873897" lon="14.0151079425685"><ele>697.3333333333334</ele><time>2026-04-04T11:35:55Z</time></trkpt><trkpt lat="42.13846326116151" lon="14.015046421581165"><ele>698.6666666666667</ele><time>2026-04-04T11:35:56Z</time></trkpt><trkpt lat="42.138606116073376" lon="14.014980448937328"><ele>700.0</ele><time>2026-04-04T11:35:57Z</time></trkpt><trkpt lat="42.138734490950284" lon="14.014900972294479"><ele>698.2</ele><time>2026-04-04T11:35:58Z</time></trkpt><trkpt lat="42.13885522841084" lon="14.014821903844256"><ele>696.4</ele><time>2026-04-04T11:35:59Z</time></trkpt><trkpt lat="42.138963687331845" lon="14.014761792958955"><ele>694.5999999999999</ele><time>2026-04-04T11:36:00Z</time></trkpt><trkpt lat="42.139060035886956" lon="14.01472653260994"><ele>692.8</ele><time>2026-04-04T11:36:01Z</time></trkpt><trkpt lat="42.13915381061095" lon="14.014733851174748"><ele>691.0</ele><time>2026-04-04T11:36:02Z</time></trkpt><trkpt lat="42.13923854502742" lon="14.014787644567422"><ele>691.0</ele><time>2026-04-04T11:36:03Z</time></trkpt><trkpt lat="42.139301770768895" lon="14.014874964985845"><ele>691.0</ele><time>2026-04-04T11:36:04Z</time></trkpt><trkpt lat="42.13932934399966" lon="14.014978985794514"><ele>691.0</ele><time>2026-04-04T11:36:05Z</time></trkpt><trkpt lat="42.139321701494225" lon="14.015080322589608"><ele>691.0</ele><time>2026-04-04T11:36:06Z</time></trkpt><trkpt lat="42.139281217202026" lon="14.015169208073793"><ele>691.0</ele><time>2026-04-04T11:36:07Z</time></trkpt><trkpt lat="42.13921201126122" lon="14.015240924551826"><ele>691.0</ele><time>2026-04-04T11:36:08Z</time></trkpt><trkpt lat="42.13912330572807" lon="14.015307893405582"><ele>693.25</ele><time>2026-04-04T11:36:09Z</time></trkpt><trkpt lat="42.13901623235714" lon="14.015369916045879"><ele>695.5</ele><time>2026-04-04T11:36:10Z</time></trkpt><trkpt lat="42.13890719434542" lon="14.015437806427206"><ele>697.75</ele><time>2026-04-04T11:36:11Z</time></trkpt><trkpt lat="42.13878813870269" lon="14.015516970920187"><ele>700.0</ele><time>2026-04-04T11:36:12Z</time></trkpt><trkpt lat="42.13865996258147" lon="14.015609503853629"><ele>700.0</ele><time>2026-04-04T11:36:13Z</time></trkpt><trkpt lat="42.13852372292651" lon="14.015702980550254"><ele>700.0</ele><time>2026-04-04T11:36:14Z</time></trkpt><trkpt lat="42.13838269722149" lon="14.015800977676566"><ele>700.0</ele><time>2026-04-04T11:36:15Z</time></trkpt><trkpt lat="42.138234799938324" lon="14.015904232461946"><ele>702.0</ele><time>2026-04-04T11:36:16Z</time></trkpt><trkpt lat="42.13808611610757" lon="14.016007417345207"><ele>704.0</ele><time>2026-04-04T11:36:17Z</time></trkpt><trkpt lat="42.13793175291436" lon="14.016112698190954"><ele>706.0</ele><time>2026-04-04T11:36:18Z</time></trkpt><trkpt lat="42.13778950444898" lon="14.016206049138477"><ele>706.0</ele><time>2026-04-04T11:36:19Z</time></trkpt><trkpt lat="42.13765315389855" lon="14.016295500847274"><ele>706.0</ele><time>2026-04-04T11:36:20Z</time></trkpt><trkpt lat="42.13753629056533" lon="14.016386493374705"><ele>706.0</ele><time>2026-04-04T11:36:21Z</time></trkpt><trkpt lat="42.13742275711281" lon="14.01646621950779"><ele>706.0</ele><time>2026-04-04T11:36:22Z</time></trkpt><trkpt lat="42.1373118667175" lon="14.016534678918013"><ele>705.0</ele><time>2026-04-04T11:36:23Z</time></trkpt><trkpt lat="42.13720231902433" lon="14.016600668661944"><ele>704.0</ele><time>2026-04-04T11:36:24Z</time></trkpt><trkpt lat="42.13709941191905" lon="14.01667158612331"><ele>703.0</ele><time>2026-04-04T11:36:25Z</time></trkpt><trkpt lat="42.13700908228868" lon="14.016745356768904"><ele>702.0</ele><time>2026-04-04T11:36:26Z</time></trkpt><trkpt lat="42.136931027290764" lon="14.016837662805527"><ele>701.0</ele><time>2026-04-04T11:36:27Z</time></trkpt><trkpt lat="42.13687269379214" lon="14.01695122658157"><ele>703.1999999999999</ele><time>2026-04-04T11:36:28Z</time></trkpt><trkpt lat="42.13684818031852" lon="14.0170824218617"><ele>705.4</ele><time>2026-04-04T11:36:29Z</time></trkpt><trkpt lat="42.136858929317185" lon="14.017211852512808"><ele>707.6</ele><time>2026-04-04T11:36:30Z</time></trkpt><trkpt lat="42.13689663579968" lon="14.017345468441258"><ele>709.8</ele><time>2026-04-04T11:36:31Z</time></trkpt><trkpt lat="42.13696375083716" lon="14.017457422857735"><ele>712.0</ele><time>2026-04-04T11:36:32Z</time></trkpt><trkpt lat="42.13704978909522" lon="14.017522145268641"><ele>712.0</ele><time>2026-04-04T11:36:33Z</time></trkpt><trkpt lat="42.13715019353353" lon="14.01753678967894"><ele>712.0</ele><time>2026-04-04T11:36:34Z</time></trkpt><trkpt lat="42.13725555777116" lon="14.017493458145728"><ele>712.0</ele><time>2026-04-04T11:36:34.999Z</time></trkpt><trkpt lat="42.13736242686004" lon="14.017412136063403"><ele>712.0</ele><time>2026-04-04T11:36:35.999Z</time></trkpt><trkpt lat="42.1374669687678" lon="14.017303552313054"><ele>713.25</ele><time>2026-04-04T11:36:36.999Z</time></trkpt><trkpt lat="42.13757408447247" lon="14.017194215361627"><ele>714.5</ele><time>2026-04-04T11:36:37.999Z</time></trkpt><trkpt lat="42.137683733711015" lon="14.017087356942282"><ele>715.75</ele><time>2026-04-04T11:36:38.999Z</time></trkpt><trkpt lat="42.13779671191167" lon="14.016990459270993"><ele>717.0</ele><time>2026-04-04T11:36:39.999Z</time></trkpt><trkpt lat="42.13790762059792" lon="14.016900645828711"><ele>717.0</ele><time>2026-04-04T11:36:40.999Z</time></trkpt><trkpt lat="42.13801891213721" lon="14.016822198252392"><ele>717.0</ele><time>2026-04-04T11:36:41.999Z</time></trkpt><trkpt lat="42.13813436651845" lon="14.016781972159075"><ele>717.0</ele><time>2026-04-04T11:36:42.999Z</time></trkpt><trkpt lat="42.138260397976744" lon="14.016771742294852"><ele>717.0</ele><time>2026-04-04T11:36:43.999Z</time></trkpt><trkpt lat="42.138392159704814" lon="14.016789011135506"><ele>719.0</ele><time>2026-04-04T11:36:44.999Z</time></trkpt><trkpt lat="42.13852104268514" lon="14.016843719422614"><ele>721.0</ele><time>2026-04-04T11:36:45.999Z</time></trkpt><trkpt lat="42.13865177725967" lon="14.016919714881132"><ele>723.0</ele><time>2026-04-04T11:36:46.999Z</time></trkpt><trkpt lat="42.13878277186543" lon="14.016988207734789"><ele>725.0</ele><time>2026-04-04T11:36:47.999Z</time></trkpt><trkpt lat="42.13890202298501" lon="14.017054041249198"><ele>725.0</ele><time>2026-04-04T11:36:48.999Z</time></trkpt><trkpt lat="42.13900646474597" lon="14.017135712282775"><ele>725.0</ele><time>2026-04-04T11:36:49.999Z</time></trkpt><trkpt lat="42.13909028329563" lon="14.01723948986739"><ele>725.0</ele><time>2026-04-04T11:36:50.999Z</time></trkpt><trkpt lat="42.139143342627015" lon="14.017363643978918"><ele>725.0</ele><time>2026-04-04T11:36:51.999Z</time></trkpt><trkpt lat="42.13915115524409" lon="14.017492496172968"><ele>725.0</ele><time>2026-04-04T11:36:52.999Z</time></trkpt><trkpt lat="42.13913239819912" lon="14.017612642964917"><ele>726.4</ele><time>2026-04-04T11:36:53.999Z</time></trkpt><trkpt lat="42.13909064059616" lon="14.017710253647136"><ele>727.8</ele><time>2026-04-04T11:36:54.999Z</time></trkpt><trkpt lat="42.139020981173346" lon="14.017786131130485"><ele>729.2</ele><time>2026-04-04T11:36:55.999Z</time></trkpt><trkpt lat="42.13893546125699" lon="14.017838371623201"><ele>730.6</ele><time>2026-04-04T11:36:56.999Z</time></trkpt><trkpt lat="42.138834030319934" lon="14.017862851030628"><ele>732.0</ele><time>2026-04-04T11:36:57.999Z</time></trkpt><trkpt lat="42.13872304600834" lon="14.017861807885923"><ele>732.75</ele><time>2026-04-04T11:36:58.999Z</time></trkpt><trkpt lat="42.138606794741904" lon="14.017867618244807"><ele>733.5</ele><time>2026-04-04T11:36:59.999Z</time></trkpt><trkpt lat="42.138486958690024" lon="14.017884367779194"><ele>734.25</ele><time>2026-04-04T11:37:00.999Z</time></trkpt><trkpt lat="42.13836730467777" lon="14.017924662339004"><ele>735.0</ele><time>2026-04-04T11:37:01.999Z</time></trkpt><trkpt lat="42.138247284811285" lon="14.017990777274072"><ele>733.5</ele><time>2026-04-04T11:37:02.999Z</time></trkpt><trkpt lat="42.1381297415981" lon="14.018075340758637"><ele>732.0</ele><time>2026-04-04T11:37:03.999Z</time></trkpt><trkpt lat="42.13801150993067" lon="14.01816445016694"><ele>730.5</ele><time>2026-04-04T11:37:04.999Z</time></trkpt><trkpt lat="42.13790796851021" lon="14.018242698887375"><ele>729.0</ele><time>2026-04-04T11:37:05.999Z</time></trkpt><trkpt lat="42.137816379241606" lon="14.018338469444133"><ele>732.0</ele><time>2026-04-04T11:37:06.999Z</time></trkpt><trkpt lat="42.13773638594349" lon="14.018460433973909"><ele>735.0</ele><time>2026-04-04T11:37:07.999Z</time></trkpt><trkpt lat="42.13766562826399" lon="14.018602281714365"><ele>738.0</ele><time>2026-04-04T11:37:08.999Z</time></trkpt><trkpt lat="42.13761224231644" lon="14.018767103339602"><ele>741.0</ele><time>2026-04-04T11:37:09.999Z</time></trkpt><trkpt lat="42.13756479654289" lon="14.01893586122551"><ele>741.0</ele><time>2026-04-04T11:37:10.999Z</time></trkpt><trkpt lat="42.13751547362773" lon="14.019107188735703"><ele>741.0</ele><time>2026-04-04T11:37:11.999Z</time></trkpt><trkpt lat="42.13746587140409" lon="14.019278826939065"><ele>741.0</ele><time>2026-04-04T11:37:12.999Z</time></trkpt><trkpt lat="42.137414545995924" lon="14.019455270225865"><ele>741.0</ele><time>2026-04-04T11:37:13.999Z</time></trkpt><trkpt lat="42.1373619283176" lon="14.019630191530629"><ele>740.75</ele><time>2026-04-04T11:37:14.999Z</time></trkpt><trkpt lat="42.137307058315876" lon="14.019800853205144"><ele>740.5</ele><time>2026-04-04T11:37:15.999Z</time></trkpt><trkpt lat="42.13725722378578" lon="14.019951609531795"><ele>740.25</ele><time>2026-04-04T11:37:16.999Z</time></trkpt><trkpt lat="42.13719701177362" lon="14.020087610495215"><ele>740.0</ele><time>2026-04-04T11:37:17.999Z</time></trkpt><trkpt lat="42.137116938321284" lon="14.02021108094166"><ele>742.5</ele><time>2026-04-04T11:37:18.999Z</time></trkpt><trkpt lat="42.137018614498416" lon="14.020320928196334"><ele>745.0</ele><time>2026-04-04T11:37:19.999Z</time></trkpt><trkpt lat="42.13690920683994" lon="14.02039721013439"><ele>747.5</ele><time>2026-04-04T11:37:20.999Z</time></trkpt><trkpt lat="42.13678279300594" lon="14.020445710444896"><ele>750.0</ele><time>2026-04-04T11:37:21.999Z</time></trkpt><trkpt lat="42.1366475583835" lon="14.020480751991794"><ele>751.0</ele><time>2026-04-04T11:37:22.999Z</time></trkpt><trkpt lat="42.136506204790344" lon="14.020518999685766"><ele>752.0</ele><time>2026-04-04T11:37:23.999Z</time></trkpt><trkpt lat="42.13636962245022" lon="14.02055207679113"><ele>753.0</ele><time>2026-04-04T11:37:24.999Z</time></trkpt><trkpt lat="42.136236716559225" lon="14.020576418920644"><ele>754.0</ele><time>2026-04-04T11:37:25.999Z</time></trkpt><trkpt lat="42.13610434285657" lon="14.020591024648782"><ele>754.0</ele><time>2026-04-04T11:37:26.999Z</time></trkpt><trkpt lat="42.13597826604143" lon="14.020592976924641"><ele>754.0</ele><time>2026-04-04T11:37:27.999Z</time></trkpt><trkpt lat="42.13585077215006" lon="14.020582217053976"><ele>754.0</ele><time>2026-04-04T11:37:28.999Z</time></trkpt><trkpt lat="42.13572296027716" lon="14.020532066937513"><ele>754.0</ele><time>2026-04-04T11:37:29.999Z</time></trkpt><trkpt lat="42.13559982716617" lon="14.020453268029586"><ele>756.25</ele><time>2026-04-04T11:37:30.999Z</time></trkpt><trkpt lat="42.13547628755391" lon="14.020357447876863"><ele>758.5</ele><time>2026-04-04T11:37:31.999Z</time></trkpt><trkpt lat="42.13536319740622" lon="14.020262017577902"><ele>760.75</ele><time>2026-04-04T11:37:32.999Z</time></trkpt><trkpt lat="42.13526378018537" lon="14.02017419846994"><ele>763.0</ele><time>2026-04-04T11:37:33.999Z</time></trkpt><trkpt lat="42.135173678341395" lon="14.0200873059546"><ele>763.0</ele><time>2026-04-04T11:37:34.999Z</time></trkpt><trkpt lat="42.13509376142592" lon="14.02000387683222"><ele>763.0</ele><time>2026-04-04T11:37:35.998Z</time></trkpt><trkpt lat="42.13501686627579" lon="14.0199290362085"><ele>763.0</ele><time>2026-04-04T11:37:36.998Z</time></trkpt><trkpt lat="42.13494258339377" lon="14.019863371107038"><ele>763.0</ele><time>2026-04-04T11:37:37.998Z</time></trkpt><trkpt lat="42.134867191746125" lon="14.019808148452096"><ele>763.0</ele><time>2026-04-04T11:37:38.998Z</time></trkpt><trkpt lat="42.13479033649126" lon="14.019766387453283"><ele>761.1666666666667</ele><time>2026-04-04T11:37:39.998Z</time></trkpt><trkpt lat="42.134714772778004" lon="14.019745735599983"><ele>759.3333333333334</ele><time>2026-04-04T11:37:40.998Z</time></trkpt><trkpt lat="42.1346413901021" lon="14.01974495616613"><ele>757.5</ele><time>2026-04-04T11:37:41.998Z</time></trkpt><trkpt lat="42.13457116631119" lon="14.019770587074005"><ele>755.6666666666666</ele><time>2026-04-04T11:37:42.998Z</time></trkpt><trkpt lat="42.134483877585126" lon="14.0198142949161"><ele>753.8333333333333</ele><time>2026-04-04T11:37:43.998Z</time></trkpt><trkpt lat="42.134423115243955" lon="14.019880751800356"><ele>752.0</ele><time>2026-04-04T11:37:44.998Z</time></trkpt><trkpt lat="42.13436412109963" lon="14.01996539660555"><ele>754.1666666666666</ele><time>2026-04-04T11:37:45.998Z</time></trkpt><trkpt lat="42.13432332051209" lon="14.020059409975318"><ele>756.3333333333333</ele><time>2026-04-04T11:37:47Z</time></trkpt><trkpt lat="42.13429346585121" lon="14.020165842965785"><ele>758.5</ele><time>2026-04-04T11:37:48Z</time></trkpt><trkpt lat="42.13429005496066" lon="14.020266406478626"><ele>760.6666666666666</ele><time>2026-04-04T11:37:49Z</time></trkpt><trkpt lat="42.1343059576303" lon="14.02037657422108"><ele>762.8333333333334</ele><time>2026-04-04T11:37:50Z</time></trkpt><trkpt lat="42.134341688811666" lon="14.02048939525037"><ele>765.0</ele><time>2026-04-04T11:37:51Z</time></trkpt><trkpt lat="42.13439199584874" lon="14.020609196442187"><ele>765.0</ele><time>2026-04-04T11:37:52Z</time></trkpt><trkpt lat="42.13444919665174" lon="14.020732885145723"><ele>765.0</ele><time>2026-04-04T11:37:53Z</time></trkpt><trkpt lat="42.13451185807791" lon="14.020865663574789"><ele>765.0</ele><time>2026-04-04T11:37:54Z</time></trkpt><trkpt lat="42.13457597711822" lon="14.021002423637484"><ele>765.0</ele><time>2026-04-04T11:37:55Z</time></trkpt><trkpt lat="42.13463956733123" lon="14.021145541353869"><ele>767.5</ele><time>2026-04-04T11:37:56Z</time></trkpt><trkpt lat="42.13469592129038" lon="14.021286509713269"><ele>770.0</ele><time>2026-04-04T11:37:57Z</time></trkpt><trkpt lat="42.13472860471975" lon="14.021434737568828"><ele>772.5</ele><time>2026-04-04T11:37:58Z</time></trkpt><trkpt lat="42.13473777739715" lon="14.021598561443717"><ele>775.0</ele><time>2026-04-04T11:37:59Z</time></trkpt><trkpt lat="42.134726327454594" lon="14.021763010365683"><ele>777.0</ele><time>2026-04-04T11:38:00Z</time></trkpt><trkpt lat="42.134689368629495" lon="14.0219197551814"><ele>779.0</ele><time>2026-04-04T11:38:01Z</time></trkpt><trkpt lat="42.13462575805202" lon="14.022067600629834"><ele>781.0</ele><time>2026-04-04T11:38:02Z</time></trkpt><trkpt lat="42.134538312183516" lon="14.022200853899363"><ele>783.0</ele><time>2026-04-04T11:38:03Z</time></trkpt><trkpt lat="42.134438211030755" lon="14.02231973336288"><ele>783.0</ele><time>2026-04-04T11:38:04Z</time></trkpt><trkpt lat="42.13433425298193" lon="14.022438776468894"><ele>783.0</ele><time>2026-04-04T11:38:05Z</time></trkpt><trkpt lat="42.134240323345196" lon="14.02253687135463"><ele>783.0</ele><time>2026-04-04T11:38:06Z</time></trkpt><trkpt lat="42.134156257851295" lon="14.022620207225403"><ele>783.0</ele><time>2026-04-04T11:38:07Z</time></trkpt><trkpt lat="42.13405403654585" lon="14.022685987154508"><ele>786.25</ele><time>2026-04-04T11:38:08Z</time></trkpt><trkpt lat="42.13393465028288" lon="14.022701275142222"><ele>789.5</ele><time>2026-04-04T11:38:09Z</time></trkpt><trkpt lat="42.13380754630969" lon="14.022683442029983"><ele>792.75</ele><time>2026-04-04T11:38:10Z</time></trkpt><trkpt lat="42.13367247264854" lon="14.022657355818854"><ele>796.0</ele><time>2026-04-04T11:38:11Z</time></trkpt><trkpt lat="42.13353119430033" lon="14.0226359846157"><ele>796.0</ele><time>2026-04-04T11:38:12Z</time></trkpt><trkpt lat="42.133386945020916" lon="14.022630338443847"><ele>796.0</ele><time>2026-04-04T11:38:13Z</time></trkpt><trkpt lat="42.1332392749872" lon="14.022637895172409"><ele>796.0</ele><time>2026-04-04T11:38:14Z</time></trkpt><trkpt lat="42.133099329161745" lon="14.022647475964892"><ele>796.0</ele><time>2026-04-04T11:38:15Z</time></trkpt><trkpt lat="42.13296408613218" lon="14.022648198251554"><ele>798.25</ele><time>2026-04-04T11:38:16Z</time></trkpt><trkpt lat="42.132826924412946" lon="14.022638899580082"><ele>800.5</ele><time>2026-04-04T11:38:17Z</time></trkpt><trkpt lat="42.13270762867968" lon="14.022626142522899"><ele>802.75</ele><time>2026-04-04T11:38:18Z</time></trkpt><trkpt lat="42.132587263183986" lon="14.022620222157437"><ele>805.0</ele><time>2026-04-04T11:38:19Z</time></trkpt><trkpt lat="42.132464690217404" lon="14.02259723164579"><ele>804.75</ele><time>2026-04-04T11:38:20Z</time></trkpt><trkpt lat="42.13233986286635" lon="14.02253100079974"><ele>804.5</ele><time>2026-04-04T11:38:21Z</time></trkpt><trkpt lat="42.13222656754211" lon="14.022423724331789"><ele>804.25</ele><time>2026-04-04T11:38:22Z</time></trkpt><trkpt lat="42.132132207600506" lon="14.022300809490924"><ele>804.0</ele><time>2026-04-04T11:38:23Z</time></trkpt><trkpt lat="42.132050184623075" lon="14.022197713852696"><ele>804.0</ele><time>2026-04-04T11:38:24Z</time></trkpt><trkpt lat="42.13195843589875" lon="14.022121913130805"><ele>804.0</ele><time>2026-04-04T11:38:25Z</time></trkpt><trkpt lat="42.13184838106742" lon="14.022055310432918"><ele>804.0</ele><time>2026-04-04T11:38:26Z</time></trkpt><trkpt lat="42.13172925408522" lon="14.022009335998323"><ele>804.0</ele><time>2026-04-04T11:38:27Z</time></trkpt><trkpt lat="42.1316103740992" lon="14.021989042843213"><ele>805.0</ele><time>2026-04-04T11:38:28Z</time></trkpt><trkpt lat="42.1314819566494" lon="14.021993807237237"><ele>806.0</ele><time>2026-04-04T11:38:29Z</time></trkpt><trkpt lat="42.131348501817044" lon="14.022017275709256"><ele>807.0</ele><time>2026-04-04T11:38:30Z</time></trkpt><trkpt lat="42.131205226034666" lon="14.022065340635105"><ele>808.0</ele><time>2026-04-04T11:38:31Z</time></trkpt><trkpt lat="42.1310636613109" lon="14.022106083466173"><ele>808.0</ele><time>2026-04-04T11:38:32Z</time></trkpt><trkpt lat="42.13091199652667" lon="14.022152152964459"><ele>808.0</ele><time>2026-04-04T11:38:33Z</time></trkpt><trkpt lat="42.13076414560983" lon="14.022200334416423"><ele>808.0</ele><time>2026-04-04T11:38:34Z</time></trkpt><trkpt lat="42.13060985249426" lon="14.02225899652582"><ele>807.6666666666666</ele><time>2026-04-04T11:38:35Z</time></trkpt><trkpt lat="42.130458178552004" lon="14.022305205432692"><ele>807.3333333333333</ele><time>2026-04-04T11:38:36Z</time></trkpt><trkpt lat="42.13030821889718" lon="14.022374617424907"><ele>807.0</ele><time>2026-04-04T11:38:37Z</time></trkpt><trkpt lat="42.13015812522975" lon="14.022449883565905"><ele>812.6666666666667</ele><time>2026-04-04T11:38:38Z</time></trkpt><trkpt lat="42.12999928855339" lon="14.022532278616158"><ele>818.3333333333334</ele><time>2026-04-04T11:38:39Z</time></trkpt><trkpt lat="42.12983776705133" lon="14.02261659831752"><ele>824.0</ele><time>2026-04-04T11:38:40Z</time></trkpt><trkpt lat="42.12966432379811" lon="14.022708220000935"><ele>824.0</ele><time>2026-04-04T11:38:41Z</time></trkpt><trkpt lat="42.12954589844191" lon="14.022773471229028"><ele>824.0</ele><time>2026-04-04T11:38:41.999Z</time></trkpt><trkpt lat="42.12940072807151" lon="14.022849103455208"><ele>824.0</ele><time>2026-04-04T11:38:42.999Z</time></trkpt><trkpt lat="42.12925178345117" lon="14.022918950681916"><ele>824.0</ele><time>2026-04-04T11:38:43.999Z</time></trkpt><trkpt lat="42.129090873093425" lon="14.022977033262862"><ele>823.3333333333334</ele><time>2026-04-04T11:38:44.999Z</time></trkpt><trkpt lat="42.12895849734657" lon="14.022999961140714"><ele>822.6666666666667</ele><time>2026-04-04T11:38:45.999Z</time></trkpt><trkpt lat="42.12879499325186" lon="14.023020631014733"><ele>822.0</ele><time>2026-04-04T11:38:46.999Z</time></trkpt><trkpt lat="42.128621793155205" lon="14.023045111131173"><ele>822.0</ele><time>2026-04-04T11:38:47.999Z</time></trkpt><trkpt lat="42.12845639836455" lon="14.023074258970908"><ele>822.0</ele><time>2026-04-04T11:38:48.999Z</time></trkpt><trkpt lat="42.12831494492807" lon="14.023101012504899"><ele>822.0</ele><time>2026-04-04T11:38:49.999Z</time></trkpt><trkpt lat="42.12818474396396" lon="14.023141912202483"><ele>822.0</ele><time>2026-04-04T11:38:50.999Z</time></trkpt><trkpt lat="42.12805925955951" lon="14.02315948997036"><ele>820.5</ele><time>2026-04-04T11:38:51.999Z</time></trkpt><trkpt lat="42.12794113120296" lon="14.023176448000445"><ele>819.0</ele><time>2026-04-04T11:38:52.999Z</time></trkpt><trkpt lat="42.127837130779945" lon="14.023204595796182"><ele>817.5</ele><time>2026-04-04T11:38:53.999Z</time></trkpt><trkpt lat="42.12772355073241" lon="14.023259707404321"><ele>816.0</ele><time>2026-04-04T11:38:54.999Z</time></trkpt><trkpt lat="42.12761103932588" lon="14.02334602618828"><ele>819.8</ele><time>2026-04-04T11:38:55.999Z</time></trkpt><trkpt lat="42.127514492457216" lon="14.023427938979582"><ele>823.5999999999999</ele><time>2026-04-04T11:38:56.999Z</time></trkpt><trkpt lat="42.12743855876377" lon="14.023505795072"><ele>827.4</ele><time>2026-04-04T11:38:57.999Z</time></trkpt><trkpt lat="42.12738112379306" lon="14.023576929740363"><ele>831.2</ele><time>2026-04-04T11:38:58.999Z</time></trkpt><trkpt lat="42.12735023156185" lon="14.02367480003278"><ele>835.0</ele><time>2026-04-04T11:38:59.999Z</time></trkpt><trkpt lat="42.127346181509004" lon="14.023786941915564"><ele>835.0</ele><time>2026-04-04T11:39:00.999Z</time></trkpt><trkpt lat="42.12736866501371" lon="14.023905549648742"><ele>835.0</ele><time>2026-04-04T11:39:01.999Z</time></trkpt><trkpt lat="42.127415159804805" lon="14.024030503546657"><ele>835.0</ele><time>2026-04-04T11:39:02.999Z</time></trkpt><trkpt lat="42.12746221396655" lon="14.024171204597057"><ele>835.0</ele><time>2026-04-04T11:39:03.999Z</time></trkpt><trkpt lat="42.12749625256137" lon="14.02430918030074"><ele>835.0</ele><time>2026-04-04T11:39:04.999Z</time></trkpt><trkpt lat="42.12750714154556" lon="14.024462685453656"><ele>840.75</ele><time>2026-04-04T11:39:05.999Z</time></trkpt><trkpt lat="42.12750986105068" lon="14.024598145769609"><ele>846.5</ele><time>2026-04-04T11:39:06.999Z</time></trkpt><trkpt lat="42.12751441159369" lon="14.024766679389492"><ele>852.25</ele><time>2026-04-04T11:39:07.999Z</time></trkpt><trkpt lat="42.12751965760321" lon="14.024929107789738"><ele>858.0</ele><time>2026-04-04T11:39:08.999Z</time></trkpt><trkpt lat="42.127513753633075" lon="14.025079856562359"><ele>858.4</ele><time>2026-04-04T11:39:09.999Z</time></trkpt><trkpt lat="42.127516072562784" lon="14.025208180579721"><ele>858.8</ele><time>2026-04-04T11:39:10.999Z</time></trkpt><trkpt lat="42.12748954827074" lon="14.025324448194231"><ele>859.2</ele><time>2026-04-04T11:39:11.999Z</time></trkpt><trkpt lat="42.12746827136155" lon="14.02543682033404"><ele>859.6</ele><time>2026-04-04T11:39:12.999Z</time></trkpt><trkpt lat="42.12743636059827" lon="14.025552438627798"><ele>860.0</ele><time>2026-04-04T11:39:13.999Z</time></trkpt><trkpt lat="42.12739989373906" lon="14.025675262071202"><ele>859.2</ele><time>2026-04-04T11:39:14.999Z</time></trkpt><trkpt lat="42.127361635078756" lon="14.025804470193485"><ele>858.4</ele><time>2026-04-04T11:39:15.999Z</time></trkpt><trkpt lat="42.12732514352357" lon="14.025927710287986"><ele>857.5999999999999</ele><time>2026-04-04T11:39:16.999Z</time></trkpt><trkpt lat="42.12730024682893" lon="14.026041817597125"><ele>856.8</ele><time>2026-04-04T11:39:17.999Z</time></trkpt><trkpt lat="42.127264497462164" lon="14.026149693773075"><ele>856.0</ele><time>2026-04-04T11:39:18.999Z</time></trkpt><trkpt lat="42.1272296663122" lon="14.026259675959178"><ele>855.9999999999999</ele><time>2026-04-04T11:39:19.999Z</time></trkpt><trkpt lat="42.12719315621606" lon="14.026347263008528"><ele>856.0</ele><time>2026-04-04T11:39:20.999Z</time></trkpt><trkpt lat="42.127158990939364" lon="14.026439550574816"><ele>856.0</ele><time>2026-04-04T11:39:21.999Z</time></trkpt><trkpt lat="42.12713954620039" lon="14.026521024751768"><ele>856.0</ele><time>2026-04-04T11:39:22.999Z</time></trkpt><trkpt lat="42.12702129000865" lon="14.026562395789115"><ele>855.9999999999999</ele><time>2026-04-04T11:39:24.999Z</time></trkpt><trkpt lat="42.12695765572436" lon="14.026599529930692"><ele>856.0</ele><time>2026-04-04T11:39:25.999Z</time></trkpt><trkpt lat="42.12688474468418" lon="14.026614735871146"><ele>855.9999999999999</ele><time>2026-04-04T11:39:26.999Z</time></trkpt><trkpt lat="42.12680300425381" lon="14.026636619079863"><ele>856.0</ele><time>2026-04-04T11:39:27.999Z</time></trkpt><trkpt lat="42.12671244785281" lon="14.0266372300568"><ele>856.0</ele><time>2026-04-04T11:39:28.999Z</time></trkpt><trkpt lat="42.126620796779854" lon="14.026659226337154"><ele>856.0</ele><time>2026-04-04T11:39:29.999Z</time></trkpt><trkpt lat="42.126534992886256" lon="14.02667982092213"><ele>855.9999999999999</ele><time>2026-04-04T11:39:30.999Z</time></trkpt><trkpt lat="42.126458499117625" lon="14.026698179438197"><ele>856.0</ele><time>2026-04-04T11:39:31.999Z</time></trkpt><trkpt lat="42.12636931150419" lon="14.026719984477682"><ele>857.6666666666666</ele><time>2026-04-04T11:39:32.999Z</time></trkpt><trkpt lat="42.12629843471926" lon="14.026758874630318"><ele>859.3333333333333</ele><time>2026-04-04T11:39:33.999Z</time></trkpt><trkpt lat="42.126223112420966" lon="14.026776307659118"><ele>861.0</ele><time>2026-04-04T11:39:34.999Z</time></trkpt><trkpt lat="42.12615209813809" lon="14.026791798830962"><ele>862.6666666666667</ele><time>2026-04-04T11:39:35.999Z</time></trkpt><trkpt lat="42.12608134438018" lon="14.026788585963175"><ele>864.3333333333334</ele><time>2026-04-04T11:39:36.999Z</time></trkpt><trkpt lat="42.12601083620676" lon="14.02680380278677"><ele>866.0</ele><time>2026-04-04T11:39:37.999Z</time></trkpt><trkpt lat="42.12590267412923" lon="14.026801147069898"><ele>866.0000000000001</ele><time>2026-04-04T11:39:39.999Z</time></trkpt><trkpt lat="42.12581868204085" lon="14.026707084371305"><ele>866.0</ele><time>2026-04-04T11:39:41.998Z</time></trkpt><trkpt lat="42.125761803252296" lon="14.026639671768436"><ele>866.0</ele><time>2026-04-04T11:39:42.998Z</time></trkpt><trkpt lat="42.12569419667568" lon="14.026559944292831"><ele>866.0</ele><time>2026-04-04T11:39:43.998Z</time></trkpt><trkpt lat="42.12563217881735" lon="14.026486807418795"><ele>866.0000000000001</ele><time>2026-04-04T11:39:44.998Z</time></trkpt><trkpt lat="42.12557528679688" lon="14.02641971580363"><ele>866.0</ele><time>2026-04-04T11:39:45.998Z</time></trkpt><trkpt lat="42.12552564540207" lon="14.026361175202252"><ele>865.5000000000001</ele><time>2026-04-04T11:39:46.998Z</time></trkpt><trkpt lat="42.12545362148364" lon="14.026320327811673"><ele>865.0</ele><time>2026-04-04T11:39:47.998Z</time></trkpt><trkpt lat="42.12536888096909" lon="14.02632841456608"><ele>864.5</ele><time>2026-04-04T11:39:48.998Z</time></trkpt><trkpt lat="42.12529848702695" lon="14.026353032413978"><ele>864.0</ele><time>2026-04-04T11:39:49.998Z</time></trkpt><trkpt lat="42.12522197010763" lon="14.026369629495658"><ele>863.5000000000001</ele><time>2026-04-04T11:39:50.998Z</time></trkpt><trkpt lat="42.125147938042176" lon="14.026386886486728"><ele>863.0</ele><time>2026-04-04T11:39:52Z</time></trkpt><trkpt lat="42.125066868570805" lon="14.026395878812837"><ele>863.0000000000001</ele><time>2026-04-04T11:39:53Z</time></trkpt><trkpt lat="42.124981280704205" lon="14.026390993650327"><ele>863.0</ele><time>2026-04-04T11:39:54Z</time></trkpt><trkpt lat="42.1249093958474" lon="14.026377050916837"><ele>863.0</ele><time>2026-04-04T11:39:55Z</time></trkpt><trkpt lat="42.12484253377022" lon="14.026345765420444"><ele>863.0</ele><time>2026-04-04T11:39:56Z</time></trkpt><trkpt lat="42.124784674227996" lon="14.026307927785163"><ele>863.0000000000001</ele><time>2026-04-04T11:39:57Z</time></trkpt><trkpt lat="42.12468768272001" lon="14.026191239368918"><ele>863.0</ele><time>2026-04-04T11:39:59Z</time></trkpt><trkpt lat="42.124638683994796" lon="14.026114393642152"><ele>864.0000000000001</ele><time>2026-04-04T11:40:00Z</time></trkpt><trkpt lat="42.12458631473168" lon="14.026028575126256"><ele>865.0</ele><time>2026-04-04T11:40:01Z</time></trkpt><trkpt lat="42.124534701465116" lon="14.025935128940585"><ele>866.0</ele><time>2026-04-04T11:40:02Z</time></trkpt><trkpt lat="42.12448509039834" lon="14.02584773403168"><ele>867.0</ele><time>2026-04-04T11:40:03Z</time></trkpt><trkpt lat="42.12443680166345" lon="14.025764935466091"><ele>868.0000000000001</ele><time>2026-04-04T11:40:04Z</time></trkpt><trkpt lat="42.124377902136786" lon="14.025688175943218"><ele>869.0</ele><time>2026-04-04T11:40:05Z</time></trkpt><trkpt lat="42.12430123459798" lon="14.025642436681153"><ele>869.0000000000001</ele><time>2026-04-04T11:40:06Z</time></trkpt><trkpt lat="42.12423039493678" lon="14.02558107735197"><ele>869.0</ele><time>2026-04-04T11:40:07Z</time></trkpt><trkpt lat="42.1241625573788" lon="14.025529380597654"><ele>869.0</ele><time>2026-04-04T11:40:08Z</time></trkpt><trkpt lat="42.12410628818436" lon="14.02546373929526"><ele>869.0</ele><time>2026-04-04T11:40:09Z</time></trkpt><trkpt lat="42.12405823555711" lon="14.025379592046502"><ele>869.0000000000001</ele><time>2026-04-04T11:40:10Z</time></trkpt><trkpt lat="42.12405966617194" lon="14.02526322388303"><ele>869.0</ele><time>2026-04-04T11:40:11Z</time></trkpt><trkpt lat="42.124036470167525" lon="14.025157923049305"><ele>870.4000000000001</ele><time>2026-04-04T11:40:12Z</time></trkpt><trkpt lat="42.12400953694497" lon="14.025037738655369"><ele>871.8000000000001</ele><time>2026-04-04T11:40:13Z</time></trkpt><trkpt lat="42.1239726931662" lon="14.02492516212791"><ele>873.1999999999999</ele><time>2026-04-04T11:40:14Z</time></trkpt><trkpt lat="42.12389367043047" lon="14.024811846171453"><ele>874.5999999999999</ele><time>2026-04-04T11:40:15Z</time></trkpt><trkpt lat="42.123782652441285" lon="14.024716169133942"><ele>876.0</ele><time>2026-04-04T11:40:16Z</time></trkpt><trkpt lat="42.12370271195848" lon="14.024591581733315"><ele>876.0</ele><time>2026-04-04T11:40:17Z</time></trkpt><trkpt lat="42.1236188257966" lon="14.024492076262007"><ele>875.9999999999999</ele><time>2026-04-04T11:40:18Z</time></trkpt><trkpt lat="42.123536955510914" lon="14.02439748703314"><ele>875.9999999999999</ele><time>2026-04-04T11:40:19Z</time></trkpt><trkpt lat="42.12345833408864" lon="14.02430258306452"><ele>876.0</ele><time>2026-04-04T11:40:20Z</time></trkpt><trkpt lat="42.12338374407816" lon="14.024191879617184"><ele>876.0</ele><time>2026-04-04T11:40:21Z</time></trkpt><trkpt lat="42.123326953510805" lon="14.024066108150224"><ele>874.5</ele><time>2026-04-04T11:40:22Z</time></trkpt><trkpt lat="42.12328296118951" lon="14.02391777150464"><ele>873.0</ele><time>2026-04-04T11:40:23Z</time></trkpt><trkpt lat="42.1232444673434" lon="14.023739598872824"><ele>871.5</ele><time>2026-04-04T11:40:24Z</time></trkpt><trkpt lat="42.123210225559056" lon="14.02357155519739"><ele>870.0</ele><time>2026-04-04T11:40:25Z</time></trkpt><trkpt lat="42.12317162671637" lon="14.023424965156092"><ele>869.8</ele><time>2026-04-04T11:40:26Z</time></trkpt><trkpt lat="42.123147855248625" lon="14.023287524424742"><ele>869.6</ele><time>2026-04-04T11:40:27Z</time></trkpt><trkpt lat="42.1231229258339" lon="14.02315781852167"><ele>869.4000000000001</ele><time>2026-04-04T11:40:28Z</time></trkpt><trkpt lat="42.12309341211442" lon="14.02303535981988"><ele>869.2</ele><time>2026-04-04T11:40:29Z</time></trkpt><trkpt lat="42.12305219323193" lon="14.022923650397159"><ele>869.0</ele><time>2026-04-04T11:40:30Z</time></trkpt><trkpt lat="42.12299900462158" lon="14.022826485508078"><ele>869.0000000000001</ele><time>2026-04-04T11:40:31Z</time></trkpt><trkpt lat="42.12293233397067" lon="14.02274834280936"><ele>869.0</ele><time>2026-04-04T11:40:32Z</time></trkpt><trkpt lat="42.1228585448904" lon="14.022680886719835"><ele>869.0</ele><time>2026-04-04T11:40:33Z</time></trkpt><trkpt lat="42.12278096010954" lon="14.022630508217441"><ele>869.0</ele><time>2026-04-04T11:40:34Z</time></trkpt><trkpt lat="42.122703888138076" lon="14.022594192146775"><ele>869.0000000000001</ele><time>2026-04-04T11:40:35Z</time></trkpt><trkpt lat="42.12262531165368" lon="14.022566444328739"><ele>869.0</ele><time>2026-04-04T11:40:36Z</time></trkpt><trkpt lat="42.12255195469033" lon="14.022548583782498"><ele>869.0</ele><time>2026-04-04T11:40:37Z</time></trkpt><trkpt lat="42.12247782313157" lon="14.022551268371416"><ele>869.0000000000001</ele><time>2026-04-04T11:40:38Z</time></trkpt><trkpt lat="42.12239941101811" lon="14.022563747634333"><ele>869.0000000000001</ele><time>2026-04-04T11:40:39Z</time></trkpt><trkpt lat="42.122316455110145" lon="14.022591758474617"><ele>869.0</ele><time>2026-04-04T11:40:40Z</time></trkpt><trkpt lat="42.12223122461613" lon="14.02266411167759"><ele>869.0</ele><time>2026-04-04T11:40:41Z</time></trkpt><trkpt lat="42.12215195801802" lon="14.022774296460357"><ele>867.75</ele><time>2026-04-04T11:40:42Z</time></trkpt><trkpt lat="42.12207727908485" lon="14.022915371011543"><ele>866.5</ele><time>2026-04-04T11:40:43Z</time></trkpt><trkpt lat="42.12199389065879" lon="14.023064208074572"><ele>865.25</ele><time>2026-04-04T11:40:44Z</time></trkpt><trkpt lat="42.12190518742979" lon="14.023210437491526"><ele>864.0</ele><time>2026-04-04T11:40:45Z</time></trkpt><trkpt lat="42.121822585160125" lon="14.023344898242078"><ele>863.0</ele><time>2026-04-04T11:40:46Z</time></trkpt><trkpt lat="42.12174446848736" lon="14.023465766510748"><ele>862.0</ele><time>2026-04-04T11:40:47Z</time></trkpt><trkpt lat="42.12165042794821" lon="14.023557630811808"><ele>861.0</ele><time>2026-04-04T11:40:48Z</time></trkpt><trkpt lat="42.12157390800939" lon="14.023666867315672"><ele>860.0</ele><time>2026-04-04T11:40:49Z</time></trkpt><trkpt lat="42.12148736669552" lon="14.023749354746858"><ele>860.0</ele><time>2026-04-04T11:40:49.999Z</time></trkpt><trkpt lat="42.121416272960566" lon="14.023862828079281"><ele>860.0</ele><time>2026-04-04T11:40:50.999Z</time></trkpt><trkpt lat="42.12136925427325" lon="14.024012669610741"><ele>860.0</ele><time>2026-04-04T11:40:51.999Z</time></trkpt><trkpt lat="42.12132331388546" lon="14.024176354610244"><ele>860.0</ele><time>2026-04-04T11:40:52.999Z</time></trkpt><trkpt lat="42.121277503812266" lon="14.024346612393053"><ele>862.5</ele><time>2026-04-04T11:40:53.999Z</time></trkpt><trkpt lat="42.12123499215175" lon="14.024502939853628"><ele>865.0</ele><time>2026-04-04T11:40:54.999Z</time></trkpt><trkpt lat="42.12119030485598" lon="14.024641850163114"><ele>867.5</ele><time>2026-04-04T11:40:55.999Z</time></trkpt><trkpt lat="42.12111361013802" lon="14.024760209447729"><ele>870.0</ele><time>2026-04-04T11:40:56.999Z</time></trkpt><trkpt lat="42.1210193694743" lon="14.024852563285172"><ele>870.0</ele><time>2026-04-04T11:40:57.999Z</time></trkpt><trkpt lat="42.1209144165599" lon="14.024961278054889"><ele>870.0</ele><time>2026-04-04T11:40:58.999Z</time></trkpt><trkpt lat="42.1208283798499" lon="14.02506803404525"><ele>870.0</ele><time>2026-04-04T11:40:59.999Z</time></trkpt><trkpt lat="42.12074173434886" lon="14.025159651583547"><ele>870.0</ele><time>2026-04-04T11:41:00.999Z</time></trkpt><trkpt lat="42.12065941773672" lon="14.02526064941402"><ele>870.5</ele><time>2026-04-04T11:41:01.999Z</time></trkpt><trkpt lat="42.12058566704643" lon="14.025383481342498"><ele>871.0</ele><time>2026-04-04T11:41:02.999Z</time></trkpt><trkpt lat="42.12051428522122" lon="14.02552165830289"><ele>871.5</ele><time>2026-04-04T11:41:03.999Z</time></trkpt><trkpt lat="42.120446071868095" lon="14.02567691599259"><ele>872.0</ele><time>2026-04-04T11:41:04.999Z</time></trkpt><trkpt lat="42.12037672502842" lon="14.025835522205972"><ele>874.0</ele><time>2026-04-04T11:41:05.999Z</time></trkpt><trkpt lat="42.120304776730755" lon="14.025993996762443"><ele>876.0</ele><time>2026-04-04T11:41:06.999Z</time></trkpt><trkpt lat="42.120242352177975" lon="14.026140489497175"><ele>878.0</ele><time>2026-04-04T11:41:07.999Z</time></trkpt><trkpt lat="42.120182316708146" lon="14.026273686665597"><ele>880.0</ele><time>2026-04-04T11:41:08.999Z</time></trkpt><trkpt lat="42.12012380138609" lon="14.026402387451887"><ele>880.0</ele><time>2026-04-04T11:41:09.999Z</time></trkpt><trkpt lat="42.120060726352634" lon="14.026526061260519"><ele>880.0</ele><time>2026-04-04T11:41:10.999Z</time></trkpt><trkpt lat="42.119989112617304" lon="14.02663707915729"><ele>880.0</ele><time>2026-04-04T11:41:11.999Z</time></trkpt><trkpt lat="42.119896173213924" lon="14.026704307944124"><ele>880.0</ele><time>2026-04-04T11:41:12.999Z</time></trkpt><trkpt lat="42.119808026215686" lon="14.026788498921842"><ele>880.0</ele><time>2026-04-04T11:41:13.999Z</time></trkpt><trkpt lat="42.11970772974053" lon="14.026881201904231"><ele>881.25</ele><time>2026-04-04T11:41:14.999Z</time></trkpt><trkpt lat="42.11960049814732" lon="14.026979701501423"><ele>882.5</ele><time>2026-04-04T11:41:15.999Z</time></trkpt><trkpt lat="42.11950137296737" lon="14.027070754817961"><ele>883.75</ele><time>2026-04-04T11:41:16.999Z</time></trkpt><trkpt lat="42.11940987955527" lon="14.027155684483327"><ele>885.0</ele><time>2026-04-04T11:41:17.999Z</time></trkpt><trkpt lat="42.11932308707808" lon="14.027234169659637"><ele>885.0</ele><time>2026-04-04T11:41:18.999Z</time></trkpt><trkpt lat="42.119237678296535" lon="14.027297040433133"><ele>885.0</ele><time>2026-04-04T11:41:19.999Z</time></trkpt><trkpt lat="42.11915521161254" lon="14.027336138735011"><ele>885.0</ele><time>2026-04-04T11:41:20.999Z</time></trkpt><trkpt lat="42.11908388430941" lon="14.027341919491523"><ele>885.0</ele><time>2026-04-04T11:41:21.999Z</time></trkpt><trkpt lat="42.119015153071004" lon="14.027320445503157"><ele>885.0</ele><time>2026-04-04T11:41:22.999Z</time></trkpt><trkpt lat="42.11894088589646" lon="14.027270110092159"><ele>885.0</ele><time>2026-04-04T11:41:23.999Z</time></trkpt><trkpt lat="42.118895026029584" lon="14.02716233775073"><ele>885.0</ele><time>2026-04-04T11:41:24.999Z</time></trkpt><trkpt lat="42.11884082588642" lon="14.027027791231529"><ele>885.0</ele><time>2026-04-04T11:41:25.999Z</time></trkpt><trkpt lat="42.11877040917446" lon="14.02688504639772"><ele>885.0</ele><time>2026-04-04T11:41:26.999Z</time></trkpt><trkpt lat="42.118716110742916" lon="14.026728051056027"><ele>885.0</ele><time>2026-04-04T11:41:27.999Z</time></trkpt><trkpt lat="42.11865594675326" lon="14.026584780002059"><ele>885.0</ele><time>2026-04-04T11:41:28.999Z</time></trkpt><trkpt lat="42.11857945849162" lon="14.026451584373424"><ele>885.0</ele><time>2026-04-04T11:41:29.999Z</time></trkpt><trkpt lat="42.118503250214474" lon="14.026331011502478"><ele>885.0</ele><time>2026-04-04T11:41:30.999Z</time></trkpt><trkpt lat="42.11842088657337" lon="14.026219784946687"><ele>885.0</ele><time>2026-04-04T11:41:31.999Z</time></trkpt><trkpt lat="42.11831374326179" lon="14.026135829737312"><ele>886.8</ele><time>2026-04-04T11:41:32.999Z</time></trkpt><trkpt lat="42.11821247832151" lon="14.026045529664401"><ele>888.6</ele><time>2026-04-04T11:41:33.999Z</time></trkpt><trkpt lat="42.11811323051103" lon="14.02597809457718"><ele>890.4000000000001</ele><time>2026-04-04T11:41:34.999Z</time></trkpt><trkpt lat="42.11802145414205" lon="14.02591573602471"><ele>892.2</ele><time>2026-04-04T11:41:35.999Z</time></trkpt><trkpt lat="42.11793712315291" lon="14.025861246063245"><ele>894.0</ele><time>2026-04-04T11:41:36.999Z</time></trkpt><trkpt lat="42.117839649137764" lon="14.025837942316857"><ele>894.0</ele><time>2026-04-04T11:41:37.999Z</time></trkpt><trkpt lat="42.11773035766443" lon="14.025888082324927"><ele>894.0000000000001</ele><time>2026-04-04T11:41:38.999Z</time></trkpt><trkpt lat="42.117632549370065" lon="14.025890044146086"><ele>894.0000000000001</ele><time>2026-04-04T11:41:39.999Z</time></trkpt><trkpt lat="42.11754576976098" lon="14.025877941501182"><ele>894.0</ele><time>2026-04-04T11:41:40.999Z</time></trkpt><trkpt lat="42.117459201489154" lon="14.025817742087645"><ele>894.0</ele><time>2026-04-04T11:41:41.999Z</time></trkpt><trkpt lat="42.11736213366302" lon="14.025721707150629"><ele>893.8000000000001</ele><time>2026-04-04T11:41:42.999Z</time></trkpt><trkpt lat="42.117261510039384" lon="14.025612681514772"><ele>893.6000000000001</ele><time>2026-04-04T11:41:43.999Z</time></trkpt><trkpt lat="42.117188690400354" lon="14.025507281831732"><ele>893.4</ele><time>2026-04-04T11:41:44.999Z</time></trkpt><trkpt lat="42.117133704223896" lon="14.025414358119866"><ele>893.2</ele><time>2026-04-04T11:41:45.999Z</time></trkpt><trkpt lat="42.117083943629694" lon="14.025342677775484"><ele>893.0</ele><time>2026-04-04T11:41:46.999Z</time></trkpt><trkpt lat="42.1170427652321" lon="14.02526807833826"><ele>893.0000000000001</ele><time>2026-04-04T11:41:47.999Z</time></trkpt><trkpt lat="42.11699979820008" lon="14.025199857494624"><ele>893.0</ele><time>2026-04-04T11:41:48.999Z</time></trkpt><trkpt lat="42.11691792417079" lon="14.025184600172478"><ele>893.0</ele><time>2026-04-04T11:41:49.998Z</time></trkpt><trkpt lat="42.116838426739704" lon="14.025187811989877"><ele>893.0</ele><time>2026-04-04T11:41:50.998Z</time></trkpt><trkpt lat="42.11675766845976" lon="14.025212003963851"><ele>893.0000000000001</ele><time>2026-04-04T11:41:51.998Z</time></trkpt><trkpt lat="42.116686881470365" lon="14.025256986715906"><ele>893.0</ele><time>2026-04-04T11:41:52.998Z</time></trkpt><trkpt lat="42.11661470925897" lon="14.025322385850474"><ele>896.2</ele><time>2026-04-04T11:41:53.998Z</time></trkpt><trkpt lat="42.116539851434034" lon="14.025401799212764"><ele>899.4</ele><time>2026-04-04T11:41:54.998Z</time></trkpt><trkpt lat="42.11646645654856" lon="14.025506985382638"><ele>902.6000000000001</ele><time>2026-04-04T11:41:55.998Z</time></trkpt><trkpt lat="42.11639502282669" lon="14.025575760967307"><ele>905.8000000000001</ele><time>2026-04-04T11:41:57Z</time></trkpt><trkpt lat="42.116338175522586" lon="14.025637563757243"><ele>909.0</ele><time>2026-04-04T11:41:58Z</time></trkpt><trkpt lat="42.116220066754494" lon="14.025618979769202"><ele>909.0</ele><time>2026-04-04T11:42:00Z</time></trkpt><trkpt lat="42.11616540101182" lon="14.025556016679785"><ele>909.0000000000001</ele><time>2026-04-04T11:42:01Z</time></trkpt><trkpt lat="42.11609545621236" lon="14.025471957805147"><ele>909.0000000000001</ele><time>2026-04-04T11:42:02Z</time></trkpt><trkpt lat="42.11606776468752" lon="14.025338972423123"><ele>909.0</ele><time>2026-04-04T11:42:03Z</time></trkpt><trkpt lat="42.11606334983265" lon="14.02521127605684"><ele>909.0</ele><time>2026-04-04T11:42:04Z</time></trkpt><trkpt lat="42.116082171685875" lon="14.025093408547558"><ele>909.0</ele><time>2026-04-04T11:42:05Z</time></trkpt><trkpt lat="42.11608905218052" lon="14.024982127948252"><ele>909.0</ele><time>2026-04-04T11:42:06Z</time></trkpt><trkpt lat="42.11605071555647" lon="14.024825136760619"><ele>909.0</ele><time>2026-04-04T11:42:07Z</time></trkpt><trkpt lat="42.11598124469472" lon="14.024686866731177"><ele>909.0</ele><time>2026-04-04T11:42:08Z</time></trkpt><trkpt lat="42.11588730050321" lon="14.024556292526118"><ele>907.0</ele><time>2026-04-04T11:42:09Z</time></trkpt><trkpt lat="42.1158005861758" lon="14.02443567936283"><ele>905.0</ele><time>2026-04-04T11:42:10Z</time></trkpt><trkpt lat="42.115721272030186" lon="14.024310028599388"><ele>903.0</ele><time>2026-04-04T11:42:11Z</time></trkpt><trkpt lat="42.11568397206551" lon="14.024160396525707"><ele>901.0</ele><time>2026-04-04T11:42:12Z</time></trkpt><trkpt lat="42.11564005234363" lon="14.024025851363277"><ele>901.0</ele><time>2026-04-04T11:42:13Z</time></trkpt><trkpt lat="42.1155807128777" lon="14.023917222474452"><ele>900.9999999999999</ele><time>2026-04-04T11:42:14Z</time></trkpt><trkpt lat="42.11551913491313" lon="14.023820374960533"><ele>900.9999999999999</ele><time>2026-04-04T11:42:15Z</time></trkpt><trkpt lat="42.115418286159816" lon="14.023752398288744"><ele>901.0</ele><time>2026-04-04T11:42:16Z</time></trkpt><trkpt lat="42.1152958673153" lon="14.023723125837614"><ele>901.0</ele><time>2026-04-04T11:42:17Z</time></trkpt><trkpt lat="42.11516130900655" lon="14.02370206047375"><ele>901.0</ele><time>2026-04-04T11:42:18Z</time></trkpt><trkpt lat="42.1150215519425" lon="14.023672057805628"><ele>901.0</ele><time>2026-04-04T11:42:19Z</time></trkpt><trkpt lat="42.114877299833054" lon="14.023631901102089"><ele>901.0</ele><time>2026-04-04T11:42:20Z</time></trkpt><trkpt lat="42.11474390048985" lon="14.023585521058052"><ele>901.0</ele><time>2026-04-04T11:42:21Z</time></trkpt><trkpt lat="42.1146307239108" lon="14.023529796721977"><ele>903.4</ele><time>2026-04-04T11:42:22Z</time></trkpt><trkpt lat="42.11451696296706" lon="14.023514758141875"><ele>905.8</ele><time>2026-04-04T11:42:23Z</time></trkpt><trkpt lat="42.11441480526125" lon="14.023483971421408"><ele>908.1999999999999</ele><time>2026-04-04T11:42:24Z</time></trkpt><trkpt lat="42.11431589921452" lon="14.023476062471797"><ele>910.5999999999999</ele><time>2026-04-04T11:42:25Z</time></trkpt><trkpt lat="42.11422334629244" lon="14.023502298124795"><ele>913.0</ele><time>2026-04-04T11:42:26Z</time></trkpt><trkpt lat="42.11412988497623" lon="14.023568680808252"><ele>914.5999999999999</ele><time>2026-04-04T11:42:27Z</time></trkpt><trkpt lat="42.1140401886511" lon="14.023672648504181"><ele>916.1999999999999</ele><time>2026-04-04T11:42:28Z</time></trkpt><trkpt lat="42.113961282596506" lon="14.023787291595015"><ele>917.8</ele><time>2026-04-04T11:42:29Z</time></trkpt><trkpt lat="42.11388760978429" lon="14.02387103370873"><ele>919.4</ele><time>2026-04-04T11:42:30Z</time></trkpt><trkpt lat="42.113814476685455" lon="14.023930388713456"><ele>921.0</ele><time>2026-04-04T11:42:31Z</time></trkpt><trkpt lat="42.113753671911375" lon="14.023989051888961"><ele>921.0</ele><time>2026-04-04T11:42:32Z</time></trkpt><trkpt lat="42.11370627462528" lon="14.024048578231625"><ele>921.0</ele><time>2026-04-04T11:42:33Z</time></trkpt><trkpt lat="42.113603261298145" lon="14.02400742494376"><ele>921.0</ele><time>2026-04-04T11:42:35Z</time></trkpt><trkpt lat="42.113551952832736" lon="14.02389074610863"><ele>921.0</ele><time>2026-04-04T11:42:37Z</time></trkpt><trkpt lat="42.113502060965374" lon="14.023820272531669"><ele>921.0</ele><time>2026-04-04T11:42:38Z</time></trkpt><trkpt lat="42.113459593037014" lon="14.02372850859594"><ele>921.0</ele><time>2026-04-04T11:42:39Z</time></trkpt><trkpt lat="42.11340049093143" lon="14.023638993676984"><ele>921.0</ele><time>2026-04-04T11:42:40Z</time></trkpt><trkpt lat="42.11332239472047" lon="14.023565250391163"><ele>920.9999999999999</ele><time>2026-04-04T11:42:41Z</time></trkpt><trkpt lat="42.113226087868824" lon="14.023526280040388"><ele>920.9999999999999</ele><time>2026-04-04T11:42:42Z</time></trkpt><trkpt lat="42.113127118892464" lon="14.023512671157311"><ele>921.0</ele><time>2026-04-04T11:42:43Z</time></trkpt><trkpt lat="42.1130407603443" lon="14.023470447823458"><ele>921.0</ele><time>2026-04-04T11:42:44Z</time></trkpt><trkpt lat="42.112962287610934" lon="14.02343981075521"><ele>921.8333333333334</ele><time>2026-04-04T11:42:45Z</time></trkpt><trkpt lat="42.11288783306333" lon="14.023417540184056"><ele>922.6666666666667</ele><time>2026-04-04T11:42:46Z</time></trkpt><trkpt lat="42.112832603164264" lon="14.023365825158159"><ele>923.5</ele><time>2026-04-04T11:42:47Z</time></trkpt><trkpt lat="42.11280605827622" lon="14.023287042953914"><ele>924.3333333333334</ele><time>2026-04-04T11:42:48Z</time></trkpt><trkpt lat="42.11272033342569" lon="14.023188403682576"><ele>925.1666666666667</ele><time>2026-04-04T11:42:50Z</time></trkpt><trkpt lat="42.11262516562155" lon="14.023101959902155"><ele>926.0</ele><time>2026-04-04T11:42:52Z</time></trkpt><trkpt lat="42.112511637269215" lon="14.02311183336824"><ele>925.8333333333334</ele><time>2026-04-04T11:42:54Z</time></trkpt><trkpt lat="42.112466646203664" lon="14.023187126386404"><ele>925.6666666666667</ele><time>2026-04-04T11:42:55Z</time></trkpt><trkpt lat="42.112378027035" lon="14.023281873130683"><ele>925.5</ele><time>2026-04-04T11:42:57Z</time></trkpt><trkpt lat="42.11227212566036" lon="14.023359233560544"><ele>925.3333333333333</ele><time>2026-04-04T11:42:58.999Z</time></trkpt><trkpt lat="42.11221686776678" lon="14.023401209777488"><ele>925.1666666666666</ele><time>2026-04-04T11:42:59.999Z</time></trkpt><trkpt lat="42.11214957565808" lon="14.023452399961542"><ele>925.0</ele><time>2026-04-04T11:43:00.999Z</time></trkpt><trkpt lat="42.11207548076049" lon="14.023508765445333"><ele>925.6666666666666</ele><time>2026-04-04T11:43:01.999Z</time></trkpt><trkpt lat="42.11199811725003" lon="14.02357126387927"><ele>926.3333333333333</ele><time>2026-04-04T11:43:02.999Z</time></trkpt><trkpt lat="42.111922083485354" lon="14.023643832190333"><ele>927.0</ele><time>2026-04-04T11:43:03.999Z</time></trkpt><trkpt lat="42.111858599086275" lon="14.023720520857342"><ele>927.6666666666667</ele><time>2026-04-04T11:43:04.999Z</time></trkpt><trkpt lat="42.111795772208175" lon="14.023798166367826"><ele>928.3333333333334</ele><time>2026-04-04T11:43:05.999Z</time></trkpt><trkpt lat="42.11173104879617" lon="14.023875577958965"><ele>929.0</ele><time>2026-04-04T11:43:06.999Z</time></trkpt><trkpt lat="42.111664989282666" lon="14.023954587566832"><ele>929.0000000000001</ele><time>2026-04-04T11:43:07.999Z</time></trkpt><trkpt lat="42.11160225204979" lon="14.024033046109837"><ele>929.0</ele><time>2026-04-04T11:43:08.999Z</time></trkpt><trkpt lat="42.11154163072227" lon="14.024095844108187"><ele>929.0</ele><time>2026-04-04T11:43:09.999Z</time></trkpt><trkpt lat="42.111486256033714" lon="14.02414714144062"><ele>929.0</ele><time>2026-04-04T11:43:10.999Z</time></trkpt><trkpt lat="42.11138598483007" lon="14.024205741450885"><ele>929.0000000000001</ele><time>2026-04-04T11:43:12.999Z</time></trkpt><trkpt lat="42.11129100713098" lon="14.024190548895806"><ele>929.0</ele><time>2026-04-04T11:43:14.999Z</time></trkpt><trkpt lat="42.111228993464124" lon="14.024041691929778"><ele>931.2</ele><time>2026-04-04T11:43:16.999Z</time></trkpt><trkpt lat="42.11120342421979" lon="14.023927380730816"><ele>933.4000000000001</ele><time>2026-04-04T11:43:17.999Z</time></trkpt><trkpt lat="42.111203900487254" lon="14.023790512571304"><ele>935.6</ele><time>2026-04-04T11:43:18.999Z</time></trkpt><trkpt lat="42.11120629475087" lon="14.02364467293017"><ele>937.8</ele><time>2026-04-04T11:43:19.999Z</time></trkpt><trkpt lat="42.111206953377106" lon="14.02348945848599"><ele>940.0</ele><time>2026-04-04T11:43:20.999Z</time></trkpt><trkpt lat="42.11120337946296" lon="14.023326111125822"><ele>939.6</ele><time>2026-04-04T11:43:21.999Z</time></trkpt><trkpt lat="42.11120100015369" lon="14.0231775418517"><ele>939.2</ele><time>2026-04-04T11:43:22.999Z</time></trkpt><trkpt lat="42.11120039967304" lon="14.023044943909914"><ele>938.8</ele><time>2026-04-04T11:43:23.999Z</time></trkpt><trkpt lat="42.111201931355005" lon="14.022923086856723"><ele>938.4</ele><time>2026-04-04T11:43:24.999Z</time></trkpt><trkpt lat="42.11119664149009" lon="14.022812205915276"><ele>938.0</ele><time>2026-04-04T11:43:25.999Z</time></trkpt><trkpt lat="42.111182355342336" lon="14.022713306720405"><ele>938.0000000000001</ele><time>2026-04-04T11:43:26.999Z</time></trkpt><trkpt lat="42.11115130428965" lon="14.022625033582337"><ele>938.0</ele><time>2026-04-04T11:43:27.999Z</time></trkpt><trkpt lat="42.11109519009902" lon="14.022554611765447"><ele>938.0</ele><time>2026-04-04T11:43:28.999Z</time></trkpt><trkpt lat="42.111023122404134" lon="14.022513375502006"><ele>938.0</ele><time>2026-04-04T11:43:29.999Z</time></trkpt><trkpt lat="42.11093831670261" lon="14.02250402283565"><ele>938.0000000000001</ele><time>2026-04-04T11:43:30.999Z</time></trkpt><trkpt lat="42.11084457927214" lon="14.02249958081805"><ele>938.0</ele><time>2026-04-04T11:43:31.999Z</time></trkpt><trkpt lat="42.11074945057211" lon="14.02256976874085"><ele>937.5</ele><time>2026-04-04T11:43:32.999Z</time></trkpt><trkpt lat="42.11064818453033" lon="14.022638569997415"><ele>937.0</ele><time>2026-04-04T11:43:33.999Z</time></trkpt><trkpt lat="42.110525676180195" lon="14.022700291975047"><ele>936.5</ele><time>2026-04-04T11:43:34.999Z</time></trkpt><trkpt lat="42.11041934654411" lon="14.022774714360663"><ele>936.0</ele><time>2026-04-04T11:43:35.999Z</time></trkpt><trkpt lat="42.110324186281986" lon="14.022842181147862"><ele>936.0</ele><time>2026-04-04T11:43:36.999Z</time></trkpt><trkpt lat="42.110233118461615" lon="14.022923556140183"><ele>936.0</ele><time>2026-04-04T11:43:37.999Z</time></trkpt><trkpt lat="42.1101586369926" lon="14.023061288497363"><ele>936.0</ele><time>2026-04-04T11:43:38.999Z</time></trkpt><trkpt lat="42.1100639307429" lon="14.023193345657356"><ele>936.0</ele><time>2026-04-04T11:43:39.999Z</time></trkpt><trkpt lat="42.10999263566221" lon="14.023345472172036"><ele>937.4</ele><time>2026-04-04T11:43:40.999Z</time></trkpt><trkpt lat="42.109938584617666" lon="14.023478262450933"><ele>938.8</ele><time>2026-04-04T11:43:41.999Z</time></trkpt><trkpt lat="42.10989642583311" lon="14.023580049849524"><ele>940.1999999999999</ele><time>2026-04-04T11:43:42.999Z</time></trkpt><trkpt lat="42.10980709391127" lon="14.02366109413519"><ele>941.5999999999999</ele><time>2026-04-04T11:43:44.999Z</time></trkpt><trkpt lat="42.109706901538885" lon="14.023587419581833"><ele>943.0</ele><time>2026-04-04T11:43:46.999Z</time></trkpt><trkpt lat="42.10965631729505" lon="14.023508990732315"><ele>943.8</ele><time>2026-04-04T11:43:47.999Z</time></trkpt><trkpt lat="42.10959064031273" lon="14.023411141175359"><ele>944.5999999999999</ele><time>2026-04-04T11:43:48.999Z</time></trkpt><trkpt lat="42.10951815389905" lon="14.023320866948653"><ele>945.4000000000001</ele><time>2026-04-04T11:43:49.999Z</time></trkpt><trkpt lat="42.10943485930157" lon="14.023259536211551"><ele>946.2</ele><time>2026-04-04T11:43:50.999Z</time></trkpt><trkpt lat="42.10935242441266" lon="14.023198197222193"><ele>947.0</ele><time>2026-04-04T11:43:51.999Z</time></trkpt><trkpt lat="42.10926020075079" lon="14.023163392136718"><ele>945.8</ele><time>2026-04-04T11:43:52.999Z</time></trkpt><trkpt lat="42.109178401040054" lon="14.023145700545816"><ele>944.6</ele><time>2026-04-04T11:43:53.999Z</time></trkpt><trkpt lat="42.109097016552646" lon="14.023126134903377"><ele>943.3999999999999</ele><time>2026-04-04T11:43:54.999Z</time></trkpt><trkpt lat="42.108999893273264" lon="14.02318328631604"><ele>942.1999999999999</ele><time>2026-04-04T11:43:55.999Z</time></trkpt><trkpt lat="42.10890646153072" lon="14.023260733437402"><ele>941.0</ele><time>2026-04-04T11:43:56.999Z</time></trkpt><trkpt lat="42.10879845535287" lon="14.02330512108057"><ele>941.0</ele><time>2026-04-04T11:43:57.999Z</time></trkpt><trkpt lat="42.10867905936301" lon="14.023317653316678"><ele>941.0</ele><time>2026-04-04T11:43:58.998Z</time></trkpt><trkpt lat="42.10853527800028" lon="14.023337143428094"><ele>941.0</ele><time>2026-04-04T11:43:59.998Z</time></trkpt><trkpt lat="42.108404605556345" lon="14.02333583252869"><ele>941.0</ele><time>2026-04-04T11:44:00.998Z</time></trkpt><trkpt lat="42.108295356178644" lon="14.023311322733521"><ele>941.5</ele><time>2026-04-04T11:44:01.998Z</time></trkpt><trkpt lat="42.108189084952905" lon="14.023286793929541"><ele>942.0</ele><time>2026-04-04T11:44:03Z</time></trkpt><trkpt lat="42.1080853649671" lon="14.023283134921666"><ele>942.5</ele><time>2026-04-04T11:44:04Z</time></trkpt><trkpt lat="42.10797265651486" lon="14.023292207425758"><ele>943.0</ele><time>2026-04-04T11:44:05Z</time></trkpt><trkpt lat="42.10784608891786" lon="14.02334552117993"><ele>945.0</ele><time>2026-04-04T11:44:06Z</time></trkpt><trkpt lat="42.10771703444989" lon="14.02341232502603"><ele>947.0</ele><time>2026-04-04T11:44:07Z</time></trkpt><trkpt lat="42.10758721624267" lon="14.023479484639159"><ele>949.0</ele><time>2026-04-04T11:44:08Z</time></trkpt><trkpt lat="42.10746324854859" lon="14.023541709225082"><ele>951.0</ele><time>2026-04-04T11:44:09Z</time></trkpt><trkpt lat="42.10735671215735" lon="14.023597542486712"><ele>951.0</ele><time>2026-04-04T11:44:10Z</time></trkpt><trkpt lat="42.107260581549916" lon="14.023652272206883"><ele>951.0</ele><time>2026-04-04T11:44:11Z</time></trkpt><trkpt lat="42.10716589374865" lon="14.023721110916146"><ele>951.0</ele><time>2026-04-04T11:44:12Z</time></trkpt><trkpt lat="42.1070720140193" lon="14.02382634746899"><ele>951.0</ele><time>2026-04-04T11:44:13Z</time></trkpt><trkpt lat="42.106993419944324" lon="14.023978667853882"><ele>951.0</ele><time>2026-04-04T11:44:14Z</time></trkpt><trkpt lat="42.10687790124869" lon="14.024097131673773"><ele>951.0</ele><time>2026-04-04T11:44:15Z</time></trkpt><trkpt lat="42.10677186309121" lon="14.02423057335434"><ele>951.0</ele><time>2026-04-04T11:44:16Z</time></trkpt><trkpt lat="42.106683324359636" lon="14.024341993218444"><ele>951.0</ele><time>2026-04-04T11:44:17Z</time></trkpt><trkpt lat="42.10660123962884" lon="14.024444300805207"><ele>951.5</ele><time>2026-04-04T11:44:18Z</time></trkpt><trkpt lat="42.10651442566932" lon="14.024546734788503"><ele>952.0</ele><time>2026-04-04T11:44:19Z</time></trkpt><trkpt lat="42.10642272651524" lon="14.024652121060004"><ele>952.5</ele><time>2026-04-04T11:44:20Z</time></trkpt><trkpt lat="42.10632779462722" lon="14.0247609536719"><ele>953.0</ele><time>2026-04-04T11:44:21Z</time></trkpt><trkpt lat="42.10622851556124" lon="14.024874290595143"><ele>955.75</ele><time>2026-04-04T11:44:22Z</time></trkpt><trkpt lat="42.10612063512211" lon="14.024983811407317"><ele>958.5</ele><time>2026-04-04T11:44:23Z</time></trkpt><trkpt lat="42.10600167992425" lon="14.025090214071719"><ele>961.25</ele><time>2026-04-04T11:44:24Z</time></trkpt><trkpt lat="42.10589261151206" lon="14.025184809024053"><ele>964.0</ele><time>2026-04-04T11:44:25Z</time></trkpt><trkpt lat="42.10579505622358" lon="14.025267307502684"><ele>963.4000000000001</ele><time>2026-04-04T11:44:26Z</time></trkpt><trkpt lat="42.10570044724068" lon="14.025344314825535"><ele>962.8000000000001</ele><time>2026-04-04T11:44:27Z</time></trkpt><trkpt lat="42.10560429357248" lon="14.025419023958479"><ele>962.1999999999999</ele><time>2026-04-04T11:44:28Z</time></trkpt><trkpt lat="42.10550721414268" lon="14.025491276608836"><ele>961.5999999999999</ele><time>2026-04-04T11:44:29Z</time></trkpt><trkpt lat="42.10541703160574" lon="14.025547690549356"><ele>961.0</ele><time>2026-04-04T11:44:30Z</time></trkpt><trkpt lat="42.1053403021263" lon="14.025580304779197"><ele>961.0</ele><time>2026-04-04T11:44:31Z</time></trkpt><trkpt lat="42.105214089876384" lon="14.025544373272792"><ele>960.9999999999999</ele><time>2026-04-04T11:44:33Z</time></trkpt><trkpt lat="42.105139780538636" lon="14.025474720054998"><ele>960.9999999999999</ele><time>2026-04-04T11:44:34Z</time></trkpt><trkpt lat="42.10504459879806" lon="14.025403288368357"><ele>961.0</ele><time>2026-04-04T11:44:35Z</time></trkpt><trkpt lat="42.10494308455146" lon="14.025326228672323"><ele>961.0</ele><time>2026-04-04T11:44:36Z</time></trkpt><trkpt lat="42.104831080766274" lon="14.025243855040813"><ele>961.5</ele><time>2026-04-04T11:44:37Z</time></trkpt><trkpt lat="42.104715005394866" lon="14.025163427767906"><ele>962.0</ele><time>2026-04-04T11:44:38Z</time></trkpt><trkpt lat="42.10459290157636" lon="14.02507882345409"><ele>962.5</ele><time>2026-04-04T11:44:39Z</time></trkpt><trkpt lat="42.104487216399946" lon="14.024995560598086"><ele>963.0</ele><time>2026-04-04T11:44:40Z</time></trkpt><trkpt lat="42.10439791167532" lon="14.024896457321958"><ele>963.0</ele><time>2026-04-04T11:44:41Z</time></trkpt><trkpt lat="42.104308118465454" lon="14.024783176989121"><ele>963.0</ele><time>2026-04-04T11:44:42Z</time></trkpt><trkpt lat="42.10421742191009" lon="14.024663846236304"><ele>963.0</ele><time>2026-04-04T11:44:43Z</time></trkpt><trkpt lat="42.10413279546772" lon="14.024553109082555"><ele>963.0</ele><time>2026-04-04T11:44:44Z</time></trkpt><trkpt lat="42.104041566789135" lon="14.024465845264803"><ele>964.25</ele><time>2026-04-04T11:44:45Z</time></trkpt><trkpt lat="42.10394644619128" lon="14.024383619666686"><ele>965.5</ele><time>2026-04-04T11:44:46Z</time></trkpt><trkpt lat="42.10384555189086" lon="14.024303509715493"><ele>966.75</ele><time>2026-04-04T11:44:47Z</time></trkpt><trkpt lat="42.10373687249176" lon="14.024242325866838"><ele>968.0</ele><time>2026-04-04T11:44:48Z</time></trkpt><trkpt lat="42.103630404222294" lon="14.024184586180526"><ele>966.4</ele><time>2026-04-04T11:44:49Z</time></trkpt><trkpt lat="42.10353483155285" lon="14.024130183460956"><ele>964.8</ele><time>2026-04-04T11:44:50Z</time></trkpt><trkpt lat="42.1034418568307" lon="14.024072049781704"><ele>963.2</ele><time>2026-04-04T11:44:51Z</time></trkpt><trkpt lat="42.10335255447332" lon="14.0240132516028"><ele>961.6</ele><time>2026-04-04T11:44:52Z</time></trkpt><trkpt lat="42.10326985760404" lon="14.02395353086081"><ele>960.0</ele><time>2026-04-04T11:44:53Z</time></trkpt><trkpt lat="42.103190629655074" lon="14.023894784508862"><ele>959.8333333333334</ele><time>2026-04-04T11:44:54Z</time></trkpt><trkpt lat="42.10311633433571" lon="14.023841590152127"><ele>959.6666666666667</ele><time>2026-04-04T11:44:55Z</time></trkpt><trkpt lat="42.10303763204843" lon="14.023789787794101"><ele>959.5</ele><time>2026-04-04T11:44:56Z</time></trkpt><trkpt lat="42.10294965868985" lon="14.02374294999947"><ele>959.3333333333334</ele><time>2026-04-04T11:44:57Z</time></trkpt><trkpt lat="42.102857730638874" lon="14.023716313741263"><ele>959.1666666666667</ele><time>2026-04-04T11:44:58Z</time></trkpt><trkpt lat="42.10277506938593" lon="14.02370268762818"><ele>959.0</ele><time>2026-04-04T11:44:59Z</time></trkpt><trkpt lat="42.10269897315919" lon="14.023698936659626"><ele>959.0000000000001</ele><time>2026-04-04T11:45:00Z</time></trkpt><trkpt lat="42.10262001226357" lon="14.023718587529162"><ele>959.0</ele><time>2026-04-04T11:45:01Z</time></trkpt><trkpt lat="42.10254649221731" lon="14.02378167745264"><ele>959.0</ele><time>2026-04-04T11:45:02Z</time></trkpt><trkpt lat="42.10250884167368" lon="14.023905266108295"><ele>959.0</ele><time>2026-04-04T11:45:03Z</time></trkpt><trkpt lat="42.102471172650944" lon="14.02401792667647"><ele>959.0000000000001</ele><time>2026-04-04T11:45:04Z</time></trkpt><trkpt lat="42.10245419731473" lon="14.0241347814148"><ele>959.0</ele><time>2026-04-04T11:45:05Z</time></trkpt><trkpt lat="42.1024183968836" lon="14.024237287856634"><ele>960.8333333333334</ele><time>2026-04-04T11:45:06Z</time></trkpt><trkpt lat="42.102394481872246" lon="14.024337232945376"><ele>962.6666666666667</ele><time>2026-04-04T11:45:06.999Z</time></trkpt><trkpt lat="42.102361215317494" lon="14.024424751142933"><ele>964.5</ele><time>2026-04-04T11:45:07.999Z</time></trkpt><trkpt lat="42.10226011344546" lon="14.0244998607969"><ele>966.3333333333333</ele><time>2026-04-04T11:45:09.999Z</time></trkpt><trkpt lat="42.102189754090354" lon="14.024519152526851"><ele>968.1666666666666</ele><time>2026-04-04T11:45:10.999Z</time></trkpt><trkpt lat="42.102110788132215" lon="14.02446558971255"><ele>970.0</ele><time>2026-04-04T11:45:11.999Z</time></trkpt><trkpt lat="42.102023271607635" lon="14.02442113309894"><ele>970.0</ele><time>2026-04-04T11:45:12.999Z</time></trkpt><trkpt lat="42.10192690627516" lon="14.024373761429286"><ele>970.0</ele><time>2026-04-04T11:45:13.999Z</time></trkpt><trkpt lat="42.101819950691976" lon="14.024319113020043"><ele>970.0</ele><time>2026-04-04T11:45:14.999Z</time></trkpt><trkpt lat="42.101704217808376" lon="14.024260029350245"><ele>970.0</ele><time>2026-04-04T11:45:15.999Z</time></trkpt><trkpt lat="42.10158207915052" lon="14.024196469163433"><ele>970.0</ele><time>2026-04-04T11:45:16.999Z</time></trkpt><trkpt lat="42.101463370018465" lon="14.024156029536465"><ele>970.0</ele><time>2026-04-04T11:45:17.999Z</time></trkpt><trkpt lat="42.101364688156515" lon="14.024082558527015"><ele>970.0</ele><time>2026-04-04T11:45:18.999Z</time></trkpt><trkpt lat="42.10125693784152" lon="14.024045111841483"><ele>970.0</ele><time>2026-04-04T11:45:19.999Z</time></trkpt><trkpt lat="42.10113999248598" lon="14.02404488669559"><ele>970.0</ele><time>2026-04-04T11:45:20.999Z</time></trkpt><trkpt lat="42.101021183988045" lon="14.024063524299805"><ele>970.0</ele><time>2026-04-04T11:45:21.999Z</time></trkpt><trkpt lat="42.10091313061918" lon="14.024093229366992"><ele>970.0</ele><time>2026-04-04T11:45:22.999Z</time></trkpt><trkpt lat="42.10081580883312" lon="14.024119236319747"><ele>970.0</ele><time>2026-04-04T11:45:23.999Z</time></trkpt><trkpt lat="42.100730981134184" lon="14.024129438322253"><ele>970.0</ele><time>2026-04-04T11:45:24.999Z</time></trkpt><trkpt lat="42.100660295741164" lon="14.0241130335881"><ele>972.1666666666666</ele><time>2026-04-04T11:45:25.999Z</time></trkpt><trkpt lat="42.100596450925984" lon="14.024074825798765"><ele>974.3333333333333</ele><time>2026-04-04T11:45:26.999Z</time></trkpt><trkpt lat="42.10054661227452" lon="14.024006644441831"><ele>976.5</ele><time>2026-04-04T11:45:27.999Z</time></trkpt><trkpt lat="42.10050858474126" lon="14.023911779474345"><ele>978.6666666666667</ele><time>2026-04-04T11:45:28.999Z</time></trkpt><trkpt lat="42.1004556114216" lon="14.023802414546577"><ele>980.8333333333334</ele><time>2026-04-04T11:45:29.999Z</time></trkpt><trkpt lat="42.100409996599076" lon="14.02367374587222"><ele>983.0</ele><time>2026-04-04T11:45:30.999Z</time></trkpt><trkpt lat="42.1003590085575" lon="14.023539117447184"><ele>983.0000000000001</ele><time>2026-04-04T11:45:31.999Z</time></trkpt><trkpt lat="42.100316454865" lon="14.023413697800498"><ele>983.0</ele><time>2026-04-04T11:45:32.999Z</time></trkpt><trkpt lat="42.100280747841566" lon="14.023298034410285"><ele>983.0</ele><time>2026-04-04T11:45:33.999Z</time></trkpt><trkpt lat="42.10023922454532" lon="14.023196212818718"><ele>983.0</ele><time>2026-04-04T11:45:34.999Z</time></trkpt><trkpt lat="42.100189456906826" lon="14.023106957886426"><ele>983.0000000000001</ele><time>2026-04-04T11:45:35.999Z</time></trkpt><trkpt lat="42.100129838077706" lon="14.023036868709738"><ele>983.0</ele><time>2026-04-04T11:45:36.999Z</time></trkpt><trkpt lat="42.10005801949387" lon="14.022979766547484"><ele>982.4</ele><time>2026-04-04T11:45:37.999Z</time></trkpt><trkpt lat="42.09997800492839" lon="14.022918663393094"><ele>981.8</ele><time>2026-04-04T11:45:38.999Z</time></trkpt><trkpt lat="42.0998763564493" lon="14.022872115912913"><ele>981.2</ele><time>2026-04-04T11:45:39.999Z</time></trkpt><trkpt lat="42.09976970590581" lon="14.022825209871622"><ele>980.6</ele><time>2026-04-04T11:45:40.999Z</time></trkpt><trkpt lat="42.099662010868045" lon="14.02277784448018"><ele>980.0</ele><time>2026-04-04T11:45:41.999Z</time></trkpt><trkpt lat="42.09956399231803" lon="14.022734734911753"><ele>980.0000000000001</ele><time>2026-04-04T11:45:42.999Z</time></trkpt><trkpt lat="42.099472000801285" lon="14.022694276080479"><ele>980.0</ele><time>2026-04-04T11:45:43.999Z</time></trkpt><trkpt lat="42.09938571357972" lon="14.022655634317458"><ele>980.0</ele><time>2026-04-04T11:45:44.999Z</time></trkpt><trkpt lat="42.099305910182686" lon="14.022619161403048"><ele>980.0</ele><time>2026-04-04T11:45:45.999Z</time></trkpt><trkpt lat="42.09923231364838" lon="14.022585525238657"><ele>980.0000000000001</ele><time>2026-04-04T11:45:46.999Z</time></trkpt><trkpt lat="42.09915784832977" lon="14.022551492006796"><ele>980.0</ele><time>2026-04-04T11:45:47.999Z</time></trkpt><trkpt lat="42.09907578645073" lon="14.022514453666789"><ele>979.3333333333334</ele><time>2026-04-04T11:45:48.999Z</time></trkpt><trkpt lat="42.09899678256701" lon="14.022484023934682"><ele>978.6666666666667</ele><time>2026-04-04T11:45:49.999Z</time></trkpt><trkpt lat="42.098924144655555" lon="14.022461066449686"><ele>978.0</ele><time>2026-04-04T11:45:50.999Z</time></trkpt><trkpt lat="42.0988489348594" lon="14.02244873437554"><ele>977.3333333333333</ele><time>2026-04-04T11:45:51.999Z</time></trkpt><trkpt lat="42.09876959170478" lon="14.02244343836083"><ele>976.6666666666666</ele><time>2026-04-04T11:45:52.999Z</time></trkpt><trkpt lat="42.0986876049934" lon="14.022449295099452"><ele>976.0</ele><time>2026-04-04T11:45:53.999Z</time></trkpt><trkpt lat="42.09859049348019" lon="14.022472445594161"><ele>977.8</ele><time>2026-04-04T11:45:54.999Z</time></trkpt><trkpt lat="42.09848836623657" lon="14.022504131608644"><ele>979.5999999999999</ele><time>2026-04-04T11:45:55.999Z</time></trkpt><trkpt lat="42.0983814884206" lon="14.022541456510131"><ele>981.4</ele><time>2026-04-04T11:45:56.999Z</time></trkpt><trkpt lat="42.09828501950721" lon="14.02257336794999"><ele>983.2</ele><time>2026-04-04T11:45:57.999Z</time></trkpt><trkpt lat="42.098199438797785" lon="14.02259900989747"><ele>985.0</ele><time>2026-04-04T11:45:58.999Z</time></trkpt><trkpt lat="42.098116627957985" lon="14.022619776984323"><ele>985.2857142857143</ele><time>2026-04-04T11:45:59.999Z</time></trkpt><trkpt lat="42.098037580826464" lon="14.022633527574168"><ele>985.5714285714287</ele><time>2026-04-04T11:46:00.999Z</time></trkpt><trkpt lat="42.09796933767418" lon="14.022640400904288"><ele>985.8571428571429</ele><time>2026-04-04T11:46:01.999Z</time></trkpt><trkpt lat="42.09790574756211" lon="14.022641938371477"><ele>986.1428571428571</ele><time>2026-04-04T11:46:02.999Z</time></trkpt><trkpt lat="42.09784257998855" lon="14.022637547983429"><ele>986.4285714285714</ele><time>2026-04-04T11:46:03.999Z</time></trkpt><trkpt lat="42.097769160077846" lon="14.022619797059589"><ele>986.7142857142858</ele><time>2026-04-04T11:46:04.999Z</time></trkpt><trkpt lat="42.09768510382217" lon="14.022600287475353"><ele>987.0</ele><time>2026-04-04T11:46:05.999Z</time></trkpt><trkpt lat="42.097590085525" lon="14.022577120711059"><ele>987.0</ele><time>2026-04-04T11:46:06.999Z</time></trkpt><trkpt lat="42.09750388942835" lon="14.022554987447187"><ele>987.0</ele><time>2026-04-04T11:46:07.998Z</time></trkpt><trkpt lat="42.09740023759495" lon="14.0225283718683"><ele>987.0</ele><time>2026-04-04T11:46:09Z</time></trkpt><trkpt lat="42.097287902496824" lon="14.022499526673778"><ele>987.0</ele><time>2026-04-04T11:46:10Z</time></trkpt><trkpt lat="42.097174968968794" lon="14.022470891699262"><ele>987.0</ele><time>2026-04-04T11:46:11Z</time></trkpt><trkpt lat="42.09707742355847" lon="14.022446266085517"><ele>987.0</ele><time>2026-04-04T11:46:12Z</time></trkpt><trkpt lat="42.096978742264696" lon="14.022438461903345"><ele>987.0</ele><time>2026-04-04T11:46:13Z</time></trkpt><trkpt lat="42.09688197615317" lon="14.022413101236237"><ele>987.0</ele><time>2026-04-04T11:46:14Z</time></trkpt><trkpt lat="42.096782201623924" lon="14.022387556250322"><ele>987.0</ele><time>2026-04-04T11:46:15Z</time></trkpt><trkpt lat="42.0966897953845" lon="14.022388988892846"><ele>987.0</ele><time>2026-04-04T11:46:16Z</time></trkpt><trkpt lat="42.096595946320605" lon="14.022416821322489"><ele>987.8333333333334</ele><time>2026-04-04T11:46:17Z</time></trkpt><trkpt lat="42.09651119952676" lon="14.022451032196898"><ele>988.6666666666667</ele><time>2026-04-04T11:46:18Z</time></trkpt><trkpt lat="42.09644706583898" lon="14.022520700396235"><ele>989.5</ele><time>2026-04-04T11:46:19Z</time></trkpt><trkpt lat="42.09639894330978" lon="14.022599692421757"><ele>990.3333333333334</ele><time>2026-04-04T11:46:20Z</time></trkpt><trkpt lat="42.09632577692157" lon="14.022578772659259"><ele>991.1666666666667</ele><time>2026-04-04T11:46:25Z</time></trkpt><trkpt lat="42.09631789688933" lon="14.02271130585706"><ele>992.0</ele><time>2026-04-04T11:46:26Z</time></trkpt><trkpt lat="42.096247991618206" lon="14.022565734091913"><ele>992.3333333333334</ele><time>2026-04-04T11:46:27Z</time></trkpt><trkpt lat="42.09618457945647" lon="14.022573670962577"><ele>992.6666666666667</ele><time>2026-04-04T11:46:28Z</time></trkpt><trkpt lat="42.09610474405259" lon="14.022575706308785"><ele>993.0</ele><time>2026-04-04T11:46:29Z</time></trkpt><trkpt lat="42.09602278731167" lon="14.022571456154516"><ele>993.3333333333333</ele><time>2026-04-04T11:46:30Z</time></trkpt><trkpt lat="42.09593360649415" lon="14.022550124200812"><ele>993.6666666666666</ele><time>2026-04-04T11:46:31Z</time></trkpt><trkpt lat="42.09584356974871" lon="14.022538462436163"><ele>994.0</ele><time>2026-04-04T11:46:32Z</time></trkpt><trkpt lat="42.09574914882598" lon="14.022522036396357"><ele>993.9999999999999</ele><time>2026-04-04T11:46:33Z</time></trkpt><trkpt lat="42.09566235782795" lon="14.022509466247083"><ele>994.0</ele><time>2026-04-04T11:46:34Z</time></trkpt><trkpt lat="42.095583141167744" lon="14.022502632365388"><ele>994.0</ele><time>2026-04-04T11:46:35Z</time></trkpt><trkpt lat="42.09550593397633" lon="14.02249649609216"><ele>994.0</ele><time>2026-04-04T11:46:36Z</time></trkpt><trkpt lat="42.09543572259807" lon="14.022497046301124"><ele>993.9999999999999</ele><time>2026-04-04T11:46:37Z</time></trkpt><trkpt lat="42.09537308440881" lon="14.022506890194512"><ele>994.0</ele><time>2026-04-04T11:46:38Z</time></trkpt><trkpt lat="42.095253492892" lon="14.022456728713735"><ele>994.3333333333333</ele><time>2026-04-04T11:46:40Z</time></trkpt><trkpt lat="42.09514182918841" lon="14.022444423121149"><ele>994.6666666666666</ele><time>2026-04-04T11:46:42Z</time></trkpt><trkpt lat="42.09507691070428" lon="14.022443694802389"><ele>995.0</ele><time>2026-04-04T11:46:43Z</time></trkpt><trkpt lat="42.09500458995155" lon="14.022376710234473"><ele>995.3333333333333</ele><time>2026-04-04T11:46:44Z</time></trkpt><trkpt lat="42.0949546173184" lon="14.022267484796599"><ele>995.6666666666666</ele><time>2026-04-04T11:46:45Z</time></trkpt><trkpt lat="42.094903730331986" lon="14.02217655357707"><ele>996.0</ele><time>2026-04-04T11:46:46Z</time></trkpt><trkpt lat="42.0948625333426" lon="14.022088498153389"><ele>997.0</ele><time>2026-04-04T11:46:47Z</time></trkpt><trkpt lat="42.094821869760786" lon="14.022000941925505"><ele>998.0</ele><time>2026-04-04T11:46:48Z</time></trkpt><trkpt lat="42.09477986967002" lon="14.021918825912502"><ele>999.0</ele><time>2026-04-04T11:46:49Z</time></trkpt><trkpt lat="42.09473242586353" lon="14.021847258517331"><ele>1000.0</ele><time>2026-04-04T11:46:50Z</time></trkpt><trkpt lat="42.09468035443534" lon="14.02178800527177"><ele>1001.0</ele><time>2026-04-04T11:46:51Z</time></trkpt><trkpt lat="42.0946148607644" lon="14.021753550373603"><ele>1002.0</ele><time>2026-04-04T11:46:52Z</time></trkpt><trkpt lat="42.09451927351185" lon="14.021766550625737"><ele>1002.0</ele><time>2026-04-04T11:46:53Z</time></trkpt><trkpt lat="42.09442997326773" lon="14.021819386949195"><ele>1002.0</ele><time>2026-04-04T11:46:54Z</time></trkpt><trkpt lat="42.094348225725284" lon="14.021881738527803"><ele>1002.0</ele><time>2026-04-04T11:46:55Z</time></trkpt><trkpt lat="42.09428114460036" lon="14.021926235711062"><ele>1002.0</ele><time>2026-04-04T11:46:56Z</time></trkpt><trkpt lat="42.09419124314127" lon="14.021928800520046"><ele>1002.0</ele><time>2026-04-04T11:46:58Z</time></trkpt><trkpt lat="42.09416205926224" lon="14.021818522768637"><ele>1002.0</ele><time>2026-04-04T11:47:00Z</time></trkpt><trkpt lat="42.094192525018485" lon="14.02173680019745"><ele>1002.0</ele><time>2026-04-04T11:47:01Z</time></trkpt><trkpt lat="42.094241784171196" lon="14.021655897063454"><ele>1002.0</ele><time>2026-04-04T11:47:02Z</time></trkpt><trkpt lat="42.094307121924274" lon="14.021579300320507"><ele>1002.0</ele><time>2026-04-04T11:47:03Z</time></trkpt><trkpt lat="42.094390209869196" lon="14.021500234673324"><ele>1002.0</ele><time>2026-04-04T11:47:04Z</time></trkpt><trkpt lat="42.0944803268925" lon="14.021426705286213"><ele>1002.0</ele><time>2026-04-04T11:47:05Z</time></trkpt><trkpt lat="42.09458320562156" lon="14.02136211217882"><ele>1003.0</ele><time>2026-04-04T11:47:06Z</time></trkpt><trkpt lat="42.09469644019235" lon="14.021302800477214"><ele>1004.0</ele><time>2026-04-04T11:47:07Z</time></trkpt><trkpt lat="42.09480481641893" lon="14.021249883659596"><ele>1005.0</ele><time>2026-04-04T11:47:08Z</time></trkpt><trkpt lat="42.094916312361306" lon="14.021197975252123"><ele>1006.0</ele><time>2026-04-04T11:47:09Z</time></trkpt><trkpt lat="42.09502608715796" lon="14.021136195933225"><ele>1006.0</ele><time>2026-04-04T11:47:10Z</time></trkpt><trkpt lat="42.09513664663168" lon="14.021068386026345"><ele>1006.0</ele><time>2026-04-04T11:47:11Z</time></trkpt><trkpt lat="42.095254634969734" lon="14.021002846566113"><ele>1006.0</ele><time>2026-04-04T11:47:12Z</time></trkpt><trkpt lat="42.09537650855614" lon="14.02094269559369"><ele>1006.0</ele><time>2026-04-04T11:47:13Z</time></trkpt><trkpt lat="42.095501658958185" lon="14.020889333927036"><ele>1006.0</ele><time>2026-04-04T11:47:14Z</time></trkpt><trkpt lat="42.095633448545094" lon="14.02083940142287"><ele>1006.0</ele><time>2026-04-04T11:47:14.999Z</time></trkpt><trkpt lat="42.09577194220123" lon="14.020807067245531"><ele>1006.0</ele><time>2026-04-04T11:47:15.999Z</time></trkpt><trkpt lat="42.09590313742813" lon="14.020800082823428"><ele>1006.0</ele><time>2026-04-04T11:47:16.999Z</time></trkpt><trkpt lat="42.09603111059515" lon="14.02078693429808"><ele>1010.0</ele><time>2026-04-04T11:47:17.999Z</time></trkpt><trkpt lat="42.096165065580735" lon="14.020723105054508"><ele>1014.0</ele><time>2026-04-04T11:47:18.999Z</time></trkpt><trkpt lat="42.096290114601096" lon="14.020644326872244"><ele>1018.0</ele><time>2026-04-04T11:47:19.999Z</time></trkpt><trkpt lat="42.09640396418924" lon="14.020567725717566"><ele>1022.0</ele><time>2026-04-04T11:47:20.999Z</time></trkpt><trkpt lat="42.09651348847707" lon="14.020505970363134"><ele>1020.2</ele><time>2026-04-04T11:47:21.999Z</time></trkpt><trkpt lat="42.09661925011889" lon="14.020446946652106"><ele>1018.4000000000001</ele><time>2026-04-04T11:47:22.999Z</time></trkpt><trkpt lat="42.0967247343566" lon="14.020368714747008"><ele>1016.5999999999999</ele><time>2026-04-04T11:47:23.999Z</time></trkpt><trkpt lat="42.09681698971031" lon="14.020276819145609"><ele>1014.8</ele><time>2026-04-04T11:47:24.999Z</time></trkpt><trkpt lat="42.09690179678816" lon="14.020206895047302"><ele>1013.0</ele><time>2026-04-04T11:47:25.999Z</time></trkpt><trkpt lat="42.09697992059014" lon="14.0201818793263"><ele>1013.0</ele><time>2026-04-04T11:47:26.999Z</time></trkpt><trkpt lat="42.097057142369714" lon="14.020206998478768"><ele>1013.0</ele><time>2026-04-04T11:47:27.999Z</time></trkpt><trkpt lat="42.09712881042562" lon="14.020301025476241"><ele>1013.0</ele><time>2026-04-04T11:47:28.999Z</time></trkpt><trkpt lat="42.09722180537725" lon="14.020350169703773"><ele>1013.0</ele><time>2026-04-04T11:47:29.998Z</time></trkpt><trkpt lat="42.09730321394636" lon="14.020390111043424"><ele>1013.0</ele><time>2026-04-04T11:47:30.998Z</time></trkpt><trkpt lat="42.097392150676555" lon="14.02039440294968"><ele>1011.5</ele><time>2026-04-04T11:47:31.998Z</time></trkpt><trkpt lat="42.0974978350418" lon="14.02035147451006"><ele>1010.0</ele><time>2026-04-04T11:47:32.998Z</time></trkpt><trkpt lat="42.09761526209615" lon="14.02027891033131"><ele>1008.5</ele><time>2026-04-04T11:47:33.998Z</time></trkpt><trkpt lat="42.09772705602507" lon="14.020192280124132"><ele>1007.0</ele><time>2026-04-04T11:47:34.998Z</time></trkpt><trkpt lat="42.097837032064724" lon="14.020103391231844"><ele>1007.0</ele><time>2026-04-04T11:47:35.998Z</time></trkpt><trkpt lat="42.09794861813953" lon="14.020023444153805"><ele>1007.0</ele><time>2026-04-04T11:47:36.998Z</time></trkpt><trkpt lat="42.09808133490895" lon="14.019957345464805"><ele>1007.0</ele><time>2026-04-04T11:47:37.998Z</time></trkpt><trkpt lat="42.09820874624438" lon="14.019909444010011"><ele>1007.0</ele><time>2026-04-04T11:47:38.998Z</time></trkpt><trkpt lat="42.09833292874768" lon="14.019868741851184"><ele>1009.5</ele><time>2026-04-04T11:47:39.998Z</time></trkpt><trkpt lat="42.09844707723637" lon="14.019818456273384"><ele>1012.0</ele><time>2026-04-04T11:47:40.998Z</time></trkpt><trkpt lat="42.098550837765806" lon="14.019725766068454"><ele>1014.5</ele><time>2026-04-04T11:47:41.998Z</time></trkpt><trkpt lat="42.098635514052944" lon="14.019611029261528"><ele>1017.0</ele><time>2026-04-04T11:47:42.998Z</time></trkpt><trkpt lat="42.09870240851441" lon="14.019503321152827"><ele>1017.0</ele><time>2026-04-04T11:47:43.998Z</time></trkpt><trkpt lat="42.09877891587082" lon="14.01942362824693"><ele>1017.0</ele><time>2026-04-04T11:47:44.998Z</time></trkpt><trkpt lat="42.09887742868532" lon="14.019372292707274"><ele>1017.0</ele><time>2026-04-04T11:47:45.998Z</time></trkpt><trkpt lat="42.09899573662324" lon="14.019340773915017"><ele>1017.0</ele><time>2026-04-04T11:47:46.998Z</time></trkpt><trkpt lat="42.09910578372046" lon="14.019327261906877"><ele>1017.0</ele><time>2026-04-04T11:47:47.998Z</time></trkpt><trkpt lat="42.099200141698894" lon="14.01929230762904"><ele>1017.6666666666666</ele><time>2026-04-04T11:47:48.998Z</time></trkpt><trkpt lat="42.099272914877766" lon="14.019242332592507"><ele>1018.3333333333333</ele><time>2026-04-04T11:47:49.998Z</time></trkpt><trkpt lat="42.099312475756065" lon="14.019172506545464"><ele>1019.0</ele><time>2026-04-04T11:47:50.998Z</time></trkpt><trkpt lat="42.09935614804121" lon="14.019088191278916"><ele>1019.6666666666666</ele><time>2026-04-04T11:47:51.998Z</time></trkpt><trkpt lat="42.09938937947229" lon="14.018983053973445"><ele>1020.3333333333333</ele><time>2026-04-04T11:47:52.998Z</time></trkpt><trkpt lat="42.09941245203223" lon="14.018875313389875"><ele>1021.0</ele><time>2026-04-04T11:47:53.998Z</time></trkpt><trkpt lat="42.09946420375737" lon="14.018791702160353"><ele>1020.9999999999999</ele><time>2026-04-04T11:47:54.998Z</time></trkpt><trkpt lat="42.0995081847213" lon="14.018719026581557"><ele>1021.0</ele><time>2026-04-04T11:47:55.998Z</time></trkpt><trkpt lat="42.099577105810425" lon="14.018660113318617"><ele>1021.0</ele><time>2026-04-04T11:47:56.998Z</time></trkpt><trkpt lat="42.099658340088006" lon="14.018593437816392"><ele>1021.0</ele><time>2026-04-04T11:47:57.998Z</time></trkpt><trkpt lat="42.09973882936285" lon="14.018540364983592"><ele>1020.9999999999999</ele><time>2026-04-04T11:47:58.998Z</time></trkpt><trkpt lat="42.09981488666685" lon="14.018434897077576"><ele>1021.0</ele><time>2026-04-04T11:47:59.998Z</time></trkpt><trkpt lat="42.09988208480419" lon="14.018300132415941"><ele>1021.0</ele><time>2026-04-04T11:48:00.998Z</time></trkpt><trkpt lat="42.0999456616965" lon="14.018165713807651"><ele>1020.9999999999999</ele><time>2026-04-04T11:48:01.998Z</time></trkpt><trkpt lat="42.10001834312621" lon="14.018069237344218"><ele>1020.9999999999999</ele><time>2026-04-04T11:48:02.998Z</time></trkpt><trkpt lat="42.100105429161964" lon="14.01801129595194"><ele>1021.0</ele><time>2026-04-04T11:48:03.998Z</time></trkpt><trkpt lat="42.10021097864064" lon="14.017989814534829"><ele>1021.0</ele><time>2026-04-04T11:48:04.998Z</time></trkpt><trkpt lat="42.1003274913363" lon="14.018017552602823"><ele>1021.0</ele><time>2026-04-04T11:48:05.998Z</time></trkpt><trkpt lat="42.100439241322654" lon="14.018067623146923"><ele>1021.0</ele><time>2026-04-04T11:48:06.998Z</time></trkpt><trkpt lat="42.10054768271994" lon="14.018160034611514"><ele>1021.0</ele><time>2026-04-04T11:48:07.998Z</time></trkpt><trkpt lat="42.10064674406219" lon="14.018246895459884"><ele>1021.0</ele><time>2026-04-04T11:48:08.998Z</time></trkpt><trkpt lat="42.10076118932714" lon="14.018293555434006"><ele>1021.0</ele><time>2026-04-04T11:48:09.998Z</time></trkpt><trkpt lat="42.10090010880873" lon="14.018315527031264"><ele>1021.0</ele><time>2026-04-04T11:48:10.998Z</time></trkpt><trkpt lat="42.10104742405745" lon="14.018330154025207"><ele>1021.0</ele><time>2026-04-04T11:48:11.998Z</time></trkpt><trkpt lat="42.10118046400896" lon="14.018337753178397"><ele>1021.0</ele><time>2026-04-04T11:48:12.998Z</time></trkpt><trkpt lat="42.10130494240859" lon="14.018332723967022"><ele>1021.0</ele><time>2026-04-04T11:48:13.999Z</time></trkpt><trkpt lat="42.10141489656088" lon="14.018313392553209"><ele>1020.9999999999999</ele><time>2026-04-04T11:48:14.999Z</time></trkpt><trkpt lat="42.10152392123909" lon="14.018275166632316"><ele>1020.9999999999999</ele><time>2026-04-04T11:48:15.999Z</time></trkpt><trkpt lat="42.10162296408167" lon="14.01821035516515"><ele>1021.0</ele><time>2026-04-04T11:48:16.999Z</time></trkpt><trkpt lat="42.101713675664264" lon="14.01813208625573"><ele>1021.0</ele><time>2026-04-04T11:48:17.999Z</time></trkpt><trkpt lat="42.101796937415955" lon="14.018051261525443"><ele>1020.4</ele><time>2026-04-04T11:48:18.999Z</time></trkpt><trkpt lat="42.10185736719712" lon="14.0179476844009"><ele>1019.8</ele><time>2026-04-04T11:48:19.999Z</time></trkpt><trkpt lat="42.10189865772715" lon="14.017818020588653"><ele>1019.1999999999999</ele><time>2026-04-04T11:48:20.999Z</time></trkpt><trkpt lat="42.10190979980374" lon="14.017672920018468"><ele>1018.5999999999999</ele><time>2026-04-04T11:48:21.999Z</time></trkpt><trkpt lat="42.101898157646744" lon="14.017505042852392"><ele>1018.0</ele><time>2026-04-04T11:48:22.999Z</time></trkpt><trkpt lat="42.10187934801388" lon="14.017334464010405"><ele>1018.0</ele><time>2026-04-04T11:48:23.999Z</time></trkpt><trkpt lat="42.101862999548096" lon="14.017168227581745"><ele>1018.0</ele><time>2026-04-04T11:48:24.999Z</time></trkpt><trkpt lat="42.10187145273994" lon="14.01700817228844"><ele>1018.0</ele><time>2026-04-04T11:48:25.999Z</time></trkpt><trkpt lat="42.101875272672984" lon="14.016829481254138"><ele>1018.0</ele><time>2026-04-04T11:48:26.999Z</time></trkpt><trkpt lat="42.1019167433749" lon="14.016666068168554"><ele>1020.0</ele><time>2026-04-04T11:48:27.999Z</time></trkpt><trkpt lat="42.10198962473407" lon="14.01650521389337"><ele>1022.0</ele><time>2026-04-04T11:48:28.999Z</time></trkpt><trkpt lat="42.10204123466935" lon="14.016334582588847"><ele>1024.0</ele><time>2026-04-04T11:48:29.999Z</time></trkpt><trkpt lat="42.10210459045276" lon="14.016191876412583"><ele>1026.0</ele><time>2026-04-04T11:48:30.999Z</time></trkpt><trkpt lat="42.10214849316759" lon="14.01608324653446"><ele>1026.0</ele><time>2026-04-04T11:48:31.999Z</time></trkpt><trkpt lat="42.102184900514196" lon="14.015997428056343"><ele>1026.0</ele><time>2026-04-04T11:48:32.999Z</time></trkpt><trkpt lat="42.10227125343512" lon="14.015938647363672"><ele>1026.0</ele><time>2026-04-04T11:48:34.999Z</time></trkpt><trkpt lat="42.102391178327515" lon="14.01596217243993"><ele>1026.0</ele><time>2026-04-04T11:48:36.999Z</time></trkpt><trkpt lat="42.102448417783656" lon="14.016004525737442"><ele>1026.0</ele><time>2026-04-04T11:48:37.999Z</time></trkpt><trkpt lat="42.102505358471426" lon="14.016052942338428"><ele>1026.0</ele><time>2026-04-04T11:48:38.999Z</time></trkpt><trkpt lat="42.10257017574955" lon="14.016094753846557"><ele>1025.2</ele><time>2026-04-04T11:48:39.999Z</time></trkpt><trkpt lat="42.10265018056553" lon="14.01611051214827"><ele>1024.3999999999999</ele><time>2026-04-04T11:48:40.999Z</time></trkpt><trkpt lat="42.10274527982236" lon="14.01609587264576"><ele>1023.6</ele><time>2026-04-04T11:48:41.999Z</time></trkpt><trkpt lat="42.10284574719022" lon="14.016066239286875"><ele>1022.8</ele><time>2026-04-04T11:48:42.999Z</time></trkpt><trkpt lat="42.10295330710848" lon="14.016040418203746"><ele>1022.0</ele><time>2026-04-04T11:48:43.999Z</time></trkpt><trkpt lat="42.10306043383208" lon="14.016012126451741"><ele>1022.0</ele><time>2026-04-04T11:48:44.999Z</time></trkpt><trkpt lat="42.10315842659865" lon="14.015986452900849"><ele>1022.0</ele><time>2026-04-04T11:48:45.999Z</time></trkpt><trkpt lat="42.10324750572012" lon="14.015965094101958"><ele>1022.0</ele><time>2026-04-04T11:48:46.999Z</time></trkpt><trkpt lat="42.10333239300858" lon="14.015937027372697"><ele>1022.0</ele><time>2026-04-04T11:48:47.999Z</time></trkpt><trkpt lat="42.1034172042618" lon="14.015889948027375"><ele>1022.0</ele><time>2026-04-04T11:48:48.999Z</time></trkpt><trkpt lat="42.103485739817664" lon="14.015819261611078"><ele>1024.6</ele><time>2026-04-04T11:48:49.999Z</time></trkpt><trkpt lat="42.10354951910634" lon="14.015732981953851"><ele>1027.2</ele><time>2026-04-04T11:48:50.999Z</time></trkpt><trkpt lat="42.103601008489576" lon="14.015643814284036"><ele>1029.8</ele><time>2026-04-04T11:48:51.999Z</time></trkpt><trkpt lat="42.103640789786766" lon="14.015538493743474"><ele>1032.4</ele><time>2026-04-04T11:48:52.999Z</time></trkpt><trkpt lat="42.103657067063985" lon="14.015415085901578"><ele>1035.0</ele><time>2026-04-04T11:48:53.999Z</time></trkpt><trkpt lat="42.103656553824244" lon="14.015276978420781"><ele>1035.0</ele><time>2026-04-04T11:48:54.999Z</time></trkpt><trkpt lat="42.10367678652718" lon="14.015133730141024"><ele>1035.0</ele><time>2026-04-04T11:48:55.999Z</time></trkpt><trkpt lat="42.10368600657877" lon="14.01498886485346"><ele>1035.0</ele><time>2026-04-04T11:48:56.999Z</time></trkpt><trkpt lat="42.10370177888599" lon="14.014844456021413"><ele>1035.0</ele><time>2026-04-04T11:48:57.999Z</time></trkpt><trkpt lat="42.10376596520568" lon="14.014731197937271"><ele>1035.0</ele><time>2026-04-04T11:48:58.999Z</time></trkpt><trkpt lat="42.1038387903291" lon="14.014644212521887"><ele>1036.6</ele><time>2026-04-04T11:48:59.999Z</time></trkpt><trkpt lat="42.10392296661102" lon="14.01456471746067"><ele>1038.2</ele><time>2026-04-04T11:49:00.999Z</time></trkpt><trkpt lat="42.10399825749837" lon="14.014474420837058"><ele>1039.8</ele><time>2026-04-04T11:49:01.999Z</time></trkpt><trkpt lat="42.104057381237645" lon="14.014391009679018"><ele>1041.4</ele><time>2026-04-04T11:49:02.999Z</time></trkpt><trkpt lat="42.104101660649725" lon="14.014302913148423"><ele>1043.0</ele><time>2026-04-04T11:49:03.999Z</time></trkpt><trkpt lat="42.1041418403131" lon="14.014195292658084"><ele>1044.4</ele><time>2026-04-04T11:49:04.999Z</time></trkpt><trkpt lat="42.104164570218074" lon="14.01407269089269"><ele>1045.8</ele><time>2026-04-04T11:49:05.999Z</time></trkpt><trkpt lat="42.1041673256869" lon="14.013950841503135"><ele>1047.2</ele><time>2026-04-04T11:49:06.999Z</time></trkpt><trkpt lat="42.10415446910832" lon="14.013832755507222"><ele>1048.6</ele><time>2026-04-04T11:49:07.999Z</time></trkpt><trkpt lat="42.104125180371184" lon="14.013717875474152"><ele>1050.0</ele><time>2026-04-04T11:49:08.999Z</time></trkpt><trkpt lat="42.104063271387744" lon="14.013628088333785"><ele>1050.0</ele><time>2026-04-04T11:49:09.999Z</time></trkpt><trkpt lat="42.10404389846796" lon="14.013525083627897"><ele>1050.0</ele><time>2026-04-04T11:49:10.999Z</time></trkpt><trkpt lat="42.10401632581921" lon="14.013417269805807"><ele>1050.0</ele><time>2026-04-04T11:49:11.999Z</time></trkpt><trkpt lat="42.10398986273491" lon="14.013300402529978"><ele>1050.0</ele><time>2026-04-04T11:49:12.999Z</time></trkpt><trkpt lat="42.104017439796614" lon="14.013176817762112"><ele>1050.0</ele><time>2026-04-04T11:49:13.999Z</time></trkpt><trkpt lat="42.10406725443921" lon="14.013057247696112"><ele>1048.0</ele><time>2026-04-04T11:49:14.999Z</time></trkpt><trkpt lat="42.104128023605725" lon="14.012949104881676"><ele>1046.0</ele><time>2026-04-04T11:49:15.999Z</time></trkpt><trkpt lat="42.104179864373535" lon="14.012854630880252"><ele>1044.0</ele><time>2026-04-04T11:49:16.999Z</time></trkpt><trkpt lat="42.104226765568754" lon="14.012762825031114"><ele>1042.0</ele><time>2026-04-04T11:49:17.999Z</time></trkpt><trkpt lat="42.104272429843135" lon="14.012687201303683"><ele>1040.0</ele><time>2026-04-04T11:49:18.999Z</time></trkpt><trkpt lat="42.104315418324276" lon="14.01261533273158"><ele>1038.0</ele><time>2026-04-04T11:49:19.999Z</time></trkpt><trkpt lat="42.10435556369569" lon="14.012541479005634"><ele>1039.1666666666667</ele><time>2026-04-04T11:49:20.999Z</time></trkpt><trkpt lat="42.104398670713515" lon="14.012466990192207"><ele>1040.3333333333333</ele><time>2026-04-04T11:49:21.999Z</time></trkpt><trkpt lat="42.104438403694736" lon="14.012391533349346"><ele>1041.5</ele><time>2026-04-04T11:49:22.999Z</time></trkpt><trkpt lat="42.10447854589948" lon="14.01231806980971"><ele>1042.6666666666665</ele><time>2026-04-04T11:49:23.999Z</time></trkpt><trkpt lat="42.104499520490705" lon="14.012179480429703"><ele>1043.8333333333333</ele><time>2026-04-04T11:49:25.999Z</time></trkpt><trkpt lat="42.10444542077456" lon="14.012054400487846"><ele>1045.0</ele><time>2026-04-04T11:49:27.999Z</time></trkpt><trkpt lat="42.10437155769918" lon="14.012063417379856"><ele>1045.0</ele><time>2026-04-04T11:49:28.999Z</time></trkpt><trkpt lat="42.10431132391975" lon="14.012150064785724"><ele>1045.0</ele><time>2026-04-04T11:49:29.999Z</time></trkpt><trkpt lat="42.10426759142023" lon="14.012235314474347"><ele>1045.0</ele><time>2026-04-04T11:49:30.999Z</time></trkpt><trkpt lat="42.10421189617839" lon="14.012323666667616"><ele>1045.0</ele><time>2026-04-04T11:49:31.999Z</time></trkpt><trkpt lat="42.10415946157153" lon="14.012399755363568"><ele>1045.0</ele><time>2026-04-04T11:49:32.999Z</time></trkpt><trkpt lat="42.104096104934484" lon="14.012491239366696"><ele>1045.0</ele><time>2026-04-04T11:49:33.999Z</time></trkpt><trkpt lat="42.10403356745903" lon="14.012581540681838"><ele>1046.6666666666665</ele><time>2026-04-04T11:49:34.998Z</time></trkpt><trkpt lat="42.10397002729386" lon="14.01267157194583"><ele>1048.3333333333333</ele><time>2026-04-04T11:49:35.998Z</time></trkpt><trkpt lat="42.103918575447395" lon="14.012744343166036"><ele>1050.0</ele><time>2026-04-04T11:49:36.998Z</time></trkpt><trkpt lat="42.103869562742325" lon="14.012813664614598"><ele>1051.6666666666667</ele><time>2026-04-04T11:49:37.998Z</time></trkpt><trkpt lat="42.10381829566106" lon="14.012886174753302"><ele>1053.3333333333335</ele><time>2026-04-04T11:49:38.998Z</time></trkpt><trkpt lat="42.103764303547585" lon="14.012968798535825"><ele>1055.0</ele><time>2026-04-04T11:49:39.998Z</time></trkpt><trkpt lat="42.1037096641375" lon="14.013051629061732"><ele>1055.0</ele><time>2026-04-04T11:49:40.998Z</time></trkpt><trkpt lat="42.10366036993601" lon="14.013141252902418"><ele>1055.0</ele><time>2026-04-04T11:49:41.998Z</time></trkpt><trkpt lat="42.103619801294535" lon="14.01322379560311"><ele>1055.0</ele><time>2026-04-04T11:49:42.998Z</time></trkpt><trkpt lat="42.10356500857237" lon="14.01335073147681"><ele>1055.0</ele><time>2026-04-04T11:49:44.998Z</time></trkpt><trkpt lat="42.103539082926375" lon="14.013429598546422"><ele>1055.0</ele><time>2026-04-04T11:49:46.998Z</time></trkpt><trkpt lat="42.1037100278578" lon="14.013429934413315"><ele>1055.0</ele><time>2026-04-04T11:49:51.998Z</time></trkpt><trkpt lat="42.10371409785394" lon="14.01331308112682"><ele>1055.0</ele><time>2026-04-04T11:49:53.998Z</time></trkpt><trkpt lat="42.10367133487004" lon="14.013226409522387"><ele>1055.0</ele><time>2026-04-04T11:49:56.998Z</time></trkpt><trkpt lat="42.103716572992425" lon="14.013125372110679"><ele>1055.0</ele><time>2026-04-04T11:49:58.998Z</time></trkpt><trkpt lat="42.10377914144918" lon="14.01304839794027"><ele>1055.0</ele><time>2026-04-04T11:50:00.998Z</time></trkpt><trkpt lat="42.103843711155974" lon="14.012952739156018"><ele>1055.0</ele><time>2026-04-04T11:50:02.998Z</time></trkpt><trkpt lat="42.103902247611565" lon="14.01285714853289"><ele>1055.0</ele><time>2026-04-04T11:50:04.998Z</time></trkpt><trkpt lat="42.103983523380045" lon="14.01274999069372"><ele>1055.0</ele><time>2026-04-04T11:50:06.998Z</time></trkpt><trkpt lat="42.104062795530425" lon="14.01262332075592"><ele>1055.0</ele><time>2026-04-04T11:50:08.998Z</time></trkpt><trkpt lat="42.10414690697509" lon="14.012508249779334"><ele>1055.0</ele><time>2026-04-04T11:50:10.998Z</time></trkpt><trkpt lat="42.10422699349894" lon="14.01238830818763"><ele>1053.0</ele><time>2026-04-04T11:50:12.998Z</time></trkpt><trkpt lat="42.10429525507285" lon="14.01227583222429"><ele>1051.0</ele><time>2026-04-04T11:50:14.998Z</time></trkpt><trkpt lat="42.10436606588349" lon="14.01217196085266"><ele>1049.0</ele><time>2026-04-04T11:50:16.998Z</time></trkpt><trkpt lat="42.1044351231369" lon="14.012127787731274"><ele>1047.0</ele><time>2026-04-04T11:50:18.998Z</time></trkpt><trkpt lat="42.104488596114734" lon="14.012224020605814"><ele>1045.0</ele><time>2026-04-04T11:50:21Z</time></trkpt><trkpt lat="42.10446416751132" lon="14.012332451333691"><ele>1045.0</ele><time>2026-04-04T11:50:23Z</time></trkpt><trkpt lat="42.10438294999214" lon="14.012459524701612"><ele>1045.0</ele><time>2026-04-04T11:50:25Z</time></trkpt><trkpt lat="42.10433043493482" lon="14.01251544889735"><ele>1045.0</ele><time>2026-04-04T11:50:26Z</time></trkpt><trkpt lat="42.1042876247472" lon="14.012585101976134"><ele>1045.0</ele><time>2026-04-04T11:50:27Z</time></trkpt><trkpt lat="42.10424189662791" lon="14.012658090195906"><ele>1045.0</ele><time>2026-04-04T11:50:28Z</time></trkpt><trkpt lat="42.10419831072496" lon="14.01274006859791"><ele>1045.0</ele><time>2026-04-04T11:50:29Z</time></trkpt><trkpt lat="42.10415148535712" lon="14.01283245633561"><ele>1045.8333333333333</ele><time>2026-04-04T11:50:30Z</time></trkpt><trkpt lat="42.10410093568833" lon="14.01293563431127"><ele>1046.6666666666665</ele><time>2026-04-04T11:50:31Z</time></trkpt><trkpt lat="42.10405590915393" lon="14.013031867563443"><ele>1047.5</ele><time>2026-04-04T11:50:32Z</time></trkpt><trkpt lat="42.104013609318464" lon="14.01312083189448"><ele>1048.3333333333333</ele><time>2026-04-04T11:50:33Z</time></trkpt><trkpt lat="42.10397341867545" lon="14.013215705765692"><ele>1049.1666666666667</ele><time>2026-04-04T11:50:34Z</time></trkpt><trkpt lat="42.10395534462764" lon="14.013311750553486"><ele>1050.0</ele><time>2026-04-04T11:50:35Z</time></trkpt><trkpt lat="42.10396181077984" lon="14.013412900330712"><ele>1050.0</ele><time>2026-04-04T11:50:36Z</time></trkpt><trkpt lat="42.10400046508894" lon="14.013505490180652"><ele>1050.0</ele><time>2026-04-04T11:50:37Z</time></trkpt><trkpt lat="42.10403983141359" lon="14.013602634578314"><ele>1050.0</ele><time>2026-04-04T11:50:38Z</time></trkpt><trkpt lat="42.10406244143049" lon="14.013700697499047"><ele>1050.0</ele><time>2026-04-04T11:50:39Z</time></trkpt><trkpt lat="42.104098260990725" lon="14.013785804502904"><ele>1050.0</ele><time>2026-04-04T11:50:40Z</time></trkpt><trkpt lat="42.104129021307635" lon="14.013864758164635"><ele>1050.0</ele><time>2026-04-04T11:50:41Z</time></trkpt><trkpt lat="42.10414505609864" lon="14.013951625037583"><ele>1050.0</ele><time>2026-04-04T11:50:42Z</time></trkpt><trkpt lat="42.10414194732414" lon="14.01404775064209"><ele>1048.8333333333333</ele><time>2026-04-04T11:50:43Z</time></trkpt><trkpt lat="42.10411739166183" lon="14.014136420223936"><ele>1047.6666666666667</ele><time>2026-04-04T11:50:44Z</time></trkpt><trkpt lat="42.10408381063349" lon="14.014226430987218"><ele>1046.5</ele><time>2026-04-04T11:50:45Z</time></trkpt><trkpt lat="42.10403748210529" lon="14.01432560324067"><ele>1045.3333333333335</ele><time>2026-04-04T11:50:45.999Z</time></trkpt><trkpt lat="42.10398276657369" lon="14.014413522533271"><ele>1044.1666666666667</ele><time>2026-04-04T11:50:46.999Z</time></trkpt><trkpt lat="42.103919869916375" lon="14.014489536963383"><ele>1043.0</ele><time>2026-04-04T11:50:47.999Z</time></trkpt><trkpt lat="42.103854433744516" lon="14.014559430464242"><ele>1043.0</ele><time>2026-04-04T11:50:48.999Z</time></trkpt><trkpt lat="42.1037882109721" lon="14.014633606967386"><ele>1043.0</ele><time>2026-04-04T11:50:49.999Z</time></trkpt><trkpt lat="42.103731762984914" lon="14.014713620150761"><ele>1043.0</ele><time>2026-04-04T11:50:50.999Z</time></trkpt><trkpt lat="42.10368220195292" lon="14.014785962099282"><ele>1043.0</ele><time>2026-04-04T11:50:51.999Z</time></trkpt><trkpt lat="42.10365771392265" lon="14.014905638233392"><ele>1043.0</ele><time>2026-04-04T11:50:52.999Z</time></trkpt><trkpt lat="42.10366507548491" lon="14.015014896759457"><ele>1043.0</ele><time>2026-04-04T11:50:53.999Z</time></trkpt><trkpt lat="42.103656008901154" lon="14.015125011659249"><ele>1041.4</ele><time>2026-04-04T11:50:55.999Z</time></trkpt><trkpt lat="42.103637247640336" lon="14.015248733684603"><ele>1039.8</ele><time>2026-04-04T11:51:42.999Z</time></trkpt><trkpt lat="42.10362397837787" lon="14.015384648661842"><ele>1038.2</ele><time>2026-04-04T11:51:44.999Z</time></trkpt><trkpt lat="42.10359935561124" lon="14.015532326907248"><ele>1036.6</ele><time>2026-04-04T11:51:46.999Z</time></trkpt><trkpt lat="42.10356635924334" lon="14.01562417681159"><ele>1035.0</ele><time>2026-04-04T11:51:47.999Z</time></trkpt><trkpt lat="42.103505582401034" lon="14.01571306593131"><ele>1035.0</ele><time>2026-04-04T11:51:48.998Z</time></trkpt><trkpt lat="42.10343832277186" lon="14.015793302340784"><ele>1035.0</ele><time>2026-04-04T11:51:49.998Z</time></trkpt><trkpt lat="42.10336766121728" lon="14.015855145164215"><ele>1035.0</ele><time>2026-04-04T11:51:50.998Z</time></trkpt><trkpt lat="42.103285434342204" lon="14.01589514182185"><ele>1035.0</ele><time>2026-04-04T11:51:51.998Z</time></trkpt><trkpt lat="42.10318363366688" lon="14.015919031627618"><ele>1035.0</ele><time>2026-04-04T11:51:52.998Z</time></trkpt><trkpt lat="42.10307714712758" lon="14.015952497495324"><ele>1032.4</ele><time>2026-04-04T11:51:53.998Z</time></trkpt><trkpt lat="42.10298051329606" lon="14.015985736005256"><ele>1029.8</ele><time>2026-04-04T11:51:54.998Z</time></trkpt><trkpt lat="42.1028849191274" lon="14.016012215928574"><ele>1027.2</ele><time>2026-04-04T11:51:55.998Z</time></trkpt><trkpt lat="42.10279177162696" lon="14.016029291422909"><ele>1024.6</ele><time>2026-04-04T11:51:56.998Z</time></trkpt><trkpt lat="42.1027033209988" lon="14.016038889494993"><ele>1022.0</ele><time>2026-04-04T11:51:57.998Z</time></trkpt><trkpt lat="42.10261927228316" lon="14.016044207482167"><ele>1022.0000000000001</ele><time>2026-04-04T11:51:58.998Z</time></trkpt><trkpt lat="42.102545807653065" lon="14.016032672753354"><ele>1022.0</ele><time>2026-04-04T11:51:59.998Z</time></trkpt><trkpt lat="42.102484421171866" lon="14.015989371162723"><ele>1022.0</ele><time>2026-04-04T11:52:00.998Z</time></trkpt><trkpt lat="42.102426801346994" lon="14.015936319842696"><ele>1022.0</ele><time>2026-04-04T11:52:01.998Z</time></trkpt><trkpt lat="42.102322372064904" lon="14.01589062183941"><ele>1022.0000000000001</ele><time>2026-04-04T11:52:03.998Z</time></trkpt><trkpt lat="42.10221026236227" lon="14.015905740765739"><ele>1022.0</ele><time>2026-04-04T11:52:05.998Z</time></trkpt><trkpt lat="42.10215238872072" lon="14.015960848196809"><ele>1022.6666666666667</ele><time>2026-04-04T11:52:06.998Z</time></trkpt><trkpt lat="42.10212084024034" lon="14.016067113298378"><ele>1023.3333333333334</ele><time>2026-04-04T11:52:07.998Z</time></trkpt><trkpt lat="42.10208834314634" lon="14.016146130440262"><ele>1024.0</ele><time>2026-04-04T11:52:08.998Z</time></trkpt><trkpt lat="42.1020577819675" lon="14.016228108060385"><ele>1024.6666666666667</ele><time>2026-04-04T11:52:09.998Z</time></trkpt><trkpt lat="42.10202627044134" lon="14.016312635007896"><ele>1025.3333333333333</ele><time>2026-04-04T11:52:10.998Z</time></trkpt><trkpt lat="42.10199040632462" lon="14.016407797209213"><ele>1026.0</ele><time>2026-04-04T11:52:11.998Z</time></trkpt><trkpt lat="42.101950770482475" lon="14.016508133725672"><ele>1026.0</ele><time>2026-04-04T11:52:12.998Z</time></trkpt><trkpt lat="42.10191455562472" lon="14.016602898096272"><ele>1026.0</ele><time>2026-04-04T11:52:13.998Z</time></trkpt><trkpt lat="42.101884374665865" lon="14.016704787521018"><ele>1026.0</ele><time>2026-04-04T11:52:14.998Z</time></trkpt><trkpt lat="42.10185943953841" lon="14.016811477359582"><ele>1026.0</ele><time>2026-04-04T11:52:15.998Z</time></trkpt><trkpt lat="42.10184323496001" lon="14.016917141646948"><ele>1026.0</ele><time>2026-04-04T11:52:16.998Z</time></trkpt><trkpt lat="42.10183523139615" lon="14.017016363744428"><ele>1026.0</ele><time>2026-04-04T11:52:17.998Z</time></trkpt><trkpt lat="42.101853792948475" lon="14.017113562194595"><ele>1024.3999999999999</ele><time>2026-04-04T11:52:18.998Z</time></trkpt><trkpt lat="42.10184071283564" lon="14.017210132699166"><ele>1022.8</ele><time>2026-04-04T11:52:19.998Z</time></trkpt><trkpt lat="42.101844090368026" lon="14.01733774719647"><ele>1021.1999999999999</ele><time>2026-04-04T11:52:20.998Z</time></trkpt><trkpt lat="42.101855094451345" lon="14.017482258384021"><ele>1019.5999999999999</ele><time>2026-04-04T11:52:21.998Z</time></trkpt><trkpt lat="42.10186200485373" lon="14.01763155122583"><ele>1018.0</ele><time>2026-04-04T11:52:23.998Z</time></trkpt><trkpt lat="42.10185668693266" lon="14.017733302708923"><ele>1018.4999999999999</ele><time>2026-04-04T11:52:24.998Z</time></trkpt><trkpt lat="42.101840917163216" lon="14.017839135242218"><ele>1019.0</ele><time>2026-04-04T11:52:26Z</time></trkpt><trkpt lat="42.10180898561937" lon="14.0179394674452"><ele>1019.5</ele><time>2026-04-04T11:52:27Z</time></trkpt><trkpt lat="42.10176310740731" lon="14.018021399608928"><ele>1020.0</ele><time>2026-04-04T11:52:28Z</time></trkpt><trkpt lat="42.101695622851246" lon="14.018063330654643"><ele>1020.4999999999999</ele><time>2026-04-04T11:52:29Z</time></trkpt><trkpt lat="42.101614788458946" lon="14.018133217253965"><ele>1021.0</ele><time>2026-04-04T11:52:30Z</time></trkpt><trkpt lat="42.10152281349382" lon="14.018197648008213"><ele>1021.0</ele><time>2026-04-04T11:52:31Z</time></trkpt><trkpt lat="42.10144010001104" lon="14.018239949407802"><ele>1020.9999999999999</ele><time>2026-04-04T11:52:32Z</time></trkpt><trkpt lat="42.10134977390016" lon="14.018260127624785"><ele>1020.9999999999999</ele><time>2026-04-04T11:52:33Z</time></trkpt><trkpt lat="42.101248771973154" lon="14.018269336461799"><ele>1021.0</ele><time>2026-04-04T11:52:34Z</time></trkpt><trkpt lat="42.10114572483638" lon="14.01826813832966"><ele>1021.0</ele><time>2026-04-04T11:52:35Z</time></trkpt><trkpt lat="42.101048260026865" lon="14.018261746147388"><ele>1021.0</ele><time>2026-04-04T11:52:36Z</time></trkpt><trkpt lat="42.100954567181816" lon="14.01825483736242"><ele>1020.9999999999999</ele><time>2026-04-04T11:52:37Z</time></trkpt><trkpt lat="42.100867568345265" lon="14.018246758420226"><ele>1020.9999999999999</ele><time>2026-04-04T11:52:38Z</time></trkpt><trkpt lat="42.100776461072066" lon="14.01823531078818"><ele>1021.0</ele><time>2026-04-04T11:52:39Z</time></trkpt><trkpt lat="42.10069288905753" lon="14.018209586055574"><ele>1021.0</ele><time>2026-04-04T11:52:40Z</time></trkpt><trkpt lat="42.10060533852378" lon="14.018173622760052"><ele>1020.9999999999999</ele><time>2026-04-04T11:52:41Z</time></trkpt><trkpt lat="42.10053173261433" lon="14.01811672502624"><ele>1021.0</ele><time>2026-04-04T11:52:42Z</time></trkpt><trkpt lat="42.10046611342639" lon="14.018044150189866"><ele>1021.0</ele><time>2026-04-04T11:52:43Z</time></trkpt><trkpt lat="42.10040605126958" lon="14.01799834981881"><ele>1021.0</ele><time>2026-04-04T11:52:44Z</time></trkpt><trkpt lat="42.10033189459223" lon="14.017970202589968"><ele>1020.9999999999999</ele><time>2026-04-04T11:52:45Z</time></trkpt><trkpt lat="42.10025532847542" lon="14.01798647574097"><ele>1021.0</ele><time>2026-04-04T11:52:46Z</time></trkpt><trkpt lat="42.10017707407485" lon="14.017964938323356"><ele>1020.9999999999999</ele><time>2026-04-04T11:52:47Z</time></trkpt><trkpt lat="42.1000995613723" lon="14.017972229159906"><ele>1021.0</ele><time>2026-04-04T11:52:48Z</time></trkpt><trkpt lat="42.10002955091023" lon="14.017997108468439"><ele>1021.0</ele><time>2026-04-04T11:52:49Z</time></trkpt><trkpt lat="42.099967319794814" lon="14.018086254368125"><ele>1021.0</ele><time>2026-04-04T11:52:50Z</time></trkpt><trkpt lat="42.099906441479966" lon="14.01816490042014"><ele>1020.9999999999999</ele><time>2026-04-04T11:52:51Z</time></trkpt><trkpt lat="42.099865075291376" lon="14.018276454233009"><ele>1021.0</ele><time>2026-04-04T11:52:52Z</time></trkpt><trkpt lat="42.0998001779108" lon="14.018370529233893"><ele>1020.9999999999999</ele><time>2026-04-04T11:52:52.999Z</time></trkpt><trkpt lat="42.09975213446714" lon="14.018452412416755"><ele>1021.0</ele><time>2026-04-04T11:52:53.999Z</time></trkpt><trkpt lat="42.09970021923384" lon="14.018513581176071"><ele>1021.0</ele><time>2026-04-04T11:52:54.999Z</time></trkpt><trkpt lat="42.09958694268737" lon="14.018597198592877"><ele>1021.0</ele><time>2026-04-04T11:52:56.999Z</time></trkpt><trkpt lat="42.09953286954828" lon="14.018643533539738"><ele>1020.9999999999999</ele><time>2026-04-04T11:52:57.999Z</time></trkpt><trkpt lat="42.099478382569195" lon="14.018705822079923"><ele>1021.0</ele><time>2026-04-04T11:52:58.999Z</time></trkpt><trkpt lat="42.09942913288446" lon="14.018777842760326"><ele>1020.9999999999999</ele><time>2026-04-04T11:52:59.999Z</time></trkpt><trkpt lat="42.0994004988082" lon="14.018880483663123"><ele>1021.0</ele><time>2026-04-04T11:53:00.999Z</time></trkpt><trkpt lat="42.09937485805563" lon="14.018969968524203"><ele>1021.0</ele><time>2026-04-04T11:53:01.999Z</time></trkpt><trkpt lat="42.09933382586394" lon="14.019045289361754"><ele>1021.0</ele><time>2026-04-04T11:53:02.999Z</time></trkpt><trkpt lat="42.09926173379507" lon="14.01918644034267"><ele>1020.9999999999999</ele><time>2026-04-04T11:53:04.999Z</time></trkpt><trkpt lat="42.09920498727363" lon="14.01923359945208"><ele>1021.0</ele><time>2026-04-04T11:53:05.999Z</time></trkpt><trkpt lat="42.0990785724255" lon="14.019265457421904"><ele>1020.3333333333333</ele><time>2026-04-04T11:53:07.999Z</time></trkpt><trkpt lat="42.09900412170038" lon="14.019288214710281"><ele>1019.6666666666666</ele><time>2026-04-04T11:53:08.999Z</time></trkpt><trkpt lat="42.098933051473516" lon="14.019307546833472"><ele>1019.0</ele><time>2026-04-04T11:53:09.999Z</time></trkpt><trkpt lat="42.09886683470901" lon="14.019325280095574"><ele>1018.3333333333333</ele><time>2026-04-04T11:53:10.999Z</time></trkpt><trkpt lat="42.09879867759718" lon="14.019349686765782"><ele>1017.6666666666666</ele><time>2026-04-04T11:53:11.999Z</time></trkpt><trkpt lat="42.09872319376805" lon="14.019395825861181"><ele>1017.0</ele><time>2026-04-04T11:53:12.999Z</time></trkpt><trkpt lat="42.098659965468585" lon="14.01946962413339"><ele>1017.0</ele><time>2026-04-04T11:53:13.999Z</time></trkpt><trkpt lat="42.098600269191884" lon="14.019544599695152"><ele>1017.0</ele><time>2026-04-04T11:53:14.999Z</time></trkpt><trkpt lat="42.09853822105451" lon="14.019627288806078"><ele>1017.0</ele><time>2026-04-04T11:53:15.999Z</time></trkpt><trkpt lat="42.09847749011066" lon="14.019710881374941"><ele>1017.0</ele><time>2026-04-04T11:53:16.999Z</time></trkpt><trkpt lat="42.0984115553003" lon="14.019774099300685"><ele>1017.0</ele><time>2026-04-04T11:53:17.999Z</time></trkpt><trkpt lat="42.098330495116414" lon="14.019814536249521"><ele>1017.0</ele><time>2026-04-04T11:53:18.999Z</time></trkpt><trkpt lat="42.09824765641463" lon="14.019844161347374"><ele>1015.3333333333334</ele><time>2026-04-04T11:53:19.999Z</time></trkpt><trkpt lat="42.098168084118434" lon="14.019877297106726"><ele>1013.6666666666667</ele><time>2026-04-04T11:53:20.999Z</time></trkpt><trkpt lat="42.09808509154979" lon="14.019913357430383"><ele>1012.0</ele><time>2026-04-04T11:53:21.999Z</time></trkpt><trkpt lat="42.098003464844126" lon="14.019949107412373"><ele>1010.3333333333334</ele><time>2026-04-04T11:53:22.999Z</time></trkpt><trkpt lat="42.09791842999079" lon="14.019991376878346"><ele>1008.6666666666667</ele><time>2026-04-04T11:53:23.999Z</time></trkpt><trkpt lat="42.09784402107522" lon="14.020039119375076"><ele>1007.0</ele><time>2026-04-04T11:53:24.999Z</time></trkpt><trkpt lat="42.097778154205855" lon="14.020092842670499"><ele>1007.0000000000001</ele><time>2026-04-04T11:53:25.999Z</time></trkpt><trkpt lat="42.09771475380954" lon="14.020149256640643"><ele>1007.0</ele><time>2026-04-04T11:53:26.999Z</time></trkpt><trkpt lat="42.09764202248984" lon="14.020198321744363"><ele>1007.0</ele><time>2026-04-04T11:53:27.999Z</time></trkpt><trkpt lat="42.09756811852076" lon="14.020245520177689"><ele>1007.0</ele><time>2026-04-04T11:53:28.999Z</time></trkpt><trkpt lat="42.09749321479757" lon="14.020288190498302"><ele>1007.0000000000001</ele><time>2026-04-04T11:53:29.999Z</time></trkpt><trkpt lat="42.097421991156324" lon="14.020323261591072"><ele>1007.0</ele><time>2026-04-04T11:53:30.999Z</time></trkpt><trkpt lat="42.097357841559365" lon="14.02034970237418"><ele>1008.0000000000001</ele><time>2026-04-04T11:53:31.999Z</time></trkpt><trkpt lat="42.09729477241621" lon="14.020353360429308"><ele>1009.0</ele><time>2026-04-04T11:53:32.999Z</time></trkpt><trkpt lat="42.09722436678494" lon="14.020359713308464"><ele>1010.0</ele><time>2026-04-04T11:53:33.999Z</time></trkpt><trkpt lat="42.09716669965373" lon="14.020275096685166"><ele>1011.0</ele><time>2026-04-04T11:53:34.999Z</time></trkpt><trkpt lat="42.097109514686366" lon="14.02023049030503"><ele>1012.0000000000001</ele><time>2026-04-04T11:53:35.999Z</time></trkpt><trkpt lat="42.096999864112675" lon="14.020148785928363"><ele>1013.0</ele><time>2026-04-04T11:53:37.999Z</time></trkpt><trkpt lat="42.096923157270965" lon="14.020141942314524"><ele>1013.0000000000001</ele><time>2026-04-04T11:53:38.999Z</time></trkpt><trkpt lat="42.096851759319364" lon="14.02020866867339"><ele>1013.0</ele><time>2026-04-04T11:53:39.999Z</time></trkpt><trkpt lat="42.09677848915196" lon="14.020267409486657"><ele>1013.0</ele><time>2026-04-04T11:53:40.999Z</time></trkpt><trkpt lat="42.09669644491564" lon="14.02031643235668"><ele>1013.0</ele><time>2026-04-04T11:53:41.999Z</time></trkpt><trkpt lat="42.09662041970731" lon="14.020383003653409"><ele>1013.0000000000001</ele><time>2026-04-04T11:53:42.999Z</time></trkpt><trkpt lat="42.09654080717852" lon="14.020442084633311"><ele>1013.0</ele><time>2026-04-04T11:53:43.999Z</time></trkpt><trkpt lat="42.09645204310171" lon="14.020493406669202"><ele>1014.5000000000001</ele><time>2026-04-04T11:53:44.999Z</time></trkpt><trkpt lat="42.09636130692663" lon="14.020542779138244"><ele>1016.0</ele><time>2026-04-04T11:53:45.999Z</time></trkpt><trkpt lat="42.09627669555987" lon="14.020592451481404"><ele>1017.5</ele><time>2026-04-04T11:53:46.999Z</time></trkpt><trkpt lat="42.09619775246153" lon="14.020638796294401"><ele>1019.0</ele><time>2026-04-04T11:53:47.999Z</time></trkpt><trkpt lat="42.09611916503199" lon="14.020682638249617"><ele>1020.5000000000001</ele><time>2026-04-04T11:53:48.999Z</time></trkpt><trkpt lat="42.09604756893381" lon="14.020737222511686"><ele>1022.0</ele><time>2026-04-04T11:53:49.999Z</time></trkpt><trkpt lat="42.095969857124544" lon="14.020754772735854"><ele>1022.0</ele><time>2026-04-04T11:53:50.999Z</time></trkpt><trkpt lat="42.09589513703647" lon="14.020776166128083"><ele>1022.0</ele><time>2026-04-04T11:53:51.999Z</time></trkpt><trkpt lat="42.09581367245362" lon="14.020784991639749"><ele>1022.0</ele><time>2026-04-04T11:53:52.999Z</time></trkpt><trkpt lat="42.09572283035772" lon="14.020780516297526"><ele>1022.0</ele><time>2026-04-04T11:53:53.999Z</time></trkpt><trkpt lat="42.09561787168913" lon="14.0207946103702"><ele>1022.0</ele><time>2026-04-04T11:53:54.999Z</time></trkpt><trkpt lat="42.095510944869915" lon="14.020832301814211"><ele>1018.8</ele><time>2026-04-04T11:53:55.999Z</time></trkpt><trkpt lat="42.09541394022276" lon="14.020875963549916"><ele>1015.6</ele><time>2026-04-04T11:53:56.998Z</time></trkpt><trkpt lat="42.09532126741738" lon="14.020921874026506"><ele>1012.3999999999999</ele><time>2026-04-04T11:53:57.998Z</time></trkpt><trkpt lat="42.095223798664186" lon="14.020973539168228"><ele>1009.1999999999999</ele><time>2026-04-04T11:53:58.998Z</time></trkpt><trkpt lat="42.09512718825068" lon="14.021024749325095"><ele>1006.0</ele><time>2026-04-04T11:53:59.998Z</time></trkpt><trkpt lat="42.095034824608256" lon="14.021073657601413"><ele>1005.9999999999999</ele><time>2026-04-04T11:54:00.998Z</time></trkpt><trkpt lat="42.0949483180762" lon="14.021119455155882"><ele>1006.0</ele><time>2026-04-04T11:54:01.998Z</time></trkpt><trkpt lat="42.09486640533044" lon="14.021162820764971"><ele>1006.0</ele><time>2026-04-04T11:54:02.998Z</time></trkpt><trkpt lat="42.094788649040126" lon="14.021203985823881"><ele>1006.0</ele><time>2026-04-04T11:54:03.998Z</time></trkpt><trkpt lat="42.09471243532537" lon="14.02124289027749"><ele>1005.9999999999999</ele><time>2026-04-04T11:54:04.998Z</time></trkpt><trkpt lat="42.09463638024952" lon="14.021279192907295"><ele>1006.0</ele><time>2026-04-04T11:54:05.998Z</time></trkpt><trkpt lat="42.094567859568684" lon="14.021312583751019"><ele>1005.3333333333333</ele><time>2026-04-04T11:54:06.998Z</time></trkpt><trkpt lat="42.09449683711994" lon="14.021349589195873"><ele>1004.6666666666666</ele><time>2026-04-04T11:54:07.998Z</time></trkpt><trkpt lat="42.09442824159554" lon="14.021399969363474"><ele>1004.0</ele><time>2026-04-04T11:54:08.998Z</time></trkpt><trkpt lat="42.09436340914861" lon="14.021466162281754"><ele>1003.3333333333333</ele><time>2026-04-04T11:54:09.998Z</time></trkpt><trkpt lat="42.09430409607152" lon="14.021539438680582"><ele>1002.6666666666666</ele><time>2026-04-04T11:54:10.998Z</time></trkpt><trkpt lat="42.09425368807938" lon="14.02162581630729"><ele>1002.0</ele><time>2026-04-04T11:54:11.998Z</time></trkpt><trkpt lat="42.09420004442849" lon="14.021691832176524"><ele>1002.0</ele><time>2026-04-04T11:54:12.998Z</time></trkpt><trkpt lat="42.094156570875406" lon="14.021760138419944"><ele>1002.0</ele><time>2026-04-04T11:54:13.998Z</time></trkpt><trkpt lat="42.094135233342705" lon="14.021892226596144"><ele>1002.0</ele><time>2026-04-04T11:54:15.998Z</time></trkpt><trkpt lat="42.09419293783253" lon="14.02199103084714"><ele>1002.0</ele><time>2026-04-04T11:54:17.998Z</time></trkpt><trkpt lat="42.09429343574718" lon="14.021984922229773"><ele>1002.0</ele><time>2026-04-04T11:54:19.998Z</time></trkpt><trkpt lat="42.09440932815421" lon="14.02189925055117"><ele>1002.0</ele><time>2026-04-04T11:54:21.998Z</time></trkpt><trkpt lat="42.09447287718021" lon="14.021849279392079"><ele>1002.0</ele><time>2026-04-04T11:54:22.998Z</time></trkpt><trkpt lat="42.094588991271635" lon="14.021803475305802"><ele>1002.0</ele><time>2026-04-04T11:54:24.998Z</time></trkpt><trkpt lat="42.09465200186634" lon="14.021819910131054"><ele>1002.0</ele><time>2026-04-04T11:54:25.998Z</time></trkpt><trkpt lat="42.09470707651454" lon="14.02186904371201"><ele>1002.0</ele><time>2026-04-04T11:54:26.998Z</time></trkpt><trkpt lat="42.094755837840104" lon="14.021941824280631"><ele>1002.0</ele><time>2026-04-04T11:54:27.998Z</time></trkpt><trkpt lat="42.09480334967397" lon="14.022029577579179"><ele>1002.0</ele><time>2026-04-04T11:54:28.998Z</time></trkpt><trkpt lat="42.094850255838104" lon="14.02212557346062"><ele>1002.0</ele><time>2026-04-04T11:54:29.998Z</time></trkpt><trkpt lat="42.09489470808927" lon="14.022222232075938"><ele>1002.0</ele><time>2026-04-04T11:54:30.998Z</time></trkpt><trkpt lat="42.0949422899589" lon="14.022305213561605"><ele>1002.0</ele><time>2026-04-04T11:54:32Z</time></trkpt><trkpt lat="42.094993226465974" lon="14.022376044955736"><ele>1002.0</ele><time>2026-04-04T11:54:33Z</time></trkpt><trkpt lat="42.0950494731144" lon="14.022435768749721"><ele>1002.0</ele><time>2026-04-04T11:54:34Z</time></trkpt><trkpt lat="42.09510597895919" lon="14.022499845717435"><ele>1000.6666666666666</ele><time>2026-04-04T11:54:35Z</time></trkpt><trkpt lat="42.09519171068056" lon="14.022498582372027"><ele>999.3333333333333</ele><time>2026-04-04T11:54:36Z</time></trkpt><trkpt lat="42.09527196979137" lon="14.022507391865789"><ele>998.0</ele><time>2026-04-04T11:54:37Z</time></trkpt><trkpt lat="42.095355617338114" lon="14.022501259805288"><ele>996.6666666666666</ele><time>2026-04-04T11:54:38Z</time></trkpt><trkpt lat="42.09544623148896" lon="14.022490957860256"><ele>995.3333333333333</ele><time>2026-04-04T11:54:39Z</time></trkpt><trkpt lat="42.095543581936354" lon="14.022490278054986"><ele>994.0</ele><time>2026-04-04T11:54:40Z</time></trkpt><trkpt lat="42.09564587329659" lon="14.022503074032588"><ele>994.0</ele><time>2026-04-04T11:54:41Z</time></trkpt><trkpt lat="42.09575175686962" lon="14.022518768645668"><ele>994.0000000000001</ele><time>2026-04-04T11:54:42Z</time></trkpt><trkpt lat="42.095849263280435" lon="14.022535154028798"><ele>994.0000000000001</ele><time>2026-04-04T11:54:43Z</time></trkpt><trkpt lat="42.09594339664007" lon="14.022551522948092"><ele>994.0</ele><time>2026-04-04T11:54:44Z</time></trkpt><trkpt lat="42.09603356374771" lon="14.022565697508108"><ele>994.0</ele><time>2026-04-04T11:54:45Z</time></trkpt><trkpt lat="42.09611589408829" lon="14.022572186537579"><ele>994.1666666666666</ele><time>2026-04-04T11:54:46Z</time></trkpt><trkpt lat="42.096198374780315" lon="14.022568959166598"><ele>994.3333333333333</ele><time>2026-04-04T11:54:47Z</time></trkpt><trkpt lat="42.09627403676695" lon="14.022546736645694"><ele>994.5</ele><time>2026-04-04T11:54:48Z</time></trkpt><trkpt lat="42.096354127982245" lon="14.022553962808512"><ele>994.6666666666667</ele><time>2026-04-04T11:54:49Z</time></trkpt><trkpt lat="42.09642351594174" lon="14.02254430150807"><ele>994.8333333333334</ele><time>2026-04-04T11:54:50Z</time></trkpt><trkpt lat="42.096486884976414" lon="14.022550255473758"><ele>995.0</ele><time>2026-04-04T11:54:51Z</time></trkpt><trkpt lat="42.09657226461317" lon="14.022481151985778"><ele>993.4</ele><time>2026-04-04T11:54:52Z</time></trkpt><trkpt lat="42.096648315181426" lon="14.022443226430875"><ele>991.8</ele><time>2026-04-04T11:54:53Z</time></trkpt><trkpt lat="42.09672974771474" lon="14.022408701126688"><ele>990.2</ele><time>2026-04-04T11:54:54Z</time></trkpt><trkpt lat="42.09683506904648" lon="14.022419481582729"><ele>988.6</ele><time>2026-04-04T11:54:55Z</time></trkpt><trkpt lat="42.09694594400523" lon="14.022441939746814"><ele>987.0</ele><time>2026-04-04T11:54:56Z</time></trkpt><trkpt lat="42.097061515941306" lon="14.022466363079936"><ele>987.0</ele><time>2026-04-04T11:54:57Z</time></trkpt><trkpt lat="42.09718928386633" lon="14.022498901782914"><ele>987.0</ele><time>2026-04-04T11:54:58Z</time></trkpt><trkpt lat="42.09732042765711" lon="14.022553408898121"><ele>987.0</ele><time>2026-04-04T11:54:59Z</time></trkpt><trkpt lat="42.09744479043231" lon="14.022585342505904"><ele>987.0</ele><time>2026-04-04T11:55:00Z</time></trkpt><trkpt lat="42.09756976323789" lon="14.022617432815935"><ele>987.0</ele><time>2026-04-04T11:55:01Z</time></trkpt><trkpt lat="42.09769060684738" lon="14.022646947961087"><ele>987.0</ele><time>2026-04-04T11:55:02Z</time></trkpt><trkpt lat="42.097808208796664" lon="14.022651961019614"><ele>987.0</ele><time>2026-04-04T11:55:03Z</time></trkpt><trkpt lat="42.09792264192535" lon="14.022668226292163"><ele>987.0</ele><time>2026-04-04T11:55:04Z</time></trkpt><trkpt lat="42.098036488870626" lon="14.022661595602921"><ele>987.0</ele><time>2026-04-04T11:55:05Z</time></trkpt><trkpt lat="42.098133922300136" lon="14.022641173151479"><ele>987.0</ele><time>2026-04-04T11:55:06Z</time></trkpt><trkpt lat="42.0982203734433" lon="14.022631212763761"><ele>987.0</ele><time>2026-04-04T11:55:07.999Z</time></trkpt><trkpt lat="42.09829474583745" lon="14.022595205476488"><ele>987.0</ele><time>2026-04-04T11:56:45Z</time></trkpt><trkpt lat="42.098357801694775" lon="14.022579689720606"><ele>987.0</ele><time>2026-04-04T11:56:48Z</time></trkpt><trkpt lat="42.0984431864296" lon="14.022545133448613"><ele>987.0</ele><time>2026-04-04T11:56:50Z</time></trkpt><trkpt lat="42.098556021425104" lon="14.022509279631361"><ele>986.6666666666666</ele><time>2026-04-04T11:56:52Z</time></trkpt><trkpt lat="42.09861729172592" lon="14.0224892620384"><ele>986.3333333333333</ele><time>2026-04-04T11:56:53Z</time></trkpt><trkpt lat="42.098737444594555" lon="14.022488300283149"><ele>986.0</ele><time>2026-04-04T11:56:55Z</time></trkpt><trkpt lat="42.098802920796786" lon="14.022488160050239"><ele>985.6666666666666</ele><time>2026-04-04T11:56:56Z</time></trkpt><trkpt lat="42.09888272631883" lon="14.022499944184807"><ele>985.3333333333333</ele><time>2026-04-04T11:56:57Z</time></trkpt><trkpt lat="42.09895796933891" lon="14.022517744575122"><ele>985.0</ele><time>2026-04-04T11:56:58Z</time></trkpt><trkpt lat="42.09903320792484" lon="14.02254457900434"><ele>984.1666666666666</ele><time>2026-04-04T11:56:59Z</time></trkpt><trkpt lat="42.09909673097893" lon="14.022570800494112"><ele>983.3333333333333</ele><time>2026-04-04T11:57:00Z</time></trkpt><trkpt lat="42.09916402047688" lon="14.022601554133292"><ele>982.5</ele><time>2026-04-04T11:57:01Z</time></trkpt><trkpt lat="42.09924609225227" lon="14.022615964339318"><ele>981.6666666666667</ele><time>2026-04-04T11:57:02Z</time></trkpt><trkpt lat="42.09933877749282" lon="14.022658447954141"><ele>980.8333333333334</ele><time>2026-04-04T11:57:03Z</time></trkpt><trkpt lat="42.099430065813124" lon="14.022722892170751"><ele>980.0</ele><time>2026-04-04T11:57:04Z</time></trkpt><trkpt lat="42.09952701812327" lon="14.02276553278363"><ele>980.0</ele><time>2026-04-04T11:57:05Z</time></trkpt><trkpt lat="42.09963347971232" lon="14.02281235569208"><ele>980.0</ele><time>2026-04-04T11:57:06Z</time></trkpt><trkpt lat="42.099748561395025" lon="14.022862969854845"><ele>980.0</ele><time>2026-04-04T11:57:07Z</time></trkpt><trkpt lat="42.09987176238899" lon="14.02291715493385"><ele>980.0</ele><time>2026-04-04T11:57:07.999Z</time></trkpt><trkpt lat="42.09994837476877" lon="14.022951293051237"><ele>980.0</ele><time>2026-04-04T11:57:08.999Z</time></trkpt><trkpt lat="42.10003279809499" lon="14.022975423489887"><ele>980.6</ele><time>2026-04-04T11:57:09.999Z</time></trkpt><trkpt lat="42.10009609036245" lon="14.023036625082456"><ele>981.2</ele><time>2026-04-04T11:57:10.999Z</time></trkpt><trkpt lat="42.100154572692475" lon="14.02309822716608"><ele>981.8</ele><time>2026-04-04T11:57:11.999Z</time></trkpt><trkpt lat="42.100216963506874" lon="14.023184420657595"><ele>982.4</ele><time>2026-04-04T11:57:12.999Z</time></trkpt><trkpt lat="42.100254195907425" lon="14.023313049468335"><ele>983.0</ele><time>2026-04-04T11:57:13.999Z</time></trkpt><trkpt lat="42.10031225996933" lon="14.02347222585968"><ele>983.0</ele><time>2026-04-04T11:57:14.999Z</time></trkpt><trkpt lat="42.100370278195086" lon="14.02364089455686"><ele>983.0</ele><time>2026-04-04T11:57:15.999Z</time></trkpt><trkpt lat="42.100437271536634" lon="14.023778440653269"><ele>983.0</ele><time>2026-04-04T11:57:16.999Z</time></trkpt><trkpt lat="42.10047250240556" lon="14.023903629302149"><ele>983.0</ele><time>2026-04-04T11:57:17.999Z</time></trkpt><trkpt lat="42.10050677683531" lon="14.024005372407318"><ele>983.0</ele><time>2026-04-04T11:57:18.999Z</time></trkpt><trkpt lat="42.10054686067318" lon="14.024081784940137"><ele>983.8</ele><time>2026-04-04T11:57:19.999Z</time></trkpt><trkpt lat="42.10064765538922" lon="14.024177796456659"><ele>984.5999999999999</ele><time>2026-04-04T11:57:21.999Z</time></trkpt><trkpt lat="42.100727372044574" lon="14.02418951156689"><ele>985.4000000000001</ele><time>2026-04-04T11:57:22.999Z</time></trkpt><trkpt lat="42.10082355171773" lon="14.024187781654202"><ele>986.2</ele><time>2026-04-04T11:57:23.999Z</time></trkpt><trkpt lat="42.10092393632418" lon="14.02415242855684"><ele>987.0</ele><time>2026-04-04T11:57:24.999Z</time></trkpt><trkpt lat="42.101021402288914" lon="14.024095154870853"><ele>985.0</ele><time>2026-04-04T11:57:25.999Z</time></trkpt><trkpt lat="42.101116679757936" lon="14.024092732603169"><ele>983.0</ele><time>2026-04-04T11:57:26.999Z</time></trkpt><trkpt lat="42.10120770557724" lon="14.024086178387307"><ele>981.0</ele><time>2026-04-04T11:57:27.999Z</time></trkpt><trkpt lat="42.1013106530217" lon="14.024102101058537"><ele>979.0</ele><time>2026-04-04T11:57:28.999Z</time></trkpt><trkpt lat="42.101429868769124" lon="14.024163084155775"><ele>977.0</ele><time>2026-04-04T11:57:29.999Z</time></trkpt><trkpt lat="42.10157438920293" lon="14.024240498940417"><ele>975.25</ele><time>2026-04-04T11:57:30.999Z</time></trkpt><trkpt lat="42.101705767915035" lon="14.0243086656033"><ele>973.5</ele><time>2026-04-04T11:57:31.999Z</time></trkpt><trkpt lat="42.10183062415261" lon="14.024349820112096"><ele>971.75</ele><time>2026-04-04T11:57:32.999Z</time></trkpt><trkpt lat="42.101942756696985" lon="14.024405674480263"><ele>970.0</ele><time>2026-04-04T11:57:33.999Z</time></trkpt><trkpt lat="42.10203671897788" lon="14.024475368151169"><ele>969.9999999999999</ele><time>2026-04-04T11:57:34.999Z</time></trkpt><trkpt lat="42.10211647287008" lon="14.02451457393213"><ele>970.0</ele><time>2026-04-04T11:57:35.999Z</time></trkpt><trkpt lat="42.10219724261681" lon="14.024521351689684"><ele>970.0</ele><time>2026-04-04T11:57:36.999Z</time></trkpt><trkpt lat="42.10227552237963" lon="14.024527497528652"><ele>970.0</ele><time>2026-04-04T11:57:37.999Z</time></trkpt><trkpt lat="42.10234894196715" lon="14.024496284182792"><ele>969.9999999999999</ele><time>2026-04-04T11:57:38.999Z</time></trkpt><trkpt lat="42.10240404877448" lon="14.02442156084164"><ele>970.0</ele><time>2026-04-04T11:57:39.999Z</time></trkpt><trkpt lat="42.102438614704305" lon="14.024319978409823"><ele>969.6666666666666</ele><time>2026-04-04T11:57:40.999Z</time></trkpt><trkpt lat="42.102458093186996" lon="14.024200106321391"><ele>969.3333333333333</ele><time>2026-04-04T11:57:41.999Z</time></trkpt><trkpt lat="42.1024852000983" lon="14.024083389130533"><ele>969.0</ele><time>2026-04-04T11:57:42.999Z</time></trkpt><trkpt lat="42.102513831291006" lon="14.023977346082596"><ele>968.6666666666667</ele><time>2026-04-04T11:57:43.999Z</time></trkpt><trkpt lat="42.1025319983967" lon="14.023875981583213"><ele>968.3333333333334</ele><time>2026-04-04T11:57:44.999Z</time></trkpt><trkpt lat="42.10257569797025" lon="14.023799929831547"><ele>968.0</ele><time>2026-04-04T11:57:45.999Z</time></trkpt><trkpt lat="42.10263426188681" lon="14.023742704805116"><ele>966.5000000000001</ele><time>2026-04-04T11:57:46.999Z</time></trkpt><trkpt lat="42.10270071814839" lon="14.02370678614377"><ele>965.0</ele><time>2026-04-04T11:57:47.999Z</time></trkpt><trkpt lat="42.10277398731788" lon="14.023743661883454"><ele>963.5</ele><time>2026-04-04T11:57:48.999Z</time></trkpt><trkpt lat="42.102846819168796" lon="14.023759976558088"><ele>962.0</ele><time>2026-04-04T11:57:49.999Z</time></trkpt><trkpt lat="42.10293959574505" lon="14.023765249836341"><ele>960.5000000000001</ele><time>2026-04-04T11:57:50.999Z</time></trkpt><trkpt lat="42.103027891941" lon="14.023831557575006"><ele>959.0</ele><time>2026-04-04T11:57:51.999Z</time></trkpt><trkpt lat="42.103117949992146" lon="14.023892971921704"><ele>959.0</ele><time>2026-04-04T11:57:52.999Z</time></trkpt><trkpt lat="42.103216253386115" lon="14.023964874485443"><ele>959.0</ele><time>2026-04-04T11:57:53.999Z</time></trkpt><trkpt lat="42.103331470195975" lon="14.024026494291698"><ele>959.0</ele><time>2026-04-04T11:57:54.999Z</time></trkpt><trkpt lat="42.10344102491982" lon="14.024106062084666"><ele>959.0</ele><time>2026-04-04T11:57:55.999Z</time></trkpt><trkpt lat="42.103560036824575" lon="14.02418130562672"><ele>960.8000000000001</ele><time>2026-04-04T11:57:56.999Z</time></trkpt><trkpt lat="42.103678610169226" lon="14.024247758266908"><ele>962.6000000000001</ele><time>2026-04-04T11:57:57.999Z</time></trkpt><trkpt lat="42.103786715006635" lon="14.024300919425595"><ele>964.4</ele><time>2026-04-04T11:57:58.999Z</time></trkpt><trkpt lat="42.103870755594485" lon="14.02436781672454"><ele>966.2</ele><time>2026-04-04T11:57:59.999Z</time></trkpt><trkpt lat="42.103946096817666" lon="14.024419269276557"><ele>968.0</ele><time>2026-04-04T11:58:00.999Z</time></trkpt><trkpt lat="42.104014732577106" lon="14.024476795753964"><ele>967.0</ele><time>2026-04-04T11:58:01.999Z</time></trkpt><trkpt lat="42.10409089242511" lon="14.02453286174033"><ele>966.0</ele><time>2026-04-04T11:58:02.999Z</time></trkpt><trkpt lat="42.10416261931319" lon="14.024628476189026"><ele>965.0</ele><time>2026-04-04T11:58:03.999Z</time></trkpt><trkpt lat="42.104238207844546" lon="14.024728970409287"><ele>964.0</ele><time>2026-04-04T11:58:04.999Z</time></trkpt><trkpt lat="42.10431746466215" lon="14.02483621181649"><ele>963.0</ele><time>2026-04-04T11:58:05.999Z</time></trkpt><trkpt lat="42.10440218206144" lon="14.024940813898775"><ele>965.5</ele><time>2026-04-04T11:58:06.999Z</time></trkpt><trkpt lat="42.10449796170361" lon="14.025036656947218"><ele>968.0</ele><time>2026-04-04T11:58:07.999Z</time></trkpt><trkpt lat="42.10459953762571" lon="14.025120246342254"><ele>970.5</ele><time>2026-04-04T11:58:08.999Z</time></trkpt><trkpt lat="42.10470657221708" lon="14.025194977216767"><ele>973.0</ele><time>2026-04-04T11:58:09.999Z</time></trkpt><trkpt lat="42.10481669375267" lon="14.025270333240428"><ele>970.5999999999999</ele><time>2026-04-04T11:58:10.999Z</time></trkpt><trkpt lat="42.10492159748458" lon="14.025340287117784"><ele>968.1999999999999</ele><time>2026-04-04T11:58:11.999Z</time></trkpt><trkpt lat="42.1050195751876" lon="14.025411440973672"><ele>965.8</ele><time>2026-04-04T11:58:12.999Z</time></trkpt><trkpt lat="42.10510742783692" lon="14.025487559233943"><ele>963.4</ele><time>2026-04-04T11:58:13.999Z</time></trkpt><trkpt lat="42.10519632700696" lon="14.025557603318454"><ele>961.0</ele><time>2026-04-04T11:58:14.998Z</time></trkpt><trkpt lat="42.10527610252387" lon="14.02560743539529"><ele>961.0</ele><time>2026-04-04T11:58:15.998Z</time></trkpt><trkpt lat="42.1053605177637" lon="14.025616233874056"><ele>960.9999999999999</ele><time>2026-04-04T11:58:16.998Z</time></trkpt><trkpt lat="42.10545630155904" lon="14.025580384866789"><ele>960.9999999999999</ele><time>2026-04-04T11:58:17.998Z</time></trkpt><trkpt lat="42.10555497194882" lon="14.025508890507577"><ele>961.0</ele><time>2026-04-04T11:58:18.998Z</time></trkpt><trkpt lat="42.10565626616211" lon="14.025427084591707"><ele>961.0</ele><time>2026-04-04T11:58:19.998Z</time></trkpt><trkpt lat="42.105760712921466" lon="14.025340055547947"><ele>961.75</ele><time>2026-04-04T11:58:20.998Z</time></trkpt><trkpt lat="42.10586537486097" lon="14.025242670308012"><ele>962.5</ele><time>2026-04-04T11:58:21.998Z</time></trkpt><trkpt lat="42.105976891440775" lon="14.025165592840604"><ele>963.25</ele><time>2026-04-04T11:58:22.998Z</time></trkpt><trkpt lat="42.1060739298711" lon="14.02507925947065"><ele>964.0</ele><time>2026-04-04T11:58:23.998Z</time></trkpt><trkpt lat="42.106160015754455" lon="14.024976569625592"><ele>961.25</ele><time>2026-04-04T11:58:24.998Z</time></trkpt><trkpt lat="42.106251055439195" lon="14.024883293967234"><ele>958.5</ele><time>2026-04-04T11:58:25.998Z</time></trkpt><trkpt lat="42.10635304213784" lon="14.024775709871646"><ele>955.75</ele><time>2026-04-04T11:58:26.998Z</time></trkpt><trkpt lat="42.10645708841775" lon="14.024650800289612"><ele>953.0</ele><time>2026-04-04T11:58:27.998Z</time></trkpt><trkpt lat="42.10656612577675" lon="14.024546185943558"><ele>952.5</ele><time>2026-04-04T11:58:28.998Z</time></trkpt><trkpt lat="42.10664949841179" lon="14.024419756431948"><ele>952.0</ele><time>2026-04-04T11:58:29.998Z</time></trkpt><trkpt lat="42.106740508335555" lon="14.024308639407835"><ele>951.5</ele><time>2026-04-04T11:58:30.998Z</time></trkpt><trkpt lat="42.10683121510468" lon="14.024196959851055"><ele>951.0</ele><time>2026-04-04T11:58:31.998Z</time></trkpt><trkpt lat="42.10691004769724" lon="14.024091476991984"><ele>951.0</ele><time>2026-04-04T11:58:32.998Z</time></trkpt><trkpt lat="42.10699009317183" lon="14.024015137691839"><ele>950.9999999999999</ele><time>2026-04-04T11:58:33.998Z</time></trkpt><trkpt lat="42.10705875010555" lon="14.023920371840324"><ele>950.9999999999999</ele><time>2026-04-04T11:58:34.998Z</time></trkpt><trkpt lat="42.10712489053684" lon="14.023825412547001"><ele>951.0</ele><time>2026-04-04T11:58:35.998Z</time></trkpt><trkpt lat="42.10720059887965" lon="14.023744697463634"><ele>951.0</ele><time>2026-04-04T11:58:36.998Z</time></trkpt><trkpt lat="42.10729667460313" lon="14.023678194107616"><ele>952.5</ele><time>2026-04-04T11:58:37.998Z</time></trkpt><trkpt lat="42.107412184129245" lon="14.023615752089976"><ele>954.0</ele><time>2026-04-04T11:58:38.998Z</time></trkpt><trkpt lat="42.10752847702966" lon="14.023556416344137"><ele>955.5</ele><time>2026-04-04T11:58:39.998Z</time></trkpt><trkpt lat="42.107645113938034" lon="14.023498373209433"><ele>957.0</ele><time>2026-04-04T11:58:40.998Z</time></trkpt><trkpt lat="42.107753208693644" lon="14.023441134039585"><ele>957.0</ele><time>2026-04-04T11:58:41.998Z</time></trkpt><trkpt lat="42.10785808497379" lon="14.023387297228558"><ele>957.0</ele><time>2026-04-04T11:58:42.998Z</time></trkpt><trkpt lat="42.10796676391614" lon="14.02334253194489"><ele>957.0</ele><time>2026-04-04T11:58:43.999Z</time></trkpt><trkpt lat="42.108074694654704" lon="14.023323934570413"><ele>957.0</ele><time>2026-04-04T11:58:44.999Z</time></trkpt><trkpt lat="42.10819032170668" lon="14.023332507979035"><ele>955.75</ele><time>2026-04-04T11:58:45.999Z</time></trkpt><trkpt lat="42.10831415668193" lon="14.023363693800908"><ele>954.5</ele><time>2026-04-04T11:58:46.999Z</time></trkpt><trkpt lat="42.10843996662337" lon="14.023384138780557"><ele>953.25</ele><time>2026-04-04T11:58:47.999Z</time></trkpt><trkpt lat="42.10856553301371" lon="14.023364351810548"><ele>952.0</ele><time>2026-04-04T11:58:48.999Z</time></trkpt><trkpt lat="42.108685582033615" lon="14.023347256650975"><ele>952.0</ele><time>2026-04-04T11:58:49.999Z</time></trkpt><trkpt lat="42.108797915286445" lon="14.023345399995572"><ele>952.0</ele><time>2026-04-04T11:58:50.999Z</time></trkpt><trkpt lat="42.10889874350837" lon="14.023313952722239"><ele>952.0</ele><time>2026-04-04T11:58:51.999Z</time></trkpt><trkpt lat="42.108993336183" lon="14.02325606470792"><ele>952.0</ele><time>2026-04-04T11:58:52.999Z</time></trkpt><trkpt lat="42.109072529862445" lon="14.023169550158054"><ele>952.0</ele><time>2026-04-04T11:58:53.999Z</time></trkpt><trkpt lat="42.10916796645295" lon="14.023140485107705"><ele>951.0</ele><time>2026-04-04T11:58:54.999Z</time></trkpt><trkpt lat="42.109261053769764" lon="14.023194483335477"><ele>950.0</ele><time>2026-04-04T11:58:55.999Z</time></trkpt><trkpt lat="42.10935598284182" lon="14.023237899706821"><ele>949.0</ele><time>2026-04-04T11:58:56.999Z</time></trkpt><trkpt lat="42.10944488965594" lon="14.02330194329523"><ele>948.0</ele><time>2026-04-04T11:58:57.999Z</time></trkpt><trkpt lat="42.109517623731314" lon="14.02337782666296"><ele>947.0</ele><time>2026-04-04T11:58:58.999Z</time></trkpt><trkpt lat="42.10958092266249" lon="14.023464304211018"><ele>947.0000000000001</ele><time>2026-04-04T11:58:59.999Z</time></trkpt><trkpt lat="42.10965118137564" lon="14.023540451908728"><ele>947.0</ele><time>2026-04-04T11:59:00.999Z</time></trkpt><trkpt lat="42.10970277867062" lon="14.023614499811064"><ele>947.0</ele><time>2026-04-04T11:59:01.999Z</time></trkpt><trkpt lat="42.109814144518275" lon="14.023678748150713"><ele>947.0</ele><time>2026-04-04T11:59:03.999Z</time></trkpt><trkpt lat="42.10987466505286" lon="14.023652859469404"><ele>947.0000000000001</ele><time>2026-04-04T11:59:04.999Z</time></trkpt><trkpt lat="42.10992955562339" lon="14.023599632963817"><ele>947.0</ele><time>2026-04-04T11:59:05.999Z</time></trkpt><trkpt lat="42.109971790129244" lon="14.023506463382267"><ele>946.2</ele><time>2026-04-04T11:59:06.999Z</time></trkpt><trkpt lat="42.11001265658271" lon="14.023385735893422"><ele>945.4000000000001</ele><time>2026-04-04T11:59:07.999Z</time></trkpt><trkpt lat="42.11006179238669" lon="14.023256514426977"><ele>944.5999999999999</ele><time>2026-04-04T11:59:08.999Z</time></trkpt><trkpt lat="42.11013263164391" lon="14.02314624252102"><ele>943.8</ele><time>2026-04-04T11:59:09.999Z</time></trkpt><trkpt lat="42.110197072282126" lon="14.023040914008416"><ele>943.0</ele><time>2026-04-04T11:59:10.999Z</time></trkpt><trkpt lat="42.11026580548443" lon="14.022950823441752"><ele>941.5999999999999</ele><time>2026-04-04T11:59:11.999Z</time></trkpt><trkpt lat="42.11035097919495" lon="14.022872776993745"><ele>940.1999999999999</ele><time>2026-04-04T11:59:12.999Z</time></trkpt><trkpt lat="42.11045172641432" lon="14.022802731292419"><ele>938.8</ele><time>2026-04-04T11:59:13.999Z</time></trkpt><trkpt lat="42.11054379933518" lon="14.022722215986187"><ele>937.4</ele><time>2026-04-04T11:59:14.999Z</time></trkpt><trkpt lat="42.11063920179551" lon="14.022653795227953"><ele>936.0</ele><time>2026-04-04T11:59:15.999Z</time></trkpt><trkpt lat="42.11073080826822" lon="14.022584453981153"><ele>936.3333333333334</ele><time>2026-04-04T11:59:16.999Z</time></trkpt><trkpt lat="42.110826948431686" lon="14.022561436689355"><ele>936.6666666666667</ele><time>2026-04-04T11:59:17.999Z</time></trkpt><trkpt lat="42.11091527666803" lon="14.022534787132166"><ele>937.0</ele><time>2026-04-04T11:59:18.999Z</time></trkpt><trkpt lat="42.11099864199842" lon="14.022545057851865"><ele>937.3333333333334</ele><time>2026-04-04T11:59:19.999Z</time></trkpt><trkpt lat="42.11107829362733" lon="14.022574186013697"><ele>937.6666666666667</ele><time>2026-04-04T11:59:20.999Z</time></trkpt><trkpt lat="42.11113960302796" lon="14.02261159565314"><ele>938.0</ele><time>2026-04-04T11:59:21.999Z</time></trkpt><trkpt lat="42.11117748771116" lon="14.022703919698824"><ele>938.0</ele><time>2026-04-04T11:59:22.999Z</time></trkpt><trkpt lat="42.111171707954476" lon="14.022830147946095"><ele>938.0</ele><time>2026-04-04T11:59:23.999Z</time></trkpt><trkpt lat="42.11117138481083" lon="14.022968220782953"><ele>938.0</ele><time>2026-04-04T11:59:24.999Z</time></trkpt><trkpt lat="42.111187425740965" lon="14.023130728687741"><ele>938.0</ele><time>2026-04-04T11:59:25.999Z</time></trkpt><trkpt lat="42.11117326441578" lon="14.023306630459743"><ele>938.0</ele><time>2026-04-04T11:59:26.999Z</time></trkpt><trkpt lat="42.1111764411766" lon="14.023478520965046"><ele>938.4</ele><time>2026-04-04T11:59:27.999Z</time></trkpt><trkpt lat="42.11119365931726" lon="14.023636616074064"><ele>938.8</ele><time>2026-04-04T11:59:28.999Z</time></trkpt><trkpt lat="42.11119475223996" lon="14.0237903135742"><ele>939.2</ele><time>2026-04-04T11:59:29.999Z</time></trkpt><trkpt lat="42.11119756152893" lon="14.023917152102053"><ele>939.6</ele><time>2026-04-04T11:59:30.999Z</time></trkpt><trkpt lat="42.11120321590292" lon="14.024025291404946"><ele>940.0</ele><time>2026-04-04T11:59:31.999Z</time></trkpt><trkpt lat="42.11122042968194" lon="14.024121045267034"><ele>940.3333333333333</ele><time>2026-04-04T11:59:32.999Z</time></trkpt><trkpt lat="42.11125849303206" lon="14.024197448807588"><ele>940.6666666666666</ele><time>2026-04-04T11:59:33.999Z</time></trkpt><trkpt lat="42.11131402988543" lon="14.02424853967775"><ele>941.0</ele><time>2026-04-04T11:59:34.999Z</time></trkpt><trkpt lat="42.11138003711703" lon="14.02425853252599"><ele>941.3333333333333</ele><time>2026-04-04T11:59:35.999Z</time></trkpt><trkpt lat="42.11145011301953" lon="14.024239874074615"><ele>941.6666666666666</ele><time>2026-04-04T11:59:36.999Z</time></trkpt><trkpt lat="42.11152734790316" lon="14.024189417554288"><ele>942.0</ele><time>2026-04-04T11:59:37.999Z</time></trkpt><trkpt lat="42.11159999177205" lon="14.024101555160211"><ele>939.4000000000001</ele><time>2026-04-04T11:59:38.999Z</time></trkpt><trkpt lat="42.111677206443126" lon="14.023993822066892"><ele>936.8000000000001</ele><time>2026-04-04T11:59:39.999Z</time></trkpt><trkpt lat="42.11174780839277" lon="14.023887451130081"><ele>934.2</ele><time>2026-04-04T11:59:40.999Z</time></trkpt><trkpt lat="42.11183175773806" lon="14.023814792967203"><ele>931.6</ele><time>2026-04-04T11:59:41.999Z</time></trkpt><trkpt lat="42.111893334726396" lon="14.023713172222484"><ele>929.0</ele><time>2026-04-04T11:59:42.999Z</time></trkpt><trkpt lat="42.11197000988343" lon="14.023641530136825"><ele>929.0</ele><time>2026-04-04T11:59:43.999Z</time></trkpt><trkpt lat="42.112050778874334" lon="14.023580356583341"><ele>929.0000000000001</ele><time>2026-04-04T11:59:44.999Z</time></trkpt><trkpt lat="42.11212290332847" lon="14.023500239090275"><ele>929.0000000000001</ele><time>2026-04-04T11:59:45.999Z</time></trkpt><trkpt lat="42.11220248278922" lon="14.023444020143408"><ele>929.0</ele><time>2026-04-04T11:59:46.999Z</time></trkpt><trkpt lat="42.112292094430785" lon="14.02339512648078"><ele>929.0</ele><time>2026-04-04T11:59:47.999Z</time></trkpt><trkpt lat="42.11235960487139" lon="14.023305490449939"><ele>926.3333333333334</ele><time>2026-04-04T11:59:48.999Z</time></trkpt><trkpt lat="42.11243177729386" lon="14.023229453232327"><ele>923.6666666666667</ele><time>2026-04-04T11:59:49.999Z</time></trkpt><trkpt lat="42.11249872147999" lon="14.023173171735033"><ele>921.0</ele><time>2026-04-04T11:59:50.999Z</time></trkpt><trkpt lat="42.1125704564289" lon="14.023141688010941"><ele>918.3333333333333</ele><time>2026-04-04T11:59:51.999Z</time></trkpt><trkpt lat="42.11264070713626" lon="14.02314499299428"><ele>915.6666666666666</ele><time>2026-04-04T11:59:52.999Z</time></trkpt><trkpt lat="42.11271143403417" lon="14.02319608625494"><ele>913.0</ele><time>2026-04-04T11:59:53.999Z</time></trkpt><trkpt lat="42.11278213523019" lon="14.023290279845776"><ele>915.5999999999999</ele><time>2026-04-04T11:59:54.999Z</time></trkpt><trkpt lat="42.112839264122066" lon="14.02337754593293"><ele>918.1999999999999</ele><time>2026-04-04T11:59:55.999Z</time></trkpt><trkpt lat="42.112920244353646" lon="14.023444350352952"><ele>920.8</ele><time>2026-04-04T11:59:56.999Z</time></trkpt><trkpt lat="42.11301774571218" lon="14.02349112485057"><ele>923.4</ele><time>2026-04-04T11:59:57.999Z</time></trkpt><trkpt lat="42.11310965432725" lon="14.023541634473466"><ele>926.0</ele><time>2026-04-04T11:59:58.999Z</time></trkpt><trkpt lat="42.1132061083797" lon="14.02356656942805"><ele>925.0</ele><time>2026-04-04T11:59:59.999Z</time></trkpt><trkpt lat="42.11329920480126" lon="14.0235961906213"><ele>923.9999999999999</ele><time>2026-04-04T12:00:00.999Z</time></trkpt><trkpt lat="42.11337177754791" lon="14.023657367023448"><ele>922.9999999999999</ele><time>2026-04-04T12:00:01.999Z</time></trkpt><trkpt lat="42.11343125542052" lon="14.0237522010484"><ele>922.0</ele><time>2026-04-04T12:00:02.999Z</time></trkpt><trkpt lat="42.113498657943154" lon="14.023844311451118"><ele>921.0</ele><time>2026-04-04T12:00:03.999Z</time></trkpt><trkpt lat="42.11354204422102" lon="14.023938356755421"><ele>921.0</ele><time>2026-04-04T12:00:04.999Z</time></trkpt><trkpt lat="42.11358618810595" lon="14.02400424214645"><ele>920.9999999999999</ele><time>2026-04-04T12:00:05.999Z</time></trkpt><trkpt lat="42.113704972858756" lon="14.024060072702703"><ele>920.9999999999999</ele><time>2026-04-04T12:00:07.999Z</time></trkpt><trkpt lat="42.113785797761466" lon="14.024040325617262"><ele>921.0</ele><time>2026-04-04T12:00:08.999Z</time></trkpt><trkpt lat="42.11386226222085" lon="14.023955446980018"><ele>921.0</ele><time>2026-04-04T12:00:09.999Z</time></trkpt><trkpt lat="42.11394149373718" lon="14.023845276651945"><ele>921.0</ele><time>2026-04-04T12:00:10.999Z</time></trkpt><trkpt lat="42.11402065207686" lon="14.023739577017583"><ele>920.9999999999999</ele><time>2026-04-04T12:00:11.999Z</time></trkpt><trkpt lat="42.11410927595231" lon="14.023663264605904"><ele>920.9999999999999</ele><time>2026-04-04T12:00:12.998Z</time></trkpt><trkpt lat="42.11419250606754" lon="14.02358374135687"><ele>921.0</ele><time>2026-04-04T12:00:13.998Z</time></trkpt><trkpt lat="42.114275873546134" lon="14.023534775213095"><ele>921.0</ele><time>2026-04-04T12:00:14.998Z</time></trkpt><trkpt lat="42.114369569880715" lon="14.02350103821576"><ele>919.4</ele><time>2026-04-04T12:00:15.998Z</time></trkpt><trkpt lat="42.114468332100856" lon="14.023522250363348"><ele>917.8</ele><time>2026-04-04T12:00:16.998Z</time></trkpt><trkpt lat="42.114566081097664" lon="14.023555187946256"><ele>916.1999999999999</ele><time>2026-04-04T12:00:17.998Z</time></trkpt><trkpt lat="42.11467017074153" lon="14.023590165065873"><ele>914.5999999999999</ele><time>2026-04-04T12:00:18.998Z</time></trkpt><trkpt lat="42.11478593329349" lon="14.02363079942982"><ele>913.0</ele><time>2026-04-04T12:00:19.998Z</time></trkpt><trkpt lat="42.11491450384394" lon="14.023672613368712"><ele>910.0</ele><time>2026-04-04T12:00:20.998Z</time></trkpt><trkpt lat="42.115043165604234" lon="14.023711480409135"><ele>907.0</ele><time>2026-04-04T12:00:21.998Z</time></trkpt><trkpt lat="42.11516756257978" lon="14.023747698113805"><ele>904.0</ele><time>2026-04-04T12:00:22.998Z</time></trkpt><trkpt lat="42.115287684910044" lon="14.023778806281566"><ele>901.0</ele><time>2026-04-04T12:00:23.998Z</time></trkpt><trkpt lat="42.11539651853357" lon="14.02380731888493"><ele>901.0</ele><time>2026-04-04T12:00:24.998Z</time></trkpt><trkpt lat="42.115482787865595" lon="14.023849551687432"><ele>900.9999999999999</ele><time>2026-04-04T12:00:25.998Z</time></trkpt><trkpt lat="42.115558189252184" lon="14.023900702639363"><ele>900.9999999999999</ele><time>2026-04-04T12:00:26.998Z</time></trkpt><trkpt lat="42.115599657660674" lon="14.023999908468356"><ele>901.0</ele><time>2026-04-04T12:00:27.998Z</time></trkpt><trkpt lat="42.115640871645134" lon="14.024139527836178"><ele>901.0</ele><time>2026-04-04T12:00:28.998Z</time></trkpt><trkpt lat="42.11570179671442" lon="14.024307514622874"><ele>900.75</ele><time>2026-04-04T12:00:29.998Z</time></trkpt><trkpt lat="42.115784264810365" lon="14.024472076604948"><ele>900.5</ele><time>2026-04-04T12:00:30.998Z</time></trkpt><trkpt lat="42.11587781861101" lon="14.024624912606402"><ele>900.25</ele><time>2026-04-04T12:00:31.998Z</time></trkpt><trkpt lat="42.11595826432721" lon="14.024751391508978"><ele>900.0</ele><time>2026-04-04T12:00:32.998Z</time></trkpt><trkpt lat="42.11601826512297" lon="14.024860568783252"><ele>901.8</ele><time>2026-04-04T12:00:33.998Z</time></trkpt><trkpt lat="42.11605445081589" lon="14.02498150205427"><ele>903.6</ele><time>2026-04-04T12:00:34.998Z</time></trkpt><trkpt lat="42.11605088281157" lon="14.025119986606006"><ele>905.4000000000001</ele><time>2026-04-04T12:00:35.998Z</time></trkpt><trkpt lat="42.11604083871429" lon="14.0252828667189"><ele>907.2</ele><time>2026-04-04T12:00:36.998Z</time></trkpt><trkpt lat="42.116059814875825" lon="14.02539723840776"><ele>909.0</ele><time>2026-04-04T12:00:37.998Z</time></trkpt><trkpt lat="42.11609304524628" lon="14.02550840260469"><ele>909.0</ele><time>2026-04-04T12:00:38.998Z</time></trkpt><trkpt lat="42.1161527988925" lon="14.025600557629486"><ele>909.0</ele><time>2026-04-04T12:00:39.998Z</time></trkpt><trkpt lat="42.11623009927868" lon="14.025651798627031"><ele>909.0</ele><time>2026-04-04T12:00:40.998Z</time></trkpt><trkpt lat="42.11631289662589" lon="14.025676641468486"><ele>909.0</ele><time>2026-04-04T12:00:41.998Z</time></trkpt><trkpt lat="42.11638892304695" lon="14.025654324709878"><ele>909.0</ele><time>2026-04-04T12:00:42.998Z</time></trkpt><trkpt lat="42.11645481060046" lon="14.025587085851182"><ele>909.0</ele><time>2026-04-04T12:00:43.998Z</time></trkpt><trkpt lat="42.11651982710427" lon="14.025481905543195"><ele>905.8000000000001</ele><time>2026-04-04T12:00:44.998Z</time></trkpt><trkpt lat="42.116577957853124" lon="14.02537627176964"><ele>902.6000000000001</ele><time>2026-04-04T12:00:45.998Z</time></trkpt><trkpt lat="42.11666347347888" lon="14.025302604430342"><ele>899.4</ele><time>2026-04-04T12:00:46.998Z</time></trkpt><trkpt lat="42.11675012562356" lon="14.025244301351767"><ele>896.2</ele><time>2026-04-04T12:00:47.998Z</time></trkpt><trkpt lat="42.11684310588117" lon="14.02521438502276"><ele>893.0</ele><time>2026-04-04T12:00:48.998Z</time></trkpt><trkpt lat="42.11693205572262" lon="14.025213168266745"><ele>893.0000000000001</ele><time>2026-04-04T12:00:49.999Z</time></trkpt><trkpt lat="42.11700461775789" lon="14.025209843283438"><ele>893.0</ele><time>2026-04-04T12:00:50.999Z</time></trkpt><trkpt lat="42.11704498519681" lon="14.02530767687214"><ele>893.0</ele><time>2026-04-04T12:00:51.999Z</time></trkpt><trkpt lat="42.11708645983313" lon="14.025383650514788"><ele>893.0</ele><time>2026-04-04T12:00:52.999Z</time></trkpt><trkpt lat="42.117128871165285" lon="14.025478745037633"><ele>893.0000000000001</ele><time>2026-04-04T12:00:53.999Z</time></trkpt><trkpt lat="42.117201915468335" lon="14.025575934928435"><ele>893.0</ele><time>2026-04-04T12:00:54.999Z</time></trkpt><trkpt lat="42.117280683261704" lon="14.02568213027974"><ele>893.0</ele><time>2026-04-04T12:00:55.999Z</time></trkpt><trkpt lat="42.117377355232286" lon="14.025776225039836"><ele>893.0</ele><time>2026-04-04T12:00:56.999Z</time></trkpt><trkpt lat="42.11746748215525" lon="14.025856294714467"><ele>893.0</ele><time>2026-04-04T12:00:57.999Z</time></trkpt><trkpt lat="42.117556589039275" lon="14.02590956286734"><ele>893.0</ele><time>2026-04-04T12:00:58.999Z</time></trkpt><trkpt lat="42.117649339078454" lon="14.025930328422843"><ele>893.0</ele><time>2026-04-04T12:00:59.999Z</time></trkpt><trkpt lat="42.1177406503175" lon="14.025913944337518"><ele>893.2</ele><time>2026-04-04T12:01:00.999Z</time></trkpt><trkpt lat="42.1178232135034" lon="14.025877198649132"><ele>893.4</ele><time>2026-04-04T12:01:01.999Z</time></trkpt><trkpt lat="42.11790174348234" lon="14.025893520861857"><ele>893.6000000000001</ele><time>2026-04-04T12:01:03Z</time></trkpt><trkpt lat="42.11797743307286" lon="14.025900529211663"><ele>893.8000000000001</ele><time>2026-04-04T12:01:04Z</time></trkpt><trkpt lat="42.11805426818992" lon="14.025988166046117"><ele>894.0</ele><time>2026-04-04T12:01:05Z</time></trkpt><trkpt lat="42.11815576288584" lon="14.026057127809173"><ele>891.75</ele><time>2026-04-04T12:01:06Z</time></trkpt><trkpt lat="42.11826021711245" lon="14.026130804625785"><ele>889.5</ele><time>2026-04-04T12:01:07Z</time></trkpt><trkpt lat="42.11836083403003" lon="14.026209807071801"><ele>887.25</ele><time>2026-04-04T12:01:08Z</time></trkpt><trkpt lat="42.11844924415065" lon="14.026300393544906"><ele>885.0</ele><time>2026-04-04T12:01:09Z</time></trkpt><trkpt lat="42.11852730572805" lon="14.026417465463544"><ele>885.0</ele><time>2026-04-04T12:01:10Z</time></trkpt><trkpt lat="42.118600145775865" lon="14.02654341932446"><ele>885.0</ele><time>2026-04-04T12:01:11Z</time></trkpt><trkpt lat="42.118662527522645" lon="14.0266659633093"><ele>885.0</ele><time>2026-04-04T12:01:12Z</time></trkpt><trkpt lat="42.118727582079046" lon="14.026775905934777"><ele>885.0</ele><time>2026-04-04T12:01:13Z</time></trkpt><trkpt lat="42.11876667502162" lon="14.026897435823065"><ele>885.0</ele><time>2026-04-04T12:01:14Z</time></trkpt><trkpt lat="42.11880417885991" lon="14.027018566260534"><ele>885.0</ele><time>2026-04-04T12:01:15Z</time></trkpt><trkpt lat="42.11884425247448" lon="14.027125043099165"><ele>885.0</ele><time>2026-04-04T12:01:16Z</time></trkpt><trkpt lat="42.118886088617046" lon="14.027216981340747"><ele>885.0</ele><time>2026-04-04T12:01:17Z</time></trkpt><trkpt lat="42.118931746546075" lon="14.027295163188192"><ele>885.0</ele><time>2026-04-04T12:01:18Z</time></trkpt><trkpt lat="42.1189909185621" lon="14.027350799042138"><ele>885.0</ele><time>2026-04-04T12:01:19Z</time></trkpt><trkpt lat="42.1190804654998" lon="14.027367452098277"><ele>885.0</ele><time>2026-04-04T12:01:20Z</time></trkpt><trkpt lat="42.119175178141376" lon="14.02736510827413"><ele>885.0</ele><time>2026-04-04T12:01:21Z</time></trkpt><trkpt lat="42.11927926134862" lon="14.027322244109799"><ele>885.0</ele><time>2026-04-04T12:01:22Z</time></trkpt><trkpt lat="42.11938237064849" lon="14.02723144885909"><ele>885.0</ele><time>2026-04-04T12:01:23Z</time></trkpt><trkpt lat="42.1194817617924" lon="14.027128557510828"><ele>885.0</ele><time>2026-04-04T12:01:24Z</time></trkpt><trkpt lat="42.11957605642303" lon="14.02703220756815"><ele>885.0</ele><time>2026-04-04T12:01:24.999Z</time></trkpt><trkpt lat="42.119680020912014" lon="14.02696085114229"><ele>885.0</ele><time>2026-04-04T12:01:25.999Z</time></trkpt><trkpt lat="42.1197732686815" lon="14.026875196636393"><ele>885.0</ele><time>2026-04-04T12:01:26.999Z</time></trkpt><trkpt lat="42.11984934687563" lon="14.026777780133635"><ele>885.0</ele><time>2026-04-04T12:01:27.999Z</time></trkpt><trkpt lat="42.119927202820215" lon="14.026713998292234"><ele>885.0</ele><time>2026-04-04T12:01:28.999Z</time></trkpt><trkpt lat="42.11999764945188" lon="14.026642877418817"><ele>884.0</ele><time>2026-04-04T12:01:29.999Z</time></trkpt><trkpt lat="42.12005274784984" lon="14.026555966250113"><ele>883.0</ele><time>2026-04-04T12:01:30.999Z</time></trkpt><trkpt lat="42.12011295597826" lon="14.026472119883534"><ele>882.0</ele><time>2026-04-04T12:01:31.999Z</time></trkpt><trkpt lat="42.1201675057014" lon="14.026365451023594"><ele>881.0</ele><time>2026-04-04T12:01:32.999Z</time></trkpt><trkpt lat="42.120224569687274" lon="14.026245126496326"><ele>880.0</ele><time>2026-04-04T12:01:33.999Z</time></trkpt><trkpt lat="42.12027051746928" lon="14.02610490715752"><ele>880.0</ele><time>2026-04-04T12:01:34.999Z</time></trkpt><trkpt lat="42.12033748309183" lon="14.025965864057836"><ele>880.0</ele><time>2026-04-04T12:01:35.999Z</time></trkpt><trkpt lat="42.12041143503008" lon="14.025827775715916"><ele>880.0</ele><time>2026-04-04T12:01:36.999Z</time></trkpt><trkpt lat="42.12047474272346" lon="14.025696808032167"><ele>880.0</ele><time>2026-04-04T12:01:37.999Z</time></trkpt><trkpt lat="42.12053841613373" lon="14.025566384213317"><ele>880.6</ele><time>2026-04-04T12:01:38.999Z</time></trkpt><trkpt lat="42.12060045522177" lon="14.025442092168438"><ele>881.2</ele><time>2026-04-04T12:01:39.999Z</time></trkpt><trkpt lat="42.12066656259434" lon="14.025317697417616"><ele>881.8</ele><time>2026-04-04T12:01:40.999Z</time></trkpt><trkpt lat="42.120732447210294" lon="14.025221361876136"><ele>882.4</ele><time>2026-04-04T12:01:41.999Z</time></trkpt><trkpt lat="42.12080580959215" lon="14.025138866449264"><ele>883.0</ele><time>2026-04-04T12:01:42.999Z</time></trkpt><trkpt lat="42.12087830344875" lon="14.025065056750867"><ele>879.75</ele><time>2026-04-04T12:01:43.999Z</time></trkpt><trkpt lat="42.120993800132304" lon="14.024924557568719"><ele>876.5</ele><time>2026-04-04T12:01:44.999Z</time></trkpt><trkpt lat="42.121080056294254" lon="14.0248330687286"><ele>873.25</ele><time>2026-04-04T12:01:45.999Z</time></trkpt><trkpt lat="42.12117635364055" lon="14.024734153849113"><ele>870.0</ele><time>2026-04-04T12:01:46.999Z</time></trkpt><trkpt lat="42.121222195613605" lon="14.024575397825242"><ele>870.0</ele><time>2026-04-04T12:01:47.999Z</time></trkpt><trkpt lat="42.12126618840776" lon="14.024423702261066"><ele>870.0</ele><time>2026-04-04T12:01:48.999Z</time></trkpt><trkpt lat="42.121320495611506" lon="14.024284714938497"><ele>870.0</ele><time>2026-04-04T12:01:49.999Z</time></trkpt><trkpt lat="42.121360301400244" lon="14.02414698258633"><ele>870.0</ele><time>2026-04-04T12:01:50.999Z</time></trkpt><trkpt lat="42.12139822394776" lon="14.024020686588994"><ele>870.0</ele><time>2026-04-04T12:01:51.999Z</time></trkpt><trkpt lat="42.12143486344427" lon="14.02390901658644"><ele>871.4</ele><time>2026-04-04T12:01:52.999Z</time></trkpt><trkpt lat="42.12148434414342" lon="14.023815862275589"><ele>872.8</ele><time>2026-04-04T12:01:53.999Z</time></trkpt><trkpt lat="42.12156092987041" lon="14.02371987410754"><ele>874.2</ele><time>2026-04-04T12:01:54.999Z</time></trkpt><trkpt lat="42.121643747899896" lon="14.023624581065137"><ele>875.6</ele><time>2026-04-04T12:01:55.999Z</time></trkpt><trkpt lat="42.1217276710924" lon="14.023526799642703"><ele>877.0</ele><time>2026-04-04T12:01:56.999Z</time></trkpt><trkpt lat="42.12181614451092" lon="14.023403122199742"><ele>873.75</ele><time>2026-04-04T12:01:57.999Z</time></trkpt><trkpt lat="42.12188229257233" lon="14.023261059950945"><ele>870.5</ele><time>2026-04-04T12:01:58.999Z</time></trkpt><trkpt lat="42.12195641319828" lon="14.023134809561373"><ele>867.25</ele><time>2026-04-04T12:01:59.999Z</time></trkpt><trkpt lat="42.12204188357198" lon="14.023028667083668"><ele>864.0</ele><time>2026-04-04T12:02:00.999Z</time></trkpt><trkpt lat="42.12211423784305" lon="14.022911223237735"><ele>864.0</ele><time>2026-04-04T12:02:01.999Z</time></trkpt><trkpt lat="42.12218157240326" lon="14.022798166468261"><ele>864.0</ele><time>2026-04-04T12:02:02.999Z</time></trkpt><trkpt lat="42.12223781706177" lon="14.022711684515539"><ele>864.0</ele><time>2026-04-04T12:02:03.999Z</time></trkpt><trkpt lat="42.12229215303835" lon="14.022646330176446"><ele>864.0</ele><time>2026-04-04T12:02:04.999Z</time></trkpt><trkpt lat="42.12235740086072" lon="14.022606368521203"><ele>864.0</ele><time>2026-04-04T12:02:05.999Z</time></trkpt><trkpt lat="42.12242136311955" lon="14.022578195056253"><ele>864.0</ele><time>2026-04-04T12:02:06.999Z</time></trkpt><trkpt lat="42.122491850793345" lon="14.02258645825526"><ele>864.8333333333334</ele><time>2026-04-04T12:02:07.999Z</time></trkpt><trkpt lat="42.12256881292327" lon="14.022587468969828"><ele>865.6666666666667</ele><time>2026-04-04T12:02:08.999Z</time></trkpt><trkpt lat="42.12264586143193" lon="14.022605226856387"><ele>866.5</ele><time>2026-04-04T12:02:09.999Z</time></trkpt><trkpt lat="42.122722850401075" lon="14.022633155537216"><ele>867.3333333333334</ele><time>2026-04-04T12:02:10.999Z</time></trkpt><trkpt lat="42.12279907436282" lon="14.022675420201905"><ele>868.1666666666667</ele><time>2026-04-04T12:02:11.999Z</time></trkpt><trkpt lat="42.122867410440094" lon="14.022726382317941"><ele>869.0</ele><time>2026-04-04T12:02:12.999Z</time></trkpt><trkpt lat="42.12293265479049" lon="14.022788001807083"><ele>869.0</ele><time>2026-04-04T12:02:13.999Z</time></trkpt><trkpt lat="42.12299309679849" lon="14.022865858876159"><ele>869.0000000000001</ele><time>2026-04-04T12:02:14.999Z</time></trkpt><trkpt lat="42.12304209210558" lon="14.022964166306041"><ele>869.0000000000001</ele><time>2026-04-04T12:02:15.999Z</time></trkpt><trkpt lat="42.12308120764306" lon="14.023078471821288"><ele>869.0</ele><time>2026-04-04T12:02:16.999Z</time></trkpt><trkpt lat="42.12310594977988" lon="14.023211533590272"><ele>869.0</ele><time>2026-04-04T12:02:17.999Z</time></trkpt><trkpt lat="42.12314951949618" lon="14.023351338667036"><ele>869.2</ele><time>2026-04-04T12:02:18.999Z</time></trkpt><trkpt lat="42.1231788421514" lon="14.023501217575493"><ele>869.4000000000001</ele><time>2026-04-04T12:02:19.999Z</time></trkpt><trkpt lat="42.12320217914263" lon="14.023643128217985"><ele>869.6</ele><time>2026-04-04T12:02:20.999Z</time></trkpt><trkpt lat="42.123221986784515" lon="14.023781097633421"><ele>869.8</ele><time>2026-04-04T12:02:21.999Z</time></trkpt><trkpt lat="42.12324964643741" lon="14.02391506749241"><ele>870.0</ele><time>2026-04-04T12:02:22.999Z</time></trkpt><trkpt lat="42.123294581528604" lon="14.0240529948753"><ele>871.5</ele><time>2026-04-04T12:02:23.999Z</time></trkpt><trkpt lat="42.123357870979646" lon="14.024193193371296"><ele>873.0</ele><time>2026-04-04T12:02:24.999Z</time></trkpt><trkpt lat="42.12343927498608" lon="14.024321264826805"><ele>874.5</ele><time>2026-04-04T12:02:25.999Z</time></trkpt><trkpt lat="42.12353045292718" lon="14.024432494121921"><ele>876.0</ele><time>2026-04-04T12:02:26.999Z</time></trkpt><trkpt lat="42.12361265978041" lon="14.02454444857273"><ele>876.0</ele><time>2026-04-04T12:02:27.999Z</time></trkpt><trkpt lat="42.12369584880342" lon="14.02464312716621"><ele>875.9999999999999</ele><time>2026-04-04T12:02:28.999Z</time></trkpt><trkpt lat="42.123769566936595" lon="14.0247305714206"><ele>875.9999999999999</ele><time>2026-04-04T12:02:29.999Z</time></trkpt><trkpt lat="42.12383327500874" lon="14.024805075969818"><ele>876.0</ele><time>2026-04-04T12:02:30.999Z</time></trkpt><trkpt lat="42.123921426598585" lon="14.024897347662742"><ele>876.0</ele><time>2026-04-04T12:02:32.999Z</time></trkpt><trkpt lat="42.123964816333924" lon="14.02496215714892"><ele>876.5</ele><time>2026-04-04T12:02:33.999Z</time></trkpt><trkpt lat="42.1239825673025" lon="14.025071358944192"><ele>877.0</ele><time>2026-04-04T12:02:34.999Z</time></trkpt><trkpt lat="42.124008964144274" lon="14.02519894227991"><ele>877.5</ele><time>2026-04-04T12:02:35.999Z</time></trkpt><trkpt lat="42.12403733035505" lon="14.02531539306577"><ele>878.0</ele><time>2026-04-04T12:02:36.999Z</time></trkpt><trkpt lat="42.124064491323125" lon="14.025413362882551"><ele>878.5</ele><time>2026-04-04T12:02:37.999Z</time></trkpt><trkpt lat="42.12411094141443" lon="14.025501887070527"><ele>879.0</ele><time>2026-04-04T12:02:38.999Z</time></trkpt><trkpt lat="42.12415534079878" lon="14.025589412788403"><ele>877.8000000000001</ele><time>2026-04-04T12:02:39.999Z</time></trkpt><trkpt lat="42.12427098675434" lon="14.02563180135073"><ele>876.6000000000001</ele><time>2026-04-04T12:02:40.999Z</time></trkpt><trkpt lat="42.124353578879656" lon="14.02570756628081"><ele>875.4</ele><time>2026-04-04T12:02:41.999Z</time></trkpt><trkpt lat="42.124423196983564" lon="14.025790673353926"><ele>874.2</ele><time>2026-04-04T12:02:42.999Z</time></trkpt><trkpt lat="42.12448206502177" lon="14.025885490744527"><ele>873.0</ele><time>2026-04-04T12:02:43.999Z</time></trkpt><trkpt lat="42.12453134199009" lon="14.02597717469229"><ele>873.0</ele><time>2026-04-04T12:02:44.999Z</time></trkpt><trkpt lat="42.12457962067334" lon="14.026066669240834"><ele>873.0</ele><time>2026-04-04T12:02:45.999Z</time></trkpt><trkpt lat="42.12462857752599" lon="14.026155394892644"><ele>873.0</ele><time>2026-04-04T12:02:46.999Z</time></trkpt><trkpt lat="42.12467931722752" lon="14.02623233209735"><ele>873.0</ele><time>2026-04-04T12:02:47.999Z</time></trkpt><trkpt lat="42.12473363194007" lon="14.02629897943454"><ele>873.0</ele><time>2026-04-04T12:02:48.999Z</time></trkpt><trkpt lat="42.12479731298306" lon="14.026345408174478"><ele>873.0</ele><time>2026-04-04T12:02:49.999Z</time></trkpt><trkpt lat="42.124872908472504" lon="14.026387282438789"><ele>871.0</ele><time>2026-04-04T12:02:50.999Z</time></trkpt><trkpt lat="42.12495203756936" lon="14.026422091006395"><ele>869.0</ele><time>2026-04-04T12:02:51.998Z</time></trkpt><trkpt lat="42.12504111839753" lon="14.02643609270242"><ele>867.0</ele><time>2026-04-04T12:02:52.998Z</time></trkpt><trkpt lat="42.12513361869547" lon="14.026433029565707"><ele>865.0</ele><time>2026-04-04T12:02:53.998Z</time></trkpt><trkpt lat="42.12522237764937" lon="14.02641653566377"><ele>863.0</ele><time>2026-04-04T12:02:55Z</time></trkpt><trkpt lat="42.125320103545825" lon="14.026403523167428"><ele>863.0</ele><time>2026-04-04T12:02:56Z</time></trkpt><trkpt lat="42.125447578069206" lon="14.02636122721873"><ele>863.0</ele><time>2026-04-04T12:02:58Z</time></trkpt><trkpt lat="42.12551763408758" lon="14.02638317434651"><ele>863.0</ele><time>2026-04-04T12:02:59Z</time></trkpt><trkpt lat="42.12557102026779" lon="14.026437602601897"><ele>863.0</ele><time>2026-04-04T12:03:00Z</time></trkpt><trkpt lat="42.12563399543368" lon="14.026519696184089"><ele>863.0</ele><time>2026-04-04T12:03:01Z</time></trkpt><trkpt lat="42.12570598457131" lon="14.026605234891246"><ele>863.5000000000001</ele><time>2026-04-04T12:03:02Z</time></trkpt><trkpt lat="42.125770510383816" lon="14.026683567602694"><ele>864.0</ele><time>2026-04-04T12:03:03Z</time></trkpt><trkpt lat="42.125828643341436" lon="14.026748194889029"><ele>864.5</ele><time>2026-04-04T12:03:04Z</time></trkpt><trkpt lat="42.12589993114611" lon="14.026823619138089"><ele>865.0</ele><time>2026-04-04T12:03:05Z</time></trkpt><trkpt lat="42.12596010237738" lon="14.026858480501952"><ele>865.5000000000001</ele><time>2026-04-04T12:03:06Z</time></trkpt><trkpt lat="42.12604107479922" lon="14.026854456084441"><ele>866.0</ele><time>2026-04-04T12:03:07Z</time></trkpt><trkpt lat="42.126145428583484" lon="14.026821729574385"><ele>866.0</ele><time>2026-04-04T12:03:08Z</time></trkpt><trkpt lat="42.12625934500209" lon="14.026781840361368"><ele>865.9999999999999</ele><time>2026-04-04T12:03:09Z</time></trkpt><trkpt lat="42.12636486983421" lon="14.02675046570326"><ele>865.9999999999999</ele><time>2026-04-04T12:03:10Z</time></trkpt><trkpt lat="42.12647212160356" lon="14.026729889723535"><ele>866.0</ele><time>2026-04-04T12:03:11Z</time></trkpt><trkpt lat="42.126582562506115" lon="14.026698988542197"><ele>866.0</ele><time>2026-04-04T12:03:12Z</time></trkpt><trkpt lat="42.12669122427908" lon="14.026671563600933"><ele>865.5999999999999</ele><time>2026-04-04T12:03:13Z</time></trkpt><trkpt lat="42.12679903191715" lon="14.026649322728625"><ele>865.1999999999999</ele><time>2026-04-04T12:03:14Z</time></trkpt><trkpt lat="42.126901945718906" lon="14.026624687960709"><ele>864.8000000000001</ele><time>2026-04-04T12:03:15Z</time></trkpt><trkpt lat="42.12699781139468" lon="14.026597026544348"><ele>864.4000000000001</ele><time>2026-04-04T12:03:16Z</time></trkpt><trkpt lat="42.12708205757391" lon="14.026571140528509"><ele>864.0</ele><time>2026-04-04T12:03:17Z</time></trkpt><trkpt lat="42.12715116071726" lon="14.026540710456091"><ele>864.0</ele><time>2026-04-04T12:03:18Z</time></trkpt><trkpt lat="42.127254435257456" lon="14.026506042565547"><ele>864.0000000000001</ele><time>2026-04-04T12:03:20Z</time></trkpt><trkpt lat="42.127338831303284" lon="14.026600833642407"><ele>864.0000000000001</ele><time>2026-04-04T12:03:22Z</time></trkpt><trkpt lat="42.127358644082065" lon="14.026699082466994"><ele>864.0</ele><time>2026-04-04T12:03:23Z</time></trkpt><trkpt lat="42.12740294252464" lon="14.026784999863386"><ele>864.0</ele><time>2026-04-04T12:03:24Z</time></trkpt><trkpt lat="42.127438181147774" lon="14.02689148730365"><ele>864.6</ele><time>2026-04-04T12:03:25Z</time></trkpt><trkpt lat="42.127472886473875" lon="14.027011436795275"><ele>865.2</ele><time>2026-04-04T12:03:26Z</time></trkpt><trkpt lat="42.12749718542232" lon="14.027139339611864"><ele>865.8000000000001</ele><time>2026-04-04T12:03:27Z</time></trkpt><trkpt lat="42.1274686690807" lon="14.027277019184705"><ele>866.4000000000001</ele><time>2026-04-04T12:03:28Z</time></trkpt><trkpt lat="42.12747392733841" lon="14.027420701093526"><ele>867.0</ele><time>2026-04-04T12:03:29Z</time></trkpt><trkpt lat="42.12748370174196" lon="14.027563374257367"><ele>869.0</ele><time>2026-04-04T12:03:30Z</time></trkpt><trkpt lat="42.127465748739255" lon="14.027701750936561"><ele>871.0</ele><time>2026-04-04T12:03:31Z</time></trkpt><trkpt lat="42.12744618970589" lon="14.027826282625368"><ele>873.0</ele><time>2026-04-04T12:03:32Z</time></trkpt><trkpt lat="42.12742981489063" lon="14.027922686242258"><ele>875.0</ele><time>2026-04-04T12:03:33Z</time></trkpt><trkpt lat="42.127414946315355" lon="14.0280052446941"><ele>877.0</ele><time>2026-04-04T12:03:34Z</time></trkpt><trkpt lat="42.12744078120025" lon="14.028128476487097"><ele>879.0</ele><time>2026-04-04T12:03:36Z</time></trkpt><trkpt lat="42.127565783964094" lon="14.028134666746615"><ele>879.0</ele><time>2026-04-04T12:03:38Z</time></trkpt><trkpt lat="42.12762583608615" lon="14.028027229290538"><ele>879.0000000000001</ele><time>2026-04-04T12:03:39Z</time></trkpt><trkpt lat="42.127632662807855" lon="14.027899421020825"><ele>879.0000000000001</ele><time>2026-04-04T12:03:40Z</time></trkpt><trkpt lat="42.12768582337375" lon="14.027805081791396"><ele>879.0</ele><time>2026-04-04T12:03:41Z</time></trkpt><trkpt lat="42.1277260664843" lon="14.027702274254708"><ele>879.0</ele><time>2026-04-04T12:03:42Z</time></trkpt><trkpt lat="42.127774606643875" lon="14.027590679039278"><ele>877.0</ele><time>2026-04-04T12:03:43Z</time></trkpt><trkpt lat="42.12783055743535" lon="14.027473178297056"><ele>875.0</ele><time>2026-04-04T12:03:44Z</time></trkpt><trkpt lat="42.12788999222481" lon="14.02736453959187"><ele>873.0</ele><time>2026-04-04T12:03:45Z</time></trkpt><trkpt lat="42.12794758901307" lon="14.027285020933231"><ele>871.0</ele><time>2026-04-04T12:03:46Z</time></trkpt><trkpt lat="42.12801563769126" lon="14.027228259190387"><ele>869.0</ele><time>2026-04-04T12:03:47Z</time></trkpt><trkpt lat="42.128088021014044" lon="14.027220394531854"><ele>867.0</ele><time>2026-04-04T12:03:48Z</time></trkpt><trkpt lat="42.12816605978278" lon="14.027223438034207"><ele>869.6</ele><time>2026-04-04T12:03:49Z</time></trkpt><trkpt lat="42.12824349299186" lon="14.027250414135587"><ele>872.2</ele><time>2026-04-04T12:03:50Z</time></trkpt><trkpt lat="42.128314767724525" lon="14.027305013307126"><ele>874.8</ele><time>2026-04-04T12:03:51Z</time></trkpt><trkpt lat="42.12839446047381" lon="14.027389694746583"><ele>877.4</ele><time>2026-04-04T12:03:52Z</time></trkpt><trkpt lat="42.12849514897981" lon="14.02747374616186"><ele>880.0</ele><time>2026-04-04T12:03:53Z</time></trkpt><trkpt lat="42.128589524414515" lon="14.027588064091304"><ele>881.6</ele><time>2026-04-04T12:03:54Z</time></trkpt><trkpt lat="42.12868874625622" lon="14.02768871049866"><ele>883.2</ele><time>2026-04-04T12:03:55Z</time></trkpt><trkpt lat="42.128767746881884" lon="14.02779626391158"><ele>884.8</ele><time>2026-04-04T12:03:56Z</time></trkpt><trkpt lat="42.12885187278182" lon="14.027856758504107"><ele>886.4</ele><time>2026-04-04T12:03:57Z</time></trkpt><trkpt lat="42.12892467718732" lon="14.02792024970761"><ele>888.0</ele><time>2026-04-04T12:03:58Z</time></trkpt><trkpt lat="42.12900404355424" lon="14.027942425139706"><ele>889.5999999999999</ele><time>2026-04-04T12:03:59Z</time></trkpt><trkpt lat="42.12909180890811" lon="14.027916948018513"><ele>891.1999999999999</ele><time>2026-04-04T12:04:00Z</time></trkpt><trkpt lat="42.12918904530008" lon="14.027850723220741"><ele>892.8</ele><time>2026-04-04T12:04:01Z</time></trkpt><trkpt lat="42.12926945417038" lon="14.027747817124393"><ele>894.4</ele><time>2026-04-04T12:04:02Z</time></trkpt><trkpt lat="42.12933505081729" lon="14.027632279660919"><ele>896.0</ele><time>2026-04-04T12:04:02.999Z</time></trkpt><trkpt lat="42.1294011318032" lon="14.027563140081075"><ele>896.0000000000001</ele><time>2026-04-04T12:04:03.999Z</time></trkpt><trkpt lat="42.1294789432133" lon="14.027553231781283"><ele>896.0</ele><time>2026-04-04T12:04:04.999Z</time></trkpt><trkpt lat="42.12954037047318" lon="14.027588563166594"><ele>896.0</ele><time>2026-04-04T12:04:05.999Z</time></trkpt><trkpt lat="42.12957777030473" lon="14.027661025614906"><ele>896.0</ele><time>2026-04-04T12:04:06.999Z</time></trkpt><trkpt lat="42.129588063292125" lon="14.027755556624573"><ele>896.0000000000001</ele><time>2026-04-04T12:04:07.999Z</time></trkpt><trkpt lat="42.129571443306" lon="14.027857260871993"><ele>896.0</ele><time>2026-04-04T12:04:08.999Z</time></trkpt><trkpt lat="42.12952785054247" lon="14.02799026522291"><ele>896.0</ele><time>2026-04-04T12:04:09.999Z</time></trkpt><trkpt lat="42.12947598314913" lon="14.028128258515583"><ele>896.0</ele><time>2026-04-04T12:04:10.999Z</time></trkpt><trkpt lat="42.12940915633728" lon="14.028266182515715"><ele>896.0</ele><time>2026-04-04T12:04:11.999Z</time></trkpt><trkpt lat="42.12933233771785" lon="14.028389499205874"><ele>896.0</ele><time>2026-04-04T12:04:12.999Z</time></trkpt><trkpt lat="42.12925319627151" lon="14.028493163143551"><ele>897.1999999999999</ele><time>2026-04-04T12:04:13.999Z</time></trkpt><trkpt lat="42.12917234595748" lon="14.028596583139555"><ele>898.3999999999999</ele><time>2026-04-04T12:04:14.999Z</time></trkpt><trkpt lat="42.12910177735753" lon="14.02869663272015"><ele>899.6</ele><time>2026-04-04T12:04:15.999Z</time></trkpt><trkpt lat="42.1290416001494" lon="14.0287811313777"><ele>900.8</ele><time>2026-04-04T12:04:16.999Z</time></trkpt><trkpt lat="42.12899318467647" lon="14.028862748674491"><ele>902.0</ele><time>2026-04-04T12:04:17.999Z</time></trkpt><trkpt lat="42.128951535165136" lon="14.028955903432891"><ele>902.0000000000001</ele><time>2026-04-04T12:04:18.999Z</time></trkpt><trkpt lat="42.128922499382526" lon="14.02905014497198"><ele>902.0</ele><time>2026-04-04T12:04:19.999Z</time></trkpt><trkpt lat="42.12890655475426" lon="14.029134214976574"><ele>902.0</ele><time>2026-04-04T12:04:20.999Z</time></trkpt><trkpt lat="42.12889872701145" lon="14.029253906257768"><ele>902.0</ele><time>2026-04-04T12:04:22.999Z</time></trkpt><trkpt lat="42.12894418868723" lon="14.029351876830603"><ele>902.0000000000001</ele><time>2026-04-04T12:04:31.999Z</time></trkpt><trkpt lat="42.129001639662214" lon="14.029406507369593"><ele>902.0</ele><time>2026-04-04T12:04:32.999Z</time></trkpt><trkpt lat="42.12907903495708" lon="14.029462866144677"><ele>904.2</ele><time>2026-04-04T12:04:33.999Z</time></trkpt><trkpt lat="42.12915478194459" lon="14.029508733673692"><ele>906.4000000000001</ele><time>2026-04-04T12:04:34.999Z</time></trkpt><trkpt lat="42.12924813862062" lon="14.029550185679389"><ele>908.5999999999999</ele><time>2026-04-04T12:04:35.999Z</time></trkpt><trkpt lat="42.12934925238422" lon="14.029589084087817"><ele>910.8</ele><time>2026-04-04T12:04:36.999Z</time></trkpt><trkpt lat="42.12945576944327" lon="14.02965091552418"><ele>913.0</ele><time>2026-04-04T12:04:37.999Z</time></trkpt><trkpt lat="42.12957561118279" lon="14.02968005391231"><ele>913.0</ele><time>2026-04-04T12:04:38.999Z</time></trkpt><trkpt lat="42.12969586406286" lon="14.02973552944457"><ele>913.0</ele><time>2026-04-04T12:04:39.999Z</time></trkpt><trkpt lat="42.12980892150694" lon="14.029778666903754"><ele>913.0</ele><time>2026-04-04T12:04:40.999Z</time></trkpt><trkpt lat="42.12992116684836" lon="14.029827057362475"><ele>913.0</ele><time>2026-04-04T12:04:41.999Z</time></trkpt><trkpt lat="42.130019925504925" lon="14.029916886444544"><ele>914.5</ele><time>2026-04-04T12:04:42.999Z</time></trkpt><trkpt lat="42.13012187274529" lon="14.030000253275123"><ele>916.0</ele><time>2026-04-04T12:04:43.999Z</time></trkpt><trkpt lat="42.13022982356604" lon="14.030076474132217"><ele>917.5</ele><time>2026-04-04T12:04:44.999Z</time></trkpt><trkpt lat="42.130329095319944" lon="14.03017086572238"><ele>919.0</ele><time>2026-04-04T12:04:45.999Z</time></trkpt><trkpt lat="42.130424856191716" lon="14.03026723381317"><ele>919.0</ele><time>2026-04-04T12:04:46.999Z</time></trkpt><trkpt lat="42.13052077434785" lon="14.030365942680719"><ele>919.0000000000001</ele><time>2026-04-04T12:04:47.999Z</time></trkpt><trkpt lat="42.13060481283986" lon="14.030461466199775"><ele>919.0000000000001</ele><time>2026-04-04T12:04:48.999Z</time></trkpt><trkpt lat="42.13066614459773" lon="14.030584215063861"><ele>919.0</ele><time>2026-04-04T12:04:49.999Z</time></trkpt><trkpt lat="42.13073778433882" lon="14.030687187670587"><ele>919.0</ele><time>2026-04-04T12:04:50.999Z</time></trkpt><trkpt lat="42.1307851705025" lon="14.030823024536469"><ele>919.75</ele><time>2026-04-04T12:04:51.999Z</time></trkpt><trkpt lat="42.13082235481357" lon="14.030970467977918"><ele>920.5</ele><time>2026-04-04T12:04:52.999Z</time></trkpt><trkpt lat="42.13084021346651" lon="14.03112228194467"><ele>921.25</ele><time>2026-04-04T12:04:53.999Z</time></trkpt><trkpt lat="42.13084698556754" lon="14.031282385982893"><ele>922.0</ele><time>2026-04-04T12:04:54.999Z</time></trkpt><trkpt lat="42.130855221719536" lon="14.031432066334839"><ele>922.0</ele><time>2026-04-04T12:04:55.999Z</time></trkpt><trkpt lat="42.130864596125186" lon="14.031566626050896"><ele>922.0</ele><time>2026-04-04T12:04:56.999Z</time></trkpt><trkpt lat="42.13087579066797" lon="14.031700343426802"><ele>922.0</ele><time>2026-04-04T12:04:57.999Z</time></trkpt><trkpt lat="42.13088621763552" lon="14.031831510755921"><ele>922.0</ele><time>2026-04-04T12:04:58.999Z</time></trkpt><trkpt lat="42.13089541722338" lon="14.031946320715738"><ele>922.0</ele><time>2026-04-04T12:04:59.999Z</time></trkpt><trkpt lat="42.13089629157582" lon="14.032047084230088"><ele>922.9999999999999</ele><time>2026-04-04T12:05:01.001Z</time></trkpt><trkpt lat="42.130884784262975" lon="14.032152888808119"><ele>924.0</ele><time>2026-04-04T12:05:02.001Z</time></trkpt><trkpt lat="42.13086308944385" lon="14.032249179158095"><ele>925.0</ele><time>2026-04-04T12:05:03.001Z</time></trkpt><trkpt lat="42.13083453978239" lon="14.032357408459646"><ele>926.0</ele><time>2026-04-04T12:05:04.001Z</time></trkpt><trkpt lat="42.13079859012747" lon="14.032458469595612"><ele>926.9999999999999</ele><time>2026-04-04T12:05:05.001Z</time></trkpt><trkpt lat="42.13073068506831" lon="14.032544622658408"><ele>928.0</ele><time>2026-04-04T12:05:06Z</time></trkpt><trkpt lat="42.13067185606464" lon="14.03262952650069"><ele>928.9999999999999</ele><time>2026-04-04T12:05:07.001Z</time></trkpt><trkpt lat="42.13061572440747" lon="14.032703549766538"><ele>930.0</ele><time>2026-04-04T12:05:08.001Z</time></trkpt><trkpt lat="42.13052217948852" lon="14.03280044067224"><ele>931.0</ele><time>2026-04-04T12:05:10.001Z</time></trkpt><trkpt lat="42.13044885269559" lon="14.032867581184362"><ele>932.0</ele><time>2026-04-04T12:05:12Z</time></trkpt><trkpt lat="42.13037907556012" lon="14.032930846559859"><ele>932.9999999999999</ele><time>2026-04-04T12:05:15Z</time></trkpt><trkpt lat="42.13032300652374" lon="14.032978502925214"><ele>934.0</ele><time>2026-04-04T12:05:18Z</time></trkpt><trkpt lat="42.13038572421819" lon="14.032964201304583"><ele>933.9999999999999</ele><time>2026-04-04T12:07:35Z</time></trkpt><trkpt lat="42.13035438543861" lon="14.033040205410245"><ele>934.0</ele><time>2026-04-04T12:14:03.999Z</time></trkpt><trkpt lat="42.1303588697978" lon="14.03295200501707"><ele>933.9999999999999</ele><time>2026-04-04T12:14:22.999Z</time></trkpt><trkpt lat="42.13029925556498" lon="14.032987392270169"><ele>933.9999999999999</ele><time>2026-04-04T12:20:47.998Z</time></trkpt><trkpt lat="42.13036197132835" lon="14.032971835566482"><ele>934.0</ele><time>2026-04-04T12:22:01.998Z</time></trkpt><trkpt lat="42.13041276447972" lon="14.032900454837705"><ele>933.9999999999999</ele><time>2026-04-04T12:22:10.998Z</time></trkpt><trkpt lat="42.1304403744321" lon="14.032819432096051"><ele>933.9999999999999</ele><time>2026-04-04T12:22:16.999Z</time></trkpt><trkpt lat="42.13039466448781" lon="14.032884231670868"><ele>933.9999999999999</ele><time>2026-04-04T12:22:46.999Z</time></trkpt><trkpt lat="42.130372590357396" lon="14.03297269651508"><ele>934.0</ele><time>2026-04-04T12:22:58.999Z</time></trkpt><trkpt lat="42.130305802731094" lon="14.032996080373646"><ele>934.0</ele><time>2026-04-04T12:26:35Z</time></trkpt><trkpt lat="42.13037484424056" lon="14.032988256900106"><ele>934.0</ele><time>2026-04-04T12:27:48Z</time></trkpt><trkpt lat="42.130403155241346" lon="14.03290217451579"><ele>933.9999999999999</ele><time>2026-04-04T12:28:19.999Z</time></trkpt><trkpt lat="42.13044268004822" lon="14.032969406199925"><ele>934.0</ele><time>2026-04-04T12:28:46.999Z</time></trkpt><trkpt lat="42.130305802731094" lon="14.032996080373646"><ele>933.9999999999999</ele><time>2026-04-04T12:26:35Z</time></trkpt><trkpt lat="42.13037484424056" lon="14.032988256900106"><ele>934.0</ele><time>2026-04-04T12:27:48Z</time></trkpt><trkpt lat="42.130403155241346" lon="14.03290217451579"><ele>933.9999999999999</ele><time>2026-04-04T12:28:19.999Z</time></trkpt><trkpt lat="42.13044268004822" lon="14.032969406199925"><ele>933.9999999999999</ele><time>2026-04-04T12:28:46.999Z</time></trkpt><trkpt lat="42.13043983037415" lon="14.032871659686602"><ele>934.0</ele><time>2026-04-04T12:31:08Z</time></trkpt><trkpt lat="42.13049944806967" lon="14.032831712575067"><ele>933.9999999999999</ele><time>2026-04-04T12:31:09Z</time></trkpt><trkpt lat="42.130561511336374" lon="14.032798339248055"><ele>933.9999999999999</ele><time>2026-04-04T12:31:10Z</time></trkpt><trkpt lat="42.13061621963882" lon="14.032750388304764"><ele>934.0</ele><time>2026-04-04T12:31:11Z</time></trkpt><trkpt lat="42.13069543617856" lon="14.032630272224777"><ele>934.0000000000001</ele><time>2026-04-04T12:31:13Z</time></trkpt><trkpt lat="42.13077773739737" lon="14.03253567917731"><ele>934.0000000000001</ele><time>2026-04-04T12:31:15Z</time></trkpt><trkpt lat="42.13083696595885" lon="14.032417094120666"><ele>934.0</ele><time>2026-04-04T12:31:17Z</time></trkpt><trkpt lat="42.130867369846975" lon="14.032266012857118"><ele>934.0</ele><time>2026-04-04T12:31:19Z</time></trkpt><trkpt lat="42.13089583657312" lon="14.03214623398557"><ele>934.2</ele><time>2026-04-04T12:31:21Z</time></trkpt><trkpt lat="42.130958208020765" lon="14.032253040140045"><ele>934.4000000000001</ele><time>2026-04-04T12:31:25Z</time></trkpt><trkpt lat="42.13099462555242" lon="14.032432014837232"><ele>934.6</ele><time>2026-04-04T12:31:27Z</time></trkpt><trkpt lat="42.13103137409684" lon="14.032513137982935"><ele>934.8</ele><time>2026-04-04T12:31:28Z</time></trkpt><trkpt lat="42.13108127869311" lon="14.032584165405162"><ele>935.0</ele><time>2026-04-04T12:31:29Z</time></trkpt><trkpt lat="42.131137205069585" lon="14.032661393561488"><ele>935.0000000000001</ele><time>2026-04-04T12:31:30Z</time></trkpt><trkpt lat="42.13119159470936" lon="14.03272784209573"><ele>935.0</ele><time>2026-04-04T12:31:31Z</time></trkpt><trkpt lat="42.13125525477492" lon="14.032774175645537"><ele>935.0</ele><time>2026-04-04T12:31:32Z</time></trkpt><trkpt lat="42.1313599810984" lon="14.032860905430441"><ele>935.0</ele><time>2026-04-04T12:31:34Z</time></trkpt><trkpt lat="42.13144410047482" lon="14.032882950082081"><ele>935.0000000000001</ele><time>2026-04-04T12:31:35Z</time></trkpt><trkpt lat="42.13151960057213" lon="14.032851097650838"><ele>935.0</ele><time>2026-04-04T12:31:36Z</time></trkpt><trkpt lat="42.131586274307" lon="14.032830278175624"><ele>934.4</ele><time>2026-04-04T12:31:37Z</time></trkpt><trkpt lat="42.13165735062626" lon="14.03281775222066"><ele>933.8</ele><time>2026-04-04T12:31:38Z</time></trkpt><trkpt lat="42.13171581401575" lon="14.032728565737413"><ele>933.2</ele><time>2026-04-04T12:31:39Z</time></trkpt><trkpt lat="42.13179832735856" lon="14.032625389014356"><ele>932.6</ele><time>2026-04-04T12:31:40Z</time></trkpt><trkpt lat="42.13188566190317" lon="14.032509817474674"><ele>932.0</ele><time>2026-04-04T12:31:41Z</time></trkpt><trkpt lat="42.13196321642882" lon="14.032399045758007"><ele>930.8</ele><time>2026-04-04T12:31:42Z</time></trkpt><trkpt lat="42.132040174060975" lon="14.032295784491401"><ele>929.6</ele><time>2026-04-04T12:31:43Z</time></trkpt><trkpt lat="42.132117898431325" lon="14.032207388607533"><ele>928.3999999999999</ele><time>2026-04-04T12:31:44Z</time></trkpt><trkpt lat="42.13220543047995" lon="14.032128482713876"><ele>927.1999999999999</ele><time>2026-04-04T12:31:45Z</time></trkpt><trkpt lat="42.132308321940535" lon="14.032075266998817"><ele>926.0</ele><time>2026-04-04T12:31:46Z</time></trkpt><trkpt lat="42.132391365607106" lon="14.031995217737332"><ele>926.0000000000001</ele><time>2026-04-04T12:31:47Z</time></trkpt><trkpt lat="42.13248238761158" lon="14.031955562528001"><ele>926.0</ele><time>2026-04-04T12:31:48Z</time></trkpt><trkpt lat="42.13256540399029" lon="14.031900279372067"><ele>926.0</ele><time>2026-04-04T12:31:49Z</time></trkpt><trkpt lat="42.132636207980624" lon="14.031831424659176"><ele>926.0</ele><time>2026-04-04T12:31:50Z</time></trkpt><trkpt lat="42.13271350914413" lon="14.031792477797241"><ele>926.0000000000001</ele><time>2026-04-04T12:31:51Z</time></trkpt><trkpt lat="42.132782876499064" lon="14.031784411009985"><ele>926.0</ele><time>2026-04-04T12:31:52Z</time></trkpt><trkpt lat="42.13285192416616" lon="14.031769673103753"><ele>926.0000000000001</ele><time>2026-04-04T12:31:53Z</time></trkpt><trkpt lat="42.13293379901836" lon="14.031742652259956"><ele>926.0</ele><time>2026-04-04T12:31:54Z</time></trkpt><trkpt lat="42.133020721844545" lon="14.0317385237077"><ele>926.0</ele><time>2026-04-04T12:31:55Z</time></trkpt><trkpt lat="42.133108624094476" lon="14.031741821904799"><ele>926.0</ele><time>2026-04-04T12:31:56Z</time></trkpt><trkpt lat="42.13318215590427" lon="14.031775259944101"><ele>926.0000000000001</ele><time>2026-04-04T12:31:57Z</time></trkpt><trkpt lat="42.13325439153598" lon="14.03179809541552"><ele>926.0</ele><time>2026-04-04T12:31:58Z</time></trkpt><trkpt lat="42.13318773506975" lon="14.031755261652595"><ele>926.0</ele><time>2026-04-04T12:32:12Z</time></trkpt><trkpt lat="42.13311617345281" lon="14.031740405081202"><ele>925.9999999999999</ele><time>2026-04-04T12:32:13Z</time></trkpt><trkpt lat="42.132988933817884" lon="14.031743270909661"><ele>925.9999999999999</ele><time>2026-04-04T12:32:15Z</time></trkpt><trkpt lat="42.1328980718216" lon="14.031736761227371"><ele>926.0</ele><time>2026-04-04T12:32:16Z</time></trkpt><trkpt lat="42.13283033909424" lon="14.03176764728027"><ele>926.0</ele><time>2026-04-04T12:32:17Z</time></trkpt><trkpt lat="42.13270392610303" lon="14.031815170543924"><ele>926.0</ele><time>2026-04-04T12:32:19.001Z</time></trkpt><trkpt lat="42.13261333475431" lon="14.031868662495649"><ele>925.9999999999999</ele><time>2026-04-04T12:32:20.001Z</time></trkpt><trkpt lat="42.132528422274035" lon="14.03190276025114"><ele>925.9999999999999</ele><time>2026-04-04T12:32:21.001Z</time></trkpt><trkpt lat="42.13244547273829" lon="14.03195976200126"><ele>926.0</ele><time>2026-04-04T12:32:22.001Z</time></trkpt><trkpt lat="42.132349106295415" lon="14.032027989108899"><ele>926.0</ele><time>2026-04-04T12:32:23.001Z</time></trkpt><trkpt lat="42.13226738855225" lon="14.032094226339206"><ele>925.0</ele><time>2026-04-04T12:32:24.001Z</time></trkpt><trkpt lat="42.132186839535954" lon="14.032156738181934"><ele>923.9999999999999</ele><time>2026-04-04T12:32:25.001Z</time></trkpt><trkpt lat="42.13210803634548" lon="14.032227883577908"><ele>922.9999999999999</ele><time>2026-04-04T12:32:26.001Z</time></trkpt><trkpt lat="42.1320281673773" lon="14.032313311859111"><ele>922.0</ele><time>2026-04-04T12:32:27.001Z</time></trkpt><trkpt lat="42.13193743538432" lon="14.032427103869027"><ele>921.0</ele><time>2026-04-04T12:32:28.001Z</time></trkpt><trkpt lat="42.13184397998556" lon="14.032551707102467"><ele>922.8333333333334</ele><time>2026-04-04T12:32:29.001Z</time></trkpt><trkpt lat="42.13177095066034" lon="14.032652406960581"><ele>924.6666666666667</ele><time>2026-04-04T12:32:30.001Z</time></trkpt><trkpt lat="42.131707511912595" lon="14.032729813086018"><ele>926.5</ele><time>2026-04-04T12:32:31.001Z</time></trkpt><trkpt lat="42.13164028464489" lon="14.032810711444798"><ele>928.3333333333334</ele><time>2026-04-04T12:32:32.001Z</time></trkpt><trkpt lat="42.1315655602125" lon="14.032862539844658"><ele>930.1666666666667</ele><time>2026-04-04T12:32:33.001Z</time></trkpt><trkpt lat="42.131493061988955" lon="14.032865407197441"><ele>932.0</ele><time>2026-04-04T12:32:34.001Z</time></trkpt><trkpt lat="42.1314170840554" lon="14.032863689634054"><ele>932.5000000000001</ele><time>2026-04-04T12:32:35.001Z</time></trkpt><trkpt lat="42.1313555793586" lon="14.032841890289607"><ele>933.0</ele><time>2026-04-04T12:32:36.001Z</time></trkpt><trkpt lat="42.13129488352179" lon="14.032810922166714"><ele>933.5</ele><time>2026-04-04T12:32:37.001Z</time></trkpt><trkpt lat="42.13123194589989" lon="14.032753750829414"><ele>934.0</ele><time>2026-04-04T12:32:38.001Z</time></trkpt><trkpt lat="42.13115561831447" lon="14.032695802903188"><ele>934.5000000000001</ele><time>2026-04-04T12:32:39.001Z</time></trkpt><trkpt lat="42.13109877597147" lon="14.032612505311082"><ele>935.0</ele><time>2026-04-04T12:32:40Z</time></trkpt><trkpt lat="42.13104882672211" lon="14.032539355044669"><ele>935.0000000000001</ele><time>2026-04-04T12:32:41Z</time></trkpt><trkpt lat="42.1310046976258" lon="14.032478417421672"><ele>935.0</ele><time>2026-04-04T12:32:42Z</time></trkpt><trkpt lat="42.1309713158204" lon="14.032386589009867"><ele>935.0</ele><time>2026-04-04T12:32:43Z</time></trkpt><trkpt lat="42.13096953872049" lon="14.03226054795537"><ele>935.0</ele><time>2026-04-04T12:32:44Z</time></trkpt><trkpt lat="42.13094209767263" lon="14.03215288808793"><ele>935.0000000000001</ele><time>2026-04-04T12:32:45Z</time></trkpt><trkpt lat="42.130919666453586" lon="14.032046364883302"><ele>935.0</ele><time>2026-04-04T12:32:46Z</time></trkpt><trkpt lat="42.13091811438147" lon="14.03190666001099"><ele>933.6</ele><time>2026-04-04T12:32:47Z</time></trkpt><trkpt lat="42.13090997315314" lon="14.031770724787906"><ele>932.2</ele><time>2026-04-04T12:32:48Z</time></trkpt><trkpt lat="42.130898628187865" lon="14.031627512377039"><ele>930.8</ele><time>2026-04-04T12:32:49Z</time></trkpt><trkpt lat="42.130888189596085" lon="14.031493135384178"><ele>929.4</ele><time>2026-04-04T12:32:50Z</time></trkpt><trkpt lat="42.130879340468645" lon="14.031364739509126"><ele>928.0</ele><time>2026-04-04T12:32:51Z</time></trkpt><trkpt lat="42.13086964111297" lon="14.031231385623819"><ele>926.8</ele><time>2026-04-04T12:32:52Z</time></trkpt><trkpt lat="42.13085804832291" lon="14.031101187579614"><ele>925.5999999999999</ele><time>2026-04-04T12:32:53Z</time></trkpt><trkpt lat="42.13082823834263" lon="14.030993485133411"><ele>924.4000000000001</ele><time>2026-04-04T12:32:54Z</time></trkpt><trkpt lat="42.13081437517943" lon="14.03084515516259"><ele>923.2</ele><time>2026-04-04T12:32:56Z</time></trkpt><trkpt lat="42.13077924755932" lon="14.030774318781786"><ele>922.0</ele><time>2026-04-04T12:32:58Z</time></trkpt><trkpt lat="42.13071308798122" lon="14.030626964778573"><ele>921.25</ele><time>2026-04-04T12:33:40.001Z</time></trkpt><trkpt lat="42.13065907566482" lon="14.030502464221154"><ele>920.5</ele><time>2026-04-04T12:33:41.001Z</time></trkpt><trkpt lat="42.130571911381715" lon="14.03038552990997"><ele>919.75</ele><time>2026-04-04T12:33:42.001Z</time></trkpt><trkpt lat="42.130456374569754" lon="14.030285460548031"><ele>919.0</ele><time>2026-04-04T12:33:43.001Z</time></trkpt><trkpt lat="42.130356486243166" lon="14.030158948329083"><ele>919.0</ele><time>2026-04-04T12:33:44.001Z</time></trkpt><trkpt lat="42.13026480538832" lon="14.030072775389081"><ele>919.0000000000001</ele><time>2026-04-04T12:33:45.001Z</time></trkpt><trkpt lat="42.13018837824821" lon="14.03000552415881"><ele>919.0000000000001</ele><time>2026-04-04T12:33:46.001Z</time></trkpt><trkpt lat="42.130114326920996" lon="14.029941455029174"><ele>919.0</ele><time>2026-04-04T12:33:47.001Z</time></trkpt><trkpt lat="42.13002642419653" lon="14.029893006221442"><ele>919.0</ele><time>2026-04-04T12:33:48.001Z</time></trkpt><trkpt lat="42.1299446500225" lon="14.02981351003543"><ele>917.5</ele><time>2026-04-04T12:33:49.001Z</time></trkpt><trkpt lat="42.12983599992851" lon="14.02975939468208"><ele>916.0</ele><time>2026-04-04T12:33:50.001Z</time></trkpt><trkpt lat="42.12971033279724" lon="14.02970695194514"><ele>914.5</ele><time>2026-04-04T12:33:51.001Z</time></trkpt><trkpt lat="42.12957504461418" lon="14.029675001223442"><ele>913.0</ele><time>2026-04-04T12:33:52.001Z</time></trkpt><trkpt lat="42.12945114492374" lon="14.029602372427505"><ele>913.0</ele><time>2026-04-04T12:33:53.001Z</time></trkpt><trkpt lat="42.129337748229254" lon="14.029578094249237"><ele>913.0</ele><time>2026-04-04T12:33:54.001Z</time></trkpt><trkpt lat="42.12924588000036" lon="14.029538009115958"><ele>913.0</ele><time>2026-04-04T12:33:55.001Z</time></trkpt><trkpt lat="42.12916141311997" lon="14.02950264932498"><ele>913.0</ele><time>2026-04-04T12:33:56.001Z</time></trkpt><trkpt lat="42.12908695340767" lon="14.029426044304108"><ele>913.0</ele><time>2026-04-04T12:33:57.001Z</time></trkpt><trkpt lat="42.12901216920619" lon="14.029353339847951"><ele>912.2</ele><time>2026-04-04T12:33:58.001Z</time></trkpt><trkpt lat="42.128955863151944" lon="14.029218136727852"><ele>911.4</ele><time>2026-04-04T12:34:00.001Z</time></trkpt><trkpt lat="42.12895848913502" lon="14.029060891789541"><ele>910.6000000000001</ele><time>2026-04-04T12:34:02.001Z</time></trkpt><trkpt lat="42.12897572989147" lon="14.028968275245267"><ele>909.8000000000001</ele><time>2026-04-04T12:34:03.001Z</time></trkpt><trkpt lat="42.128999804013716" lon="14.0288650824089"><ele>909.0</ele><time>2026-04-04T12:34:04.001Z</time></trkpt><trkpt lat="42.1290790994173" lon="14.02877748493658"><ele>907.5</ele><time>2026-04-04T12:34:05.001Z</time></trkpt><trkpt lat="42.12915714817289" lon="14.028641179873672"><ele>906.0</ele><time>2026-04-04T12:34:06.001Z</time></trkpt><trkpt lat="42.12925972070689" lon="14.028505656980778"><ele>904.5</ele><time>2026-04-04T12:34:07.001Z</time></trkpt><trkpt lat="42.12935443756533" lon="14.028369484972805"><ele>903.0</ele><time>2026-04-04T12:34:08.001Z</time></trkpt><trkpt lat="42.12944233597664" lon="14.028241099919764"><ele>901.5999999999999</ele><time>2026-04-04T12:34:09.001Z</time></trkpt><trkpt lat="42.12951183607025" lon="14.028113943139708"><ele>900.1999999999999</ele><time>2026-04-04T12:34:10.001Z</time></trkpt><trkpt lat="42.129553650677856" lon="14.027977414508173"><ele>898.8</ele><time>2026-04-04T12:34:11.001Z</time></trkpt><trkpt lat="42.129573786391155" lon="14.027858648829318"><ele>897.4</ele><time>2026-04-04T12:34:12.001Z</time></trkpt><trkpt lat="42.12960103122565" lon="14.027769085183106"><ele>896.0</ele><time>2026-04-04T12:34:13.001Z</time></trkpt><trkpt lat="42.1295985529368" lon="14.02767913654175"><ele>896.0000000000001</ele><time>2026-04-04T12:34:14.001Z</time></trkpt><trkpt lat="42.12957348986527" lon="14.027598327048912"><ele>896.0</ele><time>2026-04-04T12:34:15.001Z</time></trkpt><trkpt lat="42.129519964369834" lon="14.027541875607499"><ele>896.0</ele><time>2026-04-04T12:34:16.001Z</time></trkpt><trkpt lat="42.12939543413374" lon="14.027531078937903"><ele>896.0</ele><time>2026-04-04T12:34:18.001Z</time></trkpt><trkpt lat="42.129333538530815" lon="14.027608593936096"><ele>896.0000000000001</ele><time>2026-04-04T12:34:19.001Z</time></trkpt><trkpt lat="42.12927589932373" lon="14.027682179596935"><ele>896.0</ele><time>2026-04-04T12:34:20.001Z</time></trkpt><trkpt lat="42.12920420376155" lon="14.027745557657385"><ele>896.0000000000001</ele><time>2026-04-04T12:34:21.001Z</time></trkpt><trkpt lat="42.129135200494204" lon="14.027821208435567"><ele>896.0</ele><time>2026-04-04T12:34:22.001Z</time></trkpt><trkpt lat="42.129064156659766" lon="14.027878704012977"><ele>896.0</ele><time>2026-04-04T12:34:23.001Z</time></trkpt><trkpt lat="42.128990852994704" lon="14.027908722433205"><ele>896.0</ele><time>2026-04-04T12:34:24.001Z</time></trkpt><trkpt lat="42.12891783482842" lon="14.027879073873219"><ele>896.0000000000001</ele><time>2026-04-04T12:34:25.001Z</time></trkpt><trkpt lat="42.12884138760931" lon="14.027814351243052"><ele>896.0</ele><time>2026-04-04T12:34:26.001Z</time></trkpt><trkpt lat="42.12873785368404" lon="14.027733219624972"><ele>894.0</ele><time>2026-04-04T12:34:27.001Z</time></trkpt><trkpt lat="42.12863745746669" lon="14.027618287177168"><ele>892.0</ele><time>2026-04-04T12:34:28.001Z</time></trkpt><trkpt lat="42.12852932690798" lon="14.027500609447012"><ele>890.0</ele><time>2026-04-04T12:34:29.001Z</time></trkpt><trkpt lat="42.128434705437826" lon="14.02739001770825"><ele>888.0</ele><time>2026-04-04T12:34:30.001Z</time></trkpt><trkpt lat="42.12835940983658" lon="14.027299621335994"><ele>886.6666666666666</ele><time>2026-04-04T12:34:31.001Z</time></trkpt><trkpt lat="42.12828927495197" lon="14.027238566198548"><ele>885.3333333333333</ele><time>2026-04-04T12:34:32.001Z</time></trkpt><trkpt lat="42.12822445292774" lon="14.027195981827578"><ele>884.0</ele><time>2026-04-04T12:34:33.001Z</time></trkpt><trkpt lat="42.128158812335265" lon="14.027178189927094"><ele>882.6666666666666</ele><time>2026-04-04T12:34:34.001Z</time></trkpt><trkpt lat="42.128083531991486" lon="14.027181663849387"><ele>881.3333333333333</ele><time>2026-04-04T12:34:35.001Z</time></trkpt><trkpt lat="42.12800638222574" lon="14.027204926321668"><ele>880.0</ele><time>2026-04-04T12:34:36.001Z</time></trkpt><trkpt lat="42.12793620466725" lon="14.027253371063736"><ele>879.8</ele><time>2026-04-04T12:34:37.001Z</time></trkpt><trkpt lat="42.12787491351187" lon="14.02732555882356"><ele>879.6</ele><time>2026-04-04T12:34:38.001Z</time></trkpt><trkpt lat="42.12781571276916" lon="14.027419573720616"><ele>879.4000000000001</ele><time>2026-04-04T12:34:39.001Z</time></trkpt><trkpt lat="42.12776253066529" lon="14.027530615070871"><ele>879.2</ele><time>2026-04-04T12:34:40.001Z</time></trkpt><trkpt lat="42.127713986029555" lon="14.027646658508862"><ele>879.0</ele><time>2026-04-04T12:34:41.001Z</time></trkpt><trkpt lat="42.12766620037768" lon="14.027767400557414"><ele>879.0</ele><time>2026-04-04T12:34:42.001Z</time></trkpt><trkpt lat="42.12762817864808" lon="14.027890186055464"><ele>879.0</ele><time>2026-04-04T12:34:43.001Z</time></trkpt><trkpt lat="42.12759362228693" lon="14.027981114097733"><ele>879.0</ele><time>2026-04-04T12:34:44.001Z</time></trkpt><trkpt lat="42.127555601299115" lon="14.028058072644436"><ele>879.0</ele><time>2026-04-04T12:34:45.001Z</time></trkpt><trkpt lat="42.12749350495606" lon="14.0281172491578"><ele>879.0</ele><time>2026-04-04T12:34:47.001Z</time></trkpt><trkpt lat="42.127442016852804" lon="14.028067149054158"><ele>879.0</ele><time>2026-04-04T12:34:49.001Z</time></trkpt><trkpt lat="42.12743919259683" lon="14.027898102685235"><ele>879.0</ele><time>2026-04-04T12:34:51.001Z</time></trkpt><trkpt lat="42.12746342494801" lon="14.027777686553215"><ele>879.0000000000001</ele><time>2026-04-04T12:34:52.001Z</time></trkpt><trkpt lat="42.12749834308252" lon="14.027642059648747"><ele>879.0000000000001</ele><time>2026-04-04T12:34:53.001Z</time></trkpt><trkpt lat="42.12750686279163" lon="14.027495809981422"><ele>879.0</ele><time>2026-04-04T12:34:54.001Z</time></trkpt><trkpt lat="42.12750457706983" lon="14.027344030738167"><ele>879.0</ele><time>2026-04-04T12:34:55.001Z</time></trkpt><trkpt lat="42.12750320680898" lon="14.027192292951913"><ele>876.6</ele><time>2026-04-04T12:34:56.001Z</time></trkpt><trkpt lat="42.127478370938505" lon="14.02703843463111"><ele>874.2</ele><time>2026-04-04T12:34:57.001Z</time></trkpt><trkpt lat="42.12743983391464" lon="14.026890796931923"><ele>871.8000000000001</ele><time>2026-04-04T12:34:58.001Z</time></trkpt><trkpt lat="42.12739337556789" lon="14.026769593058594"><ele>869.4000000000001</ele><time>2026-04-04T12:34:59.001Z</time></trkpt><trkpt lat="42.12735889705027" lon="14.026654208202832"><ele>867.0</ele><time>2026-04-04T12:35:00.001Z</time></trkpt><trkpt lat="42.127302739072164" lon="14.026567103691873"><ele>864.8</ele><time>2026-04-04T12:35:01.001Z</time></trkpt><trkpt lat="42.12725894834369" lon="14.026498748506842"><ele>862.6</ele><time>2026-04-04T12:35:02.001Z</time></trkpt><trkpt lat="42.12719718764022" lon="14.026438888551544"><ele>860.3999999999999</ele><time>2026-04-04T12:35:04.001Z</time></trkpt><trkpt lat="42.127268697082066" lon="14.02623205697237"><ele>858.1999999999999</ele><time>2026-04-04T12:35:06.001Z</time></trkpt><trkpt lat="42.127307271969954" lon="14.026099470175671"><ele>856.0</ele><time>2026-04-04T12:35:07.001Z</time></trkpt><trkpt lat="42.127332138937284" lon="14.025978501456258"><ele>855.9999999999999</ele><time>2026-04-04T12:35:08.001Z</time></trkpt><trkpt lat="42.127376756520945" lon="14.025874456541288"><ele>856.0</ele><time>2026-04-04T12:35:09.001Z</time></trkpt><trkpt lat="42.12740897623724" lon="14.025765643345975"><ele>856.0</ele><time>2026-04-04T12:35:10.001Z</time></trkpt><trkpt lat="42.12744019309155" lon="14.025660217106322"><ele>856.0</ele><time>2026-04-04T12:35:11.001Z</time></trkpt><trkpt lat="42.12747132362246" lon="14.02555433244623"><ele>855.9999999999999</ele><time>2026-04-04T12:35:12.001Z</time></trkpt><trkpt lat="42.12750087777778" lon="14.025446214155467"><ele>856.0</ele><time>2026-04-04T12:35:13.001Z</time></trkpt><trkpt lat="42.127507692415406" lon="14.02532405834217"><ele>856.5</ele><time>2026-04-04T12:35:14.001Z</time></trkpt><trkpt lat="42.127533722972075" lon="14.025185645980986"><ele>857.0</ele><time>2026-04-04T12:35:15.001Z</time></trkpt><trkpt lat="42.127539535151364" lon="14.025002098907972"><ele>857.5</ele><time>2026-04-04T12:35:16.001Z</time></trkpt><trkpt lat="42.12752999767543" lon="14.024816618444914"><ele>858.0</ele><time>2026-04-04T12:35:17.001Z</time></trkpt><trkpt lat="42.12754336238564" lon="14.024652503173135"><ele>858.0</ele><time>2026-04-04T12:35:18.001Z</time></trkpt><trkpt lat="42.1275423897996" lon="14.024494685181507"><ele>858.0</ele><time>2026-04-04T12:35:19.001Z</time></trkpt><trkpt lat="42.12753440841935" lon="14.024354403864969"><ele>858.0</ele><time>2026-04-04T12:35:20.001Z</time></trkpt><trkpt lat="42.12751842024189" lon="14.024209546126196"><ele>858.0</ele><time>2026-04-04T12:35:21.001Z</time></trkpt><trkpt lat="42.12748923643344" lon="14.024083817294335"><ele>858.0</ele><time>2026-04-04T12:35:22.001Z</time></trkpt><trkpt lat="42.127456973011746" lon="14.023976195525645"><ele>855.0</ele><time>2026-04-04T12:35:23.001Z</time></trkpt><trkpt lat="42.12744025057276" lon="14.023853101542688"><ele>852.0</ele><time>2026-04-04T12:35:24.001Z</time></trkpt><trkpt lat="42.12742727680835" lon="14.023763475437375"><ele>849.0</ele><time>2026-04-04T12:35:25.001Z</time></trkpt><trkpt lat="42.12741741722416" lon="14.023656907164412"><ele>846.0</ele><time>2026-04-04T12:35:26.001Z</time></trkpt><trkpt lat="42.127450031818654" lon="14.023559142334742"><ele>843.0</ele><time>2026-04-04T12:35:27.001Z</time></trkpt><trkpt lat="42.127507716375305" lon="14.023477717170373"><ele>840.0</ele><time>2026-04-04T12:35:28.001Z</time></trkpt><trkpt lat="42.127590640670924" lon="14.023407549893005"><ele>840.0</ele><time>2026-04-04T12:35:29.001Z</time></trkpt><trkpt lat="42.12768976306829" lon="14.023332758896087"><ele>840.0</ele><time>2026-04-04T12:35:30.001Z</time></trkpt><trkpt lat="42.127793777731505" lon="14.023256232789585"><ele>840.0</ele><time>2026-04-04T12:35:31.001Z</time></trkpt><trkpt lat="42.12791457434671" lon="14.023227346891664"><ele>840.0</ele><time>2026-04-04T12:35:32.001Z</time></trkpt><trkpt lat="42.128042402918105" lon="14.023200019650739"><ele>835.5</ele><time>2026-04-04T12:35:33.001Z</time></trkpt><trkpt lat="42.12818414293891" lon="14.023171231632194"><ele>831.0</ele><time>2026-04-04T12:35:34.001Z</time></trkpt><trkpt lat="42.12832692231515" lon="14.023122814489549"><ele>826.5</ele><time>2026-04-04T12:35:35.001Z</time></trkpt><trkpt lat="42.128466467734576" lon="14.023104200283445"><ele>822.0</ele><time>2026-04-04T12:35:36.001Z</time></trkpt><trkpt lat="42.12860960633448" lon="14.023080948613643"><ele>822.0</ele><time>2026-04-04T12:35:37.001Z</time></trkpt><trkpt lat="42.128757333571315" lon="14.02306287450602"><ele>822.0</ele><time>2026-04-04T12:35:38.001Z</time></trkpt><trkpt lat="42.12891519305269" lon="14.02304286457727"><ele>822.0</ele><time>2026-04-04T12:35:39.001Z</time></trkpt><trkpt lat="42.12907340116983" lon="14.023010669517175"><ele>822.6666666666667</ele><time>2026-04-04T12:35:40.001Z</time></trkpt><trkpt lat="42.12922425635677" lon="14.022964034382941"><ele>823.3333333333334</ele><time>2026-04-04T12:35:41.001Z</time></trkpt><trkpt lat="42.129369115163534" lon="14.022900790643034"><ele>824.0</ele><time>2026-04-04T12:35:42.001Z</time></trkpt><trkpt lat="42.12951338828919" lon="14.022831404008786"><ele>824.0</ele><time>2026-04-04T12:35:43.001Z</time></trkpt><trkpt lat="42.12966137872391" lon="14.022751731808535"><ele>824.0</ele><time>2026-04-04T12:35:44.001Z</time></trkpt><trkpt lat="42.12981013941409" lon="14.0226692449279"><ele>824.0</ele><time>2026-04-04T12:35:45.001Z</time></trkpt><trkpt lat="42.12995913736025" lon="14.022592645239257"><ele>824.0</ele><time>2026-04-04T12:35:46.001Z</time></trkpt><trkpt lat="42.130116589762245" lon="14.022512635859728"><ele>824.0</ele><time>2026-04-04T12:35:47.001Z</time></trkpt><trkpt lat="42.130280307805386" lon="14.02242446917791"><ele>824.0</ele><time>2026-04-04T12:35:48.001Z</time></trkpt><trkpt lat="42.13045231023429" lon="14.022338719896558"><ele>818.6666666666667</ele><time>2026-04-04T12:35:49.001Z</time></trkpt><trkpt lat="42.13062947000154" lon="14.022266289339484"><ele>813.3333333333333</ele><time>2026-04-04T12:35:50.001Z</time></trkpt><trkpt lat="42.13080033847989" lon="14.02220093334687"><ele>808.0</ele><time>2026-04-04T12:35:51.001Z</time></trkpt><trkpt lat="42.13096645750124" lon="14.022142630058813"><ele>808.0</ele><time>2026-04-04T12:35:52.001Z</time></trkpt><trkpt lat="42.13112741052364" lon="14.022090130919157"><ele>808.0</ele><time>2026-04-04T12:35:53.001Z</time></trkpt><trkpt lat="42.13128135670627" lon="14.022041621335987"><ele>808.0</ele><time>2026-04-04T12:35:54.001Z</time></trkpt><trkpt lat="42.13143137282206" lon="14.022029338230025"><ele>807.0</ele><time>2026-04-04T12:35:55.001Z</time></trkpt><trkpt lat="42.13157467708864" lon="14.021997017638467"><ele>806.0</ele><time>2026-04-04T12:35:56.001Z</time></trkpt><trkpt lat="42.13171314568384" lon="14.022023691750876"><ele>805.0</ele><time>2026-04-04T12:35:57.001Z</time></trkpt><trkpt lat="42.13184834824857" lon="14.022069559697782"><ele>804.0</ele><time>2026-04-04T12:35:58.001Z</time></trkpt><trkpt lat="42.131979885511186" lon="14.02216197404424"><ele>804.0</ele><time>2026-04-04T12:35:59.001Z</time></trkpt><trkpt lat="42.13210240022289" lon="14.022325211789111"><ele>804.0</ele><time>2026-04-04T12:36:00.001Z</time></trkpt><trkpt lat="42.13223228229017" lon="14.022487849401957"><ele>804.0</ele><time>2026-04-04T12:36:01.001Z</time></trkpt><trkpt lat="42.132335111951214" lon="14.02253310995283"><ele>804.3333333333333</ele><time>2026-04-04T12:36:02.001Z</time></trkpt><trkpt lat="42.13246518866772" lon="14.022616554897459"><ele>804.6666666666666</ele><time>2026-04-04T12:36:03.001Z</time></trkpt><trkpt lat="42.13261641302977" lon="14.02266620387783"><ele>805.0</ele><time>2026-04-04T12:36:04.001Z</time></trkpt><trkpt lat="42.132781320807155" lon="14.022677746777116"><ele>805.0</ele><time>2026-04-04T12:36:05.001Z</time></trkpt><trkpt lat="42.132946150838464" lon="14.022670011666738"><ele>805.0</ele><time>2026-04-04T12:36:06.001Z</time></trkpt><trkpt lat="42.13310727165649" lon="14.022663387669738"><ele>805.0</ele><time>2026-04-04T12:36:07.001Z</time></trkpt><trkpt lat="42.13325579290876" lon="14.022649373693563"><ele>802.75</ele><time>2026-04-04T12:36:08.001Z</time></trkpt><trkpt lat="42.133401766885854" lon="14.022622275082247"><ele>800.5</ele><time>2026-04-04T12:36:09.001Z</time></trkpt><trkpt lat="42.133541544459625" lon="14.022618352210218"><ele>798.25</ele><time>2026-04-04T12:36:10.001Z</time></trkpt><trkpt lat="42.133684969062514" lon="14.022660591227039"><ele>796.0</ele><time>2026-04-04T12:36:11.001Z</time></trkpt><trkpt lat="42.1338231716435" lon="14.022697346384344"><ele>796.0</ele><time>2026-04-04T12:36:12.001Z</time></trkpt><trkpt lat="42.13393196733834" lon="14.022706204273577"><ele>796.0</ele><time>2026-04-04T12:36:13.001Z</time></trkpt><trkpt lat="42.13403876543548" lon="14.022721033907274"><ele>796.0</ele><time>2026-04-04T12:36:14.001Z</time></trkpt><trkpt lat="42.1341567352808" lon="14.022673573923665"><ele>796.0</ele><time>2026-04-04T12:36:15.001Z</time></trkpt><trkpt lat="42.13428262532738" lon="14.022565342227306"><ele>792.75</ele><time>2026-04-04T12:36:16.001Z</time></trkpt><trkpt lat="42.134400981793135" lon="14.0224244668825"><ele>789.5</ele><time>2026-04-04T12:36:17.001Z</time></trkpt><trkpt lat="42.134510677330105" lon="14.02228544779745"><ele>786.25</ele><time>2026-04-04T12:36:18.001Z</time></trkpt><trkpt lat="42.13459989015138" lon="14.02215429071663"><ele>783.0</ele><time>2026-04-04T12:36:19.001Z</time></trkpt><trkpt lat="42.13468182784659" lon="14.022021753193114"><ele>783.0</ele><time>2026-04-04T12:36:20.001Z</time></trkpt><trkpt lat="42.134748923759346" lon="14.021868527342715"><ele>783.0</ele><time>2026-04-04T12:36:21.001Z</time></trkpt><trkpt lat="42.13478434240624" lon="14.02169431006471"><ele>783.0</ele><time>2026-04-04T12:36:22.001Z</time></trkpt><trkpt lat="42.134778045282836" lon="14.021502827632377"><ele>783.0</ele><time>2026-04-04T12:36:23.001Z</time></trkpt><trkpt lat="42.134730243282995" lon="14.021311907229272"><ele>780.3333333333333</ele><time>2026-04-04T12:36:24.001Z</time></trkpt><trkpt lat="42.13466899671454" lon="14.021115857636817"><ele>777.6666666666666</ele><time>2026-04-04T12:36:25.001Z</time></trkpt><trkpt lat="42.13458482473483" lon="14.02091755391336"><ele>775.0</ele><time>2026-04-04T12:36:26.001Z</time></trkpt><trkpt lat="42.13449035596346" lon="14.020735257083562"><ele>773.0</ele><time>2026-04-04T12:36:27.001Z</time></trkpt><trkpt lat="42.13441449877455" lon="14.020575361494302"><ele>771.0</ele><time>2026-04-04T12:36:28.001Z</time></trkpt><trkpt lat="42.134363415728345" lon="14.020443571670928"><ele>769.0</ele><time>2026-04-04T12:36:29.001Z</time></trkpt><trkpt lat="42.134335525559514" lon="14.020318592540653"><ele>767.0</ele><time>2026-04-04T12:36:30.001Z</time></trkpt><trkpt lat="42.13432941943281" lon="14.020199120226982"><ele>765.0</ele><time>2026-04-04T12:36:31.002Z</time></trkpt><trkpt lat="42.13434318566526" lon="14.02008534609112"><ele>762.4</ele><time>2026-04-04T12:36:32.002Z</time></trkpt><trkpt lat="42.13437812999984" lon="14.019967713079463"><ele>759.8</ele><time>2026-04-04T12:36:33.002Z</time></trkpt><trkpt lat="42.13443738763704" lon="14.019869627387997"><ele>757.2</ele><time>2026-04-04T12:36:34.002Z</time></trkpt><trkpt lat="42.13451827572155" lon="14.019806506489395"><ele>754.6</ele><time>2026-04-04T12:36:35.002Z</time></trkpt><trkpt lat="42.13461679026928" lon="14.019768432000998"><ele>752.0</ele><time>2026-04-04T12:36:36.002Z</time></trkpt><trkpt lat="42.1347179030531" lon="14.019770911677815"><ele>752.0</ele><time>2026-04-04T12:36:37.001Z</time></trkpt><trkpt lat="42.13481395758032" lon="14.019801467256633"><ele>752.0</ele><time>2026-04-04T12:36:38.001Z</time></trkpt><trkpt lat="42.13325579290876" lon="14.022649373693563"><ele>763.0</ele><time>2026-04-04T12:36:08.001Z</time></trkpt><trkpt lat="42.133401766885854" lon="14.022622275082247"><ele>774.0</ele><time>2026-04-04T12:36:09.001Z</time></trkpt><trkpt lat="42.133541544459625" lon="14.022618352210218"><ele>785.0</ele><time>2026-04-04T12:36:10.001Z</time></trkpt><trkpt lat="42.133684969062514" lon="14.022660591227039"><ele>796.0</ele><time>2026-04-04T12:36:11.001Z</time></trkpt><trkpt lat="42.1338231716435" lon="14.022697346384344"><ele>796.0</ele><time>2026-04-04T12:36:12.001Z</time></trkpt><trkpt lat="42.13393196733834" lon="14.022706204273577"><ele>796.0</ele><time>2026-04-04T12:36:13.001Z</time></trkpt><trkpt lat="42.13403876543548" lon="14.022721033907274"><ele>796.0</ele><time>2026-04-04T12:36:14.001Z</time></trkpt><trkpt lat="42.1341567352808" lon="14.022673573923665"><ele>796.0</ele><time>2026-04-04T12:36:15.001Z</time></trkpt><trkpt lat="42.13428262532738" lon="14.022565342227306"><ele>792.75</ele><time>2026-04-04T12:36:16.001Z</time></trkpt><trkpt lat="42.134400981793135" lon="14.0224244668825"><ele>789.5</ele><time>2026-04-04T12:36:17.001Z</time></trkpt><trkpt lat="42.134510677330105" lon="14.02228544779745"><ele>786.25</ele><time>2026-04-04T12:36:18.001Z</time></trkpt><trkpt lat="42.13459989015138" lon="14.02215429071663"><ele>783.0</ele><time>2026-04-04T12:36:19.001Z</time></trkpt><trkpt lat="42.13468182784659" lon="14.022021753193114"><ele>783.0</ele><time>2026-04-04T12:36:20.001Z</time></trkpt><trkpt lat="42.134748923759346" lon="14.021868527342715"><ele>783.0</ele><time>2026-04-04T12:36:21.001Z</time></trkpt><trkpt lat="42.13478434240624" lon="14.02169431006471"><ele>783.0</ele><time>2026-04-04T12:36:22.001Z</time></trkpt><trkpt lat="42.134778045282836" lon="14.021502827632377"><ele>783.0</ele><time>2026-04-04T12:36:23.001Z</time></trkpt><trkpt lat="42.134730243282995" lon="14.021311907229272"><ele>780.3333333333333</ele><time>2026-04-04T12:36:24.001Z</time></trkpt><trkpt lat="42.13466899671454" lon="14.021115857636817"><ele>777.6666666666666</ele><time>2026-04-04T12:36:25.001Z</time></trkpt><trkpt lat="42.13458482473483" lon="14.02091755391336"><ele>775.0</ele><time>2026-04-04T12:36:26.001Z</time></trkpt><trkpt lat="42.13449035596346" lon="14.020735257083562"><ele>773.0</ele><time>2026-04-04T12:36:27.001Z</time></trkpt><trkpt lat="42.13441449877455" lon="14.020575361494302"><ele>771.0</ele><time>2026-04-04T12:36:28.001Z</time></trkpt><trkpt lat="42.134363415728345" lon="14.020443571670928"><ele>769.0</ele><time>2026-04-04T12:36:29.001Z</time></trkpt><trkpt lat="42.134335525559514" lon="14.020318592540653"><ele>767.0</ele><time>2026-04-04T12:36:30.001Z</time></trkpt><trkpt lat="42.13432941943281" lon="14.020199120226982"><ele>765.0</ele><time>2026-04-04T12:36:31.002Z</time></trkpt><trkpt lat="42.13434318566526" lon="14.02008534609112"><ele>762.4</ele><time>2026-04-04T12:36:32.002Z</time></trkpt><trkpt lat="42.13437812999984" lon="14.019967713079463"><ele>759.8</ele><time>2026-04-04T12:36:33.002Z</time></trkpt><trkpt lat="42.13443738763704" lon="14.019869627387997"><ele>757.2</ele><time>2026-04-04T12:36:34.002Z</time></trkpt><trkpt lat="42.13451827572155" lon="14.019806506489395"><ele>754.6</ele><time>2026-04-04T12:36:35.002Z</time></trkpt><trkpt lat="42.13461679026928" lon="14.019768432000998"><ele>752.0</ele><time>2026-04-04T12:36:36.002Z</time></trkpt><trkpt lat="42.1347179030531" lon="14.019770911677815"><ele>752.0</ele><time>2026-04-04T12:36:37.001Z</time></trkpt><trkpt lat="42.13481395758032" lon="14.019801467256633"><ele>752.0</ele><time>2026-04-04T12:36:38.001Z</time></trkpt><trkpt lat="42.13490953443242" lon="14.019859832026338"><ele>752.0</ele><time>2026-04-04T12:36:39.001Z</time></trkpt><trkpt lat="42.13499807460524" lon="14.019939428793322"><ele>752.0</ele><time>2026-04-04T12:36:40.001Z</time></trkpt><trkpt lat="42.13509945645094" lon="14.020042761807936"><ele>752.0</ele><time>2026-04-04T12:36:41.001Z</time></trkpt><trkpt lat="42.13521393454974" lon="14.020150097050223"><ele>755.6666666666666</ele><time>2026-04-04T12:36:42.001Z</time></trkpt><trkpt lat="42.13534318178847" lon="14.020265959670375"><ele>759.3333333333334</ele><time>2026-04-04T12:36:43.001Z</time></trkpt><trkpt lat="42.135478364754746" lon="14.02038016194323"><ele>763.0</ele><time>2026-04-04T12:36:44.001Z</time></trkpt><trkpt lat="42.13560966270989" lon="14.02047763518828"><ele>760.75</ele><time>2026-04-04T12:36:45.001Z</time></trkpt><trkpt lat="42.13574634018805" lon="14.02055010786049"><ele>758.5</ele><time>2026-04-04T12:36:46.001Z</time></trkpt><trkpt lat="42.13588482309957" lon="14.02060228204624"><ele>756.25</ele><time>2026-04-04T12:36:47.001Z</time></trkpt><trkpt lat="42.136018689604526" lon="14.020624113229898"><ele>754.0</ele><time>2026-04-04T12:36:48.001Z</time></trkpt><trkpt lat="42.13616235684576" lon="14.02061382990488"><ele>754.0</ele><time>2026-04-04T12:36:49.001Z</time></trkpt><trkpt lat="42.1362969914335" lon="14.020580192269948"><ele>754.0</ele><time>2026-04-04T12:36:50.001Z</time></trkpt><trkpt lat="42.13643133004369" lon="14.020544764851264"><ele>754.0</ele><time>2026-04-04T12:36:51.001Z</time></trkpt><trkpt lat="42.13658304438725" lon="14.020507559809666"><ele>754.0</ele><time>2026-04-04T12:36:52.001Z</time></trkpt><trkpt lat="42.136734505171134" lon="14.020464111540928"><ele>753.0</ele><time>2026-04-04T12:36:53.001Z</time></trkpt><trkpt lat="42.13687282743821" lon="14.0204091403187"><ele>752.0</ele><time>2026-04-04T12:36:54.001Z</time></trkpt><trkpt lat="42.13698259842903" lon="14.020350456210114"><ele>751.0</ele><time>2026-04-04T12:36:55.001Z</time></trkpt><trkpt lat="42.13707993724658" lon="14.020279924909909"><ele>750.0</ele><time>2026-04-04T12:36:56.001Z</time></trkpt><trkpt lat="42.13715919236764" lon="14.020183362939271"><ele>750.0</ele><time>2026-04-04T12:36:57.001Z</time></trkpt><trkpt lat="42.13722809862391" lon="14.020068527860996"><ele>750.0</ele><time>2026-04-04T12:36:58.001Z</time></trkpt><trkpt lat="42.13728508619401" lon="14.019942424297993"><ele>750.0</ele><time>2026-04-04T12:36:59.001Z</time></trkpt><trkpt lat="42.137336675901736" lon="14.019797874511916"><ele>750.0</ele><time>2026-04-04T12:37:00.001Z</time></trkpt><trkpt lat="42.137380527842296" lon="14.01964278393379"><ele>749.5</ele><time>2026-04-04T12:37:01.001Z</time></trkpt><trkpt lat="42.13742509922584" lon="14.019475261618007"><ele>749.0</ele><time>2026-04-04T12:37:02.001Z</time></trkpt><trkpt lat="42.13747596298207" lon="14.019286187879521"><ele>748.5</ele><time>2026-04-04T12:37:03.001Z</time></trkpt><trkpt lat="42.13752758561518" lon="14.019113096406038"><ele>748.0</ele><time>2026-04-04T12:37:04.001Z</time></trkpt><trkpt lat="42.13758425187796" lon="14.018937272093392"><ele>746.25</ele><time>2026-04-04T12:37:05.001Z</time></trkpt><trkpt lat="42.13763539935409" lon="14.018785922818065"><ele>744.5</ele><time>2026-04-04T12:37:06.001Z</time></trkpt><trkpt lat="42.13768373112587" lon="14.01864398516008"><ele>742.75</ele><time>2026-04-04T12:37:07.001Z</time></trkpt><trkpt lat="42.1377311648424" lon="14.018509480904163"><ele>741.0</ele><time>2026-04-04T12:37:08.001Z</time></trkpt><trkpt lat="42.13779154392724" lon="14.018387535309689"><ele>738.0</ele><time>2026-04-04T12:37:09.001Z</time></trkpt><trkpt lat="42.137875414656165" lon="14.018283715154107"><ele>735.0</ele><time>2026-04-04T12:37:10.001Z</time></trkpt><trkpt lat="42.13797290862721" lon="14.01818962777504"><ele>732.0</ele><time>2026-04-04T12:37:11.001Z</time></trkpt><trkpt lat="42.1380794889468" lon="14.018109247920423"><ele>729.0</ele><time>2026-04-04T12:37:12.001Z</time></trkpt><trkpt lat="42.13819125337919" lon="14.01804470516212"><ele>730.5</ele><time>2026-04-04T12:37:13.001Z</time></trkpt><trkpt lat="42.138296737399244" lon="14.017977637146494"><ele>732.0</ele><time>2026-04-04T12:37:14.001Z</time></trkpt><trkpt lat="42.13840288566037" lon="14.017919882071785"><ele>733.5</ele><time>2026-04-04T12:37:15.001Z</time></trkpt><trkpt lat="42.138514498118035" lon="14.017879474783255"><ele>735.0</ele><time>2026-04-04T12:37:16.001Z</time></trkpt><trkpt lat="42.1386286435946" lon="14.017865054574928"><ele>735.0</ele><time>2026-04-04T12:37:17.001Z</time></trkpt><trkpt lat="42.13874284059943" lon="14.017868094536967"><ele>735.0</ele><time>2026-04-04T12:37:18.001Z</time></trkpt><trkpt lat="42.13884926429372" lon="14.017859651765036"><ele>735.0</ele><time>2026-04-04T12:37:19.001Z</time></trkpt><trkpt lat="42.138943140111394" lon="14.017839072364286"><ele>735.0</ele><time>2026-04-04T12:37:20.001Z</time></trkpt><trkpt lat="42.139025981386496" lon="14.017799269433274"><ele>735.0</ele><time>2026-04-04T12:37:21.001Z</time></trkpt><trkpt lat="42.13909319768912" lon="14.017730251553388"><ele>734.4</ele><time>2026-04-04T12:37:22.001Z</time></trkpt><trkpt lat="42.13914111797081" lon="14.017627393919502"><ele>733.8</ele><time>2026-04-04T12:37:23.001Z</time></trkpt><trkpt lat="42.13916526957583" lon="14.017503777115792"><ele>733.2</ele><time>2026-04-04T12:37:24.001Z</time></trkpt><trkpt lat="42.139159560370125" lon="14.017381561020432"><ele>732.6</ele><time>2026-04-04T12:37:25.001Z</time></trkpt><trkpt lat="42.13911503005431" lon="14.017264827231223"><ele>732.0</ele><time>2026-04-04T12:37:26.001Z</time></trkpt><trkpt lat="42.139049927368305" lon="14.017155751844369"><ele>730.25</ele><time>2026-04-04T12:37:27.001Z</time></trkpt><trkpt lat="42.138972804666196" lon="14.017052445197022"><ele>728.5</ele><time>2026-04-04T12:37:28.001Z</time></trkpt><trkpt lat="42.138853471088865" lon="14.016970055076206"><ele>726.75</ele><time>2026-04-04T12:37:29.001Z</time></trkpt><trkpt lat="42.13871810409493" lon="14.0169100003457"><ele>725.0</ele><time>2026-04-04T12:37:30.001Z</time></trkpt><trkpt lat="42.13858733210101" lon="14.016857707317335"><ele>725.0</ele><time>2026-04-04T12:37:31.001Z</time></trkpt><trkpt lat="42.13846489523747" lon="14.016801500565252"><ele>725.0</ele><time>2026-04-04T12:37:32.001Z</time></trkpt><trkpt lat="42.138339927835865" lon="14.016743393251193"><ele>725.0</ele><time>2026-04-04T12:37:33.001Z</time></trkpt><trkpt lat="42.13822133964431" lon="14.016719511201655"><ele>725.0</ele><time>2026-04-04T12:37:34.001Z</time></trkpt><trkpt lat="42.138089469103605" lon="14.01674524237736"><ele>722.3333333333333</ele><time>2026-04-04T12:37:35.001Z</time></trkpt><trkpt lat="42.13794158077003" lon="14.016820039767113"><ele>719.6666666666666</ele><time>2026-04-04T12:37:36.001Z</time></trkpt><trkpt lat="42.1377964082816" lon="14.016933407872871"><ele>717.0</ele><time>2026-04-04T12:37:37.001Z</time></trkpt><trkpt lat="42.137651457526374" lon="14.017060985440274"><ele>717.0</ele><time>2026-04-04T12:37:38.001Z</time></trkpt><trkpt lat="42.13752221109532" lon="14.01718959518914"><ele>717.0</ele><time>2026-04-04T12:37:39.001Z</time></trkpt><trkpt lat="42.13740941213157" lon="14.017299577976026"><ele>717.0</ele><time>2026-04-04T12:37:40.001Z</time></trkpt><trkpt lat="42.13731043669889" lon="14.01738686011124"><ele>717.0</ele><time>2026-04-04T12:37:41.001Z</time></trkpt><trkpt lat="42.13721750228237" lon="14.017448426775427"><ele>716.0</ele><time>2026-04-04T12:37:42.001Z</time></trkpt><trkpt lat="42.13711660241134" lon="14.017462057444433"><ele>715.0</ele><time>2026-04-04T12:37:43.001Z</time></trkpt><trkpt lat="42.137019889401294" lon="14.017427562313422"><ele>714.0</ele><time>2026-04-04T12:37:44.001Z</time></trkpt><trkpt lat="42.136940043435835" lon="14.01734959798794"><ele>713.0</ele><time>2026-04-04T12:37:45.001Z</time></trkpt><trkpt lat="42.136898522750265" lon="14.017232603731747"><ele>712.0</ele><time>2026-04-04T12:37:46.001Z</time></trkpt><trkpt lat="42.136894393361736" lon="14.017089178294526"><ele>712.0</ele><time>2026-04-04T12:37:47.001Z</time></trkpt><trkpt lat="42.13692404832664" lon="14.016943161327063"><ele>712.0</ele><time>2026-04-04T12:37:48.001Z</time></trkpt><trkpt lat="42.13699241648338" lon="14.016822804564738"><ele>712.0</ele><time>2026-04-04T12:37:49.001Z</time></trkpt><trkpt lat="42.137100082950404" lon="14.016706027618243"><ele>712.0</ele><time>2026-04-04T12:37:50.001Z</time></trkpt><trkpt lat="42.13724004278023" lon="14.016603754029852"><ele>710.0</ele><time>2026-04-04T12:37:51.001Z</time></trkpt><trkpt lat="42.13739714088142" lon="14.016516095485553"><ele>708.0</ele><time>2026-04-04T12:37:52.001Z</time></trkpt><trkpt lat="42.137553732722274" lon="14.016413667383"><ele>706.0</ele><time>2026-04-04T12:37:53.001Z</time></trkpt><trkpt lat="42.137716230241836" lon="14.016299919788642"><ele>706.0</ele><time>2026-04-04T12:37:54.001Z</time></trkpt><trkpt lat="42.13787474043944" lon="14.016188164481976"><ele>706.0</ele><time>2026-04-04T12:37:55.001Z</time></trkpt><trkpt lat="42.138043935922994" lon="14.016072502151745"><ele>706.0</ele><time>2026-04-04T12:37:56.001Z</time></trkpt><trkpt lat="42.13821995472319" lon="14.01594917907449"><ele>708.0</ele><time>2026-04-04T12:37:57.001Z</time></trkpt><trkpt lat="42.13839848861831" lon="14.015827001950923"><ele>710.0</ele><time>2026-04-04T12:37:58.001Z</time></trkpt><trkpt lat="42.13856952022437" lon="14.015709309483485"><ele>712.0</ele><time>2026-04-04T12:37:59.001Z</time></trkpt><trkpt lat="42.13873537003088" lon="14.015595985028934"><ele>709.75</ele><time>2026-04-04T12:38:00.001Z</time></trkpt><trkpt lat="42.13888839276266" lon="14.015491938996236"><ele>707.5</ele><time>2026-04-04T12:38:01.001Z</time></trkpt><trkpt lat="42.13902445458677" lon="14.015403238672818"><ele>705.25</ele><time>2026-04-04T12:38:02.001Z</time></trkpt><trkpt lat="42.13913908852088" lon="14.015330036282332"><ele>703.0</ele><time>2026-04-04T12:38:03.001Z</time></trkpt><trkpt lat="42.13923355190195" lon="14.015262201294501"><ele>703.0</ele><time>2026-04-04T12:38:04.001Z</time></trkpt><trkpt lat="42.13930921355292" lon="14.0151821996603"><ele>703.0</ele><time>2026-04-04T12:38:05.001Z</time></trkpt><trkpt lat="42.13935772737506" lon="14.015069701674733"><ele>703.0</ele><time>2026-04-04T12:38:06.001Z</time></trkpt><trkpt lat="42.13936146333924" lon="14.014934518176673"><ele>703.0</ele><time>2026-04-04T12:38:07.001Z</time></trkpt><trkpt lat="42.13932235646778" lon="14.014806238881173"><ele>703.0</ele><time>2026-04-04T12:38:08.001Z</time></trkpt><trkpt lat="42.139241834823736" lon="14.01471454943003"><ele>700.0</ele><time>2026-04-04T12:38:09.001Z</time></trkpt><trkpt lat="42.13913410810535" lon="14.014673111509673"><ele>697.0</ele><time>2026-04-04T12:38:10.001Z</time></trkpt><trkpt lat="42.13901035632755" lon="14.014678063102126"><ele>694.0</ele><time>2026-04-04T12:38:11.001Z</time></trkpt><trkpt lat="42.13887989882599" lon="14.014732587150954"><ele>691.0</ele><time>2026-04-04T12:38:12.001Z</time></trkpt><trkpt lat="42.13874247312512" lon="14.014822656926885"><ele>690.0</ele><time>2026-04-04T12:38:13.001Z</time></trkpt><trkpt lat="42.13860021481528" lon="14.01492394314501"><ele>689.0</ele><time>2026-04-04T12:38:14.001Z</time></trkpt><trkpt lat="42.138454388129276" lon="14.015006720339278"><ele>688.0</ele><time>2026-04-04T12:38:15.001Z</time></trkpt><trkpt lat="42.13829864738638" lon="14.015065821463809"><ele>690.6666666666667</ele><time>2026-04-04T12:38:16.001Z</time></trkpt><trkpt lat="42.13812177656415" lon="14.015099565867692"><ele>693.3333333333334</ele><time>2026-04-04T12:38:17.001Z</time></trkpt><trkpt lat="42.13793338905509" lon="14.015110311082847"><ele>696.0</ele><time>2026-04-04T12:38:18.001Z</time></trkpt><trkpt lat="42.13774869710839" lon="14.01510741642887"><ele>696.0</ele><time>2026-04-04T12:38:19.001Z</time></trkpt><trkpt lat="42.137555805452024" lon="14.015107786799316"><ele>696.0</ele><time>2026-04-04T12:38:20.001Z</time></trkpt><trkpt lat="42.13735958500109" lon="14.015111322409105"><ele>696.0</ele><time>2026-04-04T12:38:21.001Z</time></trkpt><trkpt lat="42.13717650578541" lon="14.015115278476648"><ele>695.0</ele><time>2026-04-04T12:38:22.001Z</time></trkpt><trkpt lat="42.13703174982488" lon="14.015120601115536"><ele>694.0</ele><time>2026-04-04T12:38:23.001Z</time></trkpt><trkpt lat="42.13690831516132" lon="14.015122039653477"><ele>693.0</ele><time>2026-04-04T12:38:24.001Z</time></trkpt><trkpt lat="42.13680627015161" lon="14.015119740756335"><ele>692.0</ele><time>2026-04-04T12:38:25.001Z</time></trkpt><trkpt lat="42.13671409721758" lon="14.015079283989811"><ele>690.4000000000001</ele><time>2026-04-04T12:38:26.001Z</time></trkpt><trkpt lat="42.13664216140685" lon="14.014983110013484"><ele>688.8000000000001</ele><time>2026-04-04T12:38:27.001Z</time></trkpt><trkpt lat="42.13660471749316" lon="14.014845368275827"><ele>687.2</ele><time>2026-04-04T12:38:28.001Z</time></trkpt><trkpt lat="42.13661183690637" lon="14.014696558493277"><ele>685.6</ele><time>2026-04-04T12:38:29.001Z</time></trkpt><trkpt lat="42.136665575645814" lon="14.014557526859283"><ele>684.0</ele><time>2026-04-04T12:38:30.001Z</time></trkpt><trkpt lat="42.13675880715716" lon="14.014438907430625"><ele>684.0</ele><time>2026-04-04T12:38:31.001Z</time></trkpt><trkpt lat="42.13688845819536" lon="14.01434580823376"><ele>684.0</ele><time>2026-04-04T12:38:32.001Z</time></trkpt><trkpt lat="42.13704156896761" lon="14.014271052522336"><ele>684.0</ele><time>2026-04-04T12:38:33.001Z</time></trkpt><trkpt lat="42.13719638141043" lon="14.014177113855899"><ele>681.0</ele><time>2026-04-04T12:38:34.001Z</time></trkpt><trkpt lat="42.137354696676894" lon="14.014045767342967"><ele>678.0</ele><time>2026-04-04T12:38:35.001Z</time></trkpt><trkpt lat="42.13750786121063" lon="14.01388027620816"><ele>675.0</ele><time>2026-04-04T12:38:36.002Z</time></trkpt><trkpt lat="42.13764861120649" lon="14.01368932533202"><ele>675.0</ele><time>2026-04-04T12:38:37.002Z</time></trkpt><trkpt lat="42.13779025734843" lon="14.013494488647797"><ele>675.0</ele><time>2026-04-04T12:38:38.002Z</time></trkpt><trkpt lat="42.13795338793823" lon="14.013327873617762"><ele>675.0</ele><time>2026-04-04T12:38:39.002Z</time></trkpt><trkpt lat="42.138135572091414" lon="14.013179373314632"><ele>673.6666666666666</ele><time>2026-04-04T12:38:40.002Z</time></trkpt><trkpt lat="42.13830217290926" lon="14.013033977571975"><ele>672.3333333333333</ele><time>2026-04-04T12:38:41.002Z</time></trkpt><trkpt lat="42.138451905544436" lon="14.012902819634135"><ele>671.0</ele><time>2026-04-04T12:38:42.002Z</time></trkpt><trkpt lat="42.13861668136588" lon="14.012799926251208"><ele>671.0</ele><time>2026-04-04T12:38:43.002Z</time></trkpt><trkpt lat="42.13878841014066" lon="14.01273471045203"><ele>671.0</ele><time>2026-04-04T12:38:44.002Z</time></trkpt><trkpt lat="42.138960470501324" lon="14.01269690287761"><ele>671.0</ele><time>2026-04-04T12:38:45.002Z</time></trkpt><trkpt lat="42.13912587809455" lon="14.012700541172121"><ele>670.6666666666666</ele><time>2026-04-04T12:38:46.002Z</time></trkpt><trkpt lat="42.13930638146479" lon="14.012753114019434"><ele>670.3333333333334</ele><time>2026-04-04T12:38:47.002Z</time></trkpt><trkpt lat="42.13949524853292" lon="14.012823939677986"><ele>670.0</ele><time>2026-04-04T12:38:48.002Z</time></trkpt><trkpt lat="42.13965825023831" lon="14.0128786822542"><ele>670.0</ele><time>2026-04-04T12:38:49.001Z</time></trkpt><trkpt lat="42.139794563664275" lon="14.01292133626784"><ele>670.0</ele><time>2026-04-04T12:38:50.001Z</time></trkpt><trkpt lat="42.1399079556026" lon="14.01295295206361"><ele>670.0</ele><time>2026-04-04T12:38:51.001Z</time></trkpt><trkpt lat="42.1400032652051" lon="14.012982312842798"><ele>670.0</ele><time>2026-04-04T12:38:52.001Z</time></trkpt><trkpt lat="42.140068110516495" lon="14.013004481842492"><ele>670.0</ele><time>2026-04-04T12:38:53.001Z</time></trkpt><trkpt lat="42.140152656879216" lon="14.012986600624183"><ele>668.8333333333334</ele><time>2026-04-04T12:39:20.001Z</time></trkpt><trkpt lat="42.14021488560882" lon="14.012937046647112"><ele>667.6666666666667</ele><time>2026-04-04T12:39:21.001Z</time></trkpt><trkpt lat="42.14027292256323" lon="14.012869112935483"><ele>666.5</ele><time>2026-04-04T12:39:22.001Z</time></trkpt><trkpt lat="42.140323754144035" lon="14.012803082935635"><ele>665.3333333333334</ele><time>2026-04-04T12:39:23.001Z</time></trkpt><trkpt lat="42.14043463806429" lon="14.012783234534613"><ele>664.1666666666666</ele><time>2026-04-04T12:39:25.001Z</time></trkpt><trkpt lat="42.14053654022638" lon="14.012859240270638"><ele>663.0</ele><time>2026-04-04T12:39:27.001Z</time></trkpt><trkpt lat="42.1406404489081" lon="14.012930676878204"><ele>663.0</ele><time>2026-04-04T12:39:29.001Z</time></trkpt><trkpt lat="42.14070335279678" lon="14.012974820018705"><ele>663.0</ele><time>2026-04-04T12:39:30.001Z</time></trkpt><trkpt lat="42.140784097194604" lon="14.013025196252554"><ele>663.0</ele><time>2026-04-04T12:39:31.001Z</time></trkpt><trkpt lat="42.14087024947439" lon="14.013070254946914"><ele>663.0</ele><time>2026-04-04T12:39:32.001Z</time></trkpt><trkpt lat="42.1409605313216" lon="14.013103467187825"><ele>663.0</ele><time>2026-04-04T12:39:33.001Z</time></trkpt><trkpt lat="42.14106169117175" lon="14.013134960917926"><ele>661.2</ele><time>2026-04-04T12:39:34.001Z</time></trkpt><trkpt lat="42.141171611851924" lon="14.013158882174572"><ele>659.4</ele><time>2026-04-04T12:39:35.001Z</time></trkpt><trkpt lat="42.14128472496225" lon="14.013170039808667"><ele>657.6</ele><time>2026-04-04T12:39:36.001Z</time></trkpt><trkpt lat="42.14138867598049" lon="14.013169029247994"><ele>655.8000000000001</ele><time>2026-04-04T12:39:37.001Z</time></trkpt><trkpt lat="42.14148698196328" lon="14.013164318257568"><ele>654.0</ele><time>2026-04-04T12:39:38.001Z</time></trkpt><trkpt lat="42.14158141810229" lon="14.013159842125242"><ele>653.3333333333334</ele><time>2026-04-04T12:39:39.001Z</time></trkpt><trkpt lat="42.14167254104539" lon="14.013152854371706"><ele>652.6666666666666</ele><time>2026-04-04T12:39:40.001Z</time></trkpt><trkpt lat="42.141760640374905" lon="14.013141790340542"><ele>652.0</ele><time>2026-04-04T12:39:41.001Z</time></trkpt><trkpt lat="42.14184597422471" lon="14.01311964022552"><ele>651.3333333333333</ele><time>2026-04-04T12:39:42.001Z</time></trkpt><trkpt lat="42.14190435172465" lon="14.013086150794127"><ele>650.6666666666666</ele><time>2026-04-04T12:39:43.001Z</time></trkpt><trkpt lat="42.14197118520339" lon="14.013143951585048"><ele>650.0</ele><time>2026-04-04T12:39:46.001Z</time></trkpt><trkpt lat="42.141913853907205" lon="14.013291131586534"><ele>652.0</ele><time>2026-04-04T12:39:48.001Z</time></trkpt><trkpt lat="42.141846545343896" lon="14.01339169993277"><ele>654.0</ele><time>2026-04-04T12:39:49.001Z</time></trkpt><trkpt lat="42.141784141336565" lon="14.013496705926842"><ele>656.0</ele><time>2026-04-04T12:39:50.001Z</time></trkpt><trkpt lat="42.14171933450605" lon="14.013616223370002"><ele>658.0</ele><time>2026-04-04T12:39:51.001Z</time></trkpt><trkpt lat="42.141661896801644" lon="14.013745725537978"><ele>660.0</ele><time>2026-04-04T12:39:52.001Z</time></trkpt><trkpt lat="42.141623987276155" lon="14.013876945085693"><ele>660.0</ele><time>2026-04-04T12:39:53.001Z</time></trkpt><trkpt lat="42.141608215963174" lon="14.014021045663695"><ele>660.0</ele><time>2026-04-04T12:39:54.001Z</time></trkpt><trkpt lat="42.14162152322831" lon="14.014185191869684"><ele>660.0</ele><time>2026-04-04T12:39:55.001Z</time></trkpt><trkpt lat="42.14165266506796" lon="14.014365161950803"><ele>660.0</ele><time>2026-04-04T12:39:56.001Z</time></trkpt><trkpt lat="42.14168079442384" lon="14.014543327681746"><ele>662.75</ele><time>2026-04-04T12:39:57.001Z</time></trkpt><trkpt lat="42.14170026679118" lon="14.014705154415594"><ele>665.5</ele><time>2026-04-04T12:39:58.001Z</time></trkpt><trkpt lat="42.141696081273324" lon="14.014864519468086"><ele>668.25</ele><time>2026-04-04T12:39:59.001Z</time></trkpt><trkpt lat="42.1416581277362" lon="14.015020772506839"><ele>671.0</ele><time>2026-04-04T12:40:00.001Z</time></trkpt><trkpt lat="42.14159211788024" lon="14.015186374387726"><ele>671.1999999999999</ele><time>2026-04-04T12:40:01.001Z</time></trkpt><trkpt lat="42.141516171824655" lon="14.015327938177089"><ele>671.4</ele><time>2026-04-04T12:40:02.001Z</time></trkpt><trkpt lat="42.14146636268424" lon="14.015454837654538"><ele>671.6</ele><time>2026-04-04T12:40:03.001Z</time></trkpt><trkpt lat="42.141454558634194" lon="14.015591678893605"><ele>671.8</ele><time>2026-04-04T12:40:04.001Z</time></trkpt><trkpt lat="42.14147123315589" lon="14.015738930962508"><ele>672.0</ele><time>2026-04-04T12:40:05.001Z</time></trkpt><trkpt lat="42.14150451428854" lon="14.015868680505369"><ele>673.3333333333334</ele><time>2026-04-04T12:40:06.001Z</time></trkpt><trkpt lat="42.14154743581643" lon="14.015986830288616"><ele>674.6666666666666</ele><time>2026-04-04T12:40:07.001Z</time></trkpt><trkpt lat="42.14160218493555" lon="14.016065793053498"><ele>676.0</ele><time>2026-04-04T12:40:08.001Z</time></trkpt><trkpt lat="42.1416669961867" lon="14.016105750857374"><ele>677.3333333333333</ele><time>2026-04-04T12:40:09.001Z</time></trkpt><trkpt lat="42.141735686035034" lon="14.016103233877399"><ele>678.6666666666666</ele><time>2026-04-04T12:40:10.001Z</time></trkpt><trkpt lat="42.141797864621985" lon="14.016062321741222"><ele>680.0</ele><time>2026-04-04T12:40:11.001Z</time></trkpt><trkpt lat="42.14184958783432" lon="14.015999368557202"><ele>680.0</ele><time>2026-04-04T12:40:12.001Z</time></trkpt><trkpt lat="42.14190611592907" lon="14.015913606884705"><ele>680.0</ele><time>2026-04-04T12:40:13.001Z</time></trkpt><trkpt lat="42.14195670625753" lon="14.01580973472853"><ele>680.0</ele><time>2026-04-04T12:40:14.001Z</time></trkpt><trkpt lat="42.14200975598648" lon="14.015699840605333"><ele>680.0</ele><time>2026-04-04T12:40:15.001Z</time></trkpt><trkpt lat="42.14206087234588" lon="14.015611912518565"><ele>680.0</ele><time>2026-04-04T12:40:16.001Z</time></trkpt><trkpt lat="42.142131562275814" lon="14.01554249033931"><ele>680.0</ele><time>2026-04-04T12:40:17.001Z</time></trkpt><trkpt lat="42.14223361515461" lon="14.015487673747588"><ele>680.0</ele><time>2026-04-04T12:40:18.001Z</time></trkpt><trkpt lat="42.142352870917506" lon="14.01545023187925"><ele>680.0</ele><time>2026-04-04T12:40:19.001Z</time></trkpt><trkpt lat="42.142469540322644" lon="14.015392165743389"><ele>680.0</ele><time>2026-04-04T12:40:20.001Z</time></trkpt><trkpt lat="42.14256623544426" lon="14.01532556909077"><ele>680.0</ele><time>2026-04-04T12:40:21.001Z</time></trkpt><trkpt lat="42.142649325182774" lon="14.015268022461749"><ele>680.0</ele><time>2026-04-04T12:40:22.001Z</time></trkpt><trkpt lat="42.142755289583164" lon="14.015214082439487"><ele>682.75</ele><time>2026-04-04T12:40:23.001Z</time></trkpt><trkpt lat="42.14288225127142" lon="14.015183792485212"><ele>685.5</ele><time>2026-04-04T12:40:24.001Z</time></trkpt><trkpt lat="42.143021915556695" lon="14.015180722791799"><ele>688.25</ele><time>2026-04-04T12:40:25.001Z</time></trkpt><trkpt lat="42.14313540907086" lon="14.01519110731963"><ele>691.0</ele><time>2026-04-04T12:40:26.001Z</time></trkpt><trkpt lat="42.14323765433022" lon="14.015178618690427"><ele>693.0</ele><time>2026-04-04T12:40:27.001Z</time></trkpt><trkpt lat="42.14332628861284" lon="14.015143343588603"><ele>695.0</ele><time>2026-04-04T12:40:28.001Z</time></trkpt><trkpt lat="42.143414115284486" lon="14.0151104493485"><ele>697.0</ele><time>2026-04-04T12:40:29.001Z</time></trkpt><trkpt lat="42.143488309303116" lon="14.015100953627082"><ele>699.0</ele><time>2026-04-04T12:40:30.001Z</time></trkpt><trkpt lat="42.14357696812133" lon="14.015079440809243"><ele>701.0</ele><time>2026-04-04T12:40:31.001Z</time></trkpt><trkpt lat="42.14367449432219" lon="14.01504839821105"><ele>703.0</ele><time>2026-04-04T12:40:32.001Z</time></trkpt><trkpt lat="42.14377492801242" lon="14.01499143964782"><ele>701.5999999999999</ele><time>2026-04-04T12:40:33.001Z</time></trkpt><trkpt lat="42.14387428840192" lon="14.014906396268527"><ele>700.1999999999999</ele><time>2026-04-04T12:40:34.001Z</time></trkpt><trkpt lat="42.143976180937" lon="14.014804279482567"><ele>698.8</ele><time>2026-04-04T12:40:35.001Z</time></trkpt><trkpt lat="42.14407237735701" lon="14.014710147554936"><ele>697.4</ele><time>2026-04-04T12:40:36.001Z</time></trkpt><trkpt lat="42.144126514166565" lon="14.014640521954588"><ele>696.0</ele><time>2026-04-04T12:40:37.001Z</time></trkpt><trkpt lat="42.144175510719236" lon="14.014709590452355"><ele>696.0</ele><time>2026-04-04T12:40:40Z</time></trkpt><trkpt lat="42.144093374393904" lon="14.014859496892447"><ele>696.0</ele><time>2026-04-04T12:40:42.001Z</time></trkpt><trkpt lat="42.14402110255526" lon="14.014946429809333"><ele>696.0</ele><time>2026-04-04T12:40:43.001Z</time></trkpt><trkpt lat="42.14396194250062" lon="14.015054421705381"><ele>696.0</ele><time>2026-04-04T12:40:44.001Z</time></trkpt><trkpt lat="42.143899423293306" lon="14.015201528711788"><ele>697.75</ele><time>2026-04-04T12:40:45.001Z</time></trkpt><trkpt lat="42.143851767265296" lon="14.015335132826024"><ele>699.5</ele><time>2026-04-04T12:40:46.001Z</time></trkpt><trkpt lat="42.14381455880845" lon="14.015473933022713"><ele>701.25</ele><time>2026-04-04T12:40:47.001Z</time></trkpt><trkpt lat="42.14378424618881" lon="14.01563282790716"><ele>703.0</ele><time>2026-04-04T12:40:48.001Z</time></trkpt><trkpt lat="42.14375638240109" lon="14.015812796954735"><ele>704.0</ele><time>2026-04-04T12:40:49.001Z</time></trkpt><trkpt lat="42.14373496441688" lon="14.015993549340136"><ele>705.0</ele><time>2026-04-04T12:40:50.001Z</time></trkpt><trkpt lat="42.14371301402075" lon="14.01619816537878"><ele>706.0</ele><time>2026-04-04T12:40:51.001Z</time></trkpt><trkpt lat="42.143686369159774" lon="14.016390231612531"><ele>707.0</ele><time>2026-04-04T12:40:52.001Z</time></trkpt><trkpt lat="42.14366932105456" lon="14.016570446722811"><ele>708.0</ele><time>2026-04-04T12:40:53.001Z</time></trkpt><trkpt lat="42.14366028362409" lon="14.016764177118606"><ele>709.0</ele><time>2026-04-04T12:40:54.001Z</time></trkpt><trkpt lat="42.14365494773844" lon="14.016938224496302"><ele>710.0</ele><time>2026-04-04T12:40:55.001Z</time></trkpt><trkpt lat="42.14364668577021" lon="14.017089247007489"><ele>711.0</ele><time>2026-04-04T12:40:56.001Z</time></trkpt><trkpt lat="42.14363607077566" lon="14.017224229111774"><ele>711.0</ele><time>2026-04-04T12:40:57.001Z</time></trkpt><trkpt lat="42.14363272953974" lon="14.017350007860781"><ele>711.0</ele><time>2026-04-04T12:40:58.001Z</time></trkpt><trkpt lat="42.143647781143514" lon="14.017475123728655"><ele>711.0</ele><time>2026-04-04T12:40:59.001Z</time></trkpt><trkpt lat="42.1436843057319" lon="14.01758198336495"><ele>711.0</ele><time>2026-04-04T12:41:00.001Z</time></trkpt><trkpt lat="42.143737253190096" lon="14.017658237114265"><ele>711.0</ele><time>2026-04-04T12:41:01.001Z</time></trkpt><trkpt lat="42.14381628207936" lon="14.017703311313747"><ele>711.0</ele><time>2026-04-04T12:41:02.001Z</time></trkpt><trkpt lat="42.14390896586593" lon="14.017705033545772"><ele>712.0</ele><time>2026-04-04T12:41:03.001Z</time></trkpt><trkpt lat="42.1440078429345" lon="14.017669007355972"><ele>713.0</ele><time>2026-04-04T12:41:04.001Z</time></trkpt><trkpt lat="42.14411068279987" lon="14.017612909290582"><ele>714.0</ele><time>2026-04-04T12:41:05.001Z</time></trkpt><trkpt lat="42.14421440598759" lon="14.017550912804316"><ele>715.0</ele><time>2026-04-04T12:41:06.001Z</time></trkpt><trkpt lat="42.14432515534013" lon="14.017493922988882"><ele>716.0</ele><time>2026-04-04T12:41:07.001Z</time></trkpt><trkpt lat="42.144441594618456" lon="14.017428770946552"><ele>718.4</ele><time>2026-04-04T12:41:08.001Z</time></trkpt><trkpt lat="42.14453818144374" lon="14.017373090491349"><ele>720.8</ele><time>2026-04-04T12:41:09.001Z</time></trkpt><trkpt lat="42.14461884677872" lon="14.017311822067246"><ele>723.1999999999999</ele><time>2026-04-04T12:41:10.001Z</time></trkpt><trkpt lat="42.14468982949218" lon="14.017241538755874"><ele>725.5999999999999</ele><time>2026-04-04T12:41:11.001Z</time></trkpt><trkpt lat="42.14474873610982" lon="14.01715054722022"><ele>728.0</ele><time>2026-04-04T12:41:12.001Z</time></trkpt><trkpt lat="42.14477212356666" lon="14.017041273667122"><ele>728.0</ele><time>2026-04-04T12:41:13.001Z</time></trkpt><trkpt lat="42.144757386602166" lon="14.016929168725335"><ele>728.0</ele><time>2026-04-04T12:41:14.001Z</time></trkpt><trkpt lat="42.14473359397578" lon="14.016800635524763"><ele>728.0</ele><time>2026-04-04T12:41:15.001Z</time></trkpt><trkpt lat="42.144695633148366" lon="14.016672216129347"><ele>728.0</ele><time>2026-04-04T12:41:16.001Z</time></trkpt><trkpt lat="42.14464806541884" lon="14.016543627388602"><ele>728.0</ele><time>2026-04-04T12:41:17.001Z</time></trkpt><trkpt lat="42.14460946049261" lon="14.016422729496707"><ele>727.5</ele><time>2026-04-04T12:41:18.001Z</time></trkpt><trkpt lat="42.14459473297252" lon="14.016295704542236"><ele>727.0</ele><time>2026-04-04T12:41:19.001Z</time></trkpt><trkpt lat="42.14459031577663" lon="14.016170827636326"><ele>726.5</ele><time>2026-04-04T12:41:20.001Z</time></trkpt><trkpt lat="42.14461534120059" lon="14.01606933711906"><ele>726.0</ele><time>2026-04-04T12:41:21.001Z</time></trkpt><trkpt lat="42.144659108706364" lon="14.015987102883187"><ele>725.5</ele><time>2026-04-04T12:41:22.001Z</time></trkpt><trkpt lat="42.14472389584088" lon="14.015925535260614"><ele>725.0</ele><time>2026-04-04T12:41:23.001Z</time></trkpt><trkpt lat="42.14481692903897" lon="14.015876943870962"><ele>727.25</ele><time>2026-04-04T12:41:24.001Z</time></trkpt><trkpt lat="42.14491313318354" lon="14.015827752241862"><ele>729.5</ele><time>2026-04-04T12:41:25.001Z</time></trkpt><trkpt lat="42.14502469850126" lon="14.015761620903978"><ele>731.75</ele><time>2026-04-04T12:41:26.001Z</time></trkpt><trkpt lat="42.145124358543" lon="14.015682933511338"><ele>734.0</ele><time>2026-04-04T12:41:27.001Z</time></trkpt><trkpt lat="42.145212914591035" lon="14.01558963639725"><ele>734.0</ele><time>2026-04-04T12:41:28.001Z</time></trkpt><trkpt lat="42.14530348433058" lon="14.015474965584357"><ele>734.0</ele><time>2026-04-04T12:41:29.001Z</time></trkpt><trkpt lat="42.145383951012285" lon="14.015342710923434"><ele>734.0</ele><time>2026-04-04T12:41:30.001Z</time></trkpt><trkpt lat="42.1454699851953" lon="14.015207977165826"><ele>734.0</ele><time>2026-04-04T12:41:31.001Z</time></trkpt><trkpt lat="42.145568618453" lon="14.015095430721072"><ele>734.0</ele><time>2026-04-04T12:41:32.001Z</time></trkpt><trkpt lat="42.145665348288176" lon="14.015004083636951"><ele>734.0</ele><time>2026-04-04T12:41:33.001Z</time></trkpt><trkpt lat="42.145757528725206" lon="14.014907126233863"><ele>734.0</ele><time>2026-04-04T12:41:34.001Z</time></trkpt><trkpt lat="42.14584518493637" lon="14.014800960939208"><ele>734.0</ele><time>2026-04-04T12:41:35.001Z</time></trkpt><trkpt lat="42.14593578597642" lon="14.014697935084484"><ele>733.6666666666666</ele><time>2026-04-04T12:41:36.001Z</time></trkpt><trkpt lat="42.146021834027195" lon="14.0146105565595"><ele>733.3333333333333</ele><time>2026-04-04T12:41:37.001Z</time></trkpt><trkpt lat="42.1461033088998" lon="14.014531679874406"><ele>733.0</ele><time>2026-04-04T12:41:38.001Z</time></trkpt><trkpt lat="42.146179582173126" lon="14.014458194176726"><ele>732.6666666666666</ele><time>2026-04-04T12:41:39Z</time></trkpt><trkpt lat="42.14624946324535" lon="14.014407895593783"><ele>732.3333333333334</ele><time>2026-04-04T12:41:40Z</time></trkpt><trkpt lat="42.14631302543268" lon="14.014403803372"><ele>732.0</ele><time>2026-04-04T12:41:41Z</time></trkpt><trkpt lat="42.14637796922459" lon="14.014525921036359"><ele>732.0</ele><time>2026-04-04T12:41:43Z</time></trkpt><trkpt lat="42.1463243557349" lon="14.014669559283648"><ele>732.0</ele><time>2026-04-04T12:41:45Z</time></trkpt><trkpt lat="42.14626934566526" lon="14.01473545162605"><ele>732.0</ele><time>2026-04-04T12:41:46Z</time></trkpt><trkpt lat="42.146187637999354" lon="14.014816727193548"><ele>732.0</ele><time>2026-04-04T12:41:47Z</time></trkpt><trkpt lat="42.14610508814879" lon="14.01490230075112"><ele>732.0</ele><time>2026-04-04T12:41:48Z</time></trkpt><trkpt lat="42.14604733940906" lon="14.014979985679394"><ele>735.6</ele><time>2026-04-04T12:41:49Z</time></trkpt><trkpt lat="42.14601567726817" lon="14.01506520890664"><ele>739.2</ele><time>2026-04-04T12:41:50Z</time></trkpt><trkpt lat="42.14600689148495" lon="14.015171828539822"><ele>742.8</ele><time>2026-04-04T12:41:51Z</time></trkpt><trkpt lat="42.146011194034635" lon="14.015298366440176"><ele>746.4</ele><time>2026-04-04T12:41:52Z</time></trkpt><trkpt lat="42.146049345225315" lon="14.0154373570479"><ele>750.0</ele><time>2026-04-04T12:41:53Z</time></trkpt><trkpt lat="42.1460900341657" lon="14.015596522109606"><ele>750.0</ele><time>2026-04-04T12:41:54Z</time></trkpt><trkpt lat="42.146114694615946" lon="14.015774860835105"><ele>750.0</ele><time>2026-04-04T12:41:55Z</time></trkpt><trkpt lat="42.14611588651512" lon="14.015950721099443"><ele>750.0</ele><time>2026-04-04T12:41:56Z</time></trkpt><trkpt lat="42.14610045856463" lon="14.016142950298287"><ele>750.0</ele><time>2026-04-04T12:41:57Z</time></trkpt><trkpt lat="42.1460690729278" lon="14.016341659740766"><ele>752.25</ele><time>2026-04-04T12:41:58Z</time></trkpt><trkpt lat="42.1460342548273" lon="14.016553469488851"><ele>754.5</ele><time>2026-04-04T12:41:59Z</time></trkpt><trkpt lat="42.145999483299214" lon="14.016755668092983"><ele>756.75</ele><time>2026-04-04T12:42:00Z</time></trkpt><trkpt lat="42.14597976423036" lon="14.016932523512986"><ele>759.0</ele><time>2026-04-04T12:42:01Z</time></trkpt><trkpt lat="42.145949872171876" lon="14.017093551420425"><ele>760.6666666666666</ele><time>2026-04-04T12:42:02Z</time></trkpt><trkpt lat="42.14592492212903" lon="14.017237890009172"><ele>762.3333333333333</ele><time>2026-04-04T12:42:03Z</time></trkpt><trkpt lat="42.145909043790795" lon="14.017370782955629"><ele>764.0</ele><time>2026-04-04T12:42:04Z</time></trkpt><trkpt lat="42.14591095649847" lon="14.01747870810236"><ele>765.6666666666666</ele><time>2026-04-04T12:42:05Z</time></trkpt><trkpt lat="42.145929604049655" lon="14.017577578342001"><ele>767.3333333333333</ele><time>2026-04-04T12:42:06Z</time></trkpt><trkpt lat="42.14597870399806" lon="14.017659624218064"><ele>769.0</ele><time>2026-04-04T12:42:07Z</time></trkpt><trkpt lat="42.146045354847985" lon="14.017724443448452"><ele>768.9999999999999</ele><time>2026-04-04T12:42:08Z</time></trkpt><trkpt lat="42.14613340800513" lon="14.017767157217266"><ele>769.0</ele><time>2026-04-04T12:42:09Z</time></trkpt><trkpt lat="42.14621061554601" lon="14.017767654809976"><ele>769.0</ele><time>2026-04-04T12:42:10Z</time></trkpt><trkpt lat="42.14627685423356" lon="14.017724682349014"><ele>769.0</ele><time>2026-04-04T12:42:11Z</time></trkpt><trkpt lat="42.14632530942708" lon="14.017637214449948"><ele>768.9999999999999</ele><time>2026-04-04T12:42:12Z</time></trkpt><trkpt lat="42.14635048302522" lon="14.017507025162148"><ele>769.0</ele><time>2026-04-04T12:42:13Z</time></trkpt><trkpt lat="42.146344414601145" lon="14.017361173478022"><ele>769.0</ele><time>2026-04-04T12:42:14Z</time></trkpt><trkpt lat="42.14633593532019" lon="14.01719240711344"><ele>769.0</ele><time>2026-04-04T12:42:15Z</time></trkpt><trkpt lat="42.146342800691315" lon="14.017013601639938"><ele>769.0</ele><time>2026-04-04T12:42:16Z</time></trkpt><trkpt lat="42.14636207787123" lon="14.016840681930596"><ele>769.0</ele><time>2026-04-04T12:42:17Z</time></trkpt><trkpt lat="42.14638749900914" lon="14.016672155514689"><ele>765.6666666666666</ele><time>2026-04-04T12:42:18Z</time></trkpt><trkpt lat="42.14645256933485" lon="14.016491085779236"><ele>762.3333333333333</ele><time>2026-04-04T12:42:19Z</time></trkpt><trkpt lat="42.14653263455948" lon="14.01629912322494"><ele>759.0</ele><time>2026-04-04T12:42:20Z</time></trkpt><trkpt lat="42.14661120890751" lon="14.016103253805927"><ele>762.3333333333333</ele><time>2026-04-04T12:42:21Z</time></trkpt><trkpt lat="42.14668942508595" lon="14.015914179923753"><ele>765.6666666666666</ele><time>2026-04-04T12:42:22Z</time></trkpt><trkpt lat="42.146769109359354" lon="14.015739237385386"><ele>769.0</ele><time>2026-04-04T12:42:23Z</time></trkpt><trkpt lat="42.14685727650598" lon="14.015561474983146"><ele>769.0</ele><time>2026-04-04T12:42:24Z</time></trkpt><trkpt lat="42.14693916334383" lon="14.01539800355734"><ele>769.0</ele><time>2026-04-04T12:42:25Z</time></trkpt><trkpt lat="42.14701244593526" lon="14.01525377604209"><ele>769.0</ele><time>2026-04-04T12:42:26Z</time></trkpt><trkpt lat="42.147077491710824" lon="14.015124864031685"><ele>769.0</ele><time>2026-04-04T12:42:27Z</time></trkpt><trkpt lat="42.14713468886204" lon="14.015015986912914"><ele>767.3333333333333</ele><time>2026-04-04T12:42:28Z</time></trkpt><trkpt lat="42.14718948243764" lon="14.014942770553603"><ele>765.6666666666666</ele><time>2026-04-04T12:42:29Z</time></trkpt><trkpt lat="42.14725528820202" lon="14.014925704769732"><ele>764.0</ele><time>2026-04-04T12:42:30Z</time></trkpt><trkpt lat="42.14732538972985" lon="14.01496433682312"><ele>762.3333333333333</ele><time>2026-04-04T12:42:31Z</time></trkpt><trkpt lat="42.14738395932443" lon="14.01504711685972"><ele>760.6666666666666</ele><time>2026-04-04T12:42:32Z</time></trkpt><trkpt lat="42.147435616748446" lon="14.015172916454219"><ele>759.0</ele><time>2026-04-04T12:42:33Z</time></trkpt><trkpt lat="42.14747498423947" lon="14.015335611057065"><ele>769.0</ele><time>2026-04-04T12:42:34Z</time></trkpt><trkpt lat="42.14751827491649" lon="14.015511736945307"><ele>779.0</ele><time>2026-04-04T12:42:35Z</time></trkpt><trkpt lat="42.14756943580577" lon="14.015695404193654"><ele>789.0</ele><time>2026-04-04T12:42:36Z</time></trkpt><trkpt lat="42.14762257685689" lon="14.015865806455723"><ele>799.0</ele><time>2026-04-04T12:42:37Z</time></trkpt><trkpt lat="42.14767027198194" lon="14.016008876454835"><ele>799.6</ele><time>2026-04-04T12:42:38Z</time></trkpt><trkpt lat="42.14771871159928" lon="14.016125976675005"><ele>800.2</ele><time>2026-04-04T12:42:39Z</time></trkpt><trkpt lat="42.147782732115644" lon="14.016234369427428"><ele>800.8000000000001</ele><time>2026-04-04T12:42:40Z</time></trkpt><trkpt lat="42.1478758907771" lon="14.016312653954625"><ele>801.4000000000001</ele><time>2026-04-04T12:42:41Z</time></trkpt><trkpt lat="42.147965843058834" lon="14.016375092902246"><ele>802.0</ele><time>2026-04-04T12:42:42Z</time></trkpt><trkpt lat="42.14804517045468" lon="14.016428137479613"><ele>801.9999999999999</ele><time>2026-04-04T12:42:43Z</time></trkpt><trkpt lat="42.14811893254652" lon="14.016460947933629"><ele>802.0</ele><time>2026-04-04T12:42:44Z</time></trkpt><trkpt lat="42.148190402051696" lon="14.016475321831905"><ele>802.0</ele><time>2026-04-04T12:42:45Z</time></trkpt><trkpt lat="42.148265635087334" lon="14.016481083054103"><ele>802.0</ele><time>2026-04-04T12:42:46Z</time></trkpt><trkpt lat="42.148340485887736" lon="14.016488397820755"><ele>801.9999999999999</ele><time>2026-04-04T12:42:47Z</time></trkpt><trkpt lat="42.14840260892004" lon="14.016502340185589"><ele>802.0</ele><time>2026-04-04T12:42:48.001Z</time></trkpt><trkpt lat="42.148489097736274" lon="14.01652236192169"><ele>803.1428571428571</ele><time>2026-04-04T12:42:51.001Z</time></trkpt><trkpt lat="42.14855508928845" lon="14.016529809263057"><ele>804.2857142857143</ele><time>2026-04-04T12:42:55.001Z</time></trkpt><trkpt lat="42.14863013429515" lon="14.016540880395377"><ele>805.4285714285713</ele><time>2026-04-04T12:43:08.001Z</time></trkpt><trkpt lat="42.14869755588718" lon="14.01653742631958"><ele>806.5714285714286</ele><time>2026-04-04T12:43:10.001Z</time></trkpt><trkpt lat="42.148761693776194" lon="14.01650681646785"><ele>807.7142857142857</ele><time>2026-04-04T12:43:13.001Z</time></trkpt><trkpt lat="42.14882923313567" lon="14.016497619950263"><ele>808.8571428571428</ele><time>2026-04-04T12:43:17Z</time></trkpt><trkpt lat="42.14891982286194" lon="14.016498557291289"><ele>810.0</ele><time>2026-04-04T12:43:20Z</time></trkpt><trkpt lat="42.14900153293894" lon="14.016509048226313"><ele>810.0</ele><time>2026-04-04T12:43:23Z</time></trkpt><trkpt lat="42.1489229251161" lon="14.016504300344119"><ele>810.0</ele><time>2026-04-04T12:44:52Z</time></trkpt><trkpt lat="42.148813082718895" lon="14.01651801917874"><ele>810.0</ele><time>2026-04-04T12:44:54.001Z</time></trkpt><trkpt lat="42.148698267191484" lon="14.016534617241243"><ele>810.0</ele><time>2026-04-04T12:44:56.001Z</time></trkpt><trkpt lat="42.14861379434784" lon="14.0165336776135"><ele>810.0</ele><time>2026-04-04T12:44:58.001Z</time></trkpt><trkpt lat="42.14852600698733" lon="14.01652555073707"><ele>810.0</ele><time>2026-04-04T12:45:00.001Z</time></trkpt><trkpt lat="42.148441144412736" lon="14.016516665295061"><ele>810.0</ele><time>2026-04-04T12:45:01.001Z</time></trkpt><trkpt lat="42.148352619892286" lon="14.016500801416079"><ele>810.0</ele><time>2026-04-04T12:45:02.001Z</time></trkpt><trkpt lat="42.14827588902904" lon="14.016490064438411"><ele>810.0</ele><time>2026-04-04T12:45:03.001Z</time></trkpt><trkpt lat="42.14820889576077" lon="14.016478281928494"><ele>810.0</ele><time>2026-04-04T12:45:04.001Z</time></trkpt><trkpt lat="42.148087535720194" lon="14.016440903996749"><ele>810.0</ele><time>2026-04-04T12:45:06.001Z</time></trkpt><trkpt lat="42.14798182879213" lon="14.0163724704896"><ele>808.6666666666666</ele><time>2026-04-04T12:45:08.001Z</time></trkpt><trkpt lat="42.14787935650152" lon="14.016291588496902"><ele>807.3333333333333</ele><time>2026-04-04T12:45:10.001Z</time></trkpt><trkpt lat="42.14778170310052" lon="14.01619700834268"><ele>806.0</ele><time>2026-04-04T12:45:12.001Z</time></trkpt><trkpt lat="42.147736988801356" lon="14.016134745994947"><ele>804.6666666666666</ele><time>2026-04-04T12:45:13.001Z</time></trkpt><trkpt lat="42.14770155042843" lon="14.016058587816925"><ele>803.3333333333333</ele><time>2026-04-04T12:45:14Z</time></trkpt><trkpt lat="42.14767352635984" lon="14.015974328012494"><ele>802.0</ele><time>2026-04-04T12:45:15Z</time></trkpt><trkpt lat="42.147646632009824" lon="14.015887661113851"><ele>801.4000000000001</ele><time>2026-04-04T12:45:16Z</time></trkpt><trkpt lat="42.14762206966275" lon="14.015798060359588"><ele>800.8000000000001</ele><time>2026-04-04T12:45:18Z</time></trkpt><trkpt lat="42.147563706638735" lon="14.015628382404865"><ele>800.2</ele><time>2026-04-04T12:45:30Z</time></trkpt><trkpt lat="42.14752670455837" lon="14.015509320554603"><ele>799.6</ele><time>2026-04-04T12:45:31Z</time></trkpt><trkpt lat="42.14747766219571" lon="14.015359466961455"><ele>799.0</ele><time>2026-04-04T12:45:32Z</time></trkpt><trkpt lat="42.14743502431672" lon="14.01522453803922"><ele>799.0</ele><time>2026-04-04T12:45:33Z</time></trkpt><trkpt lat="42.14738485179257" lon="14.015076315671616"><ele>799.0</ele><time>2026-04-04T12:45:34Z</time></trkpt><trkpt lat="42.1473268497317" lon="14.014948409602738"><ele>799.0</ele><time>2026-04-04T12:45:36Z</time></trkpt><trkpt lat="42.14721757331159" lon="14.014916240007308"><ele>799.0</ele><time>2026-04-04T12:45:38Z</time></trkpt><trkpt lat="42.147158781281405" lon="14.01495715845985"><ele>799.0</ele><time>2026-04-04T12:45:39Z</time></trkpt><trkpt lat="42.14709651801116" lon="14.01504688276575"><ele>791.5</ele><time>2026-04-04T12:45:40Z</time></trkpt><trkpt lat="42.14704310759764" lon="14.015174678124687"><ele>784.0</ele><time>2026-04-04T12:45:41Z</time></trkpt><trkpt lat="42.14697861114907" lon="14.015333567901502"><ele>776.5</ele><time>2026-04-04T12:45:42Z</time></trkpt><trkpt lat="42.14690834674094" lon="14.015486211894812"><ele>769.0</ele><time>2026-04-04T12:45:43Z</time></trkpt><trkpt lat="42.146828140941714" lon="14.015639533031663"><ele>769.0</ele><time>2026-04-04T12:45:44Z</time></trkpt><trkpt lat="42.146742878099985" lon="14.015805349100583"><ele>769.0</ele><time>2026-04-04T12:45:45Z</time></trkpt><trkpt lat="42.146667154848245" lon="14.015960189255182"><ele>769.0</ele><time>2026-04-04T12:45:46Z</time></trkpt><trkpt lat="42.14659629162049" lon="14.016118777802841"><ele>769.0</ele><time>2026-04-04T12:45:47Z</time></trkpt><trkpt lat="42.146524826210616" lon="14.016279076743139"><ele>769.0</ele><time>2026-04-04T12:45:48Z</time></trkpt><trkpt lat="42.14645924931822" lon="14.016436332236704"><ele>769.0</ele><time>2026-04-04T12:45:49Z</time></trkpt><trkpt lat="42.14640454727382" lon="14.016588444380094"><ele>769.0</ele><time>2026-04-04T12:45:50Z</time></trkpt><trkpt lat="42.14635962217054" lon="14.01673122351684"><ele>769.0</ele><time>2026-04-04T12:45:51Z</time></trkpt><trkpt lat="42.14632970072838" lon="14.016885722466801"><ele>769.0</ele><time>2026-04-04T12:45:52Z</time></trkpt><trkpt lat="42.146319419509084" lon="14.017071820889289"><ele>769.0</ele><time>2026-04-04T12:45:53Z</time></trkpt><trkpt lat="42.14632169471754" lon="14.01726660774708"><ele>769.0</ele><time>2026-04-04T12:45:54Z</time></trkpt><trkpt lat="42.146319917613496" lon="14.017422986340273"><ele>769.0</ele><time>2026-04-04T12:45:55Z</time></trkpt><trkpt lat="42.146318292262805" lon="14.017541505428413"><ele>770.2</ele><time>2026-04-04T12:45:56Z</time></trkpt><trkpt lat="42.146308423285454" lon="14.017648917837601"><ele>771.4000000000001</ele><time>2026-04-04T12:45:57Z</time></trkpt><trkpt lat="42.1462810022383" lon="14.017734780659717"><ele>772.6</ele><time>2026-04-04T12:45:58Z</time></trkpt><trkpt lat="42.14616050874575" lon="14.01777722409898"><ele>773.8</ele><time>2026-04-04T12:46:00Z</time></trkpt><trkpt lat="42.14607422577013" lon="14.017745276860358"><ele>775.0</ele><time>2026-04-04T12:46:01Z</time></trkpt><trkpt lat="42.14598974555616" lon="14.017667916221765"><ele>775.0</ele><time>2026-04-04T12:46:02Z</time></trkpt><trkpt lat="42.145932429398634" lon="14.017567607639855"><ele>775.0</ele><time>2026-04-04T12:46:03Z</time></trkpt><trkpt lat="42.14590762652717" lon="14.017441640964563"><ele>775.0</ele><time>2026-04-04T12:46:04Z</time></trkpt><trkpt lat="42.14591240262277" lon="14.017299860301902"><ele>775.0</ele><time>2026-04-04T12:46:05Z</time></trkpt><trkpt lat="42.14593713886777" lon="14.017129983183768"><ele>775.0</ele><time>2026-04-04T12:46:06Z</time></trkpt><trkpt lat="42.14596293431786" lon="14.016942290997319"><ele>773.5</ele><time>2026-04-04T12:46:07Z</time></trkpt><trkpt lat="42.14599104348709" lon="14.01677733722716"><ele>772.0</ele><time>2026-04-04T12:46:08Z</time></trkpt><trkpt lat="42.146026021000154" lon="14.016616866481924"><ele>770.5</ele><time>2026-04-04T12:46:09Z</time></trkpt><trkpt lat="42.14605399547216" lon="14.016456340196422"><ele>769.0</ele><time>2026-04-04T12:46:10Z</time></trkpt><trkpt lat="42.14607461508779" lon="14.016286155438793"><ele>766.5</ele><time>2026-04-04T12:46:11Z</time></trkpt><trkpt lat="42.14610241668749" lon="14.016125458744376"><ele>764.0</ele><time>2026-04-04T12:46:12Z</time></trkpt><trkpt lat="42.14612698576223" lon="14.01596641933039"><ele>761.5</ele><time>2026-04-04T12:46:13Z</time></trkpt><trkpt lat="42.14612971872391" lon="14.015800929095253"><ele>759.0</ele><time>2026-04-04T12:46:14Z</time></trkpt><trkpt lat="42.1461155400191" lon="14.015632236191594"><ele>757.2</ele><time>2026-04-04T12:46:15Z</time></trkpt><trkpt lat="42.146082082017124" lon="14.015462882468968"><ele>755.4000000000001</ele><time>2026-04-04T12:46:16Z</time></trkpt><trkpt lat="42.14604723527648" lon="14.015303132274585"><ele>753.6</ele><time>2026-04-04T12:46:17Z</time></trkpt><trkpt lat="42.146023529822436" lon="14.015177345991093"><ele>751.8</ele><time>2026-04-04T12:46:18Z</time></trkpt><trkpt lat="42.146016294532224" lon="14.015084911760825"><ele>750.0</ele><time>2026-04-04T12:46:19Z</time></trkpt><trkpt lat="42.14602624931475" lon="14.01499792185221"><ele>746.4</ele><time>2026-04-04T12:46:20Z</time></trkpt><trkpt lat="42.14607117473918" lon="14.014922724971191"><ele>742.8</ele><time>2026-04-04T12:46:21Z</time></trkpt><trkpt lat="42.1461499893612" lon="14.014844352575025"><ele>739.2</ele><time>2026-04-04T12:46:22Z</time></trkpt><trkpt lat="42.14623830332836" lon="14.014760539206678"><ele>735.6</ele><time>2026-04-04T12:46:23Z</time></trkpt><trkpt lat="42.146321487250596" lon="14.014678609825689"><ele>732.0</ele><time>2026-04-04T12:46:24Z</time></trkpt><trkpt lat="42.14638207926614" lon="14.014603158510315"><ele>732.0</ele><time>2026-04-04T12:46:25Z</time></trkpt><trkpt lat="42.146395159780894" lon="14.014449852057558"><ele>732.0</ele><time>2026-04-04T12:46:27Z</time></trkpt><trkpt lat="42.146300934152436" lon="14.014369092934459"><ele>732.0</ele><time>2026-04-04T12:46:29Z</time></trkpt><trkpt lat="42.1462392972721" lon="14.014396183824323"><ele>732.0</ele><time>2026-04-04T12:46:30Z</time></trkpt><trkpt lat="42.14616896087299" lon="14.014455053363431"><ele>732.0</ele><time>2026-04-04T12:46:31Z</time></trkpt><trkpt lat="42.14610576119992" lon="14.014525354845823"><ele>732.0</ele><time>2026-04-04T12:46:32Z</time></trkpt><trkpt lat="42.146036644875714" lon="14.014600149770532"><ele>732.0</ele><time>2026-04-04T12:46:33Z</time></trkpt><trkpt lat="42.145953037483395" lon="14.014697188148217"><ele>732.0</ele><time>2026-04-04T12:46:34Z</time></trkpt><trkpt lat="42.14586138506434" lon="14.014801409851366"><ele>732.0</ele><time>2026-04-04T12:46:35Z</time></trkpt><trkpt lat="42.145778315045646" lon="14.014901326945939"><ele>732.0</ele><time>2026-04-04T12:46:36Z</time></trkpt><trkpt lat="42.1456970134196" lon="14.015002789231376"><ele>732.4000000000001</ele><time>2026-04-04T12:46:37Z</time></trkpt><trkpt lat="42.145608023535125" lon="14.015093160141811"><ele>732.8000000000001</ele><time>2026-04-04T12:46:38Z</time></trkpt><trkpt lat="42.14552089184831" lon="14.015188629714896"><ele>733.2</ele><time>2026-04-04T12:46:39Z</time></trkpt><trkpt lat="42.14543535399493" lon="14.015288722362685"><ele>733.6</ele><time>2026-04-04T12:46:40Z</time></trkpt><trkpt lat="42.14535362005549" lon="14.015392694215539"><ele>734.0</ele><time>2026-04-04T12:46:41Z</time></trkpt><trkpt lat="42.14527892918569" lon="14.015507987712832"><ele>734.0</ele><time>2026-04-04T12:46:42Z</time></trkpt><trkpt lat="42.14519733049768" lon="14.01561720170424"><ele>734.0</ele><time>2026-04-04T12:46:43Z</time></trkpt><trkpt lat="42.14510482541279" lon="14.015705407840278"><ele>734.0</ele><time>2026-04-04T12:46:44Z</time></trkpt><trkpt lat="42.145005165627325" lon="14.01577863633181"><ele>734.0</ele><time>2026-04-04T12:46:45Z</time></trkpt><trkpt lat="42.1448948175943" lon="14.01584169465507"><ele>732.5</ele><time>2026-04-04T12:46:46Z</time></trkpt><trkpt lat="42.144807889132515" lon="14.015901653520675"><ele>731.0</ele><time>2026-04-04T12:46:47Z</time></trkpt><trkpt lat="42.14473206237207" lon="14.015940803713097"><ele>729.5</ele><time>2026-04-04T12:46:48Z</time></trkpt><trkpt lat="42.14467283112802" lon="14.015969722448451"><ele>728.0</ele><time>2026-04-04T12:46:49Z</time></trkpt><trkpt lat="42.14459111317161" lon="14.01609127827135"><ele>726.5</ele><time>2026-04-04T12:46:51Z</time></trkpt><trkpt lat="42.144573528182946" lon="14.01620323683406"><ele>725.0</ele><time>2026-04-04T12:46:52Z</time></trkpt><trkpt lat="42.144576412603115" lon="14.016339306304646"><ele>725.0</ele><time>2026-04-04T12:46:53Z</time></trkpt><trkpt lat="42.14460847415123" lon="14.016491259011351"><ele>725.0</ele><time>2026-04-04T12:46:54Z</time></trkpt><trkpt lat="42.14465332026557" lon="14.016630970864888"><ele>725.0</ele><time>2026-04-04T12:46:55Z</time></trkpt><trkpt lat="42.14469396993181" lon="14.01675170406999"><ele>725.0</ele><time>2026-04-04T12:46:56Z</time></trkpt><trkpt lat="42.14472258709276" lon="14.016843832861372"><ele>725.0</ele><time>2026-04-04T12:46:57Z</time></trkpt><trkpt lat="42.14474676733589" lon="14.01698919327088"><ele>725.6</ele><time>2026-04-04T12:46:59Z</time></trkpt><trkpt lat="42.144742583148364" lon="14.017149581864238"><ele>726.2</ele><time>2026-04-04T12:47:01Z</time></trkpt><trkpt lat="42.14470882855989" lon="14.01723392490613"><ele>726.8</ele><time>2026-04-04T12:47:02Z</time></trkpt><trkpt lat="42.144626465237515" lon="14.017308765012581"><ele>727.4</ele><time>2026-04-04T12:47:03Z</time></trkpt><trkpt lat="42.14454041613483" lon="14.017370763213632"><ele>728.0</ele><time>2026-04-04T12:47:04Z</time></trkpt><trkpt lat="42.144444351956636" lon="14.017420064653152"><ele>728.0</ele><time>2026-04-04T12:47:05Z</time></trkpt><trkpt lat="42.144344379576495" lon="14.01746778614981"><ele>728.0</ele><time>2026-04-04T12:47:06Z</time></trkpt><trkpt lat="42.14424319878542" lon="14.017520015088364"><ele>728.0</ele><time>2026-04-04T12:47:07Z</time></trkpt><trkpt lat="42.144147140363096" lon="14.017578321056979"><ele>728.0</ele><time>2026-04-04T12:47:08Z</time></trkpt><trkpt lat="42.144047285524984" lon="14.017630558545784"><ele>728.0</ele><time>2026-04-04T12:47:09Z</time></trkpt><trkpt lat="42.14395101581279" lon="14.017661521680413"><ele>726.0</ele><time>2026-04-04T12:47:10Z</time></trkpt><trkpt lat="42.14386969510379" lon="14.017676808524154"><ele>724.0</ele><time>2026-04-04T12:47:11Z</time></trkpt><trkpt lat="42.14379217474706" lon="14.017671276317767"><ele>722.0</ele><time>2026-04-04T12:47:12Z</time></trkpt><trkpt lat="42.14372228376581" lon="14.017624747549268"><ele>720.0</ele><time>2026-04-04T12:47:13Z</time></trkpt><trkpt lat="42.14367901182947" lon="14.01754087340113"><ele>718.0</ele><time>2026-04-04T12:47:14Z</time></trkpt><trkpt lat="42.14365569280895" lon="14.017421400095733"><ele>716.0</ele><time>2026-04-04T12:47:15Z</time></trkpt><trkpt lat="42.1436429709491" lon="14.017246986165198"><ele>714.3333333333333</ele><time>2026-04-04T12:47:16Z</time></trkpt><trkpt lat="42.143651225299145" lon="14.017048779965773"><ele>712.6666666666666</ele><time>2026-04-04T12:47:17Z</time></trkpt><trkpt lat="42.14367144460534" lon="14.016833584358723"><ele>711.0</ele><time>2026-04-04T12:47:18Z</time></trkpt><trkpt lat="42.14368623180339" lon="14.016585429334178"><ele>709.6666666666666</ele><time>2026-04-04T12:47:19Z</time></trkpt><trkpt lat="42.14370131815626" lon="14.016353558102663"><ele>708.3333333333333</ele><time>2026-04-04T12:47:20Z</time></trkpt><trkpt lat="42.14372616041816" lon="14.016140071156741"><ele>707.0</ele><time>2026-04-04T12:47:21Z</time></trkpt><trkpt lat="42.14375554936742" lon="14.015943343662459"><ele>706.0</ele><time>2026-04-04T12:47:22Z</time></trkpt><trkpt lat="42.143780552063355" lon="14.015765474811458"><ele>705.0</ele><time>2026-04-04T12:47:23Z</time></trkpt><trkpt lat="42.14380379321249" lon="14.015608036701748"><ele>704.0</ele><time>2026-04-04T12:47:24Z</time></trkpt><trkpt lat="42.14383854261884" lon="14.015448637505727"><ele>703.0</ele><time>2026-04-04T12:47:25Z</time></trkpt><trkpt lat="42.14388959702162" lon="14.015290415765804"><ele>703.0</ele><time>2026-04-04T12:47:26Z</time></trkpt><trkpt lat="42.14395082057781" lon="14.015136846547616"><ele>703.0</ele><time>2026-04-04T12:47:27Z</time></trkpt><trkpt lat="42.14401658784735" lon="14.014998602231588"><ele>703.0</ele><time>2026-04-04T12:47:28Z</time></trkpt><trkpt lat="42.14408270016541" lon="14.014880351159157"><ele>703.0</ele><time>2026-04-04T12:47:29Z</time></trkpt><trkpt lat="42.14414959382054" lon="14.014770207808805"><ele>704.5999999999999</ele><time>2026-04-04T12:47:30Z</time></trkpt><trkpt lat="42.1442091014394" lon="14.01469068013696"><ele>706.1999999999999</ele><time>2026-04-04T12:47:31Z</time></trkpt><trkpt lat="42.14425262823099" lon="14.014626675444097"><ele>707.8</ele><time>2026-04-04T12:47:32Z</time></trkpt><trkpt lat="42.144313405828925" lon="14.014548829139326"><ele>709.4</ele><time>2026-04-04T12:47:33Z</time></trkpt><trkpt lat="42.14441533337157" lon="14.014459082655499"><ele>711.0</ele><time>2026-04-04T12:47:34Z</time></trkpt><trkpt lat="42.14452399746053" lon="14.014366792464633"><ele>711.0</ele><time>2026-04-04T12:47:35Z</time></trkpt><trkpt lat="42.14461670301181" lon="14.014284576746444"><ele>711.0</ele><time>2026-04-04T12:47:36Z</time></trkpt><trkpt lat="42.14471854105136" lon="14.014195092670748"><ele>711.0</ele><time>2026-04-04T12:47:37Z</time></trkpt><trkpt lat="42.14483213123801" lon="14.014112963525426"><ele>711.0</ele><time>2026-04-04T12:47:38Z</time></trkpt><trkpt lat="42.144946820060134" lon="14.014041508650713"><ele>710.8</ele><time>2026-04-04T12:47:39Z</time></trkpt><trkpt lat="42.14505133605972" lon="14.013985968882645"><ele>710.5999999999999</ele><time>2026-04-04T12:47:40Z</time></trkpt><trkpt lat="42.14513037437562" lon="14.013938538644403"><ele>710.4</ele><time>2026-04-04T12:47:41Z</time></trkpt><trkpt lat="42.145198994410094" lon="14.013879371478232"><ele>710.2</ele><time>2026-04-04T12:47:42Z</time></trkpt><trkpt lat="42.145258716949215" lon="14.013799507641245"><ele>710.0</ele><time>2026-04-04T12:47:43Z</time></trkpt><trkpt lat="42.14532495090773" lon="14.013694562478875"><ele>710.0</ele><time>2026-04-04T12:47:44Z</time></trkpt><trkpt lat="42.14539838652867" lon="14.01355232938743"><ele>710.0</ele><time>2026-04-04T12:47:45Z</time></trkpt><trkpt lat="42.14546722476702" lon="14.013405347427064"><ele>710.0</ele><time>2026-04-04T12:47:46Z</time></trkpt><trkpt lat="42.14553091862657" lon="14.013269682163294"><ele>710.0</ele><time>2026-04-04T12:47:47Z</time></trkpt><trkpt lat="42.145600031684076" lon="14.013147392615831"><ele>710.0</ele><time>2026-04-04T12:47:48Z</time></trkpt><trkpt lat="42.1456724327878" lon="14.013044550425768"><ele>710.0</ele><time>2026-04-04T12:47:49Z</time></trkpt><trkpt lat="42.145766882292754" lon="14.012943899605991"><ele>710.0</ele><time>2026-04-04T12:47:50Z</time></trkpt><trkpt lat="42.14587209618625" lon="14.012837866724807"><ele>710.0</ele><time>2026-04-04T12:47:51Z</time></trkpt><trkpt lat="42.14598152052869" lon="14.012745736154496"><ele>709.25</ele><time>2026-04-04T12:47:52Z</time></trkpt><trkpt lat="42.14609409442315" lon="14.012666729362012"><ele>708.5</ele><time>2026-04-04T12:47:53Z</time></trkpt><trkpt lat="42.146206324438" lon="14.012576331917716"><ele>707.75</ele><time>2026-04-04T12:47:54Z</time></trkpt><trkpt lat="42.14630521374523" lon="14.012469830803965"><ele>707.0</ele><time>2026-04-04T12:47:55Z</time></trkpt><trkpt lat="42.146404188718435" lon="14.01234934705528"><ele>705.0</ele><time>2026-04-04T12:47:56Z</time></trkpt><trkpt lat="42.14649725514451" lon="14.012215507103269"><ele>703.0</ele><time>2026-04-04T12:47:57Z</time></trkpt><trkpt lat="42.146589303993096" lon="14.012099901155281"><ele>701.0</ele><time>2026-04-04T12:47:58Z</time></trkpt><trkpt lat="42.1466901680931" lon="14.01199272854765"><ele>699.0</ele><time>2026-04-04T12:47:59Z</time></trkpt><trkpt lat="42.146788502923414" lon="14.011872082088786"><ele>696.75</ele><time>2026-04-04T12:47:59.999Z</time></trkpt><trkpt lat="42.14687657865564" lon="14.011728347435545"><ele>694.5</ele><time>2026-04-04T12:48:00.999Z</time></trkpt><trkpt lat="42.146968608714026" lon="14.011566170161993"><ele>692.25</ele><time>2026-04-04T12:48:01.999Z</time></trkpt><trkpt lat="42.14705958093012" lon="14.011407564630915"><ele>690.0</ele><time>2026-04-04T12:48:02.999Z</time></trkpt><trkpt lat="42.14714850981945" lon="14.011242950100073"><ele>688.0</ele><time>2026-04-04T12:48:03.999Z</time></trkpt><trkpt lat="42.1472375599081" lon="14.011076646617168"><ele>686.0</ele><time>2026-04-04T12:48:04.999Z</time></trkpt><trkpt lat="42.147314360402405" lon="14.010907926823062"><ele>684.0</ele><time>2026-04-04T12:48:05.999Z</time></trkpt><trkpt lat="42.14737401113772" lon="14.010757088570596"><ele>682.0</ele><time>2026-04-04T12:48:06.999Z</time></trkpt><trkpt lat="42.14742111815721" lon="14.010601713499335"><ele>682.0</ele><time>2026-04-04T12:48:07.999Z</time></trkpt><trkpt lat="42.1474594236785" lon="14.01045019815639"><ele>682.0</ele><time>2026-04-04T12:48:08.999Z</time></trkpt><trkpt lat="42.14749736358713" lon="14.010302330374872"><ele>682.0</ele><time>2026-04-04T12:48:09.999Z</time></trkpt><trkpt lat="42.147525272622445" lon="14.010161016656841"><ele>682.0</ele><time>2026-04-04T12:48:10.999Z</time></trkpt><trkpt lat="42.147550795875404" lon="14.010037662751177"><ele>682.0</ele><time>2026-04-04T12:48:11.999Z</time></trkpt><trkpt lat="42.14757925169703" lon="14.009916175103095"><ele>679.2</ele><time>2026-04-04T12:48:12.999Z</time></trkpt><trkpt lat="42.14761283637596" lon="14.00979319305199"><ele>676.4000000000001</ele><time>2026-04-04T12:48:13.999Z</time></trkpt><trkpt lat="42.14765252266427" lon="14.00966576422524"><ele>673.5999999999999</ele><time>2026-04-04T12:48:14.999Z</time></trkpt><trkpt lat="42.14770132261536" lon="14.009534447247711"><ele>670.8</ele><time>2026-04-04T12:48:15.999Z</time></trkpt><trkpt lat="42.147764786164196" lon="14.009414231074086"><ele>668.0</ele><time>2026-04-04T12:48:16.999Z</time></trkpt><trkpt lat="42.147857989105475" lon="14.009297661479367"><ele>668.0</ele><time>2026-04-04T12:48:17.999Z</time></trkpt><trkpt lat="42.14796293950863" lon="14.009176329190225"><ele>668.0</ele><time>2026-04-04T12:48:18.999Z</time></trkpt><trkpt lat="42.148068862851886" lon="14.009022168162048"><ele>668.0</ele><time>2026-04-04T12:48:19.999Z</time></trkpt><trkpt lat="42.14817019546241" lon="14.008845670646464"><ele>667.3333333333333</ele><time>2026-04-04T12:48:20.999Z</time></trkpt><trkpt lat="42.148284237599235" lon="14.00864943584593"><ele>666.6666666666666</ele><time>2026-04-04T12:48:21.999Z</time></trkpt><trkpt lat="42.14839035911058" lon="14.008472778410875"><ele>666.0</ele><time>2026-04-04T12:48:22.999Z</time></trkpt><trkpt lat="42.14848904914563" lon="14.008324265837768"><ele>663.75</ele><time>2026-04-04T12:48:23.999Z</time></trkpt><trkpt lat="42.14857826073318" lon="14.008191968910893"><ele>661.5</ele><time>2026-04-04T12:48:24.999Z</time></trkpt><trkpt lat="42.1486656656827" lon="14.008056615793675"><ele>659.25</ele><time>2026-04-04T12:48:25.999Z</time></trkpt><trkpt lat="42.14877021429131" lon="14.007928693568166"><ele>657.0</ele><time>2026-04-04T12:48:26.999Z</time></trkpt><trkpt lat="42.148875876983894" lon="14.00782559164565"><ele>657.0</ele><time>2026-04-04T12:48:27.999Z</time></trkpt><trkpt lat="42.14895894858558" lon="14.007732418690393"><ele>657.0</ele><time>2026-04-04T12:48:28.999Z</time></trkpt><trkpt lat="42.1490317971248" lon="14.007648869121"><ele>657.0</ele><time>2026-04-04T12:48:29.999Z</time></trkpt><trkpt lat="42.14911973098867" lon="14.007567316145737"><ele>657.0</ele><time>2026-04-04T12:48:30.999Z</time></trkpt><trkpt lat="42.149214875546036" lon="14.007495543293603"><ele>657.0</ele><time>2026-04-04T12:48:31.999Z</time></trkpt><trkpt lat="42.14931337890331" lon="14.00743338000245"><ele>656.2</ele><time>2026-04-04T12:48:32.999Z</time></trkpt><trkpt lat="42.14941798484393" lon="14.00738159699785"><ele>655.4000000000001</ele><time>2026-04-04T12:48:33.999Z</time></trkpt><trkpt lat="42.14952665094709" lon="14.007330795507324"><ele>654.5999999999999</ele><time>2026-04-04T12:48:34.999Z</time></trkpt><trkpt lat="42.14961799569987" lon="14.007277561850099"><ele>653.8</ele><time>2026-04-04T12:48:35.999Z</time></trkpt><trkpt lat="42.14969938447859" lon="14.007227526591668"><ele>653.0</ele><time>2026-04-04T12:48:36.999Z</time></trkpt><trkpt lat="42.14976818234765" lon="14.007174054063867"><ele>653.0</ele><time>2026-04-04T12:48:37.999Z</time></trkpt><trkpt lat="42.149833193726835" lon="14.007101979496348"><ele>653.0</ele><time>2026-04-04T12:48:38.999Z</time></trkpt><trkpt lat="42.149893321700205" lon="14.006995835023554"><ele>653.0</ele><time>2026-04-04T12:48:39.999Z</time></trkpt><trkpt lat="42.149939151784544" lon="14.006865146087012"><ele>653.0</ele><time>2026-04-04T12:48:40.999Z</time></trkpt><trkpt lat="42.14997133695708" lon="14.006711553370282"><ele>653.0</ele><time>2026-04-04T12:48:41.999Z</time></trkpt><trkpt lat="42.14998838342029" lon="14.006547114382212"><ele>650.5</ele><time>2026-04-04T12:48:42.999Z</time></trkpt><trkpt lat="42.150005895491574" lon="14.006389856721512"><ele>648.0</ele><time>2026-04-04T12:48:43.999Z</time></trkpt><trkpt lat="42.1500305554739" lon="14.006231394468916"><ele>645.5</ele><time>2026-04-04T12:48:44.999Z</time></trkpt><trkpt lat="42.15006925070083" lon="14.006081467519133"><ele>643.0</ele><time>2026-04-04T12:48:45.999Z</time></trkpt><trkpt lat="42.150109038945835" lon="14.005955815867804"><ele>643.0</ele><time>2026-04-04T12:48:46.999Z</time></trkpt><trkpt lat="42.150150120947416" lon="14.005859104049023"><ele>643.0</ele><time>2026-04-04T12:48:47.999Z</time></trkpt><trkpt lat="42.150197732164024" lon="14.005770387595412"><ele>643.0</ele><time>2026-04-04T12:48:48.999Z</time></trkpt><trkpt lat="42.150258440876115" lon="14.005705760656584"><ele>643.0</ele><time>2026-04-04T12:48:49.999Z</time></trkpt><trkpt lat="42.15033432611222" lon="14.005620588695516"><ele>643.0</ele><time>2026-04-04T12:48:50.999Z</time></trkpt><trkpt lat="42.15042788813664" lon="14.005519430033415"><ele>640.25</ele><time>2026-04-04T12:48:51.999Z</time></trkpt><trkpt lat="42.150540649866635" lon="14.005436966823607"><ele>637.5</ele><time>2026-04-04T12:48:52.999Z</time></trkpt><trkpt lat="42.15066745452402" lon="14.005366871252031"><ele>634.75</ele><time>2026-04-04T12:48:53.999Z</time></trkpt><trkpt lat="42.15079302298181" lon="14.005294516206394"><ele>632.0</ele><time>2026-04-04T12:48:54.999Z</time></trkpt><trkpt lat="42.150918272333584" lon="14.005216507998211"><ele>630.25</ele><time>2026-04-04T12:48:55.999Z</time></trkpt><trkpt lat="42.15104219055751" lon="14.005140534766568"><ele>628.5</ele><time>2026-04-04T12:48:56.999Z</time></trkpt><trkpt lat="42.15115503763087" lon="14.005070022293307"><ele>626.75</ele><time>2026-04-04T12:48:57.999Z</time></trkpt><trkpt lat="42.151258264020434" lon="14.005017098224377"><ele>625.0</ele><time>2026-04-04T12:48:58.999Z</time></trkpt><trkpt lat="42.15135911782137" lon="14.004970360822337"><ele>621.25</ele><time>2026-04-04T12:48:59.999Z</time></trkpt><trkpt lat="42.15146019084678" lon="14.004918675015205"><ele>617.5</ele><time>2026-04-04T12:49:00.999Z</time></trkpt><trkpt lat="42.15157160319088" lon="14.00487106612687"><ele>613.75</ele><time>2026-04-04T12:49:01.999Z</time></trkpt><trkpt lat="42.15168243743196" lon="14.004822521341415"><ele>610.0</ele><time>2026-04-04T12:49:02.999Z</time></trkpt><trkpt lat="42.15180396303221" lon="14.004795466785795"><ele>609.0</ele><time>2026-04-04T12:49:03.999Z</time></trkpt><trkpt lat="42.15191460552139" lon="14.004733504097977"><ele>608.0</ele><time>2026-04-04T12:49:05Z</time></trkpt><trkpt lat="42.151997802970484" lon="14.004650663339364"><ele>607.0</ele><time>2026-04-04T12:49:06Z</time></trkpt><trkpt lat="42.15206793691247" lon="14.004599383102702"><ele>606.0</ele><time>2026-04-04T12:49:07Z</time></trkpt><trkpt lat="42.152151084582904" lon="14.004533361617629"><ele>605.0</ele><time>2026-04-04T12:49:09Z</time></trkpt><trkpt lat="42.15220652518938" lon="14.00448852760191"><ele>605.0</ele><time>2026-04-04T12:49:10Z</time></trkpt><trkpt lat="42.15227487583357" lon="14.004460034888373"><ele>605.0</ele><time>2026-04-04T12:49:11Z</time></trkpt><trkpt lat="42.152350539299455" lon="14.004425352336673"><ele>605.0</ele><time>2026-04-04T12:49:12Z</time></trkpt><trkpt lat="42.15242373012912" lon="14.004419328535485"><ele>605.0</ele><time>2026-04-04T12:49:13Z</time></trkpt><trkpt lat="42.15248851876496" lon="14.004461415491852"><ele>605.0</ele><time>2026-04-04T12:49:14Z</time></trkpt><trkpt lat="42.152541528558565" lon="14.004537556615285"><ele>605.0</ele><time>2026-04-04T12:49:15Z</time></trkpt><trkpt lat="42.15259253158945" lon="14.004589938313138"><ele>605.0</ele><time>2026-04-04T12:49:16Z</time></trkpt><trkpt lat="42.15265766365474" lon="14.004585536974432"><ele>604.2</ele><time>2026-04-04T12:49:17Z</time></trkpt><trkpt lat="42.15272924087892" lon="14.00453591408583"><ele>603.4</ele><time>2026-04-04T12:49:18Z</time></trkpt><trkpt lat="42.15281351460415" lon="14.004471095285815"><ele>602.6</ele><time>2026-04-04T12:49:19Z</time></trkpt><trkpt lat="42.152923494021884" lon="14.004411722800556"><ele>601.8</ele><time>2026-04-04T12:49:20Z</time></trkpt><trkpt lat="42.153044061272055" lon="14.004362911288036"><ele>601.0</ele><time>2026-04-04T12:49:21Z</time></trkpt><trkpt lat="42.15316703434963" lon="14.004322579707484"><ele>601.3333333333334</ele><time>2026-04-04T12:49:22Z</time></trkpt><trkpt lat="42.153309775833556" lon="14.00429168162415"><ele>601.6666666666666</ele><time>2026-04-04T12:49:23Z</time></trkpt><trkpt lat="42.153466287536105" lon="14.004263151942073"><ele>602.0</ele><time>2026-04-04T12:49:24Z</time></trkpt><trkpt lat="42.15362477188447" lon="14.004233906612372"><ele>602.0</ele><time>2026-04-04T12:49:25Z</time></trkpt><trkpt lat="42.15378226401083" lon="14.004202933480816"><ele>602.0</ele><time>2026-04-04T12:49:26Z</time></trkpt><trkpt lat="42.15393452778902" lon="14.004168558896554"><ele>602.0</ele><time>2026-04-04T12:49:27Z</time></trkpt><trkpt lat="42.15408589050866" lon="14.004131719441887"><ele>596.6666666666666</ele><time>2026-04-04T12:49:28Z</time></trkpt><trkpt lat="42.15423849932002" lon="14.004102571859049"><ele>591.3333333333334</ele><time>2026-04-04T12:49:29Z</time></trkpt><trkpt lat="42.15438911266085" lon="14.004073981852617"><ele>586.0</ele><time>2026-04-04T12:49:30Z</time></trkpt><trkpt lat="42.15455271094386" lon="14.004033702194075"><ele>586.0</ele><time>2026-04-04T12:49:31.062Z</time></trkpt><trkpt lat="42.154733924139094" lon="14.003841177150662"><ele>586.0</ele><time>2026-04-04T12:49:32Z</time></trkpt><trkpt lat="42.15490067224136" lon="14.003708223204217"><ele>586.0</ele><time>2026-04-04T12:49:32.999Z</time></trkpt><trkpt lat="42.155047323384885" lon="14.003649505152914"><ele>584.6666666666667</ele><time>2026-04-04T12:49:33.999Z</time></trkpt><trkpt lat="42.15519953521421" lon="14.003578401897302"><ele>583.3333333333334</ele><time>2026-04-04T12:49:34.999Z</time></trkpt><trkpt lat="42.15536050892534" lon="14.003535844773818"><ele>582.0</ele><time>2026-04-04T12:49:35.999Z</time></trkpt><trkpt lat="42.15553274794615" lon="14.003493262143744"><ele>586.0</ele><time>2026-04-04T12:49:36.999Z</time></trkpt><trkpt lat="42.155719232699745" lon="14.003475002179897"><ele>590.0</ele><time>2026-04-04T12:49:37.999Z</time></trkpt><trkpt lat="42.15591980129789" lon="14.003466135282022"><ele>594.0</ele><time>2026-04-04T12:49:38.999Z</time></trkpt><trkpt lat="42.156120070205425" lon="14.003449771718971"><ele>594.0</ele><time>2026-04-04T12:49:39.999Z</time></trkpt><trkpt lat="42.15633198308127" lon="14.003434790152642"><ele>594.0</ele><time>2026-04-04T12:49:40.999Z</time></trkpt><trkpt lat="42.156539064542606" lon="14.003415674840877"><ele>594.0</ele><time>2026-04-04T12:49:41.999Z</time></trkpt><trkpt lat="42.15675735183194" lon="14.00340693592298"><ele>596.6666666666666</ele><time>2026-04-04T12:49:42.999Z</time></trkpt><trkpt lat="42.1569872554132" lon="14.00339439474419"><ele>599.3333333333333</ele><time>2026-04-04T12:49:44.062Z</time></trkpt><trkpt lat="42.1571956833685" lon="14.003379950897093"><ele>602.0</ele><time>2026-04-04T12:49:45.06Z</time></trkpt><trkpt lat="42.15741355206913" lon="14.003368354312176"><ele>574.0</ele><time>2026-04-04T12:49:46.06Z</time></trkpt><trkpt lat="42.158414866945286" lon="14.003258456215205"><ele>574.0</ele><time>2026-04-04T12:49:49.776Z</time></trkpt><trkpt lat="42.15895489399029" lon="14.003257688046626"><ele>566.5</ele><time>2026-04-04T12:49:51.775Z</time></trkpt><trkpt lat="42.1592252483277" lon="14.003245438486097"><ele>559.0</ele><time>2026-04-04T12:49:52.776Z</time></trkpt><trkpt lat="42.15949415411898" lon="14.003233154332746"><ele>535.0</ele><time>2026-04-04T12:49:53.772Z</time></trkpt><trkpt lat="42.16009694902836" lon="14.003143568609959"><ele>535.0</ele><time>2026-04-04T12:50:01.999Z</time></trkpt><trkpt lat="42.16043281642808" lon="14.003301264897654"><ele>535.0</ele><time>2026-04-04T12:50:03.999Z</time></trkpt><trkpt lat="42.16057972410632" lon="14.00335978881479"><ele>534.6666666666667</ele><time>2026-04-04T12:50:04.999Z</time></trkpt><trkpt lat="42.16072640193638" lon="14.00342752998772"><ele>534.3333333333334</ele><time>2026-04-04T12:50:05.999Z</time></trkpt><trkpt lat="42.160889992911414" lon="14.003521181982862"><ele>534.0</ele><time>2026-04-04T12:50:06.999Z</time></trkpt><trkpt lat="42.16107458196046" lon="14.003652123338275"><ele>534.0</ele><time>2026-04-04T12:50:07.999Z</time></trkpt><trkpt lat="42.161231317303965" lon="14.003760929730557"><ele>534.0</ele><time>2026-04-04T12:50:08.999Z</time></trkpt><trkpt lat="42.161356432312424" lon="14.003863375613117"><ele>534.0</ele><time>2026-04-04T12:50:09.999Z</time></trkpt><trkpt lat="42.16146521624894" lon="14.00397675738534"><ele>533.0</ele><time>2026-04-04T12:50:10.999Z</time></trkpt><trkpt lat="42.16155967081944" lon="14.004118975703658"><ele>532.0</ele><time>2026-04-04T12:50:11.999Z</time></trkpt><trkpt lat="42.16164706481739" lon="14.00426751454434"><ele>531.0</ele><time>2026-04-04T12:50:12.999Z</time></trkpt><trkpt lat="42.16172976275596" lon="14.004427630358483"><ele>530.0</ele><time>2026-04-04T12:50:13.999Z</time></trkpt><trkpt lat="42.161808909040474" lon="14.004616070476377"><ele>530.0</ele><time>2026-04-04T12:50:14.999Z</time></trkpt><trkpt lat="42.16192230942737" lon="14.004784720190417"><ele>530.0</ele><time>2026-04-04T12:50:15.999Z</time></trkpt><trkpt lat="42.162018849680315" lon="14.00492632417615"><ele>530.0</ele><time>2026-04-04T12:50:17.999Z</time></trkpt><trkpt lat="42.16210139619729" lon="14.004995055598647"><ele>530.0</ele><time>2026-04-04T12:50:18.999Z</time></trkpt><trkpt lat="42.16222163557804" lon="14.005045243245291"><ele>531.5</ele><time>2026-04-04T12:50:19.999Z</time></trkpt><trkpt lat="42.16232537845917" lon="14.005045778901277"><ele>533.0</ele><time>2026-04-04T12:50:20.999Z</time></trkpt><trkpt lat="42.16243384215193" lon="14.005027152473659"><ele>534.5</ele><time>2026-04-04T12:50:21.999Z</time></trkpt><trkpt lat="42.16255469951257" lon="14.005000127143305"><ele>536.0</ele><time>2026-04-04T12:50:22.999Z</time></trkpt><trkpt lat="42.162677969489714" lon="14.004981002412993"><ele>531.0</ele><time>2026-04-04T12:50:23.999Z</time></trkpt><trkpt lat="42.16279413147969" lon="14.004971850021136"><ele>526.0</ele><time>2026-04-04T12:50:24.999Z</time></trkpt><trkpt lat="42.16290029884022" lon="14.00496099186485"><ele>521.0</ele><time>2026-04-04T12:50:25.999Z</time></trkpt><trkpt lat="42.163007379666844" lon="14.004937799545601"><ele>516.0</ele><time>2026-04-04T12:50:26.999Z</time></trkpt><trkpt lat="42.163116224652825" lon="14.004877319144832"><ele>511.0</ele><time>2026-04-04T12:50:27.999Z</time></trkpt><trkpt lat="42.163221222085795" lon="14.004780950106186"><ele>510.75</ele><time>2026-04-04T12:50:28.999Z</time></trkpt><trkpt lat="42.16333211203798" lon="14.004674520786772"><ele>510.5</ele><time>2026-04-04T12:50:29.999Z</time></trkpt><trkpt lat="42.16344753930236" lon="14.004570659646033"><ele>510.25</ele><time>2026-04-04T12:50:30.999Z</time></trkpt><trkpt lat="42.16355215607447" lon="14.004462216432787"><ele>510.0</ele><time>2026-04-04T12:50:31.999Z</time></trkpt><trkpt lat="42.16365075147002" lon="14.004357953633757"><ele>510.0</ele><time>2026-04-04T12:50:32.999Z</time></trkpt><trkpt lat="42.16374396367196" lon="14.004251272059312"><ele>510.0</ele><time>2026-04-04T12:50:33.999Z</time></trkpt><trkpt lat="42.163836484310856" lon="14.004132928185168"><ele>510.0</ele><time>2026-04-04T12:50:34.999Z</time></trkpt><trkpt lat="42.16393872230671" lon="14.004007174595257"><ele>510.0</ele><time>2026-04-04T12:50:35.999Z</time></trkpt><trkpt lat="42.16403066119351" lon="14.00388986564844"><ele>512.5</ele><time>2026-04-04T12:50:36.999Z</time></trkpt><trkpt lat="42.16411061361177" lon="14.003770952079169"><ele>515.0</ele><time>2026-04-04T12:50:37.999Z</time></trkpt><trkpt lat="42.164184598671206" lon="14.003641265612032"><ele>517.5</ele><time>2026-04-04T12:50:38.999Z</time></trkpt><trkpt lat="42.16425143556295" lon="14.003512080294865"><ele>520.0</ele><time>2026-04-04T12:50:39.999Z</time></trkpt><trkpt lat="42.16432438937163" lon="14.003398619787745"><ele>518.5</ele><time>2026-04-04T12:50:40.999Z</time></trkpt><trkpt lat="42.164401153970026" lon="14.003280516339284"><ele>517.0</ele><time>2026-04-04T12:50:41.999Z</time></trkpt><trkpt lat="42.16448035921113" lon="14.003139552077403"><ele>515.5</ele><time>2026-04-04T12:50:42.999Z</time></trkpt><trkpt lat="42.1645536876057" lon="14.002997695865753"><ele>514.0</ele><time>2026-04-04T12:50:43.999Z</time></trkpt><trkpt lat="42.16462194404475" lon="14.002868501508107"><ele>514.0</ele><time>2026-04-04T12:50:44.999Z</time></trkpt><trkpt lat="42.16468961801777" lon="14.0027376446467"><ele>514.0</ele><time>2026-04-04T12:50:45.999Z</time></trkpt><trkpt lat="42.164759050646936" lon="14.002609483716075"><ele>514.0</ele><time>2026-04-04T12:50:46.999Z</time></trkpt><trkpt lat="42.16482751134496" lon="14.002481986650023"><ele>514.0</ele><time>2026-04-04T12:50:47.999Z</time></trkpt><trkpt lat="42.16489211768795" lon="14.002350662992761"><ele>516.5</ele><time>2026-04-04T12:50:48.999Z</time></trkpt><trkpt lat="42.16495661642702" lon="14.002220122886408"><ele>519.0</ele><time>2026-04-04T12:50:49.999Z</time></trkpt><trkpt lat="42.16502376154181" lon="14.002092834306241"><ele>521.5</ele><time>2026-04-04T12:50:50.999Z</time></trkpt><trkpt lat="42.165091364793874" lon="14.001968721937388"><ele>524.0</ele><time>2026-04-04T12:50:51.999Z</time></trkpt><trkpt lat="42.1651573434616" lon="14.001842240436517"><ele>524.0</ele><time>2026-04-04T12:50:52.999Z</time></trkpt><trkpt lat="42.16521719063083" lon="14.001726224624887"><ele>524.0</ele><time>2026-04-04T12:50:53.999Z</time></trkpt><trkpt lat="42.1652743379616" lon="14.001611770070653"><ele>524.0</ele><time>2026-04-04T12:50:54.999Z</time></trkpt><trkpt lat="42.1653313188991" lon="14.001502758884225"><ele>524.0</ele><time>2026-04-04T12:50:55.999Z</time></trkpt><trkpt lat="42.16538803587943" lon="14.001395536035105"><ele>524.0</ele><time>2026-04-04T12:50:56.999Z</time></trkpt><trkpt lat="42.165444044265925" lon="14.001289380638207"><ele>524.5</ele><time>2026-04-04T12:50:57.999Z</time></trkpt><trkpt lat="42.16550110120653" lon="14.00119966462162"><ele>525.0</ele><time>2026-04-04T12:50:58.999Z</time></trkpt><trkpt lat="42.16557480129066" lon="14.001147027429266"><ele>525.5</ele><time>2026-04-04T12:50:59.999Z</time></trkpt><trkpt lat="42.165769385711265" lon="14.001178920150856"><ele>526.0</ele><time>2026-04-04T12:51:01.999Z</time></trkpt><trkpt lat="42.16587724565485" lon="14.001184784610134"><ele>526.0</ele><time>2026-04-04T12:51:02.999Z</time></trkpt><trkpt lat="42.165981114495224" lon="14.001154434904562"><ele>526.0</ele><time>2026-04-04T12:51:03.999Z</time></trkpt><trkpt lat="42.166063729467524" lon="14.001077804978292"><ele>526.0</ele><time>2026-04-04T12:51:04.999Z</time></trkpt><trkpt lat="42.16611323298181" lon="14.000955897299967"><ele>526.0</ele><time>2026-04-04T12:51:05.999Z</time></trkpt><trkpt lat="42.166161863246586" lon="14.000800972994845"><ele>526.0</ele><time>2026-04-04T12:51:06.999Z</time></trkpt><trkpt lat="42.166201880223035" lon="14.000626723004318"><ele>524.75</ele><time>2026-04-04T12:51:07.999Z</time></trkpt><trkpt lat="42.166231672550666" lon="14.000434071098065"><ele>523.5</ele><time>2026-04-04T12:51:08.999Z</time></trkpt><trkpt lat="42.166264277834024" lon="14.000255370796522"><ele>522.25</ele><time>2026-04-04T12:51:09.999Z</time></trkpt><trkpt lat="42.16630591967097" lon="14.000091154892077"><ele>521.0</ele><time>2026-04-04T12:51:11Z</time></trkpt><trkpt lat="42.166367521349116" lon="13.999949668918122"><ele>521.0</ele><time>2026-04-04T12:51:12Z</time></trkpt><trkpt lat="42.16645363481944" lon="13.999813526795174"><ele>521.0</ele><time>2026-04-04T12:51:13Z</time></trkpt><trkpt lat="42.166559501624256" lon="13.999671780237728"><ele>521.0</ele><time>2026-04-04T12:51:14Z</time></trkpt><trkpt lat="42.16666132572206" lon="13.999546956909546"><ele>521.0</ele><time>2026-04-04T12:51:15Z</time></trkpt><trkpt lat="42.16675589819698" lon="13.999403938384201"><ele>526.0</ele><time>2026-04-04T12:51:16Z</time></trkpt><trkpt lat="42.166845830144645" lon="13.999304960278817"><ele>531.0</ele><time>2026-04-04T12:51:17Z</time></trkpt><trkpt lat="42.166926096295306" lon="13.999182530072963"><ele>536.0</ele><time>2026-04-04T12:51:18Z</time></trkpt><trkpt lat="42.166986671325326" lon="13.999055354649839"><ele>541.0</ele><time>2026-04-04T12:51:19Z</time></trkpt><trkpt lat="42.16703087286595" lon="13.998930408298927"><ele>541.0</ele><time>2026-04-04T12:51:20Z</time></trkpt><trkpt lat="42.16699736356136" lon="13.998768960920811"><ele>541.0</ele><time>2026-04-04T12:51:21Z</time></trkpt><trkpt lat="42.16694670680542" lon="13.998615719377256"><ele>541.0</ele><time>2026-04-04T12:51:22Z</time></trkpt><trkpt lat="42.16688594616615" lon="13.998447533215359"><ele>541.0</ele><time>2026-04-04T12:51:23Z</time></trkpt><trkpt lat="42.16684817607504" lon="13.998273175826572"><ele>541.75</ele><time>2026-04-04T12:51:24Z</time></trkpt><trkpt lat="42.16681764255745" lon="13.998121474818342"><ele>542.5</ele><time>2026-04-04T12:51:25Z</time></trkpt><trkpt lat="42.16677311065349" lon="13.997966875853255"><ele>543.25</ele><time>2026-04-04T12:51:26Z</time></trkpt><trkpt lat="42.16676086415609" lon="13.997781474117602"><ele>544.0</ele><time>2026-04-04T12:51:27Z</time></trkpt><trkpt lat="42.16678652640847" lon="13.997596580906103"><ele>546.75</ele><time>2026-04-04T12:51:28Z</time></trkpt><trkpt lat="42.166836118131826" lon="13.997408575140506"><ele>549.5</ele><time>2026-04-04T12:51:29Z</time></trkpt><trkpt lat="42.16686625755215" lon="13.997212109764305"><ele>552.25</ele><time>2026-04-04T12:51:30Z</time></trkpt><trkpt lat="42.166922209401264" lon="13.997060412133495"><ele>555.0</ele><time>2026-04-04T12:51:31Z</time></trkpt><trkpt lat="42.16698064684575" lon="13.99691040410503"><ele>555.0</ele><time>2026-04-04T12:51:32Z</time></trkpt><trkpt lat="42.16706143419758" lon="13.996749812961383"><ele>555.0</ele><time>2026-04-04T12:51:33Z</time></trkpt><trkpt lat="42.167157609763734" lon="13.996603137966762"><ele>555.0</ele><time>2026-04-04T12:51:34Z</time></trkpt><trkpt lat="42.16721992302497" lon="13.996428740831615"><ele>555.0</ele><time>2026-04-04T12:51:35Z</time></trkpt><trkpt lat="42.16725150013857" lon="13.996225037935938"><ele>555.5</ele><time>2026-04-04T12:51:36Z</time></trkpt><trkpt lat="42.16726177125276" lon="13.99604012641902"><ele>556.0</ele><time>2026-04-04T12:51:37Z</time></trkpt><trkpt lat="42.16727581417146" lon="13.995879112779269"><ele>556.5</ele><time>2026-04-04T12:51:38Z</time></trkpt><trkpt lat="42.16733527370743" lon="13.99575393352516"><ele>557.0</ele><time>2026-04-04T12:51:39Z</time></trkpt><trkpt lat="42.167413462455926" lon="13.995629067917427"><ele>561.75</ele><time>2026-04-04T12:51:40Z</time></trkpt><trkpt lat="42.167504794191736" lon="13.995483466204234"><ele>566.5</ele><time>2026-04-04T12:51:41Z</time></trkpt><trkpt lat="42.167616092704634" lon="13.995367071993524"><ele>571.25</ele><time>2026-04-04T12:51:42Z</time></trkpt><trkpt lat="42.167734109191926" lon="13.99527716880485"><ele>576.0</ele><time>2026-04-04T12:51:43Z</time></trkpt><trkpt lat="42.16783795495146" lon="13.995171922358791"><ele>576.0</ele><time>2026-04-04T12:51:44Z</time></trkpt><trkpt lat="42.16792379006983" lon="13.99501697325242"><ele>576.0</ele><time>2026-04-04T12:51:45Z</time></trkpt><trkpt lat="42.16798777953937" lon="13.994817905347166"><ele>576.0</ele><time>2026-04-04T12:51:46Z</time></trkpt><trkpt lat="42.168052667643465" lon="13.994602937136861"><ele>575.0</ele><time>2026-04-04T12:51:47Z</time></trkpt><trkpt lat="42.168122696530425" lon="13.994390218548967"><ele>574.0</ele><time>2026-04-04T12:51:48Z</time></trkpt><trkpt lat="42.16819397846552" lon="13.994192657703762"><ele>573.0</ele><time>2026-04-04T12:51:49Z</time></trkpt><trkpt lat="42.168258001285" lon="13.994013612259444"><ele>578.25</ele><time>2026-04-04T12:51:50Z</time></trkpt><trkpt lat="42.168302709565225" lon="13.9938465089206"><ele>583.5</ele><time>2026-04-04T12:51:51Z</time></trkpt><trkpt lat="42.168350186729725" lon="13.993677310419423"><ele>588.75</ele><time>2026-04-04T12:51:52Z</time></trkpt><trkpt lat="42.16841108669823" lon="13.993544988327503"><ele>594.0</ele><time>2026-04-04T12:51:53Z</time></trkpt><trkpt lat="42.1685083134546" lon="13.993421905946914"><ele>592.75</ele><time>2026-04-04T12:51:54Z</time></trkpt><trkpt lat="42.16861752167002" lon="13.993294023005706"><ele>591.5</ele><time>2026-04-04T12:51:55Z</time></trkpt><trkpt lat="42.16873163555264" lon="13.993161165322258"><ele>590.25</ele><time>2026-04-04T12:51:56Z</time></trkpt><trkpt lat="42.16884128849385" lon="13.99301836859678"><ele>589.0</ele><time>2026-04-04T12:51:57Z</time></trkpt><trkpt lat="42.16895472202869" lon="13.992868439546637"><ele>593.5</ele><time>2026-04-04T12:51:58Z</time></trkpt><trkpt lat="42.1690556571052" lon="13.992726625827533"><ele>598.0</ele><time>2026-04-04T12:51:59Z</time></trkpt><trkpt lat="42.16914366236359" lon="13.992607409768725"><ele>602.5</ele><time>2026-04-04T12:52:00Z</time></trkpt><trkpt lat="42.16922580522034" lon="13.992511559168712"><ele>607.0</ele><time>2026-04-04T12:52:01Z</time></trkpt><trkpt lat="42.16929733503201" lon="13.992426126943437"><ele>607.0</ele><time>2026-04-04T12:52:02Z</time></trkpt><trkpt lat="42.16936182505006" lon="13.992371676162003"><ele>607.0</ele><time>2026-04-04T12:52:03Z</time></trkpt><trkpt lat="42.16943146098546" lon="13.992379131116378"><ele>607.0</ele><time>2026-04-04T12:52:04Z</time></trkpt><trkpt lat="42.1694804489157" lon="13.992453418195355"><ele>607.0</ele><time>2026-04-04T12:52:05Z</time></trkpt><trkpt lat="42.1694888381267" lon="13.992550611297412"><ele>607.0</ele><time>2026-04-04T12:52:06Z</time></trkpt><trkpt lat="42.169424356227964" lon="13.992625106767223"><ele>607.0</ele><time>2026-04-04T12:52:07Z</time></trkpt><trkpt lat="42.169380900613696" lon="13.992750559829908"><ele>609.0</ele><time>2026-04-04T12:52:08Z</time></trkpt><trkpt lat="42.16932950540244" lon="13.992902328052459"><ele>611.0</ele><time>2026-04-04T12:52:09Z</time></trkpt><trkpt lat="42.169277721742205" lon="13.99306561006725"><ele>613.0</ele><time>2026-04-04T12:52:10Z</time></trkpt><trkpt lat="42.169235510419746" lon="13.993212850955429"><ele>615.0</ele><time>2026-04-04T12:52:11Z</time></trkpt><trkpt lat="42.16919495387334" lon="13.99336230557049"><ele>616.2</ele><time>2026-04-04T12:52:12Z</time></trkpt><trkpt lat="42.1691548013515" lon="13.993517052620145"><ele>617.4</ele><time>2026-04-04T12:52:13Z</time></trkpt><trkpt lat="42.169136197698286" lon="13.993651468107396"><ele>618.6</ele><time>2026-04-04T12:52:14Z</time></trkpt><trkpt lat="42.16910585032075" lon="13.993766927916637"><ele>619.8</ele><time>2026-04-04T12:52:15Z</time></trkpt><trkpt lat="42.16909606316969" lon="13.993888659467883"><ele>621.0</ele><time>2026-04-04T12:52:16Z</time></trkpt><trkpt lat="42.169113886756485" lon="13.994021620222698"><ele>621.0</ele><time>2026-04-04T12:52:17Z</time></trkpt><trkpt lat="42.169158331064004" lon="13.994145848140196"><ele>621.0</ele><time>2026-04-04T12:52:18Z</time></trkpt><trkpt lat="42.16921848202304" lon="13.99422591472163"><ele>621.0</ele><time>2026-04-04T12:52:19Z</time></trkpt><trkpt lat="42.16928964600416" lon="13.994268885532888"><ele>621.0</ele><time>2026-04-04T12:52:20Z</time></trkpt><trkpt lat="42.16937058973907" lon="13.994262936538801"><ele>621.0</ele><time>2026-04-04T12:52:21Z</time></trkpt><trkpt lat="42.16945222933429" lon="13.994197919770746"><ele>621.0</ele><time>2026-04-04T12:52:22Z</time></trkpt><trkpt lat="42.16949917139594" lon="13.994090118977843"><ele>621.0</ele><time>2026-04-04T12:52:23Z</time></trkpt><trkpt lat="42.169538244810035" lon="13.993941422050751"><ele>621.0</ele><time>2026-04-04T12:52:24Z</time></trkpt><trkpt lat="42.16957347360221" lon="13.993779552650727"><ele>621.0</ele><time>2026-04-04T12:52:25Z</time></trkpt><trkpt lat="42.169621367764265" lon="13.993619284663138"><ele>621.0</ele><time>2026-04-04T12:52:26Z</time></trkpt><trkpt lat="42.16967595094356" lon="13.993448904863808"><ele>619.0</ele><time>2026-04-04T12:52:27Z</time></trkpt><trkpt lat="42.169726745580576" lon="13.993266998505879"><ele>617.0</ele><time>2026-04-04T12:52:28Z</time></trkpt><trkpt lat="42.16978410005755" lon="13.99307854216515"><ele>615.0</ele><time>2026-04-04T12:52:29Z</time></trkpt><trkpt lat="42.16985039514776" lon="13.992885970232182"><ele>624.0</ele><time>2026-04-04T12:52:30Z</time></trkpt><trkpt lat="42.16991970471316" lon="13.992690814752146"><ele>633.0</ele><time>2026-04-04T12:52:31Z</time></trkpt><trkpt lat="42.169987281439674" lon="13.992496730142406"><ele>642.0</ele><time>2026-04-04T12:52:32Z</time></trkpt><trkpt lat="42.170053970973555" lon="13.992305426013848"><ele>642.0</ele><time>2026-04-04T12:52:33Z</time></trkpt><trkpt lat="42.170125818183976" lon="13.99211336239178"><ele>642.0</ele><time>2026-04-04T12:52:33.999Z</time></trkpt><trkpt lat="42.1701976155798" lon="13.991913218475661"><ele>642.0</ele><time>2026-04-04T12:52:34.999Z</time></trkpt><trkpt lat="42.17026673128534" lon="13.991719466892702"><ele>638.0</ele><time>2026-04-04T12:52:35.999Z</time></trkpt><trkpt lat="42.170334141214546" lon="13.991515804101523"><ele>634.0</ele><time>2026-04-04T12:52:36.999Z</time></trkpt><trkpt lat="42.17039628308101" lon="13.991332376369748"><ele>630.0</ele><time>2026-04-04T12:52:37.999Z</time></trkpt><trkpt lat="42.17044941224015" lon="13.991163739597765"><ele>630.0</ele><time>2026-04-04T12:52:38.999Z</time></trkpt><trkpt lat="42.17049556824068" lon="13.991008603199427"><ele>630.0</ele><time>2026-04-04T12:52:39.999Z</time></trkpt><trkpt lat="42.170537445864966" lon="13.990852534476769"><ele>630.0</ele><time>2026-04-04T12:52:40.999Z</time></trkpt><trkpt lat="42.17056587443447" lon="13.990700085609703"><ele>630.0</ele><time>2026-04-04T12:52:41.999Z</time></trkpt><trkpt lat="42.170586988226205" lon="13.990544717973075"><ele>627.3333333333334</ele><time>2026-04-04T12:52:42.999Z</time></trkpt><trkpt lat="42.1705984211292" lon="13.990406002950614"><ele>624.6666666666666</ele><time>2026-04-04T12:52:43.999Z</time></trkpt><trkpt lat="42.17060843964139" lon="13.99028648512825"><ele>622.0</ele><time>2026-04-04T12:52:44.999Z</time></trkpt><trkpt lat="42.17061866829243" lon="13.99017716086013"><ele>619.3333333333333</ele><time>2026-04-04T12:52:45.999Z</time></trkpt><trkpt lat="42.17064474040664" lon="13.990073690766177"><ele>616.6666666666666</ele><time>2026-04-04T12:52:46.999Z</time></trkpt><trkpt lat="42.17069921928358" lon="13.98997711208334"><ele>614.0</ele><time>2026-04-04T12:52:47.999Z</time></trkpt><trkpt lat="42.17078087471084" lon="13.989906573564726"><ele>620.4</ele><time>2026-04-04T12:52:48.999Z</time></trkpt><trkpt lat="42.17087286427447" lon="13.989865359362147"><ele>626.8</ele><time>2026-04-04T12:52:49.999Z</time></trkpt><trkpt lat="42.170974534609606" lon="13.98983566180625"><ele>633.1999999999999</ele><time>2026-04-04T12:52:50.999Z</time></trkpt><trkpt lat="42.17107555296885" lon="13.989815817142063"><ele>639.5999999999999</ele><time>2026-04-04T12:52:51.999Z</time></trkpt><trkpt lat="42.17118364265257" lon="13.989788629977985"><ele>646.0</ele><time>2026-04-04T12:52:52.999Z</time></trkpt><trkpt lat="42.17128767255825" lon="13.989764048762414"><ele>646.0</ele><time>2026-04-04T12:52:53.999Z</time></trkpt><trkpt lat="42.1713870148835" lon="13.98973732579537"><ele>646.0</ele><time>2026-04-04T12:52:54.999Z</time></trkpt><trkpt lat="42.171486406690235" lon="13.989702023139849"><ele>646.0</ele><time>2026-04-04T12:52:55.999Z</time></trkpt><trkpt lat="42.17158241206073" lon="13.989656859785525"><ele>646.0</ele><time>2026-04-04T12:52:56.999Z</time></trkpt><trkpt lat="42.17168195871658" lon="13.989611465933983"><ele>646.0</ele><time>2026-04-04T12:52:57.999Z</time></trkpt><trkpt lat="42.17178939899768" lon="13.989563811314905"><ele>651.1999999999999</ele><time>2026-04-04T12:52:58.999Z</time></trkpt><trkpt lat="42.171900490197444" lon="13.989514909882113"><ele>656.4</ele><time>2026-04-04T12:52:59.999Z</time></trkpt><trkpt lat="42.17201424078363" lon="13.989472128855704"><ele>661.6</ele><time>2026-04-04T12:53:00.999Z</time></trkpt><trkpt lat="42.17211918645261" lon="13.989439154383641"><ele>666.8</ele><time>2026-04-04T12:53:01.999Z</time></trkpt><trkpt lat="42.17222024085693" lon="13.98941318537903"><ele>672.0</ele><time>2026-04-04T12:53:02.999Z</time></trkpt><trkpt lat="42.17233599241197" lon="13.989391826539938"><ele>674.5</ele><time>2026-04-04T12:53:03.999Z</time></trkpt><trkpt lat="42.17246405667665" lon="13.989388716432158"><ele>677.0</ele><time>2026-04-04T12:53:04.999Z</time></trkpt><trkpt lat="42.17260137740965" lon="13.989394208433376"><ele>679.5</ele><time>2026-04-04T12:53:05.999Z</time></trkpt><trkpt lat="42.17273985601451" lon="13.989408848869147"><ele>682.0</ele><time>2026-04-04T12:53:06.999Z</time></trkpt><trkpt lat="42.17286751435764" lon="13.989433832504037"><ele>682.0</ele><time>2026-04-04T12:53:07.999Z</time></trkpt><trkpt lat="42.17299225228404" lon="13.989435851054559"><ele>682.0</ele><time>2026-04-04T12:53:08.999Z</time></trkpt><trkpt lat="42.17312843732858" lon="13.989416304192755"><ele>682.0</ele><time>2026-04-04T12:53:09.999Z</time></trkpt><trkpt lat="42.17326917261135" lon="13.98938155448765"><ele>682.0</ele><time>2026-04-04T12:53:10.999Z</time></trkpt><trkpt lat="42.17340708783029" lon="13.989326660556337"><ele>681.0</ele><time>2026-04-04T12:53:11.999Z</time></trkpt><trkpt lat="42.173531973111686" lon="13.989264350748492"><ele>680.0</ele><time>2026-04-04T12:53:12.999Z</time></trkpt><trkpt lat="42.173650860351124" lon="13.98920685405146"><ele>679.0</ele><time>2026-04-04T12:53:13.999Z</time></trkpt><trkpt lat="42.173761067603174" lon="13.989175114641595"><ele>678.0</ele><time>2026-04-04T12:53:14.999Z</time></trkpt><trkpt lat="42.17385939422197" lon="13.98917522775073"><ele>679.5</ele><time>2026-04-04T12:53:15.999Z</time></trkpt><trkpt lat="42.17393618101126" lon="13.989202394629261"><ele>681.0</ele><time>2026-04-04T12:53:17.001Z</time></trkpt><trkpt lat="42.1740000594221" lon="13.989262911312599"><ele>682.5</ele><time>2026-04-04T12:53:18.001Z</time></trkpt><trkpt lat="42.17402204767724" lon="13.989347188458629"><ele>684.0</ele><time>2026-04-04T12:53:19.001Z</time></trkpt><trkpt lat="42.173990909748376" lon="13.989444759592075"><ele>685.5</ele><time>2026-04-04T12:53:20.001Z</time></trkpt><trkpt lat="42.17395565298462" lon="13.98952468470236"><ele>687.0</ele><time>2026-04-04T12:53:21.001Z</time></trkpt><trkpt lat="42.17390612757445" lon="13.989607945734715"><ele>687.0</ele><time>2026-04-04T12:53:22.001Z</time></trkpt><trkpt lat="42.17385586850751" lon="13.989698161748214"><ele>687.0</ele><time>2026-04-04T12:53:23.001Z</time></trkpt><trkpt lat="42.17380334632779" lon="13.989785980485316"><ele>687.0</ele><time>2026-04-04T12:53:24.001Z</time></trkpt><trkpt lat="42.17373594151721" lon="13.989892865196719"><ele>687.0</ele><time>2026-04-04T12:53:25.001Z</time></trkpt><trkpt lat="42.17366287239828" lon="13.99000745200313"><ele>687.0</ele><time>2026-04-04T12:53:26.001Z</time></trkpt><trkpt lat="42.173586200377514" lon="13.99013212246655"><ele>689.4000000000001</ele><time>2026-04-04T12:53:27.001Z</time></trkpt><trkpt lat="42.17351417459814" lon="13.990253102107314"><ele>691.8000000000001</ele><time>2026-04-04T12:53:28.001Z</time></trkpt><trkpt lat="42.173450774678344" lon="13.99035549984481"><ele>694.2</ele><time>2026-04-04T12:53:29.001Z</time></trkpt><trkpt lat="42.17338932559548" lon="13.990447663239106"><ele>696.6</ele><time>2026-04-04T12:53:30.001Z</time></trkpt><trkpt lat="42.173328451658236" lon="13.99053374467576"><ele>699.0</ele><time>2026-04-04T12:53:31.001Z</time></trkpt><trkpt lat="42.17326848527495" lon="13.990605313112885"><ele>699.0</ele><time>2026-04-04T12:53:32Z</time></trkpt><trkpt lat="42.1732015989247" lon="13.990667349002514"><ele>699.0</ele><time>2026-04-04T12:53:33Z</time></trkpt><trkpt lat="42.173123818054464" lon="13.990713976177341"><ele>699.0</ele><time>2026-04-04T12:53:34Z</time></trkpt><trkpt lat="42.17303079951223" lon="13.990744772867394"><ele>699.0</ele><time>2026-04-04T12:53:35Z</time></trkpt><trkpt lat="42.17292322993646" lon="13.990776706270479"><ele>699.0</ele><time>2026-04-04T12:53:36Z</time></trkpt><trkpt lat="42.17281243469429" lon="13.99080322899456"><ele>698.75</ele><time>2026-04-04T12:53:37Z</time></trkpt><trkpt lat="42.17268992329144" lon="13.990830675585224"><ele>698.5</ele><time>2026-04-04T12:53:38Z</time></trkpt><trkpt lat="42.172566080308734" lon="13.99085625026368"><ele>698.25</ele><time>2026-04-04T12:53:39Z</time></trkpt><trkpt lat="42.17244986039879" lon="13.990889431676113"><ele>698.0</ele><time>2026-04-04T12:53:40Z</time></trkpt><trkpt lat="42.172345756051115" lon="13.990945328454295"><ele>699.75</ele><time>2026-04-04T12:53:41Z</time></trkpt><trkpt lat="42.17223900293628" lon="13.99101247949959"><ele>701.5</ele><time>2026-04-04T12:53:42Z</time></trkpt><trkpt lat="42.172125038747076" lon="13.991089794809964"><ele>703.25</ele><time>2026-04-04T12:53:43Z</time></trkpt><trkpt lat="42.172013054755006" lon="13.99115731722885"><ele>705.0</ele><time>2026-04-04T12:53:44Z</time></trkpt><trkpt lat="42.17192020301579" lon="13.991235156863027"><ele>705.0</ele><time>2026-04-04T12:53:45Z</time></trkpt><trkpt lat="42.17184889809108" lon="13.99131359604551"><ele>705.0</ele><time>2026-04-04T12:53:46Z</time></trkpt><trkpt lat="42.171788913917716" lon="13.991385464390472"><ele>705.0</ele><time>2026-04-04T12:53:47Z</time></trkpt><trkpt lat="42.171760101046985" lon="13.991487488454167"><ele>705.0</ele><time>2026-04-04T12:53:48Z</time></trkpt><trkpt lat="42.17175427900781" lon="13.991582944991785"><ele>705.0</ele><time>2026-04-04T12:53:49Z</time></trkpt><trkpt lat="42.17178834197715" lon="13.991675461336909"><ele>705.0</ele><time>2026-04-04T12:53:50Z</time></trkpt><trkpt lat="42.171847124722994" lon="13.99174832715606"><ele>706.6</ele><time>2026-04-04T12:53:51Z</time></trkpt><trkpt lat="42.17192869028882" lon="13.991776104967695"><ele>708.2</ele><time>2026-04-04T12:53:52Z</time></trkpt><trkpt lat="42.172033087881246" lon="13.991787819969868"><ele>709.8</ele><time>2026-04-04T12:53:53Z</time></trkpt><trkpt lat="42.17214027188439" lon="13.991789134368904"><ele>711.4</ele><time>2026-04-04T12:53:54Z</time></trkpt><trkpt lat="42.17226284205061" lon="13.991827946868534"><ele>713.0</ele><time>2026-04-04T12:53:55Z</time></trkpt><trkpt lat="42.17239671911613" lon="13.99188822418189"><ele>715.5</ele><time>2026-04-04T12:53:56Z</time></trkpt><trkpt lat="42.17253239594841" lon="13.99194667166625"><ele>718.0</ele><time>2026-04-04T12:53:57Z</time></trkpt><trkpt lat="42.17265790303813" lon="13.991994904523358"><ele>720.5</ele><time>2026-04-04T12:53:58Z</time></trkpt><trkpt lat="42.17277025738525" lon="13.992047034923077"><ele>723.0</ele><time>2026-04-04T12:53:59Z</time></trkpt><trkpt lat="42.17286160884105" lon="13.992145258431998"><ele>723.0</ele><time>2026-04-04T12:54:00Z</time></trkpt><trkpt lat="42.172972930601176" lon="13.992231745612587"><ele>723.0</ele><time>2026-04-04T12:54:01Z</time></trkpt><trkpt lat="42.17308019416523" lon="13.992295705594252"><ele>723.0</ele><time>2026-04-04T12:54:02Z</time></trkpt><trkpt lat="42.17317490428546" lon="13.992369785003927"><ele>723.0</ele><time>2026-04-04T12:54:03Z</time></trkpt><trkpt lat="42.17325746819005" lon="13.992429313845301"><ele>723.0</ele><time>2026-04-04T12:54:04Z</time></trkpt><trkpt lat="42.17333114135952" lon="13.992487767180267"><ele>725.3333333333334</ele><time>2026-04-04T12:54:05Z</time></trkpt><trkpt lat="42.17339098123043" lon="13.992541046776156"><ele>727.6666666666666</ele><time>2026-04-04T12:54:06Z</time></trkpt><trkpt lat="42.17343634067858" lon="13.992624147760155"><ele>730.0</ele><time>2026-04-04T12:54:07Z</time></trkpt><trkpt lat="42.1734413781764" lon="13.992725925202745"><ele>732.3333333333333</ele><time>2026-04-04T12:54:08Z</time></trkpt><trkpt lat="42.17339742903267" lon="13.992808962747311"><ele>734.6666666666666</ele><time>2026-04-04T12:54:09Z</time></trkpt><trkpt lat="42.173318022770225" lon="13.99286272575557"><ele>737.0</ele><time>2026-04-04T12:54:10Z</time></trkpt><trkpt lat="42.17323306720457" lon="13.992886344137087"><ele>736.5</ele><time>2026-04-04T12:54:11Z</time></trkpt><trkpt lat="42.17313304523291" lon="13.992917611497917"><ele>736.0</ele><time>2026-04-04T12:54:12Z</time></trkpt><trkpt lat="42.17302385942612" lon="13.992969700990175"><ele>735.5</ele><time>2026-04-04T12:54:13Z</time></trkpt><trkpt lat="42.17290214059839" lon="13.993010415464004"><ele>735.0</ele><time>2026-04-04T12:54:14Z</time></trkpt><trkpt lat="42.172779463865" lon="13.993026470698997"><ele>735.0</ele><time>2026-04-04T12:54:15Z</time></trkpt><trkpt lat="42.172679058632966" lon="13.993057383069832"><ele>735.0</ele><time>2026-04-04T12:54:16Z</time></trkpt><trkpt lat="42.172587845246944" lon="13.99308608080993"><ele>735.0</ele><time>2026-04-04T12:54:17Z</time></trkpt><trkpt lat="42.17250730727922" lon="13.993114307841898"><ele>735.0</ele><time>2026-04-04T12:54:18Z</time></trkpt><trkpt lat="42.172422744895584" lon="13.993150823404527"><ele>735.0</ele><time>2026-04-04T12:54:19Z</time></trkpt><trkpt lat="42.1723438071783" lon="13.99321621189378"><ele>734.6</ele><time>2026-04-04T12:54:20Z</time></trkpt><trkpt lat="42.172259263414844" lon="13.99327192437822"><ele>734.2</ele><time>2026-04-04T12:54:21Z</time></trkpt><trkpt lat="42.17218296199371" lon="13.993358048404238"><ele>733.8</ele><time>2026-04-04T12:54:22Z</time></trkpt><trkpt lat="42.17209296612451" lon="13.993437659432441"><ele>733.4</ele><time>2026-04-04T12:54:23Z</time></trkpt><trkpt lat="42.17201148100206" lon="13.99353967151602"><ele>733.0</ele><time>2026-04-04T12:54:24Z</time></trkpt><trkpt lat="42.17194160662689" lon="13.993631439447826"><ele>733.0</ele><time>2026-04-04T12:54:25Z</time></trkpt><trkpt lat="42.171880298954605" lon="13.993715332465866"><ele>733.0</ele><time>2026-04-04T12:54:26Z</time></trkpt><trkpt lat="42.17184730062047" lon="13.99381436956481"><ele>733.0</ele><time>2026-04-04T12:54:27Z</time></trkpt><trkpt lat="42.171808071646474" lon="13.993913930189617"><ele>733.0</ele><time>2026-04-04T12:54:28Z</time></trkpt><trkpt lat="42.17179035337952" lon="13.994008464261485"><ele>733.0</ele><time>2026-04-04T12:54:29Z</time></trkpt><trkpt lat="42.17177978527563" lon="13.994112896531462"><ele>733.0</ele><time>2026-04-04T12:54:30Z</time></trkpt><trkpt lat="42.17178556381955" lon="13.994246819424857"><ele>733.0</ele><time>2026-04-04T12:54:31Z</time></trkpt><trkpt lat="42.17180902642935" lon="13.994370444500069"><ele>733.0</ele><time>2026-04-04T12:54:32Z</time></trkpt><trkpt lat="42.171832159245945" lon="13.994470600392566"><ele>733.0</ele><time>2026-04-04T12:54:33Z</time></trkpt><trkpt lat="42.17186144523981" lon="13.994602335375044"><ele>733.0</ele><time>2026-04-04T12:54:35Z</time></trkpt><trkpt lat="42.17190991595741" lon="13.99474039059107"><ele>733.0</ele><time>2026-04-04T12:55:15.999Z</time></trkpt><trkpt lat="42.17193101695287" lon="13.994873003196345"><ele>733.25</ele><time>2026-04-04T12:55:16.999Z</time></trkpt><trkpt lat="42.17197970538868" lon="13.995008283402345"><ele>733.5</ele><time>2026-04-04T12:55:17.999Z</time></trkpt><trkpt lat="42.172018037506795" lon="13.995135009712705"><ele>733.75</ele><time>2026-04-04T12:55:18.999Z</time></trkpt><trkpt lat="42.17206372016488" lon="13.995294757046429"><ele>734.0</ele><time>2026-04-04T12:55:19.999Z</time></trkpt><trkpt lat="42.17209695638153" lon="13.995466813869529"><ele>734.0</ele><time>2026-04-04T12:55:20.999Z</time></trkpt><trkpt lat="42.17214620968004" lon="13.995595116440283"><ele>734.0</ele><time>2026-04-04T12:55:21.999Z</time></trkpt><trkpt lat="42.172183416861486" lon="13.995732375789512"><ele>734.0</ele><time>2026-04-04T12:55:23.001Z</time></trkpt><trkpt lat="42.17221937925038" lon="13.995872094432746"><ele>734.0</ele><time>2026-04-04T12:55:24.001Z</time></trkpt><trkpt lat="42.17225534193765" lon="13.995989144450053"><ele>734.0</ele><time>2026-04-04T12:55:25.001Z</time></trkpt><trkpt lat="42.17228676970881" lon="13.996094258248512"><ele>734.6</ele><time>2026-04-04T12:55:26.001Z</time></trkpt><trkpt lat="42.17229678295862" lon="13.99621488972956"><ele>735.2</ele><time>2026-04-04T12:55:27.001Z</time></trkpt><trkpt lat="42.172315916289776" lon="13.996340704177838"><ele>735.8000000000001</ele><time>2026-04-04T12:55:28.001Z</time></trkpt><trkpt lat="42.172321321825954" lon="13.996471419032929"><ele>736.4000000000001</ele><time>2026-04-04T12:55:29.001Z</time></trkpt><trkpt lat="42.1723187490254" lon="13.996610275151365"><ele>737.0</ele><time>2026-04-04T12:55:30.001Z</time></trkpt><trkpt lat="42.17231122511241" lon="13.996754868159774"><ele>738.0</ele><time>2026-04-04T12:55:31.001Z</time></trkpt><trkpt lat="42.17230177730308" lon="13.996899626912448"><ele>739.0</ele><time>2026-04-04T12:55:32.001Z</time></trkpt><trkpt lat="42.172292939302366" lon="13.997053412373305"><ele>740.0</ele><time>2026-04-04T12:55:33.001Z</time></trkpt><trkpt lat="42.172285351514134" lon="13.997185443562847"><ele>741.0</ele><time>2026-04-04T12:55:34.001Z</time></trkpt><trkpt lat="42.1722791251531" lon="13.997293785282412"><ele>742.0</ele><time>2026-04-04T12:55:35.001Z</time></trkpt><trkpt lat="42.172274140010856" lon="13.99738052912042"><ele>742.0</ele><time>2026-04-04T12:55:36.001Z</time></trkpt><trkpt lat="42.17226858064056" lon="13.997477264877164"><ele>742.0</ele><time>2026-04-04T12:55:37.001Z</time></trkpt><trkpt lat="42.17227990867322" lon="13.997567853431866"><ele>742.0</ele><time>2026-04-04T12:55:38Z</time></trkpt><trkpt lat="42.172255380876805" lon="13.997737273348303"><ele>742.0</ele><time>2026-04-04T12:55:40Z</time></trkpt><trkpt lat="42.17224198476166" lon="13.99782404804942"><ele>742.0</ele><time>2026-04-04T12:55:41Z</time></trkpt><trkpt lat="42.17221588094233" lon="13.997930829845737"><ele>742.0</ele><time>2026-04-04T12:55:42Z</time></trkpt><trkpt lat="42.17217285160944" lon="13.99803865921282"><ele>743.2</ele><time>2026-04-04T12:55:43Z</time></trkpt><trkpt lat="42.172124134480214" lon="13.998163543873234"><ele>744.4000000000001</ele><time>2026-04-04T12:55:44Z</time></trkpt><trkpt lat="42.17205972710679" lon="13.998282833141637"><ele>745.5999999999999</ele><time>2026-04-04T12:55:45Z</time></trkpt><trkpt lat="42.17200982592163" lon="13.998402799901546"><ele>746.8</ele><time>2026-04-04T12:55:46Z</time></trkpt><trkpt lat="42.17197573586006" lon="13.998521369752924"><ele>748.0</ele><time>2026-04-04T12:55:47Z</time></trkpt><trkpt lat="42.17192997747035" lon="13.998603336682475"><ele>750.0</ele><time>2026-04-04T12:55:48Z</time></trkpt><trkpt lat="42.171889021746026" lon="13.998678936855491"><ele>752.0</ele><time>2026-04-04T12:55:49Z</time></trkpt><trkpt lat="42.17183927158801" lon="13.998799956716086"><ele>754.0</ele><time>2026-04-04T12:55:51Z</time></trkpt><trkpt lat="42.17180729114105" lon="13.998934163867844"><ele>756.0</ele><time>2026-04-04T12:56:14Z</time></trkpt><trkpt lat="42.171784826263135" lon="13.999054933923649"><ele>758.0</ele><time>2026-04-04T12:56:15Z</time></trkpt><trkpt lat="42.171768976308094" lon="13.999168455634349"><ele>760.2</ele><time>2026-04-04T12:56:16Z</time></trkpt><trkpt lat="42.17175841161203" lon="13.99931272495839"><ele>762.4</ele><time>2026-04-04T12:56:17Z</time></trkpt><trkpt lat="42.171746589925284" lon="13.999455880497255"><ele>764.6</ele><time>2026-04-04T12:56:18Z</time></trkpt><trkpt lat="42.17173379128098" lon="13.999616895928865"><ele>766.8000000000001</ele><time>2026-04-04T12:56:19Z</time></trkpt><trkpt lat="42.17170824963383" lon="13.999767048479066"><ele>769.0</ele><time>2026-04-04T12:56:20Z</time></trkpt><trkpt lat="42.171643595639566" lon="13.999885451465234"><ele>769.0</ele><time>2026-04-04T12:56:21Z</time></trkpt><trkpt lat="42.17158607938915" lon="14.000011979801624"><ele>769.0</ele><time>2026-04-04T12:56:22Z</time></trkpt><trkpt lat="42.171460314044715" lon="14.000064245020061"><ele>769.0</ele><time>2026-04-04T12:56:23Z</time></trkpt><trkpt lat="42.171344016229334" lon="14.000160033048463"><ele>769.0</ele><time>2026-04-04T12:56:24Z</time></trkpt><trkpt lat="42.17122023037303" lon="14.000267871166699"><ele>766.0</ele><time>2026-04-04T12:56:25Z</time></trkpt><trkpt lat="42.17109212175232" lon="14.000373036877171"><ele>763.0</ele><time>2026-04-04T12:56:26Z</time></trkpt><trkpt lat="42.17096512673163" lon="14.000478263427759"><ele>760.0</ele><time>2026-04-04T12:56:27Z</time></trkpt><trkpt lat="42.17085121171581" lon="14.000578359268522"><ele>757.0</ele><time>2026-04-04T12:56:28Z</time></trkpt><trkpt lat="42.170747942689175" lon="14.000668883488007"><ele>757.25</ele><time>2026-04-04T12:56:29Z</time></trkpt><trkpt lat="42.17064645000918" lon="14.000749547402052"><ele>757.5</ele><time>2026-04-04T12:56:30Z</time></trkpt><trkpt lat="42.170558629386285" lon="14.000837003527007"><ele>757.75</ele><time>2026-04-04T12:56:31Z</time></trkpt><trkpt lat="42.17048005388931" lon="14.000943668205544"><ele>758.0</ele><time>2026-04-04T12:56:32Z</time></trkpt><trkpt lat="42.17041323024802" lon="14.001076584434108"><ele>758.0</ele><time>2026-04-04T12:56:33Z</time></trkpt><trkpt lat="42.170350041926305" lon="14.001235730661364"><ele>758.0</ele><time>2026-04-04T12:56:34Z</time></trkpt><trkpt lat="42.170290427057694" lon="14.001410284932192"><ele>758.0</ele><time>2026-04-04T12:56:35Z</time></trkpt><trkpt lat="42.1702307569621" lon="14.001585507276996"><ele>758.0</ele><time>2026-04-04T12:56:36Z</time></trkpt><trkpt lat="42.17015770159119" lon="14.001764012800365"><ele>760.5</ele><time>2026-04-04T12:56:36.999Z</time></trkpt><trkpt lat="42.17008878655954" lon="14.001925290667101"><ele>763.0</ele><time>2026-04-04T12:56:37.999Z</time></trkpt><trkpt lat="42.17002740140452" lon="14.002075648429427"><ele>765.5</ele><time>2026-04-04T12:56:38.999Z</time></trkpt><trkpt lat="42.169962036502106" lon="14.002221515747506"><ele>768.0</ele><time>2026-04-04T12:56:39.999Z</time></trkpt><trkpt lat="42.16989810964461" lon="14.002370651852523"><ele>765.5</ele><time>2026-04-04T12:56:40.999Z</time></trkpt><trkpt lat="42.16983991843547" lon="14.002517257747197"><ele>763.0</ele><time>2026-04-04T12:56:41.999Z</time></trkpt><trkpt lat="42.169793869025995" lon="14.002653798381226"><ele>760.5</ele><time>2026-04-04T12:56:42.999Z</time></trkpt><trkpt lat="42.16975814046291" lon="14.002804189824715"><ele>758.0</ele><time>2026-04-04T12:56:43.999Z</time></trkpt><trkpt lat="42.16973092024349" lon="14.00298229883013"><ele>758.0</ele><time>2026-04-04T12:56:44.999Z</time></trkpt><trkpt lat="42.16971886087833" lon="14.003166217956313"><ele>758.0</ele><time>2026-04-04T12:56:45.999Z</time></trkpt><trkpt lat="42.169706247057654" lon="14.003362441561928"><ele>758.0</ele><time>2026-04-04T12:56:46.999Z</time></trkpt><trkpt lat="42.169684339340186" lon="14.003555384982233"><ele>758.0</ele><time>2026-04-04T12:56:47.999Z</time></trkpt><trkpt lat="42.16964355987097" lon="14.003751757200616"><ele>760.75</ele><time>2026-04-04T12:56:48.999Z</time></trkpt><trkpt lat="42.169602942028924" lon="14.003952417592968"><ele>763.5</ele><time>2026-04-04T12:56:49.999Z</time></trkpt><trkpt lat="42.16955842119404" lon="14.004153912486316"><ele>766.25</ele><time>2026-04-04T12:56:50.999Z</time></trkpt><trkpt lat="42.169516774286805" lon="14.004333526418877"><ele>769.0</ele><time>2026-04-04T12:56:51.999Z</time></trkpt><trkpt lat="42.169478501321414" lon="14.004518542530372"><ele>770.25</ele><time>2026-04-04T12:56:52.999Z</time></trkpt><trkpt lat="42.16944012940264" lon="14.004699925878922"><ele>771.5</ele><time>2026-04-04T12:56:53.999Z</time></trkpt><trkpt lat="42.169402489468126" lon="14.004881132779749"><ele>772.75</ele><time>2026-04-04T12:56:54.999Z</time></trkpt><trkpt lat="42.169361680963235" lon="14.005060582918501"><ele>774.0</ele><time>2026-04-04T12:56:55.999Z</time></trkpt><trkpt lat="42.16932505197804" lon="14.00523845523579"><ele>775.5</ele><time>2026-04-04T12:56:56.999Z</time></trkpt><trkpt lat="42.1692845719021" lon="14.005417785801448"><ele>777.0</ele><time>2026-04-04T12:56:57.999Z</time></trkpt><trkpt lat="42.16924751031102" lon="14.00558833064584"><ele>778.5</ele><time>2026-04-04T12:56:58.999Z</time></trkpt><trkpt lat="42.16921008141485" lon="14.005736082943956"><ele>780.0</ele><time>2026-04-04T12:56:59.999Z</time></trkpt><trkpt lat="42.169176815945534" lon="14.005881474153599"><ele>782.75</ele><time>2026-04-04T12:57:00.999Z</time></trkpt><trkpt lat="42.1691535165695" lon="14.006042618579295"><ele>785.5</ele><time>2026-04-04T12:57:01.999Z</time></trkpt><trkpt lat="42.16915407306504" lon="14.006222061011997"><ele>788.25</ele><time>2026-04-04T12:57:02.999Z</time></trkpt><trkpt lat="42.169168252204464" lon="14.00640497953708"><ele>791.0</ele><time>2026-04-04T12:57:03.999Z</time></trkpt><trkpt lat="42.16916432240105" lon="14.00657148501636"><ele>791.5999999999999</ele><time>2026-04-04T12:57:04.999Z</time></trkpt><trkpt lat="42.169167130542036" lon="14.006719333545712"><ele>792.2</ele><time>2026-04-04T12:57:05.999Z</time></trkpt><trkpt lat="42.169165875859846" lon="14.006861637071223"><ele>792.8</ele><time>2026-04-04T12:57:06.999Z</time></trkpt><trkpt lat="42.169124182861005" lon="14.006969173127736"><ele>793.4000000000001</ele><time>2026-04-04T12:57:07.999Z</time></trkpt><trkpt lat="42.16905016801965" lon="14.00705116348539"><ele>794.0</ele><time>2026-04-04T12:57:08.999Z</time></trkpt><trkpt lat="42.1689468634405" lon="14.007122489912884"><ele>789.0</ele><time>2026-04-04T12:57:09.999Z</time></trkpt><trkpt lat="42.16881375756815" lon="14.007222346461225"><ele>784.0</ele><time>2026-04-04T12:57:10.999Z</time></trkpt><trkpt lat="42.16868188884568" lon="14.007319867288283"><ele>779.0</ele><time>2026-04-04T12:57:11.999Z</time></trkpt><trkpt lat="42.168544254531156" lon="14.007420088503387"><ele>778.5</ele><time>2026-04-04T12:57:12.999Z</time></trkpt><trkpt lat="42.168418848309145" lon="14.007521634853353"><ele>778.0</ele><time>2026-04-04T12:57:13.999Z</time></trkpt><trkpt lat="42.16830485658128" lon="14.00760262696348"><ele>777.5</ele><time>2026-04-04T12:57:14.999Z</time></trkpt><trkpt lat="42.16820352605281" lon="14.0076849648431"><ele>777.0</ele><time>2026-04-04T12:57:15.999Z</time></trkpt><trkpt lat="42.16811693547249" lon="14.00777213724278"><ele>777.0</ele><time>2026-04-04T12:57:16.999Z</time></trkpt><trkpt lat="42.16804700064356" lon="14.007871589441919"><ele>777.0</ele><time>2026-04-04T12:57:17.999Z</time></trkpt><trkpt lat="42.16798790116633" lon="14.007968910976723"><ele>777.0</ele><time>2026-04-04T12:57:18.999Z</time></trkpt><trkpt lat="42.16793887089015" lon="14.0080746711696"><ele>777.0</ele><time>2026-04-04T12:57:19.999Z</time></trkpt><trkpt lat="42.16789501913778" lon="14.008197191357041"><ele>777.0</ele><time>2026-04-04T12:57:20.999Z</time></trkpt><trkpt lat="42.167845414530284" lon="14.008341593399841"><ele>779.8</ele><time>2026-04-04T12:57:21.999Z</time></trkpt><trkpt lat="42.167793169699664" lon="14.00848571111111"><ele>782.6</ele><time>2026-04-04T12:57:22.999Z</time></trkpt><trkpt lat="42.16773719736656" lon="14.008621426142135"><ele>785.4</ele><time>2026-04-04T12:57:23.999Z</time></trkpt><trkpt lat="42.16770344120058" lon="14.008760052266362"><ele>788.1999999999999</ele><time>2026-04-04T12:57:24.999Z</time></trkpt><trkpt lat="42.16769773324715" lon="14.00889286926964"><ele>791.0</ele><time>2026-04-04T12:57:25.999Z</time></trkpt><trkpt lat="42.16771585024951" lon="14.00901673859214"><ele>791.0</ele><time>2026-04-04T12:57:26.999Z</time></trkpt><trkpt lat="42.16775876814394" lon="14.009117852612045"><ele>791.0</ele><time>2026-04-04T12:57:27.999Z</time></trkpt><trkpt lat="42.16783347577908" lon="14.009210055001468"><ele>791.0</ele><time>2026-04-04T12:57:29Z</time></trkpt><trkpt lat="42.167943821325316" lon="14.009276856913255"><ele>791.0</ele><time>2026-04-04T12:57:30Z</time></trkpt><trkpt lat="42.168075462260404" lon="14.009334367478797"><ele>791.0</ele><time>2026-04-04T12:57:31Z</time></trkpt><trkpt lat="42.16818963481332" lon="14.009411885466415"><ele>792.8333333333334</ele><time>2026-04-04T12:57:32Z</time></trkpt><trkpt lat="42.168301347158696" lon="14.009477995097035"><ele>794.6666666666667</ele><time>2026-04-04T12:57:33Z</time></trkpt><trkpt lat="42.1683666920299" lon="14.00953189208652"><ele>796.5</ele><time>2026-04-04T12:57:34Z</time></trkpt><trkpt lat="42.16841804222575" lon="14.00963596359686"><ele>798.3333333333333</ele><time>2026-04-04T12:57:36Z</time></trkpt><trkpt lat="42.1683973579191" lon="14.009722281642379"><ele>800.1666666666666</ele><time>2026-04-04T12:57:37Z</time></trkpt><trkpt lat="42.16834517230131" lon="14.009803708578403"><ele>802.0</ele><time>2026-04-04T12:57:38Z</time></trkpt><trkpt lat="42.168272980524186" lon="14.009875522103945"><ele>802.0</ele><time>2026-04-04T12:57:39Z</time></trkpt><trkpt lat="42.16819542458576" lon="14.009955406192509"><ele>802.0</ele><time>2026-04-04T12:57:40Z</time></trkpt><trkpt lat="42.168119373826784" lon="14.010053492905227"><ele>802.0</ele><time>2026-04-04T12:57:41Z</time></trkpt><trkpt lat="42.16806122480546" lon="14.010166073344541"><ele>802.0</ele><time>2026-04-04T12:57:42Z</time></trkpt><trkpt lat="42.16800336818563" lon="14.010281801774317"><ele>802.0</ele><time>2026-04-04T12:57:43Z</time></trkpt><trkpt lat="42.167949002786465" lon="14.01040321579362"><ele>799.2</ele><time>2026-04-04T12:57:44Z</time></trkpt><trkpt lat="42.16789428842937" lon="14.010520120809684"><ele>796.4000000000001</ele><time>2026-04-04T12:57:45Z</time></trkpt><trkpt lat="42.167843830723264" lon="14.010636880464888"><ele>793.5999999999999</ele><time>2026-04-04T12:57:46Z</time></trkpt><trkpt lat="42.167793736573635" lon="14.010744904642603"><ele>790.8</ele><time>2026-04-04T12:57:47Z</time></trkpt><trkpt lat="42.16774753123412" lon="14.010844148271962"><ele>788.0</ele><time>2026-04-04T12:57:48Z</time></trkpt><trkpt lat="42.16770166516857" lon="14.010930107197273"><ele>787.6666666666667</ele><time>2026-04-04T12:57:49Z</time></trkpt><trkpt lat="42.167670814199276" lon="14.011006031243275"><ele>787.3333333333334</ele><time>2026-04-04T12:57:50Z</time></trkpt><trkpt lat="42.16764037995727" lon="14.011113174012294"><ele>787.0</ele><time>2026-04-04T12:57:52Z</time></trkpt><trkpt lat="42.16773308240288" lon="14.011185074503647"><ele>786.6666666666667</ele><time>2026-04-04T12:58:30Z</time></trkpt><trkpt lat="42.16779411331959" lon="14.011244447741717"><ele>786.3333333333334</ele><time>2026-04-04T12:58:31Z</time></trkpt><trkpt lat="42.16784973448217" lon="14.011306993935259"><ele>786.0</ele><time>2026-04-04T12:58:32Z</time></trkpt><trkpt lat="42.16795627077692" lon="14.011390618500291"><ele>786.0</ele><time>2026-04-04T12:58:34Z</time></trkpt><trkpt lat="42.168024964770794" lon="14.011421341592978"><ele>786.0</ele><time>2026-04-04T12:58:35Z</time></trkpt><trkpt lat="42.16809803940893" lon="14.011435698252583"><ele>786.0</ele><time>2026-04-04T12:58:36Z</time></trkpt><trkpt lat="42.16817506022231" lon="14.011428918758204"><ele>786.0</ele><time>2026-04-04T12:58:37Z</time></trkpt><trkpt lat="42.168254384130236" lon="14.011418888643355"><ele>786.0</ele><time>2026-04-04T12:58:38Z</time></trkpt><trkpt lat="42.16834982669039" lon="14.011428722850177"><ele>786.0</ele><time>2026-04-04T12:58:51.999Z</time></trkpt><trkpt lat="42.16842394494977" lon="14.011428651358251"><ele>786.3333333333334</ele><time>2026-04-04T12:58:52.999Z</time></trkpt><trkpt lat="42.168511378874285" lon="14.011435141655415"><ele>786.6666666666667</ele><time>2026-04-04T12:58:53.999Z</time></trkpt><trkpt lat="42.16860249088919" lon="14.011428101076662"><ele>787.0</ele><time>2026-04-04T12:58:54.999Z</time></trkpt><trkpt lat="42.16868010503986" lon="14.011442058106923"><ele>787.3333333333334</ele><time>2026-04-04T12:58:55.999Z</time></trkpt><trkpt lat="42.16876000528889" lon="14.011477341032446"><ele>787.6666666666667</ele><time>2026-04-04T12:58:56.999Z</time></trkpt><trkpt lat="42.1688331390526" lon="14.011491078191781"><ele>788.0</ele><time>2026-04-04T12:58:57.999Z</time></trkpt><trkpt lat="42.168916521062485" lon="14.011518526963119"><ele>788.0</ele><time>2026-04-04T12:58:58.999Z</time></trkpt><trkpt lat="42.16900325942361" lon="14.01157673398417"><ele>788.0</ele><time>2026-04-04T12:58:59.999Z</time></trkpt><trkpt lat="42.169088361861114" lon="14.011666557255499"><ele>788.0</ele><time>2026-04-04T12:59:00.999Z</time></trkpt><trkpt lat="42.169162724494775" lon="14.011778544882846"><ele>788.0</ele><time>2026-04-04T12:59:01.999Z</time></trkpt><trkpt lat="42.16922068314346" lon="14.011902787431275"><ele>788.0</ele><time>2026-04-04T12:59:02.999Z</time></trkpt><trkpt lat="42.16927925471929" lon="14.01203646039161"><ele>785.5999999999999</ele><time>2026-04-04T12:59:03.999Z</time></trkpt><trkpt lat="42.169334897555416" lon="14.012168542568196"><ele>783.1999999999999</ele><time>2026-04-04T12:59:04.999Z</time></trkpt><trkpt lat="42.169393344220204" lon="14.012296122362141"><ele>780.8</ele><time>2026-04-04T12:59:05.999Z</time></trkpt><trkpt lat="42.1694538464752" lon="14.012424025907324"><ele>778.4</ele><time>2026-04-04T12:59:06.999Z</time></trkpt><trkpt lat="42.16951325938716" lon="14.012549626558842"><ele>776.0</ele><time>2026-04-04T12:59:07.999Z</time></trkpt><trkpt lat="42.16956105242802" lon="14.012669548346729"><ele>775.0000000000001</ele><time>2026-04-04T12:59:08.999Z</time></trkpt><trkpt lat="42.169618572619896" lon="14.012769132183406"><ele>774.0</ele><time>2026-04-04T12:59:09.999Z</time></trkpt><trkpt lat="42.169658151403034" lon="14.012867710249344"><ele>773.0</ele><time>2026-04-04T12:59:10.999Z</time></trkpt><trkpt lat="42.16970360754129" lon="14.012960590613977"><ele>772.0</ele><time>2026-04-04T12:59:11.999Z</time></trkpt><trkpt lat="42.16975061962426" lon="14.01304277760169"><ele>771.0000000000001</ele><time>2026-04-04T12:59:12.999Z</time></trkpt><trkpt lat="42.16980343763185" lon="14.013130393616285"><ele>770.0</ele><time>2026-04-04T12:59:13.999Z</time></trkpt><trkpt lat="42.169858976649174" lon="14.01321277694582"><ele>770.0</ele><time>2026-04-04T12:59:14.999Z</time></trkpt><trkpt lat="42.16991585544402" lon="14.013319027281074"><ele>770.0</ele><time>2026-04-04T12:59:15.999Z</time></trkpt><trkpt lat="42.16998661137337" lon="14.013410164645407"><ele>770.0</ele><time>2026-04-04T12:59:16.999Z</time></trkpt><trkpt lat="42.17007469185439" lon="14.013491665149717"><ele>770.0</ele><time>2026-04-04T12:59:17.999Z</time></trkpt><trkpt lat="42.17015255230868" lon="14.013584879604721"><ele>770.0</ele><time>2026-04-04T12:59:18.999Z</time></trkpt><trkpt lat="42.17022589235996" lon="14.013673983050381"><ele>768.0</ele><time>2026-04-04T12:59:19.999Z</time></trkpt><trkpt lat="42.17030808762054" lon="14.013739641222225"><ele>766.0</ele><time>2026-04-04T12:59:20.999Z</time></trkpt><trkpt lat="42.170375243434044" lon="14.013814877688773"><ele>764.0</ele><time>2026-04-04T12:59:21.999Z</time></trkpt><trkpt lat="42.17046133133437" lon="14.013856040417226"><ele>762.0</ele><time>2026-04-04T12:59:22.999Z</time></trkpt><trkpt lat="42.17056547673867" lon="14.013842201400353"><ele>760.0</ele><time>2026-04-04T12:59:23.999Z</time></trkpt><trkpt lat="42.170666291577284" lon="14.013842884795597"><ele>761.8</ele><time>2026-04-04T12:59:24.999Z</time></trkpt><trkpt lat="42.170770944528726" lon="14.013838929607278"><ele>763.6</ele><time>2026-04-04T12:59:25.999Z</time></trkpt><trkpt lat="42.17087465331714" lon="14.013833600798055"><ele>765.4000000000001</ele><time>2026-04-04T12:59:26.999Z</time></trkpt><trkpt lat="42.170985522933165" lon="14.013828311360795"><ele>767.2</ele><time>2026-04-04T12:59:27.999Z</time></trkpt><trkpt lat="42.171091621678606" lon="14.013812189053668"><ele>769.0</ele><time>2026-04-04T12:59:28.999Z</time></trkpt><trkpt lat="42.17120279433406" lon="14.013796657020102"><ele>769.0</ele><time>2026-04-04T12:59:29.999Z</time></trkpt><trkpt lat="42.171311771613155" lon="14.013770407338056"><ele>769.0</ele><time>2026-04-04T12:59:30.999Z</time></trkpt><trkpt lat="42.17142897857948" lon="14.013803010963901"><ele>769.0</ele><time>2026-04-04T12:59:31.999Z</time></trkpt><trkpt lat="42.17154123692293" lon="14.013817754526977"><ele>769.0</ele><time>2026-04-04T12:59:32.999Z</time></trkpt><trkpt lat="42.17165269945068" lon="14.013807417617539"><ele>769.8000000000001</ele><time>2026-04-04T12:59:33.999Z</time></trkpt><trkpt lat="42.171762872373165" lon="14.013816003460294"><ele>770.6</ele><time>2026-04-04T12:59:35Z</time></trkpt><trkpt lat="42.1718629444081" lon="14.013789629838557"><ele>771.4</ele><time>2026-04-04T12:59:36Z</time></trkpt><trkpt lat="42.17196188873914" lon="14.013734013860793"><ele>772.2</ele><time>2026-04-04T12:59:37Z</time></trkpt><trkpt lat="42.172061727090565" lon="14.013674963876682"><ele>773.0</ele><time>2026-04-04T12:59:38Z</time></trkpt><trkpt lat="42.17216676081531" lon="14.013623361590813"><ele>773.0</ele><time>2026-04-04T12:59:39Z</time></trkpt><trkpt lat="42.17227697270285" lon="14.013579511662412"><ele>773.0</ele><time>2026-04-04T12:59:40Z</time></trkpt><trkpt lat="42.172373293357545" lon="14.013546852313416"><ele>773.0</ele><time>2026-04-04T12:59:41Z</time></trkpt><trkpt lat="42.172452255119765" lon="14.013548173837126"><ele>773.0</ele><time>2026-04-04T12:59:43Z</time></trkpt><trkpt lat="42.17253023136891" lon="14.013515890523113"><ele>773.0</ele><time>2026-04-04T13:00:47Z</time></trkpt><trkpt lat="42.172614659133934" lon="14.013498941131806"><ele>772.3333333333334</ele><time>2026-04-04T13:00:48.999Z</time></trkpt><trkpt lat="42.172724783275065" lon="14.013492949264801"><ele>771.6666666666667</ele><time>2026-04-04T13:00:50.999Z</time></trkpt><trkpt lat="42.1728156280598" lon="14.013457674308459"><ele>771.0</ele><time>2026-04-04T13:00:52.999Z</time></trkpt><trkpt lat="42.17287848128094" lon="14.01341108822637"><ele>770.3333333333333</ele><time>2026-04-04T13:00:54.999Z</time></trkpt><trkpt lat="42.172952829054104" lon="14.013366489595727"><ele>769.6666666666666</ele><time>2026-04-04T13:00:56.999Z</time></trkpt><trkpt lat="42.17303481757265" lon="14.013328040742083"><ele>769.0</ele><time>2026-04-04T13:00:58.999Z</time></trkpt><trkpt lat="42.173137557997684" lon="14.01328361684819"><ele>771.9999999999999</ele><time>2026-04-04T13:01:00.999Z</time></trkpt><trkpt lat="42.17324354950194" lon="14.013257392790823"><ele>775.0</ele><time>2026-04-04T13:01:02.999Z</time></trkpt><trkpt lat="42.173326671831916" lon="14.013217039247861"><ele>778.0</ele><time>2026-04-04T13:01:05.999Z</time></trkpt><trkpt lat="42.17340422232071" lon="14.013188668432557"><ele>781.0</ele><time>2026-04-04T13:01:47Z</time></trkpt><trkpt lat="42.17347400655587" lon="14.01314193591866"><ele>783.9999999999999</ele><time>2026-04-04T13:01:48Z</time></trkpt><trkpt lat="42.17355087109927" lon="14.013082644512043"><ele>787.0</ele><time>2026-04-04T13:01:49Z</time></trkpt><trkpt lat="42.173613798981506" lon="14.01303226390004"><ele>786.9999999999999</ele><time>2026-04-04T13:01:50Z</time></trkpt><trkpt lat="42.17367171342242" lon="14.012988360848412"><ele>787.0</ele><time>2026-04-04T13:01:51Z</time></trkpt><trkpt lat="42.17373836733243" lon="14.01294096634237"><ele>787.0</ele><time>2026-04-04T13:01:52Z</time></trkpt><trkpt lat="42.17381642199569" lon="14.012907494951842"><ele>787.0</ele><time>2026-04-04T13:01:53Z</time></trkpt><trkpt lat="42.17389463823409" lon="14.012874355585136"><ele>786.9999999999999</ele><time>2026-04-04T13:01:54Z</time></trkpt><trkpt lat="42.17396155736821" lon="14.012842396839996"><ele>787.0</ele><time>2026-04-04T13:01:55Z</time></trkpt><trkpt lat="42.174031960232305" lon="14.012809149757938"><ele>788.1666666666666</ele><time>2026-04-04T13:01:56Z</time></trkpt><trkpt lat="42.17410290825583" lon="14.012775989711072"><ele>789.3333333333333</ele><time>2026-04-04T13:01:57Z</time></trkpt><trkpt lat="42.174174115635985" lon="14.01274136300609"><ele>790.5</ele><time>2026-04-04T13:01:58Z</time></trkpt><trkpt lat="42.174245695336346" lon="14.012688575674524"><ele>791.6666666666667</ele><time>2026-04-04T13:01:59Z</time></trkpt><trkpt lat="42.174309544564125" lon="14.012612709453336"><ele>792.8333333333334</ele><time>2026-04-04T13:02:00Z</time></trkpt><trkpt lat="42.17436083609887" lon="14.012522135002865"><ele>794.0</ele><time>2026-04-04T13:02:01Z</time></trkpt><trkpt lat="42.17442809594067" lon="14.012433862542222"><ele>794.0000000000001</ele><time>2026-04-04T13:02:02Z</time></trkpt><trkpt lat="42.174470714998996" lon="14.012327308739012"><ele>794.0</ele><time>2026-04-04T13:02:03Z</time></trkpt><trkpt lat="42.17453205711477" lon="14.012235807038508"><ele>794.0</ele><time>2026-04-04T13:02:04Z</time></trkpt><trkpt lat="42.17461514588035" lon="14.012168284728245"><ele>794.0</ele><time>2026-04-04T13:02:05Z</time></trkpt><trkpt lat="42.17466235354837" lon="14.012074112445484"><ele>794.0000000000001</ele><time>2026-04-04T13:02:06Z</time></trkpt><trkpt lat="42.17471353040696" lon="14.01199608636572"><ele>794.0</ele><time>2026-04-04T13:02:07Z</time></trkpt><trkpt lat="42.174750317211874" lon="14.011908307125326"><ele>794.0000000000001</ele><time>2026-04-04T13:02:08Z</time></trkpt><trkpt lat="42.17480458261685" lon="14.011801273712534"><ele>794.0</ele><time>2026-04-04T13:02:09Z</time></trkpt><trkpt lat="42.174864613122004" lon="14.011719704418818"><ele>794.0</ele><time>2026-04-04T13:02:10Z</time></trkpt><trkpt lat="42.17490953597242" lon="14.011615862181767"><ele>794.0</ele><time>2026-04-04T13:02:11Z</time></trkpt><trkpt lat="42.174944484189155" lon="14.011514394156857"><ele>794.0000000000001</ele><time>2026-04-04T13:02:12Z</time></trkpt><trkpt lat="42.17495605169578" lon="14.01140196048364"><ele>794.0</ele><time>2026-04-04T13:02:13Z</time></trkpt><trkpt lat="42.174975705660124" lon="14.011313796094207"><ele>792.2</ele><time>2026-04-04T13:02:14Z</time></trkpt><trkpt lat="42.175006277159106" lon="14.011175619676605"><ele>790.4000000000001</ele><time>2026-04-04T13:02:16Z</time></trkpt><trkpt lat="42.17509244026512" lon="14.01110029340423"><ele>788.6</ele><time>2026-04-04T13:02:18Z</time></trkpt><trkpt lat="42.17519002925839" lon="14.01112392195883"><ele>786.8</ele><time>2026-04-04T13:02:20Z</time></trkpt><trkpt lat="42.175231854916035" lon="14.011279654293675"><ele>785.0</ele><time>2026-04-04T13:02:22Z</time></trkpt><trkpt lat="42.17526859200753" lon="14.01143139657619"><ele>785.0000000000001</ele><time>2026-04-04T13:02:24Z</time></trkpt><trkpt lat="42.1753079418459" lon="14.011577562186428"><ele>785.0</ele><time>2026-04-04T13:02:26Z</time></trkpt><trkpt lat="42.17538139151405" lon="14.011651834091056"><ele>785.0</ele><time>2026-04-04T13:02:28Z</time></trkpt><trkpt lat="42.175320157091264" lon="14.011603509750577"><ele>785.0</ele><time>2026-04-04T13:09:00.999Z</time></trkpt><trkpt lat="42.17536921420754" lon="14.011658753394617"><ele>785.0000000000001</ele><time>2026-04-04T13:10:39.999Z</time></trkpt><trkpt lat="42.175437988369154" lon="14.011653544697364"><ele>785.0</ele><time>2026-04-04T13:11:27.999Z</time></trkpt><trkpt lat="42.17552037755614" lon="14.011636257727126"><ele>785.0000000000001</ele><time>2026-04-04T13:11:28.999Z</time></trkpt><trkpt lat="42.17559453351414" lon="14.011623245307332"><ele>785.0</ele><time>2026-04-04T13:11:29.999Z</time></trkpt><trkpt lat="42.17566947307952" lon="14.011607384402605"><ele>785.0</ele><time>2026-04-04T13:11:30.999Z</time></trkpt><trkpt lat="42.175759090375365" lon="14.011586552633933"><ele>785.0</ele><time>2026-04-04T13:11:35.999Z</time></trkpt><trkpt lat="42.17584410016969" lon="14.011574155700213"><ele>785.0000000000001</ele><time>2026-04-04T13:11:38.998Z</time></trkpt><trkpt lat="42.17591461088372" lon="14.01156370460393"><ele>785.0</ele><time>2026-04-04T13:11:40.998Z</time></trkpt><trkpt lat="42.17598473122142" lon="14.011584198092493"><ele>784.0000000000001</ele><time>2026-04-04T13:11:42.998Z</time></trkpt><trkpt lat="42.17607745082094" lon="14.011625001304957"><ele>783.0</ele><time>2026-04-04T13:11:45.998Z</time></trkpt><trkpt lat="42.17613453221707" lon="14.01166758954729"><ele>782.0</ele><time>2026-04-04T13:11:47.998Z</time></trkpt><trkpt lat="42.17619791121156" lon="14.011683101315029"><ele>781.0</ele><time>2026-04-04T13:11:50.998Z</time></trkpt><trkpt lat="42.176118649761" lon="14.011642579443045"><ele>780.0000000000001</ele><time>2026-04-04T13:11:57.998Z</time></trkpt><trkpt lat="42.17601440953992" lon="14.011620102321942"><ele>779.0</ele><time>2026-04-04T13:11:59.998Z</time></trkpt><trkpt lat="42.17595906105113" lon="14.011578095902061"><ele>779.0000000000001</ele><time>2026-04-04T13:12:00.998Z</time></trkpt><trkpt lat="42.17588941224263" lon="14.011563122700295"><ele>779.0</ele><time>2026-04-04T13:12:01.998Z</time></trkpt><trkpt lat="42.17581117944929" lon="14.011558927837362"><ele>779.0</ele><time>2026-04-04T13:12:02.998Z</time></trkpt><trkpt lat="42.17573831882319" lon="14.011553692592766"><ele>779.0</ele><time>2026-04-04T13:12:03.998Z</time></trkpt><trkpt lat="42.17565695097532" lon="14.01160270917686"><ele>779.0000000000001</ele><time>2026-04-04T13:12:04.998Z</time></trkpt><trkpt lat="42.175570230512385" lon="14.011614927438588"><ele>779.0</ele><time>2026-04-04T13:12:06.999Z</time></trkpt><trkpt lat="42.17548185438594" lon="14.011649257419203"><ele>780.0000000000001</ele><time>2026-04-04T13:12:08.999Z</time></trkpt><trkpt lat="42.175411544892185" lon="14.011637545312546"><ele>781.0</ele><time>2026-04-04T13:12:11Z</time></trkpt><trkpt lat="42.175334340403744" lon="14.011646773689092"><ele>782.0</ele><time>2026-04-04T13:12:14Z</time></trkpt><trkpt lat="42.1752996235799" lon="14.011446442472572"><ele>783.0</ele><time>2026-04-04T13:12:15.999Z</time></trkpt><trkpt lat="42.17528238399842" lon="14.011363348535019"><ele>784.0000000000001</ele><time>2026-04-04T13:12:16.999Z</time></trkpt><trkpt lat="42.17525900814266" lon="14.011278277804584"><ele>785.0</ele><time>2026-04-04T13:12:17.999Z</time></trkpt><trkpt lat="42.17521524818001" lon="14.011141309829544"><ele>785.0000000000001</ele><time>2026-04-04T13:12:19.999Z</time></trkpt><trkpt lat="42.1751508216039" lon="14.011079670095114"><ele>785.0</ele><time>2026-04-04T13:12:21.999Z</time></trkpt><trkpt lat="42.17505560156461" lon="14.01110605749618"><ele>785.0</ele><time>2026-04-04T13:12:23.999Z</time></trkpt><trkpt lat="42.17499648236091" lon="14.011215001401647"><ele>785.0</ele><time>2026-04-04T13:12:25.999Z</time></trkpt><trkpt lat="42.174976945940365" lon="14.011303580828097"><ele>785.0000000000001</ele><time>2026-04-04T13:12:26.999Z</time></trkpt><trkpt lat="42.174954441921294" lon="14.011393772741785"><ele>785.0</ele><time>2026-04-04T13:12:27.999Z</time></trkpt><trkpt lat="42.1749177563825" lon="14.011538066500448"><ele>784.2</ele><time>2026-04-04T13:12:29.999Z</time></trkpt><trkpt lat="42.17486457933713" lon="14.011682809697795"><ele>783.4</ele><time>2026-04-04T13:12:31.999Z</time></trkpt><trkpt lat="42.174801637054564" lon="14.011819010511262"><ele>782.5999999999999</ele><time>2026-04-04T13:12:33.999Z</time></trkpt><trkpt lat="42.17473303341088" lon="14.011942159268276"><ele>781.8</ele><time>2026-04-04T13:12:35.999Z</time></trkpt><trkpt lat="42.17469714627642" lon="14.012012079928162"><ele>781.0</ele><time>2026-04-04T13:12:36.999Z</time></trkpt><trkpt lat="42.17461867006829" lon="14.01213767330972"><ele>780.7142857142858</ele><time>2026-04-04T13:12:38.999Z</time></trkpt><trkpt lat="42.17457002991601" lon="14.012196135648903"><ele>780.4285714285714</ele><time>2026-04-04T13:12:39.999Z</time></trkpt><trkpt lat="42.174522437189864" lon="14.01225631801872"><ele>780.1428571428571</ele><time>2026-04-04T13:12:40.999Z</time></trkpt><trkpt lat="42.1744754384253" lon="14.012321544810712"><ele>779.8571428571429</ele><time>2026-04-04T13:12:41.999Z</time></trkpt><trkpt lat="42.17443247904752" lon="14.012390081226435"><ele>779.5714285714286</ele><time>2026-04-04T13:12:42.999Z</time></trkpt><trkpt lat="42.17439024679968" lon="14.01246324045975"><ele>779.2857142857143</ele><time>2026-04-04T13:12:43.999Z</time></trkpt><trkpt lat="42.17434824996406" lon="14.012537628131625"><ele>779.0</ele><time>2026-04-04T13:12:44.999Z</time></trkpt><trkpt lat="42.174304925833574" lon="14.012607641519097"><ele>779.0000000000001</ele><time>2026-04-04T13:12:45.999Z</time></trkpt><trkpt lat="42.17425420696562" lon="14.012671836003388"><ele>779.0</ele><time>2026-04-04T13:12:46.999Z</time></trkpt><trkpt lat="42.17417915140538" lon="14.012694767976587"><ele>779.0</ele><time>2026-04-04T13:12:47.999Z</time></trkpt><trkpt lat="42.17411756127478" lon="14.012730760086862"><ele>779.0</ele><time>2026-04-04T13:12:48.999Z</time></trkpt><trkpt lat="42.17405695880069" lon="14.012765475158968"><ele>779.0</ele><time>2026-04-04T13:12:49.999Z</time></trkpt><trkpt lat="42.17399524302105" lon="14.01279767857525"><ele>779.0000000000001</ele><time>2026-04-04T13:12:50.999Z</time></trkpt><trkpt lat="42.17393461205082" lon="14.012824485273372"><ele>779.0</ele><time>2026-04-04T13:12:51.999Z</time></trkpt><trkpt lat="42.17387409849418" lon="14.012851159280519"><ele>780.6</ele><time>2026-04-04T13:12:52.999Z</time></trkpt><trkpt lat="42.173761977769665" lon="14.012903514842119"><ele>782.2</ele><time>2026-04-04T13:12:54.999Z</time></trkpt><trkpt lat="42.17370130652197" lon="14.012931669124914"><ele>783.8000000000001</ele><time>2026-04-04T13:12:55.999Z</time></trkpt><trkpt lat="42.17358165797109" lon="14.013009262373023"><ele>785.4000000000001</ele><time>2026-04-04T13:12:57.999Z</time></trkpt><trkpt lat="42.17353312301154" lon="14.01307742196654"><ele>787.0</ele><time>2026-04-04T13:12:58.999Z</time></trkpt><trkpt lat="42.17347164309122" lon="14.013123769019147"><ele>787.0</ele><time>2026-04-04T13:12:59.999Z</time></trkpt><trkpt lat="42.173409832308884" lon="14.013142652001985"><ele>787.0</ele><time>2026-04-04T13:13:00.999Z</time></trkpt><trkpt lat="42.173347776135465" lon="14.013178083740772"><ele>787.0</ele><time>2026-04-04T13:13:01.999Z</time></trkpt><trkpt lat="42.173288400463015" lon="14.013208958775495"><ele>787.0</ele><time>2026-04-04T13:13:02.999Z</time></trkpt><trkpt lat="42.17322843190411" lon="14.01323941727716"><ele>787.0</ele><time>2026-04-04T13:13:03.999Z</time></trkpt><trkpt lat="42.17316456451959" lon="14.01327709705672"><ele>787.0</ele><time>2026-04-04T13:13:04.999Z</time></trkpt><trkpt lat="42.1731011482474" lon="14.013311166926428"><ele>787.0</ele><time>2026-04-04T13:13:05.999Z</time></trkpt><trkpt lat="42.17303474829207" lon="14.013335322996287"><ele>783.4000000000001</ele><time>2026-04-04T13:13:06.999Z</time></trkpt><trkpt lat="42.17292109056479" lon="14.01339533064366"><ele>779.8000000000001</ele><time>2026-04-04T13:13:08.999Z</time></trkpt><trkpt lat="42.17285599304217" lon="14.013409677349605"><ele>776.2</ele><time>2026-04-04T13:13:09.999Z</time></trkpt><trkpt lat="42.17273485490421" lon="14.013464194035805"><ele>772.6</ele><time>2026-04-04T13:13:11.999Z</time></trkpt><trkpt lat="42.17267130042296" lon="14.013483082890966"><ele>769.0</ele><time>2026-04-04T13:13:12.999Z</time></trkpt><trkpt lat="42.17259431861311" lon="14.01349574962624"><ele>768.9999999999999</ele><time>2026-04-04T13:13:13.999Z</time></trkpt><trkpt lat="42.17251761828264" lon="14.013499919978337"><ele>769.0</ele><time>2026-04-04T13:13:14.999Z</time></trkpt><trkpt lat="42.172430987865404" lon="14.013509689564714"><ele>769.0</ele><time>2026-04-04T13:13:15.999Z</time></trkpt><trkpt lat="42.17234252650731" lon="14.013528401933616"><ele>769.0</ele><time>2026-04-04T13:13:16.999Z</time></trkpt><trkpt lat="42.17225300017374" lon="14.013555165095568"><ele>768.9999999999999</ele><time>2026-04-04T13:13:17.999Z</time></trkpt><trkpt lat="42.17216794218912" lon="14.013584464767314"><ele>769.0</ele><time>2026-04-04T13:13:18.999Z</time></trkpt><trkpt lat="42.17208677333133" lon="14.013621224474548"><ele>769.6666666666666</ele><time>2026-04-04T13:13:19.999Z</time></trkpt><trkpt lat="42.1720192451385" lon="14.013657648303342"><ele>770.3333333333333</ele><time>2026-04-04T13:13:20.999Z</time></trkpt><trkpt lat="42.17195784670225" lon="14.013718936126576"><ele>771.0</ele><time>2026-04-04T13:13:21.999Z</time></trkpt><trkpt lat="42.17187829970963" lon="14.013734103897221"><ele>771.6666666666667</ele><time>2026-04-04T13:13:22.999Z</time></trkpt><trkpt lat="42.171790546256005" lon="14.01376214835805"><ele>772.3333333333334</ele><time>2026-04-04T13:13:23.999Z</time></trkpt><trkpt lat="42.171698688434816" lon="14.013779202052394"><ele>773.0</ele><time>2026-04-04T13:13:24.999Z</time></trkpt><trkpt lat="42.17161092285436" lon="14.013781506754546"><ele>772.3333333333334</ele><time>2026-04-04T13:13:25.999Z</time></trkpt><trkpt lat="42.17152201461643" lon="14.013770223007699"><ele>771.6666666666667</ele><time>2026-04-04T13:13:26.999Z</time></trkpt><trkpt lat="42.1714362181095" lon="14.013758974243855"><ele>771.0</ele><time>2026-04-04T13:13:27.999Z</time></trkpt><trkpt lat="42.17135328422758" lon="14.0137494943637"><ele>770.3333333333333</ele><time>2026-04-04T13:13:28.999Z</time></trkpt><trkpt lat="42.17126580546007" lon="14.013751082850208"><ele>769.6666666666666</ele><time>2026-04-04T13:13:29.999Z</time></trkpt><trkpt lat="42.17117734074414" lon="14.013767077428692"><ele>769.0</ele><time>2026-04-04T13:13:30.999Z</time></trkpt><trkpt lat="42.17108748086082" lon="14.013784429829451"><ele>769.0</ele><time>2026-04-04T13:13:31.999Z</time></trkpt><trkpt lat="42.170997884056646" lon="14.013797731912167"><ele>769.0</ele><time>2026-04-04T13:13:32.999Z</time></trkpt><trkpt lat="42.17090603735035" lon="14.013802482635379"><ele>769.0</ele><time>2026-04-04T13:13:33.999Z</time></trkpt><trkpt lat="42.17081166878638" lon="14.013806807102648"><ele>769.0</ele><time>2026-04-04T13:13:34.999Z</time></trkpt><trkpt lat="42.170723128475004" lon="14.013809775763415"><ele>769.0</ele><time>2026-04-04T13:13:35.999Z</time></trkpt><trkpt lat="42.1706350021557" lon="14.013812730543249"><ele>767.4999999999999</ele><time>2026-04-04T13:13:36.999Z</time></trkpt><trkpt lat="42.17054965112798" lon="14.013812729859646"><ele>766.0</ele><time>2026-04-04T13:13:37.999Z</time></trkpt><trkpt lat="42.17047197258524" lon="14.013826730639755"><ele>764.5</ele><time>2026-04-04T13:13:38.999Z</time></trkpt><trkpt lat="42.170395683738406" lon="14.013781707790562"><ele>763.0</ele><time>2026-04-04T13:13:39.999Z</time></trkpt><trkpt lat="42.170326303421135" lon="14.013730700433758"><ele>761.5</ele><time>2026-04-04T13:13:40.999Z</time></trkpt><trkpt lat="42.17026122673387" lon="14.01366568006004"><ele>760.0</ele><time>2026-04-04T13:13:41.999Z</time></trkpt><trkpt lat="42.17019449244823" lon="14.013593364045486"><ele>760.0</ele><time>2026-04-04T13:13:42.999Z</time></trkpt><trkpt lat="42.17011909861486" lon="14.013509743176979"><ele>760.0</ele><time>2026-04-04T13:13:43.999Z</time></trkpt><trkpt lat="42.17003881413766" lon="14.01343789039809"><ele>760.0</ele><time>2026-04-04T13:13:44.999Z</time></trkpt><trkpt lat="42.16997329545176" lon="14.013331523422327"><ele>760.0</ele><time>2026-04-04T13:13:45.999Z</time></trkpt><trkpt lat="42.16990073830978" lon="14.013235196077593"><ele>760.0</ele><time>2026-04-04T13:13:46.999Z</time></trkpt><trkpt lat="42.16983133913384" lon="14.013134792155574"><ele>761.6</ele><time>2026-04-04T13:13:47.999Z</time></trkpt><trkpt lat="42.169775781232985" lon="14.013044611098975"><ele>763.2</ele><time>2026-04-04T13:13:48.999Z</time></trkpt><trkpt lat="42.169717255358556" lon="14.012942430843179"><ele>764.8</ele><time>2026-04-04T13:13:49.999Z</time></trkpt><trkpt lat="42.169660699066874" lon="14.012820268443013"><ele>766.4</ele><time>2026-04-04T13:13:50.999Z</time></trkpt><trkpt lat="42.16960415074614" lon="14.012684061037008"><ele>768.0</ele><time>2026-04-04T13:13:51.999Z</time></trkpt><trkpt lat="42.1695470819753" lon="14.01253922180311"><ele>770.0</ele><time>2026-04-04T13:13:52.999Z</time></trkpt><trkpt lat="42.16946579133049" lon="14.012405754773493"><ele>772.0</ele><time>2026-04-04T13:13:53.999Z</time></trkpt><trkpt lat="42.16939995271091" lon="14.012267119274805"><ele>774.0</ele><time>2026-04-04T13:13:54.999Z</time></trkpt><trkpt lat="42.169358327864984" lon="14.012133727849285"><ele>776.0</ele><time>2026-04-04T13:13:55.999Z</time></trkpt><trkpt lat="42.169309342578735" lon="14.01201731416646"><ele>776.0</ele><time>2026-04-04T13:13:56.999Z</time></trkpt><trkpt lat="42.16924501420813" lon="14.011911293912686"><ele>776.0</ele><time>2026-04-04T13:13:57.999Z</time></trkpt><trkpt lat="42.169201199808384" lon="14.011776117142475"><ele>776.0</ele><time>2026-04-04T13:13:58.999Z</time></trkpt><trkpt lat="42.16912296295489" lon="14.011676263793937"><ele>776.0</ele><time>2026-04-04T13:13:59.999Z</time></trkpt><trkpt lat="42.169047419777655" lon="14.011576243977403"><ele>776.0</ele><time>2026-04-04T13:14:00.999Z</time></trkpt><trkpt lat="42.16897052314984" lon="14.011515291261272"><ele>778.4</ele><time>2026-04-04T13:14:01.999Z</time></trkpt><trkpt lat="42.168876706454505" lon="14.011463801516594"><ele>780.8</ele><time>2026-04-04T13:14:02.999Z</time></trkpt><trkpt lat="42.16877312484168" lon="14.011431259203151"><ele>783.1999999999999</ele><time>2026-04-04T13:14:03.999Z</time></trkpt><trkpt lat="42.16867696087392" lon="14.01142867392187"><ele>785.5999999999999</ele><time>2026-04-04T13:14:04.999Z</time></trkpt><trkpt lat="42.16857547732884" lon="14.011398200228868"><ele>788.0</ele><time>2026-04-04T13:14:05.999Z</time></trkpt><trkpt lat="42.16846990154748" lon="14.011383967769568"><ele>788.0</ele><time>2026-04-04T13:14:06.999Z</time></trkpt><trkpt lat="42.16835620396481" lon="14.011397957016877"><ele>788.0</ele><time>2026-04-04T13:14:07.999Z</time></trkpt><trkpt lat="42.16825193059956" lon="14.011399106118"><ele>788.0</ele><time>2026-04-04T13:14:08.999Z</time></trkpt><trkpt lat="42.16815624688944" lon="14.011406013350976"><ele>788.0</ele><time>2026-04-04T13:14:09.999Z</time></trkpt><trkpt lat="42.16805901779544" lon="14.011410589388682"><ele>788.0</ele><time>2026-04-04T13:14:10.999Z</time></trkpt><trkpt lat="42.16797297455321" lon="14.011395833484059"><ele>787.6666666666667</ele><time>2026-04-04T13:14:11.999Z</time></trkpt><trkpt lat="42.16789095319436" lon="14.011352558259068"><ele>787.3333333333334</ele><time>2026-04-04T13:14:13Z</time></trkpt><trkpt lat="42.16783905120135" lon="14.011250090721184"><ele>787.0</ele><time>2026-04-04T13:14:14Z</time></trkpt><trkpt lat="42.16777991082325" lon="14.01118132711009"><ele>786.6666666666667</ele><time>2026-04-04T13:14:15Z</time></trkpt><trkpt lat="42.16771588574755" lon="14.011081648616422"><ele>786.3333333333334</ele><time>2026-04-04T13:14:17Z</time></trkpt><trkpt lat="42.167726258008656" lon="14.010966036642442"><ele>786.0</ele><time>2026-04-04T13:14:19Z</time></trkpt><trkpt lat="42.167757122620856" lon="14.010858667022383"><ele>786.4</ele><time>2026-04-04T13:14:20Z</time></trkpt><trkpt lat="42.16780523830811" lon="14.0107416006094"><ele>786.8</ele><time>2026-04-04T13:14:21Z</time></trkpt><trkpt lat="42.167868471647765" lon="14.010613181861922"><ele>787.1999999999999</ele><time>2026-04-04T13:14:22Z</time></trkpt><trkpt lat="42.1679302544714" lon="14.010488758661023"><ele>787.5999999999999</ele><time>2026-04-04T13:14:23Z</time></trkpt><trkpt lat="42.16798178569702" lon="14.010380956666774"><ele>788.0</ele><time>2026-04-04T13:14:24Z</time></trkpt><trkpt lat="42.16802015535085" lon="14.010287368778108"><ele>788.0000000000001</ele><time>2026-04-04T13:14:25Z</time></trkpt><trkpt lat="42.16806671531578" lon="14.010203342210012"><ele>788.0</ele><time>2026-04-04T13:14:26Z</time></trkpt><trkpt lat="42.16809853336168" lon="14.010129373869873"><ele>788.0</ele><time>2026-04-04T13:14:27Z</time></trkpt><trkpt lat="42.16814052403666" lon="14.01006393676578"><ele>788.0</ele><time>2026-04-04T13:14:28Z</time></trkpt><trkpt lat="42.1682202095365" lon="14.009944667637063"><ele>788.0000000000001</ele><time>2026-04-04T13:14:30Z</time></trkpt><trkpt lat="42.16828864031342" lon="14.009897595952884"><ele>788.0</ele><time>2026-04-04T13:14:31Z</time></trkpt><trkpt lat="42.16833627430966" lon="14.009806659387852"><ele>788.3333333333334</ele><time>2026-04-04T13:14:32Z</time></trkpt><trkpt lat="42.16838521498729" lon="14.009743364950229"><ele>788.6666666666667</ele><time>2026-04-04T13:14:33Z</time></trkpt><trkpt lat="42.168434381714654" lon="14.009637558474566"><ele>789.0</ele><time>2026-04-04T13:14:35Z</time></trkpt><trkpt lat="42.16839135628544" lon="14.009490654431904"><ele>789.3333333333333</ele><time>2026-04-04T13:14:37Z</time></trkpt><trkpt lat="42.16830908232733" lon="14.009448473945305"><ele>789.6666666666666</ele><time>2026-04-04T13:14:38Z</time></trkpt><trkpt lat="42.168236734013455" lon="14.009404204794706"><ele>790.0</ele><time>2026-04-04T13:14:39Z</time></trkpt><trkpt lat="42.16815987425589" lon="14.009359080042973"><ele>790.0</ele><time>2026-04-04T13:14:40Z</time></trkpt><trkpt lat="42.16808077277369" lon="14.009317003131656"><ele>790.0</ele><time>2026-04-04T13:14:41Z</time></trkpt><trkpt lat="42.16800539112126" lon="14.009271859802988"><ele>790.0</ele><time>2026-04-04T13:14:42Z</time></trkpt><trkpt lat="42.1679192129965" lon="14.009218661727155"><ele>790.0</ele><time>2026-04-04T13:14:43Z</time></trkpt><trkpt lat="42.167818666844866" lon="14.00913086294948"><ele>790.0</ele><time>2026-04-04T13:14:44Z</time></trkpt><trkpt lat="42.16775007686462" lon="14.0090439922109"><ele>790.1666666666666</ele><time>2026-04-04T13:14:46Z</time></trkpt><trkpt lat="42.16773327833331" lon="14.008959962617636"><ele>790.3333333333333</ele><time>2026-04-04T13:14:47Z</time></trkpt><trkpt lat="42.16772067138369" lon="14.008861157928687"><ele>790.5</ele><time>2026-04-04T13:14:48Z</time></trkpt><trkpt lat="42.16772424461891" lon="14.008740303544188"><ele>790.6666666666667</ele><time>2026-04-04T13:14:49Z</time></trkpt><trkpt lat="42.167768108654265" lon="14.008629252185305"><ele>790.8333333333334</ele><time>2026-04-04T13:14:50Z</time></trkpt><trkpt lat="42.1677942633497" lon="14.00849573112983"><ele>791.0</ele><time>2026-04-04T13:14:51Z</time></trkpt><trkpt lat="42.167841660722644" lon="14.008366921066122"><ele>788.6666666666667</ele><time>2026-04-04T13:14:52Z</time></trkpt><trkpt lat="42.16788555117909" lon="14.008256700746152"><ele>786.3333333333334</ele><time>2026-04-04T13:14:53Z</time></trkpt><trkpt lat="42.16792601282843" lon="14.00815434372712"><ele>784.0</ele><time>2026-04-04T13:14:54Z</time></trkpt><trkpt lat="42.16797026837368" lon="14.008050065401743"><ele>781.6666666666667</ele><time>2026-04-04T13:14:55Z</time></trkpt><trkpt lat="42.168011805941944" lon="14.007961180564813"><ele>779.3333333333334</ele><time>2026-04-04T13:14:56Z</time></trkpt><trkpt lat="42.168079601133535" lon="14.007878554854694"><ele>777.0</ele><time>2026-04-04T13:14:57Z</time></trkpt><trkpt lat="42.168131245667546" lon="14.00777216247904"><ele>777.4000000000001</ele><time>2026-04-04T13:14:58Z</time></trkpt><trkpt lat="42.168212257330886" lon="14.007718853694772"><ele>777.8000000000001</ele><time>2026-04-04T13:14:59Z</time></trkpt><trkpt lat="42.168291509888725" lon="14.007655263605066"><ele>778.2</ele><time>2026-04-04T13:14:59.999Z</time></trkpt><trkpt lat="42.16837806248834" lon="14.007590395032983"><ele>778.6</ele><time>2026-04-04T13:15:00.999Z</time></trkpt><trkpt lat="42.16846981910881" lon="14.007524350176995"><ele>779.0</ele><time>2026-04-04T13:15:01.999Z</time></trkpt><trkpt lat="42.16856056179708" lon="14.007448274184856"><ele>779.0</ele><time>2026-04-04T13:15:02.999Z</time></trkpt><trkpt lat="42.16864822459226" lon="14.007378349065052"><ele>779.0</ele><time>2026-04-04T13:15:03.999Z</time></trkpt><trkpt lat="42.16873687574705" lon="14.00730854815299"><ele>779.0</ele><time>2026-04-04T13:15:04.999Z</time></trkpt><trkpt lat="42.16883103902246" lon="14.007260643970021"><ele>779.0</ele><time>2026-04-04T13:15:05.999Z</time></trkpt><trkpt lat="42.168921699991564" lon="14.00719204776075"><ele>779.0</ele><time>2026-04-04T13:15:06.999Z</time></trkpt><trkpt lat="42.169002935315284" lon="14.007132272225226"><ele>781.4000000000001</ele><time>2026-04-04T13:15:07.999Z</time></trkpt><trkpt lat="42.1690633669926" lon="14.007061130078162"><ele>783.8</ele><time>2026-04-04T13:15:08.999Z</time></trkpt><trkpt lat="42.16912779185263" lon="14.006989867202611"><ele>786.2</ele><time>2026-04-04T13:15:09.999Z</time></trkpt><trkpt lat="42.169180191878915" lon="14.00689490039456"><ele>788.5999999999999</ele><time>2026-04-04T13:15:10.999Z</time></trkpt><trkpt lat="42.169205834828254" lon="14.006769586919837"><ele>791.0</ele><time>2026-04-04T13:15:11.999Z</time></trkpt><trkpt lat="42.16920809740093" lon="14.006629891440689"><ele>791.0</ele><time>2026-04-04T13:15:12.999Z</time></trkpt><trkpt lat="42.169192661193755" lon="14.006483132516982"><ele>791.0</ele><time>2026-04-04T13:15:13.999Z</time></trkpt><trkpt lat="42.1691831370795" lon="14.006340635747401"><ele>791.0</ele><time>2026-04-04T13:15:14.999Z</time></trkpt><trkpt lat="42.16917722741801" lon="14.00620385102786"><ele>791.0</ele><time>2026-04-04T13:15:15.999Z</time></trkpt><trkpt lat="42.16917820190649" lon="14.006067433481448"><ele>791.0</ele><time>2026-04-04T13:15:16.999Z</time></trkpt><trkpt lat="42.16920287423742" lon="14.005938879172405"><ele>788.8</ele><time>2026-04-04T13:15:17.999Z</time></trkpt><trkpt lat="42.16923001180756" lon="14.005803731652826"><ele>786.5999999999999</ele><time>2026-04-04T13:15:18.999Z</time></trkpt><trkpt lat="42.1692467065322" lon="14.005657816781346"><ele>784.4</ele><time>2026-04-04T13:15:19.999Z</time></trkpt><trkpt lat="42.16927665932367" lon="14.005509204203403"><ele>782.2</ele><time>2026-04-04T13:15:20.999Z</time></trkpt><trkpt lat="42.169313884917415" lon="14.005363249092918"><ele>780.0</ele><time>2026-04-04T13:15:21.999Z</time></trkpt><trkpt lat="42.169346356033884" lon="14.005207111241889"><ele>780.0</ele><time>2026-04-04T13:15:22.999Z</time></trkpt><trkpt lat="42.16939713525392" lon="14.005036818114807"><ele>780.0</ele><time>2026-04-04T13:15:23.999Z</time></trkpt><trkpt lat="42.16943310851307" lon="14.004867074219778"><ele>780.0</ele><time>2026-04-04T13:15:24.999Z</time></trkpt><trkpt lat="42.169453802701966" lon="14.004689419836458"><ele>780.0</ele><time>2026-04-04T13:15:25.999Z</time></trkpt><trkpt lat="42.169492401008895" lon="14.004523912121597"><ele>778.5</ele><time>2026-04-04T13:15:26.999Z</time></trkpt><trkpt lat="42.16952974835927" lon="14.00434991638271"><ele>777.0</ele><time>2026-04-04T13:15:27.999Z</time></trkpt><trkpt lat="42.16956858768754" lon="14.004186279803909"><ele>775.5</ele><time>2026-04-04T13:15:28.999Z</time></trkpt><trkpt lat="42.169602432643124" lon="14.004014447833757"><ele>774.0</ele><time>2026-04-04T13:15:29.999Z</time></trkpt><trkpt lat="42.16964442975238" lon="14.003849456529323"><ele>772.75</ele><time>2026-04-04T13:15:30.999Z</time></trkpt><trkpt lat="42.16967760589977" lon="14.003681409450243"><ele>771.5</ele><time>2026-04-04T13:15:31.999Z</time></trkpt><trkpt lat="42.169709258883394" lon="14.003510172164745"><ele>770.25</ele><time>2026-04-04T13:15:32.999Z</time></trkpt><trkpt lat="42.16973042367634" lon="14.003338108115617"><ele>769.0</ele><time>2026-04-04T13:15:33.999Z</time></trkpt><trkpt lat="42.16974675707797" lon="14.003166046052295"><ele>766.25</ele><time>2026-04-04T13:15:34.999Z</time></trkpt><trkpt lat="42.169761033914305" lon="14.003000074166856"><ele>763.5</ele><time>2026-04-04T13:15:35.999Z</time></trkpt><trkpt lat="42.16977533740133" lon="14.002843907203593"><ele>760.75</ele><time>2026-04-04T13:15:36.999Z</time></trkpt><trkpt lat="42.169802395080374" lon="14.002696875911532"><ele>758.0</ele><time>2026-04-04T13:15:37.999Z</time></trkpt><trkpt lat="42.16984542647827" lon="14.002551780496862"><ele>760.5</ele><time>2026-04-04T13:15:38.999Z</time></trkpt><trkpt lat="42.16990613658697" lon="14.002400012940987"><ele>763.0</ele><time>2026-04-04T13:15:39.999Z</time></trkpt><trkpt lat="42.16998690106201" lon="14.00224892701572"><ele>765.5</ele><time>2026-04-04T13:15:40.999Z</time></trkpt><trkpt lat="42.170041596734926" lon="14.002079470267757"><ele>768.0</ele><time>2026-04-04T13:15:41.999Z</time></trkpt><trkpt lat="42.17010891539248" lon="14.001918234795177"><ele>768.0</ele><time>2026-04-04T13:15:42.999Z</time></trkpt><trkpt lat="42.170187619856215" lon="14.001770528913454"><ele>768.0</ele><time>2026-04-04T13:15:43.999Z</time></trkpt><trkpt lat="42.170250523768196" lon="14.001610416315422"><ele>768.0</ele><time>2026-04-04T13:15:44.999Z</time></trkpt><trkpt lat="42.170297748885694" lon="14.001440232831502"><ele>768.0</ele><time>2026-04-04T13:15:45.999Z</time></trkpt><trkpt lat="42.170358601234824" lon="14.00128608419448"><ele>766.0</ele><time>2026-04-04T13:15:46.999Z</time></trkpt><trkpt lat="42.170405842345225" lon="14.001149019487208"><ele>764.0</ele><time>2026-04-04T13:15:47.999Z</time></trkpt><trkpt lat="42.170457300996866" lon="14.001031751938077"><ele>762.0</ele><time>2026-04-04T13:15:48.999Z</time></trkpt><trkpt lat="42.17051591304919" lon="14.000930488018406"><ele>760.0</ele><time>2026-04-04T13:15:49.999Z</time></trkpt><trkpt lat="42.170582801678336" lon="14.000835820912588"><ele>758.0</ele><time>2026-04-04T13:15:50.999Z</time></trkpt><trkpt lat="42.17067837616799" lon="14.00076984341682"><ele>757.75</ele><time>2026-04-04T13:15:51.999Z</time></trkpt><trkpt lat="42.17077094973406" lon="14.00068452912765"><ele>757.5</ele><time>2026-04-04T13:15:52.999Z</time></trkpt><trkpt lat="42.170867618006675" lon="14.000574324745328"><ele>757.25</ele><time>2026-04-04T13:15:53.999Z</time></trkpt><trkpt lat="42.17098114081215" lon="14.000485369591644"><ele>757.0</ele><time>2026-04-04T13:15:54.999Z</time></trkpt><trkpt lat="42.17108796731681" lon="14.000395386117345"><ele>757.0</ele><time>2026-04-04T13:15:55.999Z</time></trkpt><trkpt lat="42.17119625411024" lon="14.000331184636776"><ele>757.0</ele><time>2026-04-04T13:15:56.999Z</time></trkpt><trkpt lat="42.171301537606276" lon="14.000246423086136"><ele>757.0</ele><time>2026-04-04T13:15:57.999Z</time></trkpt><trkpt lat="42.17139912106555" lon="14.000167155333989"><ele>757.0</ele><time>2026-04-04T13:15:58.999Z</time></trkpt><trkpt lat="42.17148253505439" lon="14.00007724774131"><ele>759.4000000000001</ele><time>2026-04-04T13:15:59.999Z</time></trkpt><trkpt lat="42.17155943010401" lon="14.000019256599051"><ele>761.8000000000001</ele><time>2026-04-04T13:16:00.999Z</time></trkpt><trkpt lat="42.1716344191068" lon="13.99995626851351"><ele>764.2</ele><time>2026-04-04T13:16:01.999Z</time></trkpt><trkpt lat="42.171697007381695" lon="13.999853021955087"><ele>766.6</ele><time>2026-04-04T13:16:02.999Z</time></trkpt><trkpt lat="42.171740809959445" lon="13.999711043525965"><ele>769.0</ele><time>2026-04-04T13:16:03.999Z</time></trkpt><trkpt lat="42.17176600367095" lon="13.999551734800715"><ele>769.0</ele><time>2026-04-04T13:16:04.999Z</time></trkpt><trkpt lat="42.1717766510769" lon="13.999372480283103"><ele>769.0</ele><time>2026-04-04T13:16:05.999Z</time></trkpt><trkpt lat="42.17178746087051" lon="13.999199611399565"><ele>769.0</ele><time>2026-04-04T13:16:06.999Z</time></trkpt><trkpt lat="42.171804526701436" lon="13.9990428423295"><ele>769.0</ele><time>2026-04-04T13:16:07.999Z</time></trkpt><trkpt lat="42.171828684235535" lon="13.998904128442096"><ele>766.25</ele><time>2026-04-04T13:16:08.999Z</time></trkpt><trkpt lat="42.17186759356033" lon="13.998775587823873"><ele>763.5</ele><time>2026-04-04T13:16:09.999Z</time></trkpt><trkpt lat="42.171923705518715" lon="13.998639900742972"><ele>760.75</ele><time>2026-04-04T13:16:10.999Z</time></trkpt><trkpt lat="42.17199426439655" lon="13.998492479753292"><ele>758.0</ele><time>2026-04-04T13:16:11.999Z</time></trkpt><trkpt lat="42.17206618848554" lon="13.998341055003555"><ele>755.5</ele><time>2026-04-04T13:16:12.999Z</time></trkpt><trkpt lat="42.172133058010026" lon="13.998187440023543"><ele>753.0</ele><time>2026-04-04T13:16:13.999Z</time></trkpt><trkpt lat="42.1721886088772" lon="13.998044802336294"><ele>750.5</ele><time>2026-04-04T13:16:14.999Z</time></trkpt><trkpt lat="42.17223968677915" lon="13.997900397174446"><ele>748.0</ele><time>2026-04-04T13:16:15.999Z</time></trkpt><trkpt lat="42.17227788077537" lon="13.997744599613284"><ele>748.0</ele><time>2026-04-04T13:16:16.999Z</time></trkpt><trkpt lat="42.17230379387268" lon="13.997554731555372"><ele>748.0</ele><time>2026-04-04T13:16:17.999Z</time></trkpt><trkpt lat="42.172313833498485" lon="13.997342228459624"><ele>748.0</ele><time>2026-04-04T13:16:19Z</time></trkpt><trkpt lat="42.172321545657255" lon="13.997119534530837"><ele>746.5</ele><time>2026-04-04T13:16:20Z</time></trkpt><trkpt lat="42.17233398380266" lon="13.99691351741298"><ele>745.0</ele><time>2026-04-04T13:16:21Z</time></trkpt><trkpt lat="42.172344169458356" lon="13.996730432688025"><ele>743.5</ele><time>2026-04-04T13:16:22Z</time></trkpt><trkpt lat="42.1723499372542" lon="13.996557171999715"><ele>742.0</ele><time>2026-04-04T13:16:23Z</time></trkpt><trkpt lat="42.17234809090328" lon="13.99637478710909"><ele>740.75</ele><time>2026-04-04T13:16:24Z</time></trkpt><trkpt lat="42.17232861437778" lon="13.996195274541034"><ele>739.5</ele><time>2026-04-04T13:16:25Z</time></trkpt><trkpt lat="42.17229221819704" lon="13.996019534587557"><ele>738.25</ele><time>2026-04-04T13:16:26Z</time></trkpt><trkpt lat="42.17224515260672" lon="13.99584723566173"><ele>737.0</ele><time>2026-04-04T13:16:27Z</time></trkpt><trkpt lat="42.172194164306106" lon="13.995690031320509"><ele>736.25</ele><time>2026-04-04T13:16:28Z</time></trkpt><trkpt lat="42.17214760599708" lon="13.995537377186388"><ele>735.5</ele><time>2026-04-04T13:16:29Z</time></trkpt><trkpt lat="42.17209959744668" lon="13.995381997120843"><ele>734.75</ele><time>2026-04-04T13:16:30Z</time></trkpt><trkpt lat="42.17205656895119" lon="13.995236985631438"><ele>734.0</ele><time>2026-04-04T13:16:31Z</time></trkpt><trkpt lat="42.1720311634593" lon="13.995097747805053"><ele>733.8000000000001</ele><time>2026-04-04T13:16:32Z</time></trkpt><trkpt lat="42.171984026884694" lon="13.994973878720185"><ele>733.6</ele><time>2026-04-04T13:16:33Z</time></trkpt><trkpt lat="42.17195396567255" lon="13.994845368489901"><ele>733.4</ele><time>2026-04-04T13:16:34Z</time></trkpt><trkpt lat="42.1719236225244" lon="13.994730671759498"><ele>733.2</ele><time>2026-04-04T13:16:35Z</time></trkpt><trkpt lat="42.17189241561928" lon="13.99459862168401"><ele>733.0</ele><time>2026-04-04T13:16:36Z</time></trkpt><trkpt lat="42.17186449066388" lon="13.99448172467313"><ele>733.0</ele><time>2026-04-04T13:16:37Z</time></trkpt><trkpt lat="42.17183924016764" lon="13.994354364073484"><ele>733.0</ele><time>2026-04-04T13:16:38Z</time></trkpt><trkpt lat="42.171817549585484" lon="13.994220195943042"><ele>733.0</ele><time>2026-04-04T13:16:39Z</time></trkpt><trkpt lat="42.17180911774053" lon="13.994082627005017"><ele>733.0</ele><time>2026-04-04T13:16:40Z</time></trkpt><trkpt lat="42.17181815740562" lon="13.993949324667586"><ele>733.0</ele><time>2026-04-04T13:16:41Z</time></trkpt><trkpt lat="42.171855080897906" lon="13.99381937215449"><ele>733.0</ele><time>2026-04-04T13:16:42Z</time></trkpt><trkpt lat="42.1719148011527" lon="13.993694039287456"><ele>733.0</ele><time>2026-04-04T13:16:43Z</time></trkpt><trkpt lat="42.17201312460874" lon="13.993600107309382"><ele>733.0</ele><time>2026-04-04T13:16:44Z</time></trkpt><trkpt lat="42.17210055189134" lon="13.993475700479376"><ele>733.0</ele><time>2026-04-04T13:16:45Z</time></trkpt><trkpt lat="42.17219561438014" lon="13.993368207128677"><ele>733.5</ele><time>2026-04-04T13:16:46Z</time></trkpt><trkpt lat="42.17229073122757" lon="13.993265928916271"><ele>734.0</ele><time>2026-04-04T13:16:47Z</time></trkpt><trkpt lat="42.17239437826303" lon="13.993194030183096"><ele>734.5</ele><time>2026-04-04T13:16:48Z</time></trkpt><trkpt lat="42.17251453094879" lon="13.993148323734342"><ele>735.0</ele><time>2026-04-04T13:16:49Z</time></trkpt><trkpt lat="42.17264627282747" lon="13.993105959966071"><ele>735.0</ele><time>2026-04-04T13:16:50Z</time></trkpt><trkpt lat="42.17277881323514" lon="13.993062704848805"><ele>735.0</ele><time>2026-04-04T13:16:51Z</time></trkpt><trkpt lat="42.172909486238005" lon="13.993015325181855"><ele>735.0</ele><time>2026-04-04T13:16:52Z</time></trkpt><trkpt lat="42.173042405475734" lon="13.992991450193879"><ele>735.0</ele><time>2026-04-04T13:16:53Z</time></trkpt><trkpt lat="42.17315226645142" lon="13.992937984823593"><ele>735.4</ele><time>2026-04-04T13:16:54Z</time></trkpt><trkpt lat="42.17324989282663" lon="13.99292433448592"><ele>735.8</ele><time>2026-04-04T13:16:55Z</time></trkpt><trkpt lat="42.17334251076175" lon="13.992865758188096"><ele>736.2</ele><time>2026-04-04T13:16:57Z</time></trkpt><trkpt lat="42.173420659789976" lon="13.992792113464867"><ele>736.6</ele><time>2026-04-04T13:16:59Z</time></trkpt><trkpt lat="42.17346896966057" lon="13.99266301643082"><ele>737.0</ele><time>2026-04-04T13:17:01Z</time></trkpt><trkpt lat="42.17343769153862" lon="13.992554062284864"><ele>734.6666666666666</ele><time>2026-04-04T13:17:02Z</time></trkpt><trkpt lat="42.17336678652367" lon="13.992485201974379"><ele>732.3333333333333</ele><time>2026-04-04T13:17:03Z</time></trkpt><trkpt lat="42.17329504564247" lon="13.992421611957864"><ele>730.0</ele><time>2026-04-04T13:17:04Z</time></trkpt><trkpt lat="42.173223098280026" lon="13.992369101447377"><ele>727.6666666666666</ele><time>2026-04-04T13:17:05Z</time></trkpt><trkpt lat="42.17315847806594" lon="13.99232289709935"><ele>725.3333333333334</ele><time>2026-04-04T13:17:06Z</time></trkpt><trkpt lat="42.17309217840647" lon="13.992278798036073"><ele>723.0</ele><time>2026-04-04T13:17:07Z</time></trkpt><trkpt lat="42.173030172199816" lon="13.99223606025131"><ele>723.0000000000001</ele><time>2026-04-04T13:17:08Z</time></trkpt><trkpt lat="42.17296871654631" lon="13.992189932340786"><ele>723.0</ele><time>2026-04-04T13:17:09Z</time></trkpt><trkpt lat="42.17291005307888" lon="13.992137739592842"><ele>723.0</ele><time>2026-04-04T13:17:10Z</time></trkpt><trkpt lat="42.17284416658039" lon="13.992088648755962"><ele>723.0</ele><time>2026-04-04T13:17:11Z</time></trkpt><trkpt lat="42.172780165577315" lon="13.992042920091171"><ele>723.0</ele><time>2026-04-04T13:17:12Z</time></trkpt><trkpt lat="42.17271827827181" lon="13.991991152312357"><ele>723.0000000000001</ele><time>2026-04-04T13:17:13Z</time></trkpt><trkpt lat="42.17264692200281" lon="13.991951874872841"><ele>723.0</ele><time>2026-04-04T13:17:14Z</time></trkpt><trkpt lat="42.17257019130558" lon="13.991919301954193"><ele>723.0</ele><time>2026-04-04T13:17:15Z</time></trkpt><trkpt lat="42.172490407113884" lon="13.991901114804532"><ele>723.0</ele><time>2026-04-04T13:17:15.999Z</time></trkpt><trkpt lat="42.1724065997443" lon="13.991869485004948"><ele>723.0</ele><time>2026-04-04T13:17:16.999Z</time></trkpt><trkpt lat="42.17232395127467" lon="13.991837196063837"><ele>723.0</ele><time>2026-04-04T13:17:17.999Z</time></trkpt><trkpt lat="42.17223623030125" lon="13.991797814492969"><ele>723.0</ele><time>2026-04-04T13:17:18.999Z</time></trkpt><trkpt lat="42.17215330982943" lon="13.991764919838193"><ele>723.0</ele><time>2026-04-04T13:17:19.999Z</time></trkpt><trkpt lat="42.1720858157794" lon="13.991742242574244"><ele>721.0</ele><time>2026-04-04T13:17:20.999Z</time></trkpt><trkpt lat="42.17201699045551" lon="13.991726684417827"><ele>719.0</ele><time>2026-04-04T13:17:21.999Z</time></trkpt><trkpt lat="42.17194896537118" lon="13.991718318670813"><ele>717.0</ele><time>2026-04-04T13:17:22.999Z</time></trkpt><trkpt lat="42.17183915824416" lon="13.991664495654252"><ele>715.0</ele><time>2026-04-04T13:17:24.999Z</time></trkpt><trkpt lat="42.17178317588066" lon="13.991534239635687"><ele>713.0</ele><time>2026-04-04T13:17:26.999Z</time></trkpt><trkpt lat="42.17183343469541" lon="13.991379049953366"><ele>711.4</ele><time>2026-04-04T13:17:28.999Z</time></trkpt><trkpt lat="42.17190962076453" lon="13.991297491358903"><ele>709.8</ele><time>2026-04-04T13:17:29.999Z</time></trkpt><trkpt lat="42.17199623866293" lon="13.991222918346715"><ele>708.2</ele><time>2026-04-04T13:17:30.999Z</time></trkpt><trkpt lat="42.17210054170274" lon="13.991134795546406"><ele>706.6</ele><time>2026-04-04T13:17:31.999Z</time></trkpt><trkpt lat="42.1722003955622" lon="13.991054695907076"><ele>705.0</ele><time>2026-04-04T13:17:32.999Z</time></trkpt><trkpt lat="42.17230500684769" lon="13.990983048080997"><ele>703.25</ele><time>2026-04-04T13:17:33.999Z</time></trkpt><trkpt lat="42.17242096012357" lon="13.99092599922169"><ele>701.5</ele><time>2026-04-04T13:17:34.999Z</time></trkpt><trkpt lat="42.17255266341005" lon="13.99089365022504"><ele>699.75</ele><time>2026-04-04T13:17:35.999Z</time></trkpt><trkpt lat="42.17268205895765" lon="13.990867447817463"><ele>698.0</ele><time>2026-04-04T13:17:36.999Z</time></trkpt><trkpt lat="42.172807663293646" lon="13.990839924910738"><ele>698.0</ele><time>2026-04-04T13:17:37.999Z</time></trkpt><trkpt lat="42.172923254498144" lon="13.99081783879025"><ele>698.0</ele><time>2026-04-04T13:17:38.999Z</time></trkpt><trkpt lat="42.17302913005272" lon="13.990787971295351"><ele>698.0</ele><time>2026-04-04T13:17:39.999Z</time></trkpt><trkpt lat="42.17314174562538" lon="13.990748644726152"><ele>698.0</ele><time>2026-04-04T13:17:40.999Z</time></trkpt><trkpt lat="42.173236882012816" lon="13.99069165925954"><ele>698.0</ele><time>2026-04-04T13:17:41.999Z</time></trkpt><trkpt lat="42.1733298360752" lon="13.990603432087317"><ele>698.25</ele><time>2026-04-04T13:17:42.999Z</time></trkpt><trkpt lat="42.17341313529052" lon="13.990474820754228"><ele>698.5</ele><time>2026-04-04T13:17:43.999Z</time></trkpt><trkpt lat="42.17349588821091" lon="13.990334588372221"><ele>698.75</ele><time>2026-04-04T13:17:44.999Z</time></trkpt><trkpt lat="42.173585499840826" lon="13.990194284023154"><ele>699.0</ele><time>2026-04-04T13:17:45.999Z</time></trkpt><trkpt lat="42.17366411516202" lon="13.99006081791039"><ele>696.0</ele><time>2026-04-04T13:17:46.999Z</time></trkpt><trkpt lat="42.17374327926127" lon="13.98992647529762"><ele>693.0</ele><time>2026-04-04T13:17:47.999Z</time></trkpt><trkpt lat="42.17382799499823" lon="13.989816177618524"><ele>690.0</ele><time>2026-04-04T13:17:48.999Z</time></trkpt><trkpt lat="42.1738855261862" lon="13.989688790710792"><ele>687.0</ele><time>2026-04-04T13:17:49.999Z</time></trkpt><trkpt lat="42.17394781541405" lon="13.989583375257022"><ele>687.0</ele><time>2026-04-04T13:17:50.999Z</time></trkpt><trkpt lat="42.173998773586916" lon="13.989500272675686"><ele>687.0</ele><time>2026-04-04T13:17:51.999Z</time></trkpt><trkpt lat="42.17402367673883" lon="13.989420804637314"><ele>687.0</ele><time>2026-04-04T13:17:52.999Z</time></trkpt><trkpt lat="42.17402877010861" lon="13.989332397163391"><ele>687.0</ele><time>2026-04-04T13:17:53.999Z</time></trkpt><trkpt lat="42.174002596775495" lon="13.989240587479264"><ele>687.0</ele><time>2026-04-04T13:17:54.999Z</time></trkpt><trkpt lat="42.173970805242014" lon="13.989151478362201"><ele>687.0</ele><time>2026-04-04T13:17:55.999Z</time></trkpt><trkpt lat="42.173862090662766" lon="13.989127980065506"><ele>687.0</ele><time>2026-04-04T13:17:56.999Z</time></trkpt><trkpt lat="42.17377027182021" lon="13.989130706302115"><ele>687.0</ele><time>2026-04-04T13:17:57.999Z</time></trkpt><trkpt lat="42.17366851757437" lon="13.989169066399173"><ele>687.0</ele><time>2026-04-04T13:17:58.999Z</time></trkpt><trkpt lat="42.17356477077991" lon="13.989213725746247"><ele>687.0</ele><time>2026-04-04T13:17:59.999Z</time></trkpt><trkpt lat="42.17345232297716" lon="13.989261636858128"><ele>687.0</ele><time>2026-04-04T13:18:00.999Z</time></trkpt><trkpt lat="42.17332915359269" lon="13.989310308781198"><ele>687.0</ele><time>2026-04-04T13:18:01.999Z</time></trkpt><trkpt lat="42.173208735228016" lon="13.989353285393083"><ele>687.0</ele><time>2026-04-04T13:18:02.999Z</time></trkpt><trkpt lat="42.1730836302286" lon="13.989366420571352"><ele>687.0</ele><time>2026-04-04T13:18:03.999Z</time></trkpt><trkpt lat="42.172961945164" lon="13.989376854295553"><ele>687.0</ele><time>2026-04-04T13:18:04.999Z</time></trkpt><trkpt lat="42.172840788181254" lon="13.98937772722961"><ele>685.75</ele><time>2026-04-04T13:18:05.999Z</time></trkpt><trkpt lat="42.17271592073925" lon="13.989382286567594"><ele>684.5</ele><time>2026-04-04T13:18:06.999Z</time></trkpt><trkpt lat="42.17259015218403" lon="13.989362824930971"><ele>683.25</ele><time>2026-04-04T13:18:07.999Z</time></trkpt><trkpt lat="42.172466492318385" lon="13.989350963266684"><ele>682.0</ele><time>2026-04-04T13:18:08.999Z</time></trkpt><trkpt lat="42.17233793535989" lon="13.989362145600564"><ele>679.5</ele><time>2026-04-04T13:18:09.999Z</time></trkpt><trkpt lat="42.17220917709821" lon="13.98938717016342"><ele>677.0</ele><time>2026-04-04T13:18:10.999Z</time></trkpt><trkpt lat="42.17208199416429" lon="13.989419733222675"><ele>674.5</ele><time>2026-04-04T13:18:11.999Z</time></trkpt><trkpt lat="42.1719534461378" lon="13.989465315643049"><ele>672.0</ele><time>2026-04-04T13:18:12.999Z</time></trkpt><trkpt lat="42.17182354237484" lon="13.989522723831879"><ele>672.0</ele><time>2026-04-04T13:18:13.999Z</time></trkpt><trkpt lat="42.17168903181098" lon="13.98955993611822"><ele>672.0</ele><time>2026-04-04T13:18:14.999Z</time></trkpt><trkpt lat="42.171562806249035" lon="13.989636741214973"><ele>672.0</ele><time>2026-04-04T13:18:15.999Z</time></trkpt><trkpt lat="42.171426352047476" lon="13.989686138410674"><ele>672.0</ele><time>2026-04-04T13:18:16.999Z</time></trkpt><trkpt lat="42.17129030301637" lon="13.989735993396724"><ele>665.5</ele><time>2026-04-04T13:18:17.999Z</time></trkpt><trkpt lat="42.171158944554506" lon="13.98977863587342"><ele>659.0</ele><time>2026-04-04T13:18:18.999Z</time></trkpt><trkpt lat="42.171039810951285" lon="13.989811996872254"><ele>652.5</ele><time>2026-04-04T13:18:19.999Z</time></trkpt><trkpt lat="42.17092946289094" lon="13.98981861590233"><ele>646.0</ele><time>2026-04-04T13:18:20.999Z</time></trkpt><trkpt lat="42.17083410817655" lon="13.989867303215556"><ele>646.0</ele><time>2026-04-04T13:18:21.999Z</time></trkpt><trkpt lat="42.17075267970505" lon="13.989906628448306"><ele>646.0</ele><time>2026-04-04T13:18:22.999Z</time></trkpt><trkpt lat="42.17067928931392" lon="13.989973127121932"><ele>646.0</ele><time>2026-04-04T13:18:24Z</time></trkpt><trkpt lat="42.17061750911393" lon="13.990061876023768"><ele>646.0</ele><time>2026-04-04T13:18:25Z</time></trkpt><trkpt lat="42.170584709273996" lon="13.990172280055114"><ele>646.0</ele><time>2026-04-04T13:18:26Z</time></trkpt><trkpt lat="42.17058024164253" lon="13.99029787028551"><ele>646.0</ele><time>2026-04-04T13:18:27Z</time></trkpt><trkpt lat="42.170565650248506" lon="13.990413468362913"><ele>642.8</ele><time>2026-04-04T13:18:28Z</time></trkpt><trkpt lat="42.17055655443641" lon="13.990528685857857"><ele>639.5999999999999</ele><time>2026-04-04T13:18:29Z</time></trkpt><trkpt lat="42.170555096659086" lon="13.990663665739207"><ele>636.4</ele><time>2026-04-04T13:18:30Z</time></trkpt><trkpt lat="42.170524168259966" lon="13.990809952382161"><ele>633.2</ele><time>2026-04-04T13:18:31Z</time></trkpt><trkpt lat="42.170485275991155" lon="13.990973418674503"><ele>630.0</ele><time>2026-04-04T13:18:32Z</time></trkpt><trkpt lat="42.1704204433914" lon="13.991130437629465"><ele>630.0</ele><time>2026-04-04T13:18:33Z</time></trkpt><trkpt lat="42.17037983300953" lon="13.991309074815971"><ele>630.0</ele><time>2026-04-04T13:18:34Z</time></trkpt><trkpt lat="42.17030622406895" lon="13.991466370969913"><ele>630.0</ele><time>2026-04-04T13:18:35Z</time></trkpt><trkpt lat="42.170248097618796" lon="13.991633483818983"><ele>630.0</ele><time>2026-04-04T13:18:36Z</time></trkpt><trkpt lat="42.17020520390394" lon="13.991817246667123"><ele>633.0</ele><time>2026-04-04T13:18:37Z</time></trkpt><trkpt lat="42.170151749123626" lon="13.991979404917586"><ele>636.0</ele><time>2026-04-04T13:18:38Z</time></trkpt><trkpt lat="42.17009787530478" lon="13.992134839493378"><ele>639.0</ele><time>2026-04-04T13:18:39Z</time></trkpt><trkpt lat="42.17003733195589" lon="13.992293223113647"><ele>642.0</ele><time>2026-04-04T13:18:40Z</time></trkpt><trkpt lat="42.16997242086236" lon="13.992457883513481"><ele>643.75</ele><time>2026-04-04T13:18:41Z</time></trkpt><trkpt lat="42.169916684151026" lon="13.99262343682432"><ele>645.5</ele><time>2026-04-04T13:18:42Z</time></trkpt><trkpt lat="42.169862839876295" lon="13.992791995278715"><ele>647.25</ele><time>2026-04-04T13:18:43Z</time></trkpt><trkpt lat="42.1698044241976" lon="13.992961922064772"><ele>649.0</ele><time>2026-04-04T13:18:44Z</time></trkpt><trkpt lat="42.16974293947458" lon="13.993130047250014"><ele>639.6666666666667</ele><time>2026-04-04T13:18:45Z</time></trkpt><trkpt lat="42.169685842279264" lon="13.99331791309992"><ele>630.3333333333334</ele><time>2026-04-04T13:18:46Z</time></trkpt><trkpt lat="42.16962617647316" lon="13.993513336725965"><ele>621.0</ele><time>2026-04-04T13:18:47Z</time></trkpt><trkpt lat="42.16955389779577" lon="13.99368782410873"><ele>621.0</ele><time>2026-04-04T13:18:48Z</time></trkpt><trkpt lat="42.1695066247832" lon="13.993845344719766"><ele>621.0</ele><time>2026-04-04T13:18:49Z</time></trkpt><trkpt lat="42.16946746023427" lon="13.993976382345833"><ele>621.0</ele><time>2026-04-04T13:18:50Z</time></trkpt><trkpt lat="42.16943373307926" lon="13.994077906413333"><ele>621.0</ele><time>2026-04-04T13:18:51Z</time></trkpt><trkpt lat="42.169393401043884" lon="13.994158327488405"><ele>621.0</ele><time>2026-04-04T13:18:52Z</time></trkpt><trkpt lat="42.16929592705866" lon="13.994223332353263"><ele>621.0</ele><time>2026-04-04T13:18:54Z</time></trkpt><trkpt lat="42.169236264106125" lon="13.994189358193529"><ele>621.0</ele><time>2026-04-04T13:18:55Z</time></trkpt><trkpt lat="42.16918518759413" lon="13.994124759630147"><ele>621.0</ele><time>2026-04-04T13:18:56Z</time></trkpt><trkpt lat="42.169136236365574" lon="13.994015593637549"><ele>621.0</ele><time>2026-04-04T13:18:57Z</time></trkpt><trkpt lat="42.16911294504258" lon="13.993894633697423"><ele>621.0</ele><time>2026-04-04T13:18:58Z</time></trkpt><trkpt lat="42.16912110454271" lon="13.993759886239564"><ele>621.0</ele><time>2026-04-04T13:18:59Z</time></trkpt><trkpt lat="42.169152211588056" lon="13.993619803975843"><ele>621.0</ele><time>2026-04-04T13:19:00Z</time></trkpt><trkpt lat="42.16920012900183" lon="13.993460136596612"><ele>621.0</ele><time>2026-04-04T13:19:01Z</time></trkpt><trkpt lat="42.16924921109092" lon="13.993291130943614"><ele>621.0</ele><time>2026-04-04T13:19:02Z</time></trkpt><trkpt lat="42.16929281135458" lon="13.99313124768711"><ele>621.0</ele><time>2026-04-04T13:19:03Z</time></trkpt><trkpt lat="42.16933742602479" lon="13.992972809106234"><ele>619.8</ele><time>2026-04-04T13:19:04Z</time></trkpt><trkpt lat="42.16938751667902" lon="13.992827286978647"><ele>618.6</ele><time>2026-04-04T13:19:05Z</time></trkpt><trkpt lat="42.169433848954576" lon="13.99270687930674"><ele>617.4</ele><time>2026-04-04T13:19:06Z</time></trkpt><trkpt lat="42.16947380149486" lon="13.992603326263142"><ele>616.2</ele><time>2026-04-04T13:19:07Z</time></trkpt><trkpt lat="42.16949430325744" lon="13.99251529372682"><ele>615.0</ele><time>2026-04-04T13:19:08Z</time></trkpt><trkpt lat="42.16946466739648" lon="13.992378991197508"><ele>615.0</ele><time>2026-04-04T13:19:10Z</time></trkpt><trkpt lat="42.16940755939964" lon="13.992340616123862"><ele>615.0</ele><time>2026-04-04T13:19:11Z</time></trkpt><trkpt lat="42.16932377133841" lon="13.992353162988598"><ele>615.0</ele><time>2026-04-04T13:19:12Z</time></trkpt><trkpt lat="42.16924099651806" lon="13.992414252032512"><ele>615.0</ele><time>2026-04-04T13:19:13Z</time></trkpt><trkpt lat="42.16915444004103" lon="13.992523739937214"><ele>615.0</ele><time>2026-04-04T13:19:14Z</time></trkpt><trkpt lat="42.16907116113769" lon="13.992648513293755"><ele>608.5</ele><time>2026-04-04T13:19:15Z</time></trkpt><trkpt lat="42.168989339155985" lon="13.992773076558834"><ele>602.0</ele><time>2026-04-04T13:19:16Z</time></trkpt><trkpt lat="42.168892318732965" lon="13.99287227663141"><ele>595.5</ele><time>2026-04-04T13:19:17Z</time></trkpt><trkpt lat="42.168816209999775" lon="13.993002182897827"><ele>589.0</ele><time>2026-04-04T13:19:18Z</time></trkpt><trkpt lat="42.16871975108804" lon="13.993112677152395"><ele>589.0</ele><time>2026-04-04T13:19:19Z</time></trkpt><trkpt lat="42.168623440822536" lon="13.99322998582333"><ele>589.0</ele><time>2026-04-04T13:19:20Z</time></trkpt><trkpt lat="42.16852713532302" lon="13.993355863240398"><ele>589.0</ele><time>2026-04-04T13:19:21Z</time></trkpt><trkpt lat="42.16842722554107" lon="13.993476394972767"><ele>589.0</ele><time>2026-04-04T13:19:22Z</time></trkpt><trkpt lat="42.16834429537244" lon="13.993609846289631"><ele>590.6666666666667</ele><time>2026-04-04T13:19:23Z</time></trkpt><trkpt lat="42.168279654275516" lon="13.993790113134928"><ele>592.3333333333334</ele><time>2026-04-04T13:19:24Z</time></trkpt><trkpt lat="42.1682224504433" lon="13.994001434222362"><ele>594.0</ele><time>2026-04-04T13:19:25Z</time></trkpt><trkpt lat="42.16816332344764" lon="13.994208264337205"><ele>588.75</ele><time>2026-04-04T13:19:26Z</time></trkpt><trkpt lat="42.168098676104" lon="13.994395953664169"><ele>583.5</ele><time>2026-04-04T13:19:27Z</time></trkpt><trkpt lat="42.16803191337686" lon="13.994571899337998"><ele>578.25</ele><time>2026-04-04T13:19:28Z</time></trkpt><trkpt lat="42.16798361233156" lon="13.9947259781971"><ele>573.0</ele><time>2026-04-04T13:19:29Z</time></trkpt><trkpt lat="42.167938856022545" lon="13.994864613663726"><ele>573.0</ele><time>2026-04-04T13:19:30Z</time></trkpt><trkpt lat="42.16787069637053" lon="13.994996607806817"><ele>573.0</ele><time>2026-04-04T13:19:31Z</time></trkpt><trkpt lat="42.167807145962676" lon="13.995119399825771"><ele>573.0</ele><time>2026-04-04T13:19:32Z</time></trkpt><trkpt lat="42.1677278742593" lon="13.995226788991591"><ele>573.0</ele><time>2026-04-04T13:19:33Z</time></trkpt><trkpt lat="42.167630409055924" lon="13.995310265351913"><ele>573.6</ele><time>2026-04-04T13:19:34Z</time></trkpt><trkpt lat="42.167547955349335" lon="13.995385604127975"><ele>574.1999999999999</ele><time>2026-04-04T13:19:35Z</time></trkpt><trkpt lat="42.16747937798502" lon="13.99548484710816"><ele>574.8</ele><time>2026-04-04T13:19:36Z</time></trkpt><trkpt lat="42.16740133372576" lon="13.995591167187643"><ele>575.4</ele><time>2026-04-04T13:19:37Z</time></trkpt><trkpt lat="42.16733430359131" lon="13.995699859468225"><ele>576.0</ele><time>2026-04-04T13:19:38Z</time></trkpt><trkpt lat="42.16728269831413" lon="13.995805175459203"><ele>571.25</ele><time>2026-04-04T13:19:39Z</time></trkpt><trkpt lat="42.167243412303414" lon="13.995932866410268"><ele>566.5</ele><time>2026-04-04T13:19:40Z</time></trkpt><trkpt lat="42.167231396163686" lon="13.996080759065869"><ele>561.75</ele><time>2026-04-04T13:19:41Z</time></trkpt><trkpt lat="42.16722751117571" lon="13.99625262715395"><ele>557.0</ele><time>2026-04-04T13:19:42Z</time></trkpt><trkpt lat="42.16718319687569" lon="13.99642601235774"><ele>557.0</ele><time>2026-04-04T13:19:43Z</time></trkpt><trkpt lat="42.16712937465663" lon="13.996574750851083"><ele>557.0</ele><time>2026-04-04T13:19:44Z</time></trkpt><trkpt lat="42.16705505467087" lon="13.996714859352565"><ele>557.0</ele><time>2026-04-04T13:19:45Z</time></trkpt><trkpt lat="42.16697202990787" lon="13.996846920692294"><ele>557.0</ele><time>2026-04-04T13:19:46Z</time></trkpt><trkpt lat="42.16692225638302" lon="13.996979142230082"><ele>556.6</ele><time>2026-04-04T13:19:47Z</time></trkpt><trkpt lat="42.166878985910714" lon="13.99709857539753"><ele>556.2</ele><time>2026-04-04T13:19:48Z</time></trkpt><trkpt lat="42.16684917827485" lon="13.997234718541076"><ele>555.8</ele><time>2026-04-04T13:19:49Z</time></trkpt><trkpt lat="42.16681275977695" lon="13.997397181413122"><ele>555.4</ele><time>2026-04-04T13:19:50Z</time></trkpt><trkpt lat="42.16678125972752" lon="13.997550823590322"><ele>555.0</ele><time>2026-04-04T13:19:51Z</time></trkpt><trkpt lat="42.16673669047716" lon="13.99769481799074"><ele>552.25</ele><time>2026-04-04T13:19:52Z</time></trkpt><trkpt lat="42.1667339474491" lon="13.99785695171821"><ele>549.5</ele><time>2026-04-04T13:19:53Z</time></trkpt><trkpt lat="42.16677254537924" lon="13.998017997778488"><ele>546.75</ele><time>2026-04-04T13:19:54Z</time></trkpt><trkpt lat="42.166797029637415" lon="13.998163533480488"><ele>544.0</ele><time>2026-04-04T13:19:55Z</time></trkpt><trkpt lat="42.16681951067369" lon="13.998301704604506"><ele>543.4</ele><time>2026-04-04T13:19:56Z</time></trkpt><trkpt lat="42.166864908078296" lon="13.998430206530275"><ele>542.8</ele><time>2026-04-04T13:19:57Z</time></trkpt><trkpt lat="42.1669008599268" lon="13.998576785519914"><ele>542.2</ele><time>2026-04-04T13:19:57.999Z</time></trkpt><trkpt lat="42.16693350566018" lon="13.998685774443192"><ele>541.6</ele><time>2026-04-04T13:19:58.999Z</time></trkpt><trkpt lat="42.16695447158864" lon="13.99878747115381"><ele>541.0</ele><time>2026-04-04T13:19:59.999Z</time></trkpt><trkpt lat="42.166972030404644" lon="13.99889207634575"><ele>541.0</ele><time>2026-04-04T13:20:00.999Z</time></trkpt><trkpt lat="42.1669858106321" lon="13.999013056840852"><ele>541.0</ele><time>2026-04-04T13:20:01.999Z</time></trkpt><trkpt lat="42.16692272590308" lon="13.9991223338772"><ele>541.0</ele><time>2026-04-04T13:20:02.999Z</time></trkpt><trkpt lat="42.166849429063724" lon="13.99923134469258"><ele>541.0</ele><time>2026-04-04T13:20:03.999Z</time></trkpt><trkpt lat="42.16676508260614" lon="13.999355708553885"><ele>541.0</ele><time>2026-04-04T13:20:04.999Z</time></trkpt><trkpt lat="42.166687075830396" lon="13.99948410854485"><ele>543.2</ele><time>2026-04-04T13:20:05.999Z</time></trkpt><trkpt lat="42.16657982114818" lon="13.999584757321648"><ele>545.4000000000001</ele><time>2026-04-04T13:20:06.999Z</time></trkpt><trkpt lat="42.166491078755215" lon="13.999678903853589"><ele>547.6</ele><time>2026-04-04T13:20:07.999Z</time></trkpt><trkpt lat="42.16642125147838" lon="13.999759056256979"><ele>549.8000000000001</ele><time>2026-04-04T13:20:08.999Z</time></trkpt><trkpt lat="42.166358030729164" lon="13.999859012772063"><ele>552.0</ele><time>2026-04-04T13:20:09.999Z</time></trkpt><trkpt lat="42.16629809566114" lon="13.999978217049199"><ele>544.25</ele><time>2026-04-04T13:20:10.999Z</time></trkpt><trkpt lat="42.16625697790365" lon="14.000107907395824"><ele>536.5</ele><time>2026-04-04T13:20:11.999Z</time></trkpt><trkpt lat="42.16621887408543" lon="14.000257735497415"><ele>528.75</ele><time>2026-04-04T13:20:12.999Z</time></trkpt><trkpt lat="42.166192845547556" lon="14.000429214125583"><ele>521.0</ele><time>2026-04-04T13:20:13.999Z</time></trkpt><trkpt lat="42.16617361661056" lon="14.000594872746067"><ele>521.0</ele><time>2026-04-04T13:20:14.999Z</time></trkpt><trkpt lat="42.16613780093851" lon="14.000752555614485"><ele>521.0</ele><time>2026-04-04T13:20:15.999Z</time></trkpt><trkpt lat="42.16609915443909" lon="14.00090792131324"><ele>521.0</ele><time>2026-04-04T13:20:16.999Z</time></trkpt><trkpt lat="42.1660326132442" lon="14.001014096864191"><ele>521.0</ele><time>2026-04-04T13:20:17.999Z</time></trkpt><trkpt lat="42.16597744704881" lon="14.00108866469446"><ele>521.0</ele><time>2026-04-04T13:20:18.999Z</time></trkpt><trkpt lat="42.16591111824237" lon="14.001131224911457"><ele>521.8333333333333</ele><time>2026-04-04T13:20:19.999Z</time></trkpt><trkpt lat="42.165830408068274" lon="14.001141884494723"><ele>522.6666666666666</ele><time>2026-04-04T13:20:20.999Z</time></trkpt><trkpt lat="42.16574746362844" lon="14.001143018131403"><ele>523.5</ele><time>2026-04-04T13:20:21.999Z</time></trkpt><trkpt lat="42.16568342609975" lon="14.001146504997157"><ele>524.3333333333334</ele><time>2026-04-04T13:20:22.999Z</time></trkpt><trkpt lat="42.16561685257365" lon="14.001132062840606"><ele>525.1666666666667</ele><time>2026-04-04T13:20:24.999Z</time></trkpt><trkpt lat="42.16560824082475" lon="14.001017871761753"><ele>526.0</ele><time>2026-04-04T13:21:36Z</time></trkpt><trkpt lat="42.16567910964886" lon="14.000891318736258"><ele>525.0</ele><time>2026-04-04T13:21:38Z</time></trkpt><trkpt lat="42.165709365222135" lon="14.000814259925935"><ele>524.0</ele><time>2026-04-04T13:21:39Z</time></trkpt><trkpt lat="42.16575310901545" lon="14.00073209649537"><ele>523.0</ele><time>2026-04-04T13:21:40Z</time></trkpt><trkpt lat="42.165809715835685" lon="14.000599256964254"><ele>522.0</ele><time>2026-04-04T13:21:41Z</time></trkpt><trkpt lat="42.16586007313403" lon="14.000420057148089"><ele>521.0</ele><time>2026-04-04T13:21:42Z</time></trkpt><trkpt lat="42.16582870992608" lon="14.000338977006303"><ele>521.0</ele><time>2026-04-04T13:21:43Z</time></trkpt><trkpt lat="42.165821002226934" lon="14.000202656479287"><ele>521.0</ele><time>2026-04-04T13:21:44Z</time></trkpt><trkpt lat="42.165783663936" lon="14.00004694200322"><ele>521.0</ele><time>2026-04-04T13:21:45Z</time></trkpt><trkpt lat="42.16572314222289" lon="13.999899111994148"><ele>521.0</ele><time>2026-04-04T13:21:46Z</time></trkpt><trkpt lat="42.165655128619804" lon="13.999761637520288"><ele>517.75</ele><time>2026-04-04T13:21:47Z</time></trkpt><trkpt lat="42.16558041724334" lon="13.999612954117215"><ele>514.5</ele><time>2026-04-04T13:21:48Z</time></trkpt><trkpt lat="42.16550044742341" lon="13.999452041900273"><ele>511.25</ele><time>2026-04-04T13:21:49Z</time></trkpt><trkpt lat="42.16542790063626" lon="13.999299755361838"><ele>508.0</ele><time>2026-04-04T13:21:50Z</time></trkpt><trkpt lat="42.16536516292727" lon="13.999153241959393"><ele>508.0</ele><time>2026-04-04T13:21:51Z</time></trkpt><trkpt lat="42.165317430355174" lon="13.99899883815994"><ele>508.0</ele><time>2026-04-04T13:21:52Z</time></trkpt><trkpt lat="42.16527641090774" lon="13.99883156923536"><ele>508.0</ele><time>2026-04-04T13:21:53Z</time></trkpt><trkpt lat="42.16526348575598" lon="13.998633794306587"><ele>508.0</ele><time>2026-04-04T13:21:54Z</time></trkpt><trkpt lat="42.1652534952392" lon="13.998413778946992"><ele>509.0</ele><time>2026-04-04T13:21:55Z</time></trkpt><trkpt lat="42.165247710291304" lon="13.998195529624901"><ele>510.0</ele><time>2026-04-04T13:21:56Z</time></trkpt><trkpt lat="42.1652435333216" lon="13.99796678894978"><ele>511.0</ele><time>2026-04-04T13:21:57Z</time></trkpt><trkpt lat="42.16524103837561" lon="13.997728233556654"><ele>511.0</ele><time>2026-04-04T13:21:58Z</time></trkpt><trkpt lat="42.1652364680342" lon="13.997508184988199"><ele>511.0</ele><time>2026-04-04T13:21:59Z</time></trkpt><trkpt lat="42.165231498268135" lon="13.99730376186672"><ele>511.0</ele><time>2026-04-04T13:22:00Z</time></trkpt><trkpt lat="42.16522922781664" lon="13.997110572948145"><ele>510.75</ele><time>2026-04-04T13:22:01Z</time></trkpt><trkpt lat="42.165209316858395" lon="13.99691802541492"><ele>510.5</ele><time>2026-04-04T13:22:02Z</time></trkpt><trkpt lat="42.1652386852149" lon="13.99673087792572"><ele>510.25</ele><time>2026-04-04T13:22:03Z</time></trkpt><trkpt lat="42.16529177977103" lon="13.996546291795005"><ele>510.0</ele><time>2026-04-04T13:22:04Z</time></trkpt><trkpt lat="42.16537454077939" lon="13.996380047013991"><ele>509.33333333333337</ele><time>2026-04-04T13:22:05Z</time></trkpt><trkpt lat="42.16550547068108" lon="13.996217773738154"><ele>508.6666666666667</ele><time>2026-04-04T13:22:06Z</time></trkpt><trkpt lat="42.16563018458243" lon="13.99605943630293"><ele>508.0</ele><time>2026-04-04T13:22:07Z</time></trkpt><trkpt lat="42.16573170482933" lon="13.99588857378509"><ele>509.75</ele><time>2026-04-04T13:22:08Z</time></trkpt><trkpt lat="42.16583035764819" lon="13.995725895237024"><ele>511.5</ele><time>2026-04-04T13:22:09Z</time></trkpt><trkpt lat="42.165909350661096" lon="13.995566472027381"><ele>513.25</ele><time>2026-04-04T13:22:10Z</time></trkpt><trkpt lat="42.16595055764209" lon="13.995392253581226"><ele>515.0</ele><time>2026-04-04T13:22:10.999Z</time></trkpt><trkpt lat="42.165983825445885" lon="13.995226709195368"><ele>515.0</ele><time>2026-04-04T13:22:11.999Z</time></trkpt><trkpt lat="42.16599308128517" lon="13.995046751896119"><ele>515.0</ele><time>2026-04-04T13:22:12.999Z</time></trkpt><trkpt lat="42.16598007269812" lon="13.994857468183747"><ele>515.0</ele><time>2026-04-04T13:22:13.999Z</time></trkpt><trkpt lat="42.165945354435124" lon="13.99466322073533"><ele>515.0</ele><time>2026-04-04T13:22:14.999Z</time></trkpt><trkpt lat="42.16589008642971" lon="13.994491074702339"><ele>513.0</ele><time>2026-04-04T13:22:15.999Z</time></trkpt><trkpt lat="42.165808656225906" lon="13.99433244473734"><ele>511.0</ele><time>2026-04-04T13:22:16.999Z</time></trkpt><trkpt lat="42.165698945947916" lon="13.994180312254686"><ele>509.0</ele><time>2026-04-04T13:22:17.999Z</time></trkpt><trkpt lat="42.16557052171883" lon="13.994017099763527"><ele>504.66666666666663</ele><time>2026-04-04T13:22:18.999Z</time></trkpt><trkpt lat="42.16544988626339" lon="13.993855914705465"><ele>500.33333333333337</ele><time>2026-04-04T13:22:19.999Z</time></trkpt><trkpt lat="42.165338595065855" lon="13.993703565309854"><ele>496.0</ele><time>2026-04-04T13:22:20.999Z</time></trkpt><trkpt lat="42.16523348056039" lon="13.99355432378162"><ele>496.0</ele><time>2026-04-04T13:22:21.999Z</time></trkpt><trkpt lat="42.165140071646995" lon="13.993413321623711"><ele>496.0</ele><time>2026-04-04T13:22:22.999Z</time></trkpt><trkpt lat="42.16505674146831" lon="13.993264642559094"><ele>496.0</ele><time>2026-04-04T13:22:23.999Z</time></trkpt><trkpt lat="42.16498917966032" lon="13.993098563781038"><ele>496.0</ele><time>2026-04-04T13:22:24.999Z</time></trkpt><trkpt lat="42.16493962089229" lon="13.99292066681802"><ele>497.25</ele><time>2026-04-04T13:22:25.999Z</time></trkpt><trkpt lat="42.164912449991505" lon="13.992741871356237"><ele>498.5</ele><time>2026-04-04T13:22:26.999Z</time></trkpt><trkpt lat="42.1649064783243" lon="13.992563599363981"><ele>499.75</ele><time>2026-04-04T13:22:27.999Z</time></trkpt><trkpt lat="42.16494561856921" lon="13.99239589598902"><ele>501.0</ele><time>2026-04-04T13:22:28.999Z</time></trkpt><trkpt lat="42.165008737553265" lon="13.992251652165397"><ele>502.0</ele><time>2026-04-04T13:22:29.999Z</time></trkpt><trkpt lat="42.16509946586583" lon="13.992116644382905"><ele>503.0</ele><time>2026-04-04T13:22:30.999Z</time></trkpt><trkpt lat="42.16521141221026" lon="13.992002227168701"><ele>504.0</ele><time>2026-04-04T13:22:31.999Z</time></trkpt><trkpt lat="42.16532544519524" lon="13.991861095960292"><ele>505.0</ele><time>2026-04-04T13:22:32.999Z</time></trkpt><trkpt lat="42.165452991996084" lon="13.991774642785515"><ele>505.0</ele><time>2026-04-04T13:22:33.999Z</time></trkpt><trkpt lat="42.16558723231708" lon="13.991709295456634"><ele>505.0</ele><time>2026-04-04T13:22:34.999Z</time></trkpt><trkpt lat="42.16573383783545" lon="13.99166950098613"><ele>505.0</ele><time>2026-04-04T13:22:36.001Z</time></trkpt><trkpt lat="42.165881227520394" lon="13.991651084019953"><ele>505.0</ele><time>2026-04-04T13:22:37.001Z</time></trkpt><trkpt lat="42.16601969544555" lon="13.99162864206957"><ele>507.25</ele><time>2026-04-04T13:22:38.001Z</time></trkpt><trkpt lat="42.166142740109635" lon="13.991577017783825"><ele>509.5</ele><time>2026-04-04T13:22:39.001Z</time></trkpt><trkpt lat="42.16625985647498" lon="13.991488558776489"><ele>511.75</ele><time>2026-04-04T13:22:40.001Z</time></trkpt><trkpt lat="42.166366162173176" lon="13.991354335511486"><ele>514.0</ele><time>2026-04-04T13:22:41.001Z</time></trkpt><trkpt lat="42.16647083587966" lon="13.991186320987403"><ele>515.5</ele><time>2026-04-04T13:22:42.001Z</time></trkpt><trkpt lat="42.166545425256025" lon="13.99100084270232"><ele>517.0</ele><time>2026-04-04T13:22:43.001Z</time></trkpt><trkpt lat="42.166604055353694" lon="13.990825884755502"><ele>518.5</ele><time>2026-04-04T13:22:44.001Z</time></trkpt><trkpt lat="42.166689852426344" lon="13.990707655901616"><ele>520.0</ele><time>2026-04-04T13:22:45.001Z</time></trkpt><trkpt lat="42.16678563749287" lon="13.990605817517269"><ele>520.0</ele><time>2026-04-04T13:22:46.001Z</time></trkpt><trkpt lat="42.166906633768036" lon="13.990540945002165"><ele>520.0</ele><time>2026-04-04T13:22:47.001Z</time></trkpt><trkpt lat="42.16705323249758" lon="13.990477814989157"><ele>520.0</ele><time>2026-04-04T13:22:48.001Z</time></trkpt><trkpt lat="42.16720701144506" lon="13.990398639572833"><ele>520.0</ele><time>2026-04-04T13:22:49.001Z</time></trkpt><trkpt lat="42.16737005815512" lon="13.990326841820885"><ele>518.0</ele><time>2026-04-04T13:22:50.001Z</time></trkpt><trkpt lat="42.167538404722386" lon="13.990239459829628"><ele>516.0</ele><time>2026-04-04T13:22:51.001Z</time></trkpt><trkpt lat="42.16770676031501" lon="13.990128965945699"><ele>514.0</ele><time>2026-04-04T13:22:52.001Z</time></trkpt><trkpt lat="42.16787164240792" lon="13.989998108203926"><ele>514.0</ele><time>2026-04-04T13:22:53.001Z</time></trkpt><trkpt lat="42.16801475856862" lon="13.98986715114356"><ele>514.0</ele><time>2026-04-04T13:22:54.001Z</time></trkpt><trkpt lat="42.168161047302576" lon="13.989759280586311"><ele>514.0</ele><time>2026-04-04T13:22:55.001Z</time></trkpt><trkpt lat="42.16829569178876" lon="13.989617966862571"><ele>519.0</ele><time>2026-04-04T13:22:56.001Z</time></trkpt><trkpt lat="42.16843170056821" lon="13.989499637394081"><ele>524.0</ele><time>2026-04-04T13:22:57.001Z</time></trkpt><trkpt lat="42.16855735913121" lon="13.989376469837083"><ele>529.0</ele><time>2026-04-04T13:22:58.001Z</time></trkpt><trkpt lat="42.16868055872136" lon="13.989227462495919"><ele>524.6666666666667</ele><time>2026-04-04T13:22:59.001Z</time></trkpt><trkpt lat="42.16879794985001" lon="13.989040573710078"><ele>520.3333333333334</ele><time>2026-04-04T13:23:00.001Z</time></trkpt><trkpt lat="42.1688959276631" lon="13.988836997564148"><ele>516.0</ele><time>2026-04-04T13:23:01.001Z</time></trkpt><trkpt lat="42.16897607320864" lon="13.988623563183191"><ele>518.0</ele><time>2026-04-04T13:23:02.001Z</time></trkpt><trkpt lat="42.169038661859936" lon="13.988383698736053"><ele>520.0</ele><time>2026-04-04T13:23:03.001Z</time></trkpt><trkpt lat="42.169095911167844" lon="13.988140057994828"><ele>522.0</ele><time>2026-04-04T13:23:04.001Z</time></trkpt><trkpt lat="42.16914140486356" lon="13.987903891968212"><ele>522.0</ele><time>2026-04-04T13:23:05Z</time></trkpt><trkpt lat="42.1691817403874" lon="13.987679396500658"><ele>522.0</ele><time>2026-04-04T13:23:06Z</time></trkpt><trkpt lat="42.16922878315841" lon="13.98746886958879"><ele>522.0</ele><time>2026-04-04T13:23:07Z</time></trkpt><trkpt lat="42.16931550864711" lon="13.98729099589854"><ele>517.0</ele><time>2026-04-04T13:23:08Z</time></trkpt><trkpt lat="42.16941753370705" lon="13.98710908057957"><ele>512.0</ele><time>2026-04-04T13:23:09Z</time></trkpt><trkpt lat="42.16952424774261" lon="13.986914847758646"><ele>507.0</ele><time>2026-04-04T13:23:10Z</time></trkpt><trkpt lat="42.16962484984781" lon="13.986706627499213"><ele>504.0</ele><time>2026-04-04T13:23:11Z</time></trkpt><trkpt lat="42.16972797670058" lon="13.986519383734235"><ele>501.0</ele><time>2026-04-04T13:23:12Z</time></trkpt><trkpt lat="42.16983400344236" lon="13.986357974486037"><ele>498.0</ele><time>2026-04-04T13:23:13Z</time></trkpt><trkpt lat="42.16991616903146" lon="13.986180472168583"><ele>506.33333333333337</ele><time>2026-04-04T13:23:14Z</time></trkpt><trkpt lat="42.169988267046136" lon="13.986007330614859"><ele>514.6666666666667</ele><time>2026-04-04T13:23:15Z</time></trkpt><trkpt lat="42.17006402508507" lon="13.985826151875195"><ele>523.0</ele><time>2026-04-04T13:23:16Z</time></trkpt><trkpt lat="42.170140557896076" lon="13.985645905831127"><ele>523.0</ele><time>2026-04-04T13:23:17Z</time></trkpt><trkpt lat="42.17021788318447" lon="13.98546578168736"><ele>523.0</ele><time>2026-04-04T13:23:18Z</time></trkpt><trkpt lat="42.17029679032469" lon="13.985282526596846"><ele>523.0</ele><time>2026-04-04T13:23:19Z</time></trkpt><trkpt lat="42.170375040964906" lon="13.985100918819635"><ele>520.0</ele><time>2026-04-04T13:23:20Z</time></trkpt><trkpt lat="42.17045677037597" lon="13.984913468077155"><ele>517.0</ele><time>2026-04-04T13:23:21Z</time></trkpt><trkpt lat="42.170541910894585" lon="13.984718193818377"><ele>514.0</ele><time>2026-04-04T13:23:22Z</time></trkpt><trkpt lat="42.17060259752128" lon="13.984535687613178"><ele>514.0</ele><time>2026-04-04T13:23:23Z</time></trkpt><trkpt lat="42.170683960298106" lon="13.984360099129416"><ele>514.0</ele><time>2026-04-04T13:23:24Z</time></trkpt><trkpt lat="42.17077957194155" lon="13.98420414807906"><ele>514.0</ele><time>2026-04-04T13:23:25Z</time></trkpt><trkpt lat="42.170862517378396" lon="13.98404419125945"><ele>514.0</ele><time>2026-04-04T13:23:26Z</time></trkpt><trkpt lat="42.17094860259518" lon="13.983880089095498"><ele>512.75</ele><time>2026-04-04T13:23:27Z</time></trkpt><trkpt lat="42.17103430741141" lon="13.983722548762692"><ele>511.5</ele><time>2026-04-04T13:23:28Z</time></trkpt><trkpt lat="42.1711199750984" lon="13.98357311948809"><ele>510.25</ele><time>2026-04-04T13:23:29Z</time></trkpt><trkpt lat="42.17121549255555" lon="13.983431393114271"><ele>509.0</ele><time>2026-04-04T13:23:30Z</time></trkpt><trkpt lat="42.171321442055294" lon="13.98330462195773"><ele>509.0</ele><time>2026-04-04T13:23:31Z</time></trkpt><trkpt lat="42.17143220033831" lon="13.983181611012112"><ele>509.0</ele><time>2026-04-04T13:23:32Z</time></trkpt><trkpt lat="42.17154558455782" lon="13.983044723161612"><ele>509.0</ele><time>2026-04-04T13:23:33Z</time></trkpt><trkpt lat="42.17166399036055" lon="13.982925945989262"><ele>509.0</ele><time>2026-04-04T13:23:34Z</time></trkpt><trkpt lat="42.171780137835825" lon="13.982816186688066"><ele>512.5</ele><time>2026-04-04T13:23:35Z</time></trkpt><trkpt lat="42.17190508543343" lon="13.982721160135236"><ele>516.0</ele><time>2026-04-04T13:23:36Z</time></trkpt><trkpt lat="42.17200562144243" lon="13.982572200253829"><ele>519.5</ele><time>2026-04-04T13:23:37Z</time></trkpt><trkpt lat="42.17209806985371" lon="13.982424295167004"><ele>523.0</ele><time>2026-04-04T13:23:38Z</time></trkpt><trkpt lat="42.17219514711198" lon="13.982284870579166"><ele>523.0</ele><time>2026-04-04T13:23:39Z</time></trkpt><trkpt lat="42.17227016706313" lon="13.98213527668561"><ele>523.0</ele><time>2026-04-04T13:23:40Z</time></trkpt><trkpt lat="42.172334711316545" lon="13.981976566833094"><ele>523.0</ele><time>2026-04-04T13:23:41Z</time></trkpt><trkpt lat="42.17241775894269" lon="13.98183764258698"><ele>523.0</ele><time>2026-04-04T13:23:42Z</time></trkpt><trkpt lat="42.172495510151" lon="13.98171209249709"><ele>526.5</ele><time>2026-04-04T13:23:43Z</time></trkpt><trkpt lat="42.17258474267357" lon="13.981595956718188"><ele>530.0</ele><time>2026-04-04T13:23:44Z</time></trkpt><trkpt lat="42.1727074630274" lon="13.981508021389976"><ele>533.5</ele><time>2026-04-04T13:23:45Z</time></trkpt><trkpt lat="42.17282716252354" lon="13.98138314720241"><ele>537.0</ele><time>2026-04-04T13:23:46Z</time></trkpt><trkpt lat="42.17295507449983" lon="13.981288706323785"><ele>537.0</ele><time>2026-04-04T13:23:47Z</time></trkpt><trkpt lat="42.17306412969913" lon="13.981192183024003"><ele>537.0</ele><time>2026-04-04T13:23:48Z</time></trkpt><trkpt lat="42.17315466973065" lon="13.981070868626198"><ele>537.0</ele><time>2026-04-04T13:23:49Z</time></trkpt><trkpt lat="42.17322941228711" lon="13.98093048087893"><ele>537.0</ele><time>2026-04-04T13:23:50Z</time></trkpt><trkpt lat="42.173280847957045" lon="13.980765790603602"><ele>540.8000000000001</ele><time>2026-04-04T13:23:51Z</time></trkpt><trkpt lat="42.17331401757267" lon="13.980608051494862"><ele>544.6</ele><time>2026-04-04T13:23:52Z</time></trkpt><trkpt lat="42.173333364439856" lon="13.980463561500585"><ele>548.4000000000001</ele><time>2026-04-04T13:23:53Z</time></trkpt><trkpt lat="42.17334710982771" lon="13.980333796029988"><ele>552.2</ele><time>2026-04-04T13:23:54Z</time></trkpt><trkpt lat="42.17337157195699" lon="13.98021290027409"><ele>556.0</ele><time>2026-04-04T13:23:55Z</time></trkpt><trkpt lat="42.173392507270805" lon="13.980093310873565"><ele>554.8333333333334</ele><time>2026-04-04T13:23:56Z</time></trkpt><trkpt lat="42.17340608544561" lon="13.979975653137327"><ele>553.6666666666667</ele><time>2026-04-04T13:23:57Z</time></trkpt><trkpt lat="42.17341774104307" lon="13.979874651128553"><ele>552.5</ele><time>2026-04-04T13:23:58Z</time></trkpt><trkpt lat="42.17341960089955" lon="13.979777795714504"><ele>551.3333333333334</ele><time>2026-04-04T13:23:59Z</time></trkpt><trkpt lat="42.173446136693876" lon="13.979689228248615"><ele>550.1666666666666</ele><time>2026-04-04T13:24:00Z</time></trkpt><trkpt lat="42.17347519852459" lon="13.97954287466557"><ele>549.0</ele><time>2026-04-04T13:24:02Z</time></trkpt><trkpt lat="42.17350826804939" lon="13.979467186878399"><ele>549.0</ele><time>2026-04-04T13:24:04Z</time></trkpt><trkpt lat="42.1735123906699" lon="13.979337644852116"><ele>549.0</ele><time>2026-04-04T13:25:13Z</time></trkpt><trkpt lat="42.17355197337256" lon="13.979206957039025"><ele>549.0</ele><time>2026-04-04T13:25:14Z</time></trkpt><trkpt lat="42.17357526990099" lon="13.979043331088082"><ele>549.0</ele><time>2026-04-04T13:25:15Z</time></trkpt><trkpt lat="42.17360785883544" lon="13.978883140377942"><ele>549.0</ele><time>2026-04-04T13:25:16Z</time></trkpt><trkpt lat="42.17363405167431" lon="13.97869494400665"><ele>548.0</ele><time>2026-04-04T13:25:17Z</time></trkpt><trkpt lat="42.1736592288541" lon="13.978491197327303"><ele>547.0</ele><time>2026-04-04T13:25:18Z</time></trkpt><trkpt lat="42.173688336544565" lon="13.978295718292985"><ele>546.0</ele><time>2026-04-04T13:25:19Z</time></trkpt><trkpt lat="42.17372726364646" lon="13.978089638087237"><ele>542.3333333333334</ele><time>2026-04-04T13:25:20Z</time></trkpt><trkpt lat="42.17377097057711" lon="13.977857035603158"><ele>538.6666666666667</ele><time>2026-04-04T13:25:21Z</time></trkpt><trkpt lat="42.17382044451358" lon="13.977618393414243"><ele>535.0</ele><time>2026-04-04T13:25:22Z</time></trkpt><trkpt lat="42.17386291375733" lon="13.977418511911372"><ele>533.5</ele><time>2026-04-04T13:25:23Z</time></trkpt><trkpt lat="42.173923038604876" lon="13.977239440914946"><ele>532.0</ele><time>2026-04-04T13:25:24Z</time></trkpt><trkpt lat="42.17397355082667" lon="13.97704817136726"><ele>530.5</ele><time>2026-04-04T13:25:25Z</time></trkpt><trkpt lat="42.17402395709982" lon="13.976872357510077"><ele>529.0</ele><time>2026-04-04T13:25:26Z</time></trkpt><trkpt lat="42.17407142700712" lon="13.976719266522464"><ele>536.5</ele><time>2026-04-04T13:25:27Z</time></trkpt><trkpt lat="42.17412653070178" lon="13.976589429376714"><ele>544.0</ele><time>2026-04-04T13:25:28Z</time></trkpt><trkpt lat="42.174191722800586" lon="13.976475267049388"><ele>551.5</ele><time>2026-04-04T13:25:29Z</time></trkpt><trkpt lat="42.17428830144898" lon="13.976387489658666"><ele>559.0</ele><time>2026-04-04T13:25:30Z</time></trkpt><trkpt lat="42.17441335341049" lon="13.976314130959498"><ele>559.0</ele><time>2026-04-04T13:25:31Z</time></trkpt><trkpt lat="42.17456220969357" lon="13.976274244009991"><ele>559.0</ele><time>2026-04-04T13:25:32Z</time></trkpt><trkpt lat="42.174736075269664" lon="13.976240822052151"><ele>559.0</ele><time>2026-04-04T13:25:33Z</time></trkpt><trkpt lat="42.17490514976718" lon="13.976181316911166"><ele>564.6666666666667</ele><time>2026-04-04T13:25:34Z</time></trkpt><trkpt lat="42.17507347977454" lon="13.976112709975332"><ele>570.3333333333334</ele><time>2026-04-04T13:25:35Z</time></trkpt><trkpt lat="42.17523154153591" lon="13.976016878710233"><ele>576.0</ele><time>2026-04-04T13:25:36Z</time></trkpt><trkpt lat="42.17538972786806" lon="13.97588884109491"><ele>575.0</ele><time>2026-04-04T13:25:37Z</time></trkpt><trkpt lat="42.17554555966933" lon="13.975748080185365"><ele>574.0</ele><time>2026-04-04T13:25:38Z</time></trkpt><trkpt lat="42.17569489538993" lon="13.975653750945181"><ele>573.0</ele><time>2026-04-04T13:25:39Z</time></trkpt><trkpt lat="42.1758307797436" lon="13.975553320406526"><ele>573.0</ele><time>2026-04-04T13:25:40Z</time></trkpt><trkpt lat="42.17596205017958" lon="13.975472378628437"><ele>573.0</ele><time>2026-04-04T13:25:41Z</time></trkpt><trkpt lat="42.17609624692263" lon="13.975386495677204"><ele>573.0</ele><time>2026-04-04T13:25:42Z</time></trkpt><trkpt lat="42.176251991472604" lon="13.975381637321648"><ele>573.0</ele><time>2026-04-04T13:25:43Z</time></trkpt><trkpt lat="42.17640748702971" lon="13.97536562079059"><ele>575.0</ele><time>2026-04-04T13:25:44Z</time></trkpt><trkpt lat="42.17656291526399" lon="13.975408351431724"><ele>577.0</ele><time>2026-04-04T13:25:45Z</time></trkpt><trkpt lat="42.17671768783235" lon="13.975481707473017"><ele>579.0</ele><time>2026-04-04T13:25:46Z</time></trkpt><trkpt lat="42.17687259549266" lon="13.975582076582187"><ele>579.0</ele><time>2026-04-04T13:25:47Z</time></trkpt><trkpt lat="42.1770266625832" lon="13.97570009849661"><ele>579.0</ele><time>2026-04-04T13:25:48Z</time></trkpt><trkpt lat="42.17718619754348" lon="13.975819298344323"><ele>579.0</ele><time>2026-04-04T13:25:49Z</time></trkpt><trkpt lat="42.17735018027758" lon="13.975935350390248"><ele>580.6666666666666</ele><time>2026-04-04T13:25:50Z</time></trkpt><trkpt lat="42.177523271028015" lon="13.976056142564333"><ele>582.3333333333333</ele><time>2026-04-04T13:25:51Z</time></trkpt><trkpt lat="42.17769777363208" lon="13.976178131454226"><ele>584.0</ele><time>2026-04-04T13:25:52Z</time></trkpt><trkpt lat="42.17787818005131" lon="13.976303311422411"><ele>584.0</ele><time>2026-04-04T13:25:53Z</time></trkpt><trkpt lat="42.17806816240608" lon="13.976437523438953"><ele>584.0</ele><time>2026-04-04T13:25:54Z</time></trkpt><trkpt lat="42.178259931108" lon="13.976572341317476"><ele>584.0</ele><time>2026-04-04T13:25:55Z</time></trkpt><trkpt lat="42.17844689951588" lon="13.976703911984103"><ele>585.6666666666666</ele><time>2026-04-04T13:25:56Z</time></trkpt><trkpt lat="42.17863569792078" lon="13.97683278637038"><ele>587.3333333333334</ele><time>2026-04-04T13:25:57Z</time></trkpt><trkpt lat="42.17881912096546" lon="13.976959626466977"><ele>589.0</ele><time>2026-04-04T13:25:58Z</time></trkpt><trkpt lat="42.17899340353766" lon="13.977077026277996"><ele>587.3333333333334</ele><time>2026-04-04T13:25:59Z</time></trkpt><trkpt lat="42.17916105213379" lon="13.977193784165024"><ele>585.6666666666666</ele><time>2026-04-04T13:26:00Z</time></trkpt><trkpt lat="42.17933294595937" lon="13.977312868127907"><ele>584.0</ele><time>2026-04-04T13:26:01Z</time></trkpt><trkpt lat="42.179496400590345" lon="13.977426224245471"><ele>587.0</ele><time>2026-04-04T13:26:02Z</time></trkpt><trkpt lat="42.179659465905765" lon="13.977541350548114"><ele>590.0</ele><time>2026-04-04T13:26:03Z</time></trkpt><trkpt lat="42.1798147832788" lon="13.977653625591715"><ele>593.0</ele><time>2026-04-04T13:26:04Z</time></trkpt><trkpt lat="42.17996229120201" lon="13.977755437084245"><ele>593.3333333333333</ele><time>2026-04-04T13:26:05Z</time></trkpt><trkpt lat="42.18012069681618" lon="13.977844641910647"><ele>593.6666666666666</ele><time>2026-04-04T13:26:06Z</time></trkpt><trkpt lat="42.180289370588" lon="13.977910178511541"><ele>594.0</ele><time>2026-04-04T13:26:07Z</time></trkpt><trkpt lat="42.18047109637764" lon="13.977944972251043"><ele>594.0</ele><time>2026-04-04T13:26:08Z</time></trkpt><trkpt lat="42.18065673495615" lon="13.977953702329556"><ele>594.0</ele><time>2026-04-04T13:26:09Z</time></trkpt><trkpt lat="42.18082687803802" lon="13.977931390539075"><ele>594.0</ele><time>2026-04-04T13:26:10Z</time></trkpt><trkpt lat="42.18099642920566" lon="13.977897682991447"><ele>593.0</ele><time>2026-04-04T13:26:11Z</time></trkpt><trkpt lat="42.181154735483" lon="13.97787043784342"><ele>592.0</ele><time>2026-04-04T13:26:12Z</time></trkpt><trkpt lat="42.18131665999699" lon="13.977846818521062"><ele>591.0</ele><time>2026-04-04T13:26:13Z</time></trkpt><trkpt lat="42.181479233372244" lon="13.977817435560556"><ele>591.6666666666666</ele><time>2026-04-04T13:26:14Z</time></trkpt><trkpt lat="42.18164626835137" lon="13.977781245000424"><ele>592.3333333333333</ele><time>2026-04-04T13:26:15Z</time></trkpt><trkpt lat="42.18181171740437" lon="13.977749777327372"><ele>593.0</ele><time>2026-04-04T13:26:16Z</time></trkpt><trkpt lat="42.18196597858422" lon="13.977717956252796"><ele>593.0</ele><time>2026-04-04T13:26:17Z</time></trkpt><trkpt lat="42.18211176611396" lon="13.977689747344252"><ele>593.0</ele><time>2026-04-04T13:26:18Z</time></trkpt><trkpt lat="42.18225266143154" lon="13.977660406321228"><ele>593.0</ele><time>2026-04-04T13:26:19Z</time></trkpt><trkpt lat="42.182393685448844" lon="13.977670099194235"><ele>593.0</ele><time>2026-04-04T13:26:20Z</time></trkpt><trkpt lat="42.18252548370702" lon="13.97765506418796"><ele>593.6666666666666</ele><time>2026-04-04T13:26:20.999Z</time></trkpt><trkpt lat="42.18266512434116" lon="13.977706237636168"><ele>594.3333333333334</ele><time>2026-04-04T13:26:21.999Z</time></trkpt><trkpt lat="42.18280830608249" lon="13.97778368006359"><ele>595.0</ele><time>2026-04-04T13:26:22.999Z</time></trkpt><trkpt lat="42.18295486887606" lon="13.977890254017238"><ele>595.0</ele><time>2026-04-04T13:26:23.999Z</time></trkpt><trkpt lat="42.183097503902474" lon="13.978005550576277"><ele>595.0</ele><time>2026-04-04T13:26:24.999Z</time></trkpt><trkpt lat="42.183247314954414" lon="13.978139682814763"><ele>595.0</ele><time>2026-04-04T13:26:25.999Z</time></trkpt><trkpt lat="42.18340219770047" lon="13.978280459166912"><ele>597.0</ele><time>2026-04-04T13:26:26.999Z</time></trkpt><trkpt lat="42.183554161618325" lon="13.978427479839269"><ele>599.0</ele><time>2026-04-04T13:26:27.999Z</time></trkpt><trkpt lat="42.18370859693006" lon="13.978576341706862"><ele>601.0</ele><time>2026-04-04T13:26:28.999Z</time></trkpt><trkpt lat="42.183867890706956" lon="13.97872875479094"><ele>602.0</ele><time>2026-04-04T13:26:29.999Z</time></trkpt><trkpt lat="42.18402804151309" lon="13.97888003537704"><ele>603.0</ele><time>2026-04-04T13:26:30.999Z</time></trkpt><trkpt lat="42.18419462617161" lon="13.979032211479417"><ele>604.0</ele><time>2026-04-04T13:26:31.999Z</time></trkpt><trkpt lat="42.18436147777551" lon="13.97918661313872"><ele>604.0</ele><time>2026-04-04T13:26:32.999Z</time></trkpt><trkpt lat="42.18451984037382" lon="13.979340991705556"><ele>604.0</ele><time>2026-04-04T13:26:33.999Z</time></trkpt><trkpt lat="42.18467110303969" lon="13.979483485230725"><ele>604.0</ele><time>2026-04-04T13:26:34.999Z</time></trkpt><trkpt lat="42.18481235106128" lon="13.979614586119004"><ele>600.6666666666667</ele><time>2026-04-04T13:26:35.999Z</time></trkpt><trkpt lat="42.18495225134369" lon="13.979738958753062"><ele>597.3333333333334</ele><time>2026-04-04T13:26:36.999Z</time></trkpt><trkpt lat="42.185090915235996" lon="13.979859407676454"><ele>594.0</ele><time>2026-04-04T13:26:37.999Z</time></trkpt><trkpt lat="42.18523124205215" lon="13.979967475125017"><ele>594.0</ele><time>2026-04-04T13:26:38.999Z</time></trkpt><trkpt lat="42.18538469975797" lon="13.9800564134926"><ele>594.0</ele><time>2026-04-04T13:26:39.999Z</time></trkpt><trkpt lat="42.1855480592417" lon="13.980112577911369"><ele>594.0</ele><time>2026-04-04T13:26:40.999Z</time></trkpt><trkpt lat="42.18572669050727" lon="13.980146692851852"><ele>594.0</ele><time>2026-04-04T13:26:41.999Z</time></trkpt><trkpt lat="42.18592245762692" lon="13.980145721966018"><ele>594.0</ele><time>2026-04-04T13:26:42.999Z</time></trkpt><trkpt lat="42.18612525332097" lon="13.980130710725364"><ele>594.0</ele><time>2026-04-04T13:26:43.999Z</time></trkpt><trkpt lat="42.18633611591181" lon="13.980113587538154"><ele>595.0</ele><time>2026-04-04T13:26:44.999Z</time></trkpt><trkpt lat="42.1865546175724" lon="13.980098639003941"><ele>596.0</ele><time>2026-04-04T13:26:45.999Z</time></trkpt><trkpt lat="42.18677869665613" lon="13.980087821127592"><ele>597.0</ele><time>2026-04-04T13:26:46.999Z</time></trkpt><trkpt lat="42.18700920689264" lon="13.980073634924757"><ele>597.0</ele><time>2026-04-04T13:26:48.001Z</time></trkpt><trkpt lat="42.18724217376716" lon="13.980054034308836"><ele>597.0</ele><time>2026-04-04T13:26:49.001Z</time></trkpt><trkpt lat="42.18747876137543" lon="13.980034571088773"><ele>593.0</ele><time>2026-04-04T13:26:50.001Z</time></trkpt><trkpt lat="42.1877164326622" lon="13.980013361359436"><ele>589.0</ele><time>2026-04-04T13:26:51.001Z</time></trkpt><trkpt lat="42.18794725594156" lon="13.979989624284315"><ele>589.0</ele><time>2026-04-04T13:26:52.001Z</time></trkpt><trkpt lat="42.18815299754034" lon="13.979964434132967"><ele>589.0</ele><time>2026-04-04T13:26:53.001Z</time></trkpt><trkpt lat="42.18834906792944" lon="13.979967245883028"><ele>589.0</ele><time>2026-04-04T13:26:54.001Z</time></trkpt><trkpt lat="42.18854582204916" lon="13.979953186359065"><ele>590.0</ele><time>2026-04-04T13:26:55.001Z</time></trkpt><trkpt lat="42.1887455443569" lon="13.979919080027907"><ele>591.0</ele><time>2026-04-04T13:26:56.001Z</time></trkpt><trkpt lat="42.18894132281884" lon="13.979911230545996"><ele>592.0</ele><time>2026-04-04T13:26:57.001Z</time></trkpt><trkpt lat="42.189127226742706" lon="13.979901609422603"><ele>592.3333333333334</ele><time>2026-04-04T13:26:58.001Z</time></trkpt><trkpt lat="42.189304540544605" lon="13.979891213563231"><ele>592.6666666666666</ele><time>2026-04-04T13:26:59.001Z</time></trkpt><trkpt lat="42.189472383649175" lon="13.97988994486451"><ele>593.0</ele><time>2026-04-04T13:27:00.001Z</time></trkpt><trkpt lat="42.18964226030499" lon="13.979904185488916"><ele>593.0</ele><time>2026-04-04T13:27:01.001Z</time></trkpt><trkpt lat="42.18980155931945" lon="13.97993468075678"><ele>593.0</ele><time>2026-04-04T13:27:02.001Z</time></trkpt><trkpt lat="42.18995049537083" lon="13.979996798028086"><ele>593.0</ele><time>2026-04-04T13:27:03.001Z</time></trkpt><trkpt lat="42.190103724353655" lon="13.980085591897803"><ele>595.3333333333333</ele><time>2026-04-04T13:27:04.001Z</time></trkpt><trkpt lat="42.19024941878041" lon="13.980212992872776"><ele>597.6666666666666</ele><time>2026-04-04T13:27:05.001Z</time></trkpt><trkpt lat="42.190402343276936" lon="13.980356585133489"><ele>600.0</ele><time>2026-04-04T13:27:06.001Z</time></trkpt><trkpt lat="42.19056410193475" lon="13.980511020480117"><ele>601.0</ele><time>2026-04-04T13:27:07.001Z</time></trkpt><trkpt lat="42.190733598427165" lon="13.98066380706561"><ele>602.0</ele><time>2026-04-04T13:27:08.001Z</time></trkpt><trkpt lat="42.190899521527" lon="13.980809415081124"><ele>603.0</ele><time>2026-04-04T13:27:09.001Z</time></trkpt><trkpt lat="42.191055378519785" lon="13.980942507448008"><ele>603.0</ele><time>2026-04-04T13:27:10Z</time></trkpt><trkpt lat="42.19119911942638" lon="13.981098343620769"><ele>603.0</ele><time>2026-04-04T13:27:11Z</time></trkpt><trkpt lat="42.191357196399316" lon="13.981242532060072"><ele>603.0</ele><time>2026-04-04T13:27:12Z</time></trkpt><trkpt lat="42.19151758953169" lon="13.98138874206957"><ele>600.6666666666666</ele><time>2026-04-04T13:27:13Z</time></trkpt><trkpt lat="42.19168284582665" lon="13.981517320901643"><ele>598.3333333333333</ele><time>2026-04-04T13:27:14Z</time></trkpt><trkpt lat="42.19183061402246" lon="13.981655364466716"><ele>596.0</ele><time>2026-04-04T13:27:15Z</time></trkpt><trkpt lat="42.19196362872417" lon="13.98179328625548"><ele>596.0</ele><time>2026-04-04T13:27:16Z</time></trkpt><trkpt lat="42.1920710654119" lon="13.981959370723335"><ele>596.0</ele><time>2026-04-04T13:27:17Z</time></trkpt><trkpt lat="42.1921903970677" lon="13.982136994181912"><ele>596.0</ele><time>2026-04-04T13:27:18Z</time></trkpt><trkpt lat="42.19226603757618" lon="13.982365984862081"><ele>596.0</ele><time>2026-04-04T13:27:19Z</time></trkpt><trkpt lat="42.192350590044114" lon="13.982589855379958"><ele>596.0</ele><time>2026-04-04T13:27:20Z</time></trkpt><trkpt lat="42.192449203566824" lon="13.982813102366611"><ele>596.0</ele><time>2026-04-04T13:27:21Z</time></trkpt><trkpt lat="42.192534081697794" lon="13.983056176883656"><ele>596.0</ele><time>2026-04-04T13:27:22Z</time></trkpt><trkpt lat="42.19262648801003" lon="13.983303395468473"><ele>596.0</ele><time>2026-04-04T13:27:23Z</time></trkpt><trkpt lat="42.19272244422275" lon="13.983551290080666"><ele>596.0</ele><time>2026-04-04T13:27:24Z</time></trkpt><trkpt lat="42.19280604586083" lon="13.983787488030654"><ele>595.3333333333333</ele><time>2026-04-04T13:27:25Z</time></trkpt><trkpt lat="42.19288405897661" lon="13.984011444488027"><ele>594.6666666666666</ele><time>2026-04-04T13:27:26Z</time></trkpt><trkpt lat="42.19296097228764" lon="13.984217541082776"><ele>594.0</ele><time>2026-04-04T13:27:27Z</time></trkpt><trkpt lat="42.19303264456236" lon="13.984402731896385"><ele>594.0</ele><time>2026-04-04T13:27:28Z</time></trkpt><trkpt lat="42.19309130312798" lon="13.984565997126973"><ele>594.0</ele><time>2026-04-04T13:27:29Z</time></trkpt><trkpt lat="42.19315363982371" lon="13.984706310054733"><ele>594.0</ele><time>2026-04-04T13:27:30Z</time></trkpt><trkpt lat="42.19324305235559" lon="13.98481452875696"><ele>594.0</ele><time>2026-04-04T13:27:31Z</time></trkpt><trkpt lat="42.19335940170306" lon="13.984889786231777"><ele>594.3333333333334</ele><time>2026-04-04T13:27:32Z</time></trkpt><trkpt lat="42.193498425555084" lon="13.984934708509606"><ele>594.6666666666667</ele><time>2026-04-04T13:27:33Z</time></trkpt><trkpt lat="42.193653837556504" lon="13.984947152596547"><ele>595.0</ele><time>2026-04-04T13:27:34Z</time></trkpt><trkpt lat="42.19381903691232" lon="13.984934289395087"><ele>595.0</ele><time>2026-04-04T13:27:35Z</time></trkpt><trkpt lat="42.193991194072865" lon="13.984935379851864"><ele>595.0</ele><time>2026-04-04T13:27:36Z</time></trkpt><trkpt lat="42.19415744152106" lon="13.984949911321058"><ele>595.0</ele><time>2026-04-04T13:27:37Z</time></trkpt><trkpt lat="42.19431125674105" lon="13.984965378251667"><ele>593.3333333333334</ele><time>2026-04-04T13:27:38Z</time></trkpt><trkpt lat="42.19446432285374" lon="13.98498383273087"><ele>591.6666666666666</ele><time>2026-04-04T13:27:39Z</time></trkpt><trkpt lat="42.19461797279178" lon="13.985025060836392"><ele>590.0</ele><time>2026-04-04T13:27:40Z</time></trkpt><trkpt lat="42.19475981039061" lon="13.985090301607007"><ele>590.6666666666666</ele><time>2026-04-04T13:27:41Z</time></trkpt><trkpt lat="42.19488913064125" lon="13.985182476979759"><ele>591.3333333333334</ele><time>2026-04-04T13:27:42Z</time></trkpt><trkpt lat="42.19500223836858" lon="13.98531481197988"><ele>592.0</ele><time>2026-04-04T13:27:43Z</time></trkpt><trkpt lat="42.19511690570605" lon="13.985462390103184"><ele>592.0</ele><time>2026-04-04T13:27:44Z</time></trkpt><trkpt lat="42.19523743992696" lon="13.985621751955037"><ele>592.0</ele><time>2026-04-04T13:27:45Z</time></trkpt><trkpt lat="42.19532436901867" lon="13.985815597249873"><ele>592.0</ele><time>2026-04-04T13:27:46Z</time></trkpt><trkpt lat="42.19540449654778" lon="13.986021217671496"><ele>594.3333333333334</ele><time>2026-04-04T13:27:47Z</time></trkpt><trkpt lat="42.195489068177345" lon="13.986231714183047"><ele>596.6666666666666</ele><time>2026-04-04T13:27:48Z</time></trkpt><trkpt lat="42.19557295283502" lon="13.986437991426435"><ele>599.0</ele><time>2026-04-04T13:27:49Z</time></trkpt><trkpt lat="42.1956437076115" lon="13.986634776303333"><ele>596.25</ele><time>2026-04-04T13:27:50Z</time></trkpt><trkpt lat="42.1957136526488" lon="13.98682225173564"><ele>593.5</ele><time>2026-04-04T13:27:51Z</time></trkpt><trkpt lat="42.19578512267647" lon="13.986969851115802"><ele>590.75</ele><time>2026-04-04T13:27:52Z</time></trkpt><trkpt lat="42.19586127096431" lon="13.987115097628806"><ele>588.0</ele><time>2026-04-04T13:27:53Z</time></trkpt><trkpt lat="42.19595483278543" lon="13.987233454021158"><ele>588.0</ele><time>2026-04-04T13:27:54Z</time></trkpt><trkpt lat="42.196064785755" lon="13.987317994129908"><ele>588.0</ele><time>2026-04-04T13:27:55Z</time></trkpt><trkpt lat="42.196190759471314" lon="13.987362216611002"><ele>588.0</ele><time>2026-04-04T13:27:56Z</time></trkpt><trkpt lat="42.19633521974482" lon="13.98735008169554"><ele>588.0</ele><time>2026-04-04T13:27:57Z</time></trkpt><trkpt lat="42.19649410934429" lon="13.987310492306147"><ele>586.3333333333334</ele><time>2026-04-04T13:27:58Z</time></trkpt><trkpt lat="42.1966554493814" lon="13.987260146269374"><ele>584.6666666666667</ele><time>2026-04-04T13:27:59Z</time></trkpt><trkpt lat="42.19680278268729" lon="13.987224513250096"><ele>583.0</ele><time>2026-04-04T13:28:00Z</time></trkpt><trkpt lat="42.19694645782388" lon="13.98719075662289"><ele>583.0</ele><time>2026-04-04T13:28:01Z</time></trkpt><trkpt lat="42.19709008279039" lon="13.987158651413196"><ele>583.0</ele><time>2026-04-04T13:28:02Z</time></trkpt><trkpt lat="42.197230011406425" lon="13.987134664055167"><ele>583.0</ele><time>2026-04-04T13:28:03Z</time></trkpt><trkpt lat="42.19737700234877" lon="13.987147012267593"><ele>583.0</ele><time>2026-04-04T13:28:04Z</time></trkpt><trkpt lat="42.19753444568429" lon="13.987196981903926"><ele>582.3333333333334</ele><time>2026-04-04T13:28:05Z</time></trkpt><trkpt lat="42.19770222135729" lon="13.987283767991345"><ele>581.6666666666666</ele><time>2026-04-04T13:28:06Z</time></trkpt><trkpt lat="42.19786900346722" lon="13.98739139143999"><ele>581.0</ele><time>2026-04-04T13:28:07Z</time></trkpt><trkpt lat="42.198041966647885" lon="13.98750090133321"><ele>582.3333333333333</ele><time>2026-04-04T13:28:08Z</time></trkpt><trkpt lat="42.19821924270187" lon="13.987610713844383"><ele>583.6666666666666</ele><time>2026-04-04T13:28:09Z</time></trkpt><trkpt lat="42.19838866491299" lon="13.987717589804877"><ele>585.0</ele><time>2026-04-04T13:28:10Z</time></trkpt><trkpt lat="42.19854578072113" lon="13.987811020766472"><ele>585.0</ele><time>2026-04-04T13:28:11Z</time></trkpt><trkpt lat="42.19869396652738" lon="13.98790484424335"><ele>585.0</ele><time>2026-04-04T13:28:12Z</time></trkpt><trkpt lat="42.19883534158679" lon="13.987992364640215"><ele>585.0</ele><time>2026-04-04T13:28:13Z</time></trkpt><trkpt lat="42.19897236584266" lon="13.988082828403668"><ele>584.3333333333334</ele><time>2026-04-04T13:28:14Z</time></trkpt><trkpt lat="42.199111121031216" lon="13.988177898724345"><ele>583.6666666666667</ele><time>2026-04-04T13:28:15Z</time></trkpt><trkpt lat="42.19924513457022" lon="13.988279780596224"><ele>583.0</ele><time>2026-04-04T13:28:16Z</time></trkpt><trkpt lat="42.19937909570147" lon="13.988407733288875"><ele>583.0</ele><time>2026-04-04T13:28:16.999Z</time></trkpt><trkpt lat="42.19949811027741" lon="13.988575148453556"><ele>583.0</ele><time>2026-04-04T13:28:17.999Z</time></trkpt><trkpt lat="42.19964098591158" lon="13.988730186109777"><ele>583.0</ele><time>2026-04-04T13:28:18.999Z</time></trkpt><trkpt lat="42.19977757138545" lon="13.98891422425474"><ele>580.3333333333334</ele><time>2026-04-04T13:28:19.999Z</time></trkpt><trkpt lat="42.19992062688469" lon="13.989094822210761"><ele>577.6666666666666</ele><time>2026-04-04T13:28:20.999Z</time></trkpt><trkpt lat="42.20005945482339" lon="13.989257601505276"><ele>575.0</ele><time>2026-04-04T13:28:21.999Z</time></trkpt><trkpt lat="42.20019140384458" lon="13.989417895617443"><ele>575.0</ele><time>2026-04-04T13:28:22.999Z</time></trkpt><trkpt lat="42.20031667240395" lon="13.989572557868724"><ele>575.0</ele><time>2026-04-04T13:28:23.999Z</time></trkpt><trkpt lat="42.20043643234761" lon="13.989725853926291"><ele>575.0</ele><time>2026-04-04T13:28:24.999Z</time></trkpt><trkpt lat="42.2005562412947" lon="13.989871095437048"><ele>576.25</ele><time>2026-04-04T13:28:25.999Z</time></trkpt><trkpt lat="42.20066700194873" lon="13.989998419850279"><ele>577.5</ele><time>2026-04-04T13:28:26.999Z</time></trkpt><trkpt lat="42.20076756412254" lon="13.990101343486034"><ele>578.75</ele><time>2026-04-04T13:28:27.999Z</time></trkpt><trkpt lat="42.20087082974975" lon="13.990167221076831"><ele>580.0</ele><time>2026-04-04T13:28:28.999Z</time></trkpt><trkpt lat="42.20098915815437" lon="13.990189379375423"><ele>580.0</ele><time>2026-04-04T13:28:29.999Z</time></trkpt><trkpt lat="42.2011127225752" lon="13.990155007255554"><ele>580.0</ele><time>2026-04-04T13:28:30.999Z</time></trkpt><trkpt lat="42.201230894218796" lon="13.990085195849272"><ele>580.0</ele><time>2026-04-04T13:28:31.999Z</time></trkpt><trkpt lat="42.201336327853845" lon="13.989963489964246"><ele>580.0</ele><time>2026-04-04T13:28:32.999Z</time></trkpt><trkpt lat="42.20144431527527" lon="13.989835032345377"><ele>578.0</ele><time>2026-04-04T13:28:33.999Z</time></trkpt><trkpt lat="42.20155763270914" lon="13.989715271266348"><ele>576.0</ele><time>2026-04-04T13:28:34.999Z</time></trkpt><trkpt lat="42.2016830343591" lon="13.989592805730135"><ele>574.0</ele><time>2026-04-04T13:28:35.999Z</time></trkpt><trkpt lat="42.20180964973011" lon="13.98948214674535"><ele>574.0</ele><time>2026-04-04T13:28:36.999Z</time></trkpt><trkpt lat="42.20193157172156" lon="13.989371691724983"><ele>574.0</ele><time>2026-04-04T13:28:37.999Z</time></trkpt><trkpt lat="42.20204923366068" lon="13.989265467426561"><ele>574.0</ele><time>2026-04-04T13:28:38.999Z</time></trkpt><trkpt lat="42.202166174309426" lon="13.989162015249184"><ele>574.0</ele><time>2026-04-04T13:28:39.999Z</time></trkpt><trkpt lat="42.20229253533354" lon="13.98907185957688"><ele>571.5</ele><time>2026-04-04T13:28:40.999Z</time></trkpt><trkpt lat="42.20241984137342" lon="13.989043650457152"><ele>569.0</ele><time>2026-04-04T13:28:41.999Z</time></trkpt><trkpt lat="42.20255217375802" lon="13.988989695189996"><ele>566.5</ele><time>2026-04-04T13:28:42.999Z</time></trkpt><trkpt lat="42.20268846716675" lon="13.988966903952406"><ele>564.0</ele><time>2026-04-04T13:28:43.999Z</time></trkpt><trkpt lat="42.20282926029871" lon="13.988935604520357"><ele>564.0</ele><time>2026-04-04T13:28:44.999Z</time></trkpt><trkpt lat="42.202966502625266" lon="13.988898857826"><ele>564.0</ele><time>2026-04-04T13:28:45.999Z</time></trkpt><trkpt lat="42.203121268207276" lon="13.988861331005934"><ele>564.0</ele><time>2026-04-04T13:28:46.999Z</time></trkpt><trkpt lat="42.20327065929585" lon="13.988825361478401"><ele>564.0</ele><time>2026-04-04T13:28:47.999Z</time></trkpt><trkpt lat="42.20342098287515" lon="13.98879309106363"><ele>563.6666666666666</ele><time>2026-04-04T13:28:48.999Z</time></trkpt><trkpt lat="42.20357650214926" lon="13.988822927050146"><ele>563.3333333333333</ele><time>2026-04-04T13:28:49.999Z</time></trkpt><trkpt lat="42.20372779195911" lon="13.988857391873363"><ele>563.0</ele><time>2026-04-04T13:28:50.999Z</time></trkpt><trkpt lat="42.20389683786509" lon="13.988881051016737"><ele>559.6666666666666</ele><time>2026-04-04T13:28:51.999Z</time></trkpt><trkpt lat="42.204070435855236" lon="13.988942053987323"><ele>556.3333333333334</ele><time>2026-04-04T13:28:53Z</time></trkpt><trkpt lat="42.204263536618086" lon="13.989001067158288"><ele>553.0</ele><time>2026-04-04T13:28:54.001Z</time></trkpt><trkpt lat="42.204461507789894" lon="13.989053069574728"><ele>553.0</ele><time>2026-04-04T13:28:55Z</time></trkpt><trkpt lat="42.20467065716042" lon="13.989106844881174"><ele>553.0</ele><time>2026-04-04T13:28:56.001Z</time></trkpt><trkpt lat="42.20487163139064" lon="13.989164540779335"><ele>553.0</ele><time>2026-04-04T13:28:57.001Z</time></trkpt><trkpt lat="42.205068681565216" lon="13.989220093965898"><ele>553.3333333333334</ele><time>2026-04-04T13:28:58.001Z</time></trkpt><trkpt lat="42.2052799474799" lon="13.989279315089753"><ele>553.6666666666666</ele><time>2026-04-04T13:28:59.001Z</time></trkpt><trkpt lat="42.20548624883617" lon="13.989334680399363"><ele>554.0</ele><time>2026-04-04T13:29:00.001Z</time></trkpt><trkpt lat="42.20568587025017" lon="13.989394238355144"><ele>553.0</ele><time>2026-04-04T13:29:01.001Z</time></trkpt><trkpt lat="42.20587465081104" lon="13.98944604222565"><ele>552.0</ele><time>2026-04-04T13:29:02.001Z</time></trkpt><trkpt lat="42.20605500024529" lon="13.989495735530125"><ele>551.0</ele><time>2026-04-04T13:29:03.001Z</time></trkpt><trkpt lat="42.20622713797368" lon="13.989544378126435"><ele>551.0</ele><time>2026-04-04T13:29:04.001Z</time></trkpt><trkpt lat="42.20638535822155" lon="13.98957713148689"><ele>551.0</ele><time>2026-04-04T13:29:05.001Z</time></trkpt><trkpt lat="42.20653454284496" lon="13.989584909212246"><ele>551.0</ele><time>2026-04-04T13:29:06.001Z</time></trkpt><trkpt lat="42.206689640961585" lon="13.989549887363118"><ele>551.0</ele><time>2026-04-04T13:29:07.001Z</time></trkpt><trkpt lat="42.206844159956724" lon="13.989478728811516"><ele>551.0</ele><time>2026-04-04T13:29:08.001Z</time></trkpt><trkpt lat="42.20700973895363" lon="13.98936601855726"><ele>551.0</ele><time>2026-04-04T13:29:09Z</time></trkpt><trkpt lat="42.20716486388394" lon="13.989223204400815"><ele>547.6666666666666</ele><time>2026-04-04T13:29:10Z</time></trkpt><trkpt lat="42.20732918950709" lon="13.989077342002163"><ele>544.3333333333334</ele><time>2026-04-04T13:29:11Z</time></trkpt><trkpt lat="42.20750109020325" lon="13.988939768137495"><ele>541.0</ele><time>2026-04-04T13:29:12Z</time></trkpt><trkpt lat="42.207674538403836" lon="13.988797201044099"><ele>541.0</ele><time>2026-04-04T13:29:13Z</time></trkpt><trkpt lat="42.2078382395667" lon="13.988663771137675"><ele>541.0</ele><time>2026-04-04T13:29:14Z</time></trkpt><trkpt lat="42.20799276852652" lon="13.988536091694842"><ele>541.0</ele><time>2026-04-04T13:29:15Z</time></trkpt><trkpt lat="42.208150890492895" lon="13.988411152967048"><ele>536.0</ele><time>2026-04-04T13:29:16Z</time></trkpt><trkpt lat="42.208303352832694" lon="13.988296038321286"><ele>531.0</ele><time>2026-04-04T13:29:17Z</time></trkpt><trkpt lat="42.20845453976294" lon="13.988180220931564"><ele>526.0</ele><time>2026-04-04T13:29:18Z</time></trkpt><trkpt lat="42.20860338458168" lon="13.988067279853526"><ele>526.0</ele><time>2026-04-04T13:29:19Z</time></trkpt><trkpt lat="42.20875190089857" lon="13.987951732093372"><ele>526.0</ele><time>2026-04-04T13:29:20Z</time></trkpt><trkpt lat="42.208902619997836" lon="13.987845677295914"><ele>526.0</ele><time>2026-04-04T13:29:21Z</time></trkpt><trkpt lat="42.20906399394844" lon="13.987759394397324"><ele>529.0</ele><time>2026-04-04T13:29:22Z</time></trkpt><trkpt lat="42.209240468793226" lon="13.987717899176053"><ele>532.0</ele><time>2026-04-04T13:29:23Z</time></trkpt><trkpt lat="42.20943259496293" lon="13.987700435327644"><ele>535.0</ele><time>2026-04-04T13:29:24Z</time></trkpt><trkpt lat="42.20962588925063" lon="13.987694902195358"><ele>535.0</ele><time>2026-04-04T13:29:25Z</time></trkpt><trkpt lat="42.209808772592666" lon="13.98767544411104"><ele>535.0</ele><time>2026-04-04T13:29:26Z</time></trkpt><trkpt lat="42.20999321160243" lon="13.98766701444426"><ele>535.0</ele><time>2026-04-04T13:29:27Z</time></trkpt><trkpt lat="42.21018180741845" lon="13.987692389033286"><ele>535.6666666666667</ele><time>2026-04-04T13:29:28Z</time></trkpt><trkpt lat="42.210376822615636" lon="13.987748587204674"><ele>536.3333333333334</ele><time>2026-04-04T13:29:29Z</time></trkpt><trkpt lat="42.21057260036007" lon="13.987828007420468"><ele>537.0</ele><time>2026-04-04T13:29:30Z</time></trkpt><trkpt lat="42.210772255014035" lon="13.987922842674527"><ele>533.6666666666666</ele><time>2026-04-04T13:29:31Z</time></trkpt><trkpt lat="42.210977050623555" lon="13.988009403953075"><ele>530.3333333333333</ele><time>2026-04-04T13:29:32Z</time></trkpt><trkpt lat="42.21118049967348" lon="13.98808972187773"><ele>527.0</ele><time>2026-04-04T13:29:33Z</time></trkpt><trkpt lat="42.21136950410931" lon="13.988157568415946"><ele>525.3333333333333</ele><time>2026-04-04T13:29:34Z</time></trkpt><trkpt lat="42.211544195307354" lon="13.988225833774031"><ele>523.6666666666666</ele><time>2026-04-04T13:29:35Z</time></trkpt><trkpt lat="42.21169822350467" lon="13.988289950117274"><ele>522.0</ele><time>2026-04-04T13:29:36Z</time></trkpt><trkpt lat="42.21183995183426" lon="13.98835441242952"><ele>525.25</ele><time>2026-04-04T13:29:37Z</time></trkpt><trkpt lat="42.21196745389586" lon="13.988420138234906"><ele>528.5</ele><time>2026-04-04T13:29:38Z</time></trkpt><trkpt lat="42.212085787894" lon="13.988520623523337"><ele>531.75</ele><time>2026-04-04T13:29:39Z</time></trkpt><trkpt lat="42.21219263895656" lon="13.98867593567092"><ele>535.0</ele><time>2026-04-04T13:29:40Z</time></trkpt><trkpt lat="42.21228362459509" lon="13.988860460390917"><ele>530.6666666666667</ele><time>2026-04-04T13:29:41Z</time></trkpt><trkpt lat="42.212366512233864" lon="13.989065849792555"><ele>526.3333333333334</ele><time>2026-04-04T13:29:42Z</time></trkpt><trkpt lat="42.21244875735841" lon="13.98928160097541"><ele>522.0</ele><time>2026-04-04T13:29:43Z</time></trkpt><trkpt lat="42.21253760490447" lon="13.989499028376729"><ele>522.0</ele><time>2026-04-04T13:29:44Z</time></trkpt><trkpt lat="42.2126323043921" lon="13.989720604084495"><ele>522.0</ele><time>2026-04-04T13:29:45Z</time></trkpt><trkpt lat="42.21272940284315" lon="13.98995049241737"><ele>522.0</ele><time>2026-04-04T13:29:46Z</time></trkpt><trkpt lat="42.21282961385586" lon="13.990189114157468"><ele>522.3333333333334</ele><time>2026-04-04T13:29:47Z</time></trkpt><trkpt lat="42.21292403866519" lon="13.990412849099641"><ele>522.6666666666667</ele><time>2026-04-04T13:29:48Z</time></trkpt><trkpt lat="42.213002500689214" lon="13.99060257491062"><ele>523.0</ele><time>2026-04-04T13:29:49Z</time></trkpt><trkpt lat="42.21306397663482" lon="13.990772404825774"><ele>522.0</ele><time>2026-04-04T13:29:50Z</time></trkpt><trkpt lat="42.213107252191065" lon="13.990962129080996"><ele>521.0</ele><time>2026-04-04T13:29:51Z</time></trkpt><trkpt lat="42.21312966196319" lon="13.991180578140549"><ele>520.0</ele><time>2026-04-04T13:29:52Z</time></trkpt><trkpt lat="42.21313450825403" lon="13.99140916116812"><ele>520.0</ele><time>2026-04-04T13:29:53Z</time></trkpt><trkpt lat="42.21311792151446" lon="13.991622500433452"><ele>520.0</ele><time>2026-04-04T13:29:54Z</time></trkpt><trkpt lat="42.21305600517052" lon="13.991811021485974"><ele>520.0</ele><time>2026-04-04T13:29:55Z</time></trkpt><trkpt lat="42.212999333148026" lon="13.99200893472856"><ele>517.6666666666667</ele><time>2026-04-04T13:29:56Z</time></trkpt><trkpt lat="42.21289175943396" lon="13.992196823016597"><ele>515.3333333333334</ele><time>2026-04-04T13:29:57Z</time></trkpt><trkpt lat="42.212766043090056" lon="13.992368904559292"><ele>513.0</ele><time>2026-04-04T13:29:58Z</time></trkpt><trkpt lat="42.21262288005204" lon="13.99253354819754"><ele>513.6666666666666</ele><time>2026-04-04T13:29:59Z</time></trkpt><trkpt lat="42.21248934655191" lon="13.992702282922927"><ele>514.3333333333333</ele><time>2026-04-04T13:30:00Z</time></trkpt><trkpt lat="42.21236173838186" lon="13.99287304573011"><ele>515.0</ele><time>2026-04-04T13:30:00.999Z</time></trkpt><trkpt lat="42.212250309039334" lon="13.993036849041802"><ele>515.0</ele><time>2026-04-04T13:30:01.999Z</time></trkpt><trkpt lat="42.21214340693502" lon="13.993209676990398"><ele>515.0</ele><time>2026-04-04T13:30:02.999Z</time></trkpt><trkpt lat="42.21204859913149" lon="13.99341126772638"><ele>515.0</ele><time>2026-04-04T13:30:03.999Z</time></trkpt><trkpt lat="42.21197908966472" lon="13.99362979323649"><ele>514.0</ele><time>2026-04-04T13:30:04.999Z</time></trkpt><trkpt lat="42.211918801028055" lon="13.99386140123054"><ele>513.0</ele><time>2026-04-04T13:30:05.999Z</time></trkpt><trkpt lat="42.2118779632823" lon="13.994110452779283"><ele>512.0</ele><time>2026-04-04T13:30:06.999Z</time></trkpt><trkpt lat="42.21185365782179" lon="13.994372483162838"><ele>512.0</ele><time>2026-04-04T13:30:07.999Z</time></trkpt><trkpt lat="42.21182944437217" lon="13.994637630238628"><ele>512.0</ele><time>2026-04-04T13:30:08.999Z</time></trkpt><trkpt lat="42.2117940952571" lon="13.994904837776845"><ele>512.0</ele><time>2026-04-04T13:30:09.999Z</time></trkpt><trkpt lat="42.211757249779296" lon="13.995177097620179"><ele>512.0</ele><time>2026-04-04T13:30:10.999Z</time></trkpt><trkpt lat="42.21172400774451" lon="13.99544868603511"><ele>512.0</ele><time>2026-04-04T13:30:11.999Z</time></trkpt><trkpt lat="42.211691438926756" lon="13.99570334830575"><ele>512.0</ele><time>2026-04-04T13:30:12.999Z</time></trkpt><trkpt lat="42.211660163751965" lon="13.99593254514244"><ele>511.0</ele><time>2026-04-04T13:30:13.999Z</time></trkpt><trkpt lat="42.21163219830141" lon="13.996137271733557"><ele>510.0</ele><time>2026-04-04T13:30:14.999Z</time></trkpt><trkpt lat="42.21161046228446" lon="13.996322095460748"><ele>509.0</ele><time>2026-04-04T13:30:15.999Z</time></trkpt><trkpt lat="42.21159461574871" lon="13.996494949017"><ele>508.0</ele><time>2026-04-04T13:30:16.999Z</time></trkpt><trkpt lat="42.211594403218484" lon="13.996676632285427"><ele>508.0</ele><time>2026-04-04T13:30:17.999Z</time></trkpt><trkpt lat="42.211622236015735" lon="13.9968291262207"><ele>508.0</ele><time>2026-04-04T13:30:18.999Z</time></trkpt><trkpt lat="42.21169070152516" lon="13.99699024188479"><ele>508.0</ele><time>2026-04-04T13:30:19.999Z</time></trkpt><trkpt lat="42.21179640677147" lon="13.997149033147899"><ele>508.0</ele><time>2026-04-04T13:30:20.999Z</time></trkpt><trkpt lat="42.211918218130286" lon="13.997306381724432"><ele>508.0</ele><time>2026-04-04T13:30:21.999Z</time></trkpt><trkpt lat="42.21205117220855" lon="13.997442958919118"><ele>508.0</ele><time>2026-04-04T13:30:22.999Z</time></trkpt><trkpt lat="42.21218042806881" lon="13.997540865092306"><ele>508.0</ele><time>2026-04-04T13:30:23.998Z</time></trkpt><trkpt lat="42.212325156011474" lon="13.997603627469324"><ele>512.0</ele><time>2026-04-04T13:30:24.998Z</time></trkpt><trkpt lat="42.21247939210876" lon="13.997631058243407"><ele>516.0</ele><time>2026-04-04T13:30:25.998Z</time></trkpt><trkpt lat="42.21262857417036" lon="13.997599605526725"><ele>520.0</ele><time>2026-04-04T13:30:26.998Z</time></trkpt><trkpt lat="42.21277706099618" lon="13.997517619615255"><ele>519.0</ele><time>2026-04-04T13:30:27.998Z</time></trkpt><trkpt lat="42.21292430886354" lon="13.997403389146932"><ele>518.0</ele><time>2026-04-04T13:30:28.998Z</time></trkpt><trkpt lat="42.21307693538738" lon="13.997296073360598"><ele>517.0</ele><time>2026-04-04T13:30:29.998Z</time></trkpt><trkpt lat="42.213243458193624" lon="13.997271737738455"><ele>517.0</ele><time>2026-04-04T13:30:30.998Z</time></trkpt><trkpt lat="42.21339281688909" lon="13.997271006497307"><ele>517.0</ele><time>2026-04-04T13:30:31.998Z</time></trkpt><trkpt lat="42.2135600376852" lon="13.997268401310906"><ele>517.0</ele><time>2026-04-04T13:30:32.998Z</time></trkpt><trkpt lat="42.213731341632375" lon="13.997271440187221"><ele>517.0</ele><time>2026-04-04T13:30:33.998Z</time></trkpt><trkpt lat="42.21391240335159" lon="13.997277440355619"><ele>517.0</ele><time>2026-04-04T13:30:34.998Z</time></trkpt><trkpt lat="42.214099232899066" lon="13.997285743884563"><ele>517.0</ele><time>2026-04-04T13:30:35.998Z</time></trkpt><trkpt lat="42.21428890266355" lon="13.997279887729428"><ele>516.6666666666667</ele><time>2026-04-04T13:30:36.998Z</time></trkpt><trkpt lat="42.21448413783444" lon="13.997290736304052"><ele>516.3333333333334</ele><time>2026-04-04T13:30:37.998Z</time></trkpt><trkpt lat="42.214684048964635" lon="13.997305631767926"><ele>516.0</ele><time>2026-04-04T13:30:38.998Z</time></trkpt><trkpt lat="42.214883669481175" lon="13.997315512655279"><ele>517.0</ele><time>2026-04-04T13:30:39.998Z</time></trkpt><trkpt lat="42.21508759034644" lon="13.997317520577628"><ele>518.0</ele><time>2026-04-04T13:30:40.998Z</time></trkpt><trkpt lat="42.215298307044" lon="13.997305737395257"><ele>519.0</ele><time>2026-04-04T13:30:41.998Z</time></trkpt><trkpt lat="42.21550305576913" lon="13.997296571214552"><ele>520.3333333333334</ele><time>2026-04-04T13:30:42.998Z</time></trkpt><trkpt lat="42.21569010344159" lon="13.997287631945904"><ele>521.6666666666667</ele><time>2026-04-04T13:30:43.998Z</time></trkpt><trkpt lat="42.215866226652075" lon="13.997279451089021"><ele>523.0</ele><time>2026-04-04T13:30:44.998Z</time></trkpt><trkpt lat="42.21602964317405" lon="13.997266780507092"><ele>523.0</ele><time>2026-04-04T13:30:45.998Z</time></trkpt><trkpt lat="42.21619005484893" lon="13.997257547811243"><ele>523.0</ele><time>2026-04-04T13:30:46.998Z</time></trkpt><trkpt lat="42.216347654619646" lon="13.997251992836226"><ele>523.0</ele><time>2026-04-04T13:30:47.998Z</time></trkpt><trkpt lat="42.2165056694587" lon="13.997243614217886"><ele>523.25</ele><time>2026-04-04T13:30:48.998Z</time></trkpt><trkpt lat="42.2166534185174" lon="13.997235448121646"><ele>523.5</ele><time>2026-04-04T13:30:49.998Z</time></trkpt><trkpt lat="42.21679749832073" lon="13.997225106276911"><ele>523.75</ele><time>2026-04-04T13:30:50.998Z</time></trkpt><trkpt lat="42.216949019113684" lon="13.997229332347956"><ele>524.0</ele><time>2026-04-04T13:30:51.998Z</time></trkpt><trkpt lat="42.21710470118173" lon="13.997262128270831"><ele>524.0</ele><time>2026-04-04T13:30:52.998Z</time></trkpt><trkpt lat="42.21724171285436" lon="13.997302868847926"><ele>524.0</ele><time>2026-04-04T13:30:53.998Z</time></trkpt><trkpt lat="42.2173659363899" lon="13.997347544678853"><ele>524.0</ele><time>2026-04-04T13:30:54.998Z</time></trkpt><trkpt lat="42.21748546031796" lon="13.997418359943124"><ele>524.0</ele><time>2026-04-04T13:30:55.998Z</time></trkpt><trkpt lat="42.217593186510925" lon="13.997525411689768"><ele>525.25</ele><time>2026-04-04T13:30:56.998Z</time></trkpt><trkpt lat="42.21768050051133" lon="13.997662621598744"><ele>526.5</ele><time>2026-04-04T13:30:57.998Z</time></trkpt><trkpt lat="42.21775175899713" lon="13.997813271640466"><ele>527.75</ele><time>2026-04-04T13:30:59Z</time></trkpt><trkpt lat="42.21781632520222" lon="13.99795602096484"><ele>529.0</ele><time>2026-04-04T13:31:00Z</time></trkpt><trkpt lat="42.217797522411935" lon="13.998136916683254"><ele>529.0</ele><time>2026-04-04T13:31:01Z</time></trkpt><trkpt lat="42.217789122337955" lon="13.99825355316524"><ele>529.0</ele><time>2026-04-04T13:31:02Z</time></trkpt><trkpt lat="42.217781481388336" lon="13.998382978683408"><ele>529.0</ele><time>2026-04-04T13:31:04Z</time></trkpt><trkpt lat="42.21782064822469" lon="13.998476441786796"><ele>529.0</ele><time>2026-04-04T13:31:06Z</time></trkpt><trkpt lat="42.21778025390082" lon="13.998410237587768"><ele>529.0</ele><time>2026-04-04T13:31:10Z</time></trkpt><trkpt lat="42.217905916270006" lon="13.998410728861142"><ele>528.8333333333334</ele><time>2026-04-04T13:32:56.998Z</time></trkpt><trkpt lat="42.217845963690465" lon="13.99846725356219"><ele>528.6666666666667</ele><time>2026-04-04T13:36:47.999Z</time></trkpt><trkpt lat="42.21782075937508" lon="13.998637553525423"><ele>528.5</ele><time>2026-04-04T13:36:49.999Z</time></trkpt><trkpt lat="42.21781460672487" lon="13.998729690601609"><ele>528.3333333333334</ele><time>2026-04-04T13:36:50.999Z</time></trkpt><trkpt lat="42.21781172056108" lon="13.998830375280797"><ele>528.1666666666666</ele><time>2026-04-04T13:36:51.999Z</time></trkpt><trkpt lat="42.21781357053104" lon="13.998967848800822"><ele>528.0</ele><time>2026-04-04T13:36:52.998Z</time></trkpt><trkpt lat="42.21782248163951" lon="13.999118641023813"><ele>527.0</ele><time>2026-04-04T13:36:53.998Z</time></trkpt><trkpt lat="42.21783492586447" lon="13.999277652068287"><ele>526.0</ele><time>2026-04-04T13:36:54.998Z</time></trkpt><trkpt lat="42.21784950629504" lon="13.999430771322174"><ele>525.0</ele><time>2026-04-04T13:36:55.998Z</time></trkpt><trkpt lat="42.21784508831301" lon="13.999599917135619"><ele>524.0</ele><time>2026-04-04T13:36:56.998Z</time></trkpt><trkpt lat="42.21786141091254" lon="13.999780604439877"><ele>524.0</ele><time>2026-04-04T13:36:57.998Z</time></trkpt><trkpt lat="42.21787961717278" lon="13.999956533115414"><ele>524.0</ele><time>2026-04-04T13:36:58.998Z</time></trkpt><trkpt lat="42.2178950858761" lon="14.000123931181738"><ele>524.0</ele><time>2026-04-04T13:36:59.998Z</time></trkpt><trkpt lat="42.21790188491786" lon="14.000294636088766"><ele>524.0</ele><time>2026-04-04T13:37:00.998Z</time></trkpt><trkpt lat="42.21789255580853" lon="14.000463071295359"><ele>524.0</ele><time>2026-04-04T13:37:01.998Z</time></trkpt><trkpt lat="42.21787775069841" lon="14.000641936978338"><ele>524.0</ele><time>2026-04-04T13:37:02.998Z</time></trkpt><trkpt lat="42.2178638054432" lon="14.000820870887681"><ele>524.0</ele><time>2026-04-04T13:37:03.998Z</time></trkpt><trkpt lat="42.21786939199861" lon="14.00099312919137"><ele>524.0</ele><time>2026-04-04T13:37:04.998Z</time></trkpt><trkpt lat="42.217869431474405" lon="14.001165351890167"><ele>523.75</ele><time>2026-04-04T13:37:05.998Z</time></trkpt><trkpt lat="42.217887503908315" lon="14.001347500617289"><ele>523.5</ele><time>2026-04-04T13:37:06.998Z</time></trkpt><trkpt lat="42.21792582367496" lon="14.001521726551987"><ele>523.25</ele><time>2026-04-04T13:37:07.998Z</time></trkpt><trkpt lat="42.217976692363216" lon="14.001691487536876"><ele>523.0</ele><time>2026-04-04T13:37:08.998Z</time></trkpt><trkpt lat="42.21801618125583" lon="14.001858574735644"><ele>523.0</ele><time>2026-04-04T13:37:09.998Z</time></trkpt><trkpt lat="42.218060551493295" lon="14.002022777064168"><ele>523.0</ele><time>2026-04-04T13:37:10.998Z</time></trkpt><trkpt lat="42.21809367213278" lon="14.002184770224686"><ele>523.0</ele><time>2026-04-04T13:37:11.998Z</time></trkpt><trkpt lat="42.21813049579576" lon="14.002348049630813"><ele>523.0</ele><time>2026-04-04T13:37:12.998Z</time></trkpt><trkpt lat="42.21815935415406" lon="14.002503956321414"><ele>517.75</ele><time>2026-04-04T13:37:13.998Z</time></trkpt><trkpt lat="42.21818923367633" lon="14.002664433579163"><ele>512.5</ele><time>2026-04-04T13:37:15Z</time></trkpt><trkpt lat="42.21821663159488" lon="14.002821033264757"><ele>507.25</ele><time>2026-04-04T13:37:16Z</time></trkpt><trkpt lat="42.21826710399259" lon="14.00297014163772"><ele>502.0</ele><time>2026-04-04T13:37:17Z</time></trkpt><trkpt lat="42.21833096104006" lon="14.003120577591528"><ele>502.0</ele><time>2026-04-04T13:37:18Z</time></trkpt><trkpt lat="42.218405169445184" lon="14.003254715353329"><ele>502.0</ele><time>2026-04-04T13:37:19Z</time></trkpt><trkpt lat="42.218469595198655" lon="14.00339283668312"><ele>502.0</ele><time>2026-04-04T13:37:20Z</time></trkpt><trkpt lat="42.21852207318199" lon="14.003539849982317"><ele>502.0</ele><time>2026-04-04T13:37:21Z</time></trkpt><trkpt lat="42.218579070564225" lon="14.003678095873838"><ele>502.25</ele><time>2026-04-04T13:37:22Z</time></trkpt><trkpt lat="42.218647972839584" lon="14.003813026447366"><ele>502.5</ele><time>2026-04-04T13:37:23Z</time></trkpt><trkpt lat="42.21872595010767" lon="14.003931706122755"><ele>502.75</ele><time>2026-04-04T13:37:24Z</time></trkpt><trkpt lat="42.21880860709929" lon="14.004043334708122"><ele>503.0</ele><time>2026-04-04T13:37:25Z</time></trkpt><trkpt lat="42.21889183943548" lon="14.004151769825356"><ele>502.66666666666663</ele><time>2026-04-04T13:37:26Z</time></trkpt><trkpt lat="42.21897305131715" lon="14.004252923296399"><ele>502.3333333333333</ele><time>2026-04-04T13:37:27Z</time></trkpt><trkpt lat="42.219041901327145" lon="14.004342168310718"><ele>502.0</ele><time>2026-04-04T13:37:28Z</time></trkpt><trkpt lat="42.21910323878258" lon="14.004419373761497"><ele>501.66666666666663</ele><time>2026-04-04T13:37:29Z</time></trkpt><trkpt lat="42.21915779326847" lon="14.00448597541188"><ele>501.3333333333333</ele><time>2026-04-04T13:37:30Z</time></trkpt><trkpt lat="42.21921192244704" lon="14.004546436902702"><ele>501.0</ele><time>2026-04-04T13:37:31Z</time></trkpt><trkpt lat="42.21929519714851" lon="14.004644509618862"><ele>499.5</ele><time>2026-04-04T13:37:33Z</time></trkpt><trkpt lat="42.219362187267144" lon="14.004704285384278"><ele>498.0</ele><time>2026-04-04T13:38:06.999Z</time></trkpt><trkpt lat="42.219426188133916" lon="14.004756766738666"><ele>496.5</ele><time>2026-04-04T13:38:09.999Z</time></trkpt><trkpt lat="42.219514480234935" lon="14.004814282579238"><ele>495.0</ele><time>2026-04-04T13:38:12.999Z</time></trkpt><trkpt lat="42.2195903808377" lon="14.004853189957418"><ele>493.5</ele><time>2026-04-04T13:38:14.999Z</time></trkpt><trkpt lat="42.21967663586919" lon="14.004901612105641"><ele>492.0</ele><time>2026-04-04T13:38:16.999Z</time></trkpt><trkpt lat="42.219775912914464" lon="14.004963846301358"><ele>491.0</ele><time>2026-04-04T13:38:18.999Z</time></trkpt><trkpt lat="42.21987274047325" lon="14.005047193521623"><ele>490.00000000000006</ele><time>2026-04-04T13:38:20.999Z</time></trkpt><trkpt lat="42.21997237758683" lon="14.005130609961281"><ele>489.00000000000006</ele><time>2026-04-04T13:38:22.999Z</time></trkpt><trkpt lat="42.220031032458536" lon="14.0051720170423"><ele>488.0</ele><time>2026-04-04T13:38:23.999Z</time></trkpt><trkpt lat="42.22010221594586" lon="14.005206641317923"><ele>487.0</ele><time>2026-04-04T13:38:24.999Z</time></trkpt><trkpt lat="42.22018532595463" lon="14.005229199289857"><ele>487.0</ele><time>2026-04-04T13:38:25.999Z</time></trkpt><trkpt lat="42.22027098675563" lon="14.005244875750344"><ele>487.00000000000006</ele><time>2026-04-04T13:38:26.999Z</time></trkpt><trkpt lat="42.22036160285037" lon="14.005259804709471"><ele>487.00000000000006</ele><time>2026-04-04T13:38:27.999Z</time></trkpt><trkpt lat="42.22044404088844" lon="14.005284212377104"><ele>487.0</ele><time>2026-04-04T13:38:28.999Z</time></trkpt><trkpt lat="42.22052676359499" lon="14.005331638954031"><ele>487.0</ele><time>2026-04-04T13:38:29.999Z</time></trkpt><trkpt lat="42.22061486292397" lon="14.005415103983099"><ele>484.0</ele><time>2026-04-04T13:38:30.999Z</time></trkpt><trkpt lat="42.2207184763629" lon="14.005512671256602"><ele>481.0</ele><time>2026-04-04T13:38:31.999Z</time></trkpt><trkpt lat="42.22082744859994" lon="14.005612492144476"><ele>478.0</ele><time>2026-04-04T13:38:32.999Z</time></trkpt><trkpt lat="42.22093305053856" lon="14.005706320877707"><ele>475.0</ele><time>2026-04-04T13:38:33.999Z</time></trkpt><trkpt lat="42.221031444585705" lon="14.005806116191842"><ele>476.0</ele><time>2026-04-04T13:38:34.999Z</time></trkpt><trkpt lat="42.221135269809594" lon="14.005893112316253"><ele>477.0</ele><time>2026-04-04T13:38:35.999Z</time></trkpt><trkpt lat="42.22123678954421" lon="14.005984889505047"><ele>478.0</ele><time>2026-04-04T13:38:36.999Z</time></trkpt><trkpt lat="42.2213249080195" lon="14.006063910824587"><ele>479.0</ele><time>2026-04-04T13:38:37.999Z</time></trkpt><trkpt lat="42.22140136631197" lon="14.006138116017835"><ele>480.0</ele><time>2026-04-04T13:38:38.999Z</time></trkpt><trkpt lat="42.22147363144494" lon="14.006217563569033"><ele>478.0</ele><time>2026-04-04T13:38:39.999Z</time></trkpt><trkpt lat="42.22155201912272" lon="14.006317946109423"><ele>476.0</ele><time>2026-04-04T13:38:40.999Z</time></trkpt><trkpt lat="42.22164984495666" lon="14.006388386745607"><ele>474.0</ele><time>2026-04-04T13:38:41.999Z</time></trkpt><trkpt lat="42.22170409646401" lon="14.00654551474731"><ele>472.0</ele><time>2026-04-04T13:38:42.999Z</time></trkpt><trkpt lat="42.22177567675518" lon="14.006653249710732"><ele>472.75</ele><time>2026-04-04T13:38:43.999Z</time></trkpt><trkpt lat="42.22185160634325" lon="14.006771950105795"><ele>473.5</ele><time>2026-04-04T13:38:44.999Z</time></trkpt><trkpt lat="42.22192903352491" lon="14.006890335583185"><ele>474.25</ele><time>2026-04-04T13:38:45.999Z</time></trkpt><trkpt lat="42.22199963846062" lon="14.007005472047805"><ele>475.0</ele><time>2026-04-04T13:38:46.999Z</time></trkpt><trkpt lat="42.22206388388112" lon="14.00712265624734"><ele>475.0</ele><time>2026-04-04T13:38:47.999Z</time></trkpt><trkpt lat="42.22212451555412" lon="14.007250950726982"><ele>475.0</ele><time>2026-04-04T13:38:48.999Z</time></trkpt><trkpt lat="42.222170942191916" lon="14.007390688441802"><ele>475.0</ele><time>2026-04-04T13:38:49.999Z</time></trkpt><trkpt lat="42.22220972001165" lon="14.007527718688014"><ele>475.0</ele><time>2026-04-04T13:38:50.999Z</time></trkpt><trkpt lat="42.22225498981587" lon="14.007662929364596"><ele>475.0</ele><time>2026-04-04T13:38:51.999Z</time></trkpt><trkpt lat="42.222309187919045" lon="14.007796765006535"><ele>475.5</ele><time>2026-04-04T13:38:52.999Z</time></trkpt><trkpt lat="42.2223750479464" lon="14.007921819899648"><ele>476.0</ele><time>2026-04-04T13:38:53.999Z</time></trkpt><trkpt lat="42.222465492214305" lon="14.008043354033473"><ele>476.5</ele><time>2026-04-04T13:38:54.999Z</time></trkpt><trkpt lat="42.22257778521692" lon="14.008145747890287"><ele>477.0</ele><time>2026-04-04T13:38:55.999Z</time></trkpt><trkpt lat="42.22269964515834" lon="14.00821947526427"><ele>477.0</ele><time>2026-04-04T13:38:56.998Z</time></trkpt><trkpt lat="42.22282610683976" lon="14.008275724563852"><ele>477.0</ele><time>2026-04-04T13:38:57.998Z</time></trkpt><trkpt lat="42.22295371810515" lon="14.008319196135313"><ele>477.0</ele><time>2026-04-04T13:38:58.998Z</time></trkpt><trkpt lat="42.22306751653574" lon="14.008359219628339"><ele>477.0</ele><time>2026-04-04T13:38:59.998Z</time></trkpt><trkpt lat="42.223164512366644" lon="14.008405449074116"><ele>477.40000000000003</ele><time>2026-04-04T13:39:00.998Z</time></trkpt><trkpt lat="42.2232492586317" lon="14.00846235455646"><ele>477.80000000000007</ele><time>2026-04-04T13:39:01.998Z</time></trkpt><trkpt lat="42.22330148962943" lon="14.008573407320213"><ele>478.2</ele><time>2026-04-04T13:39:02.998Z</time></trkpt><trkpt lat="42.223347335350645" lon="14.008690949595982"><ele>478.6</ele><time>2026-04-04T13:39:03.998Z</time></trkpt><trkpt lat="42.22336786596607" lon="14.008818480848994"><ele>479.0</ele><time>2026-04-04T13:39:04.998Z</time></trkpt><trkpt lat="42.22335565321362" lon="14.008965857606546"><ele>479.0</ele><time>2026-04-04T13:39:05.998Z</time></trkpt><trkpt lat="42.22334881993222" lon="14.00911363994103"><ele>479.0</ele><time>2026-04-04T13:39:06.998Z</time></trkpt><trkpt lat="42.22337493804622" lon="14.00924975585279"><ele>479.0</ele><time>2026-04-04T13:39:07.998Z</time></trkpt><trkpt lat="42.22342743245552" lon="14.009394386025738"><ele>479.0</ele><time>2026-04-04T13:39:08.998Z</time></trkpt><trkpt lat="42.22351253257218" lon="14.009557295864711"><ele>474.5</ele><time>2026-04-04T13:39:09.998Z</time></trkpt><trkpt lat="42.22357914429277" lon="14.009736478863784"><ele>470.0</ele><time>2026-04-04T13:39:10.998Z</time></trkpt><trkpt lat="42.223646632376386" lon="14.009882835525339"><ele>465.5</ele><time>2026-04-04T13:39:11.998Z</time></trkpt><trkpt lat="42.22370825777167" lon="14.010016478269138"><ele>461.0</ele><time>2026-04-04T13:39:12.998Z</time></trkpt><trkpt lat="42.22376613358026" lon="14.010142268409057"><ele>458.25</ele><time>2026-04-04T13:39:13.998Z</time></trkpt><trkpt lat="42.22382655942034" lon="14.010275246516068"><ele>455.5</ele><time>2026-04-04T13:39:14.998Z</time></trkpt><trkpt lat="42.223878203045466" lon="14.010398576942352"><ele>452.75</ele><time>2026-04-04T13:39:15.998Z</time></trkpt><trkpt lat="42.223925641497054" lon="14.010532788078327"><ele>450.0</ele><time>2026-04-04T13:39:16.998Z</time></trkpt><trkpt lat="42.223976020624534" lon="14.010688249070558"><ele>451.0</ele><time>2026-04-04T13:39:17.998Z</time></trkpt><trkpt lat="42.22402467976831" lon="14.010838401762907"><ele>452.0</ele><time>2026-04-04T13:39:18.998Z</time></trkpt><trkpt lat="42.22406194526167" lon="14.010934533546736"><ele>453.0</ele><time>2026-04-04T13:39:19.998Z</time></trkpt><trkpt lat="42.22414126777985" lon="14.011037664298012"><ele>454.0</ele><time>2026-04-04T13:39:22Z</time></trkpt><trkpt lat="42.22420782196485" lon="14.011090762985003"><ele>455.0</ele><time>2026-04-04T13:39:25Z</time></trkpt><trkpt lat="42.22425540843307" lon="14.011029167688928"><ele>454.99999999999994</ele><time>2026-04-04T13:39:28Z</time></trkpt><trkpt lat="42.22420264508333" lon="14.010977305542177"><ele>455.0</ele><time>2026-04-04T13:39:30Z</time></trkpt><trkpt lat="42.22408985288722" lon="14.010916951039041"><ele>455.0</ele><time>2026-04-04T13:39:32Z</time></trkpt><trkpt lat="42.22405405410731" lon="14.010826499757947"><ele>455.0</ele><time>2026-04-04T13:39:33Z</time></trkpt><trkpt lat="42.22402142045766" lon="14.01070991136775"><ele>454.99999999999994</ele><time>2026-04-04T13:39:34Z</time></trkpt><trkpt lat="42.22398492411961" lon="14.010607343866734"><ele>455.0</ele><time>2026-04-04T13:39:35Z</time></trkpt><trkpt lat="42.22394388422291" lon="14.010495093748606"><ele>454.0</ele><time>2026-04-04T13:39:36Z</time></trkpt><trkpt lat="42.2239033460616" lon="14.010377718889432"><ele>453.0</ele><time>2026-04-04T13:39:37Z</time></trkpt><trkpt lat="42.223853887550945" lon="14.010249559992328"><ele>452.0</ele><time>2026-04-04T13:39:38Z</time></trkpt><trkpt lat="42.22380851881634" lon="14.01014834690306"><ele>451.0</ele><time>2026-04-04T13:39:39Z</time></trkpt><trkpt lat="42.22376804918895" lon="14.010057992883278"><ele>450.0</ele><time>2026-04-04T13:39:40Z</time></trkpt><trkpt lat="42.223701519729275" lon="14.009943317374615"><ele>452.75</ele><time>2026-04-04T13:39:42Z</time></trkpt><trkpt lat="42.22366705834873" lon="14.009838872324313"><ele>455.5</ele><time>2026-04-04T13:39:44Z</time></trkpt><trkpt lat="42.22364992302048" lon="14.009986334659828"><ele>458.25</ele><time>2026-04-04T13:39:50Z</time></trkpt><trkpt lat="42.22351266519437" lon="14.009969259114062"><ele>461.0</ele><time>2026-04-04T13:39:53.999Z</time></trkpt><trkpt lat="42.223422585092024" lon="14.009853089254914"><ele>461.0</ele><time>2026-04-04T13:39:54.999Z</time></trkpt><trkpt lat="42.22332608295867" lon="14.009724089075744"><ele>461.0</ele><time>2026-04-04T13:39:55.999Z</time></trkpt><trkpt lat="42.223245505935694" lon="14.00959935499081"><ele>461.0</ele><time>2026-04-04T13:39:56.999Z</time></trkpt><trkpt lat="42.22317212283988" lon="14.009503465602556"><ele>461.0</ele><time>2026-04-04T13:39:57.999Z</time></trkpt><trkpt lat="42.22308311793541" lon="14.009412879553642"><ele>457.6</ele><time>2026-04-04T13:39:58.999Z</time></trkpt><trkpt lat="42.22298847992473" lon="14.009330940812033"><ele>454.20000000000005</ele><time>2026-04-04T13:39:59.999Z</time></trkpt><trkpt lat="42.22288722849854" lon="14.009261628611672"><ele>450.79999999999995</ele><time>2026-04-04T13:40:00.999Z</time></trkpt><trkpt lat="42.22278689325113" lon="14.00921963037181"><ele>447.4</ele><time>2026-04-04T13:40:01.999Z</time></trkpt><trkpt lat="42.22268659767321" lon="14.009195476610612"><ele>444.0</ele><time>2026-04-04T13:40:02.999Z</time></trkpt><trkpt lat="42.22257527672771" lon="14.00920159020481"><ele>444.0</ele><time>2026-04-04T13:40:03.999Z</time></trkpt><trkpt lat="42.22245021602631" lon="14.009223401214424"><ele>444.0</ele><time>2026-04-04T13:40:04.999Z</time></trkpt><trkpt lat="42.22233062536074" lon="14.009235684022931"><ele>444.0</ele><time>2026-04-04T13:40:05.999Z</time></trkpt><trkpt lat="42.22221639818788" lon="14.009250148671978"><ele>444.0</ele><time>2026-04-04T13:40:06.999Z</time></trkpt><trkpt lat="42.22212729316066" lon="14.009257538371847"><ele>442.8333333333333</ele><time>2026-04-04T13:40:07.999Z</time></trkpt><trkpt lat="42.22204085786065" lon="14.009265455397436"><ele>441.66666666666663</ele><time>2026-04-04T13:40:08.999Z</time></trkpt><trkpt lat="42.22196117858553" lon="14.009291346703852"><ele>440.5</ele><time>2026-04-04T13:40:09.999Z</time></trkpt><trkpt lat="42.22190618346497" lon="14.009342872675289"><ele>439.3333333333333</ele><time>2026-04-04T13:40:10.999Z</time></trkpt><trkpt lat="42.22186503373875" lon="14.009417074899945"><ele>438.16666666666663</ele><time>2026-04-04T13:40:11.999Z</time></trkpt><trkpt lat="42.22184275830662" lon="14.009519125751101"><ele>437.0</ele><time>2026-04-04T13:40:12.999Z</time></trkpt><trkpt lat="42.22181583269874" lon="14.009642945986323"><ele>437.0</ele><time>2026-04-04T13:40:13.999Z</time></trkpt><trkpt lat="42.22182144456845" lon="14.009805976692734"><ele>437.00000000000006</ele><time>2026-04-04T13:40:14.999Z</time></trkpt><trkpt lat="42.2218321073066" lon="14.009975893282016"><ele>437.00000000000006</ele><time>2026-04-04T13:40:15.999Z</time></trkpt><trkpt lat="42.22184122027667" lon="14.010108002208128"><ele>437.0</ele><time>2026-04-04T13:40:16.999Z</time></trkpt><trkpt lat="42.22186341161057" lon="14.010224776935507"><ele>437.0</ele><time>2026-04-04T13:40:17.999Z</time></trkpt><trkpt lat="42.22188399083314" lon="14.010326196502303"><ele>435.3333333333333</ele><time>2026-04-04T13:40:18.999Z</time></trkpt><trkpt lat="42.22191145595172" lon="14.010423919492045"><ele>433.66666666666663</ele><time>2026-04-04T13:40:19.999Z</time></trkpt><trkpt lat="42.22198484098867" lon="14.010466852803805"><ele>432.0</ele><time>2026-04-04T13:40:20.999Z</time></trkpt><trkpt lat="42.2220570129238" lon="14.010542240593026"><ele>430.33333333333337</ele><time>2026-04-04T13:40:22.999Z</time></trkpt><trkpt lat="42.22211168888865" lon="14.010647249751402"><ele>428.6666666666667</ele><time>2026-04-04T13:40:24.999Z</time></trkpt><trkpt lat="42.22220668863476" lon="14.010688025687307"><ele>427.0</ele><time>2026-04-04T13:40:25.999Z</time></trkpt><trkpt lat="42.22230518790168" lon="14.01074059920556"><ele>427.75</ele><time>2026-04-04T13:40:26.999Z</time></trkpt><trkpt lat="42.222412266780324" lon="14.010789857635205"><ele>428.5</ele><time>2026-04-04T13:40:27.999Z</time></trkpt><trkpt lat="42.22252730877095" lon="14.010835610605774"><ele>429.25</ele><time>2026-04-04T13:40:28.999Z</time></trkpt><trkpt lat="42.2226353166264" lon="14.010880112967582"><ele>430.0</ele><time>2026-04-04T13:40:29.999Z</time></trkpt><trkpt lat="42.2227336438887" lon="14.010933193214203"><ele>428.8</ele><time>2026-04-04T13:40:30.999Z</time></trkpt><trkpt lat="42.222814356477365" lon="14.01098421726134"><ele>427.6</ele><time>2026-04-04T13:40:31.999Z</time></trkpt><trkpt lat="42.222879021313005" lon="14.011077437366588"><ele>426.4</ele><time>2026-04-04T13:40:32.999Z</time></trkpt><trkpt lat="42.222927176547344" lon="14.011194317833423"><ele>425.2</ele><time>2026-04-04T13:40:33.999Z</time></trkpt><trkpt lat="42.22299552986539" lon="14.011335051904563"><ele>424.0</ele><time>2026-04-04T13:40:34.999Z</time></trkpt><trkpt lat="42.22307401633123" lon="14.011482971301387"><ele>423.75</ele><time>2026-04-04T13:40:35.999Z</time></trkpt><trkpt lat="42.22316119686897" lon="14.011605049902467"><ele>423.5</ele><time>2026-04-04T13:40:36.999Z</time></trkpt><trkpt lat="42.22322786492177" lon="14.01174622159873"><ele>423.25</ele><time>2026-04-04T13:40:37.999Z</time></trkpt><trkpt lat="42.22328492156442" lon="14.011881503389372"><ele>423.0</ele><time>2026-04-04T13:40:38.999Z</time></trkpt><trkpt lat="42.223332693850004" lon="14.011991803194322"><ele>423.0</ele><time>2026-04-04T13:40:39.999Z</time></trkpt><trkpt lat="42.22336522663768" lon="14.012126563405937"><ele>423.0</ele><time>2026-04-04T13:40:40.999Z</time></trkpt><trkpt lat="42.22337174608029" lon="14.012281404117797"><ele>423.0</ele><time>2026-04-04T13:40:41.999Z</time></trkpt><trkpt lat="42.22336338550423" lon="14.012457443079118"><ele>423.0</ele><time>2026-04-04T13:40:42.999Z</time></trkpt><trkpt lat="42.223353717861436" lon="14.012650470008547"><ele>425.33333333333337</ele><time>2026-04-04T13:40:43.999Z</time></trkpt><trkpt lat="42.22334794608299" lon="14.012853039953798"><ele>427.6666666666667</ele><time>2026-04-04T13:40:44.999Z</time></trkpt><trkpt lat="42.223351131992736" lon="14.013062246490735"><ele>430.0</ele><time>2026-04-04T13:40:45.999Z</time></trkpt><trkpt lat="42.22335349497164" lon="14.013260403313575"><ele>431.0</ele><time>2026-04-04T13:40:46.999Z</time></trkpt><trkpt lat="42.22334665670953" lon="14.013429796884962"><ele>432.0</ele><time>2026-04-04T13:40:47.999Z</time></trkpt><trkpt lat="42.22332911638384" lon="14.013588817571339"><ele>433.0</ele><time>2026-04-04T13:40:48.999Z</time></trkpt><trkpt lat="42.2233109900329" lon="14.013741949953776"><ele>434.0</ele><time>2026-04-04T13:40:49.999Z</time></trkpt><trkpt lat="42.22329828697421" lon="14.013890855870983"><ele>434.0</ele><time>2026-04-04T13:40:50.999Z</time></trkpt><trkpt lat="42.2233178655144" lon="14.014061168635369"><ele>434.0</ele><time>2026-04-04T13:40:51.999Z</time></trkpt><trkpt lat="42.22331240810938" lon="14.014238994883224"><ele>434.0</ele><time>2026-04-04T13:40:52.999Z</time></trkpt><trkpt lat="42.223353241687526" lon="14.01440737345633"><ele>434.0</ele><time>2026-04-04T13:40:53.999Z</time></trkpt><trkpt lat="42.2233947912766" lon="14.014560232181456"><ele>435.4</ele><time>2026-04-04T13:40:54.999Z</time></trkpt><trkpt lat="42.223417040219985" lon="14.01469594666701"><ele>436.79999999999995</ele><time>2026-04-04T13:40:55.999Z</time></trkpt><trkpt lat="42.22344593175825" lon="14.014781734702014"><ele>438.20000000000005</ele><time>2026-04-04T13:40:56.999Z</time></trkpt><trkpt lat="42.22348453756462" lon="14.014867160937849"><ele>439.6</ele><time>2026-04-04T13:40:57.999Z</time></trkpt><trkpt lat="42.22356441656096" lon="14.01494229885647"><ele>441.0</ele><time>2026-04-04T13:40:58.999Z</time></trkpt><trkpt lat="42.223665824533946" lon="14.014999820626228"><ele>444.25</ele><time>2026-04-04T13:40:59.999Z</time></trkpt><trkpt lat="42.223784621426475" lon="14.015084589008481"><ele>447.5</ele><time>2026-04-04T13:41:00.999Z</time></trkpt><trkpt lat="42.223894524398084" lon="14.015194201609928"><ele>450.75</ele><time>2026-04-04T13:41:01.998Z</time></trkpt><trkpt lat="42.22400336949936" lon="14.015310923761374"><ele>454.0</ele><time>2026-04-04T13:41:02.998Z</time></trkpt><trkpt lat="42.22412283519757" lon="14.015458515168074"><ele>451.25</ele><time>2026-04-04T13:41:03.998Z</time></trkpt><trkpt lat="42.22424175351689" lon="14.015588026041591"><ele>448.5</ele><time>2026-04-04T13:41:04.998Z</time></trkpt><trkpt lat="42.224353531762894" lon="14.015696939758124"><ele>445.75</ele><time>2026-04-04T13:41:05.998Z</time></trkpt><trkpt lat="42.22445307068183" lon="14.015798739593166"><ele>443.0</ele><time>2026-04-04T13:41:06.998Z</time></trkpt><trkpt lat="42.22456135177578" lon="14.015897881451174"><ele>443.0</ele><time>2026-04-04T13:41:07.998Z</time></trkpt><trkpt lat="42.22462951492614" lon="14.01606212259891"><ele>443.0</ele><time>2026-04-04T13:41:08.998Z</time></trkpt><trkpt lat="42.224703011788876" lon="14.01623104559618"><ele>443.0</ele><time>2026-04-04T13:41:09.998Z</time></trkpt><trkpt lat="42.22478371849693" lon="14.016355289882801"><ele>443.0</ele><time>2026-04-04T13:41:10.998Z</time></trkpt><trkpt lat="42.22485884750205" lon="14.016429712666952"><ele>438.59999999999997</ele><time>2026-04-04T13:41:11.998Z</time></trkpt><trkpt lat="42.2249033445731" lon="14.016538242022774"><ele>434.19999999999993</ele><time>2026-04-04T13:41:12.998Z</time></trkpt><trkpt lat="42.22494652557477" lon="14.01663329085638"><ele>429.8</ele><time>2026-04-04T13:41:13.998Z</time></trkpt><trkpt lat="42.22492497131378" lon="14.016767965134765"><ele>425.4</ele><time>2026-04-04T13:41:14.998Z</time></trkpt><trkpt lat="42.22491176607135" lon="14.016915527544846"><ele>421.0</ele><time>2026-04-04T13:41:15.998Z</time></trkpt><trkpt lat="42.22489750929058" lon="14.01708684106545"><ele>421.0</ele><time>2026-04-04T13:41:16.998Z</time></trkpt><trkpt lat="42.2248845773356" lon="14.017260580175247"><ele>421.0</ele><time>2026-04-04T13:41:17.998Z</time></trkpt><trkpt lat="42.22489438636849" lon="14.017412659227832"><ele>421.0</ele><time>2026-04-04T13:41:18.998Z</time></trkpt><trkpt lat="42.22488208670427" lon="14.01757449742812"><ele>421.0</ele><time>2026-04-04T13:41:19.998Z</time></trkpt><trkpt lat="42.22490799191251" lon="14.01775310537142"><ele>420.0</ele><time>2026-04-04T13:41:20.998Z</time></trkpt><trkpt lat="42.22493974315821" lon="14.017924091490723"><ele>419.0</ele><time>2026-04-04T13:41:21.998Z</time></trkpt><trkpt lat="42.224957813965474" lon="14.018077489966076"><ele>418.0</ele><time>2026-04-04T13:41:22.998Z</time></trkpt><trkpt lat="42.22495874876041" lon="14.018235409332318"><ele>417.0</ele><time>2026-04-04T13:41:23.998Z</time></trkpt><trkpt lat="42.2249487943519" lon="14.018424300821"><ele>416.0</ele><time>2026-04-04T13:41:24.998Z</time></trkpt><trkpt lat="42.22493768733829" lon="14.018633775082034"><ele>415.0</ele><time>2026-04-04T13:41:25.998Z</time></trkpt><trkpt lat="42.22492646724446" lon="14.018829272067116"><ele>414.0</ele><time>2026-04-04T13:41:27Z</time></trkpt><trkpt lat="42.22491582960685" lon="14.019001387192983"><ele>413.0</ele><time>2026-04-04T13:41:28Z</time></trkpt><trkpt lat="42.22490642821036" lon="14.019138550454723"><ele>411.0</ele><time>2026-04-04T13:41:29Z</time></trkpt><trkpt lat="42.22489108913577" lon="14.01925934122987"><ele>409.0</ele><time>2026-04-04T13:41:30Z</time></trkpt><trkpt lat="42.224867114886464" lon="14.019377997039355"><ele>407.0</ele><time>2026-04-04T13:41:31Z</time></trkpt><trkpt lat="42.2248217177273" lon="14.019486989018617"><ele>405.0</ele><time>2026-04-04T13:41:32Z</time></trkpt><trkpt lat="42.22474702718695" lon="14.019593658920412"><ele>403.0</ele><time>2026-04-04T13:41:33Z</time></trkpt><trkpt lat="42.22464784308481" lon="14.019673508312898"><ele>404.59999999999997</ele><time>2026-04-04T13:41:34Z</time></trkpt><trkpt lat="42.2245433730995" lon="14.019752035425814"><ele>406.2</ele><time>2026-04-04T13:41:35Z</time></trkpt><trkpt lat="42.22445038541466" lon="14.019824750698657"><ele>407.8</ele><time>2026-04-04T13:41:36Z</time></trkpt><trkpt lat="42.224390388072294" lon="14.019906796479704"><ele>409.4</ele><time>2026-04-04T13:41:37Z</time></trkpt><trkpt lat="42.224343058756716" lon="14.019976843948177"><ele>411.0</ele><time>2026-04-04T13:41:38Z</time></trkpt><trkpt lat="42.22430206027822" lon="14.020072055626358"><ele>411.0</ele><time>2026-04-04T13:41:39Z</time></trkpt><trkpt lat="42.22432988884516" lon="14.02019823090844"><ele>411.0</ele><time>2026-04-04T13:41:40Z</time></trkpt><trkpt lat="42.22436659985225" lon="14.020309726456658"><ele>411.0</ele><time>2026-04-04T13:41:41Z</time></trkpt><trkpt lat="42.22443253063855" lon="14.020383376563311"><ele>411.0</ele><time>2026-04-04T13:41:42Z</time></trkpt><trkpt lat="42.22451476768145" lon="14.020411802151163"><ele>411.0</ele><time>2026-04-04T13:41:43Z</time></trkpt><trkpt lat="42.22458397105266" lon="14.020416828943747"><ele>411.0</ele><time>2026-04-04T13:41:44Z</time></trkpt><trkpt lat="42.22466528575473" lon="14.020403254101176"><ele>411.0</ele><time>2026-04-04T13:41:46Z</time></trkpt><trkpt lat="42.224777076218615" lon="14.020376051991894"><ele>411.0</ele><time>2026-04-04T13:41:59Z</time></trkpt><trkpt lat="42.22488579026537" lon="14.020391850623211"><ele>411.0</ele><time>2026-04-04T13:42:00Z</time></trkpt><trkpt lat="42.22498835920695" lon="14.020419536512385"><ele>411.0</ele><time>2026-04-04T13:42:01Z</time></trkpt><trkpt lat="42.22508267490091" lon="14.020480244542483"><ele>411.0</ele><time>2026-04-04T13:42:01.999Z</time></trkpt><trkpt lat="42.22519154686877" lon="14.020507703625576"><ele>406.0</ele><time>2026-04-04T13:42:02.999Z</time></trkpt><trkpt lat="42.22530458072986" lon="14.020479409141196"><ele>401.0</ele><time>2026-04-04T13:42:03.999Z</time></trkpt><trkpt lat="42.225426813103375" lon="14.020451399485628"><ele>396.0</ele><time>2026-04-04T13:42:04.999Z</time></trkpt><trkpt lat="42.22554676218633" lon="14.020436158929888"><ele>391.0</ele><time>2026-04-04T13:42:05.999Z</time></trkpt><trkpt lat="42.225662718648586" lon="14.020471650058091"><ele>387.4</ele><time>2026-04-04T13:42:06.999Z</time></trkpt><trkpt lat="42.22576146927695" lon="14.020512660701714"><ele>383.8</ele><time>2026-04-04T13:42:07.999Z</time></trkpt><trkpt lat="42.22583979814272" lon="14.020577398162326"><ele>380.2</ele><time>2026-04-04T13:42:08.999Z</time></trkpt><trkpt lat="42.225904421496274" lon="14.020673056837094"><ele>376.59999999999997</ele><time>2026-04-04T13:42:09.999Z</time></trkpt><trkpt lat="42.225985847544436" lon="14.020739436100122"><ele>373.0</ele><time>2026-04-04T13:42:10.999Z</time></trkpt><trkpt lat="42.22607512978159" lon="14.020772120726186"><ele>373.0</ele><time>2026-04-04T13:42:11.999Z</time></trkpt><trkpt lat="42.22618380710525" lon="14.020744636660343"><ele>373.0</ele><time>2026-04-04T13:42:12.999Z</time></trkpt><trkpt lat="42.22628900943713" lon="14.020660890245809"><ele>373.0</ele><time>2026-04-04T13:42:13.999Z</time></trkpt><trkpt lat="42.22639520773194" lon="14.020550152910399"><ele>373.0</ele><time>2026-04-04T13:42:14.999Z</time></trkpt><trkpt lat="42.22652373232907" lon="14.020491977887957"><ele>369.3333333333333</ele><time>2026-04-04T13:42:15.999Z</time></trkpt><trkpt lat="42.2266826151446" lon="14.0204352889841"><ele>365.6666666666667</ele><time>2026-04-04T13:42:16.999Z</time></trkpt><trkpt lat="42.22683308772388" lon="14.020340973949455"><ele>362.0</ele><time>2026-04-04T13:42:17.999Z</time></trkpt><trkpt lat="42.22696356015779" lon="14.020273262150623"><ele>362.0</ele><time>2026-04-04T13:42:18.999Z</time></trkpt><trkpt lat="42.227067356164696" lon="14.020250519233368"><ele>362.0</ele><time>2026-04-04T13:42:19.999Z</time></trkpt><trkpt lat="42.227172568072284" lon="14.02021028446357"><ele>362.0</ele><time>2026-04-04T13:42:20.999Z</time></trkpt><trkpt lat="42.22729794778379" lon="14.020284789561446"><ele>362.0</ele><time>2026-04-04T13:42:21.999Z</time></trkpt><trkpt lat="42.227446000308724" lon="14.020353338634157"><ele>361.33333333333337</ele><time>2026-04-04T13:42:22.999Z</time></trkpt><trkpt lat="42.2276110522994" lon="14.020428581024856"><ele>360.6666666666667</ele><time>2026-04-04T13:42:23.999Z</time></trkpt><trkpt lat="42.22776906544849" lon="14.02049789509356"><ele>360.0</ele><time>2026-04-04T13:42:24.999Z</time></trkpt><trkpt lat="42.22790355962196" lon="14.020527893094044"><ele>360.0</ele><time>2026-04-04T13:42:25.999Z</time></trkpt><trkpt lat="42.2280349320457" lon="14.0205770373551"><ele>360.0</ele><time>2026-04-04T13:42:26.999Z</time></trkpt><trkpt lat="42.22819590055571" lon="14.020607642795552"><ele>360.0</ele><time>2026-04-04T13:42:27.999Z</time></trkpt><trkpt lat="42.22835633137947" lon="14.020645669219153"><ele>359.5</ele><time>2026-04-04T13:42:28.999Z</time></trkpt><trkpt lat="42.228489609946834" lon="14.020708639533828"><ele>359.0</ele><time>2026-04-04T13:42:29.999Z</time></trkpt><trkpt lat="42.22862376928592" lon="14.020775713240944"><ele>358.5</ele><time>2026-04-04T13:42:30.999Z</time></trkpt><trkpt lat="42.22877295748469" lon="14.020836344578528"><ele>358.0</ele><time>2026-04-04T13:42:31.999Z</time></trkpt><trkpt lat="42.22888793221682" lon="14.020935185026563"><ele>354.2</ele><time>2026-04-04T13:42:32.999Z</time></trkpt><trkpt lat="42.22899145257868" lon="14.021016921307718"><ele>350.4</ele><time>2026-04-04T13:42:33.999Z</time></trkpt><trkpt lat="42.22908161125712" lon="14.02111308062129"><ele>346.59999999999997</ele><time>2026-04-04T13:42:34.999Z</time></trkpt><trkpt lat="42.22916653584943" lon="14.021221218298884"><ele>342.79999999999995</ele><time>2026-04-04T13:42:35.999Z</time></trkpt><trkpt lat="42.229225072701766" lon="14.02130978782851"><ele>339.0</ele><time>2026-04-04T13:42:36.999Z</time></trkpt><trkpt lat="42.22927132187596" lon="14.021467068134674"><ele>339.0</ele><time>2026-04-04T13:42:38.999Z</time></trkpt><trkpt lat="42.22922732917707" lon="14.02162101549104"><ele>339.0</ele><time>2026-04-04T13:42:39.999Z</time></trkpt><trkpt lat="42.229249011959034" lon="14.021784292377692"><ele>339.0</ele><time>2026-04-04T13:42:40.999Z</time></trkpt><trkpt lat="42.22928215753816" lon="14.021979589772464"><ele>339.0</ele><time>2026-04-04T13:42:41.999Z</time></trkpt><trkpt lat="42.22933826770033" lon="14.02216557555329"><ele>340.25</ele><time>2026-04-04T13:42:42.999Z</time></trkpt><trkpt lat="42.22939057929839" lon="14.022322843976148"><ele>341.5</ele><time>2026-04-04T13:42:43.999Z</time></trkpt><trkpt lat="42.229448678483415" lon="14.022471807315682"><ele>342.75</ele><time>2026-04-04T13:42:44.999Z</time></trkpt><trkpt lat="42.22952151698446" lon="14.022604783110676"><ele>344.0</ele><time>2026-04-04T13:42:45.999Z</time></trkpt><trkpt lat="42.22960871842878" lon="14.022727869718347"><ele>344.25</ele><time>2026-04-04T13:42:46.999Z</time></trkpt><trkpt lat="42.2297037190886" lon="14.022833780260644"><ele>344.5</ele><time>2026-04-04T13:42:47.999Z</time></trkpt><trkpt lat="42.229811915432165" lon="14.022916102303025"><ele>344.75</ele><time>2026-04-04T13:42:48.999Z</time></trkpt><trkpt lat="42.22993402725128" lon="14.022984410950102"><ele>345.0</ele><time>2026-04-04T13:42:49.999Z</time></trkpt><trkpt lat="42.23007194511441" lon="14.023032414619605"><ele>342.25</ele><time>2026-04-04T13:42:50.999Z</time></trkpt><trkpt lat="42.23021648295703" lon="14.023086553551533"><ele>339.5</ele><time>2026-04-04T13:42:51.999Z</time></trkpt><trkpt lat="42.23035004731904" lon="14.023144860861265"><ele>336.75</ele><time>2026-04-04T13:42:52.999Z</time></trkpt><trkpt lat="42.23048431739812" lon="14.023209873463628"><ele>334.0</ele><time>2026-04-04T13:42:53.999Z</time></trkpt><trkpt lat="42.2306153783007" lon="14.023269473509718"><ele>333.2</ele><time>2026-04-04T13:42:54.999Z</time></trkpt><trkpt lat="42.23072941363871" lon="14.023315675662879"><ele>332.4</ele><time>2026-04-04T13:42:55.999Z</time></trkpt><trkpt lat="42.23081935622936" lon="14.023345554331925"><ele>331.6</ele><time>2026-04-04T13:42:56.999Z</time></trkpt><trkpt lat="42.23091618315007" lon="14.023356949059787"><ele>330.8</ele><time>2026-04-04T13:42:57.999Z</time></trkpt><trkpt lat="42.23103749142499" lon="14.023342149243254"><ele>330.0</ele><time>2026-04-04T13:42:58.999Z</time></trkpt><trkpt lat="42.23117101353545" lon="14.02327814782688"><ele>328.0</ele><time>2026-04-04T13:42:59.999Z</time></trkpt><trkpt lat="42.231297666349505" lon="14.023200893284109"><ele>326.0</ele><time>2026-04-04T13:43:00.999Z</time></trkpt><trkpt lat="42.2314288339405" lon="14.023136904799047"><ele>324.0</ele><time>2026-04-04T13:43:01.999Z</time></trkpt><trkpt lat="42.23156826934902" lon="14.023091293881619"><ele>322.0</ele><time>2026-04-04T13:43:02.999Z</time></trkpt><trkpt lat="42.231706436835935" lon="14.023041807994545"><ele>319.0</ele><time>2026-04-04T13:43:03.999Z</time></trkpt><trkpt lat="42.23184367479099" lon="14.02297661158668"><ele>316.0</ele><time>2026-04-04T13:43:04.999Z</time></trkpt><trkpt lat="42.23197938354689" lon="14.022914551345888"><ele>313.0</ele><time>2026-04-04T13:43:05.999Z</time></trkpt><trkpt lat="42.23210451203298" lon="14.022858392351022"><ele>310.0</ele><time>2026-04-04T13:43:06.999Z</time></trkpt><trkpt lat="42.23222084448257" lon="14.022812947402487"><ele>307.6</ele><time>2026-04-04T13:43:07.999Z</time></trkpt><trkpt lat="42.23231894853583" lon="14.022772802585878"><ele>305.2</ele><time>2026-04-04T13:43:08.999Z</time></trkpt><trkpt lat="42.23241218953429" lon="14.02274780756165"><ele>302.8</ele><time>2026-04-04T13:43:09.999Z</time></trkpt><trkpt lat="42.232504176801925" lon="14.022725079842386"><ele>300.4</ele><time>2026-04-04T13:43:10.999Z</time></trkpt><trkpt lat="42.23261048409225" lon="14.022685431329394"><ele>298.0</ele><time>2026-04-04T13:43:11.999Z</time></trkpt><trkpt lat="42.232709594135585" lon="14.022627145385506"><ele>298.0</ele><time>2026-04-04T13:43:12.999Z</time></trkpt><trkpt lat="42.232805521398994" lon="14.0225923784863"><ele>298.0</ele><time>2026-04-04T13:43:13.999Z</time></trkpt><trkpt lat="42.23289532459839" lon="14.022568237409665"><ele>298.0</ele><time>2026-04-04T13:43:14.999Z</time></trkpt><trkpt lat="42.23296345440578" lon="14.022562708035984"><ele>298.0</ele><time>2026-04-04T13:43:15.999Z</time></trkpt><trkpt lat="42.233022902701194" lon="14.02260905186498"><ele>298.0</ele><time>2026-04-04T13:43:16.998Z</time></trkpt><trkpt lat="42.233074916099156" lon="14.022661988291157"><ele>298.0</ele><time>2026-04-04T13:43:17.998Z</time></trkpt><trkpt lat="42.233210721996485" lon="14.022676920284175"><ele>296.8333333333333</ele><time>2026-04-04T13:43:19.998Z</time></trkpt><trkpt lat="42.23328174720463" lon="14.022656695427687"><ele>295.66666666666663</ele><time>2026-04-04T13:43:20.998Z</time></trkpt><trkpt lat="42.23334967654957" lon="14.022617521193396"><ele>294.5</ele><time>2026-04-04T13:43:21.998Z</time></trkpt><trkpt lat="42.233415157157125" lon="14.022566642989565"><ele>293.3333333333333</ele><time>2026-04-04T13:43:22.998Z</time></trkpt><trkpt lat="42.233473221049394" lon="14.022524662350824"><ele>292.1666666666667</ele><time>2026-04-04T13:43:23.998Z</time></trkpt><trkpt lat="42.233530535449404" lon="14.02248211873116"><ele>291.0</ele><time>2026-04-04T13:43:24.998Z</time></trkpt><trkpt lat="42.23361598865509" lon="14.022419654566283"><ele>288.8333333333333</ele><time>2026-04-04T13:43:26.998Z</time></trkpt><trkpt lat="42.23369300789867" lon="14.022367616304471"><ele>286.6666666666667</ele><time>2026-04-04T13:43:28.998Z</time></trkpt><trkpt lat="42.23375921739141" lon="14.022340281408287"><ele>284.5</ele><time>2026-04-04T13:43:30.998Z</time></trkpt><trkpt lat="42.23383609732341" lon="14.022275636260696"><ele>282.33333333333337</ele><time>2026-04-04T13:43:49Z</time></trkpt><trkpt lat="42.2339529353926" lon="14.022206762040812"><ele>280.1666666666667</ele><time>2026-04-04T13:43:51Z</time></trkpt><trkpt lat="42.23401182921261" lon="14.022169894875573"><ele>278.0</ele><time>2026-04-04T13:43:52Z</time></trkpt><trkpt lat="42.23407348912857" lon="14.02212834886085"><ele>277.6666666666667</ele><time>2026-04-04T13:43:53Z</time></trkpt><trkpt lat="42.23413640554429" lon="14.022071530948802"><ele>277.33333333333337</ele><time>2026-04-04T13:43:54Z</time></trkpt><trkpt lat="42.234190113593996" lon="14.021993260043143"><ele>277.0</ele><time>2026-04-04T13:43:55Z</time></trkpt><trkpt lat="42.23423128792116" lon="14.021886389181397"><ele>276.6666666666667</ele><time>2026-04-04T13:43:56Z</time></trkpt><trkpt lat="42.23426985615244" lon="14.021771590728383"><ele>276.3333333333333</ele><time>2026-04-04T13:43:57Z</time></trkpt><trkpt lat="42.234314101085054" lon="14.021659845606628"><ele>276.0</ele><time>2026-04-04T13:43:58Z</time></trkpt><trkpt lat="42.234354417004944" lon="14.021564820278535"><ele>274.3333333333333</ele><time>2026-04-04T13:43:59Z</time></trkpt><trkpt lat="42.23439002624278" lon="14.02148893872349"><ele>272.6666666666667</ele><time>2026-04-04T13:44:00Z</time></trkpt><trkpt lat="42.23445294154592" lon="14.021422987513878"><ele>271.0</ele><time>2026-04-04T13:44:02Z</time></trkpt><trkpt lat="42.23452056198456" lon="14.021392866915216"><ele>269.33333333333337</ele><time>2026-04-04T13:44:03Z</time></trkpt><trkpt lat="42.234624224835336" lon="14.021383131364576"><ele>267.6666666666667</ele><time>2026-04-04T13:44:04Z</time></trkpt><trkpt lat="42.234741226767504" lon="14.021375363913862"><ele>266.0</ele><time>2026-04-04T13:44:05Z</time></trkpt><trkpt lat="42.23486244861107" lon="14.02136942180184"><ele>264.0</ele><time>2026-04-04T13:44:06Z</time></trkpt><trkpt lat="42.2349764144541" lon="14.021375665719944"><ele>262.0</ele><time>2026-04-04T13:44:07Z</time></trkpt><trkpt lat="42.23508420758904" lon="14.021319723223067"><ele>260.0</ele><time>2026-04-04T13:44:08Z</time></trkpt><trkpt lat="42.23519429509956" lon="14.021272218846802"><ele>258.0</ele><time>2026-04-04T13:44:09Z</time></trkpt><trkpt lat="42.23532563453023" lon="14.021195612266196"><ele>258.0</ele><time>2026-04-04T13:44:10Z</time></trkpt><trkpt lat="42.235479572093894" lon="14.021098437159262"><ele>258.0</ele><time>2026-04-04T13:44:11Z</time></trkpt><trkpt lat="42.23564170903055" lon="14.02099991826967"><ele>258.0</ele><time>2026-04-04T13:44:12Z</time></trkpt><trkpt lat="42.23579489211582" lon="14.020912314279986"><ele>255.66666666666669</ele><time>2026-04-04T13:44:13Z</time></trkpt><trkpt lat="42.23594337063098" lon="14.020822349074852"><ele>253.33333333333334</ele><time>2026-04-04T13:44:14Z</time></trkpt><trkpt lat="42.23608160504" lon="14.02072802479346"><ele>251.0</ele><time>2026-04-04T13:44:15Z</time></trkpt><trkpt lat="42.2362181822664" lon="14.020641995924477"><ele>249.8</ele><time>2026-04-04T13:44:16Z</time></trkpt><trkpt lat="42.236325683427395" lon="14.02056783136523"><ele>248.60000000000002</ele><time>2026-04-04T13:44:17Z</time></trkpt><trkpt lat="42.23641933466464" lon="14.020501899971194"><ele>247.4</ele><time>2026-04-04T13:44:18Z</time></trkpt><trkpt lat="42.23647629365756" lon="14.020427686569695"><ele>246.2</ele><time>2026-04-04T13:44:18.999Z</time></trkpt><trkpt lat="42.23653392292106" lon="14.02035357575754"><ele>245.0</ele><time>2026-04-04T13:44:19.999Z</time></trkpt><trkpt lat="42.236683425950716" lon="14.020316771852722"><ele>243.8</ele><time>2026-04-04T13:44:21.999Z</time></trkpt><trkpt lat="42.23680277570749" lon="14.020280172902805"><ele>242.6</ele><time>2026-04-04T13:44:23.999Z</time></trkpt><trkpt lat="42.2368798523524" lon="14.02023737502497"><ele>241.39999999999998</ele><time>2026-04-04T13:44:24.999Z</time></trkpt><trkpt lat="42.236971314939986" lon="14.020189879925677"><ele>240.2</ele><time>2026-04-04T13:44:25.999Z</time></trkpt><trkpt lat="42.237066934548096" lon="14.020155106383015"><ele>239.0</ele><time>2026-04-04T13:44:26.999Z</time></trkpt><trkpt lat="42.23716087266055" lon="14.02016401909047"><ele>239.0</ele><time>2026-04-04T13:44:27.999Z</time></trkpt><trkpt lat="42.23724206291377" lon="14.020185388643618"><ele>238.99999999999997</ele><time>2026-04-04T13:44:28.999Z</time></trkpt><trkpt lat="42.23731773551514" lon="14.020237275244153"><ele>238.99999999999997</ele><time>2026-04-04T13:44:29.999Z</time></trkpt><trkpt lat="42.237375688102595" lon="14.020359056208724"><ele>239.0</ele><time>2026-04-04T13:44:30.999Z</time></trkpt><trkpt lat="42.23745158264162" lon="14.020519078209638"><ele>239.0</ele><time>2026-04-04T13:44:31.999Z</time></trkpt><trkpt lat="42.237531636296794" lon="14.020694302554022"><ele>236.75</ele><time>2026-04-04T13:44:32.999Z</time></trkpt><trkpt lat="42.237602839099566" lon="14.020852280594413"><ele>234.5</ele><time>2026-04-04T13:44:33.999Z</time></trkpt><trkpt lat="42.237669135398804" lon="14.0209955431013"><ele>232.25</ele><time>2026-04-04T13:44:34.999Z</time></trkpt><trkpt lat="42.23774269244412" lon="14.021128375980384"><ele>230.0</ele><time>2026-04-04T13:44:35.999Z</time></trkpt><trkpt lat="42.23782000280765" lon="14.02124406170469"><ele>230.0</ele><time>2026-04-04T13:44:36.999Z</time></trkpt><trkpt lat="42.23793096134066" lon="14.021347872970772"><ele>230.0</ele><time>2026-04-04T13:44:37.999Z</time></trkpt><trkpt lat="42.23807302706785" lon="14.02141242339098"><ele>230.0</ele><time>2026-04-04T13:44:38.999Z</time></trkpt><trkpt lat="42.23820809940934" lon="14.021480819441113"><ele>230.0</ele><time>2026-04-04T13:44:39.999Z</time></trkpt><trkpt lat="42.23834389849143" lon="14.021602461474808"><ele>227.0</ele><time>2026-04-04T13:44:40.999Z</time></trkpt><trkpt lat="42.238489352918585" lon="14.021695054152575"><ele>224.0</ele><time>2026-04-04T13:44:41.999Z</time></trkpt><trkpt lat="42.238629456141034" lon="14.021795827563503"><ele>221.0</ele><time>2026-04-04T13:44:42.999Z</time></trkpt><trkpt lat="42.23876638868086" lon="14.021884116653453"><ele>221.0</ele><time>2026-04-04T13:44:43.999Z</time></trkpt><trkpt lat="42.23890546446981" lon="14.021969015001936"><ele>221.0</ele><time>2026-04-04T13:44:44.999Z</time></trkpt><trkpt lat="42.239051791716655" lon="14.022039505732083"><ele>221.0</ele><time>2026-04-04T13:44:45.999Z</time></trkpt><trkpt lat="42.23918011006217" lon="14.02210192810793"><ele>221.0</ele><time>2026-04-04T13:44:46.999Z</time></trkpt><trkpt lat="42.239304211209706" lon="14.022165278073379"><ele>216.25</ele><time>2026-04-04T13:44:47.999Z</time></trkpt><trkpt lat="42.23941958244302" lon="14.022227323086307"><ele>211.5</ele><time>2026-04-04T13:44:48.999Z</time></trkpt><trkpt lat="42.239529168538084" lon="14.022283146591624"><ele>206.75</ele><time>2026-04-04T13:44:49.999Z</time></trkpt><trkpt lat="42.23964783728319" lon="14.022335482021193"><ele>202.0</ele><time>2026-04-04T13:44:50.999Z</time></trkpt><trkpt lat="42.23978450139355" lon="14.022392296656351"><ele>198.0</ele><time>2026-04-04T13:44:51.999Z</time></trkpt><trkpt lat="42.23992669255992" lon="14.022423243879222"><ele>194.0</ele><time>2026-04-04T13:44:52.999Z</time></trkpt><trkpt lat="42.24006544848421" lon="14.022430204462605"><ele>190.0</ele><time>2026-04-04T13:44:53.999Z</time></trkpt><trkpt lat="42.24020069926471" lon="14.022436343982896"><ele>186.0</ele><time>2026-04-04T13:44:54.999Z</time></trkpt><trkpt lat="42.2403305182565" lon="14.022448830628925"><ele>186.0</ele><time>2026-04-04T13:44:55.999Z</time></trkpt><trkpt lat="42.24045917439542" lon="14.022466294308344"><ele>186.0</ele><time>2026-04-04T13:44:56.999Z</time></trkpt><trkpt lat="42.24057329915502" lon="14.022481551487346"><ele>186.0</ele><time>2026-04-04T13:44:57.999Z</time></trkpt><trkpt lat="42.240691045005796" lon="14.022494800779658"><ele>186.0</ele><time>2026-04-04T13:44:58.999Z</time></trkpt><trkpt lat="42.24081408840821" lon="14.022550806142561"><ele>187.8</ele><time>2026-04-04T13:44:59.999Z</time></trkpt><trkpt lat="42.240929419093206" lon="14.02260747115413"><ele>189.60000000000002</ele><time>2026-04-04T13:45:00.999Z</time></trkpt><trkpt lat="42.241048374839295" lon="14.022648975668487"><ele>191.4</ele><time>2026-04-04T13:45:01.999Z</time></trkpt><trkpt lat="42.24113915690466" lon="14.022687821563133"><ele>193.2</ele><time>2026-04-04T13:45:02.999Z</time></trkpt><trkpt lat="42.24120666535886" lon="14.02271088969143"><ele>195.0</ele><time>2026-04-04T13:45:03.999Z</time></trkpt><trkpt lat="42.241271753299664" lon="14.022728130045435"><ele>195.0</ele><time>2026-04-04T13:45:04.999Z</time></trkpt><trkpt lat="42.24134119528277" lon="14.022729438302724"><ele>195.0</ele><time>2026-04-04T13:45:05.999Z</time></trkpt><trkpt lat="42.24140341172734" lon="14.022708969427882"><ele>195.0</ele><time>2026-04-04T13:45:06.999Z</time></trkpt><trkpt lat="42.2415081243628" lon="14.022615241293803"><ele>195.0</ele><time>2026-04-04T13:45:08.999Z</time></trkpt><trkpt lat="42.241537171088105" lon="14.0225278824093"><ele>195.0</ele><time>2026-04-04T13:45:09.999Z</time></trkpt><trkpt lat="42.24155281645559" lon="14.022415521756033"><ele>195.0</ele><time>2026-04-04T13:45:10.999Z</time></trkpt><trkpt lat="42.241558491520614" lon="14.022293865342158"><ele>192.5</ele><time>2026-04-04T13:45:11.999Z</time></trkpt><trkpt lat="42.24155722379298" lon="14.022163093858879"><ele>190.0</ele><time>2026-04-04T13:45:12.999Z</time></trkpt><trkpt lat="42.24154387640575" lon="14.022037066722024"><ele>187.5</ele><time>2026-04-04T13:45:13.999Z</time></trkpt><trkpt lat="42.24152962837777" lon="14.021920774158074"><ele>185.0</ele><time>2026-04-04T13:45:14.999Z</time></trkpt><trkpt lat="42.24151423502524" lon="14.021816068275612"><ele>182.5</ele><time>2026-04-04T13:45:15.999Z</time></trkpt><trkpt lat="42.2414995370486" lon="14.021708023580173"><ele>180.0</ele><time>2026-04-04T13:45:16.999Z</time></trkpt><trkpt lat="42.24146687393812" lon="14.021559604937096"><ele>179.75</ele><time>2026-04-04T13:45:17.999Z</time></trkpt><trkpt lat="42.24141685517322" lon="14.021378364112442"><ele>179.5</ele><time>2026-04-04T13:45:18.999Z</time></trkpt><trkpt lat="42.24138356721389" lon="14.021215774579563"><ele>179.25</ele><time>2026-04-04T13:45:19.999Z</time></trkpt><trkpt lat="42.241391818306575" lon="14.021058366492971"><ele>179.0</ele><time>2026-04-04T13:45:20.999Z</time></trkpt><trkpt lat="42.24143507302604" lon="14.020913677970183"><ele>178.25</ele><time>2026-04-04T13:45:21.999Z</time></trkpt><trkpt lat="42.241504340665294" lon="14.020779789295736"><ele>177.5</ele><time>2026-04-04T13:45:22.999Z</time></trkpt><trkpt lat="42.241584514475704" lon="14.020639412009256"><ele>176.75</ele><time>2026-04-04T13:45:23.999Z</time></trkpt><trkpt lat="42.2416664749925" lon="14.020483416194631"><ele>176.0</ele><time>2026-04-04T13:45:24.999Z</time></trkpt><trkpt lat="42.24172951595804" lon="14.020333490680436"><ele>176.0</ele><time>2026-04-04T13:45:25.999Z</time></trkpt><trkpt lat="42.24180031124151" lon="14.02019542189481"><ele>176.0</ele><time>2026-04-04T13:45:26.999Z</time></trkpt><trkpt lat="42.241868302423576" lon="14.020061424999163"><ele>176.0</ele><time>2026-04-04T13:45:27.999Z</time></trkpt><trkpt lat="42.241944062933236" lon="14.019921910561422"><ele>176.0</ele><time>2026-04-04T13:45:28.999Z</time></trkpt><trkpt lat="42.2420242158505" lon="14.019788115205792"><ele>175.0</ele><time>2026-04-04T13:45:29.999Z</time></trkpt><trkpt lat="42.242106918926446" lon="14.019661981195608"><ele>174.0</ele><time>2026-04-04T13:45:30.999Z</time></trkpt><trkpt lat="42.24219640808652" lon="14.019525612504601"><ele>173.0</ele><time>2026-04-04T13:45:31.999Z</time></trkpt><trkpt lat="42.24229614993561" lon="14.019401426491488"><ele>172.0</ele><time>2026-04-04T13:45:32.999Z</time></trkpt><trkpt lat="42.2423720499969" lon="14.019255754389699"><ele>171.25</ele><time>2026-04-04T13:45:33.999Z</time></trkpt><trkpt lat="42.24246580672938" lon="14.01914683255668"><ele>170.5</ele><time>2026-04-04T13:45:34.999Z</time></trkpt><trkpt lat="42.24255491297103" lon="14.019037247420247"><ele>169.75</ele><time>2026-04-04T13:45:35.998Z</time></trkpt><trkpt lat="42.242640150169805" lon="14.0189273351836"><ele>169.0</ele><time>2026-04-04T13:45:36.998Z</time></trkpt><trkpt lat="42.242714481444075" lon="14.018833427701114"><ele>169.0</ele><time>2026-04-04T13:45:37.998Z</time></trkpt><trkpt lat="42.24277884260236" lon="14.018728789515173"><ele>169.0</ele><time>2026-04-04T13:45:39Z</time></trkpt><trkpt lat="42.24282704027078" lon="14.018577228635564"><ele>169.0</ele><time>2026-04-04T13:45:40Z</time></trkpt><trkpt lat="42.24287235044799" lon="14.018431610272813"><ele>169.0</ele><time>2026-04-04T13:45:41Z</time></trkpt><trkpt lat="42.24292917890156" lon="14.018296338108087"><ele>168.25</ele><time>2026-04-04T13:45:42Z</time></trkpt><trkpt lat="42.2430086630148" lon="14.01818039711243"><ele>167.5</ele><time>2026-04-04T13:45:43Z</time></trkpt><trkpt lat="42.24309661981555" lon="14.018081878717613"><ele>166.75</ele><time>2026-04-04T13:45:44Z</time></trkpt><trkpt lat="42.243195258902446" lon="14.018007517171007"><ele>166.0</ele><time>2026-04-04T13:45:45Z</time></trkpt><trkpt lat="42.24332203391552" lon="14.017993787749573"><ele>166.0</ele><time>2026-04-04T13:45:46Z</time></trkpt><trkpt lat="42.24346382889531" lon="14.017975776130315"><ele>166.0</ele><time>2026-04-04T13:45:47Z</time></trkpt><trkpt lat="42.24361620663714" lon="14.017966842804006"><ele>166.0</ele><time>2026-04-04T13:45:48Z</time></trkpt><trkpt lat="42.2437668707691" lon="14.017959463149039"><ele>166.0</ele><time>2026-04-04T13:45:49Z</time></trkpt><trkpt lat="42.24390093354026" lon="14.01794263235549"><ele>165.75</ele><time>2026-04-04T13:45:50Z</time></trkpt><trkpt lat="42.24402353222338" lon="14.017936710138404"><ele>165.5</ele><time>2026-04-04T13:45:51Z</time></trkpt><trkpt lat="42.24413250631151" lon="14.017927561101663"><ele>165.25</ele><time>2026-04-04T13:45:52Z</time></trkpt><trkpt lat="42.24424173930568" lon="14.017897581578437"><ele>165.0</ele><time>2026-04-04T13:45:53Z</time></trkpt><trkpt lat="42.244350053411374" lon="14.017838369060138"><ele>165.0</ele><time>2026-04-04T13:45:54Z</time></trkpt><trkpt lat="42.24447767429326" lon="14.017732509322306"><ele>165.0</ele><time>2026-04-04T13:45:55Z</time></trkpt><trkpt lat="42.244624288997066" lon="14.01757853688371"><ele>165.0</ele><time>2026-04-04T13:45:56Z</time></trkpt><trkpt lat="42.24476015464969" lon="14.017418601610725"><ele>163.33333333333334</ele><time>2026-04-04T13:45:57Z</time></trkpt><trkpt lat="42.244894478879466" lon="14.01726618712326"><ele>161.66666666666669</ele><time>2026-04-04T13:45:58Z</time></trkpt><trkpt lat="42.245027599327344" lon="14.017120034741168"><ele>160.0</ele><time>2026-04-04T13:45:59Z</time></trkpt><trkpt lat="42.24515441633887" lon="14.016983000896719"><ele>160.0</ele><time>2026-04-04T13:46:00Z</time></trkpt><trkpt lat="42.245281621471484" lon="14.016847428203496"><ele>160.0</ele><time>2026-04-04T13:46:01Z</time></trkpt><trkpt lat="42.245401857738166" lon="14.016719286853348"><ele>160.0</ele><time>2026-04-04T13:46:02Z</time></trkpt><trkpt lat="42.24552892026489" lon="14.016597975206075"><ele>159.0</ele><time>2026-04-04T13:46:03Z</time></trkpt><trkpt lat="42.24565611670116" lon="14.016502765664479"><ele>158.0</ele><time>2026-04-04T13:46:04Z</time></trkpt><trkpt lat="42.245760791975364" lon="14.01643638208903"><ele>157.0</ele><time>2026-04-04T13:46:05Z</time></trkpt><trkpt lat="42.245838682048685" lon="14.016398061012412"><ele>156.0</ele><time>2026-04-04T13:46:06Z</time></trkpt><trkpt lat="42.245901620269684" lon="14.016367161333413"><ele>155.0</ele><time>2026-04-04T13:46:07Z</time></trkpt><trkpt lat="42.24598834535303" lon="14.01632667700344"><ele>155.0</ele><time>2026-04-04T13:46:09Z</time></trkpt><trkpt lat="42.246061345855466" lon="14.01631578394796"><ele>155.0</ele><time>2026-04-04T13:46:42.999Z</time></trkpt><trkpt lat="42.246129617256095" lon="14.016298342198754"><ele>155.0</ele><time>2026-04-04T13:46:45.999Z</time></trkpt><trkpt lat="42.24620234764968" lon="14.016261687980354"><ele>155.0</ele><time>2026-04-04T13:47:20.999Z</time></trkpt><trkpt lat="42.246288807610185" lon="14.016257672751072"><ele>155.0</ele><time>2026-04-04T13:47:21.999Z</time></trkpt><trkpt lat="42.24638915115873" lon="14.016221506396578"><ele>155.0</ele><time>2026-04-04T13:47:22.999Z</time></trkpt><trkpt lat="42.24650766766016" lon="14.016189982339881"><ele>154.0</ele><time>2026-04-04T13:47:23.999Z</time></trkpt><trkpt lat="42.24662932899129" lon="14.016142999128014"><ele>153.0</ele><time>2026-04-04T13:47:24.999Z</time></trkpt><trkpt lat="42.246742193431004" lon="14.01609034128572"><ele>152.0</ele><time>2026-04-04T13:47:25.999Z</time></trkpt><trkpt lat="42.24686017985321" lon="14.016033459239695"><ele>151.0</ele><time>2026-04-04T13:47:26.999Z</time></trkpt><trkpt lat="42.24697402829358" lon="14.015970664611176"><ele>151.0</ele><time>2026-04-04T13:47:27.999Z</time></trkpt><trkpt lat="42.24707612227555" lon="14.015893869300116"><ele>151.0</ele><time>2026-04-04T13:47:28.999Z</time></trkpt><trkpt lat="42.24716833865967" lon="14.015803338255544"><ele>151.0</ele><time>2026-04-04T13:47:29.999Z</time></trkpt><trkpt lat="42.2472510988875" lon="14.01569567143592"><ele>151.0</ele><time>2026-04-04T13:47:30.999Z</time></trkpt><trkpt lat="42.2473231226469" lon="14.015562065926828"><ele>148.0</ele><time>2026-04-04T13:47:31.999Z</time></trkpt><trkpt lat="42.247389087715284" lon="14.015419019507098"><ele>145.0</ele><time>2026-04-04T13:47:32.999Z</time></trkpt><trkpt lat="42.24744650399086" lon="14.01525232238441"><ele>142.0</ele><time>2026-04-04T13:47:33.999Z</time></trkpt><trkpt lat="42.24749516922604" lon="14.015076217526405"><ele>139.0</ele><time>2026-04-04T13:47:34.999Z</time></trkpt><trkpt lat="42.247536784779484" lon="14.014897329406274"><ele>138.75</ele><time>2026-04-04T13:47:35.999Z</time></trkpt><trkpt lat="42.24756677043199" lon="14.014718769532427"><ele>138.5</ele><time>2026-04-04T13:47:36.999Z</time></trkpt><trkpt lat="42.247587305248125" lon="14.014551756445329"><ele>138.25</ele><time>2026-04-04T13:47:37.999Z</time></trkpt><trkpt lat="42.2476014044948" lon="14.014408110307983"><ele>138.0</ele><time>2026-04-04T13:47:38.999Z</time></trkpt><trkpt lat="42.24761034518656" lon="14.01428488593954"><ele>139.5</ele><time>2026-04-04T13:47:39.999Z</time></trkpt><trkpt lat="42.247647617915234" lon="14.014141458438056"><ele>141.0</ele><time>2026-04-04T13:47:40.999Z</time></trkpt><trkpt lat="42.24768673999452" lon="14.013990113942523"><ele>142.5</ele><time>2026-04-04T13:47:41.999Z</time></trkpt><trkpt lat="42.247722079993686" lon="14.013842867826467"><ele>144.0</ele><time>2026-04-04T13:47:42.999Z</time></trkpt><trkpt lat="42.247900362102584" lon="14.013754440657195"><ele>144.0</ele><time>2026-04-04T13:47:44Z</time></trkpt><trkpt lat="42.248028449049976" lon="14.013627796550718"><ele>144.0</ele><time>2026-04-04T13:47:45Z</time></trkpt><trkpt lat="42.24816548254959" lon="14.013499547216574"><ele>144.0</ele><time>2026-04-04T13:47:46Z</time></trkpt><trkpt lat="42.24830827928244" lon="14.013369613802672"><ele>146.0</ele><time>2026-04-04T13:47:47Z</time></trkpt><trkpt lat="42.248457313416004" lon="14.013264702025623"><ele>148.0</ele><time>2026-04-04T13:47:48Z</time></trkpt><trkpt lat="42.24859922858833" lon="14.013193565711395"><ele>150.0</ele><time>2026-04-04T13:47:49Z</time></trkpt><trkpt lat="42.24875276391675" lon="14.0131316616671"><ele>150.0</ele><time>2026-04-04T13:47:50Z</time></trkpt><trkpt lat="42.248906091758435" lon="14.013073860834867"><ele>150.0</ele><time>2026-04-04T13:47:51Z</time></trkpt><trkpt lat="42.24905200465798" lon="14.013006448193831"><ele>150.0</ele><time>2026-04-04T13:47:52Z</time></trkpt><trkpt lat="42.24920428176351" lon="14.01291501343211"><ele>150.33333333333334</ele><time>2026-04-04T13:47:53Z</time></trkpt><trkpt lat="42.24934567068694" lon="14.012791073722896"><ele>150.66666666666669</ele><time>2026-04-04T13:47:54Z</time></trkpt><trkpt lat="42.24948332886098" lon="14.012641949590853"><ele>151.0</ele><time>2026-04-04T13:47:55Z</time></trkpt><trkpt lat="42.24962180178627" lon="14.012469817070095"><ele>151.0</ele><time>2026-04-04T13:47:56Z</time></trkpt><trkpt lat="42.249754635131765" lon="14.012314798566647"><ele>151.0</ele><time>2026-04-04T13:47:57Z</time></trkpt><trkpt lat="42.249882220530864" lon="14.012172244611424"><ele>151.0</ele><time>2026-04-04T13:47:58Z</time></trkpt><trkpt lat="42.2500070553236" lon="14.012038565986746"><ele>149.66666666666669</ele><time>2026-04-04T13:47:59Z</time></trkpt><trkpt lat="42.25013019794047" lon="14.011904246397812"><ele>148.33333333333334</ele><time>2026-04-04T13:48:00Z</time></trkpt><trkpt lat="42.2502540672366" lon="14.011777261717196"><ele>147.0</ele><time>2026-04-04T13:48:01Z</time></trkpt><trkpt lat="42.25039254306417" lon="14.011656065470088"><ele>147.0</ele><time>2026-04-04T13:48:02Z</time></trkpt><trkpt lat="42.25053120755046" lon="14.011558938330761"><ele>147.0</ele><time>2026-04-04T13:48:03Z</time></trkpt><trkpt lat="42.250669392542996" lon="14.011475334161752"><ele>147.0</ele><time>2026-04-04T13:48:04Z</time></trkpt><trkpt lat="42.250804470085285" lon="14.011413047789894"><ele>144.75</ele><time>2026-04-04T13:48:05Z</time></trkpt><trkpt lat="42.25092461441671" lon="14.011341464992793"><ele>142.5</ele><time>2026-04-04T13:48:06Z</time></trkpt><trkpt lat="42.25104158839621" lon="14.011233916768429"><ele>140.25</ele><time>2026-04-04T13:48:07Z</time></trkpt><trkpt lat="42.25115631613702" lon="14.011082681621327"><ele>138.0</ele><time>2026-04-04T13:48:08Z</time></trkpt><trkpt lat="42.25126204722398" lon="14.010917652227716"><ele>139.0</ele><time>2026-04-04T13:48:09Z</time></trkpt><trkpt lat="42.25135652686034" lon="14.010734404396532"><ele>140.0</ele><time>2026-04-04T13:48:10Z</time></trkpt><trkpt lat="42.251454006897156" lon="14.010555945172785"><ele>141.0</ele><time>2026-04-04T13:48:11Z</time></trkpt><trkpt lat="42.2515561339643" lon="14.010395232198327"><ele>138.0</ele><time>2026-04-04T13:48:12Z</time></trkpt><trkpt lat="42.25166079036667" lon="14.010243794878322"><ele>135.0</ele><time>2026-04-04T13:48:13Z</time></trkpt><trkpt lat="42.25175412370234" lon="14.010091913924256"><ele>132.0</ele><time>2026-04-04T13:48:14Z</time></trkpt><trkpt lat="42.25185550136141" lon="14.009938185573063"><ele>132.0</ele><time>2026-04-04T13:48:15Z</time></trkpt><trkpt lat="42.251944038200364" lon="14.00977500619977"><ele>132.0</ele><time>2026-04-04T13:48:16Z</time></trkpt><trkpt lat="42.25201132890815" lon="14.009608682327338"><ele>132.0</ele><time>2026-04-04T13:48:17Z</time></trkpt><trkpt lat="42.25207169499704" lon="14.009431604460707"><ele>132.0</ele><time>2026-04-04T13:48:18Z</time></trkpt><trkpt lat="42.252118085402266" lon="14.009227878945"><ele>133.0</ele><time>2026-04-04T13:48:19Z</time></trkpt><trkpt lat="42.252169845443966" lon="14.009020515080632"><ele>134.0</ele><time>2026-04-04T13:48:20Z</time></trkpt><trkpt lat="42.25222376563367" lon="14.008819049841163"><ele>135.0</ele><time>2026-04-04T13:48:21Z</time></trkpt><trkpt lat="42.25227533634416" lon="14.008631828512378"><ele>133.0</ele><time>2026-04-04T13:48:22Z</time></trkpt><trkpt lat="42.25232275413984" lon="14.00845133600181"><ele>131.0</ele><time>2026-04-04T13:48:23Z</time></trkpt><trkpt lat="42.252364298887336" lon="14.008289417179268"><ele>129.0</ele><time>2026-04-04T13:48:24Z</time></trkpt><trkpt lat="42.25240545293685" lon="14.008138901373957"><ele>127.0</ele><time>2026-04-04T13:48:25Z</time></trkpt><trkpt lat="42.2524484056058" lon="14.008002309363368"><ele>127.0</ele><time>2026-04-04T13:48:26Z</time></trkpt><trkpt lat="42.252499500280045" lon="14.007871771542472"><ele>126.99999999999999</ele><time>2026-04-04T13:48:27Z</time></trkpt><trkpt lat="42.25256654959788" lon="14.0077644022013"><ele>126.99999999999999</ele><time>2026-04-04T13:48:28Z</time></trkpt><trkpt lat="42.25265200760272" lon="14.00770157815036"><ele>127.0</ele><time>2026-04-04T13:48:29Z</time></trkpt><trkpt lat="42.252748366331105" lon="14.007666925274751"><ele>127.0</ele><time>2026-04-04T13:48:30Z</time></trkpt><trkpt lat="42.252853723219964" lon="14.007658838735551"><ele>127.00000000000001</ele><time>2026-04-04T13:48:31Z</time></trkpt><trkpt lat="42.252949470018336" lon="14.007679269708094"><ele>127.0</ele><time>2026-04-04T13:48:32Z</time></trkpt><trkpt lat="42.25303645001207" lon="14.007741875887032"><ele>127.0</ele><time>2026-04-04T13:48:33Z</time></trkpt><trkpt lat="42.25311322369615" lon="14.007815774912379"><ele>127.0</ele><time>2026-04-04T13:48:34Z</time></trkpt><trkpt lat="42.2531825454928" lon="14.007856658502993"><ele>127.00000000000001</ele><time>2026-04-04T13:48:35Z</time></trkpt><trkpt lat="42.253251882019" lon="14.00786933174897"><ele>127.0</ele><time>2026-04-04T13:48:36Z</time></trkpt><trkpt lat="42.25332094210365" lon="14.00776071347443"><ele>126.0</ele><time>2026-04-04T13:48:37Z</time></trkpt><trkpt lat="42.25335664765864" lon="14.007637268609228"><ele>125.0</ele><time>2026-04-04T13:48:38Z</time></trkpt><trkpt lat="42.25345035049353" lon="14.00753630044913"><ele>124.0</ele><time>2026-04-04T13:48:39Z</time></trkpt><trkpt lat="42.25356159028359" lon="14.007407709279065"><ele>123.0</ele><time>2026-04-04T13:48:40Z</time></trkpt><trkpt lat="42.25366300811338" lon="14.007259379666936"><ele>123.0</ele><time>2026-04-04T13:48:41Z</time></trkpt><trkpt lat="42.253752334549276" lon="14.007095668355213"><ele>123.0</ele><time>2026-04-04T13:48:42Z</time></trkpt><trkpt lat="42.25384836305324" lon="14.006916425652507"><ele>123.0</ele><time>2026-04-04T13:48:43Z</time></trkpt><trkpt lat="42.25394985036615" lon="14.006716579428662"><ele>121.33333333333334</ele><time>2026-04-04T13:48:44Z</time></trkpt><trkpt lat="42.254054572236434" lon="14.006492432922107"><ele>119.66666666666667</ele><time>2026-04-04T13:48:45Z</time></trkpt><trkpt lat="42.25416597153026" lon="14.006262305656145"><ele>118.0</ele><time>2026-04-04T13:48:46Z</time></trkpt><trkpt lat="42.25427572660417" lon="14.006043885498503"><ele>118.0</ele><time>2026-04-04T13:48:47Z</time></trkpt><trkpt lat="42.2543808922161" lon="14.005848158150544"><ele>118.0</ele><time>2026-04-04T13:48:48Z</time></trkpt><trkpt lat="42.25450022664342" lon="14.0056568715032"><ele>118.0</ele><time>2026-04-04T13:48:49Z</time></trkpt><trkpt lat="42.25464015844213" lon="14.005459725094804"><ele>118.33333333333334</ele><time>2026-04-04T13:48:50Z</time></trkpt><trkpt lat="42.25479085462341" lon="14.005259660112987"><ele>118.66666666666666</ele><time>2026-04-04T13:48:51Z</time></trkpt><trkpt lat="42.254923939811604" lon="14.005070383854997"><ele>119.0</ele><time>2026-04-04T13:48:52Z</time></trkpt><trkpt lat="42.25504548966654" lon="14.004898889115184"><ele>119.0</ele><time>2026-04-04T13:48:53Z</time></trkpt><trkpt lat="42.25515601673159" lon="14.004752492524016"><ele>119.0</ele><time>2026-04-04T13:48:53.999Z</time></trkpt><trkpt lat="42.25526416241208" lon="14.004620968771594"><ele>119.0</ele><time>2026-04-04T13:48:54.999Z</time></trkpt><trkpt lat="42.25538913417461" lon="14.004509262496478"><ele>119.0</ele><time>2026-04-04T13:48:55.999Z</time></trkpt><trkpt lat="42.25553653307808" lon="14.004427096015576"><ele>119.0</ele><time>2026-04-04T13:48:56.999Z</time></trkpt><trkpt lat="42.25569523213581" lon="14.004391831117168"><ele>119.0</ele><time>2026-04-04T13:48:57.999Z</time></trkpt><trkpt lat="42.25586524311585" lon="14.004401837322142"><ele>118.0</ele><time>2026-04-04T13:48:58.999Z</time></trkpt><trkpt lat="42.256052114972206" lon="14.00443443478988"><ele>117.0</ele><time>2026-04-04T13:48:59.999Z</time></trkpt><trkpt lat="42.25624483595365" lon="14.004467121741218"><ele>116.0</ele><time>2026-04-04T13:49:00.999Z</time></trkpt><trkpt lat="42.25642676841376" lon="14.004484618022863"><ele>116.66666666666666</ele><time>2026-04-04T13:49:01.999Z</time></trkpt><trkpt lat="42.256599093546114" lon="14.004486288059137"><ele>117.33333333333334</ele><time>2026-04-04T13:49:02.999Z</time></trkpt><trkpt lat="42.256777796077344" lon="14.004471483975799"><ele>118.0</ele><time>2026-04-04T13:49:03.999Z</time></trkpt><trkpt lat="42.25696622507133" lon="14.004435188939599"><ele>118.0</ele><time>2026-04-04T13:49:04.999Z</time></trkpt><trkpt lat="42.257152110467814" lon="14.004368462051037"><ele>118.0</ele><time>2026-04-04T13:49:05.999Z</time></trkpt><trkpt lat="42.25733852304591" lon="14.00428170746039"><ele>118.0</ele><time>2026-04-04T13:49:06.999Z</time></trkpt><trkpt lat="42.25752987339921" lon="14.00419267760849"><ele>120.33333333333334</ele><time>2026-04-04T13:49:07.999Z</time></trkpt><trkpt lat="42.25771685577657" lon="14.004104517539378"><ele>122.66666666666666</ele><time>2026-04-04T13:49:08.999Z</time></trkpt><trkpt lat="42.25789165534101" lon="14.004021133189838"><ele>125.0</ele><time>2026-04-04T13:49:09.999Z</time></trkpt><trkpt lat="42.258054322910006" lon="14.003936486021072"><ele>122.33333333333333</ele><time>2026-04-04T13:49:10.999Z</time></trkpt><trkpt lat="42.25822152481218" lon="14.003860397100432"><ele>119.66666666666666</ele><time>2026-04-04T13:49:11.999Z</time></trkpt><trkpt lat="42.25838771950506" lon="14.003784681875267"><ele>117.0</ele><time>2026-04-04T13:49:12.999Z</time></trkpt><trkpt lat="42.258549676951134" lon="14.00370861313311"><ele>117.0</ele><time>2026-04-04T13:49:13.999Z</time></trkpt><trkpt lat="42.25870683955535" lon="14.003635644900658"><ele>117.0</ele><time>2026-04-04T13:49:14.999Z</time></trkpt><trkpt lat="42.25887239932178" lon="14.003563473202425"><ele>117.0</ele><time>2026-04-04T13:49:15.999Z</time></trkpt><trkpt lat="42.25904068016367" lon="14.003488346989565"><ele>117.0</ele><time>2026-04-04T13:49:16.999Z</time></trkpt><trkpt lat="42.25921748583711" lon="14.0034147800066"><ele>117.0</ele><time>2026-04-04T13:49:17.999Z</time></trkpt><trkpt lat="42.25940443039109" lon="14.003349528872349"><ele>117.0</ele><time>2026-04-04T13:49:18.999Z</time></trkpt><trkpt lat="42.25959282822633" lon="14.003289806874466"><ele>117.0</ele><time>2026-04-04T13:49:19.999Z</time></trkpt><trkpt lat="42.25978565596493" lon="14.00323199796583"><ele>117.0</ele><time>2026-04-04T13:49:20.999Z</time></trkpt><trkpt lat="42.25998132970542" lon="14.00318208927816"><ele>117.0</ele><time>2026-04-04T13:49:21.999Z</time></trkpt><trkpt lat="42.26016596067268" lon="14.003139698900066"><ele>117.0</ele><time>2026-04-04T13:49:22.999Z</time></trkpt><trkpt lat="42.26034259456972" lon="14.003098662813196"><ele>117.0</ele><time>2026-04-04T13:49:23.999Z</time></trkpt><trkpt lat="42.26051552961401" lon="14.003058924595948"><ele>117.0</ele><time>2026-04-04T13:49:24.999Z</time></trkpt><trkpt lat="42.26068291022253" lon="14.003021052895999"><ele>116.66666666666666</ele><time>2026-04-04T13:49:25.999Z</time></trkpt><trkpt lat="42.260843957456416" lon="14.002982808390303"><ele>116.33333333333333</ele><time>2026-04-04T13:49:26.999Z</time></trkpt><trkpt lat="42.260997964553255" lon="14.002946254784549"><ele>116.0</ele><time>2026-04-04T13:49:27.999Z</time></trkpt><trkpt lat="42.26114904836256" lon="14.002914581281654"><ele>116.0</ele><time>2026-04-04T13:49:28.999Z</time></trkpt><trkpt lat="42.261293960431665" lon="14.002885950904242"><ele>116.0</ele><time>2026-04-04T13:49:29.999Z</time></trkpt><trkpt lat="42.26142600769978" lon="14.002855250585649"><ele>116.0</ele><time>2026-04-04T13:49:30.999Z</time></trkpt><trkpt lat="42.26155100108443" lon="14.002833631174836"><ele>116.0</ele><time>2026-04-04T13:49:31.999Z</time></trkpt><trkpt lat="42.26166827971316" lon="14.00282126322866"><ele>114.4</ele><time>2026-04-04T13:49:32.999Z</time></trkpt><trkpt lat="42.26177728564716" lon="14.00282414414999"><ele>112.8</ele><time>2026-04-04T13:49:33.999Z</time></trkpt><trkpt lat="42.261870805326936" lon="14.002843343612764"><ele>111.20000000000002</ele><time>2026-04-04T13:49:34.999Z</time></trkpt><trkpt lat="42.26195032332875" lon="14.002868956174355"><ele>109.60000000000001</ele><time>2026-04-04T13:49:35.999Z</time></trkpt><trkpt lat="42.26201571726223" lon="14.002890424210035"><ele>108.0</ele><time>2026-04-04T13:49:36.999Z</time></trkpt><trkpt lat="42.26211274794995" lon="14.003008527050115"><ele>108.0</ele><time>2026-04-04T13:49:38.999Z</time></trkpt><trkpt lat="42.262148722700665" lon="14.003106556629106"><ele>108.00000000000001</ele><time>2026-04-04T13:49:39.999Z</time></trkpt><trkpt lat="42.262244129990094" lon="14.003220741267983"><ele>108.00000000000001</ele><time>2026-04-04T13:49:41.999Z</time></trkpt><trkpt lat="42.26230289827086" lon="14.003260049469633"><ele>108.0</ele><time>2026-04-04T13:49:42.999Z</time></trkpt><trkpt lat="42.262378645311706" lon="14.00322850993292"><ele>108.0</ele><time>2026-04-04T13:49:43.999Z</time></trkpt><trkpt lat="42.26246176497265" lon="14.00330952793484"><ele>107.25</ele><time>2026-04-04T13:49:44.999Z</time></trkpt><trkpt lat="42.26255674074756" lon="14.003348880870256"><ele>106.5</ele><time>2026-04-04T13:49:45.999Z</time></trkpt><trkpt lat="42.26268410904834" lon="14.003403583360896"><ele>105.75</ele><time>2026-04-04T13:49:46.999Z</time></trkpt><trkpt lat="42.26281458022167" lon="14.0034701234733"><ele>105.0</ele><time>2026-04-04T13:49:47.999Z</time></trkpt><trkpt lat="42.26295246194934" lon="14.00354529469948"><ele>105.0</ele><time>2026-04-04T13:49:48.999Z</time></trkpt><trkpt lat="42.26308379889636" lon="14.003615937792581"><ele>105.0</ele><time>2026-04-04T13:49:50Z</time></trkpt><trkpt lat="42.26321087238149" lon="14.003672122418655"><ele>105.0</ele><time>2026-04-04T13:49:51Z</time></trkpt><trkpt lat="42.26332332318513" lon="14.003736924065583"><ele>105.0</ele><time>2026-04-04T13:49:52Z</time></trkpt><trkpt lat="42.263420711674115" lon="14.00379102347969"><ele>104.83333333333333</ele><time>2026-04-04T13:49:53Z</time></trkpt><trkpt lat="42.263504274182004" lon="14.003839336157723"><ele>104.66666666666666</ele><time>2026-04-04T13:49:54Z</time></trkpt><trkpt lat="42.26358447420336" lon="14.003885458222943"><ele>104.5</ele><time>2026-04-04T13:49:55Z</time></trkpt><trkpt lat="42.26366311802836" lon="14.003931823118819"><ele>104.33333333333333</ele><time>2026-04-04T13:49:56Z</time></trkpt><trkpt lat="42.263738324530095" lon="14.003972156584092"><ele>104.16666666666666</ele><time>2026-04-04T13:49:57Z</time></trkpt><trkpt lat="42.263806087806785" lon="14.00398492964012"><ele>104.0</ele><time>2026-04-04T13:49:58Z</time></trkpt><trkpt lat="42.26391609048775" lon="14.004008424993565"><ele>104.83333333333333</ele><time>2026-04-04T13:50:00Z</time></trkpt><trkpt lat="42.26398527227369" lon="14.004053810013247"><ele>105.66666666666666</ele><time>2026-04-04T13:50:01Z</time></trkpt><trkpt lat="42.2640481532357" lon="14.004133953767372"><ele>106.5</ele><time>2026-04-04T13:50:02Z</time></trkpt><trkpt lat="42.26411548292521" lon="14.004179922522077"><ele>107.33333333333334</ele><time>2026-04-04T13:50:03Z</time></trkpt><trkpt lat="42.26418008790078" lon="14.004190276298912"><ele>108.16666666666667</ele><time>2026-04-04T13:50:04Z</time></trkpt><trkpt lat="42.264295741957156" lon="14.004291558636092"><ele>109.0</ele><time>2026-04-04T13:50:06Z</time></trkpt><trkpt lat="42.26434825620719" lon="14.004381526961664"><ele>109.2</ele><time>2026-04-04T13:50:07Z</time></trkpt><trkpt lat="42.26438995015451" lon="14.004463377888545"><ele>109.4</ele><time>2026-04-04T13:50:08Z</time></trkpt><trkpt lat="42.26441790169543" lon="14.00459640570919"><ele>109.6</ele><time>2026-04-04T13:50:09Z</time></trkpt><trkpt lat="42.26447489059415" lon="14.004723422530933"><ele>109.8</ele><time>2026-04-04T13:50:10Z</time></trkpt><trkpt lat="42.26452776590069" lon="14.004845522482439"><ele>110.0</ele><time>2026-04-04T13:50:11Z</time></trkpt><trkpt lat="42.26458701628409" lon="14.00495463342801"><ele>109.0</ele><time>2026-04-04T13:50:12Z</time></trkpt><trkpt lat="42.264633168173006" lon="14.005067431538619"><ele>108.0</ele><time>2026-04-04T13:50:13Z</time></trkpt><trkpt lat="42.26468277491768" lon="14.005174616586062"><ele>107.0</ele><time>2026-04-04T13:50:14Z</time></trkpt><trkpt lat="42.264731189793636" lon="14.005280212117498"><ele>106.0</ele><time>2026-04-04T13:50:15Z</time></trkpt><trkpt lat="42.26477895769372" lon="14.005386868327994"><ele>105.0</ele><time>2026-04-04T13:50:16Z</time></trkpt><trkpt lat="42.26482665901101" lon="14.005494020929792"><ele>105.0</ele><time>2026-04-04T13:50:17Z</time></trkpt><trkpt lat="42.26487785277091" lon="14.005604191097918"><ele>105.0</ele><time>2026-04-04T13:50:18Z</time></trkpt><trkpt lat="42.26492966264034" lon="14.005717773646463"><ele>105.0</ele><time>2026-04-04T13:50:19Z</time></trkpt><trkpt lat="42.264979253728264" lon="14.005832946401588"><ele>105.0</ele><time>2026-04-04T13:50:20Z</time></trkpt><trkpt lat="42.26502894502768" lon="14.005946868564424"><ele>105.0</ele><time>2026-04-04T13:50:21Z</time></trkpt><trkpt lat="42.26507812172673" lon="14.006060338594846"><ele>104.4</ele><time>2026-04-04T13:50:22Z</time></trkpt><trkpt lat="42.26512563545618" lon="14.006174781123217"><ele>103.8</ele><time>2026-04-04T13:50:23Z</time></trkpt><trkpt lat="42.265181135617915" lon="14.00629803324292"><ele>103.19999999999999</ele><time>2026-04-04T13:50:24Z</time></trkpt><trkpt lat="42.265224907482924" lon="14.006432368735801"><ele>102.6</ele><time>2026-04-04T13:50:25Z</time></trkpt><trkpt lat="42.26528380947368" lon="14.006567198999878"><ele>102.0</ele><time>2026-04-04T13:50:26Z</time></trkpt><trkpt lat="42.26536115648055" lon="14.006694828397771"><ele>101.75</ele><time>2026-04-04T13:50:27Z</time></trkpt><trkpt lat="42.265424468924564" lon="14.006848137621654"><ele>101.5</ele><time>2026-04-04T13:50:28Z</time></trkpt><trkpt lat="42.265488275046955" lon="14.006994880636977"><ele>101.25</ele><time>2026-04-04T13:50:29Z</time></trkpt><trkpt lat="42.26554689339312" lon="14.007125429141793"><ele>101.0</ele><time>2026-04-04T13:50:30Z</time></trkpt><trkpt lat="42.2656087885467" lon="14.00726160133026"><ele>101.0</ele><time>2026-04-04T13:50:31Z</time></trkpt><trkpt lat="42.265680373842294" lon="14.007406257746991"><ele>101.0</ele><time>2026-04-04T13:50:32Z</time></trkpt><trkpt lat="42.26576398208753" lon="14.007545347655045"><ele>101.0</ele><time>2026-04-04T13:50:33Z</time></trkpt><trkpt lat="42.265849849100555" lon="14.00766682855537"><ele>101.0</ele><time>2026-04-04T13:50:34Z</time></trkpt><trkpt lat="42.2659293850978" lon="14.00777945754138"><ele>101.0</ele><time>2026-04-04T13:50:35Z</time></trkpt><trkpt lat="42.266015660241216" lon="14.007881803847791"><ele>101.0</ele><time>2026-04-04T13:50:36Z</time></trkpt><trkpt lat="42.26611432931989" lon="14.007982728934628"><ele>101.0</ele><time>2026-04-04T13:50:37Z</time></trkpt><trkpt lat="42.2662153310808" lon="14.008080710997223"><ele>101.0</ele><time>2026-04-04T13:50:38Z</time></trkpt><trkpt lat="42.26630427420784" lon="14.008200633668956"><ele>101.0</ele><time>2026-04-04T13:50:39Z</time></trkpt><trkpt lat="42.26640972337648" lon="14.008292246711713"><ele>101.0</ele><time>2026-04-04T13:50:40Z</time></trkpt><trkpt lat="42.266503338010416" lon="14.008412838742698"><ele>101.0</ele><time>2026-04-04T13:50:41Z</time></trkpt><trkpt lat="42.266569918815456" lon="14.008563459746169"><ele>101.0</ele><time>2026-04-04T13:50:42Z</time></trkpt><trkpt lat="42.26664879019366" lon="14.00871025057017"><ele>100.33333333333333</ele><time>2026-04-04T13:50:43Z</time></trkpt><trkpt lat="42.266723856852956" lon="14.008875172091507"><ele>99.66666666666666</ele><time>2026-04-04T13:50:44Z</time></trkpt><trkpt lat="42.26680258313454" lon="14.009052940503999"><ele>99.0</ele><time>2026-04-04T13:50:45Z</time></trkpt><trkpt lat="42.266889846998005" lon="14.009252744286515"><ele>98.5</ele><time>2026-04-04T13:50:46Z</time></trkpt><trkpt lat="42.2669720154257" lon="14.00943944661139"><ele>98.0</ele><time>2026-04-04T13:50:47Z</time></trkpt><trkpt lat="42.26705036672124" lon="14.009612621445909"><ele>97.5</ele><time>2026-04-04T13:50:48Z</time></trkpt><trkpt lat="42.26711656576482" lon="14.009759191785578"><ele>97.0</ele><time>2026-04-04T13:50:49Z</time></trkpt><trkpt lat="42.26717233298629" lon="14.009884507744177"><ele>97.0</ele><time>2026-04-04T13:50:50Z</time></trkpt><trkpt lat="42.26721825404383" lon="14.009991411745029"><ele>97.0</ele><time>2026-04-04T13:50:51Z</time></trkpt><trkpt lat="42.267266720884344" lon="14.010081518065169"><ele>97.0</ele><time>2026-04-04T13:50:52Z</time></trkpt><trkpt lat="42.267270971320706" lon="14.010210210776977"><ele>97.0</ele><time>2026-04-04T13:50:53Z</time></trkpt><trkpt lat="42.26726650271974" lon="14.010331812660802"><ele>97.0</ele><time>2026-04-04T13:50:54Z</time></trkpt><trkpt lat="42.26728698184587" lon="14.010450963053751"><ele>97.0</ele><time>2026-04-04T13:50:55Z</time></trkpt><trkpt lat="42.26734700209792" lon="14.010534419441825"><ele>97.0</ele><time>2026-04-04T13:50:56Z</time></trkpt><trkpt lat="42.267440009974614" lon="14.010617783048325"><ele>97.0</ele><time>2026-04-04T13:50:57Z</time></trkpt><trkpt lat="42.26754439272993" lon="14.010716392375148"><ele>97.0</ele><time>2026-04-04T13:50:58Z</time></trkpt><trkpt lat="42.26761374916261" lon="14.010868144670843"><ele>97.0</ele><time>2026-04-04T13:50:59Z</time></trkpt><trkpt lat="42.26770131208751" lon="14.011021967075397"><ele>97.0</ele><time>2026-04-04T13:51:00Z</time></trkpt><trkpt lat="42.267776257762385" lon="14.011205149894145"><ele>97.0</ele><time>2026-04-04T13:51:01Z</time></trkpt><trkpt lat="42.26786500557482" lon="14.011402123894761"><ele>97.0</ele><time>2026-04-04T13:51:02Z</time></trkpt><trkpt lat="42.26796439386139" lon="14.011612635502718"><ele>97.0</ele><time>2026-04-04T13:51:03Z</time></trkpt><trkpt lat="42.26804773825972" lon="14.011839787626108"><ele>97.0</ele><time>2026-04-04T13:51:04Z</time></trkpt><trkpt lat="42.268145087554956" lon="14.012058589222327"><ele>94.33333333333334</ele><time>2026-04-04T13:51:05Z</time></trkpt><trkpt lat="42.268262122456186" lon="14.012278155877633"><ele>91.66666666666667</ele><time>2026-04-04T13:51:06Z</time></trkpt><trkpt lat="42.268366589465835" lon="14.012515771466678"><ele>89.0</ele><time>2026-04-04T13:51:07Z</time></trkpt><trkpt lat="42.26846559854968" lon="14.01274231392855"><ele>89.0</ele><time>2026-04-04T13:51:08Z</time></trkpt><trkpt lat="42.268545872236395" lon="14.012967845343635"><ele>89.0</ele><time>2026-04-04T13:51:08.999Z</time></trkpt><trkpt lat="42.26863512137314" lon="14.01317443578591"><ele>89.0</ele><time>2026-04-04T13:51:09.999Z</time></trkpt><trkpt lat="42.26872103215228" lon="14.01337329884037"><ele>88.66666666666667</ele><time>2026-04-04T13:51:10.999Z</time></trkpt><trkpt lat="42.268804121366095" lon="14.013565630531357"><ele>88.33333333333333</ele><time>2026-04-04T13:51:11.999Z</time></trkpt><trkpt lat="42.26888725229822" lon="14.013758058794316"><ele>88.0</ele><time>2026-04-04T13:51:12.999Z</time></trkpt><trkpt lat="42.268983035160225" lon="14.013930936478797"><ele>87.5</ele><time>2026-04-04T13:51:13.999Z</time></trkpt><trkpt lat="42.269061521980596" lon="14.014099715373112"><ele>87.0</ele><time>2026-04-04T13:51:14.999Z</time></trkpt><trkpt lat="42.269141178761" lon="14.01424115037464"><ele>86.5</ele><time>2026-04-04T13:51:15.999Z</time></trkpt><trkpt lat="42.26922534805134" lon="14.014354828592904"><ele>86.0</ele><time>2026-04-04T13:51:16.999Z</time></trkpt><trkpt lat="42.269299313576745" lon="14.01444987979974"><ele>86.0</ele><time>2026-04-04T13:51:17.999Z</time></trkpt><trkpt lat="42.26935162651928" lon="14.014565981210605"><ele>86.0</ele><time>2026-04-04T13:51:18.999Z</time></trkpt><trkpt lat="42.269385765652075" lon="14.014692410727523"><ele>86.0</ele><time>2026-04-04T13:51:19.999Z</time></trkpt><trkpt lat="42.269427793342274" lon="14.014805854553188"><ele>86.0</ele><time>2026-04-04T13:51:20.999Z</time></trkpt><trkpt lat="42.26948708513985" lon="14.014870775223946"><ele>86.0</ele><time>2026-04-04T13:51:21.999Z</time></trkpt><trkpt lat="42.26955591435636" lon="14.014889912860086"><ele>86.0</ele><time>2026-04-04T13:51:22.999Z</time></trkpt><trkpt lat="42.26962844329169" lon="14.01486781243845"><ele>86.0</ele><time>2026-04-04T13:51:23.999Z</time></trkpt><trkpt lat="42.269698250823396" lon="14.01480728908641"><ele>86.0</ele><time>2026-04-04T13:51:24.999Z</time></trkpt><trkpt lat="42.26975335373462" lon="14.01471190739673"><ele>86.0</ele><time>2026-04-04T13:51:25.999Z</time></trkpt><trkpt lat="42.269773972523645" lon="14.014594332488278"><ele>86.0</ele><time>2026-04-04T13:51:26.999Z</time></trkpt><trkpt lat="42.26979812115275" lon="14.014449779921279"><ele>86.0</ele><time>2026-04-04T13:51:27.998Z</time></trkpt><trkpt lat="42.269867380580216" lon="14.01430119797751"><ele>86.0</ele><time>2026-04-04T13:51:28.998Z</time></trkpt><trkpt lat="42.26997497329682" lon="14.014164764563803"><ele>86.0</ele><time>2026-04-04T13:51:29.998Z</time></trkpt><trkpt lat="42.27008490422391" lon="14.014023821071017"><ele>86.0</ele><time>2026-04-04T13:51:30.998Z</time></trkpt><trkpt lat="42.2701976293043" lon="14.013865459796946"><ele>85.66666666666667</ele><time>2026-04-04T13:51:31.998Z</time></trkpt><trkpt lat="42.27032856224802" lon="14.013689413933614"><ele>85.33333333333333</ele><time>2026-04-04T13:51:32.998Z</time></trkpt><trkpt lat="42.27045887224618" lon="14.01351322457491"><ele>85.0</ele><time>2026-04-04T13:51:33.998Z</time></trkpt><trkpt lat="42.27058246251309" lon="14.013348815494119"><ele>86.0</ele><time>2026-04-04T13:51:34.998Z</time></trkpt><trkpt lat="42.27069300605968" lon="14.013201140726412"><ele>87.0</ele><time>2026-04-04T13:51:35.998Z</time></trkpt><trkpt lat="42.27080104475474" lon="14.013056083125093"><ele>88.0</ele><time>2026-04-04T13:51:36.998Z</time></trkpt><trkpt lat="42.27090664561607" lon="14.012908389039085"><ele>88.0</ele><time>2026-04-04T13:51:37.998Z</time></trkpt><trkpt lat="42.27101510563347" lon="14.012763603928157"><ele>88.0</ele><time>2026-04-04T13:51:38.998Z</time></trkpt><trkpt lat="42.27112713522749" lon="14.012624147389818"><ele>88.0</ele><time>2026-04-04T13:51:39.998Z</time></trkpt><trkpt lat="42.2712377330737" lon="14.012484823599287"><ele>88.0</ele><time>2026-04-04T13:51:40.998Z</time></trkpt><trkpt lat="42.27134924268897" lon="14.012335356059861"><ele>88.0</ele><time>2026-04-04T13:51:41.998Z</time></trkpt><trkpt lat="42.27145172399122" lon="14.012191698420272"><ele>88.0</ele><time>2026-04-04T13:51:42.998Z</time></trkpt><trkpt lat="42.27155026609235" lon="14.01205559343028"><ele>88.0</ele><time>2026-04-04T13:51:43.998Z</time></trkpt><trkpt lat="42.27164626784599" lon="14.011932482595876"><ele>89.75</ele><time>2026-04-04T13:51:44.998Z</time></trkpt><trkpt lat="42.271744941984515" lon="14.011803015417598"><ele>91.5</ele><time>2026-04-04T13:51:45.998Z</time></trkpt><trkpt lat="42.27184179021111" lon="14.011681489371998"><ele>93.25</ele><time>2026-04-04T13:51:46.998Z</time></trkpt><trkpt lat="42.27193729451741" lon="14.011560634966292"><ele>95.0</ele><time>2026-04-04T13:51:47.998Z</time></trkpt><trkpt lat="42.272038629212936" lon="14.011419199016773"><ele>95.25</ele><time>2026-04-04T13:51:48.998Z</time></trkpt><trkpt lat="42.272144670786204" lon="14.011267002640253"><ele>95.5</ele><time>2026-04-04T13:51:49.998Z</time></trkpt><trkpt lat="42.27224650401485" lon="14.011134443167336"><ele>95.75</ele><time>2026-04-04T13:51:50.998Z</time></trkpt><trkpt lat="42.27234499784598" lon="14.011012576220546"><ele>96.0</ele><time>2026-04-04T13:51:51.998Z</time></trkpt><trkpt lat="42.27243002077659" lon="14.010903685405562"><ele>97.0</ele><time>2026-04-04T13:51:52.998Z</time></trkpt><trkpt lat="42.27251593454825" lon="14.01079757501742"><ele>98.0</ele><time>2026-04-04T13:51:53.998Z</time></trkpt><trkpt lat="42.27260610209439" lon="14.010684688688706"><ele>99.0</ele><time>2026-04-04T13:51:54.998Z</time></trkpt><trkpt lat="42.272706213607286" lon="14.010572903922471"><ele>100.0</ele><time>2026-04-04T13:51:55.999Z</time></trkpt><trkpt lat="42.27280597318407" lon="14.010465837988315"><ele>100.0</ele><time>2026-04-04T13:51:56.999Z</time></trkpt><trkpt lat="42.272914703896355" lon="14.010362449016398"><ele>100.0</ele><time>2026-04-04T13:51:57.999Z</time></trkpt><trkpt lat="42.27302652805844" lon="14.010288841704195"><ele>100.0</ele><time>2026-04-04T13:51:58.999Z</time></trkpt><trkpt lat="42.273149246401005" lon="14.010247392956932"><ele>100.0</ele><time>2026-04-04T13:51:59.999Z</time></trkpt><trkpt lat="42.27327177026725" lon="14.010209839308237"><ele>99.75</ele><time>2026-04-04T13:52:00.999Z</time></trkpt><trkpt lat="42.273388713566256" lon="14.010197465934944"><ele>99.5</ele><time>2026-04-04T13:52:01.999Z</time></trkpt><trkpt lat="42.27352709359073" lon="14.010218428340524"><ele>99.25</ele><time>2026-04-04T13:52:02.999Z</time></trkpt><trkpt lat="42.273655224959114" lon="14.010270339779998"><ele>99.0</ele><time>2026-04-04T13:52:03.999Z</time></trkpt><trkpt lat="42.27377369186336" lon="14.010346152062116"><ele>99.0</ele><time>2026-04-04T13:52:04.999Z</time></trkpt><trkpt lat="42.27388344032404" lon="14.010433403694172"><ele>99.0</ele><time>2026-04-04T13:52:05.999Z</time></trkpt><trkpt lat="42.27396662031616" lon="14.010549323558799"><ele>99.0</ele><time>2026-04-04T13:52:06.999Z</time></trkpt><trkpt lat="42.2740386018111" lon="14.010662302959677"><ele>99.0</ele><time>2026-04-04T13:52:07.999Z</time></trkpt><trkpt lat="42.27409307581978" lon="14.010765244640888"><ele>98.66666666666667</ele><time>2026-04-04T13:52:08.999Z</time></trkpt><trkpt lat="42.274134412304186" lon="14.010841295895297"><ele>98.33333333333334</ele><time>2026-04-04T13:52:09.999Z</time></trkpt><trkpt lat="42.274182551173055" lon="14.010909566293593"><ele>98.0</ele><time>2026-04-04T13:52:10.999Z</time></trkpt><trkpt lat="42.27419572073995" lon="14.011019102134428"><ele>97.66666666666667</ele><time>2026-04-04T13:52:11.999Z</time></trkpt><trkpt lat="42.27420977689054" lon="14.01111308680822"><ele>97.33333333333334</ele><time>2026-04-04T13:52:12.999Z</time></trkpt><trkpt lat="42.27412704958293" lon="14.0112203198877"><ele>97.0</ele><time>2026-04-04T13:52:13.999Z</time></trkpt><trkpt lat="42.27411575215545" lon="14.011323597784038"><ele>97.0</ele><time>2026-04-04T13:52:14.999Z</time></trkpt><trkpt lat="42.274130893001775" lon="14.011463850554211"><ele>97.0</ele><time>2026-04-04T13:52:15.999Z</time></trkpt><trkpt lat="42.274208644443476" lon="14.01158425336792"><ele>97.0</ele><time>2026-04-04T13:52:16.999Z</time></trkpt><trkpt lat="42.274305819067244" lon="14.011646452232013"><ele>97.0</ele><time>2026-04-04T13:52:17.999Z</time></trkpt><trkpt lat="42.2742952770896" lon="14.011812332162243"><ele>96.66666666666667</ele><time>2026-04-04T13:52:18.999Z</time></trkpt><trkpt lat="42.27450429632279" lon="14.01181246820387"><ele>96.33333333333334</ele><time>2026-04-04T13:52:19.999Z</time></trkpt><trkpt lat="42.27459137382627" lon="14.01196186174523"><ele>96.0</ele><time>2026-04-04T13:52:20.999Z</time></trkpt><trkpt lat="42.27465689335313" lon="14.01211077426671"><ele>96.0</ele><time>2026-04-04T13:52:21.999Z</time></trkpt><trkpt lat="42.274719096149276" lon="14.012241233234823"><ele>96.0</ele><time>2026-04-04T13:52:22.999Z</time></trkpt><trkpt lat="42.27479546592668" lon="14.012364041389898"><ele>96.0</ele><time>2026-04-04T13:52:23.999Z</time></trkpt><trkpt lat="42.27488317003643" lon="14.012480325824725"><ele>96.0</ele><time>2026-04-04T13:52:24.999Z</time></trkpt><trkpt lat="42.27497413697834" lon="14.01258389626884"><ele>96.0</ele><time>2026-04-04T13:52:25.999Z</time></trkpt><trkpt lat="42.27507391595008" lon="14.012681023515807"><ele>96.0</ele><time>2026-04-04T13:52:26.999Z</time></trkpt><trkpt lat="42.27518831969192" lon="14.012773572369245"><ele>96.0</ele><time>2026-04-04T13:52:27.999Z</time></trkpt><trkpt lat="42.27531863239231" lon="14.0128553451488"><ele>96.0</ele><time>2026-04-04T13:52:28.999Z</time></trkpt><trkpt lat="42.27545385799208" lon="14.01291192975242"><ele>96.0</ele><time>2026-04-04T13:52:29.999Z</time></trkpt><trkpt lat="42.27557784426543" lon="14.01294947733052"><ele>96.0</ele><time>2026-04-04T13:52:30.999Z</time></trkpt><trkpt lat="42.275691809418404" lon="14.012967328055371"><ele>96.0</ele><time>2026-04-04T13:52:31.999Z</time></trkpt><trkpt lat="42.275818003175495" lon="14.012980048939742"><ele>96.0</ele><time>2026-04-04T13:52:32.999Z</time></trkpt><trkpt lat="42.27595741895019" lon="14.012961957457465"><ele>96.0</ele><time>2026-04-04T13:52:33.999Z</time></trkpt><trkpt lat="42.27609728157291" lon="14.012933909766286"><ele>96.0</ele><time>2026-04-04T13:52:34.999Z</time></trkpt><trkpt lat="42.276228816664585" lon="14.012896344822337"><ele>96.0</ele><time>2026-04-04T13:52:35.999Z</time></trkpt><trkpt lat="42.27635181339471" lon="14.012839594363733"><ele>96.0</ele><time>2026-04-04T13:52:36.999Z</time></trkpt><trkpt lat="42.27646450366301" lon="14.012781302290747"><ele>96.0</ele><time>2026-04-04T13:52:37.999Z</time></trkpt><trkpt lat="42.276576871991665" lon="14.012729325281546"><ele>96.0</ele><time>2026-04-04T13:52:38.999Z</time></trkpt><trkpt lat="42.27668974904323" lon="14.012677653750222"><ele>96.0</ele><time>2026-04-04T13:52:39.999Z</time></trkpt><trkpt lat="42.276799674813844" lon="14.01262922895301"><ele>96.0</ele><time>2026-04-04T13:52:40.999Z</time></trkpt><trkpt lat="42.27689368879565" lon="14.012581286624524"><ele>96.0</ele><time>2026-04-04T13:52:41.999Z</time></trkpt><trkpt lat="42.27698724174782" lon="14.012531536979418"><ele>96.0</ele><time>2026-04-04T13:52:42.999Z</time></trkpt><trkpt lat="42.27707846621477" lon="14.012473572568933"><ele>96.0</ele><time>2026-04-04T13:52:43.999Z</time></trkpt><trkpt lat="42.277164647780126" lon="14.012427294868568"><ele>96.0</ele><time>2026-04-04T13:52:44.999Z</time></trkpt><trkpt lat="42.277257849730866" lon="14.012392106714875"><ele>96.0</ele><time>2026-04-04T13:52:45.999Z</time></trkpt><trkpt lat="42.277356995322926" lon="14.01237261392892"><ele>96.0</ele><time>2026-04-04T13:52:46.999Z</time></trkpt><trkpt lat="42.27746135271929" lon="14.012376642323138"><ele>96.0</ele><time>2026-04-04T13:52:47.999Z</time></trkpt><trkpt lat="42.27756231331979" lon="14.01240237940027"><ele>96.0</ele><time>2026-04-04T13:52:48.999Z</time></trkpt><trkpt lat="42.27768183342546" lon="14.012422531699265"><ele>96.0</ele><time>2026-04-04T13:52:49.999Z</time></trkpt><trkpt lat="42.277784574943524" lon="14.012541067765266"><ele>96.0</ele><time>2026-04-04T13:52:50.999Z</time></trkpt><trkpt lat="42.277900825722554" lon="14.012642375380445"><ele>96.0</ele><time>2026-04-04T13:52:51.999Z</time></trkpt><trkpt lat="42.27800463375624" lon="14.01275988612246"><ele>96.0</ele><time>2026-04-04T13:52:52.999Z</time></trkpt><trkpt lat="42.278105610093704" lon="14.012855403171976"><ele>96.0</ele><time>2026-04-04T13:52:53.999Z</time></trkpt><trkpt lat="42.2781985113777" lon="14.012943143723492"><ele>96.4</ele><time>2026-04-04T13:52:54.999Z</time></trkpt><trkpt lat="42.278297124625766" lon="14.013012756806596"><ele>96.8</ele><time>2026-04-04T13:52:55.999Z</time></trkpt><trkpt lat="42.27838597034912" lon="14.013099116682532"><ele>97.2</ele><time>2026-04-04T13:52:56.999Z</time></trkpt><trkpt lat="42.27847420950681" lon="14.013188410498424"><ele>97.60000000000001</ele><time>2026-04-04T13:52:57.999Z</time></trkpt><trkpt lat="42.27856519963989" lon="14.013271665221055"><ele>98.0</ele><time>2026-04-04T13:52:58.999Z</time></trkpt><trkpt lat="42.27865239846409" lon="14.013350743120126"><ele>97.2</ele><time>2026-04-04T13:52:59.999Z</time></trkpt><trkpt lat="42.27873552888252" lon="14.013437829139681"><ele>96.4</ele><time>2026-04-04T13:53:00.999Z</time></trkpt><trkpt lat="42.27882864112118" lon="14.013516073635195"><ele>95.60000000000001</ele><time>2026-04-04T13:53:01.999Z</time></trkpt><trkpt lat="42.2789202865336" lon="14.013605041238677"><ele>94.80000000000001</ele><time>2026-04-04T13:53:02.999Z</time></trkpt><trkpt lat="42.2790133587276" lon="14.013695261173147"><ele>94.0</ele><time>2026-04-04T13:53:03.999Z</time></trkpt><trkpt lat="42.27910984618131" lon="14.013791440104075"><ele>94.0</ele><time>2026-04-04T13:53:04.999Z</time></trkpt><trkpt lat="42.27920754719621" lon="14.013878272781316"><ele>94.0</ele><time>2026-04-04T13:53:05.999Z</time></trkpt><trkpt lat="42.27930860591503" lon="14.013966176247804"><ele>94.0</ele><time>2026-04-04T13:53:06.999Z</time></trkpt><trkpt lat="42.27940901339883" lon="14.01406099934288"><ele>94.0</ele><time>2026-04-04T13:53:07.999Z</time></trkpt><trkpt lat="42.27950685569374" lon="14.014163445328386"><ele>93.75</ele><time>2026-04-04T13:53:08.999Z</time></trkpt><trkpt lat="42.27960595478599" lon="14.014261234652"><ele>93.5</ele><time>2026-04-04T13:53:09.999Z</time></trkpt><trkpt lat="42.27970802225217" lon="14.014351434300357"><ele>93.25</ele><time>2026-04-04T13:53:10.999Z</time></trkpt><trkpt lat="42.27980560507356" lon="14.014439534903776"><ele>93.0</ele><time>2026-04-04T13:53:11.999Z</time></trkpt><trkpt lat="42.27990133336916" lon="14.014532335747008"><ele>92.75</ele><time>2026-04-04T13:53:12.999Z</time></trkpt><trkpt lat="42.28000063768784" lon="14.014627734378761"><ele>92.5</ele><time>2026-04-04T13:53:13.999Z</time></trkpt><trkpt lat="42.28009638595719" lon="14.01472100408157"><ele>92.25</ele><time>2026-04-04T13:53:14.999Z</time></trkpt><trkpt lat="42.28018814839378" lon="14.014807686935702"><ele>92.0</ele><time>2026-04-04T13:53:15.999Z</time></trkpt><trkpt lat="42.28027799847792" lon="14.014891548314349"><ele>92.0</ele><time>2026-04-04T13:53:16.999Z</time></trkpt><trkpt lat="42.28035610952494" lon="14.014971315332573"><ele>92.0</ele><time>2026-04-04T13:53:17.999Z</time></trkpt><trkpt lat="42.280433326009636" lon="14.015045500256377"><ele>92.0</ele><time>2026-04-04T13:53:18.999Z</time></trkpt><trkpt lat="42.28051420674594" lon="14.015122180809731"><ele>92.0</ele><time>2026-04-04T13:53:19.999Z</time></trkpt><trkpt lat="42.28060219859741" lon="14.01519687409799"><ele>92.0</ele><time>2026-04-04T13:53:20.999Z</time></trkpt><trkpt lat="42.280698458983615" lon="14.015239946692011"><ele>92.0</ele><time>2026-04-04T13:53:21.999Z</time></trkpt><trkpt lat="42.28080314373786" lon="14.015255560605718"><ele>92.0</ele><time>2026-04-04T13:53:22.999Z</time></trkpt><trkpt lat="42.280902570735186" lon="14.015236173255998"><ele>92.0</ele><time>2026-04-04T13:53:23.999Z</time></trkpt><trkpt lat="42.28099368767919" lon="14.015193683029588"><ele>92.0</ele><time>2026-04-04T13:53:24.999Z</time></trkpt><trkpt lat="42.28108166968396" lon="14.015138641857984"><ele>92.0</ele><time>2026-04-04T13:53:25.999Z</time></trkpt><trkpt lat="42.281158886037815" lon="14.015075245630555"><ele>92.0</ele><time>2026-04-04T13:53:26.999Z</time></trkpt><trkpt lat="42.28123039738913" lon="14.015017781291684"><ele>92.0</ele><time>2026-04-04T13:53:27.998Z</time></trkpt><trkpt lat="42.28130426357462" lon="14.014966621877681"><ele>92.0</ele><time>2026-04-04T13:53:28.998Z</time></trkpt><trkpt lat="42.281371085519375" lon="14.01491652730597"><ele>92.0</ele><time>2026-04-04T13:53:29.998Z</time></trkpt><trkpt lat="42.281434497481285" lon="14.014870067242013"><ele>92.0</ele><time>2026-04-04T13:53:30.998Z</time></trkpt><trkpt lat="42.281501967448364" lon="14.014819755302677"><ele>92.0</ele><time>2026-04-04T13:53:31.998Z</time></trkpt><trkpt lat="42.28158198947703" lon="14.014763019958897"><ele>92.0</ele><time>2026-04-04T13:53:32.998Z</time></trkpt><trkpt lat="42.28167557250804" lon="14.014691805957266"><ele>92.0</ele><time>2026-04-04T13:53:33.998Z</time></trkpt><trkpt lat="42.28177337035396" lon="14.014623226935763"><ele>92.0</ele><time>2026-04-04T13:53:34.998Z</time></trkpt><trkpt lat="42.281862188621645" lon="14.014555971772374"><ele>92.0</ele><time>2026-04-04T13:53:35.998Z</time></trkpt><trkpt lat="42.28194351294667" lon="14.014489871725658"><ele>92.0</ele><time>2026-04-04T13:53:36.998Z</time></trkpt><trkpt lat="42.28202645497375" lon="14.014432204161205"><ele>92.0</ele><time>2026-04-04T13:53:37.998Z</time></trkpt><trkpt lat="42.28210671551795" lon="14.014385698726409"><ele>92.0</ele><time>2026-04-04T13:53:38.998Z</time></trkpt><trkpt lat="42.28218431618001" lon="14.014336841554018"><ele>92.0</ele><time>2026-04-04T13:53:39.998Z</time></trkpt><trkpt lat="42.282269072239195" lon="14.014276790368216"><ele>92.0</ele><time>2026-04-04T13:53:40.998Z</time></trkpt><trkpt lat="42.282356933505554" lon="14.014211414582837"><ele>92.0</ele><time>2026-04-04T13:53:41.998Z</time></trkpt><trkpt lat="42.28244657193208" lon="14.014141895857467"><ele>91.75</ele><time>2026-04-04T13:53:42.998Z</time></trkpt><trkpt lat="42.28254615633669" lon="14.014072910782602"><ele>91.5</ele><time>2026-04-04T13:53:43.998Z</time></trkpt><trkpt lat="42.28264879581902" lon="14.013999485002069"><ele>91.25</ele><time>2026-04-04T13:53:44.998Z</time></trkpt><trkpt lat="42.28275585554727" lon="14.013920876974273"><ele>91.0</ele><time>2026-04-04T13:53:45.998Z</time></trkpt><trkpt lat="42.282853164214764" lon="14.013848645072022"><ele>91.0</ele><time>2026-04-04T13:53:46.998Z</time></trkpt><trkpt lat="42.28294200950577" lon="14.013780295342501"><ele>91.0</ele><time>2026-04-04T13:53:47.998Z</time></trkpt><trkpt lat="42.28302816328519" lon="14.01371360203518"><ele>91.0</ele><time>2026-04-04T13:53:48.998Z</time></trkpt><trkpt lat="42.28311988589883" lon="14.01364814361237"><ele>91.0</ele><time>2026-04-04T13:53:49.998Z</time></trkpt><trkpt lat="42.28321685975312" lon="14.013583261741847"><ele>91.0</ele><time>2026-04-04T13:53:50.998Z</time></trkpt><trkpt lat="42.283309896085555" lon="14.013521420743308"><ele>91.16666666666666</ele><time>2026-04-04T13:53:51.998Z</time></trkpt><trkpt lat="42.28339365895069" lon="14.013462109244772"><ele>91.33333333333333</ele><time>2026-04-04T13:53:52.998Z</time></trkpt><trkpt lat="42.28346904328672" lon="14.013402756819058"><ele>91.5</ele><time>2026-04-04T13:53:53.998Z</time></trkpt><trkpt lat="42.283539444408014" lon="14.013350254429502"><ele>91.66666666666667</ele><time>2026-04-04T13:53:54.998Z</time></trkpt><trkpt lat="42.283601450168604" lon="14.013310027379266"><ele>91.83333333333334</ele><time>2026-04-04T13:53:55.998Z</time></trkpt><trkpt lat="42.283679193099864" lon="14.013259033887289"><ele>92.0</ele><time>2026-04-04T13:53:56.998Z</time></trkpt><trkpt lat="42.2837654129775" lon="14.013188983879868"><ele>92.0</ele><time>2026-04-04T13:53:57.998Z</time></trkpt><trkpt lat="42.28384308490859" lon="14.013132423975357"><ele>92.0</ele><time>2026-04-04T13:53:58.998Z</time></trkpt><trkpt lat="42.28390741505905" lon="14.013085185160724"><ele>92.0</ele><time>2026-04-04T13:53:59.998Z</time></trkpt><trkpt lat="42.28398715786156" lon="14.013029453862249"><ele>92.0</ele><time>2026-04-04T13:54:00.998Z</time></trkpt><trkpt lat="42.284076349955896" lon="14.012967247733208"><ele>92.0</ele><time>2026-04-04T13:54:01.999Z</time></trkpt><trkpt lat="42.28416757264352" lon="14.012896557642602"><ele>92.0</ele><time>2026-04-04T13:54:02.999Z</time></trkpt><trkpt lat="42.28424967979252" lon="14.012825909122798"><ele>92.0</ele><time>2026-04-04T13:54:03.999Z</time></trkpt><trkpt lat="42.284322553182434" lon="14.012757347159585"><ele>92.0</ele><time>2026-04-04T13:54:04.999Z</time></trkpt><trkpt lat="42.28436976097777" lon="14.012695430793418"><ele>92.0</ele><time>2026-04-04T13:54:05.999Z</time></trkpt><trkpt lat="42.28441718318286" lon="14.012615413928755"><ele>92.0</ele><time>2026-04-04T13:54:07.999Z</time></trkpt><trkpt lat="42.28451310938327" lon="14.012546929317013"><ele>92.0</ele><time>2026-04-04T13:54:09.999Z</time></trkpt><trkpt lat="42.28458604679794" lon="14.012536963332591"><ele>92.0</ele><time>2026-04-04T13:54:10.999Z</time></trkpt><trkpt lat="42.28465914973389" lon="14.012528752526173"><ele>92.0</ele><time>2026-04-04T13:54:11.999Z</time></trkpt><trkpt lat="42.28471218098546" lon="14.012667126915561"><ele>92.0</ele><time>2026-04-04T13:54:12.999Z</time></trkpt><trkpt lat="42.284781173615684" lon="14.012733942601624"><ele>92.0</ele><time>2026-04-04T13:54:13.999Z</time></trkpt><trkpt lat="42.28484242956042" lon="14.012814365115839"><ele>92.0</ele><time>2026-04-04T13:54:14.999Z</time></trkpt><trkpt lat="42.284908465235006" lon="14.012877535126968"><ele>92.0</ele><time>2026-04-04T13:54:15.999Z</time></trkpt><trkpt lat="42.28498164219743" lon="14.012934995278629"><ele>91.39999999999999</ele><time>2026-04-04T13:54:16.999Z</time></trkpt><trkpt lat="42.28505577267225" lon="14.012982771782234"><ele>90.8</ele><time>2026-04-04T13:54:17.999Z</time></trkpt><trkpt lat="42.285126678741726" lon="14.01303294301653"><ele>90.2</ele><time>2026-04-04T13:54:18.999Z</time></trkpt><trkpt lat="42.285193705308835" lon="14.0130989892974"><ele>89.6</ele><time>2026-04-04T13:54:19.999Z</time></trkpt><trkpt lat="42.285270990073876" lon="14.013197930914485"><ele>89.0</ele><time>2026-04-04T13:54:20.999Z</time></trkpt><trkpt lat="42.28532643762035" lon="14.013317266053447"><ele>89.0</ele><time>2026-04-04T13:54:21.999Z</time></trkpt><trkpt lat="42.285365400717254" lon="14.013471047104272"><ele>89.0</ele><time>2026-04-04T13:54:22.999Z</time></trkpt><trkpt lat="42.28534994538873" lon="14.013647542516132"><ele>89.0</ele><time>2026-04-04T13:54:23.999Z</time></trkpt><trkpt lat="42.28534870782173" lon="14.01381029942665"><ele>89.0</ele><time>2026-04-04T13:54:24.999Z</time></trkpt><trkpt lat="42.28535102005629" lon="14.01395905168203"><ele>89.0</ele><time>2026-04-04T13:54:25.999Z</time></trkpt><trkpt lat="42.285351981810706" lon="14.014104515369116"><ele>89.0</ele><time>2026-04-04T13:54:26.999Z</time></trkpt><trkpt lat="42.28535822968433" lon="14.014246618878843"><ele>89.0</ele><time>2026-04-04T13:54:27.999Z</time></trkpt><trkpt lat="42.28536270317676" lon="14.014384342374479"><ele>89.0</ele><time>2026-04-04T13:54:28.999Z</time></trkpt><trkpt lat="42.285357863225244" lon="14.014521126630077"><ele>89.0</ele><time>2026-04-04T13:54:29.999Z</time></trkpt><trkpt lat="42.2853987148747" lon="14.014654192545928"><ele>88.6</ele><time>2026-04-04T13:54:30.999Z</time></trkpt><trkpt lat="42.28542058941045" lon="14.014784411241804"><ele>88.2</ele><time>2026-04-04T13:54:31.999Z</time></trkpt><trkpt lat="42.28544452596724" lon="14.014916907714543"><ele>87.8</ele><time>2026-04-04T13:54:32.999Z</time></trkpt><trkpt lat="42.28546162185921" lon="14.01504683775448"><ele>87.39999999999999</ele><time>2026-04-04T13:54:33.999Z</time></trkpt><trkpt lat="42.285475699650135" lon="14.0151675772089"><ele>87.0</ele><time>2026-04-04T13:54:34.999Z</time></trkpt><trkpt lat="42.2854963392598" lon="14.015288489248505"><ele>86.6</ele><time>2026-04-04T13:54:35.999Z</time></trkpt><trkpt lat="42.28551974622648" lon="14.015409941766885"><ele>86.19999999999999</ele><time>2026-04-04T13:54:36.999Z</time></trkpt><trkpt lat="42.28553684729501" lon="14.015527876908328"><ele>85.8</ele><time>2026-04-04T13:54:37.999Z</time></trkpt><trkpt lat="42.28555492950736" lon="14.01565008503908"><ele>85.4</ele><time>2026-04-04T13:54:38.999Z</time></trkpt><trkpt lat="42.2855734284755" lon="14.015771871398128"><ele>85.0</ele><time>2026-04-04T13:54:39.999Z</time></trkpt><trkpt lat="42.28559347691061" lon="14.015892421825022"><ele>84.4</ele><time>2026-04-04T13:54:40.999Z</time></trkpt><trkpt lat="42.28561812371184" lon="14.01601794363065"><ele>83.8</ele><time>2026-04-04T13:54:41.999Z</time></trkpt><trkpt lat="42.285640444297385" lon="14.016141509772375"><ele>83.19999999999999</ele><time>2026-04-04T13:54:42.999Z</time></trkpt><trkpt lat="42.2856597369008" lon="14.016260382117348"><ele>82.6</ele><time>2026-04-04T13:54:43.999Z</time></trkpt><trkpt lat="42.28568355951043" lon="14.016382240787678"><ele>82.0</ele><time>2026-04-04T13:54:44.999Z</time></trkpt><trkpt lat="42.28572720104728" lon="14.016522574682849"><ele>82.25</ele><time>2026-04-04T13:54:45.999Z</time></trkpt><trkpt lat="42.28578055418981" lon="14.016679594115027"><ele>82.5</ele><time>2026-04-04T13:54:46.999Z</time></trkpt><trkpt lat="42.28583139263325" lon="14.016832811418283"><ele>82.75</ele><time>2026-04-04T13:54:47.999Z</time></trkpt><trkpt lat="42.285881960737925" lon="14.016978774574444"><ele>83.0</ele><time>2026-04-04T13:54:48.999Z</time></trkpt><trkpt lat="42.28593239918283" lon="14.01712066793671"><ele>83.0</ele><time>2026-04-04T13:54:49.999Z</time></trkpt><trkpt lat="42.28598355340421" lon="14.017255717567563"><ele>83.0</ele><time>2026-04-04T13:54:50.999Z</time></trkpt><trkpt lat="42.286020100961835" lon="14.017406305143489"><ele>83.0</ele><time>2026-04-04T13:54:51.999Z</time></trkpt><trkpt lat="42.286084625224646" lon="14.017584483232831"><ele>83.0</ele><time>2026-04-04T13:54:52.999Z</time></trkpt><trkpt lat="42.28615231666987" lon="14.017772875131888"><ele>82.80000000000001</ele><time>2026-04-04T13:54:53.999Z</time></trkpt><trkpt lat="42.28619613427636" lon="14.017897289910238"><ele>82.6</ele><time>2026-04-04T13:54:55.999Z</time></trkpt><trkpt lat="42.28623877047255" lon="14.018018350432309"><ele>82.4</ele><time>2026-04-04T13:54:56.999Z</time></trkpt><trkpt lat="42.286286552681396" lon="14.018154022359685"><ele>82.19999999999999</ele><time>2026-04-04T13:54:57.999Z</time></trkpt><trkpt lat="42.28632921199053" lon="14.018275148258214"><ele>82.0</ele><time>2026-04-04T13:54:58.999Z</time></trkpt><trkpt lat="42.28636791804142" lon="14.01838504972888"><ele>81.85714285714285</ele><time>2026-04-04T13:54:59.999Z</time></trkpt><trkpt lat="42.28640128856509" lon="14.018479801271605"><ele>81.71428571428571</ele><time>2026-04-04T13:55:00.999Z</time></trkpt><trkpt lat="42.28643534072753" lon="14.018576271810113"><ele>81.57142857142857</ele><time>2026-04-04T13:55:01.999Z</time></trkpt><trkpt lat="42.28646803491281" lon="14.018668163049174"><ele>81.42857142857142</ele><time>2026-04-04T13:55:02.999Z</time></trkpt><trkpt lat="42.28650975647932" lon="14.018749241353364"><ele>81.28571428571428</ele><time>2026-04-04T13:55:03.999Z</time></trkpt><trkpt lat="42.28653885632673" lon="14.018838321878532"><ele>81.14285714285714</ele><time>2026-04-04T13:55:04.999Z</time></trkpt><trkpt lat="42.2865751442109" lon="14.01891563121325"><ele>81.0</ele><time>2026-04-04T13:55:05.999Z</time></trkpt><trkpt lat="42.286636004252706" lon="14.01899747279054"><ele>80.8</ele><time>2026-04-04T13:55:06.999Z</time></trkpt><trkpt lat="42.28671131080878" lon="14.019048056744058"><ele>80.6</ele><time>2026-04-04T13:55:07.999Z</time></trkpt><trkpt lat="42.28680805934132" lon="14.01905780986303"><ele>80.4</ele><time>2026-04-04T13:55:08.999Z</time></trkpt><trkpt lat="42.28692204959605" lon="14.019065687878895"><ele>80.2</ele><time>2026-04-04T13:55:09.999Z</time></trkpt><trkpt lat="42.287041362959" lon="14.019095762899452"><ele>80.0</ele><time>2026-04-04T13:55:10.999Z</time></trkpt><trkpt lat="42.287142632880546" lon="14.019163356218778"><ele>80.0</ele><time>2026-04-04T13:55:11.999Z</time></trkpt><trkpt lat="42.28723777332915" lon="14.019246193251462"><ele>80.0</ele><time>2026-04-04T13:55:12.999Z</time></trkpt><trkpt lat="42.2873293586838" lon="14.019312525658298"><ele>80.0</ele><time>2026-04-04T13:55:13.999Z</time></trkpt><trkpt lat="42.287419068708694" lon="14.019380454409388"><ele>80.0</ele><time>2026-04-04T13:55:14.999Z</time></trkpt><trkpt lat="42.28751654560751" lon="14.019440331516106"><ele>80.0</ele><time>2026-04-04T13:55:15.999Z</time></trkpt><trkpt lat="42.28761277167552" lon="14.019490773915727"><ele>80.0</ele><time>2026-04-04T13:55:16.999Z</time></trkpt><trkpt lat="42.287705075920634" lon="14.019554077897867"><ele>80.0</ele><time>2026-04-04T13:55:17.999Z</time></trkpt><trkpt lat="42.28781066531178" lon="14.019564873246546"><ele>80.0</ele><time>2026-04-04T13:55:18.999Z</time></trkpt><trkpt lat="42.287916682617116" lon="14.019588614480293"><ele>80.0</ele><time>2026-04-04T13:55:19.999Z</time></trkpt><trkpt lat="42.288026648764834" lon="14.019609879695786"><ele>80.0</ele><time>2026-04-04T13:55:20.999Z</time></trkpt><trkpt lat="42.28814060720083" lon="14.0196358272037"><ele>80.25</ele><time>2026-04-04T13:55:21.999Z</time></trkpt><trkpt lat="42.28824610718538" lon="14.01970004893818"><ele>80.5</ele><time>2026-04-04T13:55:22.999Z</time></trkpt><trkpt lat="42.288357650256124" lon="14.01975929631398"><ele>80.75</ele><time>2026-04-04T13:55:23.999Z</time></trkpt><trkpt lat="42.28848239845085" lon="14.019816646181704"><ele>81.0</ele><time>2026-04-04T13:55:24.999Z</time></trkpt><trkpt lat="42.28859646390787" lon="14.019903980975052"><ele>81.0</ele><time>2026-04-04T13:55:25.999Z</time></trkpt><trkpt lat="42.28870349026528" lon="14.019980878296316"><ele>81.0</ele><time>2026-04-04T13:55:26.999Z</time></trkpt><trkpt lat="42.28880350169247" lon="14.020058131194139"><ele>81.0</ele><time>2026-04-04T13:55:27.999Z</time></trkpt><trkpt lat="42.288894618081684" lon="14.020139919828578"><ele>81.0</ele><time>2026-04-04T13:55:28.999Z</time></trkpt><trkpt lat="42.288988706712615" lon="14.020223586089097"><ele>80.5</ele><time>2026-04-04T13:55:29.999Z</time></trkpt><trkpt lat="42.28908969116455" lon="14.020319378307315"><ele>80.0</ele><time>2026-04-04T13:55:30.999Z</time></trkpt><trkpt lat="42.28918763128057" lon="14.020426069921339"><ele>79.5</ele><time>2026-04-04T13:55:31.999Z</time></trkpt><trkpt lat="42.2892820107252" lon="14.020544335137496"><ele>79.0</ele><time>2026-04-04T13:55:32.999Z</time></trkpt><trkpt lat="42.28937880802377" lon="14.020665247348681"><ele>79.0</ele><time>2026-04-04T13:55:33.999Z</time></trkpt><trkpt lat="42.28947676285014" lon="14.020785665383354"><ele>79.0</ele><time>2026-04-04T13:55:34.999Z</time></trkpt><trkpt lat="42.289577559162986" lon="14.020904852317974"><ele>79.0</ele><time>2026-04-04T13:55:35.999Z</time></trkpt><trkpt lat="42.289679248689794" lon="14.021026943265754"><ele>79.0</ele><time>2026-04-04T13:55:36.999Z</time></trkpt><trkpt lat="42.28978578587551" lon="14.021153195018584"><ele>79.0</ele><time>2026-04-04T13:55:37.999Z</time></trkpt><trkpt lat="42.289896996011876" lon="14.021274339045156"><ele>79.0</ele><time>2026-04-04T13:55:38.999Z</time></trkpt><trkpt lat="42.29001814325398" lon="14.021387406470861"><ele>79.0</ele><time>2026-04-04T13:55:39.999Z</time></trkpt><trkpt lat="42.290148122159174" lon="14.021494392937932"><ele>79.0</ele><time>2026-04-04T13:55:40.999Z</time></trkpt><trkpt lat="42.290285815614055" lon="14.021593474541179"><ele>78.66666666666666</ele><time>2026-04-04T13:55:41.999Z</time></trkpt><trkpt lat="42.29043323996195" lon="14.021689167413099"><ele>78.33333333333333</ele><time>2026-04-04T13:55:42.999Z</time></trkpt><trkpt lat="42.290585209485414" lon="14.021795895037286"><ele>78.0</ele><time>2026-04-04T13:55:43.999Z</time></trkpt><trkpt lat="42.290733292906765" lon="14.02190396290752"><ele>77.33333333333333</ele><time>2026-04-04T13:55:44.999Z</time></trkpt><trkpt lat="42.290884790939344" lon="14.022017469919072"><ele>76.66666666666666</ele><time>2026-04-04T13:55:45.999Z</time></trkpt><trkpt lat="42.29104157200263" lon="14.02213366819287"><ele>76.0</ele><time>2026-04-04T13:55:46.999Z</time></trkpt><trkpt lat="42.29120248034466" lon="14.022253533438105"><ele>76.0</ele><time>2026-04-04T13:55:47.999Z</time></trkpt><trkpt lat="42.29137234539036" lon="14.02237761942721"><ele>76.0</ele><time>2026-04-04T13:55:48.999Z</time></trkpt><trkpt lat="42.2915475138973" lon="14.02250616654402"><ele>76.0</ele><time>2026-04-04T13:55:49.999Z</time></trkpt><trkpt lat="42.29172101198616" lon="14.02263480304677"><ele>76.0</ele><time>2026-04-04T13:55:50.999Z</time></trkpt><trkpt lat="42.29188687972441" lon="14.022757635720277"><ele>76.0</ele><time>2026-04-04T13:55:51.999Z</time></trkpt><trkpt lat="42.29205989860769" lon="14.022904916688304"><ele>76.0</ele><time>2026-04-04T13:55:52.999Z</time></trkpt><trkpt lat="42.29224826238113" lon="14.023044339336083"><ele>76.66666666666666</ele><time>2026-04-04T13:55:53.999Z</time></trkpt><trkpt lat="42.29244471454789" lon="14.02318974883972"><ele>77.33333333333333</ele><time>2026-04-04T13:55:54.999Z</time></trkpt><trkpt lat="42.29263571500299" lon="14.023331123129728"><ele>78.0</ele><time>2026-04-04T13:55:55.999Z</time></trkpt><trkpt lat="42.29282644138134" lon="14.023472294545593"><ele>77.0</ele><time>2026-04-04T13:55:56.999Z</time></trkpt><trkpt lat="42.29300967459809" lon="14.023607919675621"><ele>76.0</ele><time>2026-04-04T13:55:57.999Z</time></trkpt><trkpt lat="42.293189815238684" lon="14.023717538897682"><ele>75.0</ele><time>2026-04-04T13:55:58.999Z</time></trkpt><trkpt lat="42.29336267155517" lon="14.023848152491839"><ele>75.0</ele><time>2026-04-04T13:55:59.999Z</time></trkpt><trkpt lat="42.2935238007019" lon="14.02398912679921"><ele>75.0</ele><time>2026-04-04T13:56:00.998Z</time></trkpt><trkpt lat="42.2936937014904" lon="14.0241164016443"><ele>75.0</ele><time>2026-04-04T13:56:01.998Z</time></trkpt><trkpt lat="42.29386839481259" lon="14.02424581386647"><ele>75.0</ele><time>2026-04-04T13:56:02.998Z</time></trkpt><trkpt lat="42.294050029989855" lon="14.024380969435775"><ele>75.0</ele><time>2026-04-04T13:56:03.998Z</time></trkpt><trkpt lat="42.29423976529529" lon="14.024522790141024"><ele>75.0</ele><time>2026-04-04T13:56:04.998Z</time></trkpt><trkpt lat="42.294438648879826" lon="14.024670741681135"><ele>75.0</ele><time>2026-04-04T13:56:05.998Z</time></trkpt><trkpt lat="42.29464097689823" lon="14.024820835632985"><ele>75.0</ele><time>2026-04-04T13:56:07Z</time></trkpt><trkpt lat="42.29485353828819" lon="14.024961766317334"><ele>74.0</ele><time>2026-04-04T13:56:08Z</time></trkpt><trkpt lat="42.29506005645215" lon="14.025125646198203"><ele>73.0</ele><time>2026-04-04T13:56:09Z</time></trkpt><trkpt lat="42.29526661049263" lon="14.025285201040449"><ele>73.0</ele><time>2026-04-04T13:56:10Z</time></trkpt><trkpt lat="42.295471328657925" lon="14.025439646036839"><ele>73.0</ele><time>2026-04-04T13:56:11Z</time></trkpt><trkpt lat="42.295655126235935" lon="14.025579245409512"><ele>73.0</ele><time>2026-04-04T13:56:12Z</time></trkpt><trkpt lat="42.29583563994763" lon="14.025712745060169"><ele>73.33333333333333</ele><time>2026-04-04T13:56:13Z</time></trkpt><trkpt lat="42.296005451253556" lon="14.025835463376877"><ele>73.66666666666667</ele><time>2026-04-04T13:56:14Z</time></trkpt><trkpt lat="42.29617938887344" lon="14.025970710101712"><ele>74.0</ele><time>2026-04-04T13:56:15Z</time></trkpt><trkpt lat="42.296351500750646" lon="14.026097408119114"><ele>74.0</ele><time>2026-04-04T13:56:16Z</time></trkpt><trkpt lat="42.296529187907566" lon="14.026228142800532"><ele>74.0</ele><time>2026-04-04T13:56:17Z</time></trkpt><trkpt lat="42.29670861534849" lon="14.026357026170073"><ele>74.0</ele><time>2026-04-04T13:56:18Z</time></trkpt><trkpt lat="42.29688762075245" lon="14.02648899795205"><ele>74.0</ele><time>2026-04-04T13:56:19Z</time></trkpt><trkpt lat="42.29706774051298" lon="14.026626465416879"><ele>74.0</ele><time>2026-04-04T13:56:20Z</time></trkpt><trkpt lat="42.29724810539398" lon="14.026760560134509"><ele>74.0</ele><time>2026-04-04T13:56:21Z</time></trkpt><trkpt lat="42.297428671007225" lon="14.026893260754543"><ele>74.0</ele><time>2026-04-04T13:56:22Z</time></trkpt><trkpt lat="42.297614816965314" lon="14.027028354098908"><ele>74.0</ele><time>2026-04-04T13:56:23Z</time></trkpt><trkpt lat="42.297802227079245" lon="14.027168036767652"><ele>74.0</ele><time>2026-04-04T13:56:24Z</time></trkpt><trkpt lat="42.29798689117137" lon="14.027303859950148"><ele>74.0</ele><time>2026-04-04T13:56:25Z</time></trkpt><trkpt lat="42.29817001755718" lon="14.0274381433055"><ele>74.0</ele><time>2026-04-04T13:56:26Z</time></trkpt><trkpt lat="42.29834509944899" lon="14.027566056612688"><ele>74.0</ele><time>2026-04-04T13:56:27Z</time></trkpt><trkpt lat="42.29852946069788" lon="14.027702964031233"><ele>74.0</ele><time>2026-04-04T13:56:28Z</time></trkpt><trkpt lat="42.29871239331296" lon="14.027842739238642"><ele>74.0</ele><time>2026-04-04T13:56:29Z</time></trkpt><trkpt lat="42.29889700545704" lon="14.027977179689959"><ele>74.0</ele><time>2026-04-04T13:56:30Z</time></trkpt><trkpt lat="42.29908504856716" lon="14.028121400394244"><ele>74.0</ele><time>2026-04-04T13:56:31Z</time></trkpt><trkpt lat="42.29926619658108" lon="14.028246109877353"><ele>74.0</ele><time>2026-04-04T13:56:32Z</time></trkpt><trkpt lat="42.29944561642971" lon="14.02837768524024"><ele>74.0</ele><time>2026-04-04T13:56:33Z</time></trkpt><trkpt lat="42.299626951144695" lon="14.028517798011869"><ele>74.66666666666667</ele><time>2026-04-04T13:56:33.999Z</time></trkpt><trkpt lat="42.29980666983535" lon="14.02865243342724"><ele>75.33333333333333</ele><time>2026-04-04T13:56:34.999Z</time></trkpt><trkpt lat="42.29998355805507" lon="14.028781857955687"><ele>76.0</ele><time>2026-04-04T13:56:35.999Z</time></trkpt><trkpt lat="42.30015643428131" lon="14.028911709970574"><ele>76.0</ele><time>2026-04-04T13:56:36.999Z</time></trkpt><trkpt lat="42.300325572664285" lon="14.029043147392416"><ele>76.0</ele><time>2026-04-04T13:56:37.999Z</time></trkpt><trkpt lat="42.30048032037766" lon="14.02916560052489"><ele>76.0</ele><time>2026-04-04T13:56:38.999Z</time></trkpt><trkpt lat="42.30065170651271" lon="14.02929430063467"><ele>74.33333333333333</ele><time>2026-04-04T13:56:39.999Z</time></trkpt><trkpt lat="42.30082675286656" lon="14.029416792432404"><ele>72.66666666666667</ele><time>2026-04-04T13:56:40.999Z</time></trkpt><trkpt lat="42.301003410412434" lon="14.029541722857344"><ele>71.0</ele><time>2026-04-04T13:56:41.999Z</time></trkpt><trkpt lat="42.30117104653451" lon="14.029663335804386"><ele>71.0</ele><time>2026-04-04T13:56:42.999Z</time></trkpt><trkpt lat="42.30133549729777" lon="14.029784606418497"><ele>71.0</ele><time>2026-04-04T13:56:43.999Z</time></trkpt><trkpt lat="42.30149225156769" lon="14.02990241923747"><ele>71.0</ele><time>2026-04-04T13:56:44.999Z</time></trkpt><trkpt lat="42.301648236329356" lon="14.030017740326656"><ele>73.0</ele><time>2026-04-04T13:56:45.999Z</time></trkpt><trkpt lat="42.301802311857905" lon="14.030129074852114"><ele>75.0</ele><time>2026-04-04T13:56:46.999Z</time></trkpt><trkpt lat="42.3019564513293" lon="14.030251658585971"><ele>77.0</ele><time>2026-04-04T13:56:47.999Z</time></trkpt><trkpt lat="42.302089869558195" lon="14.030414968549863"><ele>77.0</ele><time>2026-04-04T13:56:48.999Z</time></trkpt><trkpt lat="42.30220703064879" lon="14.030580130703147"><ele>77.0</ele><time>2026-04-04T13:56:49.999Z</time></trkpt><trkpt lat="42.302341237612154" lon="14.030748830285837"><ele>77.0</ele><time>2026-04-04T13:56:50.999Z</time></trkpt><trkpt lat="42.30246617314659" lon="14.03091762393058"><ele>78.0</ele><time>2026-04-04T13:56:51.999Z</time></trkpt><trkpt lat="42.30259498130383" lon="14.031059034282935"><ele>79.0</ele><time>2026-04-04T13:56:52.999Z</time></trkpt><trkpt lat="42.302735116899996" lon="14.031197292612775"><ele>80.0</ele><time>2026-04-04T13:56:53.999Z</time></trkpt><trkpt lat="42.30287217231743" lon="14.03131550235087"><ele>80.0</ele><time>2026-04-04T13:56:54.999Z</time></trkpt><trkpt lat="42.30298323666083" lon="14.031432823457994"><ele>80.0</ele><time>2026-04-04T13:56:55.999Z</time></trkpt><trkpt lat="42.303095551107894" lon="14.031535872468138"><ele>80.0</ele><time>2026-04-04T13:56:56.999Z</time></trkpt><trkpt lat="42.30321121901463" lon="14.0316419983773"><ele>80.0</ele><time>2026-04-04T13:56:57.999Z</time></trkpt><trkpt lat="42.30334406373873" lon="14.031746440120752"><ele>79.66666666666667</ele><time>2026-04-04T13:56:58.999Z</time></trkpt><trkpt lat="42.303474815898866" lon="14.03188053933269"><ele>79.33333333333333</ele><time>2026-04-04T13:56:59.999Z</time></trkpt><trkpt lat="42.3036129181363" lon="14.032011013879634"><ele>79.0</ele><time>2026-04-04T13:57:00.999Z</time></trkpt><trkpt lat="42.303757617946495" lon="14.032147797200876"><ele>79.0</ele><time>2026-04-04T13:57:01.999Z</time></trkpt><trkpt lat="42.30390807301724" lon="14.03229455867275"><ele>79.0</ele><time>2026-04-04T13:57:02.999Z</time></trkpt><trkpt lat="42.304056362077375" lon="14.03243119815981"><ele>79.0</ele><time>2026-04-04T13:57:03.999Z</time></trkpt><trkpt lat="42.30421570571478" lon="14.032563671072392"><ele>78.66666666666666</ele><time>2026-04-04T13:57:04.999Z</time></trkpt><trkpt lat="42.30437782938303" lon="14.032676737922316"><ele>78.33333333333333</ele><time>2026-04-04T13:57:05.999Z</time></trkpt><trkpt lat="42.304542719055114" lon="14.032763060572057"><ele>78.0</ele><time>2026-04-04T13:57:06.999Z</time></trkpt><trkpt lat="42.304705310288895" lon="14.032826082156596"><ele>78.66666666666667</ele><time>2026-04-04T13:57:07.999Z</time></trkpt><trkpt lat="42.3048643542036" lon="14.03288808727276"><ele>79.33333333333334</ele><time>2026-04-04T13:57:08.999Z</time></trkpt><trkpt lat="42.305029382971384" lon="14.03294243856956"><ele>80.0</ele><time>2026-04-04T13:57:09.999Z</time></trkpt><trkpt lat="42.305193765709404" lon="14.032988569419418"><ele>80.0</ele><time>2026-04-04T13:57:10.999Z</time></trkpt><trkpt lat="42.305341063342624" lon="14.033029486628877"><ele>80.0</ele><time>2026-04-04T13:57:11.999Z</time></trkpt><trkpt lat="42.30546312092186" lon="14.033067289346238"><ele>80.0</ele><time>2026-04-04T13:57:12.999Z</time></trkpt><trkpt lat="42.305562458150426" lon="14.033103136462458"><ele>80.0</ele><time>2026-04-04T13:57:13.999Z</time></trkpt><trkpt lat="42.30563583557665" lon="14.033140568770792"><ele>79.8</ele><time>2026-04-04T13:57:14.999Z</time></trkpt><trkpt lat="42.305704915068695" lon="14.033179471782615"><ele>79.6</ele><time>2026-04-04T13:57:15.999Z</time></trkpt><trkpt lat="42.30576177685131" lon="14.033216371050713"><ele>79.4</ele><time>2026-04-04T13:57:16.999Z</time></trkpt><trkpt lat="42.30584670747163" lon="14.03332777815943"><ele>79.2</ele><time>2026-04-04T13:57:18.999Z</time></trkpt><trkpt lat="42.305916224188714" lon="14.03340891957362"><ele>79.0</ele><time>2026-04-04T13:57:19.999Z</time></trkpt><trkpt lat="42.306013725409834" lon="14.033530919868864"><ele>79.0</ele><time>2026-04-04T13:57:20.999Z</time></trkpt><trkpt lat="42.30614036208085" lon="14.03365986268187"><ele>79.0</ele><time>2026-04-04T13:57:21.999Z</time></trkpt><trkpt lat="42.30625835501428" lon="14.033819990603108"><ele>79.0</ele><time>2026-04-04T13:57:22.999Z</time></trkpt><trkpt lat="42.30638508429631" lon="14.033972558485676"><ele>79.0</ele><time>2026-04-04T13:57:23.999Z</time></trkpt><trkpt lat="42.30652290042363" lon="14.03413861823507"><ele>79.0</ele><time>2026-04-04T13:57:24.999Z</time></trkpt><trkpt lat="42.30666488026953" lon="14.034319920112546"><ele>79.0</ele><time>2026-04-04T13:57:25.999Z</time></trkpt><trkpt lat="42.30680939507394" lon="14.034511381395383"><ele>79.0</ele><time>2026-04-04T13:57:26.999Z</time></trkpt><trkpt lat="42.30695105644241" lon="14.034699109090052"><ele>79.0</ele><time>2026-04-04T13:57:27.999Z</time></trkpt><trkpt lat="42.3070782923384" lon="14.034868622036816"><ele>79.0</ele><time>2026-04-04T13:57:28.999Z</time></trkpt><trkpt lat="42.30719298365709" lon="14.035045189060089"><ele>82.33333333333333</ele><time>2026-04-04T13:57:29.999Z</time></trkpt><trkpt lat="42.30729391004391" lon="14.035233918237795"><ele>85.66666666666667</ele><time>2026-04-04T13:57:30.999Z</time></trkpt><trkpt lat="42.30738543926008" lon="14.035444076528837"><ele>89.0</ele><time>2026-04-04T13:57:31.999Z</time></trkpt><trkpt lat="42.30745966837506" lon="14.035681119257378"><ele>86.66666666666667</ele><time>2026-04-04T13:57:32.999Z</time></trkpt><trkpt lat="42.307520695305065" lon="14.035925989528849"><ele>84.33333333333333</ele><time>2026-04-04T13:57:33.999Z</time></trkpt><trkpt lat="42.307577662389605" lon="14.036182324206791"><ele>82.0</ele><time>2026-04-04T13:57:34.999Z</time></trkpt><trkpt lat="42.3076372181268" lon="14.03643596105232"><ele>79.66666666666666</ele><time>2026-04-04T13:57:35.999Z</time></trkpt><trkpt lat="42.307703344765414" lon="14.036690138032958"><ele>77.33333333333333</ele><time>2026-04-04T13:57:36.999Z</time></trkpt><trkpt lat="42.30776654825428" lon="14.0369221835985"><ele>75.0</ele><time>2026-04-04T13:57:37.999Z</time></trkpt><trkpt lat="42.307827013153755" lon="14.037140213906365"><ele>75.0</ele><time>2026-04-04T13:57:38.999Z</time></trkpt><trkpt lat="42.30789546202514" lon="14.03734577212079"><ele>75.0</ele><time>2026-04-04T13:57:39.999Z</time></trkpt><trkpt lat="42.307987652729" lon="14.037536087127862"><ele>75.0</ele><time>2026-04-04T13:57:40.999Z</time></trkpt><trkpt lat="42.30810587478664" lon="14.037738741105908"><ele>76.0</ele><time>2026-04-04T13:57:41.999Z</time></trkpt><trkpt lat="42.308237609895194" lon="14.03793025815018"><ele>77.0</ele><time>2026-04-04T13:57:42.999Z</time></trkpt><trkpt lat="42.308379723051516" lon="14.038131155911513"><ele>78.0</ele><time>2026-04-04T13:57:43.999Z</time></trkpt><trkpt lat="42.308512407006816" lon="14.038331613559656"><ele>76.0</ele><time>2026-04-04T13:57:44.999Z</time></trkpt><trkpt lat="42.30863487642054" lon="14.038556602874271"><ele>74.0</ele><time>2026-04-04T13:57:45.999Z</time></trkpt><trkpt lat="42.30875555192769" lon="14.038798008165159"><ele>72.0</ele><time>2026-04-04T13:57:46.999Z</time></trkpt><trkpt lat="42.308879658852646" lon="14.039058650911452"><ele>72.5</ele><time>2026-04-04T13:57:47.999Z</time></trkpt><trkpt lat="42.30899884390162" lon="14.039321100950058"><ele>73.0</ele><time>2026-04-04T13:57:48.999Z</time></trkpt><trkpt lat="42.30912423762358" lon="14.039580580323967"><ele>73.0</ele><time>2026-04-04T13:57:49.999Z</time></trkpt><trkpt lat="42.30924631432524" lon="14.039835698663532"><ele>73.0</ele><time>2026-04-04T13:57:50.999Z</time></trkpt><trkpt lat="42.309366835345536" lon="14.040067672387861"><ele>73.0</ele><time>2026-04-04T13:57:51.999Z</time></trkpt><trkpt lat="42.30948939719126" lon="14.040291325683613"><ele>72.33333333333333</ele><time>2026-04-04T13:57:52.999Z</time></trkpt><trkpt lat="42.309627990390034" lon="14.040503567689498"><ele>71.66666666666667</ele><time>2026-04-04T13:57:53.999Z</time></trkpt><trkpt lat="42.30978334490222" lon="14.040711553270613"><ele>71.0</ele><time>2026-04-04T13:57:54.999Z</time></trkpt><trkpt lat="42.30994616989652" lon="14.04091520827754"><ele>69.0</ele><time>2026-04-04T13:57:55.999Z</time></trkpt><trkpt lat="42.31011421570244" lon="14.041124823525847"><ele>67.0</ele><time>2026-04-04T13:57:56.999Z</time></trkpt><trkpt lat="42.31027886543432" lon="14.041323686577577"><ele>65.0</ele><time>2026-04-04T13:57:57.999Z</time></trkpt><trkpt lat="42.31043445458949" lon="14.041513166131232"><ele>63.66666666666667</ele><time>2026-04-04T13:57:58.999Z</time></trkpt><trkpt lat="42.31056821255802" lon="14.041710223390366"><ele>62.33333333333333</ele><time>2026-04-04T13:57:59.999Z</time></trkpt><trkpt lat="42.31071577089454" lon="14.041865485525271"><ele>61.0</ele><time>2026-04-04T13:58:00.999Z</time></trkpt><trkpt lat="42.31085006971878" lon="14.042043751701929"><ele>62.0</ele><time>2026-04-04T13:58:01.999Z</time></trkpt><trkpt lat="42.31097032299452" lon="14.042217062529588"><ele>63.0</ele><time>2026-04-04T13:58:02.999Z</time></trkpt><trkpt lat="42.31105672621114" lon="14.042418935504939"><ele>64.0</ele><time>2026-04-04T13:58:03.999Z</time></trkpt><trkpt lat="42.311148787756814" lon="14.042621747970815"><ele>64.0</ele><time>2026-04-04T13:58:04.999Z</time></trkpt><trkpt lat="42.31124140194774" lon="14.042838320708956"><ele>64.0</ele><time>2026-04-04T13:58:05.999Z</time></trkpt><trkpt lat="42.31135265012716" lon="14.043064563162346"><ele>64.0</ele><time>2026-04-04T13:58:06.999Z</time></trkpt><trkpt lat="42.31145300136981" lon="14.043301240801709"><ele>65.66666666666666</ele><time>2026-04-04T13:58:07.999Z</time></trkpt><trkpt lat="42.311554812175764" lon="14.043538650903162"><ele>67.33333333333333</ele><time>2026-04-04T13:58:08.999Z</time></trkpt><trkpt lat="42.31164992379285" lon="14.043772308560866"><ele>69.0</ele><time>2026-04-04T13:58:09.999Z</time></trkpt><trkpt lat="42.31174607945373" lon="14.04400790184023"><ele>67.66666666666667</ele><time>2026-04-04T13:58:10.999Z</time></trkpt><trkpt lat="42.311860315675666" lon="14.044247832342183"><ele>66.33333333333334</ele><time>2026-04-04T13:58:11.999Z</time></trkpt><trkpt lat="42.31198803511213" lon="14.044478840104508"><ele>65.0</ele><time>2026-04-04T13:58:13Z</time></trkpt><trkpt lat="42.31210496433451" lon="14.044704447014398"><ele>65.0</ele><time>2026-04-04T13:58:14Z</time></trkpt><trkpt lat="42.312230261905746" lon="14.044876905548264"><ele>65.0</ele><time>2026-04-04T13:58:15Z</time></trkpt><trkpt lat="42.31233003340811" lon="14.045043982344593"><ele>65.0</ele><time>2026-04-04T13:58:16Z</time></trkpt><trkpt lat="42.3124255670991" lon="14.04521048312884"><ele>65.66666666666667</ele><time>2026-04-04T13:58:17Z</time></trkpt><trkpt lat="42.312525769940926" lon="14.045358302077341"><ele>66.33333333333333</ele><time>2026-04-04T13:58:18Z</time></trkpt><trkpt lat="42.312642014028306" lon="14.045481068887602"><ele>67.0</ele><time>2026-04-04T13:58:19Z</time></trkpt><trkpt lat="42.31278328777845" lon="14.045574466802382"><ele>67.0</ele><time>2026-04-04T13:58:20Z</time></trkpt><trkpt lat="42.3129463068888" lon="14.045635937379018"><ele>67.0</ele><time>2026-04-04T13:58:21Z</time></trkpt><trkpt lat="42.31311158459101" lon="14.045666059773703"><ele>67.0</ele><time>2026-04-04T13:58:22Z</time></trkpt><trkpt lat="42.313256776699575" lon="14.045709302198038"><ele>66.0</ele><time>2026-04-04T13:58:23Z</time></trkpt><trkpt lat="42.31338925613546" lon="14.045771958218372"><ele>65.0</ele><time>2026-04-04T13:58:24Z</time></trkpt><trkpt lat="42.313507151741824" lon="14.045871245002848"><ele>64.0</ele><time>2026-04-04T13:58:25Z</time></trkpt><trkpt lat="42.313608276457366" lon="14.046005949462954"><ele>63.0</ele><time>2026-04-04T13:58:26Z</time></trkpt><trkpt lat="42.313681095500144" lon="14.046202014394634"><ele>63.0</ele><time>2026-04-04T13:58:27Z</time></trkpt><trkpt lat="42.31378089961051" lon="14.046391398621786"><ele>63.0</ele><time>2026-04-04T13:58:28Z</time></trkpt><trkpt lat="42.31387016777438" lon="14.046611107369792"><ele>63.0</ele><time>2026-04-04T13:58:29Z</time></trkpt><trkpt lat="42.31396168691107" lon="14.046823347742004"><ele>63.33333333333333</ele><time>2026-04-04T13:58:30Z</time></trkpt><trkpt lat="42.31405722631497" lon="14.047041504049506"><ele>63.666666666666664</ele><time>2026-04-04T13:58:31Z</time></trkpt><trkpt lat="42.31415354023393" lon="14.04725508535027"><ele>64.0</ele><time>2026-04-04T13:58:32Z</time></trkpt><trkpt lat="42.31425407308288" lon="14.047479226482013"><ele>63.0</ele><time>2026-04-04T13:58:33Z</time></trkpt><trkpt lat="42.31435498235569" lon="14.047704381871666"><ele>62.0</ele><time>2026-04-04T13:58:34Z</time></trkpt><trkpt lat="42.31445944268778" lon="14.047928655090736"><ele>61.0</ele><time>2026-04-04T13:58:35Z</time></trkpt><trkpt lat="42.31455401737062" lon="14.048153281564502"><ele>60.33333333333333</ele><time>2026-04-04T13:58:36Z</time></trkpt><trkpt lat="42.31464938742179" lon="14.048371898658187"><ele>59.66666666666667</ele><time>2026-04-04T13:58:37Z</time></trkpt><trkpt lat="42.314749906215056" lon="14.04859242158646"><ele>59.0</ele><time>2026-04-04T13:58:38Z</time></trkpt><trkpt lat="42.3148472415648" lon="14.048808041550714"><ele>59.0</ele><time>2026-04-04T13:58:39Z</time></trkpt><trkpt lat="42.31493821369283" lon="14.049028377207812"><ele>59.0</ele><time>2026-04-04T13:58:40Z</time></trkpt><trkpt lat="42.31502937953078" lon="14.049233137326079"><ele>59.0</ele><time>2026-04-04T13:58:41Z</time></trkpt><trkpt lat="42.31511880573796" lon="14.04944923541403"><ele>59.0</ele><time>2026-04-04T13:58:42Z</time></trkpt><trkpt lat="42.31520790205843" lon="14.049655550849142"><ele>59.0</ele><time>2026-04-04T13:58:43Z</time></trkpt><trkpt lat="42.315296244298004" lon="14.04985550807025"><ele>59.0</ele><time>2026-04-04T13:58:44Z</time></trkpt><trkpt lat="42.31538778054789" lon="14.0500491507592"><ele>59.0</ele><time>2026-04-04T13:58:45Z</time></trkpt><trkpt lat="42.315476813705395" lon="14.050238659831528"><ele>59.0</ele><time>2026-04-04T13:58:46Z</time></trkpt><trkpt lat="42.315564427001064" lon="14.050433843762287"><ele>59.0</ele><time>2026-04-04T13:58:47Z</time></trkpt><trkpt lat="42.31564862848137" lon="14.050635669511296"><ele>59.0</ele><time>2026-04-04T13:58:48Z</time></trkpt><trkpt lat="42.31573418732478" lon="14.050841550353597"><ele>59.0</ele><time>2026-04-04T13:58:49Z</time></trkpt><trkpt lat="42.31582212578086" lon="14.051053086090358"><ele>59.0</ele><time>2026-04-04T13:58:50Z</time></trkpt><trkpt lat="42.31591751338023" lon="14.051260517451475"><ele>59.0</ele><time>2026-04-04T13:58:51Z</time></trkpt><trkpt lat="42.31601789591848" lon="14.051458464478186"><ele>59.0</ele><time>2026-04-04T13:58:52Z</time></trkpt><trkpt lat="42.316123560858976" lon="14.05165256489369"><ele>59.0</ele><time>2026-04-04T13:58:53Z</time></trkpt><trkpt lat="42.31623698428774" lon="14.051833528317182"><ele>58.333333333333336</ele><time>2026-04-04T13:58:54Z</time></trkpt><trkpt lat="42.31635956676815" lon="14.052004522430241"><ele>57.66666666666667</ele><time>2026-04-04T13:58:55Z</time></trkpt><trkpt lat="42.31649164573946" lon="14.052167670751679"><ele>57.0</ele><time>2026-04-04T13:58:56Z</time></trkpt><trkpt lat="42.31662993253695" lon="14.052321882772016"><ele>57.33333333333333</ele><time>2026-04-04T13:58:57Z</time></trkpt><trkpt lat="42.316770208230196" lon="14.052470064229091"><ele>57.666666666666664</ele><time>2026-04-04T13:58:57.999Z</time></trkpt><trkpt lat="42.3169060795953" lon="14.052623327843937"><ele>58.0</ele><time>2026-04-04T13:58:58.999Z</time></trkpt><trkpt lat="42.31703773306171" lon="14.052779458376518"><ele>58.0</ele><time>2026-04-04T13:58:59.999Z</time></trkpt><trkpt lat="42.3171749106512" lon="14.052935315034883"><ele>58.0</ele><time>2026-04-04T13:59:00.999Z</time></trkpt><trkpt lat="42.317314106757635" lon="14.053088816936702"><ele>58.0</ele><time>2026-04-04T13:59:01.999Z</time></trkpt><trkpt lat="42.31745002951117" lon="14.053233433259841"><ele>58.33333333333333</ele><time>2026-04-04T13:59:02.999Z</time></trkpt><trkpt lat="42.31759079384497" lon="14.053384928939892"><ele>58.66666666666667</ele><time>2026-04-04T13:59:03.999Z</time></trkpt><trkpt lat="42.31772756353853" lon="14.053535415247726"><ele>59.0</ele><time>2026-04-04T13:59:04.999Z</time></trkpt><trkpt lat="42.317861864177424" lon="14.053689904169676"><ele>59.0</ele><time>2026-04-04T13:59:05.999Z</time></trkpt><trkpt lat="42.31799987000805" lon="14.05384368484028"><ele>59.0</ele><time>2026-04-04T13:59:06.999Z</time></trkpt><trkpt lat="42.3181417064269" lon="14.05399417531109"><ele>59.0</ele><time>2026-04-04T13:59:07.999Z</time></trkpt><trkpt lat="42.31828241120285" lon="14.054150456387823"><ele>58.333333333333336</ele><time>2026-04-04T13:59:08.999Z</time></trkpt><trkpt lat="42.31842373922095" lon="14.054311262178985"><ele>57.66666666666667</ele><time>2026-04-04T13:59:09.999Z</time></trkpt><trkpt lat="42.31856278490691" lon="14.05447165929153"><ele>57.0</ele><time>2026-04-04T13:59:10.999Z</time></trkpt><trkpt lat="42.31870815125393" lon="14.054630610930916"><ele>57.0</ele><time>2026-04-04T13:59:11.999Z</time></trkpt><trkpt lat="42.31885423182438" lon="14.054784472228919"><ele>57.0</ele><time>2026-04-04T13:59:12.999Z</time></trkpt><trkpt lat="42.31900635572563" lon="14.054944165384528"><ele>57.0</ele><time>2026-04-04T13:59:13.999Z</time></trkpt><trkpt lat="42.319151666716536" lon="14.055099245902127"><ele>57.0</ele><time>2026-04-04T13:59:14.999Z</time></trkpt><trkpt lat="42.31929922396888" lon="14.055261540388033"><ele>57.0</ele><time>2026-04-04T13:59:15.999Z</time></trkpt><trkpt lat="42.31944263302438" lon="14.055431884670368"><ele>57.0</ele><time>2026-04-04T13:59:16.999Z</time></trkpt><trkpt lat="42.319579864441735" lon="14.055601297821111"><ele>57.0</ele><time>2026-04-04T13:59:17.999Z</time></trkpt><trkpt lat="42.31970219081303" lon="14.05575943258862"><ele>57.0</ele><time>2026-04-04T13:59:18.999Z</time></trkpt><trkpt lat="42.31982125284786" lon="14.055926845060196"><ele>57.0</ele><time>2026-04-04T13:59:19.999Z</time></trkpt><trkpt lat="42.31993583101279" lon="14.056111923105709"><ele>57.0</ele><time>2026-04-04T13:59:20.999Z</time></trkpt><trkpt lat="42.32003911358314" lon="14.056317032284891"><ele>57.0</ele><time>2026-04-04T13:59:21.999Z</time></trkpt><trkpt lat="42.320130767248436" lon="14.05653135662426"><ele>57.0</ele><time>2026-04-04T13:59:22.999Z</time></trkpt><trkpt lat="42.3202184033119" lon="14.056759246874766"><ele>57.0</ele><time>2026-04-04T13:59:23.999Z</time></trkpt><trkpt lat="42.32030480677772" lon="14.056979147605768"><ele>57.0</ele><time>2026-04-04T13:59:24.999Z</time></trkpt><trkpt lat="42.32039178172976" lon="14.057192574741508"><ele>57.0</ele><time>2026-04-04T13:59:25.999Z</time></trkpt><trkpt lat="42.3204776487605" lon="14.05740220548016"><ele>58.33333333333333</ele><time>2026-04-04T13:59:26.999Z</time></trkpt><trkpt lat="42.32056732992897" lon="14.057615521660045"><ele>59.666666666666664</ele><time>2026-04-04T13:59:27.999Z</time></trkpt><trkpt lat="42.320660835302746" lon="14.057835987489979"><ele>61.0</ele><time>2026-04-04T13:59:28.999Z</time></trkpt><trkpt lat="42.320748271634585" lon="14.058043049981473"><ele>61.0</ele><time>2026-04-04T13:59:29.999Z</time></trkpt><trkpt lat="42.32082556775333" lon="14.058234595938139"><ele>61.0</ele><time>2026-04-04T13:59:30.999Z</time></trkpt><trkpt lat="42.3208997857584" lon="14.058422463799886"><ele>61.0</ele><time>2026-04-04T13:59:31.999Z</time></trkpt><trkpt lat="42.32097416145152" lon="14.058615764048419"><ele>60.0</ele><time>2026-04-04T13:59:32.999Z</time></trkpt><trkpt lat="42.32105109494224" lon="14.058799389019669"><ele>59.0</ele><time>2026-04-04T13:59:33.999Z</time></trkpt><trkpt lat="42.321123834380664" lon="14.059008685429664"><ele>58.0</ele><time>2026-04-04T13:59:34.999Z</time></trkpt><trkpt lat="42.32119722219752" lon="14.059215746591219"><ele>57.33333333333333</ele><time>2026-04-04T13:59:35.999Z</time></trkpt><trkpt lat="42.3212910803598" lon="14.059426857785613"><ele>56.66666666666667</ele><time>2026-04-04T13:59:36.999Z</time></trkpt><trkpt lat="42.32140044570405" lon="14.059615425181384"><ele>56.0</ele><time>2026-04-04T13:59:37.999Z</time></trkpt><trkpt lat="42.321522910389874" lon="14.059788099010408"><ele>57.0</ele><time>2026-04-04T13:59:38.999Z</time></trkpt><trkpt lat="42.321665939482735" lon="14.05993885728117"><ele>58.0</ele><time>2026-04-04T13:59:39.999Z</time></trkpt><trkpt lat="42.321813931822575" lon="14.060074269238598"><ele>59.0</ele><time>2026-04-04T13:59:40.999Z</time></trkpt><trkpt lat="42.321968923104265" lon="14.060199604709648"><ele>59.0</ele><time>2026-04-04T13:59:41.999Z</time></trkpt><trkpt lat="42.32212092787005" lon="14.060317706414038"><ele>59.0</ele><time>2026-04-04T13:59:42.999Z</time></trkpt><trkpt lat="42.32226496939265" lon="14.060439267620877"><ele>59.0</ele><time>2026-04-04T13:59:43.999Z</time></trkpt><trkpt lat="42.3224062651484" lon="14.060561708894891"><ele>58.0</ele><time>2026-04-04T13:59:44.999Z</time></trkpt><trkpt lat="42.32255964602234" lon="14.060683752775006"><ele>57.0</ele><time>2026-04-04T13:59:45.999Z</time></trkpt><trkpt lat="42.32270839082128" lon="14.06079900274642"><ele>56.0</ele><time>2026-04-04T13:59:46.999Z</time></trkpt><trkpt lat="42.32285336399378" lon="14.060912154207688"><ele>56.0</ele><time>2026-04-04T13:59:47.999Z</time></trkpt><trkpt lat="42.32299684320074" lon="14.061028152708028"><ele>56.0</ele><time>2026-04-04T13:59:48.999Z</time></trkpt><trkpt lat="42.32313736448512" lon="14.061144617689159"><ele>56.0</ele><time>2026-04-04T13:59:49.999Z</time></trkpt><trkpt lat="42.32328108583523" lon="14.061260469109614"><ele>55.66666666666667</ele><time>2026-04-04T13:59:50.999Z</time></trkpt><trkpt lat="42.32341980222566" lon="14.061379858506045"><ele>55.33333333333333</ele><time>2026-04-04T13:59:51.999Z</time></trkpt><trkpt lat="42.323556167961144" lon="14.061500627069702"><ele>55.0</ele><time>2026-04-04T13:59:52.999Z</time></trkpt><trkpt lat="42.32368937280138" lon="14.061622482709469"><ele>55.0</ele><time>2026-04-04T13:59:53.999Z</time></trkpt><trkpt lat="42.32380943323935" lon="14.061732885493148"><ele>55.0</ele><time>2026-04-04T13:59:54.999Z</time></trkpt><trkpt lat="42.32391958411538" lon="14.061867399315283"><ele>55.0</ele><time>2026-04-04T13:59:55.999Z</time></trkpt><trkpt lat="42.3240284978822" lon="14.062019922686963"><ele>55.0</ele><time>2026-04-04T13:59:56.999Z</time></trkpt><trkpt lat="42.32412558674243" lon="14.062203311175455"><ele>55.0</ele><time>2026-04-04T13:59:57.999Z</time></trkpt><trkpt lat="42.3242254631419" lon="14.062392055802922"><ele>55.0</ele><time>2026-04-04T13:59:58.999Z</time></trkpt><trkpt lat="42.3243263546993" lon="14.062582263499845"><ele>55.0</ele><time>2026-04-04T13:59:59.999Z</time></trkpt><trkpt lat="42.32444340881065" lon="14.062775287165874"><ele>55.0</ele><time>2026-04-04T14:00:00.999Z</time></trkpt><trkpt lat="42.324542903413665" lon="14.062973255342772"><ele>55.0</ele><time>2026-04-04T14:00:01.999Z</time></trkpt><trkpt lat="42.324643195245336" lon="14.06315687747587"><ele>55.0</ele><time>2026-04-04T14:00:02.999Z</time></trkpt><trkpt lat="42.324742465203336" lon="14.063338730416428"><ele>55.0</ele><time>2026-04-04T14:00:03.999Z</time></trkpt><trkpt lat="42.32484519031831" lon="14.063535534814573"><ele>55.0</ele><time>2026-04-04T14:00:04.999Z</time></trkpt><trkpt lat="42.32495221360342" lon="14.063730925677177"><ele>55.0</ele><time>2026-04-04T14:00:05.999Z</time></trkpt><trkpt lat="42.32504564140588" lon="14.063947058995145"><ele>55.0</ele><time>2026-04-04T14:00:06.999Z</time></trkpt><trkpt lat="42.325163513787885" lon="14.064170124857009"><ele>55.0</ele><time>2026-04-04T14:00:07.999Z</time></trkpt><trkpt lat="42.325288748419965" lon="14.064402389295537"><ele>55.0</ele><time>2026-04-04T14:00:08.999Z</time></trkpt><trkpt lat="42.32542874089112" lon="14.064635664115226"><ele>55.0</ele><time>2026-04-04T14:00:09.999Z</time></trkpt><trkpt lat="42.32558507760475" lon="14.06485518093179"><ele>55.0</ele><time>2026-04-04T14:00:10.999Z</time></trkpt><trkpt lat="42.325724336159226" lon="14.0650851101616"><ele>57.0</ele><time>2026-04-04T14:00:11.999Z</time></trkpt><trkpt lat="42.32587619995961" lon="14.065311739309031"><ele>59.0</ele><time>2026-04-04T14:00:12.999Z</time></trkpt><trkpt lat="42.32603107419496" lon="14.065532167990153"><ele>59.0</ele><time>2026-04-04T14:00:13.999Z</time></trkpt><trkpt lat="42.32617493491461" lon="14.065742396927087"><ele>59.0</ele><time>2026-04-04T14:00:14.999Z</time></trkpt><trkpt lat="42.32631171889968" lon="14.06593000028168"><ele>59.0</ele><time>2026-04-04T14:00:15.999Z</time></trkpt><trkpt lat="42.32644962627621" lon="14.066124776149733"><ele>58.0</ele><time>2026-04-04T14:00:16.999Z</time></trkpt><trkpt lat="42.32658551943911" lon="14.066325808053492"><ele>57.0</ele><time>2026-04-04T14:00:17.999Z</time></trkpt><trkpt lat="42.32671444196404" lon="14.066523656908126"><ele>56.0</ele><time>2026-04-04T14:00:19Z</time></trkpt><trkpt lat="42.326847906714235" lon="14.066723879042557"><ele>54.66666666666667</ele><time>2026-04-04T14:00:20Z</time></trkpt><trkpt lat="42.32699370003874" lon="14.066925548258851"><ele>53.33333333333333</ele><time>2026-04-04T14:00:21Z</time></trkpt><trkpt lat="42.32714583193395" lon="14.067134770233004"><ele>52.0</ele><time>2026-04-04T14:00:22Z</time></trkpt><trkpt lat="42.327295153295324" lon="14.067343134113532"><ele>51.33333333333333</ele><time>2026-04-04T14:00:23Z</time></trkpt><trkpt lat="42.32744720687078" lon="14.067561797561943"><ele>50.66666666666667</ele><time>2026-04-04T14:00:24Z</time></trkpt><trkpt lat="42.327600456771165" lon="14.067781867262378"><ele>50.0</ele><time>2026-04-04T14:00:25Z</time></trkpt><trkpt lat="42.32775451813153" lon="14.068002051277531"><ele>50.0</ele><time>2026-04-04T14:00:26Z</time></trkpt><trkpt lat="42.32791054378742" lon="14.06822789694239"><ele>50.0</ele><time>2026-04-04T14:00:27Z</time></trkpt><trkpt lat="42.32806657091174" lon="14.068455127719806"><ele>50.333333333333336</ele><time>2026-04-04T14:00:28Z</time></trkpt><trkpt lat="42.328218996473595" lon="14.068674230083106"><ele>50.66666666666667</ele><time>2026-04-04T14:00:29Z</time></trkpt><trkpt lat="42.32836675215901" lon="14.068885150340455"><ele>51.0</ele><time>2026-04-04T14:00:30Z</time></trkpt><trkpt lat="42.32851347927113" lon="14.06910015317108"><ele>50.66666666666667</ele><time>2026-04-04T14:00:31Z</time></trkpt><trkpt lat="42.32866236617076" lon="14.069317693077158"><ele>50.333333333333336</ele><time>2026-04-04T14:00:32Z</time></trkpt><trkpt lat="42.328813238953636" lon="14.069533488886643"><ele>50.0</ele><time>2026-04-04T14:00:33Z</time></trkpt><trkpt lat="42.32896939896313" lon="14.069759002796225"><ele>48.5</ele><time>2026-04-04T14:00:34Z</time></trkpt><trkpt lat="42.329127572028646" lon="14.069984708251921"><ele>47.0</ele><time>2026-04-04T14:00:35Z</time></trkpt><trkpt lat="42.32928294537515" lon="14.070209291190057"><ele>47.0</ele><time>2026-04-04T14:00:36Z</time></trkpt><trkpt lat="42.32944019592519" lon="14.0704432036145"><ele>47.0</ele><time>2026-04-04T14:00:37Z</time></trkpt><trkpt lat="42.32959887739681" lon="14.07067563903353"><ele>49.666666666666664</ele><time>2026-04-04T14:00:38Z</time></trkpt><trkpt lat="42.3297549257912" lon="14.070897129849987"><ele>52.33333333333333</ele><time>2026-04-04T14:00:39Z</time></trkpt><trkpt lat="42.32990717437346" lon="14.071108648762582"><ele>55.0</ele><time>2026-04-04T14:00:40Z</time></trkpt><trkpt lat="42.33005735498724" lon="14.071328712574484"><ele>55.0</ele><time>2026-04-04T14:00:41Z</time></trkpt><trkpt lat="42.330209302428486" lon="14.07155148872121"><ele>55.0</ele><time>2026-04-04T14:00:42Z</time></trkpt><trkpt lat="42.33036419938894" lon="14.071775283198134"><ele>53.33333333333333</ele><time>2026-04-04T14:00:43Z</time></trkpt><trkpt lat="42.330518554585446" lon="14.0719947640119"><ele>51.66666666666667</ele><time>2026-04-04T14:00:44Z</time></trkpt><trkpt lat="42.33066882076572" lon="14.072213867171843"><ele>50.0</ele><time>2026-04-04T14:00:45Z</time></trkpt><trkpt lat="42.33082267824286" lon="14.072435017821526"><ele>50.333333333333336</ele><time>2026-04-04T14:00:46Z</time></trkpt><trkpt lat="42.330975716385915" lon="14.072658731656293"><ele>50.66666666666667</ele><time>2026-04-04T14:00:47Z</time></trkpt><trkpt lat="42.331125297639716" lon="14.072884169645985"><ele>51.0</ele><time>2026-04-04T14:00:48Z</time></trkpt><trkpt lat="42.33127304224454" lon="14.073106455227807"><ele>50.33333333333333</ele><time>2026-04-04T14:00:49Z</time></trkpt><trkpt lat="42.33142449946948" lon="14.073331291009481"><ele>49.666666666666664</ele><time>2026-04-04T14:00:50Z</time></trkpt><trkpt lat="42.33157674898724" lon="14.073552172363934"><ele>49.0</ele><time>2026-04-04T14:00:51Z</time></trkpt><trkpt lat="42.331724896834984" lon="14.073770475978417"><ele>49.0</ele><time>2026-04-04T14:00:52Z</time></trkpt><trkpt lat="42.331871901125595" lon="14.073980871228493"><ele>49.0</ele><time>2026-04-04T14:00:53Z</time></trkpt><trkpt lat="42.33201392228245" lon="14.074182319608846"><ele>49.0</ele><time>2026-04-04T14:00:54Z</time></trkpt><trkpt lat="42.33216169053313" lon="14.07439738070773"><ele>49.0</ele><time>2026-04-04T14:00:55Z</time></trkpt><trkpt lat="42.33231033847526" lon="14.074614604350797"><ele>49.0</ele><time>2026-04-04T14:00:56Z</time></trkpt><trkpt lat="42.332465265313324" lon="14.074838761956615"><ele>49.0</ele><time>2026-04-04T14:00:57Z</time></trkpt><trkpt lat="42.33261539025501" lon="14.07505635894147"><ele>47.0</ele><time>2026-04-04T14:00:58Z</time></trkpt><trkpt lat="42.332766986199694" lon="14.07528474133163"><ele>45.0</ele><time>2026-04-04T14:00:59Z</time></trkpt><trkpt lat="42.332919298555154" lon="14.07551079285078"><ele>46.5</ele><time>2026-04-04T14:01:00Z</time></trkpt><trkpt lat="42.3330739356314" lon="14.07573413277864"><ele>48.0</ele><time>2026-04-04T14:01:01Z</time></trkpt><trkpt lat="42.33322802957333" lon="14.075955258541692"><ele>48.0</ele><time>2026-04-04T14:01:02Z</time></trkpt><trkpt lat="42.333376133593895" lon="14.076170447758098"><ele>48.0</ele><time>2026-04-04T14:01:03Z</time></trkpt><trkpt lat="42.333511199381405" lon="14.076370505995126"><ele>48.0</ele><time>2026-04-04T14:01:04Z</time></trkpt><trkpt lat="42.333640041987344" lon="14.076558090833922"><ele>48.0</ele><time>2026-04-04T14:01:05Z</time></trkpt><trkpt lat="42.33376571880481" lon="14.076737307887296"><ele>48.0</ele><time>2026-04-04T14:01:06Z</time></trkpt><trkpt lat="42.333890308699374" lon="14.076926895606627"><ele>48.0</ele><time>2026-04-04T14:01:07Z</time></trkpt><trkpt lat="42.33399925722395" lon="14.077124318916658"><ele>48.0</ele><time>2026-04-04T14:01:08Z</time></trkpt><trkpt lat="42.33409310719757" lon="14.077334853117446"><ele>48.0</ele><time>2026-04-04T14:01:09Z</time></trkpt><trkpt lat="42.33417162462447" lon="14.077554818288334"><ele>48.0</ele><time>2026-04-04T14:01:10Z</time></trkpt><trkpt lat="42.334231035204034" lon="14.077783926270424"><ele>48.0</ele><time>2026-04-04T14:01:10.999Z</time></trkpt><trkpt lat="42.33427095235464" lon="14.0780188103163"><ele>48.0</ele><time>2026-04-04T14:01:11.999Z</time></trkpt><trkpt lat="42.334302207204374" lon="14.078273603601804"><ele>48.0</ele><time>2026-04-04T14:01:12.999Z</time></trkpt><trkpt lat="42.334327096956486" lon="14.078543836031466"><ele>47.333333333333336</ele><time>2026-04-04T14:01:13.999Z</time></trkpt><trkpt lat="42.334350541779834" lon="14.078825819026859"><ele>46.66666666666667</ele><time>2026-04-04T14:01:14.999Z</time></trkpt><trkpt lat="42.334373833986035" lon="14.079118240151992"><ele>46.0</ele><time>2026-04-04T14:01:15.999Z</time></trkpt><trkpt lat="42.334399372822865" lon="14.079413056121963"><ele>46.0</ele><time>2026-04-04T14:01:16.999Z</time></trkpt><trkpt lat="42.334422797779595" lon="14.079713261071749"><ele>46.0</ele><time>2026-04-04T14:01:17.999Z</time></trkpt><trkpt lat="42.33444215600892" lon="14.080007370719665"><ele>46.0</ele><time>2026-04-04T14:01:18.999Z</time></trkpt><trkpt lat="42.334453314915876" lon="14.080290279031802"><ele>46.0</ele><time>2026-04-04T14:01:19.999Z</time></trkpt><trkpt lat="42.33445393161311" lon="14.080572795041926"><ele>46.0</ele><time>2026-04-04T14:01:20.999Z</time></trkpt><trkpt lat="42.33443510904079" lon="14.080856141886516"><ele>46.0</ele><time>2026-04-04T14:01:21.999Z</time></trkpt><trkpt lat="42.334408236530855" lon="14.081118816120958"><ele>46.0</ele><time>2026-04-04T14:01:22.999Z</time></trkpt><trkpt lat="42.33439042487687" lon="14.081380188110828"><ele>46.0</ele><time>2026-04-04T14:01:23.999Z</time></trkpt><trkpt lat="42.33437448984488" lon="14.081621636069693"><ele>46.0</ele><time>2026-04-04T14:01:24.999Z</time></trkpt><trkpt lat="42.334354050305926" lon="14.081844703444725"><ele>47.0</ele><time>2026-04-04T14:01:25.999Z</time></trkpt><trkpt lat="42.33434460496305" lon="14.08206295839409"><ele>48.0</ele><time>2026-04-04T14:01:26.999Z</time></trkpt><trkpt lat="42.33435697687689" lon="14.082290365892923"><ele>49.0</ele><time>2026-04-04T14:01:27.999Z</time></trkpt><trkpt lat="42.33439620653065" lon="14.082508962208058"><ele>49.666666666666664</ele><time>2026-04-04T14:01:28.999Z</time></trkpt><trkpt lat="42.334462872555285" lon="14.082738094899339"><ele>50.33333333333333</ele><time>2026-04-04T14:01:29.999Z</time></trkpt><trkpt lat="42.33455606775801" lon="14.082962881437867"><ele>51.0</ele><time>2026-04-04T14:01:30.999Z</time></trkpt><trkpt lat="42.33466507848829" lon="14.08318485209658"><ele>52.33333333333333</ele><time>2026-04-04T14:01:31.999Z</time></trkpt><trkpt lat="42.33478810003163" lon="14.083405008352571"><ele>53.666666666666664</ele><time>2026-04-04T14:01:32.999Z</time></trkpt><trkpt lat="42.33491201088264" lon="14.083629004824212"><ele>55.0</ele><time>2026-04-04T14:01:33.999Z</time></trkpt><trkpt lat="42.33502624964776" lon="14.083838114836555"><ele>55.0</ele><time>2026-04-04T14:01:34.999Z</time></trkpt><trkpt lat="42.33513071811414" lon="14.08403078085246"><ele>55.0</ele><time>2026-04-04T14:01:35.999Z</time></trkpt><trkpt lat="42.33523252316582" lon="14.084214860980095"><ele>55.0</ele><time>2026-04-04T14:01:36.999Z</time></trkpt><trkpt lat="42.335332210922395" lon="14.084405034902526"><ele>54.666666666666664</ele><time>2026-04-04T14:01:37.999Z</time></trkpt><trkpt lat="42.33542710438264" lon="14.084604526473246"><ele>54.33333333333333</ele><time>2026-04-04T14:01:38.999Z</time></trkpt><trkpt lat="42.33551442046015" lon="14.084820813913392"><ele>54.0</ele><time>2026-04-04T14:01:39.999Z</time></trkpt><trkpt lat="42.33558893351356" lon="14.085039040554632"><ele>54.0</ele><time>2026-04-04T14:01:40.999Z</time></trkpt><trkpt lat="42.335658141453806" lon="14.085261991499904"><ele>54.0</ele><time>2026-04-04T14:01:41.999Z</time></trkpt><trkpt lat="42.33572231695537" lon="14.085488042999495"><ele>54.0</ele><time>2026-04-04T14:01:42.999Z</time></trkpt><trkpt lat="42.33579048852967" lon="14.085711606364967"><ele>53.66666666666667</ele><time>2026-04-04T14:01:43.999Z</time></trkpt><trkpt lat="42.33585520769017" lon="14.08593245581486"><ele>53.333333333333336</ele><time>2026-04-04T14:01:44.999Z</time></trkpt><trkpt lat="42.335914437312" lon="14.086149375770091"><ele>53.0</ele><time>2026-04-04T14:01:45.999Z</time></trkpt><trkpt lat="42.335979972146006" lon="14.086373125522373"><ele>51.333333333333336</ele><time>2026-04-04T14:01:46.999Z</time></trkpt><trkpt lat="42.336047113164106" lon="14.086596806435859"><ele>49.66666666666667</ele><time>2026-04-04T14:01:47.999Z</time></trkpt><trkpt lat="42.33611229147844" lon="14.08682176188931"><ele>48.0</ele><time>2026-04-04T14:01:48.999Z</time></trkpt><trkpt lat="42.33617794690699" lon="14.087053820494166"><ele>48.0</ele><time>2026-04-04T14:01:49.999Z</time></trkpt><trkpt lat="42.336242506664924" lon="14.087287039040122"><ele>48.0</ele><time>2026-04-04T14:01:50.999Z</time></trkpt><trkpt lat="42.33630271772424" lon="14.087506740768406"><ele>48.0</ele><time>2026-04-04T14:01:51.999Z</time></trkpt><trkpt lat="42.33636357377088" lon="14.087722668869526"><ele>48.66666666666667</ele><time>2026-04-04T14:01:52.999Z</time></trkpt><trkpt lat="42.33642797954569" lon="14.087936617271726"><ele>49.333333333333336</ele><time>2026-04-04T14:01:53.999Z</time></trkpt><trkpt lat="42.3364970668417" lon="14.088152803453049"><ele>50.0</ele><time>2026-04-04T14:01:54.999Z</time></trkpt><trkpt lat="42.33656192939297" lon="14.088362855428231"><ele>50.0</ele><time>2026-04-04T14:01:55.999Z</time></trkpt><trkpt lat="42.336618472010514" lon="14.088558827338987"><ele>50.0</ele><time>2026-04-04T14:01:56.999Z</time></trkpt><trkpt lat="42.336670372393954" lon="14.088742443309968"><ele>50.0</ele><time>2026-04-04T14:01:57.999Z</time></trkpt><trkpt lat="42.336715546480214" lon="14.0889118710467"><ele>50.0</ele><time>2026-04-04T14:01:58.999Z</time></trkpt><trkpt lat="42.336757461379015" lon="14.089076901325516"><ele>49.75</ele><time>2026-04-04T14:01:59.999Z</time></trkpt><trkpt lat="42.33680150661154" lon="14.089238793116394"><ele>49.5</ele><time>2026-04-04T14:02:00.999Z</time></trkpt><trkpt lat="42.336853317380566" lon="14.089403447987676"><ele>49.25</ele><time>2026-04-04T14:02:01.999Z</time></trkpt><trkpt lat="42.33690076816511" lon="14.089561211123916"><ele>49.0</ele><time>2026-04-04T14:02:02.999Z</time></trkpt><trkpt lat="42.336949384622876" lon="14.089719444621826"><ele>49.0</ele><time>2026-04-04T14:02:03.999Z</time></trkpt><trkpt lat="42.33699582215116" lon="14.089868667744"><ele>49.0</ele><time>2026-04-04T14:02:04.999Z</time></trkpt><trkpt lat="42.337045518340965" lon="14.09003069930593"><ele>49.0</ele><time>2026-04-04T14:02:05.999Z</time></trkpt><trkpt lat="42.3370942436283" lon="14.09021059161013"><ele>49.0</ele><time>2026-04-04T14:02:06.999Z</time></trkpt><trkpt lat="42.33714398108926" lon="14.090390932117574"><ele>49.25</ele><time>2026-04-04T14:02:07.999Z</time></trkpt><trkpt lat="42.33719562814645" lon="14.090579751141272"><ele>49.5</ele><time>2026-04-04T14:02:08.999Z</time></trkpt><trkpt lat="42.337244273692725" lon="14.090761767770978"><ele>49.75</ele><time>2026-04-04T14:02:09.999Z</time></trkpt><trkpt lat="42.33729157343497" lon="14.090959760551774"><ele>50.0</ele><time>2026-04-04T14:02:10.999Z</time></trkpt><trkpt lat="42.33733114925242" lon="14.091149787407804"><ele>50.0</ele><time>2026-04-04T14:02:11.999Z</time></trkpt><trkpt lat="42.33736841108931" lon="14.091332014534109"><ele>50.0</ele><time>2026-04-04T14:02:12.999Z</time></trkpt><trkpt lat="42.33740659062453" lon="14.09150854201801"><ele>50.0</ele><time>2026-04-04T14:02:13.999Z</time></trkpt><trkpt lat="42.33744483867844" lon="14.09168351764901"><ele>50.0</ele><time>2026-04-04T14:02:14.999Z</time></trkpt><trkpt lat="42.3374879680031" lon="14.09187362991854"><ele>50.25</ele><time>2026-04-04T14:02:15.999Z</time></trkpt><trkpt lat="42.33752830882793" lon="14.09205354046838"><ele>50.5</ele><time>2026-04-04T14:02:16.999Z</time></trkpt><trkpt lat="42.337568393383656" lon="14.092236784927868"><ele>50.75</ele><time>2026-04-04T14:02:17.999Z</time></trkpt><trkpt lat="42.33760692365937" lon="14.092416408428212"><ele>51.0</ele><time>2026-04-04T14:02:18.999Z</time></trkpt><trkpt lat="42.33764216667309" lon="14.092593824608969"><ele>51.75</ele><time>2026-04-04T14:02:19.999Z</time></trkpt><trkpt lat="42.337679726183104" lon="14.092769271641881"><ele>52.5</ele><time>2026-04-04T14:02:20.999Z</time></trkpt><trkpt lat="42.33771856487045" lon="14.092951266448974"><ele>53.25</ele><time>2026-04-04T14:02:21.999Z</time></trkpt><trkpt lat="42.33775825611204" lon="14.093119316217187"><ele>54.0</ele><time>2026-04-04T14:02:22.999Z</time></trkpt><trkpt lat="42.33779442784255" lon="14.093288166885857"><ele>54.25</ele><time>2026-04-04T14:02:23.999Z</time></trkpt><trkpt lat="42.33783394533091" lon="14.093468742447788"><ele>54.5</ele><time>2026-04-04T14:02:25Z</time></trkpt><trkpt lat="42.33787321496249" lon="14.093663292065907"><ele>54.75</ele><time>2026-04-04T14:02:26Z</time></trkpt><trkpt lat="42.337911772472346" lon="14.09386100959086"><ele>55.0</ele><time>2026-04-04T14:02:27Z</time></trkpt><trkpt lat="42.33795254771927" lon="14.094064582270402"><ele>54.25</ele><time>2026-04-04T14:02:28Z</time></trkpt><trkpt lat="42.337994755798775" lon="14.09425316056455"><ele>53.5</ele><time>2026-04-04T14:02:29Z</time></trkpt><trkpt lat="42.338037235430626" lon="14.094436902533566"><ele>52.75</ele><time>2026-04-04T14:02:30Z</time></trkpt><trkpt lat="42.338078832362584" lon="14.094620183499314"><ele>52.0</ele><time>2026-04-04T14:02:31Z</time></trkpt><trkpt lat="42.338118240726196" lon="14.094804274713265"><ele>52.25</ele><time>2026-04-04T14:02:32Z</time></trkpt><trkpt lat="42.33815714077262" lon="14.094986505988974"><ele>52.5</ele><time>2026-04-04T14:02:33Z</time></trkpt><trkpt lat="42.3381990005564" lon="14.095169689470707"><ele>52.75</ele><time>2026-04-04T14:02:34Z</time></trkpt><trkpt lat="42.338244304493706" lon="14.095357209199765"><ele>53.0</ele><time>2026-04-04T14:02:35Z</time></trkpt><trkpt lat="42.33828061953775" lon="14.0955346067758"><ele>53.0</ele><time>2026-04-04T14:02:36Z</time></trkpt><trkpt lat="42.338312635354704" lon="14.095703747245365"><ele>53.0</ele><time>2026-04-04T14:02:37Z</time></trkpt><trkpt lat="42.33834427682513" lon="14.095863732940895"><ele>53.0</ele><time>2026-04-04T14:02:38Z</time></trkpt><trkpt lat="42.33837525273101" lon="14.096015903115978"><ele>53.0</ele><time>2026-04-04T14:02:39Z</time></trkpt><trkpt lat="42.33840758416556" lon="14.096168256716211"><ele>53.25</ele><time>2026-04-04T14:02:40Z</time></trkpt><trkpt lat="42.33843965371823" lon="14.09633195669689"><ele>53.5</ele><time>2026-04-04T14:02:41Z</time></trkpt><trkpt lat="42.33846473394878" lon="14.096507917000947"><ele>53.75</ele><time>2026-04-04T14:02:42Z</time></trkpt><trkpt lat="42.33848767495375" lon="14.096693545275022"><ele>54.0</ele><time>2026-04-04T14:02:43Z</time></trkpt><trkpt lat="42.33850896187425" lon="14.09687513940777"><ele>54.0</ele><time>2026-04-04T14:02:44Z</time></trkpt><trkpt lat="42.338533698817805" lon="14.097056464084952"><ele>54.0</ele><time>2026-04-04T14:02:45Z</time></trkpt><trkpt lat="42.33856051701257" lon="14.097259815630874"><ele>54.0</ele><time>2026-04-04T14:02:46Z</time></trkpt><trkpt lat="42.338589979756144" lon="14.09748440030316"><ele>54.0</ele><time>2026-04-04T14:02:47Z</time></trkpt><trkpt lat="42.33860312253546" lon="14.097716819464292"><ele>54.0</ele><time>2026-04-04T14:02:48Z</time></trkpt><trkpt lat="42.3386312668242" lon="14.097962423671301"><ele>54.0</ele><time>2026-04-04T14:02:49Z</time></trkpt><trkpt lat="42.338661675128854" lon="14.098229436158379"><ele>53.33333333333333</ele><time>2026-04-04T14:02:50Z</time></trkpt><trkpt lat="42.338692205808314" lon="14.098501263721424"><ele>52.666666666666664</ele><time>2026-04-04T14:02:51Z</time></trkpt><trkpt lat="42.338721015157034" lon="14.098757765581471"><ele>52.0</ele><time>2026-04-04T14:02:52Z</time></trkpt><trkpt lat="42.3387611563822" lon="14.09902038575615"><ele>52.33333333333333</ele><time>2026-04-04T14:02:53Z</time></trkpt><trkpt lat="42.338786606729535" lon="14.099290494392838"><ele>52.66666666666667</ele><time>2026-04-04T14:02:54Z</time></trkpt><trkpt lat="42.33881773091607" lon="14.099570327506896"><ele>53.0</ele><time>2026-04-04T14:02:55Z</time></trkpt><trkpt lat="42.3388559187928" lon="14.09985198784833"><ele>53.0</ele><time>2026-04-04T14:02:56Z</time></trkpt><trkpt lat="42.33890523817879" lon="14.100128582962144"><ele>53.0</ele><time>2026-04-04T14:02:57Z</time></trkpt><trkpt lat="42.33896124366102" lon="14.100402251853895"><ele>53.0</ele><time>2026-04-04T14:02:58Z</time></trkpt><trkpt lat="42.33902442128504" lon="14.100678354054695"><ele>52.333333333333336</ele><time>2026-04-04T14:02:59Z</time></trkpt><trkpt lat="42.33909183358744" lon="14.100953553225903"><ele>51.66666666666667</ele><time>2026-04-04T14:03:00Z</time></trkpt><trkpt lat="42.33916486577218" lon="14.101226647715391"><ele>51.0</ele><time>2026-04-04T14:03:01Z</time></trkpt><trkpt lat="42.33923735077177" lon="14.101499833467212"><ele>50.66666666666667</ele><time>2026-04-04T14:03:02Z</time></trkpt><trkpt lat="42.339311811467866" lon="14.101770563034398"><ele>50.333333333333336</ele><time>2026-04-04T14:03:03Z</time></trkpt><trkpt lat="42.33938898588003" lon="14.102043373543127"><ele>50.0</ele><time>2026-04-04T14:03:04Z</time></trkpt><trkpt lat="42.33945946309299" lon="14.102308952299342"><ele>49.66666666666667</ele><time>2026-04-04T14:03:05Z</time></trkpt><trkpt lat="42.339534468697906" lon="14.102553216018729"><ele>49.33333333333333</ele><time>2026-04-04T14:03:06Z</time></trkpt><trkpt lat="42.33961300137612" lon="14.102804874682752"><ele>49.0</ele><time>2026-04-04T14:03:07Z</time></trkpt><trkpt lat="42.33969298185864" lon="14.103049204977614"><ele>50.0</ele><time>2026-04-04T14:03:08Z</time></trkpt><trkpt lat="42.33977595984427" lon="14.103299075145154"><ele>51.0</ele><time>2026-04-04T14:03:09Z</time></trkpt><trkpt lat="42.33986159088399" lon="14.103552378958025"><ele>52.0</ele><time>2026-04-04T14:03:10Z</time></trkpt><trkpt lat="42.33994750529415" lon="14.103807264438965"><ele>52.0</ele><time>2026-04-04T14:03:11Z</time></trkpt><trkpt lat="42.34003151695855" lon="14.104064967062442"><ele>52.0</ele><time>2026-04-04T14:03:12Z</time></trkpt><trkpt lat="42.34011550131449" lon="14.104325092601178"><ele>52.0</ele><time>2026-04-04T14:03:13Z</time></trkpt><trkpt lat="42.340202878042184" lon="14.10458365201603"><ele>51.33333333333333</ele><time>2026-04-04T14:03:14Z</time></trkpt><trkpt lat="42.34028859130425" lon="14.104845990157953"><ele>50.66666666666667</ele><time>2026-04-04T14:03:15Z</time></trkpt><trkpt lat="42.34037344057277" lon="14.105107356610958"><ele>50.0</ele><time>2026-04-04T14:03:16Z</time></trkpt><trkpt lat="42.340459923186096" lon="14.105368319035614"><ele>49.66666666666667</ele><time>2026-04-04T14:03:17Z</time></trkpt><trkpt lat="42.340544673565674" lon="14.105625285196027"><ele>49.33333333333333</ele><time>2026-04-04T14:03:18Z</time></trkpt><trkpt lat="42.340609239202266" lon="14.10587379173488"><ele>49.0</ele><time>2026-04-04T14:03:19Z</time></trkpt><trkpt lat="42.34070083730559" lon="14.106093011905852"><ele>49.0</ele><time>2026-04-04T14:03:20Z</time></trkpt><trkpt lat="42.3407761000466" lon="14.106317566200731"><ele>49.0</ele><time>2026-04-04T14:03:21Z</time></trkpt><trkpt lat="42.34085432988574" lon="14.106539405442545"><ele>49.0</ele><time>2026-04-04T14:03:22Z</time></trkpt><trkpt lat="42.340936918421654" lon="14.106751911315486"><ele>49.0</ele><time>2026-04-04T14:03:23Z</time></trkpt><trkpt lat="42.341029278340955" lon="14.106960426468413"><ele>49.0</ele><time>2026-04-04T14:03:24Z</time></trkpt><trkpt lat="42.34112889873068" lon="14.107151833050375"><ele>49.0</ele><time>2026-04-04T14:03:25Z</time></trkpt><trkpt lat="42.34123149908188" lon="14.107342991848268"><ele>49.0</ele><time>2026-04-04T14:03:26Z</time></trkpt><trkpt lat="42.34132930887994" lon="14.107541381022301"><ele>49.0</ele><time>2026-04-04T14:03:27Z</time></trkpt><trkpt lat="42.34142381770528" lon="14.107738446377276"><ele>49.0</ele><time>2026-04-04T14:03:28Z</time></trkpt><trkpt lat="42.34151980090576" lon="14.107930623075607"><ele>49.0</ele><time>2026-04-04T14:03:29Z</time></trkpt><trkpt lat="42.3416155233193" lon="14.10812241168198"><ele>49.0</ele><time>2026-04-04T14:03:30Z</time></trkpt><trkpt lat="42.34171178517958" lon="14.10832488903359"><ele>49.0</ele><time>2026-04-04T14:03:31Z</time></trkpt><trkpt lat="42.34181274883217" lon="14.108534445586233"><ele>49.0</ele><time>2026-04-04T14:03:32Z</time></trkpt><trkpt lat="42.341914359575654" lon="14.108740147635409"><ele>49.0</ele><time>2026-04-04T14:03:33Z</time></trkpt><trkpt lat="42.34202345425593" lon="14.10895877043078"><ele>49.0</ele><time>2026-04-04T14:03:34Z</time></trkpt><trkpt lat="42.34212839558981" lon="14.109160188609659"><ele>49.33333333333333</ele><time>2026-04-04T14:03:35Z</time></trkpt><trkpt lat="42.34222579444904" lon="14.109352237155782"><ele>49.66666666666667</ele><time>2026-04-04T14:03:36Z</time></trkpt><trkpt lat="42.342319608489504" lon="14.109541417432267"><ele>50.0</ele><time>2026-04-04T14:03:37Z</time></trkpt><trkpt lat="42.34240195228424" lon="14.109746191886277"><ele>49.66666666666667</ele><time>2026-04-04T14:03:38Z</time></trkpt><trkpt lat="42.342496501293105" lon="14.109937531361647"><ele>49.33333333333333</ele><time>2026-04-04T14:03:39Z</time></trkpt><trkpt lat="42.3425870441101" lon="14.110121902659914"><ele>49.0</ele><time>2026-04-04T14:03:40Z</time></trkpt><trkpt lat="42.34267250264779" lon="14.110296375821914"><ele>49.0</ele><time>2026-04-04T14:03:41Z</time></trkpt><trkpt lat="42.34276689821049" lon="14.110452965525903"><ele>49.0</ele><time>2026-04-04T14:03:42Z</time></trkpt><trkpt lat="42.342844171072386" lon="14.11061241372365"><ele>49.0</ele><time>2026-04-04T14:03:43Z</time></trkpt><trkpt lat="42.34291246539378" lon="14.11075205971085"><ele>49.0</ele><time>2026-04-04T14:03:44Z</time></trkpt><trkpt lat="42.34298008339224" lon="14.110877702468443"><ele>49.0</ele><time>2026-04-04T14:03:45Z</time></trkpt><trkpt lat="42.34305870104064" lon="14.110989679450913"><ele>49.0</ele><time>2026-04-04T14:03:46Z</time></trkpt><trkpt lat="42.34315948652487" lon="14.111077723803728"><ele>49.0</ele><time>2026-04-04T14:03:47Z</time></trkpt><trkpt lat="42.34327183641494" lon="14.111146096462438"><ele>49.0</ele><time>2026-04-04T14:03:48Z</time></trkpt><trkpt lat="42.34336639423374" lon="14.111197781689446"><ele>48.99999999999999</ele><time>2026-04-04T14:03:49Z</time></trkpt><trkpt lat="42.34344138859128" lon="14.111240564702236"><ele>49.0</ele><time>2026-04-04T14:03:50Z</time></trkpt><trkpt lat="42.34351925280895" lon="14.111321863991652"><ele>49.0</ele><time>2026-04-04T14:03:52Z</time></trkpt><trkpt lat="42.34355802721391" lon="14.111412301849619"><ele>49.0</ele><time>2026-04-04T14:03:53Z</time></trkpt><trkpt lat="42.343573695660105" lon="14.111526793223986"><ele>48.99999999999999</ele><time>2026-04-04T14:03:53.999Z</time></trkpt><trkpt lat="42.34355478221326" lon="14.111623063808857"><ele>49.0</ele><time>2026-04-04T14:03:54.999Z</time></trkpt><trkpt lat="42.343523239302996" lon="14.11174980605161"><ele>48.5</ele><time>2026-04-04T14:03:55.999Z</time></trkpt><trkpt lat="42.343498511975966" lon="14.111920318843993"><ele>48.0</ele><time>2026-04-04T14:03:56.999Z</time></trkpt><trkpt lat="42.34347880610264" lon="14.112097959375268"><ele>47.5</ele><time>2026-04-04T14:03:57.999Z</time></trkpt><trkpt lat="42.34346456371855" lon="14.112292648997304"><ele>47.0</ele><time>2026-04-04T14:03:58.999Z</time></trkpt><trkpt lat="42.343439608780635" lon="14.112506353891431"><ele>47.0</ele><time>2026-04-04T14:03:59.999Z</time></trkpt><trkpt lat="42.343413058403904" lon="14.11270872696543"><ele>47.0</ele><time>2026-04-04T14:04:00.999Z</time></trkpt><trkpt lat="42.34338714391088" lon="14.112892589653544"><ele>47.0</ele><time>2026-04-04T14:04:01.999Z</time></trkpt><trkpt lat="42.343362976460874" lon="14.113068600448324"><ele>47.0</ele><time>2026-04-04T14:04:02.999Z</time></trkpt><trkpt lat="42.34334169049053" lon="14.113239645143024"><ele>47.0</ele><time>2026-04-04T14:04:03.999Z</time></trkpt><trkpt lat="42.343322821701555" lon="14.113403024262"><ele>47.0</ele><time>2026-04-04T14:04:04.999Z</time></trkpt><trkpt lat="42.34330277214346" lon="14.113564750301956"><ele>47.0</ele><time>2026-04-04T14:04:05.999Z</time></trkpt><trkpt lat="42.34328307187031" lon="14.11371786385952"><ele>47.0</ele><time>2026-04-04T14:04:06.999Z</time></trkpt><trkpt lat="42.34326254313797" lon="14.113870085947218"><ele>47.0</ele><time>2026-04-04T14:04:07.999Z</time></trkpt><trkpt lat="42.34323458463889" lon="14.113999869487907"><ele>47.0</ele><time>2026-04-04T14:04:08.999Z</time></trkpt><trkpt lat="42.34322011498363" lon="14.114109062944685"><ele>47.0</ele><time>2026-04-04T14:04:09.999Z</time></trkpt><trkpt lat="42.34320682035645" lon="14.114209389096382"><ele>47.0</ele><time>2026-04-04T14:04:10.999Z</time></trkpt><trkpt lat="42.34320307650853" lon="14.114344876797016"><ele>47.0</ele><time>2026-04-04T14:04:12.999Z</time></trkpt><trkpt lat="42.34318258331024" lon="14.114490313835887"><ele>47.166666666666664</ele><time>2026-04-04T14:04:14.999Z</time></trkpt><trkpt lat="42.343170963576306" lon="14.114581856079122"><ele>47.33333333333333</ele><time>2026-04-04T14:04:15.999Z</time></trkpt><trkpt lat="42.343154496521414" lon="14.114695643376077"><ele>47.5</ele><time>2026-04-04T14:04:16.999Z</time></trkpt><trkpt lat="42.34313593682254" lon="14.114821275215398"><ele>47.666666666666664</ele><time>2026-04-04T14:04:17.999Z</time></trkpt><trkpt lat="42.34312432848841" lon="14.114932094365896"><ele>47.833333333333336</ele><time>2026-04-04T14:04:18.999Z</time></trkpt><trkpt lat="42.343095840436874" lon="14.115080167281803"><ele>48.0</ele><time>2026-04-04T14:04:19.999Z</time></trkpt><trkpt lat="42.34307699937605" lon="14.115214065481664"><ele>48.0</ele><time>2026-04-04T14:04:20.999Z</time></trkpt><trkpt lat="42.3430522930583" lon="14.115344430475853"><ele>48.0</ele><time>2026-04-04T14:04:21.999Z</time></trkpt><trkpt lat="42.34302841038616" lon="14.115485034590344"><ele>48.0</ele><time>2026-04-04T14:04:22.999Z</time></trkpt><trkpt lat="42.34300872768324" lon="14.115632073561835"><ele>48.0</ele><time>2026-04-04T14:04:23.999Z</time></trkpt><trkpt lat="42.342985553188356" lon="14.115764088581757"><ele>48.0</ele><time>2026-04-04T14:04:24.999Z</time></trkpt><trkpt lat="42.34295953154231" lon="14.115888709165022"><ele>47.599999999999994</ele><time>2026-04-04T14:04:25.999Z</time></trkpt><trkpt lat="42.3429380574796" lon="14.11601741514231"><ele>47.199999999999996</ele><time>2026-04-04T14:04:26.999Z</time></trkpt><trkpt lat="42.34292242220938" lon="14.116142414338762"><ele>46.8</ele><time>2026-04-04T14:04:27.999Z</time></trkpt><trkpt lat="42.34289769459252" lon="14.116266332947864"><ele>46.4</ele><time>2026-04-04T14:04:28.999Z</time></trkpt><trkpt lat="42.34287859408429" lon="14.116387621822415"><ele>46.0</ele><time>2026-04-04T14:04:29.999Z</time></trkpt><trkpt lat="42.34285171628438" lon="14.116517536145224"><ele>45.8</ele><time>2026-04-04T14:04:31.001Z</time></trkpt><trkpt lat="42.34282215298796" lon="14.116660347067821"><ele>45.599999999999994</ele><time>2026-04-04T14:04:32.001Z</time></trkpt><trkpt lat="42.34279407797373" lon="14.116812024912743"><ele>45.4</ele><time>2026-04-04T14:04:33.001Z</time></trkpt><trkpt lat="42.34276875609413" lon="14.116958987942027"><ele>45.2</ele><time>2026-04-04T14:04:34.001Z</time></trkpt><trkpt lat="42.34274045636655" lon="14.11708687672863"><ele>45.0</ele><time>2026-04-04T14:04:35.001Z</time></trkpt><trkpt lat="42.34272359769452" lon="14.117221476678667"><ele>45.0</ele><time>2026-04-04T14:04:36.001Z</time></trkpt><trkpt lat="42.34268314305963" lon="14.117370918728252"><ele>45.0</ele><time>2026-04-04T14:04:37.001Z</time></trkpt><trkpt lat="42.342649029484605" lon="14.117549849425316"><ele>45.0</ele><time>2026-04-04T14:04:38.001Z</time></trkpt><trkpt lat="42.342615716502166" lon="14.117723622482465"><ele>45.0</ele><time>2026-04-04T14:04:39.001Z</time></trkpt><trkpt lat="42.34258357409897" lon="14.11788762513908"><ele>43.5</ele><time>2026-04-04T14:04:40.001Z</time></trkpt><trkpt lat="42.342549467364385" lon="14.118059535753549"><ele>42.0</ele><time>2026-04-04T14:04:41.001Z</time></trkpt><trkpt lat="42.34253528492479" lon="14.11821508583554"><ele>40.5</ele><time>2026-04-04T14:04:42.001Z</time></trkpt><trkpt lat="42.342502950400124" lon="14.118367536281603"><ele>39.0</ele><time>2026-04-04T14:04:43Z</time></trkpt><trkpt lat="42.34244499308547" lon="14.118530628653245"><ele>37.0</ele><time>2026-04-04T14:04:44Z</time></trkpt><trkpt lat="42.342384457680694" lon="14.118719453024662"><ele>35.0</ele><time>2026-04-04T14:04:45Z</time></trkpt><trkpt lat="42.34230608844068" lon="14.118909829373303"><ele>33.0</ele><time>2026-04-04T14:04:46Z</time></trkpt><trkpt lat="42.342211018693824" lon="14.119098470091608"><ele>32.333333333333336</ele><time>2026-04-04T14:04:47Z</time></trkpt><trkpt lat="42.34210983834409" lon="14.11928648166693"><ele>31.666666666666668</ele><time>2026-04-04T14:04:48Z</time></trkpt><trkpt lat="42.3420063458469" lon="14.119478166770945"><ele>31.0</ele><time>2026-04-04T14:04:49Z</time></trkpt><trkpt lat="42.341915161150794" lon="14.119667894496242"><ele>31.0</ele><time>2026-04-04T14:04:50Z</time></trkpt><trkpt lat="42.34182125486915" lon="14.119836701295613"><ele>31.0</ele><time>2026-04-04T14:04:51Z</time></trkpt><trkpt lat="42.34172704911303" lon="14.120010723671792"><ele>31.0</ele><time>2026-04-04T14:04:52Z</time></trkpt><trkpt lat="42.34163718351434" lon="14.120177744378248"><ele>30.75</ele><time>2026-04-04T14:04:53Z</time></trkpt><trkpt lat="42.34155416116496" lon="14.120329276400073"><ele>30.5</ele><time>2026-04-04T14:04:54Z</time></trkpt><trkpt lat="42.34146915120567" lon="14.120478136562364"><ele>30.25</ele><time>2026-04-04T14:04:55Z</time></trkpt><trkpt lat="42.34139239237388" lon="14.120626097900548"><ele>30.0</ele><time>2026-04-04T14:04:56Z</time></trkpt><trkpt lat="42.34131802818584" lon="14.120769887982018"><ele>30.0</ele><time>2026-04-04T14:04:57Z</time></trkpt><trkpt lat="42.341243050890476" lon="14.120904640095915"><ele>30.0</ele><time>2026-04-04T14:04:58Z</time></trkpt><trkpt lat="42.3411670146162" lon="14.121017758163969"><ele>30.0</ele><time>2026-04-04T14:04:59Z</time></trkpt><trkpt lat="42.341088204431784" lon="14.121097899461525"><ele>30.0</ele><time>2026-04-04T14:05:00Z</time></trkpt><trkpt lat="42.340994035087455" lon="14.121166338081316"><ele>30.0</ele><time>2026-04-04T14:05:01Z</time></trkpt><trkpt lat="42.340912620216606" lon="14.121236363244343"><ele>30.0</ele><time>2026-04-04T14:05:02Z</time></trkpt><trkpt lat="42.340864147840065" lon="14.12134839293749"><ele>30.0</ele><time>2026-04-04T14:05:03Z</time></trkpt><trkpt lat="42.34084834943804" lon="14.121491815536293"><ele>30.0</ele><time>2026-04-04T14:05:04Z</time></trkpt><trkpt lat="42.340890930945555" lon="14.12165518320176"><ele>30.0</ele><time>2026-04-04T14:05:05Z</time></trkpt><trkpt lat="42.3408275948276" lon="14.121870752249766"><ele>31.333333333333336</ele><time>2026-04-04T14:05:06Z</time></trkpt><trkpt lat="42.340781835223424" lon="14.122090031909416"><ele>32.66666666666667</ele><time>2026-04-04T14:05:07Z</time></trkpt><trkpt lat="42.34076331927123" lon="14.122303427961864"><ele>34.0</ele><time>2026-04-04T14:05:08Z</time></trkpt><trkpt lat="42.34077387837598" lon="14.122507171760962"><ele>34.333333333333336</ele><time>2026-04-04T14:05:09Z</time></trkpt><trkpt lat="42.34080070987575" lon="14.122731984927103"><ele>34.666666666666664</ele><time>2026-04-04T14:05:10Z</time></trkpt><trkpt lat="42.34083766687418" lon="14.12295902966659"><ele>35.0</ele><time>2026-04-04T14:05:11Z</time></trkpt><trkpt lat="42.3408767039474" lon="14.1231791710056"><ele>35.33333333333333</ele><time>2026-04-04T14:05:12Z</time></trkpt><trkpt lat="42.340915585100014" lon="14.123406510746664"><ele>35.666666666666664</ele><time>2026-04-04T14:05:13Z</time></trkpt><trkpt lat="42.34094869100605" lon="14.123625026100894"><ele>36.0</ele><time>2026-04-04T14:05:14Z</time></trkpt><trkpt lat="42.34097972187427" lon="14.123828878742147"><ele>36.0</ele><time>2026-04-04T14:05:15Z</time></trkpt><trkpt lat="42.34101041750292" lon="14.124024579809669"><ele>36.0</ele><time>2026-04-04T14:05:16Z</time></trkpt><trkpt lat="42.34104368869699" lon="14.124233743751573"><ele>36.0</ele><time>2026-04-04T14:05:17Z</time></trkpt><trkpt lat="42.3410806271094" lon="14.124451470629593"><ele>35.75</ele><time>2026-04-04T14:05:18Z</time></trkpt><trkpt lat="42.34111912540446" lon="14.12465777908364"><ele>35.5</ele><time>2026-04-04T14:05:19Z</time></trkpt><trkpt lat="42.341138145339976" lon="14.124853954906339"><ele>35.25</ele><time>2026-04-04T14:05:20Z</time></trkpt><trkpt lat="42.34116892823776" lon="14.12504099437993"><ele>35.0</ele><time>2026-04-04T14:05:21Z</time></trkpt><trkpt lat="42.34120241445301" lon="14.125244459153864"><ele>35.0</ele><time>2026-04-04T14:05:22Z</time></trkpt><trkpt lat="42.34123970123478" lon="14.12546990103494"><ele>35.0</ele><time>2026-04-04T14:05:23Z</time></trkpt><trkpt lat="42.34127838738068" lon="14.12569826907362"><ele>35.0</ele><time>2026-04-04T14:05:24Z</time></trkpt><trkpt lat="42.341318255378695" lon="14.12593110595067"><ele>35.0</ele><time>2026-04-04T14:05:25Z</time></trkpt><trkpt lat="42.34136015955464" lon="14.126168626984244"><ele>35.0</ele><time>2026-04-04T14:05:26Z</time></trkpt><trkpt lat="42.34139988968184" lon="14.126393825105772"><ele>35.0</ele><time>2026-04-04T14:05:27Z</time></trkpt><trkpt lat="42.341436360868585" lon="14.126605065461307"><ele>35.0</ele><time>2026-04-04T14:05:28Z</time></trkpt><trkpt lat="42.3414727586986" lon="14.126819725022013"><ele>35.0</ele><time>2026-04-04T14:05:29Z</time></trkpt><trkpt lat="42.34151143118617" lon="14.12705033977685"><ele>35.0</ele><time>2026-04-04T14:05:30Z</time></trkpt><trkpt lat="42.34154645830565" lon="14.12726004952761"><ele>35.666666666666664</ele><time>2026-04-04T14:05:31Z</time></trkpt><trkpt lat="42.34161739701688" lon="14.12744221090054"><ele>36.333333333333336</ele><time>2026-04-04T14:05:32Z</time></trkpt><trkpt lat="42.341653339489945" lon="14.127651609185905"><ele>37.0</ele><time>2026-04-04T14:05:33Z</time></trkpt><trkpt lat="42.341691823386384" lon="14.127891052025431"><ele>37.0</ele><time>2026-04-04T14:05:34Z</time></trkpt><trkpt lat="42.341731444021136" lon="14.128128613125293"><ele>37.0</ele><time>2026-04-04T14:05:35Z</time></trkpt><trkpt lat="42.341767581528245" lon="14.12833852234334"><ele>37.0</ele><time>2026-04-04T14:05:36Z</time></trkpt><trkpt lat="42.34180109625954" lon="14.128527792544704"><ele>37.4</ele><time>2026-04-04T14:05:37Z</time></trkpt><trkpt lat="42.341803469025656" lon="14.128708385766007"><ele>37.800000000000004</ele><time>2026-04-04T14:05:38Z</time></trkpt><trkpt lat="42.341838236269055" lon="14.128858344076894"><ele>38.2</ele><time>2026-04-04T14:05:39Z</time></trkpt><trkpt lat="42.341872840530264" lon="14.128992554157646"><ele>38.6</ele><time>2026-04-04T14:05:40Z</time></trkpt><trkpt lat="42.34191540100178" lon="14.129092433710138"><ele>39.0</ele><time>2026-04-04T14:05:41Z</time></trkpt><trkpt lat="42.34191927086249" lon="14.129183041570613"><ele>39.833333333333336</ele><time>2026-04-04T14:05:42Z</time></trkpt><trkpt lat="42.34191550620272" lon="14.129284736958757"><ele>40.666666666666664</ele><time>2026-04-04T14:05:43Z</time></trkpt><trkpt lat="42.34190343207731" lon="14.129383570878039"><ele>41.5</ele><time>2026-04-04T14:05:44Z</time></trkpt><trkpt lat="42.34189479117584" lon="14.12946817653856"><ele>42.33333333333333</ele><time>2026-04-04T14:05:45Z</time></trkpt><trkpt lat="42.341935429498214" lon="14.129605085502751"><ele>43.166666666666664</ele><time>2026-04-04T14:05:47Z</time></trkpt><trkpt lat="42.341992145568874" lon="14.129689846772457"><ele>44.0</ele><time>2026-04-04T14:05:49Z</time></trkpt><trkpt lat="42.3420350193246" lon="14.129794725663004"><ele>44.33333333333333</ele><time>2026-04-04T14:05:51Z</time></trkpt><trkpt lat="42.34201037386543" lon="14.129948779398852"><ele>44.666666666666664</ele><time>2026-04-04T14:05:53Z</time></trkpt><trkpt lat="42.34200707704232" lon="14.130034434598091"><ele>45.0</ele><time>2026-04-04T14:05:54Z</time></trkpt><trkpt lat="42.34200228623199" lon="14.130126327832338"><ele>45.333333333333336</ele><time>2026-04-04T14:05:55Z</time></trkpt><trkpt lat="42.34198573882374" lon="14.130226197809387"><ele>45.66666666666667</ele><time>2026-04-04T14:05:56Z</time></trkpt><trkpt lat="42.341962586629165" lon="14.130321777943568"><ele>46.0</ele><time>2026-04-04T14:05:57Z</time></trkpt><trkpt lat="42.34194742314231" lon="14.130424796533326"><ele>46.0</ele><time>2026-04-04T14:05:58Z</time></trkpt><trkpt lat="42.3419120621715" lon="14.130516042801883"><ele>46.0</ele><time>2026-04-04T14:05:59Z</time></trkpt><trkpt lat="42.34186846844024" lon="14.130588867592651"><ele>46.0</ele><time>2026-04-04T14:06:00Z</time></trkpt><trkpt lat="42.341839716034706" lon="14.130666794777467"><ele>46.0</ele><time>2026-04-04T14:06:00.999Z</time></trkpt><trkpt lat="42.34181809175698" lon="14.130746984919519"><ele>46.0</ele><time>2026-04-04T14:06:01.999Z</time></trkpt><trkpt lat="42.34178911711344" lon="14.130823909187546"><ele>46.0</ele><time>2026-04-04T14:06:02.999Z</time></trkpt><trkpt lat="42.341719685645124" lon="14.130957117025368"><ele>46.199999999999996</ele><time>2026-04-04T14:06:04.999Z</time></trkpt><trkpt lat="42.34163785387721" lon="14.1310807322561"><ele>46.4</ele><time>2026-04-04T14:06:06.999Z</time></trkpt><trkpt lat="42.34162804273806" lon="14.1311726044291"><ele>46.6</ele><time>2026-04-04T14:06:07.999Z</time></trkpt><trkpt lat="42.34165154739855" lon="14.131291020373611"><ele>46.8</ele><time>2026-04-04T14:06:08.999Z</time></trkpt><trkpt lat="42.341617236267346" lon="14.131416901531983"><ele>47.0</ele><time>2026-04-04T14:06:09.999Z</time></trkpt><trkpt lat="42.34157298649458" lon="14.131559220526885"><ele>47.166666666666664</ele><time>2026-04-04T14:06:10.999Z</time></trkpt><trkpt lat="42.34153167188981" lon="14.131725311377728"><ele>47.33333333333333</ele><time>2026-04-04T14:06:11.999Z</time></trkpt><trkpt lat="42.34149419524581" lon="14.131848897507636"><ele>47.5</ele><time>2026-04-04T14:06:12.999Z</time></trkpt><trkpt lat="42.3414542737125" lon="14.13192023954805"><ele>47.666666666666664</ele><time>2026-04-04T14:06:13.999Z</time></trkpt><trkpt lat="42.341419239364214" lon="14.132010260192184"><ele>47.833333333333336</ele><time>2026-04-04T14:06:15.999Z</time></trkpt><trkpt lat="42.341393824419114" lon="14.132100785343162"><ele>48.0</ele><time>2026-04-04T14:06:18.999Z</time></trkpt><trkpt lat="42.34158047265311" lon="14.132280304413529"><ele>48.0</ele><time>2026-04-04T14:06:19.999Z</time></trkpt><trkpt lat="42.34167929773696" lon="14.132343300355071"><ele>48.0</ele><time>2026-04-04T14:06:20.999Z</time></trkpt><trkpt lat="42.34180165326229" lon="14.132384435757626"><ele>48.0</ele><time>2026-04-04T14:06:21.999Z</time></trkpt><trkpt lat="42.341953348705836" lon="14.132425800629042"><ele>48.0</ele><time>2026-04-04T14:06:22.999Z</time></trkpt><trkpt lat="42.34210658344033" lon="14.132468606769931"><ele>48.0</ele><time>2026-04-04T14:06:23.999Z</time></trkpt><trkpt lat="42.34225749088949" lon="14.132517408426018"><ele>48.0</ele><time>2026-04-04T14:06:24.999Z</time></trkpt><trkpt lat="42.34241247953476" lon="14.132577215476584"><ele>48.0</ele><time>2026-04-04T14:06:25.999Z</time></trkpt><trkpt lat="42.3425704574189" lon="14.132650386297383"><ele>48.0</ele><time>2026-04-04T14:06:26.999Z</time></trkpt><trkpt lat="42.342726271265704" lon="14.132744196088822"><ele>48.0</ele><time>2026-04-04T14:06:27.999Z</time></trkpt><trkpt lat="42.34287905626614" lon="14.132859381306377"><ele>48.0</ele><time>2026-04-04T14:06:28.999Z</time></trkpt><trkpt lat="42.34303797702982" lon="14.132994136402301"><ele>47.666666666666664</ele><time>2026-04-04T14:06:29.999Z</time></trkpt><trkpt lat="42.34319731000338" lon="14.133121642938782"><ele>47.33333333333333</ele><time>2026-04-04T14:06:30.999Z</time></trkpt><trkpt lat="42.34336472225533" lon="14.133244046038502"><ele>47.0</ele><time>2026-04-04T14:06:31.999Z</time></trkpt><trkpt lat="42.34354003302224" lon="14.133371905115942"><ele>47.666666666666664</ele><time>2026-04-04T14:06:32.999Z</time></trkpt><trkpt lat="42.34371597262531" lon="14.133497998689608"><ele>48.33333333333333</ele><time>2026-04-04T14:06:33.999Z</time></trkpt><trkpt lat="42.34388394093083" lon="14.133606881667685"><ele>49.0</ele><time>2026-04-04T14:06:34.999Z</time></trkpt><trkpt lat="42.34406516826487" lon="14.133712247807932"><ele>49.0</ele><time>2026-04-04T14:06:35.999Z</time></trkpt><trkpt lat="42.34425422299248" lon="14.133810541644275"><ele>49.0</ele><time>2026-04-04T14:06:37Z</time></trkpt><trkpt lat="42.34445119887894" lon="14.1339004854104"><ele>49.0</ele><time>2026-04-04T14:06:38Z</time></trkpt><trkpt lat="42.34465579245813" lon="14.133977453316303"><ele>48.666666666666664</ele><time>2026-04-04T14:06:39Z</time></trkpt><trkpt lat="42.34486953264811" lon="14.13404490306175"><ele>48.33333333333333</ele><time>2026-04-04T14:06:40Z</time></trkpt><trkpt lat="42.34507674919922" lon="14.13409566077478"><ele>48.0</ele><time>2026-04-04T14:06:41Z</time></trkpt><trkpt lat="42.3452958149115" lon="14.134133010398532"><ele>48.0</ele><time>2026-04-04T14:06:42Z</time></trkpt><trkpt lat="42.34552078525763" lon="14.13415988405451"><ele>48.0</ele><time>2026-04-04T14:06:43Z</time></trkpt><trkpt lat="42.34574455373102" lon="14.13416979475479"><ele>48.0</ele><time>2026-04-04T14:06:44Z</time></trkpt><trkpt lat="42.34597248238422" lon="14.134166764650752"><ele>48.0</ele><time>2026-04-04T14:06:45Z</time></trkpt><trkpt lat="42.34620100868149" lon="14.134146568019819"><ele>48.0</ele><time>2026-04-04T14:06:46Z</time></trkpt><trkpt lat="42.34642347953375" lon="14.134109847240119"><ele>48.0</ele><time>2026-04-04T14:06:47Z</time></trkpt><trkpt lat="42.34664300802376" lon="14.13405495669376"><ele>48.0</ele><time>2026-04-04T14:06:48Z</time></trkpt><trkpt lat="42.34687297905543" lon="14.133983384976903"><ele>46.5</ele><time>2026-04-04T14:06:49Z</time></trkpt><trkpt lat="42.34710858227792" lon="14.133893625366944"><ele>45.0</ele><time>2026-04-04T14:06:50Z</time></trkpt><trkpt lat="42.347350642540206" lon="14.13380058904727"><ele>45.0</ele><time>2026-04-04T14:06:51Z</time></trkpt><trkpt lat="42.34759547362513" lon="14.13371013258369"><ele>45.0</ele><time>2026-04-04T14:06:52Z</time></trkpt><trkpt lat="42.34784272240807" lon="14.133623446209416"><ele>45.0</ele><time>2026-04-04T14:06:53Z</time></trkpt><trkpt lat="42.34809568468606" lon="14.133545465716878"><ele>45.0</ele><time>2026-04-04T14:06:54Z</time></trkpt><trkpt lat="42.34834840470927" lon="14.133470398941423"><ele>45.0</ele><time>2026-04-04T14:06:55Z</time></trkpt><trkpt lat="42.34859064383888" lon="14.133403110735696"><ele>45.0</ele><time>2026-04-04T14:06:56Z</time></trkpt><trkpt lat="42.34883694999122" lon="14.133332949532264"><ele>44.5</ele><time>2026-04-04T14:06:57Z</time></trkpt><trkpt lat="42.349082943047485" lon="14.133261084169849"><ele>44.0</ele><time>2026-04-04T14:06:58Z</time></trkpt><trkpt lat="42.34932693940949" lon="14.133192106282074"><ele>42.5</ele><time>2026-04-04T14:06:59Z</time></trkpt><trkpt lat="42.34957276262578" lon="14.13312728711098"><ele>41.0</ele><time>2026-04-04T14:07:00Z</time></trkpt><trkpt lat="42.34981598586889" lon="14.13307060367332"><ele>39.0</ele><time>2026-04-04T14:07:01Z</time></trkpt><trkpt lat="42.35005953098852" lon="14.13302242694794"><ele>37.0</ele><time>2026-04-04T14:07:02Z</time></trkpt><trkpt lat="42.35029479869422" lon="14.132985272799637"><ele>37.0</ele><time>2026-04-04T14:07:03Z</time></trkpt><trkpt lat="42.35053011996563" lon="14.132951532885558"><ele>37.0</ele><time>2026-04-04T14:07:04Z</time></trkpt><trkpt lat="42.350765579058006" lon="14.132915585238962"><ele>37.0</ele><time>2026-04-04T14:07:05Z</time></trkpt><trkpt lat="42.35099796126932" lon="14.132878813375255"><ele>37.0</ele><time>2026-04-04T14:07:06Z</time></trkpt><trkpt lat="42.35122808844711" lon="14.132840471776774"><ele>38.0</ele><time>2026-04-04T14:07:07Z</time></trkpt><trkpt lat="42.35146034978205" lon="14.132803326761955"><ele>39.0</ele><time>2026-04-04T14:07:08Z</time></trkpt><trkpt lat="42.35169055263277" lon="14.132761956945476"><ele>39.0</ele><time>2026-04-04T14:07:09Z</time></trkpt><trkpt lat="42.35192144734276" lon="14.132726679908092"><ele>39.0</ele><time>2026-04-04T14:07:10Z</time></trkpt><trkpt lat="42.35215225256828" lon="14.132694759990738"><ele>40.5</ele><time>2026-04-04T14:07:11Z</time></trkpt><trkpt lat="42.35238860228299" lon="14.132666063922786"><ele>42.0</ele><time>2026-04-04T14:07:12Z</time></trkpt><trkpt lat="42.35262043305481" lon="14.132631414684404"><ele>42.0</ele><time>2026-04-04T14:07:13Z</time></trkpt><trkpt lat="42.35285686089596" lon="14.132595367203695"><ele>42.0</ele><time>2026-04-04T14:07:14Z</time></trkpt><trkpt lat="42.353088992422784" lon="14.13255777462267"><ele>42.5</ele><time>2026-04-04T14:07:15Z</time></trkpt><trkpt lat="42.3533229820522" lon="14.132520404855814"><ele>43.0</ele><time>2026-04-04T14:07:16Z</time></trkpt><trkpt lat="42.35355703382572" lon="14.132479935098587"><ele>43.0</ele><time>2026-04-04T14:07:17Z</time></trkpt><trkpt lat="42.35378802416083" lon="14.132439324796028"><ele>43.0</ele><time>2026-04-04T14:07:18Z</time></trkpt><trkpt lat="42.35402116527558" lon="14.132405726395561"><ele>41.333333333333336</ele><time>2026-04-04T14:07:19Z</time></trkpt><trkpt lat="42.35424110227272" lon="14.13237198462826"><ele>39.666666666666664</ele><time>2026-04-04T14:07:20Z</time></trkpt><trkpt lat="42.354447499564046" lon="14.132336952339069"><ele>38.0</ele><time>2026-04-04T14:07:21Z</time></trkpt><trkpt lat="42.35464411113529" lon="14.132302311202048"><ele>39.666666666666664</ele><time>2026-04-04T14:07:22Z</time></trkpt><trkpt lat="42.35483825931943" lon="14.13226912517522"><ele>41.333333333333336</ele><time>2026-04-04T14:07:23Z</time></trkpt><trkpt lat="42.35503466075442" lon="14.13224011200994"><ele>43.0</ele><time>2026-04-04T14:07:24Z</time></trkpt><trkpt lat="42.355226876467384" lon="14.132213747155506"><ele>43.0</ele><time>2026-04-04T14:07:25Z</time></trkpt><trkpt lat="42.35541714921861" lon="14.132187166367931"><ele>43.0</ele><time>2026-04-04T14:07:26Z</time></trkpt><trkpt lat="42.35560210379923" lon="14.132157759085423"><ele>43.0</ele><time>2026-04-04T14:07:27Z</time></trkpt><trkpt lat="42.35579394408877" lon="14.132126097056332"><ele>43.0</ele><time>2026-04-04T14:07:28Z</time></trkpt><trkpt lat="42.35597938753693" lon="14.132089248221584"><ele>43.0</ele><time>2026-04-04T14:07:29Z</time></trkpt><trkpt lat="42.356164595787135" lon="14.132058094244304"><ele>43.0</ele><time>2026-04-04T14:07:30Z</time></trkpt><trkpt lat="42.356347306799336" lon="14.132028507386739"><ele>42.333333333333336</ele><time>2026-04-04T14:07:31Z</time></trkpt><trkpt lat="42.356532009106594" lon="14.13200345512756"><ele>41.666666666666664</ele><time>2026-04-04T14:07:32Z</time></trkpt><trkpt lat="42.35671567639275" lon="14.131977572314586"><ele>41.0</ele><time>2026-04-04T14:07:33Z</time></trkpt><trkpt lat="42.356903555942985" lon="14.131952478839343"><ele>41.0</ele><time>2026-04-04T14:07:34Z</time></trkpt><trkpt lat="42.35709141145658" lon="14.13192435983384"><ele>41.0</ele><time>2026-04-04T14:07:35Z</time></trkpt><trkpt lat="42.35727971223413" lon="14.131895268704808"><ele>41.0</ele><time>2026-04-04T14:07:36Z</time></trkpt><trkpt lat="42.357474529560825" lon="14.13186267578546"><ele>41.0</ele><time>2026-04-04T14:07:37Z</time></trkpt><trkpt lat="42.35767135787674" lon="14.131828371274802"><ele>41.0</ele><time>2026-04-04T14:07:38Z</time></trkpt><trkpt lat="42.357870793549125" lon="14.13179836093922"><ele>41.0</ele><time>2026-04-04T14:07:39Z</time></trkpt><trkpt lat="42.35807011145436" lon="14.131773654431164"><ele>41.0</ele><time>2026-04-04T14:07:40Z</time></trkpt><trkpt lat="42.358270974474415" lon="14.131760367660535"><ele>41.0</ele><time>2026-04-04T14:07:41Z</time></trkpt><trkpt lat="42.35846964994805" lon="14.131754083317984"><ele>41.0</ele><time>2026-04-04T14:07:42Z</time></trkpt><trkpt lat="42.35866492264898" lon="14.131746238218563"><ele>41.0</ele><time>2026-04-04T14:07:43Z</time></trkpt><trkpt lat="42.3588603750084" lon="14.131739357496219"><ele>41.0</ele><time>2026-04-04T14:07:44Z</time></trkpt><trkpt lat="42.35905655422035" lon="14.131739426069268"><ele>41.0</ele><time>2026-04-04T14:07:45Z</time></trkpt><trkpt lat="42.359254374510925" lon="14.131744261875841"><ele>41.0</ele><time>2026-04-04T14:07:46Z</time></trkpt><trkpt lat="42.359451492354985" lon="14.131746321801089"><ele>41.0</ele><time>2026-04-04T14:07:47Z</time></trkpt><trkpt lat="42.35965613396656" lon="14.131754826494719"><ele>41.0</ele><time>2026-04-04T14:07:48Z</time></trkpt><trkpt lat="42.35986960248076" lon="14.131776200028273"><ele>41.0</ele><time>2026-04-04T14:07:49Z</time></trkpt><trkpt lat="42.36008910449724" lon="14.131804453288055"><ele>41.0</ele><time>2026-04-04T14:07:50Z</time></trkpt><trkpt lat="42.36031306121946" lon="14.131840187064078"><ele>41.0</ele><time>2026-04-04T14:07:51Z</time></trkpt><trkpt lat="42.360539022518445" lon="14.131885370369082"><ele>40.5</ele><time>2026-04-04T14:07:52Z</time></trkpt><trkpt lat="42.36077133843985" lon="14.131942440078594"><ele>40.0</ele><time>2026-04-04T14:07:53Z</time></trkpt><trkpt lat="42.36100634167198" lon="14.132008160575467"><ele>40.0</ele><time>2026-04-04T14:07:54Z</time></trkpt><trkpt lat="42.361247142759495" lon="14.132078294630778"><ele>40.0</ele><time>2026-04-04T14:07:55Z</time></trkpt><trkpt lat="42.361489501858486" lon="14.132151365817357"><ele>39.0</ele><time>2026-04-04T14:07:56Z</time></trkpt><trkpt lat="42.36173665169727" lon="14.132223463242576"><ele>38.0</ele><time>2026-04-04T14:07:57Z</time></trkpt><trkpt lat="42.36198539472678" lon="14.132298148276664"><ele>38.5</ele><time>2026-04-04T14:07:58Z</time></trkpt><trkpt lat="42.36223150632534" lon="14.132375250559548"><ele>39.0</ele><time>2026-04-04T14:07:59Z</time></trkpt><trkpt lat="42.3624771205903" lon="14.132456001759875"><ele>39.5</ele><time>2026-04-04T14:08:00Z</time></trkpt><trkpt lat="42.362712442206735" lon="14.132522671309413"><ele>40.0</ele><time>2026-04-04T14:08:01Z</time></trkpt><trkpt lat="42.362947630630934" lon="14.132590494463035"><ele>40.5</ele><time>2026-04-04T14:08:02Z</time></trkpt><trkpt lat="42.36318316130839" lon="14.132662192540602"><ele>41.0</ele><time>2026-04-04T14:08:03Z</time></trkpt><trkpt lat="42.363415822492456" lon="14.132734721629738"><ele>41.0</ele><time>2026-04-04T14:08:04Z</time></trkpt><trkpt lat="42.36364704514512" lon="14.132807465579496"><ele>41.0</ele><time>2026-04-04T14:08:05Z</time></trkpt><trkpt lat="42.36387542515679" lon="14.132879047227611"><ele>40.0</ele><time>2026-04-04T14:08:06Z</time></trkpt><trkpt lat="42.36410431438995" lon="14.132955283313738"><ele>39.0</ele><time>2026-04-04T14:08:06.999Z</time></trkpt><trkpt lat="42.36433276803782" lon="14.133030156926255"><ele>39.0</ele><time>2026-04-04T14:08:07.999Z</time></trkpt><trkpt lat="42.36455993505466" lon="14.133099940657795"><ele>39.0</ele><time>2026-04-04T14:08:08.999Z</time></trkpt><trkpt lat="42.364785042105005" lon="14.133165148703421"><ele>38.5</ele><time>2026-04-04T14:08:09.999Z</time></trkpt><trkpt lat="42.365012127024265" lon="14.133231070416198"><ele>38.0</ele><time>2026-04-04T14:08:10.999Z</time></trkpt><trkpt lat="42.365239211642084" lon="14.133298370187918"><ele>38.0</ele><time>2026-04-04T14:08:11.999Z</time></trkpt><trkpt lat="42.36546677449779" lon="14.133371216061484"><ele>38.0</ele><time>2026-04-04T14:08:12.999Z</time></trkpt><trkpt lat="42.36569398612272" lon="14.133443977454885"><ele>37.0</ele><time>2026-04-04T14:08:13.999Z</time></trkpt><trkpt lat="42.36592252854882" lon="14.133514481826769"><ele>36.0</ele><time>2026-04-04T14:08:14.999Z</time></trkpt><trkpt lat="42.366152399487035" lon="14.133586237567803"><ele>35.5</ele><time>2026-04-04T14:08:15.999Z</time></trkpt><trkpt lat="42.36638401303094" lon="14.133662467855098"><ele>35.0</ele><time>2026-04-04T14:08:16.999Z</time></trkpt><trkpt lat="42.366615132216836" lon="14.133730904419673"><ele>35.0</ele><time>2026-04-04T14:08:17.999Z</time></trkpt><trkpt lat="42.36685034752891" lon="14.133801152027674"><ele>35.0</ele><time>2026-04-04T14:08:18.999Z</time></trkpt><trkpt lat="42.36708390561122" lon="14.133873710357994"><ele>34.5</ele><time>2026-04-04T14:08:19.999Z</time></trkpt><trkpt lat="42.367315145014146" lon="14.133948130387187"><ele>34.0</ele><time>2026-04-04T14:08:20.999Z</time></trkpt><trkpt lat="42.367544586485074" lon="14.134020965448503"><ele>36.0</ele><time>2026-04-04T14:08:21.999Z</time></trkpt><trkpt lat="42.367779226594905" lon="14.134096255417184"><ele>38.0</ele><time>2026-04-04T14:08:22.999Z</time></trkpt><trkpt lat="42.368013694902956" lon="14.134166687196672"><ele>36.0</ele><time>2026-04-04T14:08:23.999Z</time></trkpt><trkpt lat="42.36824970525643" lon="14.134235562279542"><ele>34.0</ele><time>2026-04-04T14:08:24.999Z</time></trkpt><trkpt lat="42.36848560200733" lon="14.134305240058621"><ele>34.0</ele><time>2026-04-04T14:08:25.999Z</time></trkpt><trkpt lat="42.36872164246373" lon="14.134377866567299"><ele>34.0</ele><time>2026-04-04T14:08:26.999Z</time></trkpt><trkpt lat="42.368956906026106" lon="14.13445280941296"><ele>32.0</ele><time>2026-04-04T14:08:27.999Z</time></trkpt><trkpt lat="42.369190595367144" lon="14.134535548238897"><ele>30.0</ele><time>2026-04-04T14:08:28.999Z</time></trkpt><trkpt lat="42.36942562177169" lon="14.134621422070165"><ele>30.0</ele><time>2026-04-04T14:08:29.999Z</time></trkpt><trkpt lat="42.36966238544398" lon="14.134704398709298"><ele>30.0</ele><time>2026-04-04T14:08:30.999Z</time></trkpt><trkpt lat="42.36989834595588" lon="14.134781002177462"><ele>30.5</ele><time>2026-04-04T14:08:31.999Z</time></trkpt><trkpt lat="42.37013440194992" lon="14.134855458382628"><ele>31.0</ele><time>2026-04-04T14:08:32.999Z</time></trkpt><trkpt lat="42.370371470436304" lon="14.134927107973823"><ele>30.5</ele><time>2026-04-04T14:08:33.999Z</time></trkpt><trkpt lat="42.37060887164463" lon="14.134995441538164"><ele>30.0</ele><time>2026-04-04T14:08:34.999Z</time></trkpt><trkpt lat="42.37084678134089" lon="14.13506728890379"><ele>30.0</ele><time>2026-04-04T14:08:35.999Z</time></trkpt><trkpt lat="42.371084592790034" lon="14.135140299901677"><ele>30.0</ele><time>2026-04-04T14:08:36.999Z</time></trkpt><trkpt lat="42.37132160957073" lon="14.135213925318642"><ele>30.5</ele><time>2026-04-04T14:08:37.999Z</time></trkpt><trkpt lat="42.37156332746627" lon="14.13529265045148"><ele>31.0</ele><time>2026-04-04T14:08:38.999Z</time></trkpt><trkpt lat="42.371801030399006" lon="14.135368005619775"><ele>31.0</ele><time>2026-04-04T14:08:39.999Z</time></trkpt><trkpt lat="42.372042541407424" lon="14.135439021474316"><ele>31.0</ele><time>2026-04-04T14:08:40.999Z</time></trkpt><trkpt lat="42.37227857389301" lon="14.135509097313125"><ele>31.0</ele><time>2026-04-04T14:08:42Z</time></trkpt><trkpt lat="42.37251671190421" lon="14.135582954255744"><ele>31.0</ele><time>2026-04-04T14:08:43Z</time></trkpt><trkpt lat="42.37275290456683" lon="14.135656077942423"><ele>32.0</ele><time>2026-04-04T14:08:44Z</time></trkpt><trkpt lat="42.37298802201914" lon="14.135730701667956"><ele>33.0</ele><time>2026-04-04T14:08:45Z</time></trkpt><trkpt lat="42.3732206028551" lon="14.13580169551673"><ele>33.5</ele><time>2026-04-04T14:08:46Z</time></trkpt><trkpt lat="42.37345200724323" lon="14.135869712047699"><ele>34.0</ele><time>2026-04-04T14:08:47Z</time></trkpt><trkpt lat="42.37368696817807" lon="14.135943197377383"><ele>33.0</ele><time>2026-04-04T14:08:48Z</time></trkpt><trkpt lat="42.37391619866033" lon="14.136015377715085"><ele>32.0</ele><time>2026-04-04T14:08:49Z</time></trkpt><trkpt lat="42.3741450965548" lon="14.136083124867621"><ele>32.0</ele><time>2026-04-04T14:08:50Z</time></trkpt><trkpt lat="42.374373020868596" lon="14.136154037859912"><ele>32.0</ele><time>2026-04-04T14:08:51Z</time></trkpt><trkpt lat="42.374602234348195" lon="14.136226583578706"><ele>32.0</ele><time>2026-04-04T14:08:52Z</time></trkpt><trkpt lat="42.37482833512739" lon="14.136298441581374"><ele>32.0</ele><time>2026-04-04T14:08:53Z</time></trkpt><trkpt lat="42.37505301369384" lon="14.136367429537659"><ele>32.0</ele><time>2026-04-04T14:08:54Z</time></trkpt><trkpt lat="42.37527787545242" lon="14.136440896583757"><ele>32.0</ele><time>2026-04-04T14:08:55Z</time></trkpt><trkpt lat="42.375506471680026" lon="14.136518005706948"><ele>31.5</ele><time>2026-04-04T14:08:56Z</time></trkpt><trkpt lat="42.37573436379386" lon="14.13658658185198"><ele>31.0</ele><time>2026-04-04T14:08:57Z</time></trkpt><trkpt lat="42.37596506772959" lon="14.136660305902637"><ele>31.0</ele><time>2026-04-04T14:08:58Z</time></trkpt><trkpt lat="42.37619707783792" lon="14.136732771849799"><ele>31.0</ele><time>2026-04-04T14:08:59Z</time></trkpt><trkpt lat="42.37642896711498" lon="14.13680121876681"><ele>31.0</ele><time>2026-04-04T14:09:00Z</time></trkpt><trkpt lat="42.376661929186305" lon="14.136875721079681"><ele>31.0</ele><time>2026-04-04T14:09:01Z</time></trkpt><trkpt lat="42.37689531244928" lon="14.136948747314225"><ele>31.0</ele><time>2026-04-04T14:09:02Z</time></trkpt><trkpt lat="42.37713078600186" lon="14.137018535279498"><ele>31.0</ele><time>2026-04-04T14:09:03Z</time></trkpt><trkpt lat="42.37736343056934" lon="14.13708078174514"><ele>31.0</ele><time>2026-04-04T14:09:04Z</time></trkpt><trkpt lat="42.3775823373293" lon="14.13715015868618"><ele>31.0</ele><time>2026-04-04T14:09:05Z</time></trkpt><trkpt lat="42.37779073412856" lon="14.137217472776799"><ele>31.0</ele><time>2026-04-04T14:09:06Z</time></trkpt><trkpt lat="42.3779981820631" lon="14.137289827935598"><ele>31.333333333333336</ele><time>2026-04-04T14:09:07Z</time></trkpt><trkpt lat="42.37820040207543" lon="14.137367539593729"><ele>31.666666666666664</ele><time>2026-04-04T14:09:08Z</time></trkpt><trkpt lat="42.37840891162148" lon="14.137452848125482"><ele>32.0</ele><time>2026-04-04T14:09:09Z</time></trkpt><trkpt lat="42.37860947492215" lon="14.137556361487102"><ele>32.0</ele><time>2026-04-04T14:09:10Z</time></trkpt><trkpt lat="42.37880849807286" lon="14.13767881039155"><ele>32.0</ele><time>2026-04-04T14:09:11Z</time></trkpt><trkpt lat="42.379000937357965" lon="14.137817750991273"><ele>32.0</ele><time>2026-04-04T14:09:12Z</time></trkpt><trkpt lat="42.37919471650127" lon="14.137975359245756"><ele>32.0</ele><time>2026-04-04T14:09:13Z</time></trkpt><trkpt lat="42.379381276030855" lon="14.138147074772144"><ele>32.0</ele><time>2026-04-04T14:09:14Z</time></trkpt><trkpt lat="42.37956672591824" lon="14.138333066821925"><ele>32.0</ele><time>2026-04-04T14:09:15Z</time></trkpt><trkpt lat="42.379742129600245" lon="14.138534137235968"><ele>32.0</ele><time>2026-04-04T14:09:16Z</time></trkpt><trkpt lat="42.379911917281305" lon="14.138752025778752"><ele>32.0</ele><time>2026-04-04T14:09:17Z</time></trkpt><trkpt lat="42.38006611633938" lon="14.13898760649261"><ele>32.0</ele><time>2026-04-04T14:09:18Z</time></trkpt><trkpt lat="42.38021598492692" lon="14.139239961356807"><ele>31.5</ele><time>2026-04-04T14:09:19Z</time></trkpt><trkpt lat="42.38035240485236" lon="14.139499191496833"><ele>31.0</ele><time>2026-04-04T14:09:20Z</time></trkpt><trkpt lat="42.38048058235563" lon="14.13977352995436"><ele>31.0</ele><time>2026-04-04T14:09:21Z</time></trkpt><trkpt lat="42.380587649398244" lon="14.140061846378106"><ele>31.0</ele><time>2026-04-04T14:09:22Z</time></trkpt><trkpt lat="42.380711210288474" lon="14.140331495723675"><ele>31.0</ele><time>2026-04-04T14:09:23Z</time></trkpt><trkpt lat="42.38077561259308" lon="14.140650898551"><ele>31.0</ele><time>2026-04-04T14:09:24Z</time></trkpt><trkpt lat="42.380849046623986" lon="14.140960062157005"><ele>31.0</ele><time>2026-04-04T14:09:25Z</time></trkpt><trkpt lat="42.380911050078076" lon="14.141281044913558"><ele>31.0</ele><time>2026-04-04T14:09:26Z</time></trkpt><trkpt lat="42.3809589322149" lon="14.141603656902063"><ele>31.0</ele><time>2026-04-04T14:09:27Z</time></trkpt><trkpt lat="42.380991600272246" lon="14.141940155706404"><ele>31.0</ele><time>2026-04-04T14:09:28Z</time></trkpt><trkpt lat="42.38101099200755" lon="14.142261272152451"><ele>31.0</ele><time>2026-04-04T14:09:29Z</time></trkpt><trkpt lat="42.38102250189012" lon="14.142570220664188"><ele>31.0</ele><time>2026-04-04T14:09:30Z</time></trkpt><trkpt lat="42.38103062229946" lon="14.142882153421722"><ele>31.0</ele><time>2026-04-04T14:09:31Z</time></trkpt><trkpt lat="42.38103650377268" lon="14.143202771156988"><ele>31.0</ele><time>2026-04-04T14:09:32Z</time></trkpt><trkpt lat="42.38104364190266" lon="14.143524870498931"><ele>30.5</ele><time>2026-04-04T14:09:33Z</time></trkpt><trkpt lat="42.38105291213532" lon="14.143851553462072"><ele>30.0</ele><time>2026-04-04T14:09:34Z</time></trkpt><trkpt lat="42.381060595202655" lon="14.144181022355195"><ele>29.5</ele><time>2026-04-04T14:09:35Z</time></trkpt><trkpt lat="42.38106767427249" lon="14.144510404554648"><ele>29.0</ele><time>2026-04-04T14:09:36Z</time></trkpt><trkpt lat="42.381075149334094" lon="14.144838802894357"><ele>29.5</ele><time>2026-04-04T14:09:37Z</time></trkpt><trkpt lat="42.381084091452486" lon="14.145170275513259"><ele>30.0</ele><time>2026-04-04T14:09:38Z</time></trkpt><trkpt lat="42.38109259813315" lon="14.145476734012957"><ele>29.666666666666664</ele><time>2026-04-04T14:09:39Z</time></trkpt><trkpt lat="42.381100860770125" lon="14.145777140701558"><ele>29.333333333333332</ele><time>2026-04-04T14:09:40Z</time></trkpt><trkpt lat="42.38110758483071" lon="14.146081725983707"><ele>29.0</ele><time>2026-04-04T14:09:41Z</time></trkpt><trkpt lat="42.38111510258544" lon="14.146378993531297"><ele>29.666666666666664</ele><time>2026-04-04T14:09:42Z</time></trkpt><trkpt lat="42.38113175427975" lon="14.146680992221215"><ele>30.333333333333336</ele><time>2026-04-04T14:09:43Z</time></trkpt><trkpt lat="42.38115833951195" lon="14.146975558247558"><ele>31.0</ele><time>2026-04-04T14:09:44Z</time></trkpt><trkpt lat="42.38119373571837" lon="14.147269300490557"><ele>31.0</ele><time>2026-04-04T14:09:45Z</time></trkpt><trkpt lat="42.38123595394947" lon="14.147560877247638"><ele>31.0</ele><time>2026-04-04T14:09:46Z</time></trkpt><trkpt lat="42.381287693490805" lon="14.147851269251113"><ele>31.0</ele><time>2026-04-04T14:09:47Z</time></trkpt><trkpt lat="42.381353578365285" lon="14.148137255687182"><ele>30.666666666666668</ele><time>2026-04-04T14:09:48Z</time></trkpt><trkpt lat="42.38143177453992" lon="14.148422304567756"><ele>30.333333333333336</ele><time>2026-04-04T14:09:49Z</time></trkpt><trkpt lat="42.38151026347023" lon="14.148688486496605"><ele>30.0</ele><time>2026-04-04T14:09:50Z</time></trkpt><trkpt lat="42.3815987708574" lon="14.14895142637256"><ele>30.333333333333336</ele><time>2026-04-04T14:09:51Z</time></trkpt><trkpt lat="42.38169685161872" lon="14.149204411287723"><ele>30.666666666666668</ele><time>2026-04-04T14:09:52Z</time></trkpt><trkpt lat="42.38181468340588" lon="14.149456449980843"><ele>31.0</ele><time>2026-04-04T14:09:53Z</time></trkpt><trkpt lat="42.38194435410921" lon="14.149692830081978"><ele>31.333333333333336</ele><time>2026-04-04T14:09:54Z</time></trkpt><trkpt lat="42.38208120843645" lon="14.149921857277517"><ele>31.666666666666664</ele><time>2026-04-04T14:09:55Z</time></trkpt><trkpt lat="42.38222034441658" lon="14.150140175538395"><ele>32.0</ele><time>2026-04-04T14:09:56Z</time></trkpt><trkpt lat="42.382361300720966" lon="14.15033678251378"><ele>32.0</ele><time>2026-04-04T14:09:57Z</time></trkpt><trkpt lat="42.38250284984361" lon="14.150510135929103"><ele>32.0</ele><time>2026-04-04T14:09:58Z</time></trkpt><trkpt lat="42.38264331464883" lon="14.150664725258675"><ele>32.0</ele><time>2026-04-04T14:09:59Z</time></trkpt><trkpt lat="42.38278164142296" lon="14.150793783161394"><ele>32.0</ele><time>2026-04-04T14:10:00Z</time></trkpt><trkpt lat="42.3829426893787" lon="14.150925388546257"><ele>32.0</ele><time>2026-04-04T14:10:01Z</time></trkpt><trkpt lat="42.38312087113725" lon="14.151064058750132"><ele>32.0</ele><time>2026-04-04T14:10:02Z</time></trkpt><trkpt lat="42.38330363914842" lon="14.151224146619475"><ele>32.666666666666664</ele><time>2026-04-04T14:10:03Z</time></trkpt><trkpt lat="42.38348918439984" lon="14.151392199112527"><ele>33.333333333333336</ele><time>2026-04-04T14:10:04Z</time></trkpt><trkpt lat="42.38367798140426" lon="14.151556605366583"><ele>34.0</ele><time>2026-04-04T14:10:05Z</time></trkpt><trkpt lat="42.38387777712931" lon="14.151738531706958"><ele>32.0</ele><time>2026-04-04T14:10:06Z</time></trkpt><trkpt lat="42.38408454279761" lon="14.151931227637217"><ele>30.0</ele><time>2026-04-04T14:10:06.999Z</time></trkpt><trkpt lat="42.38430501242934" lon="14.152117366020772"><ele>30.0</ele><time>2026-04-04T14:10:07.999Z</time></trkpt><trkpt lat="42.38453241899145" lon="14.152282840504718"><ele>30.0</ele><time>2026-04-04T14:10:08.999Z</time></trkpt><trkpt lat="42.384746325326724" lon="14.152417001302783"><ele>32.0</ele><time>2026-04-04T14:10:09.999Z</time></trkpt><trkpt lat="42.38496028843339" lon="14.152544437821387"><ele>34.0</ele><time>2026-04-04T14:10:10.999Z</time></trkpt><trkpt lat="42.38518247116931" lon="14.152666559914795"><ele>34.0</ele><time>2026-04-04T14:10:11.999Z</time></trkpt><trkpt lat="42.38542325356677" lon="14.152785698010113"><ele>34.0</ele><time>2026-04-04T14:10:12.999Z</time></trkpt><trkpt lat="42.38567439317293" lon="14.152896915103328"><ele>31.0</ele><time>2026-04-04T14:10:13.999Z</time></trkpt><trkpt lat="42.385932529204304" lon="14.152997661381828"><ele>28.0</ele><time>2026-04-04T14:10:14.999Z</time></trkpt><trkpt lat="42.386188909062184" lon="14.15308773577169"><ele>30.0</ele><time>2026-04-04T14:10:15.999Z</time></trkpt><trkpt lat="42.386442752921326" lon="14.153171240220411"><ele>32.0</ele><time>2026-04-04T14:10:16.999Z</time></trkpt><trkpt lat="42.38668594368796" lon="14.153252279551536"><ele>32.0</ele><time>2026-04-04T14:10:17.999Z</time></trkpt><trkpt lat="42.38693463848972" lon="14.153336981580196"><ele>32.0</ele><time>2026-04-04T14:10:18.999Z</time></trkpt><trkpt lat="42.38718759678335" lon="14.153423682249846"><ele>30.5</ele><time>2026-04-04T14:10:19.999Z</time></trkpt><trkpt lat="42.38744156781181" lon="14.15351339931417"><ele>29.0</ele><time>2026-04-04T14:10:20.999Z</time></trkpt><trkpt lat="42.38769753996258" lon="14.153601010460775"><ele>29.0</ele><time>2026-04-04T14:10:21.999Z</time></trkpt><trkpt lat="42.38794681996904" lon="14.153684443700243"><ele>29.0</ele><time>2026-04-04T14:10:22.999Z</time></trkpt><trkpt lat="42.38819452499194" lon="14.153769550658714"><ele>28.0</ele><time>2026-04-04T14:10:23.999Z</time></trkpt><trkpt lat="42.388435465568946" lon="14.153849955285915"><ele>27.0</ele><time>2026-04-04T14:10:24.999Z</time></trkpt><trkpt lat="42.38867097328278" lon="14.153939032188276"><ele>28.0</ele><time>2026-04-04T14:10:25.999Z</time></trkpt><trkpt lat="42.38890105979402" lon="14.154036406388261"><ele>29.0</ele><time>2026-04-04T14:10:26.999Z</time></trkpt><trkpt lat="42.38912716442449" lon="14.154143452119557"><ele>29.0</ele><time>2026-04-04T14:10:27.999Z</time></trkpt><trkpt lat="42.38935259673289" lon="14.154270476115492"><ele>29.0</ele><time>2026-04-04T14:10:28.999Z</time></trkpt><trkpt lat="42.389578827699765" lon="14.154417085392817"><ele>25.0</ele><time>2026-04-04T14:10:29.999Z</time></trkpt><trkpt lat="42.389806868845405" lon="14.154583408029096"><ele>21.0</ele><time>2026-04-04T14:10:30.999Z</time></trkpt><trkpt lat="42.390030658865086" lon="14.154768969381273"><ele>24.5</ele><time>2026-04-04T14:10:31.999Z</time></trkpt><trkpt lat="42.39024921276871" lon="14.154976603418314"><ele>28.0</ele><time>2026-04-04T14:10:32.999Z</time></trkpt><trkpt lat="42.39046462270341" lon="14.155205300435512"><ele>24.0</ele><time>2026-04-04T14:10:33.999Z</time></trkpt><trkpt lat="42.390678322034326" lon="14.15543318546638"><ele>20.0</ele><time>2026-04-04T14:10:34.999Z</time></trkpt><trkpt lat="42.390894449223005" lon="14.155674297357702"><ele>22.0</ele><time>2026-04-04T14:10:35.999Z</time></trkpt><trkpt lat="42.39110754282377" lon="14.155908996812295"><ele>24.0</ele><time>2026-04-04T14:10:36.999Z</time></trkpt><trkpt lat="42.39132135582593" lon="14.156145536931835"><ele>21.5</ele><time>2026-04-04T14:10:37.999Z</time></trkpt><trkpt lat="42.39153687259885" lon="14.156384339015421"><ele>19.0</ele><time>2026-04-04T14:10:38.999Z</time></trkpt><trkpt lat="42.39175270979673" lon="14.156621066716834"><ele>19.0</ele><time>2026-04-04T14:10:39.999Z</time></trkpt><trkpt lat="42.39195971683383" lon="14.15684532346541"><ele>19.0</ele><time>2026-04-04T14:10:40.999Z</time></trkpt><trkpt lat="42.39215791098451" lon="14.157066986301276"><ele>19.0</ele><time>2026-04-04T14:10:41.999Z</time></trkpt><trkpt lat="42.39235878198311" lon="14.157288646841357"><ele>19.0</ele><time>2026-04-04T14:10:42.999Z</time></trkpt><trkpt lat="42.39255880771541" lon="14.15750752622462"><ele>18.5</ele><time>2026-04-04T14:10:43.999Z</time></trkpt><trkpt lat="42.39275836025609" lon="14.15772439313124"><ele>18.0</ele><time>2026-04-04T14:10:44.999Z</time></trkpt><trkpt lat="42.392943247689004" lon="14.157932735650315"><ele>18.5</ele><time>2026-04-04T14:10:45.999Z</time></trkpt><trkpt lat="42.39312198563951" lon="14.158132724060389"><ele>19.0</ele><time>2026-04-04T14:10:47Z</time></trkpt><trkpt lat="42.39330112403808" lon="14.158330084440262"><ele>19.666666666666664</ele><time>2026-04-04T14:10:48Z</time></trkpt><trkpt lat="42.39346528354786" lon="14.158515462387221"><ele>20.333333333333332</ele><time>2026-04-04T14:10:49Z</time></trkpt><trkpt lat="42.3936161305868" lon="14.158691242629473"><ele>21.0</ele><time>2026-04-04T14:10:50Z</time></trkpt><trkpt lat="42.393764663408156" lon="14.15888512476105"><ele>22.666666666666664</ele><time>2026-04-04T14:10:51Z</time></trkpt><trkpt lat="42.39390392851758" lon="14.159085065908789"><ele>24.333333333333332</ele><time>2026-04-04T14:10:52Z</time></trkpt><trkpt lat="42.3940454848081" lon="14.159282099475398"><ele>26.0</ele><time>2026-04-04T14:10:53Z</time></trkpt><trkpt lat="42.39419739148829" lon="14.159465547771962"><ele>26.0</ele><time>2026-04-04T14:10:54Z</time></trkpt><trkpt lat="42.39434867880143" lon="14.159630157745282"><ele>26.0</ele><time>2026-04-04T14:10:55Z</time></trkpt><trkpt lat="42.39450266614066" lon="14.159789859924173"><ele>26.0</ele><time>2026-04-04T14:10:56Z</time></trkpt><trkpt lat="42.39464541921342" lon="14.159932165996171"><ele>25.666666666666664</ele><time>2026-04-04T14:10:57Z</time></trkpt><trkpt lat="42.394779451136664" lon="14.16008654406149"><ele>25.333333333333336</ele><time>2026-04-04T14:10:58Z</time></trkpt><trkpt lat="42.394901645898194" lon="14.16022392904772"><ele>25.0</ele><time>2026-04-04T14:10:59Z</time></trkpt><trkpt lat="42.395014032478436" lon="14.160342024137593"><ele>25.0</ele><time>2026-04-04T14:11:00Z</time></trkpt><trkpt lat="42.395119837640195" lon="14.160458611294505"><ele>25.0</ele><time>2026-04-04T14:11:01Z</time></trkpt><trkpt lat="42.39522022582784" lon="14.16056933188129"><ele>25.0</ele><time>2026-04-04T14:11:02Z</time></trkpt><trkpt lat="42.39532470327582" lon="14.160680806829092"><ele>25.0</ele><time>2026-04-04T14:11:03Z</time></trkpt><trkpt lat="42.39541304584305" lon="14.160777316794807"><ele>25.333333333333336</ele><time>2026-04-04T14:11:04Z</time></trkpt><trkpt lat="42.395477170954045" lon="14.160864482236525"><ele>25.666666666666668</ele><time>2026-04-04T14:11:05Z</time></trkpt><trkpt lat="42.39550993692111" lon="14.160957781973268"><ele>26.0</ele><time>2026-04-04T14:11:06Z</time></trkpt><trkpt lat="42.39551394425993" lon="14.161058201049949"><ele>26.333333333333336</ele><time>2026-04-04T14:11:07Z</time></trkpt><trkpt lat="42.39548729063761" lon="14.161164031374101"><ele>26.666666666666668</ele><time>2026-04-04T14:11:08Z</time></trkpt><trkpt lat="42.395421925473045" lon="14.161259521601727"><ele>27.0</ele><time>2026-04-04T14:11:09Z</time></trkpt><trkpt lat="42.395326233231344" lon="14.16135122365394"><ele>27.25</ele><time>2026-04-04T14:11:10Z</time></trkpt><trkpt lat="42.39522618288729" lon="14.161443781163458"><ele>27.5</ele><time>2026-04-04T14:11:11Z</time></trkpt><trkpt lat="42.39514467141962" lon="14.16153400264528"><ele>27.75</ele><time>2026-04-04T14:11:12Z</time></trkpt><trkpt lat="42.39506402034844" lon="14.161633010499168"><ele>28.0</ele><time>2026-04-04T14:11:13Z</time></trkpt><trkpt lat="42.39497988081549" lon="14.161741942520276"><ele>29.0</ele><time>2026-04-04T14:11:14Z</time></trkpt><trkpt lat="42.394886823588045" lon="14.161861359818335"><ele>30.0</ele><time>2026-04-04T14:11:15Z</time></trkpt><trkpt lat="42.3948041250441" lon="14.161985616465476"><ele>31.0</ele><time>2026-04-04T14:11:16Z</time></trkpt><trkpt lat="42.39473354789927" lon="14.162119569134088"><ele>32.0</ele><time>2026-04-04T14:11:17Z</time></trkpt><trkpt lat="42.39467895053292" lon="14.162269943731063"><ele>32.0</ele><time>2026-04-04T14:11:18Z</time></trkpt><trkpt lat="42.39462112179445" lon="14.162428303289799"><ele>32.0</ele><time>2026-04-04T14:11:19Z</time></trkpt><trkpt lat="42.394562867478825" lon="14.162574745058446"><ele>32.0</ele><time>2026-04-04T14:11:20Z</time></trkpt><trkpt lat="42.39450751598475" lon="14.162709194292523"><ele>32.0</ele><time>2026-04-04T14:11:21Z</time></trkpt><trkpt lat="42.39445454094905" lon="14.162845946760577"><ele>32.0</ele><time>2026-04-04T14:11:22Z</time></trkpt><trkpt lat="42.394406918910164" lon="14.16298291983003"><ele>32.0</ele><time>2026-04-04T14:11:23Z</time></trkpt><trkpt lat="42.394355026643716" lon="14.163119171920433"><ele>32.0</ele><time>2026-04-04T14:11:24Z</time></trkpt><trkpt lat="42.39430999482641" lon="14.163244088028843"><ele>32.0</ele><time>2026-04-04T14:11:25Z</time></trkpt><trkpt lat="42.39427638503924" lon="14.163391445230936"><ele>32.0</ele><time>2026-04-04T14:11:26Z</time></trkpt><trkpt lat="42.3942784493323" lon="14.16355808643176"><ele>32.5</ele><time>2026-04-04T14:11:27Z</time></trkpt><trkpt lat="42.39430678823124" lon="14.16373287126223"><ele>33.0</ele><time>2026-04-04T14:11:28Z</time></trkpt><trkpt lat="42.39434766551701" lon="14.163895708100625"><ele>33.5</ele><time>2026-04-04T14:11:29Z</time></trkpt><trkpt lat="42.39439919758902" lon="14.164051846601938"><ele>34.0</ele><time>2026-04-04T14:11:30Z</time></trkpt><trkpt lat="42.39447522724281" lon="14.164182564511488"><ele>33.75</ele><time>2026-04-04T14:11:31Z</time></trkpt><trkpt lat="42.394565924519675" lon="14.164294301665118"><ele>33.5</ele><time>2026-04-04T14:11:32Z</time></trkpt><trkpt lat="42.39464966638281" lon="14.164419513934494"><ele>33.25</ele><time>2026-04-04T14:11:33Z</time></trkpt><trkpt lat="42.39472088927481" lon="14.164571565769764"><ele>33.0</ele><time>2026-04-04T14:11:34Z</time></trkpt><trkpt lat="42.394781484397186" lon="14.164715647269933"><ele>33.0</ele><time>2026-04-04T14:11:35Z</time></trkpt><trkpt lat="42.394832512508486" lon="14.164850290515947"><ele>33.0</ele><time>2026-04-04T14:11:36Z</time></trkpt><trkpt lat="42.394864537521244" lon="14.164989135009854"><ele>33.0</ele><time>2026-04-04T14:11:37Z</time></trkpt><trkpt lat="42.394853675899434" lon="14.165128795325218"><ele>33.0</ele><time>2026-04-04T14:11:38Z</time></trkpt><trkpt lat="42.394908794246724" lon="14.165232349019451"><ele>33.0</ele><time>2026-04-04T14:11:39Z</time></trkpt><trkpt lat="42.39494544064425" lon="14.165325225096666"><ele>34.199999999999996</ele><time>2026-04-04T14:11:40Z</time></trkpt><trkpt lat="42.39505319913422" lon="14.16533070646785"><ele>35.4</ele><time>2026-04-04T14:11:41Z</time></trkpt><trkpt lat="42.39514545923487" lon="14.165325048939973"><ele>36.599999999999994</ele><time>2026-04-04T14:11:42Z</time></trkpt><trkpt lat="42.39522464904514" lon="14.16527904008165"><ele>37.8</ele><time>2026-04-04T14:11:43Z</time></trkpt><trkpt lat="42.395297280450364" lon="14.165210571168378"><ele>39.0</ele><time>2026-04-04T14:11:44Z</time></trkpt><trkpt lat="42.39531235785206" lon="14.165062872036083"><ele>39.0</ele><time>2026-04-04T14:11:45Z</time></trkpt><trkpt lat="42.39530983316207" lon="14.164928758145669"><ele>39.0</ele><time>2026-04-04T14:11:46Z</time></trkpt><trkpt lat="42.39527918060268" lon="14.164798658763186"><ele>39.0</ele><time>2026-04-04T14:11:47Z</time></trkpt><trkpt lat="42.39521058222365" lon="14.164697311252537"><ele>39.0</ele><time>2026-04-04T14:11:48Z</time></trkpt><trkpt lat="42.39509938632638" lon="14.164650401295955"><ele>39.0</ele><time>2026-04-04T14:11:49Z</time></trkpt><trkpt lat="42.39499905370662" lon="14.1646094710675"><ele>37.5</ele><time>2026-04-04T14:11:50Z</time></trkpt><trkpt lat="42.39494834524358" lon="14.164447912109301"><ele>36.0</ele><time>2026-04-04T14:11:51Z</time></trkpt><trkpt lat="42.39490904027911" lon="14.164304684430267"><ele>34.5</ele><time>2026-04-04T14:11:52Z</time></trkpt><trkpt lat="42.39488478412048" lon="14.164160039520624"><ele>33.0</ele><time>2026-04-04T14:11:53Z</time></trkpt><trkpt lat="42.39488265328757" lon="14.164026127124428"><ele>32.75</ele><time>2026-04-04T14:11:54Z</time></trkpt><trkpt lat="42.39490903277576" lon="14.163872121988293"><ele>32.5</ele><time>2026-04-04T14:11:55Z</time></trkpt><trkpt lat="42.39494846468684" lon="14.163710182785266"><ele>32.25</ele><time>2026-04-04T14:11:56Z</time></trkpt><trkpt lat="42.39497842185039" lon="14.163568584689555"><ele>32.0</ele><time>2026-04-04T14:11:57Z</time></trkpt><trkpt lat="42.395021804812814" lon="14.163448932147466"><ele>32.0</ele><time>2026-04-04T14:11:58Z</time></trkpt><trkpt lat="42.395101062779794" lon="14.163337800688668"><ele>32.0</ele><time>2026-04-04T14:11:59Z</time></trkpt><trkpt lat="42.39518462290936" lon="14.16325422560179"><ele>32.0</ele><time>2026-04-04T14:12:00Z</time></trkpt><trkpt lat="42.39525624564721" lon="14.163180326452776"><ele>32.0</ele><time>2026-04-04T14:12:01Z</time></trkpt><trkpt lat="42.3953420420912" lon="14.163131657805058"><ele>32.0</ele><time>2026-04-04T14:12:02Z</time></trkpt><trkpt lat="42.395439995875925" lon="14.163160824300558"><ele>32.0</ele><time>2026-04-04T14:12:03Z</time></trkpt><trkpt lat="42.39554643218625" lon="14.163234973631585"><ele>32.0</ele><time>2026-04-04T14:12:04Z</time></trkpt><trkpt lat="42.39565164851347" lon="14.163328714953689"><ele>32.0</ele><time>2026-04-04T14:12:05Z</time></trkpt><trkpt lat="42.39574723031536" lon="14.163399087755677"><ele>32.0</ele><time>2026-04-04T14:12:06Z</time></trkpt><trkpt lat="42.39583878401608" lon="14.163464095083693"><ele>32.0</ele><time>2026-04-04T14:12:07Z</time></trkpt><trkpt lat="42.39593301148918" lon="14.163531883498212"><ele>32.0</ele><time>2026-04-04T14:12:08Z</time></trkpt><trkpt lat="42.39603911257777" lon="14.16360938387181"><ele>32.0</ele><time>2026-04-04T14:12:09Z</time></trkpt><trkpt lat="42.39615083645315" lon="14.163687389598577"><ele>32.0</ele><time>2026-04-04T14:12:10Z</time></trkpt><trkpt lat="42.39627039572111" lon="14.163773834107559"><ele>31.5</ele><time>2026-04-04T14:12:11Z</time></trkpt><trkpt lat="42.39639365925313" lon="14.1638600792431"><ele>31.0</ele><time>2026-04-04T14:12:12Z</time></trkpt><trkpt lat="42.39650775131002" lon="14.163946427160132"><ele>30.5</ele><time>2026-04-04T14:12:13Z</time></trkpt><trkpt lat="42.396634892630644" lon="14.16405069386416"><ele>30.0</ele><time>2026-04-04T14:12:14Z</time></trkpt><trkpt lat="42.39678924934499" lon="14.164166159048175"><ele>30.0</ele><time>2026-04-04T14:12:15Z</time></trkpt><trkpt lat="42.39695839604606" lon="14.164293981944446"><ele>30.0</ele><time>2026-04-04T14:12:16Z</time></trkpt><trkpt lat="42.39710139461717" lon="14.16441461494946"><ele>30.0</ele><time>2026-04-04T14:12:17Z</time></trkpt><trkpt lat="42.397217828765946" lon="14.164532557684007"><ele>30.2</ele><time>2026-04-04T14:12:17.998Z</time></trkpt><trkpt lat="42.39730842222159" lon="14.164658770205477"><ele>30.4</ele><time>2026-04-04T14:12:18.998Z</time></trkpt><trkpt lat="42.39732501847679" lon="14.164815959400983"><ele>30.6</ele><time>2026-04-04T14:12:19.998Z</time></trkpt><trkpt lat="42.39736040299182" lon="14.164894150145852"><ele>30.8</ele><time>2026-04-04T14:12:20.998Z</time></trkpt><trkpt lat="42.3974759755104" lon="14.164912771846957"><ele>31.0</ele><time>2026-04-04T14:12:22.998Z</time></trkpt><trkpt lat="42.39755999270916" lon="14.164821574818944"><ele>30.500000000000004</ele><time>2026-04-04T14:12:24.998Z</time></trkpt><trkpt lat="42.39756803927358" lon="14.164708959181285"><ele>30.0</ele><time>2026-04-04T14:12:25.998Z</time></trkpt><trkpt lat="42.39753943195582" lon="14.164588248570949"><ele>29.5</ele><time>2026-04-04T14:12:26.998Z</time></trkpt><trkpt lat="42.39747710685439" lon="14.164489155105427"><ele>29.0</ele><time>2026-04-04T14:12:27.998Z</time></trkpt><trkpt lat="42.39749957433211" lon="14.164367678801979"><ele>28.500000000000004</ele><time>2026-04-04T14:12:29.998Z</time></trkpt><trkpt lat="42.39754249047992" lon="14.164276713959035"><ele>28.0</ele><time>2026-04-04T14:12:30.998Z</time></trkpt><trkpt lat="42.397544759011986" lon="14.164182523277885"><ele>28.0</ele><time>2026-04-04T14:12:31.998Z</time></trkpt><trkpt lat="42.39748503365252" lon="14.16407349630869"><ele>27.999999999999996</ele><time>2026-04-04T14:12:33.998Z</time></trkpt><trkpt lat="42.39758992161177" lon="14.164155836139377"><ele>27.999999999999996</ele><time>2026-04-04T14:12:58.999Z</time></trkpt><trkpt lat="42.39750444479665" lon="14.164075120368711"><ele>28.0</ele><time>2026-04-04T14:13:17.999Z</time></trkpt><trkpt lat="42.397450268150564" lon="14.16399313384423"><ele>28.0</ele><time>2026-04-04T14:17:03.049Z</time></trkpt><trkpt lat="42.39750341263659" lon="14.164130465650718"><ele>28.0</ele><time>2026-04-04T14:19:22.02Z</time></trkpt><trkpt lat="42.397562613129836" lon="14.164194249015763"><ele>27.999999999999996</ele><time>2026-04-04T14:20:29.999Z</time></trkpt><trkpt lat="42.39747716575246" lon="14.16404464413976"><ele>27.999999999999996</ele><time>2026-04-04T14:20:58.488Z</time></trkpt><trkpt lat="42.39752118551593" lon="14.164180187322618"><ele>28.0</ele><time>2026-04-04T14:27:33.423Z</time></trkpt><trkpt lat="42.39751518443089" lon="14.16433359925534"><ele>28.0</ele><time>2026-04-04T14:28:44.999Z</time></trkpt><trkpt lat="42.39746689869179" lon="14.164397107076086"><ele>28.0</ele><time>2026-04-04T14:28:45.999Z</time></trkpt><trkpt lat="42.39740395698331" lon="14.164490291856236"><ele>27.999999999999996</ele><time>2026-04-04T14:28:47.999Z</time></trkpt><trkpt lat="42.397293374522484" lon="14.164488973685806"><ele>27.999999999999996</ele><time>2026-04-04T14:28:50.999Z</time></trkpt><trkpt lat="42.3972138481121" lon="14.164417970109188"><ele>28.0</ele><time>2026-04-04T14:28:51.999Z</time></trkpt><trkpt lat="42.397116525957145" lon="14.164313588521834"><ele>28.0</ele><time>2026-04-04T14:28:52.999Z</time></trkpt><trkpt lat="42.397021920882956" lon="14.16422699620398"><ele>28.25</ele><time>2026-04-04T14:28:53.999Z</time></trkpt><trkpt lat="42.396922546353004" lon="14.164150415898066"><ele>28.5</ele><time>2026-04-04T14:28:54.999Z</time></trkpt><trkpt lat="42.39681812725835" lon="14.164070275903313"><ele>28.75</ele><time>2026-04-04T14:28:55.999Z</time></trkpt><trkpt lat="42.39671017410678" lon="14.16398152263006"><ele>29.0</ele><time>2026-04-04T14:28:56.999Z</time></trkpt><trkpt lat="42.396589861269035" lon="14.163888146644503"><ele>29.0</ele><time>2026-04-04T14:28:57.999Z</time></trkpt><trkpt lat="42.39645755770811" lon="14.163800251526148"><ele>29.0</ele><time>2026-04-04T14:28:58.999Z</time></trkpt><trkpt lat="42.396314757862655" lon="14.163712277150582"><ele>29.0</ele><time>2026-04-04T14:28:59.999Z</time></trkpt><trkpt lat="42.396161415558794" lon="14.163606243093433"><ele>30.0</ele><time>2026-04-04T14:29:00.999Z</time></trkpt><trkpt lat="42.39599521133894" lon="14.163494996786431"><ele>31.0</ele><time>2026-04-04T14:29:01.999Z</time></trkpt><trkpt lat="42.39583001511924" lon="14.163376004073692"><ele>32.0</ele><time>2026-04-04T14:29:02.999Z</time></trkpt><trkpt lat="42.39569752588858" lon="14.163273927552725"><ele>32.0</ele><time>2026-04-04T14:29:03.998Z</time></trkpt><trkpt lat="42.39558806318331" lon="14.163187416802696"><ele>32.0</ele><time>2026-04-04T14:29:04.998Z</time></trkpt><trkpt lat="42.39550592517766" lon="14.16312141161003"><ele>32.0</ele><time>2026-04-04T14:29:05.998Z</time></trkpt><trkpt lat="42.39541313866867" lon="14.163055861879114"><ele>32.0</ele><time>2026-04-04T14:29:07.998Z</time></trkpt><trkpt lat="42.39530750873965" lon="14.163056545815202"><ele>32.0</ele><time>2026-04-04T14:29:09.998Z</time></trkpt><trkpt lat="42.39523669116262" lon="14.16312234159324"><ele>31.999999999999996</ele><time>2026-04-04T14:29:10.998Z</time></trkpt><trkpt lat="42.3951674759832" lon="14.16317562200285"><ele>32.0</ele><time>2026-04-04T14:29:11.998Z</time></trkpt><trkpt lat="42.395088433165725" lon="14.16325973858083"><ele>32.0</ele><time>2026-04-04T14:29:12.998Z</time></trkpt><trkpt lat="42.395018899966196" lon="14.163343650891225"><ele>32.0</ele><time>2026-04-04T14:29:13.998Z</time></trkpt><trkpt lat="42.39495973456731" lon="14.163416870752158"><ele>31.999999999999996</ele><time>2026-04-04T14:29:14.998Z</time></trkpt><trkpt lat="42.394867705422264" lon="14.163452387733223"><ele>32.0</ele><time>2026-04-04T14:29:16.998Z</time></trkpt><trkpt lat="42.3947464744541" lon="14.16344962134232"><ele>32.0</ele><time>2026-04-04T14:29:18.998Z</time></trkpt><trkpt lat="42.39467878329993" lon="14.163426017021832"><ele>32.0</ele><time>2026-04-04T14:29:19.998Z</time></trkpt><trkpt lat="42.39464989194993" lon="14.163222671930479"><ele>32.0</ele><time>2026-04-04T14:29:20.998Z</time></trkpt><trkpt lat="42.39461416822197" lon="14.163093696091364"><ele>32.0</ele><time>2026-04-04T14:29:21.998Z</time></trkpt><trkpt lat="42.394582132334115" lon="14.162970738426038"><ele>32.0</ele><time>2026-04-04T14:29:22.998Z</time></trkpt><trkpt lat="42.39455696621515" lon="14.162860006284452"><ele>31.999999999999996</ele><time>2026-04-04T14:29:23.998Z</time></trkpt><trkpt lat="42.39455253877573" lon="14.162760668620738"><ele>32.0</ele><time>2026-04-04T14:29:24.998Z</time></trkpt><trkpt lat="42.39457137091693" lon="14.16265487807115"><ele>32.0</ele><time>2026-04-04T14:29:25.998Z</time></trkpt><trkpt lat="42.39461264308265" lon="14.162534111576658"><ele>32.0</ele><time>2026-04-04T14:29:26.998Z</time></trkpt><trkpt lat="42.39466202441383" lon="14.162410999492412"><ele>31.999999999999996</ele><time>2026-04-04T14:29:27.998Z</time></trkpt><trkpt lat="42.39471161510136" lon="14.162309609299223"><ele>32.0</ele><time>2026-04-04T14:29:28.998Z</time></trkpt><trkpt lat="42.39476339994589" lon="14.162201260734426"><ele>32.0</ele><time>2026-04-04T14:29:29.998Z</time></trkpt><trkpt lat="42.394833314844476" lon="14.162053425340261"><ele>32.0</ele><time>2026-04-04T14:29:30.998Z</time></trkpt><trkpt lat="42.39493931206596" lon="14.161901538894584"><ele>32.0</ele><time>2026-04-04T14:29:31.998Z</time></trkpt><trkpt lat="42.39507762291292" lon="14.16175060246285"><ele>32.0</ele><time>2026-04-04T14:29:32.998Z</time></trkpt><trkpt lat="42.395234820307834" lon="14.161592617554973"><ele>32.0</ele><time>2026-04-04T14:29:33.998Z</time></trkpt><trkpt lat="42.39537240278258" lon="14.16145266647618"><ele>32.0</ele><time>2026-04-04T14:29:34.998Z</time></trkpt><trkpt lat="42.39549662372291" lon="14.161321914137993"><ele>30.75</ele><time>2026-04-04T14:29:35.998Z</time></trkpt><trkpt lat="42.39560591496343" lon="14.161207764308982"><ele>29.5</ele><time>2026-04-04T14:29:36.998Z</time></trkpt><trkpt lat="42.39571834743683" lon="14.161091842039232"><ele>28.25</ele><time>2026-04-04T14:29:37.998Z</time></trkpt><trkpt lat="42.395828968864784" lon="14.160973836227388"><ele>27.0</ele><time>2026-04-04T14:29:38.998Z</time></trkpt><trkpt lat="42.395933980436936" lon="14.160858060562356"><ele>27.0</ele><time>2026-04-04T14:29:39.998Z</time></trkpt><trkpt lat="42.39603561654677" lon="14.16075020316714"><ele>27.0</ele><time>2026-04-04T14:29:40.998Z</time></trkpt><trkpt lat="42.3961336344444" lon="14.160650060965164"><ele>27.0</ele><time>2026-04-04T14:29:41.998Z</time></trkpt><trkpt lat="42.39623008937264" lon="14.16055117324789"><ele>27.0</ele><time>2026-04-04T14:29:42.998Z</time></trkpt><trkpt lat="42.396321205585636" lon="14.160456504456857"><ele>25.666666666666668</ele><time>2026-04-04T14:29:43.998Z</time></trkpt><trkpt lat="42.396396959471154" lon="14.160381485382155"><ele>24.333333333333332</ele><time>2026-04-04T14:29:44.998Z</time></trkpt><trkpt lat="42.396467806131035" lon="14.16032891250938"><ele>23.0</ele><time>2026-04-04T14:29:45.998Z</time></trkpt><trkpt lat="42.39653264620171" lon="14.160304532540174"><ele>21.666666666666664</ele><time>2026-04-04T14:29:46.998Z</time></trkpt><trkpt lat="42.39659731542551" lon="14.160318039451697"><ele>20.333333333333332</ele><time>2026-04-04T14:29:47.998Z</time></trkpt><trkpt lat="42.39666685543784" lon="14.160356969087527"><ele>19.0</ele><time>2026-04-04T14:29:49Z</time></trkpt><trkpt lat="42.396736586078696" lon="14.160428562320293"><ele>19.0</ele><time>2026-04-04T14:29:50Z</time></trkpt><trkpt lat="42.39679696125809" lon="14.16054085704561"><ele>19.0</ele><time>2026-04-04T14:29:51Z</time></trkpt><trkpt lat="42.3968729903399" lon="14.16060080454683"><ele>19.0</ele><time>2026-04-04T14:29:52Z</time></trkpt><trkpt lat="42.3969598711475" lon="14.160635387620406"><ele>19.0</ele><time>2026-04-04T14:29:53Z</time></trkpt><trkpt lat="42.39704650785536" lon="14.16064314795565"><ele>19.0</ele><time>2026-04-04T14:29:54Z</time></trkpt><trkpt lat="42.397145534603816" lon="14.16059174636951"><ele>18.4</ele><time>2026-04-04T14:29:55Z</time></trkpt><trkpt lat="42.39723010934098" lon="14.160538462512916"><ele>17.799999999999997</ele><time>2026-04-04T14:29:56Z</time></trkpt><trkpt lat="42.39728025382875" lon="14.160411949278672"><ele>17.200000000000003</ele><time>2026-04-04T14:29:57Z</time></trkpt><trkpt lat="42.39731688888461" lon="14.160299202081044"><ele>16.6</ele><time>2026-04-04T14:29:58Z</time></trkpt><trkpt lat="42.39732641521265" lon="14.160169418307932"><ele>16.0</ele><time>2026-04-04T14:29:59Z</time></trkpt><trkpt lat="42.39730583531313" lon="14.160037260566874"><ele>16.0</ele><time>2026-04-04T14:30:00Z</time></trkpt><trkpt lat="42.397259809863776" lon="14.159911024170793"><ele>16.0</ele><time>2026-04-04T14:30:01Z</time></trkpt><trkpt lat="42.39718151199225" lon="14.159800233048216"><ele>16.0</ele><time>2026-04-04T14:30:02Z</time></trkpt><trkpt lat="42.397082153031874" lon="14.159744978127383"><ele>16.0</ele><time>2026-04-04T14:30:03Z</time></trkpt><trkpt lat="42.3970185597182" lon="14.159721928090407"><ele>16.0</ele><time>2026-04-04T14:30:04Z</time></trkpt><trkpt lat="42.39706889861015" lon="14.159411153933577"><ele>15.75</ele><time>2026-04-04T14:30:05Z</time></trkpt><trkpt lat="42.39710157388371" lon="14.159227261250297"><ele>15.5</ele><time>2026-04-04T14:30:06Z</time></trkpt><trkpt lat="42.39711174728582" lon="14.159028403742948"><ele>15.25</ele><time>2026-04-04T14:30:07Z</time></trkpt><trkpt lat="42.3971311060852" lon="14.15883137936411"><ele>15.0</ele><time>2026-04-04T14:30:08Z</time></trkpt><trkpt lat="42.39715326915296" lon="14.158609197486395"><ele>15.0</ele><time>2026-04-04T14:30:09Z</time></trkpt><trkpt lat="42.39717904455585" lon="14.158372948645948"><ele>15.0</ele><time>2026-04-04T14:30:10Z</time></trkpt><trkpt lat="42.39720553848363" lon="14.158105424156311"><ele>15.0</ele><time>2026-04-04T14:30:11Z</time></trkpt><trkpt lat="42.39722799179841" lon="14.157833542172918"><ele>14.5</ele><time>2026-04-04T14:30:12Z</time></trkpt><trkpt lat="42.397272391361014" lon="14.157544916583642"><ele>14.0</ele><time>2026-04-04T14:30:13Z</time></trkpt><trkpt lat="42.39730526610886" lon="14.157228963132084"><ele>12.0</ele><time>2026-04-04T14:30:14Z</time></trkpt><trkpt lat="42.39732307957586" lon="14.156902522107215"><ele>10.0</ele><time>2026-04-04T14:30:15Z</time></trkpt><trkpt lat="42.39736507446856" lon="14.156584719702566"><ele>9.5</ele><time>2026-04-04T14:30:16Z</time></trkpt><trkpt lat="42.39740759672779" lon="14.15625641673956"><ele>9.0</ele><time>2026-04-04T14:30:17Z</time></trkpt><trkpt lat="42.39744172659563" lon="14.155925473361656"><ele>9.5</ele><time>2026-04-04T14:30:18Z</time></trkpt><trkpt lat="42.39747285623861" lon="14.15559925032113"><ele>10.0</ele><time>2026-04-04T14:30:19Z</time></trkpt><trkpt lat="42.39749993314008" lon="14.155304193361387"><ele>10.0</ele><time>2026-04-04T14:30:20Z</time></trkpt><trkpt lat="42.39751782862892" lon="14.155003675102904"><ele>10.0</ele><time>2026-04-04T14:30:21Z</time></trkpt><trkpt lat="42.39751922868249" lon="14.15470356399106"><ele>10.0</ele><time>2026-04-04T14:30:22Z</time></trkpt><trkpt lat="42.39751689105471" lon="14.15440205393316"><ele>10.333333333333334</ele><time>2026-04-04T14:30:23Z</time></trkpt><trkpt lat="42.39750007106264" lon="14.154102280850957"><ele>10.666666666666666</ele><time>2026-04-04T14:30:24Z</time></trkpt><trkpt lat="42.397468606518636" lon="14.153813704818873"><ele>11.0</ele><time>2026-04-04T14:30:25Z</time></trkpt><trkpt lat="42.3974307170111" lon="14.15353124203358"><ele>11.0</ele><time>2026-04-04T14:30:26Z</time></trkpt><trkpt lat="42.397372669093926" lon="14.153264740300166"><ele>11.0</ele><time>2026-04-04T14:30:27Z</time></trkpt><trkpt lat="42.39732304862414" lon="14.152994490820396"><ele>11.0</ele><time>2026-04-04T14:30:28Z</time></trkpt><trkpt lat="42.39726638354958" lon="14.152728320834148"><ele>11.666666666666666</ele><time>2026-04-04T14:30:29Z</time></trkpt><trkpt lat="42.39720404974902" lon="14.152454868648338"><ele>12.333333333333332</ele><time>2026-04-04T14:30:30Z</time></trkpt><trkpt lat="42.39714113881181" lon="14.152176314155323"><ele>13.0</ele><time>2026-04-04T14:30:31Z</time></trkpt><trkpt lat="42.39707712245085" lon="14.151899601739355"><ele>14.0</ele><time>2026-04-04T14:30:32Z</time></trkpt><trkpt lat="42.39701168999102" lon="14.151618339337647"><ele>15.0</ele><time>2026-04-04T14:30:33Z</time></trkpt><trkpt lat="42.39694200053694" lon="14.151336802859602"><ele>16.0</ele><time>2026-04-04T14:30:34Z</time></trkpt><trkpt lat="42.39687230143081" lon="14.15104845991553"><ele>16.0</ele><time>2026-04-04T14:30:35Z</time></trkpt><trkpt lat="42.396805588706805" lon="14.150761146185353"><ele>16.0</ele><time>2026-04-04T14:30:36Z</time></trkpt><trkpt lat="42.396736238030726" lon="14.150472189992234"><ele>16.0</ele><time>2026-04-04T14:30:37Z</time></trkpt><trkpt lat="42.39666536116669" lon="14.15018118156156"><ele>18.5</ele><time>2026-04-04T14:30:38Z</time></trkpt><trkpt lat="42.39659604382346" lon="14.149885944635065"><ele>21.0</ele><time>2026-04-04T14:30:39Z</time></trkpt><trkpt lat="42.39652681858525" lon="14.149588688165322"><ele>22.0</ele><time>2026-04-04T14:30:40Z</time></trkpt><trkpt lat="42.3964582608534" lon="14.149289958004529"><ele>23.0</ele><time>2026-04-04T14:30:41Z</time></trkpt><trkpt lat="42.39639447986487" lon="14.149012135363387"><ele>24.0</ele><time>2026-04-04T14:30:42Z</time></trkpt><trkpt lat="42.39633412059305" lon="14.148739906831093"><ele>24.0</ele><time>2026-04-04T14:30:43Z</time></trkpt><trkpt lat="42.396276539810316" lon="14.148468219724604"><ele>24.0</ele><time>2026-04-04T14:30:44Z</time></trkpt><trkpt lat="42.39622730555045" lon="14.148193066569034"><ele>24.0</ele><time>2026-04-04T14:30:45Z</time></trkpt><trkpt lat="42.396187901995916" lon="14.147912290349659"><ele>24.666666666666664</ele><time>2026-04-04T14:30:46Z</time></trkpt><trkpt lat="42.39615856027214" lon="14.147625346646556"><ele>25.333333333333332</ele><time>2026-04-04T14:30:47Z</time></trkpt><trkpt lat="42.39614096901296" lon="14.147328357635388"><ele>26.0</ele><time>2026-04-04T14:30:48Z</time></trkpt><trkpt lat="42.39613890033609" lon="14.147030952091162"><ele>26.666666666666664</ele><time>2026-04-04T14:30:49Z</time></trkpt><trkpt lat="42.39614925124197" lon="14.146731082395595"><ele>27.333333333333336</ele><time>2026-04-04T14:30:50Z</time></trkpt><trkpt lat="42.39617316041432" lon="14.146431903136323"><ele>28.0</ele><time>2026-04-04T14:30:51Z</time></trkpt><trkpt lat="42.396208752763485" lon="14.146131672629366"><ele>28.0</ele><time>2026-04-04T14:30:52Z</time></trkpt><trkpt lat="42.39625931864309" lon="14.145839320925655"><ele>28.0</ele><time>2026-04-04T14:30:53Z</time></trkpt><trkpt lat="42.39632459859975" lon="14.145554393542984"><ele>28.0</ele><time>2026-04-04T14:30:54Z</time></trkpt><trkpt lat="42.39640064739596" lon="14.145292314671872"><ele>27.0</ele><time>2026-04-04T14:30:55Z</time></trkpt><trkpt lat="42.396483218023725" lon="14.145042762054885"><ele>26.0</ele><time>2026-04-04T14:30:56Z</time></trkpt><trkpt lat="42.39657828603428" lon="14.14479802189437"><ele>25.0</ele><time>2026-04-04T14:30:57Z</time></trkpt><trkpt lat="42.39668999493804" lon="14.144552960379148"><ele>25.0</ele><time>2026-04-04T14:30:58Z</time></trkpt><trkpt lat="42.39681411648984" lon="14.144307409966656"><ele>25.0</ele><time>2026-04-04T14:30:59Z</time></trkpt><trkpt lat="42.396943781711435" lon="14.144062316378376"><ele>25.0</ele><time>2026-04-04T14:31:00Z</time></trkpt><trkpt lat="42.39707366621803" lon="14.143811573485792"><ele>24.5</ele><time>2026-04-04T14:31:01Z</time></trkpt><trkpt lat="42.39720600061929" lon="14.14355328901871"><ele>24.0</ele><time>2026-04-04T14:31:02Z</time></trkpt><trkpt lat="42.39733538641735" lon="14.143302643652568"><ele>24.0</ele><time>2026-04-04T14:31:03Z</time></trkpt><trkpt lat="42.39746360255062" lon="14.143057760257213"><ele>24.0</ele><time>2026-04-04T14:31:04Z</time></trkpt><trkpt lat="42.39758577372962" lon="14.142823058502142"><ele>24.0</ele><time>2026-04-04T14:31:05Z</time></trkpt><trkpt lat="42.397697872129896" lon="14.142605851249971"><ele>24.0</ele><time>2026-04-04T14:31:06Z</time></trkpt><trkpt lat="42.39780945065628" lon="14.142397241951134"><ele>24.0</ele><time>2026-04-04T14:31:07Z</time></trkpt><trkpt lat="42.39791465999692" lon="14.14219432877482"><ele>24.0</ele><time>2026-04-04T14:31:08Z</time></trkpt><trkpt lat="42.39801618528763" lon="14.142000592189982"><ele>24.0</ele><time>2026-04-04T14:31:09Z</time></trkpt><trkpt lat="42.39811534252771" lon="14.141814733502857"><ele>24.0</ele><time>2026-04-04T14:31:10Z</time></trkpt><trkpt lat="42.39821267421996" lon="14.141623278502331"><ele>24.0</ele><time>2026-04-04T14:31:11Z</time></trkpt><trkpt lat="42.3982969434287" lon="14.14144900841501"><ele>24.333333333333336</ele><time>2026-04-04T14:31:12Z</time></trkpt><trkpt lat="42.398377045001865" lon="14.141279942590208"><ele>24.666666666666668</ele><time>2026-04-04T14:31:13Z</time></trkpt><trkpt lat="42.39845468799064" lon="14.141116105848578"><ele>25.0</ele><time>2026-04-04T14:31:14Z</time></trkpt><trkpt lat="42.39861319219787" lon="14.140810730306734"><ele>25.0</ele><time>2026-04-04T14:31:16Z</time></trkpt><trkpt lat="42.398691238233454" lon="14.140676785408921"><ele>25.0</ele><time>2026-04-04T14:31:17Z</time></trkpt><trkpt lat="42.398757634830076" lon="14.140559013363065"><ele>25.0</ele><time>2026-04-04T14:31:18Z</time></trkpt><trkpt lat="42.39882274595529" lon="14.140447569025644"><ele>25.0</ele><time>2026-04-04T14:31:19Z</time></trkpt><trkpt lat="42.39889100577562" lon="14.140341706056075"><ele>25.0</ele><time>2026-04-04T14:31:19.999Z</time></trkpt><trkpt lat="42.398959387286844" lon="14.14025798915168"><ele>25.0</ele><time>2026-04-04T14:31:20.999Z</time></trkpt><trkpt lat="42.39901495349166" lon="14.14019443605187"><ele>25.0</ele><time>2026-04-04T14:31:21.999Z</time></trkpt><trkpt lat="42.39916301538017" lon="14.140188998033786"><ele>25.0</ele><time>2026-04-04T14:31:23.999Z</time></trkpt><trkpt lat="42.399235574380754" lon="14.140195926605339"><ele>25.0</ele><time>2026-04-04T14:31:24.999Z</time></trkpt><trkpt lat="42.39931194080717" lon="14.140222536541964"><ele>25.0</ele><time>2026-04-04T14:31:25.999Z</time></trkpt><trkpt lat="42.39940566147946" lon="14.140290427259956"><ele>25.0</ele><time>2026-04-04T14:31:26.999Z</time></trkpt><trkpt lat="42.39950750514384" lon="14.140382318761871"><ele>25.0</ele><time>2026-04-04T14:31:27.999Z</time></trkpt><trkpt lat="42.39962203457208" lon="14.140492067758712"><ele>25.0</ele><time>2026-04-04T14:31:28.999Z</time></trkpt><trkpt lat="42.39974518074494" lon="14.140606089035213"><ele>25.0</ele><time>2026-04-04T14:31:29.999Z</time></trkpt><trkpt lat="42.399882024503626" lon="14.140721468804237"><ele>25.25</ele><time>2026-04-04T14:31:30.999Z</time></trkpt><trkpt lat="42.400009270252305" lon="14.140836731766386"><ele>25.5</ele><time>2026-04-04T14:31:31.999Z</time></trkpt><trkpt lat="42.400129248869064" lon="14.140940582741774"><ele>25.75</ele><time>2026-04-04T14:31:32.999Z</time></trkpt><trkpt lat="42.40024689736599" lon="14.141042468858062"><ele>26.0</ele><time>2026-04-04T14:31:33.999Z</time></trkpt><trkpt lat="42.40037406282946" lon="14.141151558925749"><ele>25.666666666666664</ele><time>2026-04-04T14:31:34.999Z</time></trkpt><trkpt lat="42.40050854809723" lon="14.141272605166398"><ele>25.333333333333336</ele><time>2026-04-04T14:31:35.999Z</time></trkpt><trkpt lat="42.40064651417304" lon="14.14139885322112"><ele>25.0</ele><time>2026-04-04T14:31:36.999Z</time></trkpt><trkpt lat="42.400783175802324" lon="14.14152007582809"><ele>25.0</ele><time>2026-04-04T14:31:37.999Z</time></trkpt><trkpt lat="42.40091131834541" lon="14.141634290462767"><ele>25.0</ele><time>2026-04-04T14:31:38.999Z</time></trkpt><trkpt lat="42.40103245693629" lon="14.141746313444045"><ele>25.0</ele><time>2026-04-04T14:31:39.999Z</time></trkpt><trkpt lat="42.4011529670925" lon="14.141853130896324"><ele>25.0</ele><time>2026-04-04T14:31:40.999Z</time></trkpt><trkpt lat="42.40127033917812" lon="14.141954256953229"><ele>25.0</ele><time>2026-04-04T14:31:41.999Z</time></trkpt><trkpt lat="42.40138934034326" lon="14.142060282755184"><ele>25.0</ele><time>2026-04-04T14:31:42.999Z</time></trkpt><trkpt lat="42.401510225810576" lon="14.142171078352844"><ele>25.0</ele><time>2026-04-04T14:31:43.999Z</time></trkpt><trkpt lat="42.40163813654458" lon="14.14228268741516"><ele>25.0</ele><time>2026-04-04T14:31:44.999Z</time></trkpt><trkpt lat="42.40176488934147" lon="14.142397907317038"><ele>24.75</ele><time>2026-04-04T14:31:45.999Z</time></trkpt><trkpt lat="42.40188834151402" lon="14.142508149700303"><ele>24.5</ele><time>2026-04-04T14:31:46.999Z</time></trkpt><trkpt lat="42.402009400845266" lon="14.142615928313557"><ele>24.25</ele><time>2026-04-04T14:31:47.999Z</time></trkpt><trkpt lat="42.402131847976115" lon="14.142727428158361"><ele>24.0</ele><time>2026-04-04T14:31:48.999Z</time></trkpt><trkpt lat="42.40224620998283" lon="14.14283303330296"><ele>24.0</ele><time>2026-04-04T14:31:49.999Z</time></trkpt><trkpt lat="42.402370888853454" lon="14.1429394303608"><ele>24.0</ele><time>2026-04-04T14:31:50.999Z</time></trkpt><trkpt lat="42.40249766386449" lon="14.143044981058585"><ele>24.0</ele><time>2026-04-04T14:31:51.999Z</time></trkpt><trkpt lat="42.40263381181778" lon="14.143149728557647"><ele>24.0</ele><time>2026-04-04T14:31:52.999Z</time></trkpt><trkpt lat="42.40277149205343" lon="14.143262586375888"><ele>24.0</ele><time>2026-04-04T14:31:53.999Z</time></trkpt><trkpt lat="42.40290358215931" lon="14.143378086137123"><ele>24.0</ele><time>2026-04-04T14:31:55.001Z</time></trkpt><trkpt lat="42.40303812135451" lon="14.143491607702348"><ele>24.0</ele><time>2026-04-04T14:31:56.001Z</time></trkpt><trkpt lat="42.40318076241174" lon="14.143609201139082"><ele>24.0</ele><time>2026-04-04T14:31:57.001Z</time></trkpt><trkpt lat="42.40333004806414" lon="14.143736375264158"><ele>24.0</ele><time>2026-04-04T14:31:58.001Z</time></trkpt><trkpt lat="42.40348605319793" lon="14.143871538232942"><ele>24.0</ele><time>2026-04-04T14:31:59.001Z</time></trkpt><trkpt lat="42.40364123458495" lon="14.144014070295425"><ele>24.0</ele><time>2026-04-04T14:32:00.001Z</time></trkpt><trkpt lat="42.40379660130687" lon="14.14417082322486"><ele>24.0</ele><time>2026-04-04T14:32:01.001Z</time></trkpt><trkpt lat="42.4039514465091" lon="14.144326050733854"><ele>24.333333333333336</ele><time>2026-04-04T14:32:02.001Z</time></trkpt><trkpt lat="42.4041119161551" lon="14.144477816101215"><ele>24.666666666666668</ele><time>2026-04-04T14:32:03.001Z</time></trkpt><trkpt lat="42.40427419482524" lon="14.144629880952692"><ele>25.0</ele><time>2026-04-04T14:32:04.001Z</time></trkpt><trkpt lat="42.404431238454904" lon="14.144775720293696"><ele>25.333333333333336</ele><time>2026-04-04T14:32:05.001Z</time></trkpt><trkpt lat="42.40457866163033" lon="14.144907804435388"><ele>25.666666666666664</ele><time>2026-04-04T14:32:06.001Z</time></trkpt><trkpt lat="42.40471925917436" lon="14.145034519206769"><ele>26.0</ele><time>2026-04-04T14:32:07.001Z</time></trkpt><trkpt lat="42.404851615744676" lon="14.145150613488683"><ele>25.25</ele><time>2026-04-04T14:32:08.001Z</time></trkpt><trkpt lat="42.40497878137243" lon="14.145259978795234"><ele>24.5</ele><time>2026-04-04T14:32:09.001Z</time></trkpt><trkpt lat="42.405095244793216" lon="14.145363697045337"><ele>23.75</ele><time>2026-04-04T14:32:10.001Z</time></trkpt><trkpt lat="42.40520918589272" lon="14.145468343570975"><ele>23.0</ele><time>2026-04-04T14:32:11.001Z</time></trkpt><trkpt lat="42.40531194520085" lon="14.145558998312575"><ele>23.0</ele><time>2026-04-04T14:32:12.001Z</time></trkpt><trkpt lat="42.405396079853894" lon="14.145636653395755"><ele>23.0</ele><time>2026-04-04T14:32:13.001Z</time></trkpt><trkpt lat="42.40545480155546" lon="14.14571565964206"><ele>23.0</ele><time>2026-04-04T14:32:14.001Z</time></trkpt><trkpt lat="42.40547692743339" lon="14.14580200196607"><ele>23.0</ele><time>2026-04-04T14:32:15.001Z</time></trkpt><trkpt lat="42.405478189828735" lon="14.145898684599342"><ele>23.0</ele><time>2026-04-04T14:32:16.001Z</time></trkpt><trkpt lat="42.40546934385904" lon="14.145995756181042"><ele>23.0</ele><time>2026-04-04T14:32:17.001Z</time></trkpt><trkpt lat="42.40552080231065" lon="14.146132692538183"><ele>22.799999999999997</ele><time>2026-04-04T14:32:19.001Z</time></trkpt><trkpt lat="42.40558278773066" lon="14.146163614128039"><ele>22.6</ele><time>2026-04-04T14:32:20.001Z</time></trkpt><trkpt lat="42.40568380208614" lon="14.146093043101637"><ele>22.4</ele><time>2026-04-04T14:32:21.001Z</time></trkpt><trkpt lat="42.40577283433615" lon="14.146044682309089"><ele>22.200000000000003</ele><time>2026-04-04T14:32:22Z</time></trkpt><trkpt lat="42.4058639298876" lon="14.14605266820969"><ele>22.0</ele><time>2026-04-04T14:32:23Z</time></trkpt><trkpt lat="42.40594016218924" lon="14.146152008674617"><ele>22.0</ele><time>2026-04-04T14:32:24Z</time></trkpt><trkpt lat="42.40606470806549" lon="14.146248096653007"><ele>22.0</ele><time>2026-04-04T14:32:25Z</time></trkpt><trkpt lat="42.406181358170954" lon="14.146357461976018"><ele>22.0</ele><time>2026-04-04T14:32:26Z</time></trkpt><trkpt lat="42.40630533766582" lon="14.146465410658655"><ele>22.0</ele><time>2026-04-04T14:32:27Z</time></trkpt><trkpt lat="42.40644449972478" lon="14.146586257173738"><ele>22.0</ele><time>2026-04-04T14:32:28Z</time></trkpt><trkpt lat="42.40659106043609" lon="14.14671214160055"><ele>22.0</ele><time>2026-04-04T14:32:29Z</time></trkpt><trkpt lat="42.40674191385003" lon="14.146826048783185"><ele>22.0</ele><time>2026-04-04T14:32:30Z</time></trkpt><trkpt lat="42.406882572175" lon="14.146913020077411"><ele>22.0</ele><time>2026-04-04T14:32:31Z</time></trkpt><trkpt lat="42.40702960585111" lon="14.14698057392635"><ele>22.0</ele><time>2026-04-04T14:32:32Z</time></trkpt><trkpt lat="42.40718794791233" lon="14.14703702920199"><ele>22.0</ele><time>2026-04-04T14:32:33Z</time></trkpt><trkpt lat="42.40735575281604" lon="14.14707509363048"><ele>20.666666666666664</ele><time>2026-04-04T14:32:34Z</time></trkpt><trkpt lat="42.40754015157665" lon="14.147103295757855"><ele>19.333333333333332</ele><time>2026-04-04T14:32:35Z</time></trkpt><trkpt lat="42.407705125281566" lon="14.147118687627305"><ele>18.0</ele><time>2026-04-04T14:32:36Z</time></trkpt><trkpt lat="42.40785717926906" lon="14.147142937476715"><ele>18.0</ele><time>2026-04-04T14:32:37Z</time></trkpt><trkpt lat="42.40798827870535" lon="14.147189932191266"><ele>18.0</ele><time>2026-04-04T14:32:38Z</time></trkpt><trkpt lat="42.408084154706344" lon="14.147209381921478"><ele>18.0</ele><time>2026-04-04T14:32:39Z</time></trkpt><trkpt lat="42.408157214851855" lon="14.147226877638548"><ele>18.0</ele><time>2026-04-04T14:32:40Z</time></trkpt><trkpt lat="42.408222456316906" lon="14.147161086653561"><ele>18.0</ele><time>2026-04-04T14:32:41Z</time></trkpt><trkpt lat="42.40825624331452" lon="14.147021557533318"><ele>17.8</ele><time>2026-04-04T14:32:43Z</time></trkpt><trkpt lat="42.40822711889738" lon="14.146906717369227"><ele>17.6</ele><time>2026-04-04T14:32:44Z</time></trkpt><trkpt lat="42.408213678201975" lon="14.14676343085645"><ele>17.4</ele><time>2026-04-04T14:32:45Z</time></trkpt><trkpt lat="42.40820634940282" lon="14.146622558297445"><ele>17.2</ele><time>2026-04-04T14:32:46Z</time></trkpt><trkpt lat="42.408195832349065" lon="14.146485367020425"><ele>17.0</ele><time>2026-04-04T14:32:47Z</time></trkpt><trkpt lat="42.40817971325297" lon="14.146360397808143"><ele>17.333333333333336</ele><time>2026-04-04T14:32:48Z</time></trkpt><trkpt lat="42.40816658035527" lon="14.14623143614506"><ele>17.666666666666668</ele><time>2026-04-04T14:32:49Z</time></trkpt><trkpt lat="42.40816007777415" lon="14.146110907578848"><ele>18.0</ele><time>2026-04-04T14:32:50Z</time></trkpt><trkpt lat="42.40815165019288" lon="14.145989877006828"><ele>18.333333333333332</ele><time>2026-04-04T14:32:51Z</time></trkpt><trkpt lat="42.40814109802743" lon="14.145883090554838"><ele>18.666666666666664</ele><time>2026-04-04T14:32:52Z</time></trkpt><trkpt lat="42.408142167167924" lon="14.145786591675392"><ele>19.0</ele><time>2026-04-04T14:32:53Z</time></trkpt><trkpt lat="42.40816683327308" lon="14.145707775669452"><ele>19.0</ele><time>2026-04-04T14:32:54Z</time></trkpt><trkpt lat="42.408288173237665" lon="14.145655257945492"><ele>19.0</ele><time>2026-04-04T14:32:56Z</time></trkpt><trkpt lat="42.40834402668227" lon="14.145777654932953"><ele>19.0</ele><time>2026-04-04T14:32:57Z</time></trkpt><trkpt lat="42.40847722661895" lon="14.145816435998897"><ele>19.0</ele><time>2026-04-04T14:32:59Z</time></trkpt><trkpt lat="42.40857047601745" lon="14.145763782390716"><ele>19.0</ele><time>2026-04-04T14:33:00Z</time></trkpt><trkpt lat="42.40867555819373" lon="14.145689049504591"><ele>19.0</ele><time>2026-04-04T14:33:01Z</time></trkpt><trkpt lat="42.40877612461322" lon="14.145567415873371"><ele>19.0</ele><time>2026-04-04T14:33:02Z</time></trkpt><trkpt lat="42.408865150890236" lon="14.145403655493459"><ele>19.0</ele><time>2026-04-04T14:33:03Z</time></trkpt><trkpt lat="42.40895088584932" lon="14.145228799731736"><ele>20.0</ele><time>2026-04-04T14:33:04Z</time></trkpt><trkpt lat="42.40903775877271" lon="14.145052331604113"><ele>21.0</ele><time>2026-04-04T14:33:05Z</time></trkpt><trkpt lat="42.409129278448894" lon="14.14487612823552"><ele>22.0</ele><time>2026-04-04T14:33:06Z</time></trkpt><trkpt lat="42.409217118330176" lon="14.144707500890442"><ele>22.25</ele><time>2026-04-04T14:33:07Z</time></trkpt><trkpt lat="42.409290204468" lon="14.144563597299"><ele>22.5</ele><time>2026-04-04T14:33:08Z</time></trkpt><trkpt lat="42.40936308245608" lon="14.144413044244443"><ele>22.75</ele><time>2026-04-04T14:33:09Z</time></trkpt><trkpt lat="42.40943630628827" lon="14.1442637590619"><ele>23.0</ele><time>2026-04-04T14:33:10Z</time></trkpt><trkpt lat="42.4095041245518" lon="14.144122126062918"><ele>23.4</ele><time>2026-04-04T14:33:11Z</time></trkpt><trkpt lat="42.40956813691031" lon="14.143990373100161"><ele>23.799999999999997</ele><time>2026-04-04T14:33:12Z</time></trkpt><trkpt lat="42.409633605550965" lon="14.143864122372179"><ele>24.2</ele><time>2026-04-04T14:33:13Z</time></trkpt><trkpt lat="42.40970560737507" lon="14.143746736098963"><ele>24.6</ele><time>2026-04-04T14:33:14Z</time></trkpt><trkpt lat="42.40978926340208" lon="14.143660571464599"><ele>25.0</ele><time>2026-04-04T14:33:15Z</time></trkpt><trkpt lat="42.409884273196305" lon="14.143642809052382"><ele>25.75</ele><time>2026-04-04T14:33:16Z</time></trkpt><trkpt lat="42.40997559997286" lon="14.143639508110436"><ele>26.5</ele><time>2026-04-04T14:33:17Z</time></trkpt><trkpt lat="42.41008764533058" lon="14.143672209408292"><ele>27.25</ele><time>2026-04-04T14:33:18Z</time></trkpt><trkpt lat="42.41023078919612" lon="14.143706172819813"><ele>28.0</ele><time>2026-04-04T14:33:19Z</time></trkpt><trkpt lat="42.41038535649982" lon="14.14376653254767"><ele>27.75</ele><time>2026-04-04T14:33:20Z</time></trkpt><trkpt lat="42.41053216618695" lon="14.143822875425327"><ele>27.5</ele><time>2026-04-04T14:33:21Z</time></trkpt><trkpt lat="42.410669436136764" lon="14.143882149155957"><ele>27.25</ele><time>2026-04-04T14:33:22Z</time></trkpt><trkpt lat="42.41079839477241" lon="14.143934249553302"><ele>27.0</ele><time>2026-04-04T14:33:23Z</time></trkpt><trkpt lat="42.410939828755936" lon="14.143955491487361"><ele>27.0</ele><time>2026-04-04T14:33:24Z</time></trkpt><trkpt lat="42.4110844745518" lon="14.143972048633177"><ele>27.0</ele><time>2026-04-04T14:33:25Z</time></trkpt><trkpt lat="42.41124188300266" lon="14.14396338976128"><ele>27.0</ele><time>2026-04-04T14:33:25.999Z</time></trkpt><trkpt lat="42.41141257788884" lon="14.143981192816707"><ele>27.666666666666664</ele><time>2026-04-04T14:33:26.999Z</time></trkpt><trkpt lat="42.41158081455502" lon="14.14397985922333"><ele>28.333333333333332</ele><time>2026-04-04T14:33:27.999Z</time></trkpt><trkpt lat="42.41175569346031" lon="14.143980069291837"><ele>29.0</ele><time>2026-04-04T14:33:28.999Z</time></trkpt><trkpt lat="42.41193165544893" lon="14.143996923418861"><ele>29.0</ele><time>2026-04-04T14:33:29.999Z</time></trkpt><trkpt lat="42.41210745227215" lon="14.144028216328865"><ele>29.0</ele><time>2026-04-04T14:33:30.999Z</time></trkpt><trkpt lat="42.41228186338454" lon="14.144061476513702"><ele>29.0</ele><time>2026-04-04T14:33:31.999Z</time></trkpt><trkpt lat="42.412451650901914" lon="14.14411148852893"><ele>29.25</ele><time>2026-04-04T14:33:32.998Z</time></trkpt><trkpt lat="42.41259673078091" lon="14.144180195403562"><ele>29.5</ele><time>2026-04-04T14:33:33.998Z</time></trkpt><trkpt lat="42.41272835247675" lon="14.14426349665132"><ele>29.75</ele><time>2026-04-04T14:33:34.998Z</time></trkpt><trkpt lat="42.41286065360663" lon="14.14434279635538"><ele>30.0</ele><time>2026-04-04T14:33:35.998Z</time></trkpt><trkpt lat="42.413000736720264" lon="14.144401460965064"><ele>32.25</ele><time>2026-04-04T14:33:36.998Z</time></trkpt><trkpt lat="42.41313862675201" lon="14.144472351296713"><ele>34.5</ele><time>2026-04-04T14:33:37.998Z</time></trkpt><trkpt lat="42.4132649943197" lon="14.14454212820428"><ele>36.75</ele><time>2026-04-04T14:33:38.998Z</time></trkpt><trkpt lat="42.413379790630124" lon="14.144583494348808"><ele>39.0</ele><time>2026-04-04T14:33:39.998Z</time></trkpt><trkpt lat="42.41348400520625" lon="14.144610549348204"><ele>39.0</ele><time>2026-04-04T14:33:40.998Z</time></trkpt><trkpt lat="42.413587560868656" lon="14.144614571266908"><ele>39.0</ele><time>2026-04-04T14:33:41.998Z</time></trkpt><trkpt lat="42.41368561701911" lon="14.144591853433752"><ele>39.0</ele><time>2026-04-04T14:33:42.998Z</time></trkpt><trkpt lat="42.41379078190082" lon="14.144539309805312"><ele>39.0</ele><time>2026-04-04T14:33:43.998Z</time></trkpt><trkpt lat="42.413887823554994" lon="14.144446492016819"><ele>39.0</ele><time>2026-04-04T14:33:44.998Z</time></trkpt><trkpt lat="42.41397769562641" lon="14.14430554443831"><ele>40.0</ele><time>2026-04-04T14:33:45.998Z</time></trkpt><trkpt lat="42.41406596043407" lon="14.144145247397422"><ele>41.0</ele><time>2026-04-04T14:33:46.998Z</time></trkpt><trkpt lat="42.41416389547585" lon="14.143974641766052"><ele>42.0</ele><time>2026-04-04T14:33:47.998Z</time></trkpt><trkpt lat="42.414262162616396" lon="14.143791459427954"><ele>44.33333333333333</ele><time>2026-04-04T14:33:48.998Z</time></trkpt><trkpt lat="42.41436083879557" lon="14.143593379262645"><ele>46.666666666666664</ele><time>2026-04-04T14:33:49.998Z</time></trkpt><trkpt lat="42.41445778465979" lon="14.143410985927627"><ele>49.0</ele><time>2026-04-04T14:33:50.998Z</time></trkpt><trkpt lat="42.41454717654617" lon="14.14324741514717"><ele>49.0</ele><time>2026-04-04T14:33:51.998Z</time></trkpt><trkpt lat="42.41462784223334" lon="14.143097821300023"><ele>49.0</ele><time>2026-04-04T14:33:52.998Z</time></trkpt><trkpt lat="42.41472414140033" lon="14.14293749161897"><ele>49.0</ele><time>2026-04-04T14:33:53.998Z</time></trkpt><trkpt lat="42.41482755348403" lon="14.142802144162564"><ele>49.0</ele><time>2026-04-04T14:33:54.998Z</time></trkpt><trkpt lat="42.41493322490002" lon="14.142691544390065"><ele>48.75</ele><time>2026-04-04T14:33:55.998Z</time></trkpt><trkpt lat="42.415037738845285" lon="14.142603195863238"><ele>48.5</ele><time>2026-04-04T14:33:56.998Z</time></trkpt><trkpt lat="42.415147206512664" lon="14.142530330271386"><ele>48.25</ele><time>2026-04-04T14:33:57.998Z</time></trkpt><trkpt lat="42.41526883872683" lon="14.142450213555028"><ele>48.0</ele><time>2026-04-04T14:33:58.998Z</time></trkpt><trkpt lat="42.41538907346167" lon="14.142372151690767"><ele>47.4</ele><time>2026-04-04T14:33:59.998Z</time></trkpt><trkpt lat="42.41549755488774" lon="14.142299396086154"><ele>46.8</ele><time>2026-04-04T14:34:00.999Z</time></trkpt><trkpt lat="42.415598009661885" lon="14.142236081864471"><ele>46.2</ele><time>2026-04-04T14:34:01.999Z</time></trkpt><trkpt lat="42.41567668959103" lon="14.142175922769225"><ele>45.6</ele><time>2026-04-04T14:34:02.999Z</time></trkpt><trkpt lat="42.41573645640461" lon="14.142144411031593"><ele>45.0</ele><time>2026-04-04T14:34:03.999Z</time></trkpt><trkpt lat="42.41580728723835" lon="14.142136475025074"><ele>45.0</ele><time>2026-04-04T14:34:06.999Z</time></trkpt><trkpt lat="42.41583913759432" lon="14.142296417913172"><ele>45.0</ele><time>2026-04-04T14:34:07.999Z</time></trkpt><trkpt lat="42.41585585133892" lon="14.142418194991224"><ele>45.0</ele><time>2026-04-04T14:34:08.999Z</time></trkpt><trkpt lat="42.41587817510823" lon="14.142580847251418"><ele>45.0</ele><time>2026-04-04T14:34:09.999Z</time></trkpt><trkpt lat="42.41591590192627" lon="14.142747104514577"><ele>44.6</ele><time>2026-04-04T14:34:10.999Z</time></trkpt><trkpt lat="42.41592607535772" lon="14.142893806054616"><ele>44.2</ele><time>2026-04-04T14:34:11.999Z</time></trkpt><trkpt lat="42.41593663756639" lon="14.142991719069423"><ele>43.8</ele><time>2026-04-04T14:34:12.999Z</time></trkpt><trkpt lat="42.41595215237643" lon="14.14308232338701"><ele>43.4</ele><time>2026-04-04T14:34:13.999Z</time></trkpt><trkpt lat="42.415959180310416" lon="14.143205144154898"><ele>43.0</ele><time>2026-04-04T14:34:14.999Z</time></trkpt><trkpt lat="42.415980401751014" lon="14.14335468151084"><ele>43.0</ele><time>2026-04-04T14:34:15.999Z</time></trkpt><trkpt lat="42.41600187986894" lon="14.143501044467758"><ele>43.0</ele><time>2026-04-04T14:34:16.999Z</time></trkpt><trkpt lat="42.41603059668733" lon="14.143642221321524"><ele>43.0</ele><time>2026-04-04T14:34:17.999Z</time></trkpt><trkpt lat="42.41604954451884" lon="14.143798563329398"><ele>43.0</ele><time>2026-04-04T14:34:18.999Z</time></trkpt><trkpt lat="42.41605761409676" lon="14.143957006087916"><ele>42.5</ele><time>2026-04-04T14:34:19.999Z</time></trkpt><trkpt lat="42.41605430074784" lon="14.144119192890662"><ele>42.0</ele><time>2026-04-04T14:34:20.999Z</time></trkpt><trkpt lat="42.41606550262132" lon="14.144282271360025"><ele>41.5</ele><time>2026-04-04T14:34:21.999Z</time></trkpt><trkpt lat="42.416093488918385" lon="14.144446615587688"><ele>41.0</ele><time>2026-04-04T14:34:22.999Z</time></trkpt><trkpt lat="42.41609651643384" lon="14.144613504698551"><ele>41.0</ele><time>2026-04-04T14:34:23.999Z</time></trkpt><trkpt lat="42.41612027038667" lon="14.144776111130652"><ele>41.0</ele><time>2026-04-04T14:34:24.999Z</time></trkpt><trkpt lat="42.41614078831872" lon="14.144931669579318"><ele>41.0</ele><time>2026-04-04T14:34:25.999Z</time></trkpt><trkpt lat="42.41616419557242" lon="14.14509184840459"><ele>41.0</ele><time>2026-04-04T14:34:26.999Z</time></trkpt><trkpt lat="42.41618561212419" lon="14.14525913959842"><ele>40.5</ele><time>2026-04-04T14:34:27.999Z</time></trkpt><trkpt lat="42.41621360992729" lon="14.145414151036375"><ele>40.0</ele><time>2026-04-04T14:34:28.999Z</time></trkpt><trkpt lat="42.41625535746017" lon="14.145562848774915"><ele>39.5</ele><time>2026-04-04T14:34:29.999Z</time></trkpt><trkpt lat="42.41628589394019" lon="14.145728847001717"><ele>39.0</ele><time>2026-04-04T14:34:30.999Z</time></trkpt><trkpt lat="42.41631196337441" lon="14.14590122500276"><ele>37.25</ele><time>2026-04-04T14:34:31.999Z</time></trkpt><trkpt lat="42.416353462818556" lon="14.14607561518963"><ele>35.5</ele><time>2026-04-04T14:34:32.999Z</time></trkpt><trkpt lat="42.41640627132542" lon="14.146242909057598"><ele>33.75</ele><time>2026-04-04T14:34:33.999Z</time></trkpt><trkpt lat="42.416467861408194" lon="14.146398520384308"><ele>32.0</ele><time>2026-04-04T14:34:34.999Z</time></trkpt><trkpt lat="42.4165455343915" lon="14.146524902943728"><ele>33.5</ele><time>2026-04-04T14:34:35.999Z</time></trkpt><trkpt lat="42.41664128840352" lon="14.146618965619126"><ele>35.0</ele><time>2026-04-04T14:34:36.999Z</time></trkpt><trkpt lat="42.41673865592601" lon="14.146722541504834"><ele>36.5</ele><time>2026-04-04T14:34:37.999Z</time></trkpt><trkpt lat="42.416820537337294" lon="14.146852226223052"><ele>38.0</ele><time>2026-04-04T14:34:38.999Z</time></trkpt><trkpt lat="42.416896370584766" lon="14.146997942137489"><ele>38.0</ele><time>2026-04-04T14:34:39.999Z</time></trkpt><trkpt lat="42.41697230138468" lon="14.147151895299636"><ele>38.0</ele><time>2026-04-04T14:34:40.999Z</time></trkpt><trkpt lat="42.4170432525698" lon="14.147312771319813"><ele>38.0</ele><time>2026-04-04T14:34:41.999Z</time></trkpt><trkpt lat="42.41710580925943" lon="14.147481959499293"><ele>38.0</ele><time>2026-04-04T14:34:42.999Z</time></trkpt><trkpt lat="42.41716410496455" lon="14.147647766302702"><ele>35.25</ele><time>2026-04-04T14:34:43.999Z</time></trkpt><trkpt lat="42.417224515263754" lon="14.147803031525907"><ele>32.5</ele><time>2026-04-04T14:34:44.999Z</time></trkpt><trkpt lat="42.41728711990566" lon="14.1479569224586"><ele>29.75</ele><time>2026-04-04T14:34:45.999Z</time></trkpt><trkpt lat="42.417343659400174" lon="14.148112342522792"><ele>27.0</ele><time>2026-04-04T14:34:46.999Z</time></trkpt><trkpt lat="42.41736458259342" lon="14.14828139890717"><ele>27.0</ele><time>2026-04-04T14:34:47.999Z</time></trkpt><trkpt lat="42.41738737716251" lon="14.148463533072368"><ele>27.0</ele><time>2026-04-04T14:34:48.999Z</time></trkpt><trkpt lat="42.41741283107196" lon="14.148641959969796"><ele>27.0</ele><time>2026-04-04T14:34:49.999Z</time></trkpt><trkpt lat="42.417418546757474" lon="14.148815772825696"><ele>27.0</ele><time>2026-04-04T14:34:50.999Z</time></trkpt><trkpt lat="42.41743494838646" lon="14.148987079938147"><ele>25.75</ele><time>2026-04-04T14:34:51.999Z</time></trkpt><trkpt lat="42.41746483560532" lon="14.149159563869686"><ele>24.5</ele><time>2026-04-04T14:34:52.999Z</time></trkpt><trkpt lat="42.41750812460024" lon="14.149319612941742"><ele>23.25</ele><time>2026-04-04T14:34:53.999Z</time></trkpt><trkpt lat="42.41756427525376" lon="14.149465137599778"><ele>22.0</ele><time>2026-04-04T14:34:54.999Z</time></trkpt><trkpt lat="42.417646108876696" lon="14.149607102715654"><ele>22.0</ele><time>2026-04-04T14:34:55.999Z</time></trkpt><trkpt lat="42.41774894977313" lon="14.14973918049587"><ele>22.0</ele><time>2026-04-04T14:34:56.999Z</time></trkpt><trkpt lat="42.41786437993078" lon="14.149866040902646"><ele>22.0</ele><time>2026-04-04T14:34:57.999Z</time></trkpt><trkpt lat="42.41797799789499" lon="14.149996838811449"><ele>22.0</ele><time>2026-04-04T14:34:58.999Z</time></trkpt><trkpt lat="42.418094116442504" lon="14.150134117498874"><ele>21.5</ele><time>2026-04-04T14:34:59.999Z</time></trkpt><trkpt lat="42.418206296534876" lon="14.150268115636484"><ele>21.0</ele><time>2026-04-04T14:35:00.999Z</time></trkpt><trkpt lat="42.41831552429811" lon="14.150386369684997"><ele>20.5</ele><time>2026-04-04T14:35:01.999Z</time></trkpt><trkpt lat="42.41842747941594" lon="14.150491035660341"><ele>20.0</ele><time>2026-04-04T14:35:02.999Z</time></trkpt><trkpt lat="42.41855345438885" lon="14.15057973704593"><ele>20.0</ele><time>2026-04-04T14:35:03.999Z</time></trkpt><trkpt lat="42.4186900194712" lon="14.150642835446194"><ele>20.0</ele><time>2026-04-04T14:35:04.999Z</time></trkpt><trkpt lat="42.418829848327825" lon="14.150685519243718"><ele>20.0</ele><time>2026-04-04T14:35:05.999Z</time></trkpt><trkpt lat="42.41897013615523" lon="14.150733037583306"><ele>20.0</ele><time>2026-04-04T14:35:06.999Z</time></trkpt><trkpt lat="42.41910857157014" lon="14.15078877395307"><ele>20.5</ele><time>2026-04-04T14:35:07.999Z</time></trkpt><trkpt lat="42.419246520222174" lon="14.150847702883995"><ele>21.0</ele><time>2026-04-04T14:35:08.999Z</time></trkpt><trkpt lat="42.419384112184304" lon="14.150901234146296"><ele>21.5</ele><time>2026-04-04T14:35:09.999Z</time></trkpt><trkpt lat="42.419512304566716" lon="14.150951806306667"><ele>22.0</ele><time>2026-04-04T14:35:10.999Z</time></trkpt><trkpt lat="42.41962863434973" lon="14.151001058359833"><ele>22.400000000000002</ele><time>2026-04-04T14:35:11.999Z</time></trkpt><trkpt lat="42.41973594582896" lon="14.151051239734768"><ele>22.8</ele><time>2026-04-04T14:35:12.999Z</time></trkpt><trkpt lat="42.41983578772986" lon="14.151103747707673"><ele>23.2</ele><time>2026-04-04T14:35:13.999Z</time></trkpt><trkpt lat="42.41992332338035" lon="14.151166557058833"><ele>23.6</ele><time>2026-04-04T14:35:14.999Z</time></trkpt><trkpt lat="42.420011530679076" lon="14.151254229309796"><ele>24.0</ele><time>2026-04-04T14:35:15.999Z</time></trkpt><trkpt lat="42.42009269652393" lon="14.151346210742021"><ele>24.0</ele><time>2026-04-04T14:35:16.999Z</time></trkpt><trkpt lat="42.42016079827466" lon="14.151420365489539"><ele>24.0</ele><time>2026-04-04T14:35:17.999Z</time></trkpt><trkpt lat="42.420222791804036" lon="14.151463322105673"><ele>24.0</ele><time>2026-04-04T14:35:18.999Z</time></trkpt><trkpt lat="42.42028870548894" lon="14.151462718650887"><ele>24.0</ele><time>2026-04-04T14:35:19.999Z</time></trkpt><trkpt lat="42.420343456808624" lon="14.15138115372469"><ele>24.0</ele><time>2026-04-04T14:35:20.999Z</time></trkpt><trkpt lat="42.420408663514785" lon="14.151341095520188"><ele>24.0</ele><time>2026-04-04T14:35:38.998Z</time></trkpt><trkpt lat="42.42044365458734" lon="14.151122848855044"><ele>24.0</ele><time>2026-04-04T14:35:40.998Z</time></trkpt><trkpt lat="42.4204356911823" lon="14.151023250833063"><ele>24.0</ele><time>2026-04-04T14:35:41.998Z</time></trkpt><trkpt lat="42.42042239275013" lon="14.15091142920604"><ele>24.0</ele><time>2026-04-04T14:35:42.998Z</time></trkpt><trkpt lat="42.42042449943683" lon="14.150702977593058"><ele>24.0</ele><time>2026-04-04T14:35:43.998Z</time></trkpt><trkpt lat="42.42042252714046" lon="14.15051843027862"><ele>24.0</ele><time>2026-04-04T14:35:44.998Z</time></trkpt><trkpt lat="42.420431670597" lon="14.150350542149454"><ele>23.666666666666668</ele><time>2026-04-04T14:35:45.998Z</time></trkpt><trkpt lat="42.4204595501895" lon="14.150163938257464"><ele>23.333333333333336</ele><time>2026-04-04T14:35:46.998Z</time></trkpt><trkpt lat="42.420496986061735" lon="14.149959124184978"><ele>23.0</ele><time>2026-04-04T14:35:47.998Z</time></trkpt><trkpt lat="42.42053117175661" lon="14.149741202781154"><ele>23.0</ele><time>2026-04-04T14:35:48.998Z</time></trkpt><trkpt lat="42.42056669196522" lon="14.149542970376334"><ele>23.0</ele><time>2026-04-04T14:35:49.998Z</time></trkpt><trkpt lat="42.42059970459236" lon="14.149359948418047"><ele>23.0</ele><time>2026-04-04T14:35:50.998Z</time></trkpt><trkpt lat="42.4206285591668" lon="14.149187504530142"><ele>23.0</ele><time>2026-04-04T14:35:51.998Z</time></trkpt><trkpt lat="42.42065609951284" lon="14.149031593118362"><ele>22.599999999999998</ele><time>2026-04-04T14:35:52.998Z</time></trkpt><trkpt lat="42.42068236434904" lon="14.148890348600716"><ele>22.2</ele><time>2026-04-04T14:35:53.998Z</time></trkpt><trkpt lat="42.42071552426306" lon="14.148758067333183"><ele>21.8</ele><time>2026-04-04T14:35:54.998Z</time></trkpt><trkpt lat="42.42078224742158" lon="14.148652499392318"><ele>21.4</ele><time>2026-04-04T14:35:55.998Z</time></trkpt><trkpt lat="42.42088873702466" lon="14.148606915616613"><ele>21.0</ele><time>2026-04-04T14:35:56.998Z</time></trkpt><trkpt lat="42.421003215872574" lon="14.14855020496258"><ele>21.0</ele><time>2026-04-04T14:35:57.998Z</time></trkpt><trkpt lat="42.42113051086016" lon="14.148540367523726"><ele>21.0</ele><time>2026-04-04T14:35:58.998Z</time></trkpt><trkpt lat="42.4212415894268" lon="14.148677362665273"><ele>21.0</ele><time>2026-04-04T14:35:59.998Z</time></trkpt><trkpt lat="42.42137037355193" lon="14.148761931330718"><ele>21.0</ele><time>2026-04-04T14:36:00.998Z</time></trkpt><trkpt lat="42.42151468832623" lon="14.148840689111001"><ele>22.0</ele><time>2026-04-04T14:36:01.998Z</time></trkpt><trkpt lat="42.42165756485144" lon="14.148937276525459"><ele>23.0</ele><time>2026-04-04T14:36:02.998Z</time></trkpt><trkpt lat="42.421807891615124" lon="14.149034529631715"><ele>24.0</ele><time>2026-04-04T14:36:03.998Z</time></trkpt><trkpt lat="42.42195435878527" lon="14.149136912575377"><ele>25.333333333333336</ele><time>2026-04-04T14:36:04.998Z</time></trkpt><trkpt lat="42.42210338121126" lon="14.14923920023039"><ele>26.666666666666668</ele><time>2026-04-04T14:36:06Z</time></trkpt><trkpt lat="42.42224719294206" lon="14.149332061025257"><ele>28.0</ele><time>2026-04-04T14:36:07Z</time></trkpt><trkpt lat="42.42237258708214" lon="14.149400667968294"><ele>29.333333333333336</ele><time>2026-04-04T14:36:08Z</time></trkpt><trkpt lat="42.42251616053381" lon="14.149447756156421"><ele>30.666666666666664</ele><time>2026-04-04T14:36:09Z</time></trkpt><trkpt lat="42.422668261787145" lon="14.149462845936519"><ele>32.0</ele><time>2026-04-04T14:36:10Z</time></trkpt><trkpt lat="42.42281835657963" lon="14.149450936233018"><ele>32.0</ele><time>2026-04-04T14:36:11Z</time></trkpt><trkpt lat="42.422972889426156" lon="14.149433656251972"><ele>32.0</ele><time>2026-04-04T14:36:12Z</time></trkpt><trkpt lat="42.42313500612812" lon="14.14941205391112"><ele>32.0</ele><time>2026-04-04T14:36:13Z</time></trkpt><trkpt lat="42.42330374736957" lon="14.149404961057172"><ele>34.33333333333333</ele><time>2026-04-04T14:36:14Z</time></trkpt><trkpt lat="42.42347264716774" lon="14.149401163334769"><ele>36.666666666666664</ele><time>2026-04-04T14:36:15Z</time></trkpt><trkpt lat="42.42364967709907" lon="14.149399271804395"><ele>39.0</ele><time>2026-04-04T14:36:16Z</time></trkpt><trkpt lat="42.42383400356206" lon="14.149394591884947"><ele>40.333333333333336</ele><time>2026-04-04T14:36:17Z</time></trkpt><trkpt lat="42.42401287132115" lon="14.149389328797607"><ele>41.66666666666667</ele><time>2026-04-04T14:36:18Z</time></trkpt><trkpt lat="42.42419838756032" lon="14.149379222981363"><ele>43.0</ele><time>2026-04-04T14:36:19Z</time></trkpt><trkpt lat="42.42439401719822" lon="14.149371180820836"><ele>43.0</ele><time>2026-04-04T14:36:20Z</time></trkpt><trkpt lat="42.424597497338354" lon="14.14935998791381"><ele>43.0</ele><time>2026-04-04T14:36:21Z</time></trkpt><trkpt lat="42.424805531275055" lon="14.149350096088341"><ele>43.0</ele><time>2026-04-04T14:36:22Z</time></trkpt><trkpt lat="42.42502260064491" lon="14.149338767039914"><ele>45.333333333333336</ele><time>2026-04-04T14:36:23Z</time></trkpt><trkpt lat="42.42523954467975" lon="14.14932438502708"><ele>47.66666666666667</ele><time>2026-04-04T14:36:23.999Z</time></trkpt><trkpt lat="42.42545524231596" lon="14.14931412243983"><ele>50.0</ele><time>2026-04-04T14:36:24.999Z</time></trkpt><trkpt lat="42.42567227061285" lon="14.14931147547286"><ele>51.333333333333336</ele><time>2026-04-04T14:36:25.999Z</time></trkpt><trkpt lat="42.42588859441587" lon="14.149316402704008"><ele>52.66666666666667</ele><time>2026-04-04T14:36:26.999Z</time></trkpt><trkpt lat="42.42610193701912" lon="14.149320903907148"><ele>54.0</ele><time>2026-04-04T14:36:27.999Z</time></trkpt><trkpt lat="42.42630199788544" lon="14.149325817901701"><ele>54.66666666666667</ele><time>2026-04-04T14:36:28.999Z</time></trkpt><trkpt lat="42.42649239706778" lon="14.149327857517296"><ele>55.333333333333336</ele><time>2026-04-04T14:36:29.999Z</time></trkpt><trkpt lat="42.42667632701389" lon="14.149324154667282"><ele>56.0</ele><time>2026-04-04T14:36:30.999Z</time></trkpt><trkpt lat="42.42686138104506" lon="14.14931499791557"><ele>56.0</ele><time>2026-04-04T14:36:31.999Z</time></trkpt><trkpt lat="42.42703233045161" lon="14.149300981219875"><ele>56.0</ele><time>2026-04-04T14:36:32.999Z</time></trkpt><trkpt lat="42.42720177134904" lon="14.149273099110445"><ele>56.0</ele><time>2026-04-04T14:36:33.999Z</time></trkpt><trkpt lat="42.427376052556234" lon="14.149216357465267"><ele>56.333333333333336</ele><time>2026-04-04T14:36:34.999Z</time></trkpt><trkpt lat="42.4275560929694" lon="14.149138430421807"><ele>56.66666666666667</ele><time>2026-04-04T14:36:35.999Z</time></trkpt><trkpt lat="42.42773985443806" lon="14.149054709523924"><ele>57.0</ele><time>2026-04-04T14:36:36.999Z</time></trkpt><trkpt lat="42.427927625014725" lon="14.148971607490239"><ele>58.66666666666667</ele><time>2026-04-04T14:36:37.999Z</time></trkpt><trkpt lat="42.428117648199446" lon="14.148892062661519"><ele>60.333333333333336</ele><time>2026-04-04T14:36:38.999Z</time></trkpt><trkpt lat="42.42831333924982" lon="14.148812748580996"><ele>62.0</ele><time>2026-04-04T14:36:39.999Z</time></trkpt><trkpt lat="42.42850763731478" lon="14.148739741651399"><ele>62.0</ele><time>2026-04-04T14:36:40.999Z</time></trkpt><trkpt lat="42.42870771485679" lon="14.148670561399847"><ele>62.0</ele><time>2026-04-04T14:36:41.999Z</time></trkpt><trkpt lat="42.428908263313815" lon="14.148604581835242"><ele>62.0</ele><time>2026-04-04T14:36:42.999Z</time></trkpt><trkpt lat="42.42911140920168" lon="14.148542673784718"><ele>63.0</ele><time>2026-04-04T14:36:43.999Z</time></trkpt><trkpt lat="42.42930886825477" lon="14.148484636234125"><ele>64.0</ele><time>2026-04-04T14:36:44.999Z</time></trkpt><trkpt lat="42.429495628960844" lon="14.148430622068517"><ele>65.0</ele><time>2026-04-04T14:36:45.999Z</time></trkpt><trkpt lat="42.42968031155586" lon="14.148373619632604"><ele>67.0</ele><time>2026-04-04T14:36:46.999Z</time></trkpt><trkpt lat="42.429868644841044" lon="14.148297749302726"><ele>69.0</ele><time>2026-04-04T14:36:47.999Z</time></trkpt><trkpt lat="42.430059296089276" lon="14.148211814014864"><ele>71.0</ele><time>2026-04-04T14:36:48.999Z</time></trkpt><trkpt lat="42.43024957285177" lon="14.148116813624508"><ele>71.33333333333334</ele><time>2026-04-04T14:36:49.999Z</time></trkpt><trkpt lat="42.4304375267318" lon="14.148001619792671"><ele>71.66666666666667</ele><time>2026-04-04T14:36:50.999Z</time></trkpt><trkpt lat="42.43063030665354" lon="14.14788380743491"><ele>72.0</ele><time>2026-04-04T14:36:51.999Z</time></trkpt><trkpt lat="42.430825851531736" lon="14.14776684266362"><ele>74.0</ele><time>2026-04-04T14:36:52.999Z</time></trkpt><trkpt lat="42.43102189243599" lon="14.147645937219734"><ele>76.0</ele><time>2026-04-04T14:36:53.999Z</time></trkpt><trkpt lat="42.431221804506315" lon="14.147522057200806"><ele>78.0</ele><time>2026-04-04T14:36:54.999Z</time></trkpt><trkpt lat="42.43142090528723" lon="14.147403394236957"><ele>83.33333333333333</ele><time>2026-04-04T14:36:55.999Z</time></trkpt><trkpt lat="42.43161741054312" lon="14.147281620580243"><ele>88.66666666666666</ele><time>2026-04-04T14:36:56.999Z</time></trkpt><trkpt lat="42.431809449365566" lon="14.147150381936605"><ele>94.0</ele><time>2026-04-04T14:36:57.999Z</time></trkpt><trkpt lat="42.43199736872956" lon="14.14701452298766"><ele>94.0</ele><time>2026-04-04T14:36:58.999Z</time></trkpt><trkpt lat="42.432176902413325" lon="14.14687491764911"><ele>94.0</ele><time>2026-04-04T14:36:59.999Z</time></trkpt><trkpt lat="42.43234770656696" lon="14.146733377919501"><ele>94.0</ele><time>2026-04-04T14:37:00.999Z</time></trkpt><trkpt lat="42.43250251473709" lon="14.146602300493775"><ele>99.33333333333333</ele><time>2026-04-04T14:37:01.999Z</time></trkpt><trkpt lat="42.43264640110674" lon="14.1464863213158"><ele>104.66666666666666</ele><time>2026-04-04T14:37:02.999Z</time></trkpt><trkpt lat="42.43277547094594" lon="14.146387847584213"><ele>110.0</ele><time>2026-04-04T14:37:03.999Z</time></trkpt><trkpt lat="42.432900522879834" lon="14.146266407487289"><ele>107.66666666666666</ele><time>2026-04-04T14:37:04.999Z</time></trkpt><trkpt lat="42.43302279940989" lon="14.14611491734473"><ele>105.33333333333334</ele><time>2026-04-04T14:37:05.999Z</time></trkpt><trkpt lat="42.4331410872851" lon="14.145943563371528"><ele>103.0</ele><time>2026-04-04T14:37:06.999Z</time></trkpt><trkpt lat="42.43325810084112" lon="14.14576465270767"><ele>107.33333333333334</ele><time>2026-04-04T14:37:07.999Z</time></trkpt><trkpt lat="42.43335990736532" lon="14.145595981910162"><ele>111.66666666666666</ele><time>2026-04-04T14:37:08.999Z</time></trkpt><trkpt lat="42.433451433588274" lon="14.14543629787559"><ele>116.0</ele><time>2026-04-04T14:37:09.999Z</time></trkpt><trkpt lat="42.43353862933858" lon="14.145252698880311"><ele>116.0</ele><time>2026-04-04T14:37:10.999Z</time></trkpt><trkpt lat="42.43361459994417" lon="14.14504379009613"><ele>116.0</ele><time>2026-04-04T14:37:11.999Z</time></trkpt><trkpt lat="42.43366882713456" lon="14.144846593551675"><ele>116.0</ele><time>2026-04-04T14:37:12.999Z</time></trkpt><trkpt lat="42.433718432722436" lon="14.144661784566278"><ele>116.25</ele><time>2026-04-04T14:37:13.999Z</time></trkpt><trkpt lat="42.433766477380004" lon="14.144486638034373"><ele>116.5</ele><time>2026-04-04T14:37:14.999Z</time></trkpt><trkpt lat="42.43385168754726" lon="14.144322844834115"><ele>116.75</ele><time>2026-04-04T14:37:15.999Z</time></trkpt><trkpt lat="42.4339479672886" lon="14.14414408016746"><ele>117.0</ele><time>2026-04-04T14:37:16.999Z</time></trkpt><trkpt lat="42.43407343533525" lon="14.143970843697595"><ele>115.33333333333334</ele><time>2026-04-04T14:37:17.999Z</time></trkpt><trkpt lat="42.434195487272895" lon="14.14377426291283"><ele>113.66666666666667</ele><time>2026-04-04T14:37:18.999Z</time></trkpt><trkpt lat="42.43431496833022" lon="14.143553976271575"><ele>112.0</ele><time>2026-04-04T14:37:19.999Z</time></trkpt><trkpt lat="42.4344285974789" lon="14.143328008879523"><ele>111.33333333333334</ele><time>2026-04-04T14:37:20.999Z</time></trkpt><trkpt lat="42.434540419578845" lon="14.143115266634085"><ele>110.66666666666666</ele><time>2026-04-04T14:37:21.999Z</time></trkpt><trkpt lat="42.434644017706866" lon="14.142925287159699"><ele>110.0</ele><time>2026-04-04T14:37:22.999Z</time></trkpt><trkpt lat="42.43474055583134" lon="14.14273492539886"><ele>110.0</ele><time>2026-04-04T14:37:23.999Z</time></trkpt><trkpt lat="42.4348338444429" lon="14.142540761025382"><ele>110.0</ele><time>2026-04-04T14:37:24.999Z</time></trkpt><trkpt lat="42.43493306175632" lon="14.142371513601786"><ele>110.0</ele><time>2026-04-04T14:37:25.999Z</time></trkpt><trkpt lat="42.435049159728585" lon="14.142228937198919"><ele>112.0</ele><time>2026-04-04T14:37:26.999Z</time></trkpt><trkpt lat="42.43518341573502" lon="14.14211366909495"><ele>114.0</ele><time>2026-04-04T14:37:27.999Z</time></trkpt><trkpt lat="42.435331340825" lon="14.142011971961253"><ele>116.0</ele><time>2026-04-04T14:37:28.999Z</time></trkpt><trkpt lat="42.43547335754083" lon="14.141921767348666"><ele>116.25</ele><time>2026-04-04T14:37:29.999Z</time></trkpt><trkpt lat="42.435603255789566" lon="14.141849432378523"><ele>116.5</ele><time>2026-04-04T14:37:30.999Z</time></trkpt><trkpt lat="42.435734415889996" lon="14.141835062958219"><ele>116.75</ele><time>2026-04-04T14:37:31.999Z</time></trkpt><trkpt lat="42.43584884672296" lon="14.141927323104312"><ele>117.0</ele><time>2026-04-04T14:37:32.999Z</time></trkpt><trkpt lat="42.43598000203671" lon="14.141998641709858"><ele>117.0</ele><time>2026-04-04T14:37:33.999Z</time></trkpt><trkpt lat="42.4361102174374" lon="14.14206559746676"><ele>117.0</ele><time>2026-04-04T14:37:34.999Z</time></trkpt><trkpt lat="42.436254443375894" lon="14.142091016234842"><ele>117.0</ele><time>2026-04-04T14:37:35.999Z</time></trkpt><trkpt lat="42.43641250743217" lon="14.142074333191202"><ele>117.0</ele><time>2026-04-04T14:37:36.999Z</time></trkpt><trkpt lat="42.43657862579425" lon="14.142007012910959"><ele>118.0</ele><time>2026-04-04T14:37:37.999Z</time></trkpt><trkpt lat="42.43675370330608" lon="14.14191820880342"><ele>119.0</ele><time>2026-04-04T14:37:38.999Z</time></trkpt><trkpt lat="42.43693300056706" lon="14.141835026476706"><ele>120.0</ele><time>2026-04-04T14:37:39.999Z</time></trkpt><trkpt lat="42.43712462714345" lon="14.141769646195257"><ele>120.66666666666666</ele><time>2026-04-04T14:37:40.999Z</time></trkpt><trkpt lat="42.43731951479903" lon="14.141724708892635"><ele>121.33333333333333</ele><time>2026-04-04T14:37:41.999Z</time></trkpt><trkpt lat="42.43751387400827" lon="14.14170563625588"><ele>122.0</ele><time>2026-04-04T14:37:42.999Z</time></trkpt><trkpt lat="42.43769037353976" lon="14.141701708997376"><ele>122.0</ele><time>2026-04-04T14:37:43.999Z</time></trkpt><trkpt lat="42.4378586962452" lon="14.1416779421304"><ele>122.0</ele><time>2026-04-04T14:37:44.998Z</time></trkpt><trkpt lat="42.4380381662495" lon="14.141631573154095"><ele>122.0</ele><time>2026-04-04T14:37:45.998Z</time></trkpt><trkpt lat="42.43821674112426" lon="14.141571200170727"><ele>125.0</ele><time>2026-04-04T14:37:46.998Z</time></trkpt><trkpt lat="42.43838188141671" lon="14.141515459524447"><ele>128.0</ele><time>2026-04-04T14:37:47.998Z</time></trkpt><trkpt lat="42.43853747257911" lon="14.141471021123516"><ele>131.0</ele><time>2026-04-04T14:37:48.998Z</time></trkpt><trkpt lat="42.43869609621427" lon="14.141443520196466"><ele>130.75</ele><time>2026-04-04T14:37:49.998Z</time></trkpt><trkpt lat="42.43884535154717" lon="14.141444527636134"><ele>130.5</ele><time>2026-04-04T14:37:50.998Z</time></trkpt><trkpt lat="42.438988137203594" lon="14.141469956775124"><ele>130.25</ele><time>2026-04-04T14:37:51.998Z</time></trkpt><trkpt lat="42.43912644444066" lon="14.141524642222416"><ele>130.0</ele><time>2026-04-04T14:37:52.998Z</time></trkpt><trkpt lat="42.43925844830357" lon="14.141642055349013"><ele>128.66666666666669</ele><time>2026-04-04T14:37:53.998Z</time></trkpt><trkpt lat="42.43940313517367" lon="14.141765287866175"><ele>127.33333333333334</ele><time>2026-04-04T14:37:54.998Z</time></trkpt><trkpt lat="42.439554381611046" lon="14.141876563465065"><ele>126.0</ele><time>2026-04-04T14:37:55.998Z</time></trkpt><trkpt lat="42.439704435312" lon="14.142003903846035"><ele>126.0</ele><time>2026-04-04T14:37:56.998Z</time></trkpt><trkpt lat="42.43984333099445" lon="14.142123912172588"><ele>126.0</ele><time>2026-04-04T14:37:57.998Z</time></trkpt><trkpt lat="42.439967001436585" lon="14.14223144079261"><ele>126.0</ele><time>2026-04-04T14:37:58.998Z</time></trkpt><trkpt lat="42.440093890428145" lon="14.142344441145546"><ele>126.0</ele><time>2026-04-04T14:37:59.998Z</time></trkpt><trkpt lat="42.44021560029165" lon="14.142450161022817"><ele>126.0</ele><time>2026-04-04T14:38:00.998Z</time></trkpt><trkpt lat="42.44032954450416" lon="14.142539492408893"><ele>126.0</ele><time>2026-04-04T14:38:01.998Z</time></trkpt><trkpt lat="42.44046043639991" lon="14.142621457310604"><ele>126.0</ele><time>2026-04-04T14:38:02.998Z</time></trkpt><trkpt lat="42.4406110473728" lon="14.142687332257399"><ele>128.33333333333334</ele><time>2026-04-04T14:38:03.998Z</time></trkpt><trkpt lat="42.44078306728301" lon="14.142737573998803"><ele>130.66666666666669</ele><time>2026-04-04T14:38:04.998Z</time></trkpt><trkpt lat="42.44095206626429" lon="14.142764176210042"><ele>133.0</ele><time>2026-04-04T14:38:05.998Z</time></trkpt><trkpt lat="42.44111227491317" lon="14.142787948924575"><ele>133.0</ele><time>2026-04-04T14:38:06.998Z</time></trkpt><trkpt lat="42.441262807663456" lon="14.142819066159255"><ele>133.0</ele><time>2026-04-04T14:38:07.998Z</time></trkpt><trkpt lat="42.44140049199445" lon="14.142905301561855"><ele>133.0</ele><time>2026-04-04T14:38:08.998Z</time></trkpt><trkpt lat="42.441554235525864" lon="14.143003062997922"><ele>135.0</ele><time>2026-04-04T14:38:09.998Z</time></trkpt><trkpt lat="42.441709035115615" lon="14.143080703801141"><ele>137.0</ele><time>2026-04-04T14:38:11Z</time></trkpt><trkpt lat="42.44184917201958" lon="14.143158912609273"><ele>139.0</ele><time>2026-04-04T14:38:12Z</time></trkpt><trkpt lat="42.441991194105" lon="14.143224144717667"><ele>137.25</ele><time>2026-04-04T14:38:13Z</time></trkpt><trkpt lat="42.44213095622932" lon="14.143289611380471"><ele>135.5</ele><time>2026-04-04T14:38:14Z</time></trkpt><trkpt lat="42.442264527017855" lon="14.143357410591591"><ele>133.75</ele><time>2026-04-04T14:38:15Z</time></trkpt><trkpt lat="42.44238866952872" lon="14.143423548474631"><ele>132.0</ele><time>2026-04-04T14:38:16Z</time></trkpt><trkpt lat="42.44249294616335" lon="14.143481223116552"><ele>132.0</ele><time>2026-04-04T14:38:17Z</time></trkpt><trkpt lat="42.44258097834453" lon="14.143565883927256"><ele>132.0</ele><time>2026-04-04T14:38:18Z</time></trkpt><trkpt lat="42.44264731231577" lon="14.143693085172572"><ele>132.0</ele><time>2026-04-04T14:38:19Z</time></trkpt><trkpt lat="42.44265287433021" lon="14.143860372010156"><ele>132.0</ele><time>2026-04-04T14:38:20Z</time></trkpt><trkpt lat="42.44267127457477" lon="14.144044868366189"><ele>128.0</ele><time>2026-04-04T14:38:21Z</time></trkpt><trkpt lat="42.442676684690234" lon="14.144251648240688"><ele>124.0</ele><time>2026-04-04T14:38:22Z</time></trkpt><trkpt lat="42.44268555152215" lon="14.14446742741478"><ele>120.0</ele><time>2026-04-04T14:38:23Z</time></trkpt><trkpt lat="42.442711459004876" lon="14.144692406257992"><ele>118.33333333333334</ele><time>2026-04-04T14:38:24Z</time></trkpt><trkpt lat="42.4427061535237" lon="14.144903076630282"><ele>116.66666666666667</ele><time>2026-04-04T14:38:25Z</time></trkpt><trkpt lat="42.44275030356817" lon="14.145116632679457"><ele>115.0</ele><time>2026-04-04T14:38:26Z</time></trkpt><trkpt lat="42.44280857858766" lon="14.145339423863604"><ele>115.0</ele><time>2026-04-04T14:38:27Z</time></trkpt><trkpt lat="42.4428911602946" lon="14.145561408680255"><ele>115.0</ele><time>2026-04-04T14:38:28Z</time></trkpt><trkpt lat="42.44298734306923" lon="14.145777722759338"><ele>115.0</ele><time>2026-04-04T14:38:29Z</time></trkpt><trkpt lat="42.44308562880259" lon="14.145977343522961"><ele>118.0</ele><time>2026-04-04T14:38:30Z</time></trkpt><trkpt lat="42.4431673506179" lon="14.146159508967232"><ele>121.0</ele><time>2026-04-04T14:38:31Z</time></trkpt><trkpt lat="42.44324550798873" lon="14.1463287097679"><ele>124.0</ele><time>2026-04-04T14:38:32Z</time></trkpt><trkpt lat="42.44334117961802" lon="14.146475147712962"><ele>127.0</ele><time>2026-04-04T14:38:33Z</time></trkpt><trkpt lat="42.44345960463227" lon="14.146599381888464"><ele>127.0</ele><time>2026-04-04T14:38:34Z</time></trkpt><trkpt lat="42.443594661866335" lon="14.146682981761339"><ele>127.0</ele><time>2026-04-04T14:38:35Z</time></trkpt><trkpt lat="42.44375100030959" lon="14.146743353279778"><ele>127.0</ele><time>2026-04-04T14:38:36Z</time></trkpt><trkpt lat="42.44392354227535" lon="14.146790288054882"><ele>126.0</ele><time>2026-04-04T14:38:37Z</time></trkpt><trkpt lat="42.44409361944554" lon="14.146841749548646"><ele>125.0</ele><time>2026-04-04T14:38:38Z</time></trkpt><trkpt lat="42.44425058071163" lon="14.146893882956764"><ele>124.0</ele><time>2026-04-04T14:38:39Z</time></trkpt><trkpt lat="42.444385215242285" lon="14.146931326000297"><ele>124.0</ele><time>2026-04-04T14:38:40Z</time></trkpt><trkpt lat="42.44450396577829" lon="14.146930011937874"><ele>124.0</ele><time>2026-04-04T14:38:41Z</time></trkpt><trkpt lat="42.44461945384747" lon="14.14687371472493"><ele>124.0</ele><time>2026-04-04T14:38:42Z</time></trkpt><trkpt lat="42.444730848707344" lon="14.146770152565804"><ele>124.0</ele><time>2026-04-04T14:38:43Z</time></trkpt><trkpt lat="42.4448315379638" lon="14.146627671447177"><ele>124.66666666666667</ele><time>2026-04-04T14:38:44Z</time></trkpt><trkpt lat="42.44492178976873" lon="14.146452120703222"><ele>125.33333333333334</ele><time>2026-04-04T14:38:45Z</time></trkpt><trkpt lat="42.44501625988835" lon="14.146263463511678"><ele>126.0</ele><time>2026-04-04T14:38:45.999Z</time></trkpt><trkpt lat="42.44512334009472" lon="14.146069343126278"><ele>126.0</ele><time>2026-04-04T14:38:46.999Z</time></trkpt><trkpt lat="42.44523645144067" lon="14.145867383823727"><ele>126.0</ele><time>2026-04-04T14:38:47.999Z</time></trkpt><trkpt lat="42.44534240476775" lon="14.145671810326126"><ele>126.0</ele><time>2026-04-04T14:38:48.999Z</time></trkpt><trkpt lat="42.445449826163" lon="14.14549340677904"><ele>124.0</ele><time>2026-04-04T14:38:49.999Z</time></trkpt><trkpt lat="42.44556919092776" lon="14.145339811184206"><ele>122.0</ele><time>2026-04-04T14:38:50.999Z</time></trkpt><trkpt lat="42.445706601522495" lon="14.145199967865649"><ele>120.0</ele><time>2026-04-04T14:38:51.999Z</time></trkpt><trkpt lat="42.44584316116214" lon="14.145077598016503"><ele>120.0</ele><time>2026-04-04T14:38:52.999Z</time></trkpt><trkpt lat="42.44598752507431" lon="14.144973160918132"><ele>120.0</ele><time>2026-04-04T14:38:53.999Z</time></trkpt><trkpt lat="42.4461298948267" lon="14.14488256836158"><ele>120.0</ele><time>2026-04-04T14:38:54.999Z</time></trkpt><trkpt lat="42.44627940600501" lon="14.144788299947367"><ele>120.33333333333334</ele><time>2026-04-04T14:38:55.999Z</time></trkpt><trkpt lat="42.44644151294593" lon="14.144707289410782"><ele>120.66666666666667</ele><time>2026-04-04T14:38:56.999Z</time></trkpt><trkpt lat="42.446618419974804" lon="14.14466050247488"><ele>121.0</ele><time>2026-04-04T14:38:57.999Z</time></trkpt><trkpt lat="42.4468037675903" lon="14.14462484317657"><ele>121.0</ele><time>2026-04-04T14:38:58.999Z</time></trkpt><trkpt lat="42.44698294051504" lon="14.144580401873707"><ele>121.0</ele><time>2026-04-04T14:38:59.999Z</time></trkpt><trkpt lat="42.44714064876196" lon="14.144535071073225"><ele>121.0</ele><time>2026-04-04T14:39:00.999Z</time></trkpt><trkpt lat="42.447269448834604" lon="14.14450967278784"><ele>122.0</ele><time>2026-04-04T14:39:01.999Z</time></trkpt><trkpt lat="42.44737103770961" lon="14.14451962207253"><ele>123.0</ele><time>2026-04-04T14:39:02.999Z</time></trkpt><trkpt lat="42.44745940958521" lon="14.14456883949515"><ele>124.0</ele><time>2026-04-04T14:39:03.999Z</time></trkpt><trkpt lat="42.447534077363684" lon="14.144672521803342"><ele>125.0</ele><time>2026-04-04T14:39:04.999Z</time></trkpt><trkpt lat="42.44757865898268" lon="14.144807367507624"><ele>126.0</ele><time>2026-04-04T14:39:05.999Z</time></trkpt><trkpt lat="42.447570950458704" lon="14.144966417199166"><ele>126.25</ele><time>2026-04-04T14:39:06.999Z</time></trkpt><trkpt lat="42.44758720154041" lon="14.145145104498646"><ele>126.5</ele><time>2026-04-04T14:39:07.999Z</time></trkpt><trkpt lat="42.44758081565716" lon="14.145333044519843"><ele>126.75</ele><time>2026-04-04T14:39:08.999Z</time></trkpt><trkpt lat="42.447583589486406" lon="14.14551865872618"><ele>127.0</ele><time>2026-04-04T14:39:09.999Z</time></trkpt><trkpt lat="42.447610998268644" lon="14.145676103019257"><ele>127.5</ele><time>2026-04-04T14:39:10.999Z</time></trkpt><trkpt lat="42.44766298158795" lon="14.145828146290466"><ele>128.0</ele><time>2026-04-04T14:39:11.999Z</time></trkpt><trkpt lat="42.44774911119623" lon="14.145977731348959"><ele>128.5</ele><time>2026-04-04T14:39:12.999Z</time></trkpt><trkpt lat="42.447859745774245" lon="14.146112595354339"><ele>129.0</ele><time>2026-04-04T14:39:13.999Z</time></trkpt><trkpt lat="42.44799405988462" lon="14.146226259796288"><ele>133.33333333333334</ele><time>2026-04-04T14:39:14.999Z</time></trkpt><trkpt lat="42.44814589081276" lon="14.146320156102545"><ele>137.66666666666669</ele><time>2026-04-04T14:39:15.999Z</time></trkpt><trkpt lat="42.4483054741602" lon="14.146388324537638"><ele>142.0</ele><time>2026-04-04T14:39:16.999Z</time></trkpt><trkpt lat="42.448449601762505" lon="14.14643369325136"><ele>142.0</ele><time>2026-04-04T14:39:17.999Z</time></trkpt><trkpt lat="42.44859122230451" lon="14.146461048720877"><ele>142.0</ele><time>2026-04-04T14:39:18.999Z</time></trkpt><trkpt lat="42.448726959089406" lon="14.146463875977043"><ele>142.0</ele><time>2026-04-04T14:39:19.999Z</time></trkpt><trkpt lat="42.448855642296515" lon="14.146426238377899"><ele>142.0</ele><time>2026-04-04T14:39:20.999Z</time></trkpt><trkpt lat="42.44897297746704" lon="14.146360301832411"><ele>142.4</ele><time>2026-04-04T14:39:21.999Z</time></trkpt><trkpt lat="42.44907025238333" lon="14.146277016214814"><ele>142.79999999999998</ele><time>2026-04-04T14:39:22.999Z</time></trkpt><trkpt lat="42.44914927809743" lon="14.14618423516542"><ele>143.2</ele><time>2026-04-04T14:39:23.999Z</time></trkpt><trkpt lat="42.44921349975017" lon="14.146082898903918"><ele>143.6</ele><time>2026-04-04T14:39:24.999Z</time></trkpt><trkpt lat="42.44926555059501" lon="14.145980214848597"><ele>144.0</ele><time>2026-04-04T14:39:25.999Z</time></trkpt><trkpt lat="42.44931486660195" lon="14.14588013647412"><ele>144.0</ele><time>2026-04-04T14:39:26.999Z</time></trkpt><trkpt lat="42.44936267495627" lon="14.14579364654555"><ele>144.0</ele><time>2026-04-04T14:39:27.999Z</time></trkpt><trkpt lat="42.449423317871116" lon="14.145690345339661"><ele>144.0</ele><time>2026-04-04T14:39:28.999Z</time></trkpt><trkpt lat="42.449485360354366" lon="14.145579796949423"><ele>144.0</ele><time>2026-04-04T14:39:29.999Z</time></trkpt><trkpt lat="42.44954710293804" lon="14.145463087724576"><ele>144.0</ele><time>2026-04-04T14:39:30.999Z</time></trkpt><trkpt lat="42.44961073723153" lon="14.145339844976021"><ele>143.6</ele><time>2026-04-04T14:39:31.999Z</time></trkpt><trkpt lat="42.44967081989937" lon="14.145203945728035"><ele>143.2</ele><time>2026-04-04T14:39:32.999Z</time></trkpt><trkpt lat="42.4497197871999" lon="14.145077143171381"><ele>142.79999999999998</ele><time>2026-04-04T14:39:33.999Z</time></trkpt><trkpt lat="42.449763179218294" lon="14.1449473150756"><ele>142.4</ele><time>2026-04-04T14:39:34.999Z</time></trkpt><trkpt lat="42.44980903860828" lon="14.144813268349072"><ele>142.0</ele><time>2026-04-04T14:39:35.999Z</time></trkpt><trkpt lat="42.449854021925056" lon="14.144683069400156"><ele>142.0</ele><time>2026-04-04T14:39:36.999Z</time></trkpt><trkpt lat="42.449893923245455" lon="14.144558136768566"><ele>142.0</ele><time>2026-04-04T14:39:37.999Z</time></trkpt><trkpt lat="42.449925763731784" lon="14.144418364663037"><ele>142.0</ele><time>2026-04-04T14:39:38.999Z</time></trkpt><trkpt lat="42.4499468962538" lon="14.144284112227435"><ele>142.0</ele><time>2026-04-04T14:39:39.999Z</time></trkpt><trkpt lat="42.44995398381117" lon="14.14415227747945"><ele>142.0</ele><time>2026-04-04T14:39:40.999Z</time></trkpt><trkpt lat="42.449949716470485" lon="14.144019769870473"><ele>141.33333333333334</ele><time>2026-04-04T14:39:41.999Z</time></trkpt><trkpt lat="42.44994299929324" lon="14.143892496851072"><ele>140.66666666666669</ele><time>2026-04-04T14:39:42.999Z</time></trkpt><trkpt lat="42.449928292313466" lon="14.143744253934067"><ele>140.0</ele><time>2026-04-04T14:39:43.999Z</time></trkpt><trkpt lat="42.449930239607276" lon="14.1436516411666"><ele>139.33333333333334</ele><time>2026-04-04T14:39:44.999Z</time></trkpt><trkpt lat="42.44992341222688" lon="14.143530503924573"><ele>138.66666666666666</ele><time>2026-04-04T14:39:45.999Z</time></trkpt><trkpt lat="42.449915517857306" lon="14.143413686758699"><ele>138.0</ele><time>2026-04-04T14:39:46.999Z</time></trkpt><trkpt lat="42.44991382024791" lon="14.143310396735844"><ele>137.83333333333334</ele><time>2026-04-04T14:39:47.999Z</time></trkpt><trkpt lat="42.44990714118906" lon="14.143210319062234"><ele>137.66666666666666</ele><time>2026-04-04T14:39:48.999Z</time></trkpt><trkpt lat="42.44989429053044" lon="14.143099826743406"><ele>137.5</ele><time>2026-04-04T14:39:49.999Z</time></trkpt><trkpt lat="42.449865878681194" lon="14.14298656036589"><ele>137.33333333333331</ele><time>2026-04-04T14:39:50.999Z</time></trkpt><trkpt lat="42.44983079697667" lon="14.142873277421202"><ele>137.16666666666666</ele><time>2026-04-04T14:39:51.999Z</time></trkpt><trkpt lat="42.449791812794835" lon="14.142758730965898"><ele>137.0</ele><time>2026-04-04T14:39:52.999Z</time></trkpt><trkpt lat="42.44975587080512" lon="14.142634735368489"><ele>137.0</ele><time>2026-04-04T14:39:53.999Z</time></trkpt><trkpt lat="42.44970984807342" lon="14.142507272048647"><ele>137.0</ele><time>2026-04-04T14:39:54.999Z</time></trkpt><trkpt lat="42.44967102585352" lon="14.14239646550292"><ele>137.0</ele><time>2026-04-04T14:39:55.999Z</time></trkpt><trkpt lat="42.449630561734566" lon="14.14229078127108"><ele>137.0</ele><time>2026-04-04T14:39:56.999Z</time></trkpt><trkpt lat="42.449591011582825" lon="14.142188849928324"><ele>137.0</ele><time>2026-04-04T14:39:57.999Z</time></trkpt><trkpt lat="42.449552040915094" lon="14.142090834507094"><ele>137.6</ele><time>2026-04-04T14:39:58.999Z</time></trkpt><trkpt lat="42.44953895123705" lon="14.141989604121378"><ele>138.2</ele><time>2026-04-04T14:39:59.999Z</time></trkpt><trkpt lat="42.44955266057746" lon="14.141866500898065"><ele>138.8</ele><time>2026-04-04T14:40:00.999Z</time></trkpt><trkpt lat="42.449593627780686" lon="14.141748069181608"><ele>139.4</ele><time>2026-04-04T14:40:01.999Z</time></trkpt><trkpt lat="42.449673640703395" lon="14.141650739490958"><ele>140.0</ele><time>2026-04-04T14:40:02.999Z</time></trkpt><trkpt lat="42.449761177074194" lon="14.141544688874879"><ele>141.25</ele><time>2026-04-04T14:40:03.999Z</time></trkpt><trkpt lat="42.449896254779034" lon="14.141501994670527"><ele>142.5</ele><time>2026-04-04T14:40:04.999Z</time></trkpt><trkpt lat="42.45002254575203" lon="14.141425245776507"><ele>143.75</ele><time>2026-04-04T14:40:05.999Z</time></trkpt><trkpt lat="42.450171839544595" lon="14.141376739264707"><ele>145.0</ele><time>2026-04-04T14:40:06.999Z</time></trkpt><trkpt lat="42.45032394805082" lon="14.141320622864589"><ele>146.25</ele><time>2026-04-04T14:40:07.998Z</time></trkpt><trkpt lat="42.45047763508778" lon="14.141268928764871"><ele>147.5</ele><time>2026-04-04T14:40:08.998Z</time></trkpt><trkpt lat="42.45061708728662" lon="14.141218214037268"><ele>148.75</ele><time>2026-04-04T14:40:09.998Z</time></trkpt><trkpt lat="42.45073755069663" lon="14.141179596980589"><ele>150.0</ele><time>2026-04-04T14:40:10.998Z</time></trkpt><trkpt lat="42.45088235097109" lon="14.141131247567671"><ele>150.0</ele><time>2026-04-04T14:40:11.998Z</time></trkpt><trkpt lat="42.451033046434006" lon="14.141078024587776"><ele>150.0</ele><time>2026-04-04T14:40:12.998Z</time></trkpt><trkpt lat="42.451172726272524" lon="14.141030593079986"><ele>150.0</ele><time>2026-04-04T14:40:13.998Z</time></trkpt><trkpt lat="42.45129312781681" lon="14.140969378505325"><ele>150.0</ele><time>2026-04-04T14:40:14.998Z</time></trkpt><trkpt lat="42.45142227442035" lon="14.14093733243469"><ele>150.5</ele><time>2026-04-04T14:40:15.998Z</time></trkpt><trkpt lat="42.45155475577658" lon="14.14091946447046"><ele>151.0</ele><time>2026-04-04T14:40:17Z</time></trkpt><trkpt lat="42.451684437519695" lon="14.140902615049987"><ele>151.5</ele><time>2026-04-04T14:40:18Z</time></trkpt><trkpt lat="42.451833466147654" lon="14.140880114904027"><ele>152.0</ele><time>2026-04-04T14:40:19Z</time></trkpt><trkpt lat="42.45198412251696" lon="14.140849879871562"><ele>152.0</ele><time>2026-04-04T14:40:20Z</time></trkpt><trkpt lat="42.45212925097412" lon="14.140799970345402"><ele>152.0</ele><time>2026-04-04T14:40:21Z</time></trkpt><trkpt lat="42.45228473763373" lon="14.140790062046007"><ele>152.0</ele><time>2026-04-04T14:40:22Z</time></trkpt><trkpt lat="42.45244528131565" lon="14.14071470754695"><ele>152.0</ele><time>2026-04-04T14:40:23Z</time></trkpt><trkpt lat="42.45260161636678" lon="14.140671747244136"><ele>152.0</ele><time>2026-04-04T14:40:24Z</time></trkpt><trkpt lat="42.452740530727915" lon="14.140642943682764"><ele>152.0</ele><time>2026-04-04T14:40:25Z</time></trkpt><trkpt lat="42.45284073710103" lon="14.140626900718996"><ele>152.0</ele><time>2026-04-04T14:40:26Z</time></trkpt><trkpt lat="42.45291544960362" lon="14.140608374007078"><ele>155.39999999999998</ele><time>2026-04-04T14:40:27Z</time></trkpt><trkpt lat="42.453004136894" lon="14.140578430230995"><ele>158.79999999999998</ele><time>2026-04-04T14:40:29Z</time></trkpt><trkpt lat="42.453074147860576" lon="14.140562593627676"><ele>162.2</ele><time>2026-04-04T14:40:31Z</time></trkpt><trkpt lat="42.45316820352273" lon="14.140515179581007"><ele>165.6</ele><time>2026-04-04T14:40:33Z</time></trkpt><trkpt lat="42.45325644308714" lon="14.140446465838806"><ele>169.0</ele><time>2026-04-04T14:40:35Z</time></trkpt><trkpt lat="42.45337135929681" lon="14.140376589602926"><ele>169.0</ele><time>2026-04-04T14:40:37Z</time></trkpt><trkpt lat="42.45347330069779" lon="14.14032031711624"><ele>169.0</ele><time>2026-04-04T14:40:39Z</time></trkpt><trkpt lat="42.45358343306011" lon="14.140263239401332"><ele>169.0</ele><time>2026-04-04T14:40:41Z</time></trkpt><trkpt lat="42.453699707810244" lon="14.140209559544115"><ele>169.0</ele><time>2026-04-04T14:40:43Z</time></trkpt><trkpt lat="42.4537604485538" lon="14.140174492704496"><ele>169.0</ele><time>2026-04-04T14:40:44Z</time></trkpt><trkpt lat="42.45381936882503" lon="14.140131609519619"><ele>169.42857142857144</ele><time>2026-04-04T14:40:45Z</time></trkpt><trkpt lat="42.4538726328101" lon="14.140073917852144"><ele>169.85714285714286</ele><time>2026-04-04T14:40:46Z</time></trkpt><trkpt lat="42.453921385244904" lon="14.140006156913108"><ele>170.28571428571428</ele><time>2026-04-04T14:40:47Z</time></trkpt><trkpt lat="42.45396139872149" lon="14.139930323157788"><ele>170.71428571428572</ele><time>2026-04-04T14:40:48Z</time></trkpt><trkpt lat="42.45399779876995" lon="14.139841459599714"><ele>171.14285714285714</ele><time>2026-04-04T14:40:49Z</time></trkpt><trkpt lat="42.454036803329025" lon="14.139757201480183"><ele>171.57142857142858</ele><time>2026-04-04T14:40:50Z</time></trkpt><trkpt lat="42.4540739652418" lon="14.139671210753082"><ele>172.0</ele><time>2026-04-04T14:40:51Z</time></trkpt><trkpt lat="42.45411866873063" lon="14.139586281005974"><ele>172.33333333333334</ele><time>2026-04-04T14:40:52Z</time></trkpt><trkpt lat="42.45416527963716" lon="14.13950818866494"><ele>172.66666666666669</ele><time>2026-04-04T14:40:53Z</time></trkpt><trkpt lat="42.45420825807492" lon="14.139423497441769"><ele>173.0</ele><time>2026-04-04T14:40:54Z</time></trkpt><trkpt lat="42.45425355793329" lon="14.139337951027224"><ele>173.33333333333334</ele><time>2026-04-04T14:40:55Z</time></trkpt><trkpt lat="42.4542919994002" lon="14.139256430269773"><ele>173.66666666666666</ele><time>2026-04-04T14:40:56Z</time></trkpt><trkpt lat="42.454354413404154" lon="14.13912616605084"><ele>174.0</ele><time>2026-04-04T14:40:57.999Z</time></trkpt><trkpt lat="42.45439126087904" lon="14.139055814225946"><ele>173.79999999999998</ele><time>2026-04-04T14:40:58.999Z</time></trkpt><trkpt lat="42.45443006584232" lon="14.138984429770833"><ele>173.6</ele><time>2026-04-04T14:40:59.999Z</time></trkpt><trkpt lat="42.45450014646349" lon="14.138855715729875"><ele>173.4</ele><time>2026-04-04T14:41:01.999Z</time></trkpt><trkpt lat="42.45456209995167" lon="14.138743970350946"><ele>173.2</ele><time>2026-04-04T14:41:03.999Z</time></trkpt><trkpt lat="42.454632638719005" lon="14.138624373790849"><ele>173.0</ele><time>2026-04-04T14:41:05.999Z</time></trkpt><trkpt lat="42.45471125119187" lon="14.138493819545458"><ele>173.0</ele><time>2026-04-04T14:41:07.999Z</time></trkpt><trkpt lat="42.45479787297658" lon="14.138352369381726"><ele>173.0</ele><time>2026-04-04T14:41:09.999Z</time></trkpt><trkpt lat="42.4548599282732" lon="14.138252677151913"><ele>173.0</ele><time>2026-04-04T14:41:10.999Z</time></trkpt><trkpt lat="42.45491085273" lon="14.138168042462562"><ele>173.0</ele><time>2026-04-04T14:41:11.999Z</time></trkpt><trkpt lat="42.45495511428829" lon="14.138083918687512"><ele>173.0</ele><time>2026-04-04T14:41:12.999Z</time></trkpt><trkpt lat="42.45499776204822" lon="14.137997591573521"><ele>173.0</ele><time>2026-04-04T14:41:13.999Z</time></trkpt><trkpt lat="42.45502937290311" lon="14.137911969944016"><ele>173.0</ele><time>2026-04-04T14:41:14.999Z</time></trkpt><trkpt lat="42.45505291525842" lon="14.137756098192426"><ele>173.0</ele><time>2026-04-04T14:41:16.999Z</time></trkpt><trkpt lat="42.45505601553748" lon="14.137578076895844"><ele>173.0</ele><time>2026-04-04T14:41:18.999Z</time></trkpt><trkpt lat="42.45505685702015" lon="14.137477251719266"><ele>173.0</ele><time>2026-04-04T14:41:19.999Z</time></trkpt><trkpt lat="42.455056958196444" lon="14.137374965754876"><ele>173.0</ele><time>2026-04-04T14:41:20.999Z</time></trkpt><trkpt lat="42.455045304247044" lon="14.137202592314042"><ele>173.0</ele><time>2026-04-04T14:41:22.999Z</time></trkpt><trkpt lat="42.455042119317895" lon="14.13711207660071"><ele>173.0</ele><time>2026-04-04T14:41:23.999Z</time></trkpt><trkpt lat="42.45504368092216" lon="14.136959746337514"><ele>173.0</ele><time>2026-04-04T14:41:25.999Z</time></trkpt><trkpt lat="42.45504563582377" lon="14.1368338300621"><ele>173.0</ele><time>2026-04-04T14:41:27.999Z</time></trkpt><trkpt lat="42.455045078891125" lon="14.136736123138881"><ele>173.0</ele><time>2026-04-04T14:41:29.999Z</time></trkpt><trkpt lat="42.45503961761876" lon="14.136619230060383"><ele>173.0</ele><time>2026-04-04T14:41:32.999Z</time></trkpt><trkpt lat="42.455057395240374" lon="14.136484962851956"><ele>173.0</ele><time>2026-04-04T14:41:35.999Z</time></trkpt><trkpt lat="42.45513076581627" lon="14.136410017042865"><ele>173.0</ele><time>2026-04-04T14:41:37.999Z</time></trkpt><trkpt lat="42.45519713770595" lon="14.13640495085891"><ele>173.0</ele><time>2026-04-04T14:41:38.999Z</time></trkpt><trkpt lat="42.45525818765091" lon="14.136380153099763"><ele>173.0</ele><time>2026-04-04T14:41:39.999Z</time></trkpt><trkpt lat="42.45532670196174" lon="14.136353896618978"><ele>174.16666666666666</ele><time>2026-04-04T14:41:40.999Z</time></trkpt><trkpt lat="42.45539930602314" lon="14.136326067053616"><ele>175.33333333333331</ele><time>2026-04-04T14:41:41.999Z</time></trkpt><trkpt lat="42.45546593515131" lon="14.136291272550952"><ele>176.5</ele><time>2026-04-04T14:41:42.999Z</time></trkpt><trkpt lat="42.45553243216711" lon="14.136237359160233"><ele>177.66666666666666</ele><time>2026-04-04T14:41:43.999Z</time></trkpt><trkpt lat="42.455595902342885" lon="14.136191001928795"><ele>178.83333333333334</ele><time>2026-04-04T14:41:44.999Z</time></trkpt><trkpt lat="42.45565325905185" lon="14.136154260342721"><ele>180.0</ele><time>2026-04-04T14:41:45.999Z</time></trkpt><trkpt lat="42.4557626580919" lon="14.136079803420989"><ele>180.0</ele><time>2026-04-04T14:41:47.999Z</time></trkpt><trkpt lat="42.45587165257088" lon="14.13601466757166"><ele>180.0</ele><time>2026-04-04T14:41:49.999Z</time></trkpt><trkpt lat="42.45597868322134" lon="14.135987235132854"><ele>180.0</ele><time>2026-04-04T14:41:51.999Z</time></trkpt><trkpt lat="42.45609676661267" lon="14.136111218118513"><ele>180.0</ele><time>2026-04-04T14:41:52.999Z</time></trkpt><trkpt lat="42.45617202931967" lon="14.136143557423416"><ele>180.0</ele><time>2026-04-04T14:41:53.999Z</time></trkpt><trkpt lat="42.45623061397823" lon="14.136188575674865"><ele>180.0</ele><time>2026-04-04T14:41:55.999Z</time></trkpt><trkpt lat="42.45632929465138" lon="14.136224427755558"><ele>180.0</ele><time>2026-04-04T14:42:01.999Z</time></trkpt><trkpt lat="42.45640874019617" lon="14.136241141270284"><ele>180.0</ele><time>2026-04-04T14:42:02.999Z</time></trkpt><trkpt lat="42.456501486007795" lon="14.136278730477345"><ele>180.0</ele><time>2026-04-04T14:42:03.999Z</time></trkpt><trkpt lat="42.45658795087299" lon="14.136286420925297"><ele>180.0</ele><time>2026-04-04T14:42:04.999Z</time></trkpt><trkpt lat="42.45668488344276" lon="14.13627890123467"><ele>177.83333333333334</ele><time>2026-04-04T14:42:05.999Z</time></trkpt><trkpt lat="42.45676582995443" lon="14.136260123193988"><ele>175.66666666666666</ele><time>2026-04-04T14:42:06.999Z</time></trkpt><trkpt lat="42.456842052492895" lon="14.136234575425473"><ele>173.5</ele><time>2026-04-04T14:42:07.999Z</time></trkpt><trkpt lat="42.45691967095451" lon="14.13624062301325"><ele>171.33333333333331</ele><time>2026-04-04T14:42:08.999Z</time></trkpt><trkpt lat="42.4569969414705" lon="14.13622929697778"><ele>169.16666666666666</ele><time>2026-04-04T14:42:09.999Z</time></trkpt><trkpt lat="42.45707607437509" lon="14.136201833412843"><ele>167.0</ele><time>2026-04-04T14:42:10.999Z</time></trkpt><trkpt lat="42.45715170543161" lon="14.13620665121542"><ele>165.71428571428572</ele><time>2026-04-04T14:42:11.999Z</time></trkpt><trkpt lat="42.45722863220523" lon="14.136208776344247"><ele>164.42857142857144</ele><time>2026-04-04T14:42:12.999Z</time></trkpt><trkpt lat="42.45730571705594" lon="14.136198441904183"><ele>163.14285714285717</ele><time>2026-04-04T14:42:13.999Z</time></trkpt><trkpt lat="42.45738726152539" lon="14.136215268260866"><ele>161.85714285714286</ele><time>2026-04-04T14:42:14.999Z</time></trkpt><trkpt lat="42.45745953342683" lon="14.136204252414574"><ele>160.57142857142858</ele><time>2026-04-04T14:42:15.999Z</time></trkpt><trkpt lat="42.45752304642118" lon="14.136167245148302"><ele>159.2857142857143</ele><time>2026-04-04T14:42:16.998Z</time></trkpt><trkpt lat="42.45758948838708" lon="14.136156018774939"><ele>158.0</ele><time>2026-04-04T14:42:17.998Z</time></trkpt><trkpt lat="42.457694310482644" lon="14.13615395447342"><ele>158.0</ele><time>2026-04-04T14:42:19.998Z</time></trkpt><trkpt lat="42.457767636077044" lon="14.13612713865804"><ele>158.0</ele><time>2026-04-04T14:42:22Z</time></trkpt></trkseg></trk></gpx>